<?xml version="1.0" encoding="UTF-8" standalone="no" ?>
<gpx xmlns="http://www.topografix.com/GPX/1/1" xmlns:xsi="http://www.w3.org/2001/XMLSchema-instance" xsi:schemaLocation="http://www.topografix.com/GPX/1/1 http://www.topografix.com/GPX/1/1/gpx.xsd" version="1.1" creator="VisuGPX - https://www.visugpx.com">
  <metadata>
    <name>bras mouton</name>
    <desc><![CDATA[qsqsqsqsqsqsqsqsq]]></desc>
  </metadata>
  <trk>
    <name><![CDATA[SportyPalTrack]]></name>
    <desc><![CDATA[The track description]]></desc>
    <trkseg>
      <trkpt lat="-21.20792" lon="55.29841">
        <ele>175.69064331055</ele>
        <time>2012-11-06T06:21:34Z</time>
      </trkpt>
      <trkpt lat="-21.208" lon="55.29846">
        <ele>182.50462341309</ele>
        <time>2012-11-06T06:21:35Z</time>
      </trkpt>
      <trkpt lat="-21.208" lon="55.29846">
        <ele>182.50462341309</ele>
        <time>2012-11-06T06:21:35Z</time>
      </trkpt>
      <trkpt lat="-21.208" lon="55.29846">
        <ele>182.50462341309</ele>
        <time>2012-11-06T06:21:36Z</time>
      </trkpt>
      <trkpt lat="-21.208" lon="55.29846">
        <ele>182.50462341309</ele>
        <time>2012-11-06T06:21:38Z</time>
      </trkpt>
      <trkpt lat="-21.208" lon="55.29846">
        <ele>182.50462341309</ele>
        <time>2012-11-06T06:21:40Z</time>
      </trkpt>
      <trkpt lat="-21.20803" lon="55.2985">
        <ele>186.86854553223</ele>
        <time>2012-11-06T06:21:41Z</time>
      </trkpt>
      <trkpt lat="-21.20803" lon="55.2985">
        <ele>186.86854553223</ele>
        <time>2012-11-06T06:21:42Z</time>
      </trkpt>
      <trkpt lat="-21.20803" lon="55.2985">
        <ele>186.86854553223</ele>
        <time>2012-11-06T06:21:44Z</time>
      </trkpt>
      <trkpt lat="-21.20803" lon="55.2985">
        <ele>186.86854553223</ele>
        <time>2012-11-06T06:21:46Z</time>
      </trkpt>
      <trkpt lat="-21.20803" lon="55.2985">
        <ele>186.86854553223</ele>
        <time>2012-11-06T06:21:47Z</time>
      </trkpt>
      <trkpt lat="-21.20803" lon="55.2985">
        <ele>186.86854553223</ele>
        <time>2012-11-06T06:21:48Z</time>
      </trkpt>
      <trkpt lat="-21.20803" lon="55.2985">
        <ele>186.86854553223</ele>
        <time>2012-11-06T06:21:50Z</time>
      </trkpt>
      <trkpt lat="-21.20803" lon="55.2985">
        <ele>186.86854553223</ele>
        <time>2012-11-06T06:21:50Z</time>
      </trkpt>
      <trkpt lat="-21.20803" lon="55.2985">
        <ele>186.86854553223</ele>
        <time>2012-11-06T06:21:51Z</time>
      </trkpt>
      <trkpt lat="-21.20803" lon="55.2985">
        <ele>186.86854553223</ele>
        <time>2012-11-06T06:21:51Z</time>
      </trkpt>
      <trkpt lat="-21.20803" lon="55.2985">
        <ele>186.86854553223</ele>
        <time>2012-11-06T06:21:53Z</time>
      </trkpt>
      <trkpt lat="-21.20803" lon="55.2985">
        <ele>186.86854553223</ele>
        <time>2012-11-06T06:21:53Z</time>
      </trkpt>
      <trkpt lat="-21.20803" lon="55.2985">
        <ele>186.86854553223</ele>
        <time>2012-11-06T06:21:54Z</time>
      </trkpt>
      <trkpt lat="-21.20803" lon="55.2985">
        <ele>186.86854553223</ele>
        <time>2012-11-06T06:21:54Z</time>
      </trkpt>
      <trkpt lat="-21.20803" lon="55.2985">
        <ele>186.86854553223</ele>
        <time>2012-11-06T06:21:56Z</time>
      </trkpt>
      <trkpt lat="-21.20803" lon="55.2985">
        <ele>186.86854553223</ele>
        <time>2012-11-06T06:21:56Z</time>
      </trkpt>
      <trkpt lat="-21.20803" lon="55.2985">
        <ele>186.86854553223</ele>
        <time>2012-11-06T06:21:58Z</time>
      </trkpt>
      <trkpt lat="-21.20803" lon="55.2985">
        <ele>186.86854553223</ele>
        <time>2012-11-06T06:21:58Z</time>
      </trkpt>
      <trkpt lat="-21.20803" lon="55.2985">
        <ele>200.54370117188</ele>
        <time>2012-11-06T06:22:00Z</time>
      </trkpt>
      <trkpt lat="-21.20803" lon="55.2985">
        <ele>200.54370117188</ele>
        <time>2012-11-06T06:22:00Z</time>
      </trkpt>
      <trkpt lat="-21.20802" lon="55.29852">
        <ele>198.25277709961</ele>
        <time>2012-11-06T06:22:02Z</time>
      </trkpt>
      <trkpt lat="-21.20802" lon="55.29852">
        <ele>198.25277709961</ele>
        <time>2012-11-06T06:22:02Z</time>
      </trkpt>
      <trkpt lat="-21.20802" lon="55.29852">
        <ele>195.99603271484</ele>
        <time>2012-11-06T06:22:04Z</time>
      </trkpt>
      <trkpt lat="-21.20802" lon="55.29852">
        <ele>195.99603271484</ele>
        <time>2012-11-06T06:22:04Z</time>
      </trkpt>
      <trkpt lat="-21.20802" lon="55.29852">
        <ele>190.23379516602</ele>
        <time>2012-11-06T06:22:06Z</time>
      </trkpt>
      <trkpt lat="-21.20802" lon="55.29852">
        <ele>190.23379516602</ele>
        <time>2012-11-06T06:22:06Z</time>
      </trkpt>
      <trkpt lat="-21.20802" lon="55.29852">
        <ele>189.32225036621</ele>
        <time>2012-11-06T06:22:07Z</time>
      </trkpt>
      <trkpt lat="-21.20802" lon="55.29852">
        <ele>189.32225036621</ele>
        <time>2012-11-06T06:22:07Z</time>
      </trkpt>
      <trkpt lat="-21.20802" lon="55.29853">
        <ele>188.009765625</ele>
        <time>2012-11-06T06:22:08Z</time>
      </trkpt>
      <trkpt lat="-21.20802" lon="55.29853">
        <ele>188.009765625</ele>
        <time>2012-11-06T06:22:08Z</time>
      </trkpt>
      <trkpt lat="-21.20802" lon="55.29853">
        <ele>185.88833618164</ele>
        <time>2012-11-06T06:22:10Z</time>
      </trkpt>
      <trkpt lat="-21.20802" lon="55.29853">
        <ele>188.63537597656</ele>
        <time>2012-11-06T06:22:12Z</time>
      </trkpt>
      <trkpt lat="-21.20802" lon="55.29853">
        <ele>188.63537597656</ele>
        <time>2012-11-06T06:22:12Z</time>
      </trkpt>
      <trkpt lat="-21.20802" lon="55.29853">
        <ele>189.02848815918</ele>
        <time>2012-11-06T06:22:13Z</time>
      </trkpt>
      <trkpt lat="-21.20802" lon="55.29853">
        <ele>189.02848815918</ele>
        <time>2012-11-06T06:22:13Z</time>
      </trkpt>
      <trkpt lat="-21.20802" lon="55.29853">
        <ele>187.94569396973</ele>
        <time>2012-11-06T06:22:15Z</time>
      </trkpt>
      <trkpt lat="-21.20802" lon="55.29853">
        <ele>187.94569396973</ele>
        <time>2012-11-06T06:22:15Z</time>
      </trkpt>
      <trkpt lat="-21.20802" lon="55.29853">
        <ele>187.52775573731</ele>
        <time>2012-11-06T06:22:17Z</time>
      </trkpt>
      <trkpt lat="-21.20802" lon="55.29853">
        <ele>187.52775573731</ele>
        <time>2012-11-06T06:22:17Z</time>
      </trkpt>
      <trkpt lat="-21.20802" lon="55.29853">
        <ele>188.59591674805</ele>
        <time>2012-11-06T06:22:18Z</time>
      </trkpt>
      <trkpt lat="-21.20802" lon="55.29853">
        <ele>188.59591674805</ele>
        <time>2012-11-06T06:22:18Z</time>
      </trkpt>
      <trkpt lat="-21.20802" lon="55.29853">
        <ele>188.52789306641</ele>
        <time>2012-11-06T06:22:19Z</time>
      </trkpt>
      <trkpt lat="-21.20802" lon="55.29853">
        <ele>188.52789306641</ele>
        <time>2012-11-06T06:22:19Z</time>
      </trkpt>
      <trkpt lat="-21.20802" lon="55.29853">
        <ele>189.21018981934</ele>
        <time>2012-11-06T06:22:21Z</time>
      </trkpt>
      <trkpt lat="-21.20802" lon="55.29853">
        <ele>189.21018981934</ele>
        <time>2012-11-06T06:22:21Z</time>
      </trkpt>
      <trkpt lat="-21.20802" lon="55.29853">
        <ele>189.60810852051</ele>
        <time>2012-11-06T06:22:23Z</time>
      </trkpt>
      <trkpt lat="-21.20802" lon="55.29853">
        <ele>189.60810852051</ele>
        <time>2012-11-06T06:22:23Z</time>
      </trkpt>
      <trkpt lat="-21.20802" lon="55.29853">
        <ele>188.45741271973</ele>
        <time>2012-11-06T06:22:24Z</time>
      </trkpt>
      <trkpt lat="-21.20802" lon="55.29853">
        <ele>188.45741271973</ele>
        <time>2012-11-06T06:22:24Z</time>
      </trkpt>
      <trkpt lat="-21.20802" lon="55.29853">
        <ele>187.64726257324</ele>
        <time>2012-11-06T06:22:25Z</time>
      </trkpt>
      <trkpt lat="-21.20802" lon="55.29853">
        <ele>187.64726257324</ele>
        <time>2012-11-06T06:22:25Z</time>
      </trkpt>
      <trkpt lat="-21.20802" lon="55.29853">
        <ele>189.4940032959</ele>
        <time>2012-11-06T06:22:26Z</time>
      </trkpt>
      <trkpt lat="-21.20802" lon="55.29853">
        <ele>189.4940032959</ele>
        <time>2012-11-06T06:22:26Z</time>
      </trkpt>
      <trkpt lat="-21.20802" lon="55.29853">
        <ele>191.72454833984</ele>
        <time>2012-11-06T06:22:27Z</time>
      </trkpt>
      <trkpt lat="-21.20802" lon="55.29853">
        <ele>191.72454833984</ele>
        <time>2012-11-06T06:22:27Z</time>
      </trkpt>
      <trkpt lat="-21.20802" lon="55.29853">
        <ele>193.51115417481</ele>
        <time>2012-11-06T06:22:28Z</time>
      </trkpt>
      <trkpt lat="-21.20802" lon="55.29853">
        <ele>193.51115417481</ele>
        <time>2012-11-06T06:22:28Z</time>
      </trkpt>
      <trkpt lat="-21.20802" lon="55.29853">
        <ele>191.16932678223</ele>
        <time>2012-11-06T06:22:30Z</time>
      </trkpt>
      <trkpt lat="-21.20802" lon="55.29853">
        <ele>191.16932678223</ele>
        <time>2012-11-06T06:22:30Z</time>
      </trkpt>
      <trkpt lat="-21.20802" lon="55.29853">
        <ele>190.1854095459</ele>
        <time>2012-11-06T06:22:31Z</time>
      </trkpt>
      <trkpt lat="-21.20802" lon="55.29853">
        <ele>190.1854095459</ele>
        <time>2012-11-06T06:22:31Z</time>
      </trkpt>
      <trkpt lat="-21.20802" lon="55.29853">
        <ele>189.83905029297</ele>
        <time>2012-11-06T06:22:33Z</time>
      </trkpt>
      <trkpt lat="-21.20802" lon="55.29853">
        <ele>189.83905029297</ele>
        <time>2012-11-06T06:22:33Z</time>
      </trkpt>
      <trkpt lat="-21.20802" lon="55.29853">
        <ele>190.53767395019</ele>
        <time>2012-11-06T06:22:34Z</time>
      </trkpt>
      <trkpt lat="-21.20802" lon="55.29853">
        <ele>190.53767395019</ele>
        <time>2012-11-06T06:22:34Z</time>
      </trkpt>
      <trkpt lat="-21.20802" lon="55.29853">
        <ele>189.64216613769</ele>
        <time>2012-11-06T06:22:35Z</time>
      </trkpt>
      <trkpt lat="-21.20802" lon="55.29853">
        <ele>189.64216613769</ele>
        <time>2012-11-06T06:22:35Z</time>
      </trkpt>
      <trkpt lat="-21.20802" lon="55.29853">
        <ele>189.64216613769</ele>
        <time>2012-11-06T06:22:35Z</time>
      </trkpt>
      <trkpt lat="-21.20802" lon="55.29853">
        <ele>189.64216613769</ele>
        <time>2012-11-06T06:22:35Z</time>
      </trkpt>
      <trkpt lat="-21.20802" lon="55.29853">
        <ele>188.33044433594</ele>
        <time>2012-11-06T06:22:36Z</time>
      </trkpt>
      <trkpt lat="-21.20802" lon="55.29853">
        <ele>188.33044433594</ele>
        <time>2012-11-06T06:22:36Z</time>
      </trkpt>
      <trkpt lat="-21.20802" lon="55.29853">
        <ele>188.23933410644</ele>
        <time>2012-11-06T06:22:38Z</time>
      </trkpt>
      <trkpt lat="-21.20802" lon="55.29853">
        <ele>188.23933410644</ele>
        <time>2012-11-06T06:22:38Z</time>
      </trkpt>
      <trkpt lat="-21.20802" lon="55.29853">
        <ele>188.18936157227</ele>
        <time>2012-11-06T06:22:39Z</time>
      </trkpt>
      <trkpt lat="-21.20802" lon="55.29853">
        <ele>188.18936157227</ele>
        <time>2012-11-06T06:22:39Z</time>
      </trkpt>
      <trkpt lat="-21.20802" lon="55.29853">
        <ele>188.05346679688</ele>
        <time>2012-11-06T06:22:41Z</time>
      </trkpt>
      <trkpt lat="-21.20802" lon="55.29853">
        <ele>188.05346679688</ele>
        <time>2012-11-06T06:22:41Z</time>
      </trkpt>
      <trkpt lat="-21.20802" lon="55.29853">
        <ele>189.482421875</ele>
        <time>2012-11-06T06:22:42Z</time>
      </trkpt>
      <trkpt lat="-21.20802" lon="55.29853">
        <ele>189.482421875</ele>
        <time>2012-11-06T06:22:42Z</time>
      </trkpt>
      <trkpt lat="-21.20802" lon="55.29853">
        <ele>189.37326049805</ele>
        <time>2012-11-06T06:22:44Z</time>
      </trkpt>
      <trkpt lat="-21.20802" lon="55.29853">
        <ele>189.37326049805</ele>
        <time>2012-11-06T06:22:44Z</time>
      </trkpt>
      <trkpt lat="-21.20802" lon="55.29853">
        <ele>187.98301696777</ele>
        <time>2012-11-06T06:22:46Z</time>
      </trkpt>
      <trkpt lat="-21.20802" lon="55.29853">
        <ele>187.98301696777</ele>
        <time>2012-11-06T06:22:46Z</time>
      </trkpt>
      <trkpt lat="-21.20802" lon="55.29853">
        <ele>191.55497741699</ele>
        <time>2012-11-06T06:22:48Z</time>
      </trkpt>
      <trkpt lat="-21.20802" lon="55.29853">
        <ele>191.55497741699</ele>
        <time>2012-11-06T06:22:48Z</time>
      </trkpt>
      <trkpt lat="-21.20802" lon="55.29853">
        <ele>191.29861450195</ele>
        <time>2012-11-06T06:22:49Z</time>
      </trkpt>
      <trkpt lat="-21.20802" lon="55.29853">
        <ele>191.29861450195</ele>
        <time>2012-11-06T06:22:49Z</time>
      </trkpt>
      <trkpt lat="-21.20802" lon="55.29853">
        <ele>192.61112976074</ele>
        <time>2012-11-06T06:22:51Z</time>
      </trkpt>
      <trkpt lat="-21.20802" lon="55.29853">
        <ele>192.61112976074</ele>
        <time>2012-11-06T06:22:51Z</time>
      </trkpt>
      <trkpt lat="-21.20802" lon="55.29853">
        <ele>193.13203430176</ele>
        <time>2012-11-06T06:22:52Z</time>
      </trkpt>
      <trkpt lat="-21.20802" lon="55.29853">
        <ele>193.13203430176</ele>
        <time>2012-11-06T06:22:52Z</time>
      </trkpt>
      <trkpt lat="-21.20802" lon="55.29853">
        <ele>191.68159484863</ele>
        <time>2012-11-06T06:22:54Z</time>
      </trkpt>
      <trkpt lat="-21.20802" lon="55.29853">
        <ele>191.68159484863</ele>
        <time>2012-11-06T06:22:54Z</time>
      </trkpt>
      <trkpt lat="-21.20802" lon="55.29853">
        <ele>191.35014343262</ele>
        <time>2012-11-06T06:22:55Z</time>
      </trkpt>
      <trkpt lat="-21.20802" lon="55.29853">
        <ele>191.35014343262</ele>
        <time>2012-11-06T06:22:55Z</time>
      </trkpt>
      <trkpt lat="-21.20802" lon="55.29853">
        <ele>191.10601806641</ele>
        <time>2012-11-06T06:22:56Z</time>
      </trkpt>
      <trkpt lat="-21.20802" lon="55.29853">
        <ele>191.10601806641</ele>
        <time>2012-11-06T06:22:56Z</time>
      </trkpt>
      <trkpt lat="-21.20802" lon="55.29853">
        <ele>189.705078125</ele>
        <time>2012-11-06T06:22:58Z</time>
      </trkpt>
      <trkpt lat="-21.20802" lon="55.29853">
        <ele>189.705078125</ele>
        <time>2012-11-06T06:22:58Z</time>
      </trkpt>
      <trkpt lat="-21.20802" lon="55.29853">
        <ele>190.36546325684</ele>
        <time>2012-11-06T06:23:00Z</time>
      </trkpt>
      <trkpt lat="-21.20802" lon="55.29853">
        <ele>190.36546325684</ele>
        <time>2012-11-06T06:23:00Z</time>
      </trkpt>
      <trkpt lat="-21.20798" lon="55.29852">
        <ele>192.2488861084</ele>
        <time>2012-11-06T06:23:02Z</time>
      </trkpt>
      <trkpt lat="-21.20798" lon="55.29852">
        <ele>192.2488861084</ele>
        <time>2012-11-06T06:23:02Z</time>
      </trkpt>
      <trkpt lat="-21.20798" lon="55.29852">
        <ele>192.55879211426</ele>
        <time>2012-11-06T06:23:03Z</time>
      </trkpt>
      <trkpt lat="-21.20798" lon="55.2985">
        <ele>192.03994750977</ele>
        <time>2012-11-06T06:23:04Z</time>
      </trkpt>
      <trkpt lat="-21.20799" lon="55.29845">
        <ele>189.00601196289</ele>
        <time>2012-11-06T06:23:06Z</time>
      </trkpt>
      <trkpt lat="-21.20801" lon="55.2984">
        <ele>187.33757019043</ele>
        <time>2012-11-06T06:23:08Z</time>
      </trkpt>
      <trkpt lat="-21.20802" lon="55.29838">
        <ele>186.37007141113</ele>
        <time>2012-11-06T06:23:09Z</time>
      </trkpt>
      <trkpt lat="-21.20803" lon="55.29833">
        <ele>185.35662841797</ele>
        <time>2012-11-06T06:23:11Z</time>
      </trkpt>
      <trkpt lat="-21.20804" lon="55.29832">
        <ele>186.45146179199</ele>
        <time>2012-11-06T06:23:12Z</time>
      </trkpt>
      <trkpt lat="-21.20805" lon="55.29831">
        <ele>188.03411865234</ele>
        <time>2012-11-06T06:23:13Z</time>
      </trkpt>
      <trkpt lat="-21.20807" lon="55.2983">
        <ele>185.37194824219</ele>
        <time>2012-11-06T06:23:15Z</time>
      </trkpt>
      <trkpt lat="-21.20809" lon="55.29831">
        <ele>185.76629638672</ele>
        <time>2012-11-06T06:23:16Z</time>
      </trkpt>
      <trkpt lat="-21.20813" lon="55.29832">
        <ele>185.49206542969</ele>
        <time>2012-11-06T06:23:18Z</time>
      </trkpt>
      <trkpt lat="-21.20814" lon="55.29833">
        <ele>186.35505676269</ele>
        <time>2012-11-06T06:23:19Z</time>
      </trkpt>
      <trkpt lat="-21.20815" lon="55.29833">
        <ele>186.09300231934</ele>
        <time>2012-11-06T06:23:20Z</time>
      </trkpt>
      <trkpt lat="-21.20819" lon="55.29834">
        <ele>184.71076965332</ele>
        <time>2012-11-06T06:23:22Z</time>
      </trkpt>
      <trkpt lat="-21.20822" lon="55.29834">
        <ele>183.82070922852</ele>
        <time>2012-11-06T06:23:24Z</time>
      </trkpt>
      <trkpt lat="-21.20825" lon="55.29835">
        <ele>184.03158569336</ele>
        <time>2012-11-06T06:23:26Z</time>
      </trkpt>
      <trkpt lat="-21.20828" lon="55.29836">
        <ele>184.29565429688</ele>
        <time>2012-11-06T06:23:28Z</time>
      </trkpt>
      <trkpt lat="-21.20829" lon="55.29836">
        <ele>184.40484619141</ele>
        <time>2012-11-06T06:23:29Z</time>
      </trkpt>
      <trkpt lat="-21.20832" lon="55.29837">
        <ele>186.32928466797</ele>
        <time>2012-11-06T06:23:31Z</time>
      </trkpt>
      <trkpt lat="-21.20834" lon="55.29838">
        <ele>187.25122070312</ele>
        <time>2012-11-06T06:23:32Z</time>
      </trkpt>
      <trkpt lat="-21.20837" lon="55.29839">
        <ele>186.42013549805</ele>
        <time>2012-11-06T06:23:33Z</time>
      </trkpt>
      <trkpt lat="-21.2084" lon="55.2984">
        <ele>185.50082397461</ele>
        <time>2012-11-06T06:23:34Z</time>
      </trkpt>
      <trkpt lat="-21.20843" lon="55.2984">
        <ele>185.29501342773</ele>
        <time>2012-11-06T06:23:35Z</time>
      </trkpt>
      <trkpt lat="-21.20845" lon="55.29841">
        <ele>185.90391540527</ele>
        <time>2012-11-06T06:23:36Z</time>
      </trkpt>
      <trkpt lat="-21.2085" lon="55.29843">
        <ele>184.72981262207</ele>
        <time>2012-11-06T06:23:38Z</time>
      </trkpt>
      <trkpt lat="-21.20851" lon="55.29845">
        <ele>184.89050292969</ele>
        <time>2012-11-06T06:23:39Z</time>
      </trkpt>
      <trkpt lat="-21.20855" lon="55.29848">
        <ele>188.14559936523</ele>
        <time>2012-11-06T06:23:41Z</time>
      </trkpt>
      <trkpt lat="-21.20859" lon="55.29851">
        <ele>188.73435974121</ele>
        <time>2012-11-06T06:23:43Z</time>
      </trkpt>
      <trkpt lat="-21.20861" lon="55.29852">
        <ele>188.79707336426</ele>
        <time>2012-11-06T06:23:44Z</time>
      </trkpt>
      <trkpt lat="-21.20865" lon="55.29855">
        <ele>189.63433837891</ele>
        <time>2012-11-06T06:23:46Z</time>
      </trkpt>
      <trkpt lat="-21.2087" lon="55.29859">
        <ele>187.94874572754</ele>
        <time>2012-11-06T06:23:48Z</time>
      </trkpt>
      <trkpt lat="-21.20873" lon="55.29863">
        <ele>188.90406799316</ele>
        <time>2012-11-06T06:23:50Z</time>
      </trkpt>
      <trkpt lat="-21.20875" lon="55.29864">
        <ele>188.94425964356</ele>
        <time>2012-11-06T06:23:51Z</time>
      </trkpt>
      <trkpt lat="-21.20878" lon="55.29867">
        <ele>189.42805480957</ele>
        <time>2012-11-06T06:23:52Z</time>
      </trkpt>
      <trkpt lat="-21.2088" lon="55.29869">
        <ele>190.59298706055</ele>
        <time>2012-11-06T06:23:54Z</time>
      </trkpt>
      <trkpt lat="-21.20882" lon="55.29871">
        <ele>192.04080200195</ele>
        <time>2012-11-06T06:23:55Z</time>
      </trkpt>
      <trkpt lat="-21.20884" lon="55.29875">
        <ele>192.24548339844</ele>
        <time>2012-11-06T06:23:57Z</time>
      </trkpt>
      <trkpt lat="-21.20887" lon="55.29879">
        <ele>193.35389709473</ele>
        <time>2012-11-06T06:23:59Z</time>
      </trkpt>
      <trkpt lat="-21.20888" lon="55.29884">
        <ele>192.99157714844</ele>
        <time>2012-11-06T06:24:01Z</time>
      </trkpt>
      <trkpt lat="-21.20888" lon="55.29889">
        <ele>195.81491088867</ele>
        <time>2012-11-06T06:24:03Z</time>
      </trkpt>
      <trkpt lat="-21.20888" lon="55.29895">
        <ele>195.34701538086</ele>
        <time>2012-11-06T06:24:05Z</time>
      </trkpt>
      <trkpt lat="-21.20888" lon="55.29897">
        <ele>194.97840881348</ele>
        <time>2012-11-06T06:24:06Z</time>
      </trkpt>
      <trkpt lat="-21.20889" lon="55.29902">
        <ele>194.80673217773</ele>
        <time>2012-11-06T06:24:08Z</time>
      </trkpt>
      <trkpt lat="-21.2089" lon="55.29904">
        <ele>193.94799804688</ele>
        <time>2012-11-06T06:24:09Z</time>
      </trkpt>
      <trkpt lat="-21.20895" lon="55.29908">
        <ele>192.5125579834</ele>
        <time>2012-11-06T06:24:11Z</time>
      </trkpt>
      <trkpt lat="-21.20897" lon="55.29909">
        <ele>193.40771484375</ele>
        <time>2012-11-06T06:24:12Z</time>
      </trkpt>
      <trkpt lat="-21.20898" lon="55.29909">
        <ele>193.77243041992</ele>
        <time>2012-11-06T06:24:14Z</time>
      </trkpt>
      <trkpt lat="-21.20898" lon="55.29909">
        <ele>193.22691345215</ele>
        <time>2012-11-06T06:24:15Z</time>
      </trkpt>
      <trkpt lat="-21.20898" lon="55.29909">
        <ele>191.10578918457</ele>
        <time>2012-11-06T06:24:16Z</time>
      </trkpt>
      <trkpt lat="-21.20898" lon="55.29909">
        <ele>185.64616394043</ele>
        <time>2012-11-06T06:24:17Z</time>
      </trkpt>
      <trkpt lat="-21.20898" lon="55.29909">
        <ele>184.84548950195</ele>
        <time>2012-11-06T06:24:19Z</time>
      </trkpt>
      <trkpt lat="-21.20898" lon="55.29909">
        <ele>184.84548950195</ele>
        <time>2012-11-06T06:24:19Z</time>
      </trkpt>
      <trkpt lat="-21.20898" lon="55.29909">
        <ele>184.84548950195</ele>
        <time>2012-11-06T06:24:19Z</time>
      </trkpt>
      <trkpt lat="-21.20898" lon="55.29909">
        <ele>186.89175415039</ele>
        <time>2012-11-06T06:24:21Z</time>
      </trkpt>
      <trkpt lat="-21.20898" lon="55.29909">
        <ele>186.89175415039</ele>
        <time>2012-11-06T06:24:21Z</time>
      </trkpt>
      <trkpt lat="-21.20898" lon="55.29909">
        <ele>187.91943359375</ele>
        <time>2012-11-06T06:24:22Z</time>
      </trkpt>
      <trkpt lat="-21.20898" lon="55.29909">
        <ele>187.91943359375</ele>
        <time>2012-11-06T06:24:22Z</time>
      </trkpt>
      <trkpt lat="-21.20898" lon="55.29909">
        <ele>190.67701721191</ele>
        <time>2012-11-06T06:24:24Z</time>
      </trkpt>
      <trkpt lat="-21.20898" lon="55.29909">
        <ele>190.67701721191</ele>
        <time>2012-11-06T06:24:24Z</time>
      </trkpt>
      <trkpt lat="-21.20898" lon="55.29909">
        <ele>191.50186157227</ele>
        <time>2012-11-06T06:24:25Z</time>
      </trkpt>
      <trkpt lat="-21.20898" lon="55.29909">
        <ele>191.50186157227</ele>
        <time>2012-11-06T06:24:25Z</time>
      </trkpt>
      <trkpt lat="-21.20898" lon="55.29909">
        <ele>190.38836669922</ele>
        <time>2012-11-06T06:24:27Z</time>
      </trkpt>
      <trkpt lat="-21.20898" lon="55.29909">
        <ele>190.38836669922</ele>
        <time>2012-11-06T06:24:27Z</time>
      </trkpt>
      <trkpt lat="-21.20898" lon="55.29909">
        <ele>190.95652770996</ele>
        <time>2012-11-06T06:24:28Z</time>
      </trkpt>
      <trkpt lat="-21.20898" lon="55.29909">
        <ele>190.95652770996</ele>
        <time>2012-11-06T06:24:28Z</time>
      </trkpt>
      <trkpt lat="-21.20898" lon="55.29909">
        <ele>192.06742858887</ele>
        <time>2012-11-06T06:24:30Z</time>
      </trkpt>
      <trkpt lat="-21.20898" lon="55.29909">
        <ele>192.06742858887</ele>
        <time>2012-11-06T06:24:30Z</time>
      </trkpt>
      <trkpt lat="-21.20898" lon="55.29909">
        <ele>189.1180267334</ele>
        <time>2012-11-06T06:24:32Z</time>
      </trkpt>
      <trkpt lat="-21.20898" lon="55.29909">
        <ele>189.1180267334</ele>
        <time>2012-11-06T06:24:32Z</time>
      </trkpt>
      <trkpt lat="-21.20898" lon="55.29909">
        <ele>194.24618530273</ele>
        <time>2012-11-06T06:24:33Z</time>
      </trkpt>
      <trkpt lat="-21.20898" lon="55.29909">
        <ele>194.24618530273</ele>
        <time>2012-11-06T06:24:33Z</time>
      </trkpt>
      <trkpt lat="-21.20898" lon="55.29909">
        <ele>193.85731506348</ele>
        <time>2012-11-06T06:24:34Z</time>
      </trkpt>
      <trkpt lat="-21.20898" lon="55.29909">
        <ele>193.85731506348</ele>
        <time>2012-11-06T06:24:34Z</time>
      </trkpt>
      <trkpt lat="-21.20898" lon="55.29909">
        <ele>189.77416992188</ele>
        <time>2012-11-06T06:24:36Z</time>
      </trkpt>
      <trkpt lat="-21.20898" lon="55.29909">
        <ele>189.77416992188</ele>
        <time>2012-11-06T06:24:36Z</time>
      </trkpt>
      <trkpt lat="-21.20898" lon="55.29909">
        <ele>183.90591430664</ele>
        <time>2012-11-06T06:24:37Z</time>
      </trkpt>
      <trkpt lat="-21.20898" lon="55.29909">
        <ele>183.90591430664</ele>
        <time>2012-11-06T06:24:37Z</time>
      </trkpt>
      <trkpt lat="-21.20898" lon="55.29909">
        <ele>181.21792602539</ele>
        <time>2012-11-06T06:24:38Z</time>
      </trkpt>
      <trkpt lat="-21.20898" lon="55.29909">
        <ele>181.21792602539</ele>
        <time>2012-11-06T06:24:38Z</time>
      </trkpt>
      <trkpt lat="-21.20898" lon="55.29909">
        <ele>187.3125</ele>
        <time>2012-11-06T06:24:40Z</time>
      </trkpt>
      <trkpt lat="-21.20898" lon="55.29909">
        <ele>187.3125</ele>
        <time>2012-11-06T06:24:40Z</time>
      </trkpt>
      <trkpt lat="-21.20898" lon="55.29909">
        <ele>190.2000579834</ele>
        <time>2012-11-06T06:24:41Z</time>
      </trkpt>
      <trkpt lat="-21.20898" lon="55.29909">
        <ele>190.2000579834</ele>
        <time>2012-11-06T06:24:41Z</time>
      </trkpt>
      <trkpt lat="-21.20898" lon="55.29909">
        <ele>192.48229980469</ele>
        <time>2012-11-06T06:24:43Z</time>
      </trkpt>
      <trkpt lat="-21.20898" lon="55.29909">
        <ele>192.48229980469</ele>
        <time>2012-11-06T06:24:43Z</time>
      </trkpt>
      <trkpt lat="-21.20898" lon="55.29909">
        <ele>188.36131286621</ele>
        <time>2012-11-06T06:24:44Z</time>
      </trkpt>
      <trkpt lat="-21.20898" lon="55.29909">
        <ele>188.36131286621</ele>
        <time>2012-11-06T06:24:44Z</time>
      </trkpt>
      <trkpt lat="-21.20899" lon="55.29909">
        <ele>187.08848571777</ele>
        <time>2012-11-06T06:24:46Z</time>
      </trkpt>
      <trkpt lat="-21.20899" lon="55.29909">
        <ele>187.08848571777</ele>
        <time>2012-11-06T06:24:46Z</time>
      </trkpt>
      <trkpt lat="-21.209" lon="55.29911">
        <ele>185.93556213379</ele>
        <time>2012-11-06T06:24:48Z</time>
      </trkpt>
      <trkpt lat="-21.209" lon="55.29911">
        <ele>185.93556213379</ele>
        <time>2012-11-06T06:24:48Z</time>
      </trkpt>
      <trkpt lat="-21.20901" lon="55.29912">
        <ele>188.46185302734</ele>
        <time>2012-11-06T06:24:49Z</time>
      </trkpt>
      <trkpt lat="-21.20904" lon="55.29914">
        <ele>191.38793945312</ele>
        <time>2012-11-06T06:24:52Z</time>
      </trkpt>
      <trkpt lat="-21.20906" lon="55.29915">
        <ele>192.52610778809</ele>
        <time>2012-11-06T06:24:53Z</time>
      </trkpt>
      <trkpt lat="-21.20911" lon="55.29919">
        <ele>195.5710144043</ele>
        <time>2012-11-06T06:24:55Z</time>
      </trkpt>
      <trkpt lat="-21.20917" lon="55.29922">
        <ele>194.96224975586</ele>
        <time>2012-11-06T06:24:57Z</time>
      </trkpt>
      <trkpt lat="-21.2092" lon="55.29924">
        <ele>194.54740905762</ele>
        <time>2012-11-06T06:24:58Z</time>
      </trkpt>
      <trkpt lat="-21.20925" lon="55.29928">
        <ele>193.35740661621</ele>
        <time>2012-11-06T06:25:00Z</time>
      </trkpt>
      <trkpt lat="-21.20928" lon="55.2993">
        <ele>193.48959350586</ele>
        <time>2012-11-06T06:25:01Z</time>
      </trkpt>
      <trkpt lat="-21.20933" lon="55.29934">
        <ele>193.75958251953</ele>
        <time>2012-11-06T06:25:03Z</time>
      </trkpt>
      <trkpt lat="-21.20936" lon="55.29936">
        <ele>193.76765441894</ele>
        <time>2012-11-06T06:25:04Z</time>
      </trkpt>
      <trkpt lat="-21.20937" lon="55.29941">
        <ele>193.80720520019</ele>
        <time>2012-11-06T06:25:06Z</time>
      </trkpt>
      <trkpt lat="-21.20935" lon="55.29945">
        <ele>194.37181091309</ele>
        <time>2012-11-06T06:25:08Z</time>
      </trkpt>
      <trkpt lat="-21.20933" lon="55.29946">
        <ele>194.08985900879</ele>
        <time>2012-11-06T06:25:09Z</time>
      </trkpt>
      <trkpt lat="-21.20928" lon="55.29946">
        <ele>195.07867431641</ele>
        <time>2012-11-06T06:25:11Z</time>
      </trkpt>
      <trkpt lat="-21.20926" lon="55.29946">
        <ele>196.55130004883</ele>
        <time>2012-11-06T06:25:12Z</time>
      </trkpt>
      <trkpt lat="-21.20922" lon="55.29945">
        <ele>198.39694213867</ele>
        <time>2012-11-06T06:25:14Z</time>
      </trkpt>
      <trkpt lat="-21.2092" lon="55.29946">
        <ele>197.31455993652</ele>
        <time>2012-11-06T06:25:15Z</time>
      </trkpt>
      <trkpt lat="-21.20918" lon="55.29947">
        <ele>197.24789428711</ele>
        <time>2012-11-06T06:25:17Z</time>
      </trkpt>
      <trkpt lat="-21.20916" lon="55.29947">
        <ele>197.48579406738</ele>
        <time>2012-11-06T06:25:18Z</time>
      </trkpt>
      <trkpt lat="-21.20914" lon="55.29949">
        <ele>198.36351013184</ele>
        <time>2012-11-06T06:25:20Z</time>
      </trkpt>
      <trkpt lat="-21.20911" lon="55.29951">
        <ele>198.20097351074</ele>
        <time>2012-11-06T06:25:22Z</time>
      </trkpt>
      <trkpt lat="-21.20908" lon="55.29954">
        <ele>199.69424438477</ele>
        <time>2012-11-06T06:25:24Z</time>
      </trkpt>
      <trkpt lat="-21.20907" lon="55.29955">
        <ele>200.3077545166</ele>
        <time>2012-11-06T06:25:25Z</time>
      </trkpt>
      <trkpt lat="-21.20904" lon="55.29957">
        <ele>201.39558410644</ele>
        <time>2012-11-06T06:25:27Z</time>
      </trkpt>
      <trkpt lat="-21.20903" lon="55.29958">
        <ele>201.05099487305</ele>
        <time>2012-11-06T06:25:28Z</time>
      </trkpt>
      <trkpt lat="-21.209" lon="55.29959">
        <ele>202.37327575684</ele>
        <time>2012-11-06T06:25:30Z</time>
      </trkpt>
      <trkpt lat="-21.20899" lon="55.2996">
        <ele>202.82061767578</ele>
        <time>2012-11-06T06:25:31Z</time>
      </trkpt>
      <trkpt lat="-21.20897" lon="55.2996">
        <ele>204.25440979004</ele>
        <time>2012-11-06T06:25:32Z</time>
      </trkpt>
      <trkpt lat="-21.20894" lon="55.2996">
        <ele>204.12059020996</ele>
        <time>2012-11-06T06:25:34Z</time>
      </trkpt>
      <trkpt lat="-21.2089" lon="55.2996">
        <ele>203.8405456543</ele>
        <time>2012-11-06T06:25:36Z</time>
      </trkpt>
      <trkpt lat="-21.20886" lon="55.2996">
        <ele>204.33966064453</ele>
        <time>2012-11-06T06:25:38Z</time>
      </trkpt>
      <trkpt lat="-21.20883" lon="55.2996">
        <ele>205.50369262695</ele>
        <time>2012-11-06T06:25:40Z</time>
      </trkpt>
      <trkpt lat="-21.20881" lon="55.2996">
        <ele>205.84375</ele>
        <time>2012-11-06T06:25:41Z</time>
      </trkpt>
      <trkpt lat="-21.20879" lon="55.29959">
        <ele>206.82513427734</ele>
        <time>2012-11-06T06:25:42Z</time>
      </trkpt>
      <trkpt lat="-21.20878" lon="55.29959">
        <ele>206.57432556152</ele>
        <time>2012-11-06T06:25:43Z</time>
      </trkpt>
      <trkpt lat="-21.20873" lon="55.29958">
        <ele>205.41592407227</ele>
        <time>2012-11-06T06:25:45Z</time>
      </trkpt>
      <trkpt lat="-21.2087" lon="55.29958">
        <ele>204.84407043457</ele>
        <time>2012-11-06T06:25:46Z</time>
      </trkpt>
      <trkpt lat="-21.20865" lon="55.29957">
        <ele>204.52626037598</ele>
        <time>2012-11-06T06:25:48Z</time>
      </trkpt>
      <trkpt lat="-21.2086" lon="55.29956">
        <ele>205.03721618652</ele>
        <time>2012-11-06T06:25:50Z</time>
      </trkpt>
      <trkpt lat="-21.20854" lon="55.29956">
        <ele>205.83064270019</ele>
        <time>2012-11-06T06:25:52Z</time>
      </trkpt>
      <trkpt lat="-21.20851" lon="55.29956">
        <ele>207.08610534668</ele>
        <time>2012-11-06T06:25:53Z</time>
      </trkpt>
      <trkpt lat="-21.20849" lon="55.29957">
        <ele>207.46247863769</ele>
        <time>2012-11-06T06:25:54Z</time>
      </trkpt>
      <trkpt lat="-21.20846" lon="55.29957">
        <ele>206.90997314453</ele>
        <time>2012-11-06T06:25:55Z</time>
      </trkpt>
      <trkpt lat="-21.20841" lon="55.29958">
        <ele>207.33843994141</ele>
        <time>2012-11-06T06:25:57Z</time>
      </trkpt>
      <trkpt lat="-21.20839" lon="55.29958">
        <ele>206.83515930176</ele>
        <time>2012-11-06T06:25:58Z</time>
      </trkpt>
      <trkpt lat="-21.20834" lon="55.29959">
        <ele>207.30111694336</ele>
        <time>2012-11-06T06:26:00Z</time>
      </trkpt>
      <trkpt lat="-21.20832" lon="55.2996">
        <ele>208.00122070312</ele>
        <time>2012-11-06T06:26:01Z</time>
      </trkpt>
      <trkpt lat="-21.20827" lon="55.2996">
        <ele>207.81597900391</ele>
        <time>2012-11-06T06:26:03Z</time>
      </trkpt>
      <trkpt lat="-21.20822" lon="55.2996">
        <ele>208.76652526856</ele>
        <time>2012-11-06T06:26:05Z</time>
      </trkpt>
      <trkpt lat="-21.2082" lon="55.29961">
        <ele>209.32824707031</ele>
        <time>2012-11-06T06:26:06Z</time>
      </trkpt>
      <trkpt lat="-21.20816" lon="55.29964">
        <ele>209.85688781738</ele>
        <time>2012-11-06T06:26:08Z</time>
      </trkpt>
      <trkpt lat="-21.20813" lon="55.29967">
        <ele>209.71476745606</ele>
        <time>2012-11-06T06:26:10Z</time>
      </trkpt>
      <trkpt lat="-21.20811" lon="55.29972">
        <ele>210.37324523926</ele>
        <time>2012-11-06T06:26:12Z</time>
      </trkpt>
      <trkpt lat="-21.20809" lon="55.29976">
        <ele>210.9747467041</ele>
        <time>2012-11-06T06:26:14Z</time>
      </trkpt>
      <trkpt lat="-21.2081" lon="55.2998">
        <ele>210.58264160156</ele>
        <time>2012-11-06T06:26:16Z</time>
      </trkpt>
      <trkpt lat="-21.20812" lon="55.29985">
        <ele>210.93913269043</ele>
        <time>2012-11-06T06:26:18Z</time>
      </trkpt>
      <trkpt lat="-21.20816" lon="55.29989">
        <ele>211.20066833496</ele>
        <time>2012-11-06T06:26:20Z</time>
      </trkpt>
      <trkpt lat="-21.20818" lon="55.29991">
        <ele>210.21423339844</ele>
        <time>2012-11-06T06:26:21Z</time>
      </trkpt>
      <trkpt lat="-21.2082" lon="55.29993">
        <ele>209.36859130859</ele>
        <time>2012-11-06T06:26:22Z</time>
      </trkpt>
      <trkpt lat="-21.20824" lon="55.29997">
        <ele>209.84460449219</ele>
        <time>2012-11-06T06:26:24Z</time>
      </trkpt>
      <trkpt lat="-21.20826" lon="55.29998">
        <ele>210.17739868164</ele>
        <time>2012-11-06T06:26:25Z</time>
      </trkpt>
      <trkpt lat="-21.20828" lon="55.3">
        <ele>210.50038146973</ele>
        <time>2012-11-06T06:26:26Z</time>
      </trkpt>
      <trkpt lat="-21.20832" lon="55.30003">
        <ele>211.08807373047</ele>
        <time>2012-11-06T06:26:28Z</time>
      </trkpt>
      <trkpt lat="-21.20834" lon="55.30007">
        <ele>211.63003540039</ele>
        <time>2012-11-06T06:26:30Z</time>
      </trkpt>
      <trkpt lat="-21.20835" lon="55.30009">
        <ele>211.85466003418</ele>
        <time>2012-11-06T06:26:31Z</time>
      </trkpt>
      <trkpt lat="-21.20836" lon="55.30014">
        <ele>212.31172180176</ele>
        <time>2012-11-06T06:26:33Z</time>
      </trkpt>
      <trkpt lat="-21.20834" lon="55.30018">
        <ele>213.64190673828</ele>
        <time>2012-11-06T06:26:35Z</time>
      </trkpt>
      <trkpt lat="-21.20832" lon="55.30019">
        <ele>213.78153991699</ele>
        <time>2012-11-06T06:26:36Z</time>
      </trkpt>
      <trkpt lat="-21.20828" lon="55.30019">
        <ele>214.75543212891</ele>
        <time>2012-11-06T06:26:38Z</time>
      </trkpt>
      <trkpt lat="-21.20826" lon="55.30019">
        <ele>214.58921813965</ele>
        <time>2012-11-06T06:26:39Z</time>
      </trkpt>
      <trkpt lat="-21.20822" lon="55.30019">
        <ele>216.58135986328</ele>
        <time>2012-11-06T06:26:41Z</time>
      </trkpt>
      <trkpt lat="-21.20818" lon="55.30019">
        <ele>216.26292419434</ele>
        <time>2012-11-06T06:26:43Z</time>
      </trkpt>
      <trkpt lat="-21.20815" lon="55.30019">
        <ele>216.22563171387</ele>
        <time>2012-11-06T06:26:44Z</time>
      </trkpt>
      <trkpt lat="-21.2081" lon="55.30018">
        <ele>214.08459472656</ele>
        <time>2012-11-06T06:26:46Z</time>
      </trkpt>
      <trkpt lat="-21.20804" lon="55.30017">
        <ele>213.12063598633</ele>
        <time>2012-11-06T06:26:48Z</time>
      </trkpt>
      <trkpt lat="-21.20799" lon="55.30016">
        <ele>214.18383789062</ele>
        <time>2012-11-06T06:26:50Z</time>
      </trkpt>
      <trkpt lat="-21.20794" lon="55.30015">
        <ele>215.58360290527</ele>
        <time>2012-11-06T06:26:52Z</time>
      </trkpt>
      <trkpt lat="-21.20789" lon="55.30013">
        <ele>216.27778625488</ele>
        <time>2012-11-06T06:26:54Z</time>
      </trkpt>
      <trkpt lat="-21.20783" lon="55.30011">
        <ele>216.07234191894</ele>
        <time>2012-11-06T06:26:56Z</time>
      </trkpt>
      <trkpt lat="-21.20778" lon="55.30009">
        <ele>217.50637817383</ele>
        <time>2012-11-06T06:26:58Z</time>
      </trkpt>
      <trkpt lat="-21.20774" lon="55.30007">
        <ele>217.88307189941</ele>
        <time>2012-11-06T06:27:00Z</time>
      </trkpt>
      <trkpt lat="-21.20771" lon="55.30006">
        <ele>218.00520324707</ele>
        <time>2012-11-06T06:27:01Z</time>
      </trkpt>
      <trkpt lat="-21.20768" lon="55.30005">
        <ele>218.16891479492</ele>
        <time>2012-11-06T06:27:02Z</time>
      </trkpt>
      <trkpt lat="-21.20763" lon="55.30004">
        <ele>218.67234802246</ele>
        <time>2012-11-06T06:27:04Z</time>
      </trkpt>
      <trkpt lat="-21.20758" lon="55.30002">
        <ele>219.73799133301</ele>
        <time>2012-11-06T06:27:06Z</time>
      </trkpt>
      <trkpt lat="-21.20756" lon="55.3">
        <ele>220.11848449707</ele>
        <time>2012-11-06T06:27:07Z</time>
      </trkpt>
      <trkpt lat="-21.20751" lon="55.29998">
        <ele>220.21173095703</ele>
        <time>2012-11-06T06:27:09Z</time>
      </trkpt>
      <trkpt lat="-21.20748" lon="55.29998">
        <ele>219.00149536133</ele>
        <time>2012-11-06T06:27:10Z</time>
      </trkpt>
      <trkpt lat="-21.20742" lon="55.29996">
        <ele>220.31051635742</ele>
        <time>2012-11-06T06:27:12Z</time>
      </trkpt>
      <trkpt lat="-21.20737" lon="55.29994">
        <ele>219.98313903809</ele>
        <time>2012-11-06T06:27:14Z</time>
      </trkpt>
      <trkpt lat="-21.20732" lon="55.29993">
        <ele>219.89709472656</ele>
        <time>2012-11-06T06:27:16Z</time>
      </trkpt>
      <trkpt lat="-21.20728" lon="55.29993">
        <ele>220.93923950195</ele>
        <time>2012-11-06T06:27:18Z</time>
      </trkpt>
      <trkpt lat="-21.20725" lon="55.29997">
        <ele>221.25663757324</ele>
        <time>2012-11-06T06:27:20Z</time>
      </trkpt>
      <trkpt lat="-21.20724" lon="55.29999">
        <ele>222.01838684082</ele>
        <time>2012-11-06T06:27:21Z</time>
      </trkpt>
      <trkpt lat="-21.20722" lon="55.30003">
        <ele>222.18519592285</ele>
        <time>2012-11-06T06:27:23Z</time>
      </trkpt>
      <trkpt lat="-21.20722" lon="55.30005">
        <ele>222.70719909668</ele>
        <time>2012-11-06T06:27:24Z</time>
      </trkpt>
      <trkpt lat="-21.20722" lon="55.30007">
        <ele>223.53033447266</ele>
        <time>2012-11-06T06:27:25Z</time>
      </trkpt>
      <trkpt lat="-21.20725" lon="55.3001">
        <ele>223.08569335938</ele>
        <time>2012-11-06T06:27:27Z</time>
      </trkpt>
      <trkpt lat="-21.2073" lon="55.30015">
        <ele>224.40097045898</ele>
        <time>2012-11-06T06:27:29Z</time>
      </trkpt>
      <trkpt lat="-21.20734" lon="55.30019">
        <ele>226.17768859863</ele>
        <time>2012-11-06T06:27:31Z</time>
      </trkpt>
      <trkpt lat="-21.20736" lon="55.30021">
        <ele>226.5227355957</ele>
        <time>2012-11-06T06:27:32Z</time>
      </trkpt>
      <trkpt lat="-21.2074" lon="55.30024">
        <ele>228.33354187012</ele>
        <time>2012-11-06T06:27:34Z</time>
      </trkpt>
      <trkpt lat="-21.20742" lon="55.30026">
        <ele>226.80061340332</ele>
        <time>2012-11-06T06:27:35Z</time>
      </trkpt>
      <trkpt lat="-21.20746" lon="55.30031">
        <ele>225.49732971191</ele>
        <time>2012-11-06T06:27:37Z</time>
      </trkpt>
      <trkpt lat="-21.20748" lon="55.30033">
        <ele>225.45166015625</ele>
        <time>2012-11-06T06:27:38Z</time>
      </trkpt>
      <trkpt lat="-21.2075" lon="55.30036">
        <ele>225.59809875488</ele>
        <time>2012-11-06T06:27:39Z</time>
      </trkpt>
      <trkpt lat="-21.20754" lon="55.30041">
        <ele>226.91258239746</ele>
        <time>2012-11-06T06:27:41Z</time>
      </trkpt>
      <trkpt lat="-21.20758" lon="55.30045">
        <ele>226.79725646973</ele>
        <time>2012-11-06T06:27:43Z</time>
      </trkpt>
      <trkpt lat="-21.2076" lon="55.30047">
        <ele>225.73181152344</ele>
        <time>2012-11-06T06:27:44Z</time>
      </trkpt>
      <trkpt lat="-21.20764" lon="55.3005">
        <ele>224.82043457031</ele>
        <time>2012-11-06T06:27:46Z</time>
      </trkpt>
      <trkpt lat="-21.20766" lon="55.30052">
        <ele>225.54821777344</ele>
        <time>2012-11-06T06:27:47Z</time>
      </trkpt>
      <trkpt lat="-21.20771" lon="55.30056">
        <ele>228.01716613769</ele>
        <time>2012-11-06T06:27:49Z</time>
      </trkpt>
      <trkpt lat="-21.20773" lon="55.30058">
        <ele>227.74125671387</ele>
        <time>2012-11-06T06:27:50Z</time>
      </trkpt>
      <trkpt lat="-21.20774" lon="55.3006">
        <ele>227.27558898926</ele>
        <time>2012-11-06T06:27:51Z</time>
      </trkpt>
      <trkpt lat="-21.20776" lon="55.30064">
        <ele>227.17631530762</ele>
        <time>2012-11-06T06:27:53Z</time>
      </trkpt>
      <trkpt lat="-21.2078" lon="55.30068">
        <ele>226.58610534668</ele>
        <time>2012-11-06T06:27:55Z</time>
      </trkpt>
      <trkpt lat="-21.20782" lon="55.3007">
        <ele>227.32165527344</ele>
        <time>2012-11-06T06:27:56Z</time>
      </trkpt>
      <trkpt lat="-21.20786" lon="55.30075">
        <ele>225.81126403809</ele>
        <time>2012-11-06T06:27:58Z</time>
      </trkpt>
      <trkpt lat="-21.20789" lon="55.30077">
        <ele>226.78634643555</ele>
        <time>2012-11-06T06:27:59Z</time>
      </trkpt>
      <trkpt lat="-21.20793" lon="55.30081">
        <ele>227.38455200195</ele>
        <time>2012-11-06T06:28:01Z</time>
      </trkpt>
      <trkpt lat="-21.20797" lon="55.30087">
        <ele>228.20471191406</ele>
        <time>2012-11-06T06:28:03Z</time>
      </trkpt>
      <trkpt lat="-21.20799" lon="55.30089">
        <ele>228.34658813477</ele>
        <time>2012-11-06T06:28:04Z</time>
      </trkpt>
      <trkpt lat="-21.20803" lon="55.30094">
        <ele>228.47294616699</ele>
        <time>2012-11-06T06:28:06Z</time>
      </trkpt>
      <trkpt lat="-21.20805" lon="55.30096">
        <ele>228.68365478516</ele>
        <time>2012-11-06T06:28:07Z</time>
      </trkpt>
      <trkpt lat="-21.2081" lon="55.301">
        <ele>228.80891418457</ele>
        <time>2012-11-06T06:28:09Z</time>
      </trkpt>
      <trkpt lat="-21.20812" lon="55.30102">
        <ele>228.66500854492</ele>
        <time>2012-11-06T06:28:10Z</time>
      </trkpt>
      <trkpt lat="-21.20815" lon="55.30104">
        <ele>228.87562561035</ele>
        <time>2012-11-06T06:28:11Z</time>
      </trkpt>
      <trkpt lat="-21.20821" lon="55.30107">
        <ele>229.66589355469</ele>
        <time>2012-11-06T06:28:13Z</time>
      </trkpt>
      <trkpt lat="-21.20823" lon="55.30108">
        <ele>229.85975646973</ele>
        <time>2012-11-06T06:28:14Z</time>
      </trkpt>
      <trkpt lat="-21.20829" lon="55.3011">
        <ele>230.6063079834</ele>
        <time>2012-11-06T06:28:16Z</time>
      </trkpt>
      <trkpt lat="-21.20834" lon="55.30112">
        <ele>230.82305908203</ele>
        <time>2012-11-06T06:28:18Z</time>
      </trkpt>
      <trkpt lat="-21.20836" lon="55.30114">
        <ele>231.39106750488</ele>
        <time>2012-11-06T06:28:19Z</time>
      </trkpt>
      <trkpt lat="-21.20836" lon="55.3012">
        <ele>231.14938354492</ele>
        <time>2012-11-06T06:28:21Z</time>
      </trkpt>
      <trkpt lat="-21.20834" lon="55.30124">
        <ele>230.65594482422</ele>
        <time>2012-11-06T06:28:23Z</time>
      </trkpt>
      <trkpt lat="-21.20829" lon="55.30126">
        <ele>231.37098693848</ele>
        <time>2012-11-06T06:28:25Z</time>
      </trkpt>
      <trkpt lat="-21.20827" lon="55.30126">
        <ele>232.06079101562</ele>
        <time>2012-11-06T06:28:26Z</time>
      </trkpt>
      <trkpt lat="-21.20825" lon="55.30127">
        <ele>231.73062133789</ele>
        <time>2012-11-06T06:28:27Z</time>
      </trkpt>
      <trkpt lat="-21.20823" lon="55.30127">
        <ele>232.08584594727</ele>
        <time>2012-11-06T06:28:28Z</time>
      </trkpt>
      <trkpt lat="-21.20818" lon="55.30128">
        <ele>232.58084106445</ele>
        <time>2012-11-06T06:28:30Z</time>
      </trkpt>
      <trkpt lat="-21.20813" lon="55.30129">
        <ele>233.05319213867</ele>
        <time>2012-11-06T06:28:32Z</time>
      </trkpt>
      <trkpt lat="-21.20811" lon="55.30129">
        <ele>233.00236511231</ele>
        <time>2012-11-06T06:28:33Z</time>
      </trkpt>
      <trkpt lat="-21.20808" lon="55.30129">
        <ele>232.33164978027</ele>
        <time>2012-11-06T06:28:34Z</time>
      </trkpt>
      <trkpt lat="-21.20803" lon="55.30129">
        <ele>233.14631652832</ele>
        <time>2012-11-06T06:28:36Z</time>
      </trkpt>
      <trkpt lat="-21.208" lon="55.30128">
        <ele>233.68316650391</ele>
        <time>2012-11-06T06:28:37Z</time>
      </trkpt>
      <trkpt lat="-21.20798" lon="55.30128">
        <ele>234.77893066406</ele>
        <time>2012-11-06T06:28:38Z</time>
      </trkpt>
      <trkpt lat="-21.20795" lon="55.30128">
        <ele>234.43605041504</ele>
        <time>2012-11-06T06:28:39Z</time>
      </trkpt>
      <trkpt lat="-21.20789" lon="55.30127">
        <ele>234.62919616699</ele>
        <time>2012-11-06T06:28:41Z</time>
      </trkpt>
      <trkpt lat="-21.20784" lon="55.30126">
        <ele>235.16868591309</ele>
        <time>2012-11-06T06:28:43Z</time>
      </trkpt>
      <trkpt lat="-21.20779" lon="55.30125">
        <ele>236.36112976074</ele>
        <time>2012-11-06T06:28:45Z</time>
      </trkpt>
      <trkpt lat="-21.20776" lon="55.30123">
        <ele>234.06446838379</ele>
        <time>2012-11-06T06:28:46Z</time>
      </trkpt>
      <trkpt lat="-21.20773" lon="55.30122">
        <ele>233.11877441406</ele>
        <time>2012-11-06T06:28:47Z</time>
      </trkpt>
      <trkpt lat="-21.20771" lon="55.3012">
        <ele>232.33680725098</ele>
        <time>2012-11-06T06:28:48Z</time>
      </trkpt>
      <trkpt lat="-21.20767" lon="55.30118">
        <ele>234.25534057617</ele>
        <time>2012-11-06T06:28:50Z</time>
      </trkpt>
      <trkpt lat="-21.20765" lon="55.30117">
        <ele>234.16580200195</ele>
        <time>2012-11-06T06:28:51Z</time>
      </trkpt>
      <trkpt lat="-21.20763" lon="55.30116">
        <ele>235.47265625</ele>
        <time>2012-11-06T06:28:52Z</time>
      </trkpt>
      <trkpt lat="-21.20758" lon="55.30113">
        <ele>236.64260864258</ele>
        <time>2012-11-06T06:28:54Z</time>
      </trkpt>
      <trkpt lat="-21.20755" lon="55.30112">
        <ele>236.52630615234</ele>
        <time>2012-11-06T06:28:55Z</time>
      </trkpt>
      <trkpt lat="-21.2075" lon="55.3011">
        <ele>237.62927246094</ele>
        <time>2012-11-06T06:28:57Z</time>
      </trkpt>
      <trkpt lat="-21.20747" lon="55.30109">
        <ele>237.92433166504</ele>
        <time>2012-11-06T06:28:58Z</time>
      </trkpt>
      <trkpt lat="-21.20741" lon="55.30108">
        <ele>237.2071685791</ele>
        <time>2012-11-06T06:29:00Z</time>
      </trkpt>
      <trkpt lat="-21.20736" lon="55.30108">
        <ele>237.33338928223</ele>
        <time>2012-11-06T06:29:02Z</time>
      </trkpt>
      <trkpt lat="-21.20733" lon="55.30109">
        <ele>236.88012695312</ele>
        <time>2012-11-06T06:29:03Z</time>
      </trkpt>
      <trkpt lat="-21.20731" lon="55.30109">
        <ele>238.03366088867</ele>
        <time>2012-11-06T06:29:04Z</time>
      </trkpt>
      <trkpt lat="-21.20726" lon="55.30111">
        <ele>238.1085357666</ele>
        <time>2012-11-06T06:29:06Z</time>
      </trkpt>
      <trkpt lat="-21.20723" lon="55.30112">
        <ele>238.44557189941</ele>
        <time>2012-11-06T06:29:07Z</time>
      </trkpt>
      <trkpt lat="-21.20719" lon="55.30112">
        <ele>238.80862426758</ele>
        <time>2012-11-06T06:29:09Z</time>
      </trkpt>
      <trkpt lat="-21.20716" lon="55.30112">
        <ele>238.35115051269</ele>
        <time>2012-11-06T06:29:10Z</time>
      </trkpt>
      <trkpt lat="-21.20714" lon="55.30112">
        <ele>238.06135559082</ele>
        <time>2012-11-06T06:29:11Z</time>
      </trkpt>
      <trkpt lat="-21.20709" lon="55.3011">
        <ele>239.07833862305</ele>
        <time>2012-11-06T06:29:13Z</time>
      </trkpt>
      <trkpt lat="-21.20703" lon="55.30109">
        <ele>239.22108459473</ele>
        <time>2012-11-06T06:29:15Z</time>
      </trkpt>
      <trkpt lat="-21.20701" lon="55.30107">
        <ele>239.08279418945</ele>
        <time>2012-11-06T06:29:16Z</time>
      </trkpt>
      <trkpt lat="-21.20699" lon="55.30106">
        <ele>239.86967468262</ele>
        <time>2012-11-06T06:29:17Z</time>
      </trkpt>
      <trkpt lat="-21.20694" lon="55.30104">
        <ele>241.18792724609</ele>
        <time>2012-11-06T06:29:19Z</time>
      </trkpt>
      <trkpt lat="-21.2069" lon="55.30102">
        <ele>240.5192565918</ele>
        <time>2012-11-06T06:29:21Z</time>
      </trkpt>
      <trkpt lat="-21.20686" lon="55.30103">
        <ele>241.60191345215</ele>
        <time>2012-11-06T06:29:23Z</time>
      </trkpt>
      <trkpt lat="-21.20681" lon="55.30105">
        <ele>243.18032836914</ele>
        <time>2012-11-06T06:29:25Z</time>
      </trkpt>
      <trkpt lat="-21.2068" lon="55.30107">
        <ele>242.50550842285</ele>
        <time>2012-11-06T06:29:26Z</time>
      </trkpt>
      <trkpt lat="-21.20678" lon="55.30109">
        <ele>242.10008239746</ele>
        <time>2012-11-06T06:29:27Z</time>
      </trkpt>
      <trkpt lat="-21.20675" lon="55.30113">
        <ele>242.24420166016</ele>
        <time>2012-11-06T06:29:29Z</time>
      </trkpt>
      <trkpt lat="-21.20674" lon="55.30115">
        <ele>242.61433410644</ele>
        <time>2012-11-06T06:29:30Z</time>
      </trkpt>
      <trkpt lat="-21.20673" lon="55.30117">
        <ele>242.51852416992</ele>
        <time>2012-11-06T06:29:31Z</time>
      </trkpt>
      <trkpt lat="-21.20671" lon="55.30118">
        <ele>242.96572875977</ele>
        <time>2012-11-06T06:29:32Z</time>
      </trkpt>
      <trkpt lat="-21.20669" lon="55.30122">
        <ele>243.32632446289</ele>
        <time>2012-11-06T06:29:34Z</time>
      </trkpt>
      <trkpt lat="-21.20667" lon="55.30123">
        <ele>243.81816101074</ele>
        <time>2012-11-06T06:29:35Z</time>
      </trkpt>
      <trkpt lat="-21.20666" lon="55.30125">
        <ele>243.80296325684</ele>
        <time>2012-11-06T06:29:36Z</time>
      </trkpt>
      <trkpt lat="-21.20665" lon="55.30127">
        <ele>244.62565612793</ele>
        <time>2012-11-06T06:29:37Z</time>
      </trkpt>
      <trkpt lat="-21.20663" lon="55.30131">
        <ele>244.7419128418</ele>
        <time>2012-11-06T06:29:39Z</time>
      </trkpt>
      <trkpt lat="-21.20662" lon="55.30133">
        <ele>244.12481689453</ele>
        <time>2012-11-06T06:29:40Z</time>
      </trkpt>
      <trkpt lat="-21.20659" lon="55.30137">
        <ele>245.35302734375</ele>
        <time>2012-11-06T06:29:42Z</time>
      </trkpt>
      <trkpt lat="-21.20657" lon="55.30142">
        <ele>246.67585754394</ele>
        <time>2012-11-06T06:29:44Z</time>
      </trkpt>
      <trkpt lat="-21.20655" lon="55.30144">
        <ele>247.5309753418</ele>
        <time>2012-11-06T06:29:45Z</time>
      </trkpt>
      <trkpt lat="-21.20654" lon="55.30146">
        <ele>246.88833618164</ele>
        <time>2012-11-06T06:29:46Z</time>
      </trkpt>
      <trkpt lat="-21.20652" lon="55.30148">
        <ele>247.07223510742</ele>
        <time>2012-11-06T06:29:47Z</time>
      </trkpt>
      <trkpt lat="-21.20648" lon="55.30151">
        <ele>247.07949829102</ele>
        <time>2012-11-06T06:29:49Z</time>
      </trkpt>
      <trkpt lat="-21.20646" lon="55.30152">
        <ele>247.07867431641</ele>
        <time>2012-11-06T06:29:50Z</time>
      </trkpt>
      <trkpt lat="-21.20643" lon="55.30153">
        <ele>247.20506286621</ele>
        <time>2012-11-06T06:29:51Z</time>
      </trkpt>
      <trkpt lat="-21.20638" lon="55.30153">
        <ele>247.40879821777</ele>
        <time>2012-11-06T06:29:53Z</time>
      </trkpt>
      <trkpt lat="-21.20632" lon="55.30152">
        <ele>248.09413146973</ele>
        <time>2012-11-06T06:29:55Z</time>
      </trkpt>
      <trkpt lat="-21.20626" lon="55.30152">
        <ele>248.35127258301</ele>
        <time>2012-11-06T06:29:57Z</time>
      </trkpt>
      <trkpt lat="-21.20623" lon="55.30152">
        <ele>248.4225769043</ele>
        <time>2012-11-06T06:29:58Z</time>
      </trkpt>
      <trkpt lat="-21.20616" lon="55.30153">
        <ele>248.24320983887</ele>
        <time>2012-11-06T06:30:00Z</time>
      </trkpt>
      <trkpt lat="-21.20614" lon="55.30155">
        <ele>248.49064636231</ele>
        <time>2012-11-06T06:30:01Z</time>
      </trkpt>
      <trkpt lat="-21.20611" lon="55.30156">
        <ele>248.82952880859</ele>
        <time>2012-11-06T06:30:02Z</time>
      </trkpt>
      <trkpt lat="-21.20609" lon="55.30158">
        <ele>248.69453430176</ele>
        <time>2012-11-06T06:30:03Z</time>
      </trkpt>
      <trkpt lat="-21.20605" lon="55.30162">
        <ele>248.50390625</ele>
        <time>2012-11-06T06:30:05Z</time>
      </trkpt>
      <trkpt lat="-21.20602" lon="55.30166">
        <ele>249.03102111816</ele>
        <time>2012-11-06T06:30:07Z</time>
      </trkpt>
      <trkpt lat="-21.20598" lon="55.3017">
        <ele>249.30332946777</ele>
        <time>2012-11-06T06:30:09Z</time>
      </trkpt>
      <trkpt lat="-21.20596" lon="55.30172">
        <ele>249.47038269043</ele>
        <time>2012-11-06T06:30:10Z</time>
      </trkpt>
      <trkpt lat="-21.20593" lon="55.30175">
        <ele>249.57029724121</ele>
        <time>2012-11-06T06:30:12Z</time>
      </trkpt>
      <trkpt lat="-21.20591" lon="55.30177">
        <ele>249.78126525879</ele>
        <time>2012-11-06T06:30:13Z</time>
      </trkpt>
      <trkpt lat="-21.20588" lon="55.30181">
        <ele>249.75692749023</ele>
        <time>2012-11-06T06:30:15Z</time>
      </trkpt>
      <trkpt lat="-21.20584" lon="55.30185">
        <ele>250.55278015137</ele>
        <time>2012-11-06T06:30:17Z</time>
      </trkpt>
      <trkpt lat="-21.20581" lon="55.30188">
        <ele>251.46379089356</ele>
        <time>2012-11-06T06:30:19Z</time>
      </trkpt>
      <trkpt lat="-21.2058" lon="55.3019">
        <ele>251.89193725586</ele>
        <time>2012-11-06T06:30:20Z</time>
      </trkpt>
      <trkpt lat="-21.20576" lon="55.30194">
        <ele>252.47373962402</ele>
        <time>2012-11-06T06:30:22Z</time>
      </trkpt>
      <trkpt lat="-21.20572" lon="55.30197">
        <ele>252.60552978516</ele>
        <time>2012-11-06T06:30:24Z</time>
      </trkpt>
      <trkpt lat="-21.2057" lon="55.30199">
        <ele>252.81903076172</ele>
        <time>2012-11-06T06:30:25Z</time>
      </trkpt>
      <trkpt lat="-21.20566" lon="55.30201">
        <ele>253.01272583008</ele>
        <time>2012-11-06T06:30:27Z</time>
      </trkpt>
      <trkpt lat="-21.2056" lon="55.30201">
        <ele>252.91395568848</ele>
        <time>2012-11-06T06:30:29Z</time>
      </trkpt>
      <trkpt lat="-21.20557" lon="55.302">
        <ele>253.24234008789</ele>
        <time>2012-11-06T06:30:30Z</time>
      </trkpt>
      <trkpt lat="-21.20551" lon="55.30197">
        <ele>252.68449401856</ele>
        <time>2012-11-06T06:30:32Z</time>
      </trkpt>
      <trkpt lat="-21.20547" lon="55.30195">
        <ele>252.26597595215</ele>
        <time>2012-11-06T06:30:33Z</time>
      </trkpt>
      <trkpt lat="-21.20538" lon="55.3019">
        <ele>251.44068908691</ele>
        <time>2012-11-06T06:30:35Z</time>
      </trkpt>
      <trkpt lat="-21.20529" lon="55.30186">
        <ele>250.85401916504</ele>
        <time>2012-11-06T06:30:37Z</time>
      </trkpt>
      <trkpt lat="-21.20525" lon="55.30184">
        <ele>250.68988037109</ele>
        <time>2012-11-06T06:30:38Z</time>
      </trkpt>
      <trkpt lat="-21.20516" lon="55.30181">
        <ele>250.16734313965</ele>
        <time>2012-11-06T06:30:40Z</time>
      </trkpt>
      <trkpt lat="-21.20511" lon="55.3018">
        <ele>249.89286804199</ele>
        <time>2012-11-06T06:30:41Z</time>
      </trkpt>
      <trkpt lat="-21.20502" lon="55.30181">
        <ele>250.04983520508</ele>
        <time>2012-11-06T06:30:42Z</time>
      </trkpt>
      <trkpt lat="-21.20499" lon="55.30184">
        <ele>250.02844238281</ele>
        <time>2012-11-06T06:30:44Z</time>
      </trkpt>
      <trkpt lat="-21.20497" lon="55.30187">
        <ele>251.7864074707</ele>
        <time>2012-11-06T06:30:45Z</time>
      </trkpt>
      <trkpt lat="-21.20496" lon="55.3019">
        <ele>252.50839233398</ele>
        <time>2012-11-06T06:30:46Z</time>
      </trkpt>
      <trkpt lat="-21.20493" lon="55.30197">
        <ele>251.427734375</ele>
        <time>2012-11-06T06:30:48Z</time>
      </trkpt>
      <trkpt lat="-21.20492" lon="55.302">
        <ele>250.67916870117</ele>
        <time>2012-11-06T06:30:49Z</time>
      </trkpt>
      <trkpt lat="-21.20492" lon="55.30203">
        <ele>250.97735595703</ele>
        <time>2012-11-06T06:30:50Z</time>
      </trkpt>
      <trkpt lat="-21.20491" lon="55.30209">
        <ele>251.35604858398</ele>
        <time>2012-11-06T06:30:52Z</time>
      </trkpt>
      <trkpt lat="-21.20489" lon="55.30214">
        <ele>252.09191894531</ele>
        <time>2012-11-06T06:30:54Z</time>
      </trkpt>
      <trkpt lat="-21.20489" lon="55.30217">
        <ele>252.12498474121</ele>
        <time>2012-11-06T06:30:55Z</time>
      </trkpt>
      <trkpt lat="-21.20488" lon="55.3022">
        <ele>252.43074035644</ele>
        <time>2012-11-06T06:30:56Z</time>
      </trkpt>
      <trkpt lat="-21.20487" lon="55.30226">
        <ele>252.81391906738</ele>
        <time>2012-11-06T06:30:58Z</time>
      </trkpt>
      <trkpt lat="-21.20485" lon="55.30231">
        <ele>253.55798339844</ele>
        <time>2012-11-06T06:31:00Z</time>
      </trkpt>
      <trkpt lat="-21.20485" lon="55.30234">
        <ele>253.73731994629</ele>
        <time>2012-11-06T06:31:01Z</time>
      </trkpt>
      <trkpt lat="-21.20484" lon="55.30237">
        <ele>253.80459594727</ele>
        <time>2012-11-06T06:31:02Z</time>
      </trkpt>
      <trkpt lat="-21.20484" lon="55.30243">
        <ele>254.30857849121</ele>
        <time>2012-11-06T06:31:04Z</time>
      </trkpt>
      <trkpt lat="-21.20483" lon="55.30246">
        <ele>254.79035949707</ele>
        <time>2012-11-06T06:31:05Z</time>
      </trkpt>
      <trkpt lat="-21.20483" lon="55.30252">
        <ele>255.77644348144</ele>
        <time>2012-11-06T06:31:07Z</time>
      </trkpt>
      <trkpt lat="-21.20483" lon="55.30255">
        <ele>256.06188964844</ele>
        <time>2012-11-06T06:31:08Z</time>
      </trkpt>
      <trkpt lat="-21.20483" lon="55.30262">
        <ele>256.21643066406</ele>
        <time>2012-11-06T06:31:10Z</time>
      </trkpt>
      <trkpt lat="-21.20482" lon="55.30265">
        <ele>256.53060913086</ele>
        <time>2012-11-06T06:31:11Z</time>
      </trkpt>
      <trkpt lat="-21.20482" lon="55.30271">
        <ele>256.6748046875</ele>
        <time>2012-11-06T06:31:13Z</time>
      </trkpt>
      <trkpt lat="-21.20481" lon="55.30278">
        <ele>257.03887939453</ele>
        <time>2012-11-06T06:31:15Z</time>
      </trkpt>
      <trkpt lat="-21.20481" lon="55.30281">
        <ele>257.20971679688</ele>
        <time>2012-11-06T06:31:16Z</time>
      </trkpt>
      <trkpt lat="-21.20481" lon="55.30284">
        <ele>257.5549621582</ele>
        <time>2012-11-06T06:31:17Z</time>
      </trkpt>
      <trkpt lat="-21.20481" lon="55.30288">
        <ele>257.89276123047</ele>
        <time>2012-11-06T06:31:18Z</time>
      </trkpt>
      <trkpt lat="-21.2048" lon="55.30294">
        <ele>257.59097290039</ele>
        <time>2012-11-06T06:31:20Z</time>
      </trkpt>
      <trkpt lat="-21.2048" lon="55.30297">
        <ele>257.16723632812</ele>
        <time>2012-11-06T06:31:21Z</time>
      </trkpt>
      <trkpt lat="-21.20479" lon="55.303">
        <ele>257.0842590332</ele>
        <time>2012-11-06T06:31:22Z</time>
      </trkpt>
      <trkpt lat="-21.20479" lon="55.30306">
        <ele>257.48016357422</ele>
        <time>2012-11-06T06:31:24Z</time>
      </trkpt>
      <trkpt lat="-21.20478" lon="55.30309">
        <ele>257.751953125</ele>
        <time>2012-11-06T06:31:25Z</time>
      </trkpt>
      <trkpt lat="-21.20478" lon="55.30312">
        <ele>257.97125244141</ele>
        <time>2012-11-06T06:31:26Z</time>
      </trkpt>
      <trkpt lat="-21.20477" lon="55.30315">
        <ele>258.20620727539</ele>
        <time>2012-11-06T06:31:27Z</time>
      </trkpt>
      <trkpt lat="-21.20476" lon="55.30318">
        <ele>258.48815917969</ele>
        <time>2012-11-06T06:31:28Z</time>
      </trkpt>
      <trkpt lat="-21.20474" lon="55.30324">
        <ele>258.78085327148</ele>
        <time>2012-11-06T06:31:30Z</time>
      </trkpt>
      <trkpt lat="-21.20473" lon="55.30327">
        <ele>258.64199829102</ele>
        <time>2012-11-06T06:31:31Z</time>
      </trkpt>
      <trkpt lat="-21.20472" lon="55.30333">
        <ele>259.29135131836</ele>
        <time>2012-11-06T06:31:33Z</time>
      </trkpt>
      <trkpt lat="-21.20472" lon="55.30339">
        <ele>260.2917175293</ele>
        <time>2012-11-06T06:31:35Z</time>
      </trkpt>
      <trkpt lat="-21.20472" lon="55.30341">
        <ele>260.53149414062</ele>
        <time>2012-11-06T06:31:36Z</time>
      </trkpt>
      <trkpt lat="-21.20472" lon="55.30343">
        <ele>260.06741333008</ele>
        <time>2012-11-06T06:31:37Z</time>
      </trkpt>
      <trkpt lat="-21.20473" lon="55.30348">
        <ele>261.72052001953</ele>
        <time>2012-11-06T06:31:39Z</time>
      </trkpt>
      <trkpt lat="-21.20473" lon="55.30353">
        <ele>263.22552490234</ele>
        <time>2012-11-06T06:31:41Z</time>
      </trkpt>
      <trkpt lat="-21.20473" lon="55.30358">
        <ele>263.91226196289</ele>
        <time>2012-11-06T06:31:43Z</time>
      </trkpt>
      <trkpt lat="-21.20473" lon="55.30361">
        <ele>265.74771118164</ele>
        <time>2012-11-06T06:31:45Z</time>
      </trkpt>
      <trkpt lat="-21.20473" lon="55.30364">
        <ele>267.71389770508</ele>
        <time>2012-11-06T06:31:46Z</time>
      </trkpt>
      <trkpt lat="-21.20472" lon="55.30366">
        <ele>267.68154907227</ele>
        <time>2012-11-06T06:31:47Z</time>
      </trkpt>
      <trkpt lat="-21.2047" lon="55.3037">
        <ele>263.57873535156</ele>
        <time>2012-11-06T06:31:49Z</time>
      </trkpt>
      <trkpt lat="-21.20467" lon="55.30373">
        <ele>263.74569702148</ele>
        <time>2012-11-06T06:31:51Z</time>
      </trkpt>
      <trkpt lat="-21.20464" lon="55.30374">
        <ele>264.85174560547</ele>
        <time>2012-11-06T06:31:53Z</time>
      </trkpt>
      <trkpt lat="-21.20461" lon="55.30375">
        <ele>264.54263305664</ele>
        <time>2012-11-06T06:31:54Z</time>
      </trkpt>
      <trkpt lat="-21.20455" lon="55.30375">
        <ele>264.79663085938</ele>
        <time>2012-11-06T06:31:56Z</time>
      </trkpt>
      <trkpt lat="-21.20445" lon="55.30375">
        <ele>263.78552246094</ele>
        <time>2012-11-06T06:31:58Z</time>
      </trkpt>
      <trkpt lat="-21.20434" lon="55.30377">
        <ele>262.16790771484</ele>
        <time>2012-11-06T06:32:00Z</time>
      </trkpt>
      <trkpt lat="-21.20427" lon="55.30378">
        <ele>261.65377807617</ele>
        <time>2012-11-06T06:32:01Z</time>
      </trkpt>
      <trkpt lat="-21.2042" lon="55.30381">
        <ele>261.58694458008</ele>
        <time>2012-11-06T06:32:02Z</time>
      </trkpt>
      <trkpt lat="-21.20412" lon="55.30383">
        <ele>260.0927734375</ele>
        <time>2012-11-06T06:32:03Z</time>
      </trkpt>
      <trkpt lat="-21.20395" lon="55.30388">
        <ele>257.00997924805</ele>
        <time>2012-11-06T06:32:05Z</time>
      </trkpt>
      <trkpt lat="-21.20377" lon="55.30391">
        <ele>254.96711730957</ele>
        <time>2012-11-06T06:32:07Z</time>
      </trkpt>
      <trkpt lat="-21.20368" lon="55.30391">
        <ele>253.86885070801</ele>
        <time>2012-11-06T06:32:08Z</time>
      </trkpt>
      <trkpt lat="-21.20359" lon="55.30389">
        <ele>252.7428894043</ele>
        <time>2012-11-06T06:32:09Z</time>
      </trkpt>
      <trkpt lat="-21.2034" lon="55.30384">
        <ele>250.97979736328</ele>
        <time>2012-11-06T06:32:11Z</time>
      </trkpt>
      <trkpt lat="-21.20322" lon="55.30383">
        <ele>249.74261474609</ele>
        <time>2012-11-06T06:32:13Z</time>
      </trkpt>
      <trkpt lat="-21.20304" lon="55.30385">
        <ele>249.77458190918</ele>
        <time>2012-11-06T06:32:15Z</time>
      </trkpt>
      <trkpt lat="-21.20286" lon="55.30386">
        <ele>249.64950561523</ele>
        <time>2012-11-06T06:32:17Z</time>
      </trkpt>
      <trkpt lat="-21.20277" lon="55.30386">
        <ele>249.35089111328</ele>
        <time>2012-11-06T06:32:18Z</time>
      </trkpt>
      <trkpt lat="-21.20265" lon="55.30387">
        <ele>249.78228759766</ele>
        <time>2012-11-06T06:32:20Z</time>
      </trkpt>
      <trkpt lat="-21.20261" lon="55.30389">
        <ele>249.53718566894</ele>
        <time>2012-11-06T06:32:21Z</time>
      </trkpt>
      <trkpt lat="-21.20258" lon="55.30394">
        <ele>249.87622070312</ele>
        <time>2012-11-06T06:32:23Z</time>
      </trkpt>
      <trkpt lat="-21.20259" lon="55.30397">
        <ele>249.65747070312</ele>
        <time>2012-11-06T06:32:24Z</time>
      </trkpt>
      <trkpt lat="-21.20261" lon="55.30401">
        <ele>249.92922973633</ele>
        <time>2012-11-06T06:32:26Z</time>
      </trkpt>
      <trkpt lat="-21.20263" lon="55.30406">
        <ele>250.14981079102</ele>
        <time>2012-11-06T06:32:28Z</time>
      </trkpt>
      <trkpt lat="-21.20264" lon="55.3041">
        <ele>250.95460510254</ele>
        <time>2012-11-06T06:32:30Z</time>
      </trkpt>
      <trkpt lat="-21.20264" lon="55.30412">
        <ele>251.31907653809</ele>
        <time>2012-11-06T06:32:31Z</time>
      </trkpt>
      <trkpt lat="-21.20266" lon="55.30417">
        <ele>253.07801818848</ele>
        <time>2012-11-06T06:32:33Z</time>
      </trkpt>
      <trkpt lat="-21.20267" lon="55.30421">
        <ele>252.41461181641</ele>
        <time>2012-11-06T06:32:35Z</time>
      </trkpt>
      <trkpt lat="-21.20268" lon="55.30426">
        <ele>252.18997192383</ele>
        <time>2012-11-06T06:32:37Z</time>
      </trkpt>
      <trkpt lat="-21.20268" lon="55.30428">
        <ele>251.26467895508</ele>
        <time>2012-11-06T06:32:38Z</time>
      </trkpt>
      <trkpt lat="-21.20269" lon="55.30433">
        <ele>254.82049560547</ele>
        <time>2012-11-06T06:32:40Z</time>
      </trkpt>
      <trkpt lat="-21.2027" lon="55.30438">
        <ele>255.37260437012</ele>
        <time>2012-11-06T06:32:42Z</time>
      </trkpt>
      <trkpt lat="-21.2027" lon="55.3044">
        <ele>255.59632873535</ele>
        <time>2012-11-06T06:32:43Z</time>
      </trkpt>
      <trkpt lat="-21.20271" lon="55.30444">
        <ele>253.99389648438</ele>
        <time>2012-11-06T06:32:45Z</time>
      </trkpt>
      <trkpt lat="-21.20272" lon="55.30448">
        <ele>254.28120422363</ele>
        <time>2012-11-06T06:32:46Z</time>
      </trkpt>
      <trkpt lat="-21.20272" lon="55.30451">
        <ele>256.61349487305</ele>
        <time>2012-11-06T06:32:48Z</time>
      </trkpt>
      <trkpt lat="-21.20273" lon="55.30455">
        <ele>254.12229919434</ele>
        <time>2012-11-06T06:32:49Z</time>
      </trkpt>
      <trkpt lat="-21.20272" lon="55.30459">
        <ele>255.73977661133</ele>
        <time>2012-11-06T06:32:51Z</time>
      </trkpt>
      <trkpt lat="-21.20271" lon="55.30462">
        <ele>255.99368286133</ele>
        <time>2012-11-06T06:32:53Z</time>
      </trkpt>
      <trkpt lat="-21.20271" lon="55.30464">
        <ele>255.80322265625</ele>
        <time>2012-11-06T06:32:54Z</time>
      </trkpt>
      <trkpt lat="-21.20271" lon="55.30467">
        <ele>257.48870849609</ele>
        <time>2012-11-06T06:32:56Z</time>
      </trkpt>
      <trkpt lat="-21.20271" lon="55.3047">
        <ele>256.90338134766</ele>
        <time>2012-11-06T06:32:57Z</time>
      </trkpt>
      <trkpt lat="-21.20272" lon="55.30474">
        <ele>260.17385864258</ele>
        <time>2012-11-06T06:32:59Z</time>
      </trkpt>
      <trkpt lat="-21.20273" lon="55.30478">
        <ele>258.05981445312</ele>
        <time>2012-11-06T06:33:01Z</time>
      </trkpt>
      <trkpt lat="-21.20274" lon="55.30479">
        <ele>260.98092651367</ele>
        <time>2012-11-06T06:33:02Z</time>
      </trkpt>
      <trkpt lat="-21.20275" lon="55.30481">
        <ele>262.76031494141</ele>
        <time>2012-11-06T06:33:03Z</time>
      </trkpt>
      <trkpt lat="-21.20277" lon="55.30482">
        <ele>261.00399780273</ele>
        <time>2012-11-06T06:33:04Z</time>
      </trkpt>
      <trkpt lat="-21.2028" lon="55.30484">
        <ele>262.81521606445</ele>
        <time>2012-11-06T06:33:06Z</time>
      </trkpt>
      <trkpt lat="-21.20283" lon="55.30485">
        <ele>260.75671386719</ele>
        <time>2012-11-06T06:33:07Z</time>
      </trkpt>
      <trkpt lat="-21.20286" lon="55.30486">
        <ele>258.6611328125</ele>
        <time>2012-11-06T06:33:09Z</time>
      </trkpt>
      <trkpt lat="-21.20288" lon="55.30486">
        <ele>259.43237304688</ele>
        <time>2012-11-06T06:33:10Z</time>
      </trkpt>
      <trkpt lat="-21.20293" lon="55.30487">
        <ele>259.84567260742</ele>
        <time>2012-11-06T06:33:12Z</time>
      </trkpt>
      <trkpt lat="-21.20295" lon="55.30487">
        <ele>260.16848754883</ele>
        <time>2012-11-06T06:33:13Z</time>
      </trkpt>
      <trkpt lat="-21.20299" lon="55.30487">
        <ele>260.88146972656</ele>
        <time>2012-11-06T06:33:15Z</time>
      </trkpt>
      <trkpt lat="-21.20303" lon="55.30488">
        <ele>261.85827636719</ele>
        <time>2012-11-06T06:33:17Z</time>
      </trkpt>
      <trkpt lat="-21.20305" lon="55.30489">
        <ele>262.33209228516</ele>
        <time>2012-11-06T06:33:18Z</time>
      </trkpt>
      <trkpt lat="-21.20307" lon="55.30489">
        <ele>262.62677001953</ele>
        <time>2012-11-06T06:33:19Z</time>
      </trkpt>
      <trkpt lat="-21.20311" lon="55.3049">
        <ele>263.92083740234</ele>
        <time>2012-11-06T06:33:21Z</time>
      </trkpt>
      <trkpt lat="-21.20315" lon="55.30491">
        <ele>264.05688476562</ele>
        <time>2012-11-06T06:33:23Z</time>
      </trkpt>
      <trkpt lat="-21.20321" lon="55.30493">
        <ele>263.18487548828</ele>
        <time>2012-11-06T06:33:25Z</time>
      </trkpt>
      <trkpt lat="-21.20326" lon="55.30494">
        <ele>262.53961181641</ele>
        <time>2012-11-06T06:33:27Z</time>
      </trkpt>
      <trkpt lat="-21.20327" lon="55.30494">
        <ele>265.57095336914</ele>
        <time>2012-11-06T06:33:28Z</time>
      </trkpt>
      <trkpt lat="-21.20329" lon="55.30495">
        <ele>264.75198364258</ele>
        <time>2012-11-06T06:33:29Z</time>
      </trkpt>
      <trkpt lat="-21.20331" lon="55.30496">
        <ele>268.7412109375</ele>
        <time>2012-11-06T06:33:30Z</time>
      </trkpt>
      <trkpt lat="-21.20336" lon="55.30497">
        <ele>265.69836425781</ele>
        <time>2012-11-06T06:33:32Z</time>
      </trkpt>
      <trkpt lat="-21.20338" lon="55.30498">
        <ele>265.18991088867</ele>
        <time>2012-11-06T06:33:33Z</time>
      </trkpt>
      <trkpt lat="-21.20342" lon="55.30499">
        <ele>265.06616210938</ele>
        <time>2012-11-06T06:33:35Z</time>
      </trkpt>
      <trkpt lat="-21.20344" lon="55.305">
        <ele>266.08517456055</ele>
        <time>2012-11-06T06:33:36Z</time>
      </trkpt>
      <trkpt lat="-21.20349" lon="55.30502">
        <ele>263.15161132812</ele>
        <time>2012-11-06T06:33:38Z</time>
      </trkpt>
      <trkpt lat="-21.20351" lon="55.30502">
        <ele>267.79205322266</ele>
        <time>2012-11-06T06:33:39Z</time>
      </trkpt>
      <trkpt lat="-21.20357" lon="55.30503">
        <ele>264.99215698242</ele>
        <time>2012-11-06T06:33:41Z</time>
      </trkpt>
      <trkpt lat="-21.20359" lon="55.30503">
        <ele>269.58346557617</ele>
        <time>2012-11-06T06:33:42Z</time>
      </trkpt>
      <trkpt lat="-21.20363" lon="55.30501">
        <ele>269.05801391602</ele>
        <time>2012-11-06T06:33:44Z</time>
      </trkpt>
      <trkpt lat="-21.20364" lon="55.305">
        <ele>268.10647583008</ele>
        <time>2012-11-06T06:33:45Z</time>
      </trkpt>
      <trkpt lat="-21.20369" lon="55.30499">
        <ele>264.61123657227</ele>
        <time>2012-11-06T06:33:46Z</time>
      </trkpt>
      <trkpt lat="-21.20372" lon="55.30498">
        <ele>265.57794189453</ele>
        <time>2012-11-06T06:33:48Z</time>
      </trkpt>
      <trkpt lat="-21.20377" lon="55.30498">
        <ele>266.275390625</ele>
        <time>2012-11-06T06:33:50Z</time>
      </trkpt>
      <trkpt lat="-21.20381" lon="55.305">
        <ele>269.1682434082</ele>
        <time>2012-11-06T06:33:52Z</time>
      </trkpt>
      <trkpt lat="-21.20383" lon="55.305">
        <ele>266.29382324219</ele>
        <time>2012-11-06T06:33:53Z</time>
      </trkpt>
      <trkpt lat="-21.20387" lon="55.30501">
        <ele>268.94927978516</ele>
        <time>2012-11-06T06:33:55Z</time>
      </trkpt>
      <trkpt lat="-21.20392" lon="55.30502">
        <ele>264.51873779297</ele>
        <time>2012-11-06T06:33:57Z</time>
      </trkpt>
      <trkpt lat="-21.20394" lon="55.30503">
        <ele>260.92663574219</ele>
        <time>2012-11-06T06:33:58Z</time>
      </trkpt>
      <trkpt lat="-21.20397" lon="55.30504">
        <ele>264.580078125</ele>
        <time>2012-11-06T06:33:59Z</time>
      </trkpt>
      <trkpt lat="-21.20401" lon="55.30505">
        <ele>264.04943847656</ele>
        <time>2012-11-06T06:34:01Z</time>
      </trkpt>
      <trkpt lat="-21.20405" lon="55.30507">
        <ele>265.47741699219</ele>
        <time>2012-11-06T06:34:03Z</time>
      </trkpt>
      <trkpt lat="-21.20408" lon="55.30508">
        <ele>266.49517822266</ele>
        <time>2012-11-06T06:34:04Z</time>
      </trkpt>
      <trkpt lat="-21.20411" lon="55.30509">
        <ele>271.13711547852</ele>
        <time>2012-11-06T06:34:06Z</time>
      </trkpt>
      <trkpt lat="-21.20417" lon="55.3051">
        <ele>266.06390380859</ele>
        <time>2012-11-06T06:34:07Z</time>
      </trkpt>
      <trkpt lat="-21.20419" lon="55.3051">
        <ele>264.69244384766</ele>
        <time>2012-11-06T06:34:09Z</time>
      </trkpt>
      <trkpt lat="-21.20421" lon="55.3051">
        <ele>266.7067565918</ele>
        <time>2012-11-06T06:34:11Z</time>
      </trkpt>
      <trkpt lat="-21.20427" lon="55.30509">
        <ele>266.33682250977</ele>
        <time>2012-11-06T06:34:13Z</time>
      </trkpt>
      <trkpt lat="-21.20429" lon="55.30509">
        <ele>267.34478759766</ele>
        <time>2012-11-06T06:34:14Z</time>
      </trkpt>
      <trkpt lat="-21.20432" lon="55.30508">
        <ele>271.57675170898</ele>
        <time>2012-11-06T06:34:16Z</time>
      </trkpt>
      <trkpt lat="-21.20434" lon="55.30508">
        <ele>270.31033325195</ele>
        <time>2012-11-06T06:34:17Z</time>
      </trkpt>
      <trkpt lat="-21.20439" lon="55.30507">
        <ele>272.60510253906</ele>
        <time>2012-11-06T06:34:19Z</time>
      </trkpt>
      <trkpt lat="-21.20442" lon="55.30507">
        <ele>271.57470703125</ele>
        <time>2012-11-06T06:34:20Z</time>
      </trkpt>
      <trkpt lat="-21.20445" lon="55.30507">
        <ele>276.28768920898</ele>
        <time>2012-11-06T06:34:22Z</time>
      </trkpt>
      <trkpt lat="-21.20447" lon="55.30506">
        <ele>278.87911987305</ele>
        <time>2012-11-06T06:34:23Z</time>
      </trkpt>
      <trkpt lat="-21.20448" lon="55.30506">
        <ele>281.56594848633</ele>
        <time>2012-11-06T06:34:24Z</time>
      </trkpt>
      <trkpt lat="-21.20449" lon="55.30506">
        <ele>279.76422119141</ele>
        <time>2012-11-06T06:34:25Z</time>
      </trkpt>
      <trkpt lat="-21.20452" lon="55.30506">
        <ele>276.35195922852</ele>
        <time>2012-11-06T06:34:26Z</time>
      </trkpt>
      <trkpt lat="-21.20457" lon="55.30506">
        <ele>276.23858642578</ele>
        <time>2012-11-06T06:34:28Z</time>
      </trkpt>
      <trkpt lat="-21.20459" lon="55.30507">
        <ele>278.10855102539</ele>
        <time>2012-11-06T06:34:30Z</time>
      </trkpt>
      <trkpt lat="-21.20462" lon="55.30507">
        <ele>276.53582763672</ele>
        <time>2012-11-06T06:34:31Z</time>
      </trkpt>
      <trkpt lat="-21.20466" lon="55.30508">
        <ele>279.49371337891</ele>
        <time>2012-11-06T06:34:33Z</time>
      </trkpt>
      <trkpt lat="-21.20468" lon="55.3051">
        <ele>279.4870300293</ele>
        <time>2012-11-06T06:34:34Z</time>
      </trkpt>
      <trkpt lat="-21.20472" lon="55.30513">
        <ele>278.6653137207</ele>
        <time>2012-11-06T06:34:36Z</time>
      </trkpt>
      <trkpt lat="-21.20474" lon="55.30517">
        <ele>278.74114990234</ele>
        <time>2012-11-06T06:34:38Z</time>
      </trkpt>
      <trkpt lat="-21.20476" lon="55.3052">
        <ele>277.49481201172</ele>
        <time>2012-11-06T06:34:40Z</time>
      </trkpt>
      <trkpt lat="-21.20476" lon="55.30523">
        <ele>275.20086669922</ele>
        <time>2012-11-06T06:34:41Z</time>
      </trkpt>
      <trkpt lat="-21.20477" lon="55.30527">
        <ele>273.55056762695</ele>
        <time>2012-11-06T06:34:43Z</time>
      </trkpt>
      <trkpt lat="-21.20478" lon="55.30529">
        <ele>274.51187133789</ele>
        <time>2012-11-06T06:34:44Z</time>
      </trkpt>
      <trkpt lat="-21.20478" lon="55.30533">
        <ele>278.21737670898</ele>
        <time>2012-11-06T06:34:46Z</time>
      </trkpt>
      <trkpt lat="-21.20478" lon="55.30535">
        <ele>278.71835327148</ele>
        <time>2012-11-06T06:34:47Z</time>
      </trkpt>
      <trkpt lat="-21.20478" lon="55.30536">
        <ele>279.35757446289</ele>
        <time>2012-11-06T06:34:48Z</time>
      </trkpt>
      <trkpt lat="-21.20478" lon="55.30539">
        <ele>281.47668457031</ele>
        <time>2012-11-06T06:34:50Z</time>
      </trkpt>
      <trkpt lat="-21.20478" lon="55.30541">
        <ele>282.75830078125</ele>
        <time>2012-11-06T06:34:51Z</time>
      </trkpt>
      <trkpt lat="-21.20478" lon="55.30544">
        <ele>283.07559204102</ele>
        <time>2012-11-06T06:34:52Z</time>
      </trkpt>
      <trkpt lat="-21.20478" lon="55.30547">
        <ele>284.57888793945</ele>
        <time>2012-11-06T06:34:54Z</time>
      </trkpt>
      <trkpt lat="-21.20478" lon="55.30549">
        <ele>283.66217041016</ele>
        <time>2012-11-06T06:34:55Z</time>
      </trkpt>
      <trkpt lat="-21.20478" lon="55.30553">
        <ele>283.24667358398</ele>
        <time>2012-11-06T06:34:57Z</time>
      </trkpt>
      <trkpt lat="-21.20477" lon="55.30555">
        <ele>283.79608154297</ele>
        <time>2012-11-06T06:34:58Z</time>
      </trkpt>
      <trkpt lat="-21.20476" lon="55.3056">
        <ele>286.66171264648</ele>
        <time>2012-11-06T06:35:00Z</time>
      </trkpt>
      <trkpt lat="-21.20476" lon="55.30564">
        <ele>289.87292480469</ele>
        <time>2012-11-06T06:35:02Z</time>
      </trkpt>
      <trkpt lat="-21.20474" lon="55.30569">
        <ele>284.96166992188</ele>
        <time>2012-11-06T06:35:04Z</time>
      </trkpt>
      <trkpt lat="-21.20474" lon="55.30572">
        <ele>288.62225341797</ele>
        <time>2012-11-06T06:35:06Z</time>
      </trkpt>
      <trkpt lat="-21.20474" lon="55.30574">
        <ele>287.7483215332</ele>
        <time>2012-11-06T06:35:07Z</time>
      </trkpt>
      <trkpt lat="-21.20474" lon="55.30575">
        <ele>286.00939941406</ele>
        <time>2012-11-06T06:35:08Z</time>
      </trkpt>
      <trkpt lat="-21.20472" lon="55.30581">
        <ele>282.98614501953</ele>
        <time>2012-11-06T06:35:10Z</time>
      </trkpt>
      <trkpt lat="-21.20469" lon="55.30585">
        <ele>281.63671875</ele>
        <time>2012-11-06T06:35:12Z</time>
      </trkpt>
      <trkpt lat="-21.20468" lon="55.30587">
        <ele>290.3850402832</ele>
        <time>2012-11-06T06:35:13Z</time>
      </trkpt>
      <trkpt lat="-21.20467" lon="55.30588">
        <ele>285.31692504883</ele>
        <time>2012-11-06T06:35:14Z</time>
      </trkpt>
      <trkpt lat="-21.20467" lon="55.30589">
        <ele>291.92181396484</ele>
        <time>2012-11-06T06:35:16Z</time>
      </trkpt>
      <trkpt lat="-21.20466" lon="55.30592">
        <ele>285.25836181641</ele>
        <time>2012-11-06T06:35:18Z</time>
      </trkpt>
      <trkpt lat="-21.20466" lon="55.30594">
        <ele>283.37310791016</ele>
        <time>2012-11-06T06:35:20Z</time>
      </trkpt>
      <trkpt lat="-21.20464" lon="55.30597">
        <ele>284.92407226562</ele>
        <time>2012-11-06T06:35:22Z</time>
      </trkpt>
      <trkpt lat="-21.20464" lon="55.30597">
        <ele>284.92407226562</ele>
        <time>2012-11-06T06:35:24Z</time>
      </trkpt>
      <trkpt lat="-21.20463" lon="55.30604">
        <ele>290.0846862793</ele>
        <time>2012-11-06T06:35:26Z</time>
      </trkpt>
      <trkpt lat="-21.20463" lon="55.30605">
        <ele>286.51553344727</ele>
        <time>2012-11-06T06:35:27Z</time>
      </trkpt>
      <trkpt lat="-21.20463" lon="55.30608">
        <ele>286.8796081543</ele>
        <time>2012-11-06T06:35:28Z</time>
      </trkpt>
      <trkpt lat="-21.20463" lon="55.30608">
        <ele>286.8796081543</ele>
        <time>2012-11-06T06:35:30Z</time>
      </trkpt>
      <trkpt lat="-21.20466" lon="55.30619">
        <ele>289.88043212891</ele>
        <time>2012-11-06T06:35:32Z</time>
      </trkpt>
      <trkpt lat="-21.20466" lon="55.30621">
        <ele>287.17013549805</ele>
        <time>2012-11-06T06:35:33Z</time>
      </trkpt>
      <trkpt lat="-21.20466" lon="55.30623">
        <ele>290.70693969727</ele>
        <time>2012-11-06T06:35:34Z</time>
      </trkpt>
      <trkpt lat="-21.20467" lon="55.30626">
        <ele>290.05892944336</ele>
        <time>2012-11-06T06:35:36Z</time>
      </trkpt>
      <trkpt lat="-21.20469" lon="55.30631">
        <ele>290.53198242188</ele>
        <time>2012-11-06T06:35:38Z</time>
      </trkpt>
      <trkpt lat="-21.20472" lon="55.30635">
        <ele>293.13552856445</ele>
        <time>2012-11-06T06:35:40Z</time>
      </trkpt>
      <trkpt lat="-21.20475" lon="55.30639">
        <ele>291.20825195312</ele>
        <time>2012-11-06T06:35:42Z</time>
      </trkpt>
      <trkpt lat="-21.20479" lon="55.30642">
        <ele>292.00885009766</ele>
        <time>2012-11-06T06:35:44Z</time>
      </trkpt>
      <trkpt lat="-21.20482" lon="55.30645">
        <ele>293.34545898438</ele>
        <time>2012-11-06T06:35:46Z</time>
      </trkpt>
      <trkpt lat="-21.20485" lon="55.30648">
        <ele>293.13311767578</ele>
        <time>2012-11-06T06:35:48Z</time>
      </trkpt>
      <trkpt lat="-21.20488" lon="55.30649">
        <ele>291.91040039062</ele>
        <time>2012-11-06T06:35:50Z</time>
      </trkpt>
      <trkpt lat="-21.20491" lon="55.3065">
        <ele>293.22967529297</ele>
        <time>2012-11-06T06:35:52Z</time>
      </trkpt>
      <trkpt lat="-21.20496" lon="55.30651">
        <ele>295.98385620117</ele>
        <time>2012-11-06T06:35:54Z</time>
      </trkpt>
      <trkpt lat="-21.20499" lon="55.30651">
        <ele>294.54501342773</ele>
        <time>2012-11-06T06:35:56Z</time>
      </trkpt>
      <trkpt lat="-21.20501" lon="55.30651">
        <ele>294.55657958984</ele>
        <time>2012-11-06T06:35:57Z</time>
      </trkpt>
      <trkpt lat="-21.20503" lon="55.30652">
        <ele>293.31616210938</ele>
        <time>2012-11-06T06:35:58Z</time>
      </trkpt>
      <trkpt lat="-21.20507" lon="55.30652">
        <ele>294.4821472168</ele>
        <time>2012-11-06T06:36:00Z</time>
      </trkpt>
      <trkpt lat="-21.2051" lon="55.30652">
        <ele>293.73095703125</ele>
        <time>2012-11-06T06:36:01Z</time>
      </trkpt>
      <trkpt lat="-21.20511" lon="55.30652">
        <ele>297.53567504883</ele>
        <time>2012-11-06T06:36:02Z</time>
      </trkpt>
      <trkpt lat="-21.20514" lon="55.30652">
        <ele>296.31872558594</ele>
        <time>2012-11-06T06:36:04Z</time>
      </trkpt>
      <trkpt lat="-21.20518" lon="55.30651">
        <ele>298.2209777832</ele>
        <time>2012-11-06T06:36:06Z</time>
      </trkpt>
      <trkpt lat="-21.20519" lon="55.30651">
        <ele>299.25314331055</ele>
        <time>2012-11-06T06:36:07Z</time>
      </trkpt>
      <trkpt lat="-21.20523" lon="55.3065">
        <ele>296.15243530273</ele>
        <time>2012-11-06T06:36:09Z</time>
      </trkpt>
      <trkpt lat="-21.20525" lon="55.30649">
        <ele>297.72814941406</ele>
        <time>2012-11-06T06:36:10Z</time>
      </trkpt>
      <trkpt lat="-21.20527" lon="55.30648">
        <ele>299.2971496582</ele>
        <time>2012-11-06T06:36:12Z</time>
      </trkpt>
      <trkpt lat="-21.20531" lon="55.30647">
        <ele>302.55215454102</ele>
        <time>2012-11-06T06:36:14Z</time>
      </trkpt>
      <trkpt lat="-21.20536" lon="55.30646">
        <ele>303.0510559082</ele>
        <time>2012-11-06T06:36:16Z</time>
      </trkpt>
      <trkpt lat="-21.20539" lon="55.30645">
        <ele>302.43719482422</ele>
        <time>2012-11-06T06:36:17Z</time>
      </trkpt>
      <trkpt lat="-21.20542" lon="55.30645">
        <ele>301.30862426758</ele>
        <time>2012-11-06T06:36:18Z</time>
      </trkpt>
      <trkpt lat="-21.20544" lon="55.30644">
        <ele>301.58819580078</ele>
        <time>2012-11-06T06:36:19Z</time>
      </trkpt>
      <trkpt lat="-21.20548" lon="55.30643">
        <ele>301.49966430664</ele>
        <time>2012-11-06T06:36:21Z</time>
      </trkpt>
      <trkpt lat="-21.20553" lon="55.30642">
        <ele>301.78164672852</ele>
        <time>2012-11-06T06:36:23Z</time>
      </trkpt>
      <trkpt lat="-21.20557" lon="55.30641">
        <ele>301.81506347656</ele>
        <time>2012-11-06T06:36:25Z</time>
      </trkpt>
      <trkpt lat="-21.20561" lon="55.30639">
        <ele>301.33352661133</ele>
        <time>2012-11-06T06:36:27Z</time>
      </trkpt>
      <trkpt lat="-21.20563" lon="55.30639">
        <ele>302.7760925293</ele>
        <time>2012-11-06T06:36:28Z</time>
      </trkpt>
      <trkpt lat="-21.20565" lon="55.30638">
        <ele>303.84744262695</ele>
        <time>2012-11-06T06:36:29Z</time>
      </trkpt>
      <trkpt lat="-21.20569" lon="55.30636">
        <ele>303.11227416992</ele>
        <time>2012-11-06T06:36:31Z</time>
      </trkpt>
      <trkpt lat="-21.20573" lon="55.30635">
        <ele>303.91461181641</ele>
        <time>2012-11-06T06:36:33Z</time>
      </trkpt>
      <trkpt lat="-21.20577" lon="55.30633">
        <ele>304.40835571289</ele>
        <time>2012-11-06T06:36:35Z</time>
      </trkpt>
      <trkpt lat="-21.20581" lon="55.30632">
        <ele>305.33715820312</ele>
        <time>2012-11-06T06:36:37Z</time>
      </trkpt>
      <trkpt lat="-21.20585" lon="55.3063">
        <ele>304.84188842773</ele>
        <time>2012-11-06T06:36:39Z</time>
      </trkpt>
      <trkpt lat="-21.20588" lon="55.30627">
        <ele>305.21417236328</ele>
        <time>2012-11-06T06:36:41Z</time>
      </trkpt>
      <trkpt lat="-21.20589" lon="55.30626">
        <ele>308.13046264648</ele>
        <time>2012-11-06T06:36:42Z</time>
      </trkpt>
      <trkpt lat="-21.20593" lon="55.30625">
        <ele>304.92401123047</ele>
        <time>2012-11-06T06:36:44Z</time>
      </trkpt>
      <trkpt lat="-21.20595" lon="55.30624">
        <ele>305.93716430664</ele>
        <time>2012-11-06T06:36:45Z</time>
      </trkpt>
      <trkpt lat="-21.20597" lon="55.30623">
        <ele>306.59063720703</ele>
        <time>2012-11-06T06:36:46Z</time>
      </trkpt>
      <trkpt lat="-21.206" lon="55.30621">
        <ele>307.60076904297</ele>
        <time>2012-11-06T06:36:48Z</time>
      </trkpt>
      <trkpt lat="-21.20602" lon="55.3062">
        <ele>307.07257080078</ele>
        <time>2012-11-06T06:36:49Z</time>
      </trkpt>
      <trkpt lat="-21.20605" lon="55.30618">
        <ele>306.13906860352</ele>
        <time>2012-11-06T06:36:51Z</time>
      </trkpt>
      <trkpt lat="-21.20609" lon="55.30615">
        <ele>307.33676147461</ele>
        <time>2012-11-06T06:36:53Z</time>
      </trkpt>
      <trkpt lat="-21.20611" lon="55.30614">
        <ele>306.78726196289</ele>
        <time>2012-11-06T06:36:54Z</time>
      </trkpt>
      <trkpt lat="-21.20612" lon="55.30613">
        <ele>306.29983520508</ele>
        <time>2012-11-06T06:36:55Z</time>
      </trkpt>
      <trkpt lat="-21.20614" lon="55.30611">
        <ele>305.64639282227</ele>
        <time>2012-11-06T06:36:56Z</time>
      </trkpt>
      <trkpt lat="-21.20615" lon="55.3061">
        <ele>306.87854003906</ele>
        <time>2012-11-06T06:36:57Z</time>
      </trkpt>
      <trkpt lat="-21.20618" lon="55.30608">
        <ele>310.74395751953</ele>
        <time>2012-11-06T06:36:59Z</time>
      </trkpt>
      <trkpt lat="-21.20622" lon="55.30604">
        <ele>308.09243774414</ele>
        <time>2012-11-06T06:37:01Z</time>
      </trkpt>
      <trkpt lat="-21.20624" lon="55.30603">
        <ele>311.22811889648</ele>
        <time>2012-11-06T06:37:02Z</time>
      </trkpt>
      <trkpt lat="-21.20626" lon="55.30601">
        <ele>312.00811767578</ele>
        <time>2012-11-06T06:37:03Z</time>
      </trkpt>
      <trkpt lat="-21.20628" lon="55.30599">
        <ele>310.16394042969</ele>
        <time>2012-11-06T06:37:05Z</time>
      </trkpt>
      <trkpt lat="-21.2063" lon="55.30598">
        <ele>308.5168762207</ele>
        <time>2012-11-06T06:37:06Z</time>
      </trkpt>
      <trkpt lat="-21.20633" lon="55.30595">
        <ele>307.66885375977</ele>
        <time>2012-11-06T06:37:08Z</time>
      </trkpt>
      <trkpt lat="-21.20635" lon="55.30592">
        <ele>306.63723754883</ele>
        <time>2012-11-06T06:37:10Z</time>
      </trkpt>
      <trkpt lat="-21.20638" lon="55.30589">
        <ele>311.36199951172</ele>
        <time>2012-11-06T06:37:11Z</time>
      </trkpt>
      <trkpt lat="-21.2064" lon="55.30587">
        <ele>310.04592895508</ele>
        <time>2012-11-06T06:37:13Z</time>
      </trkpt>
      <trkpt lat="-21.20643" lon="55.30584">
        <ele>305.20541381836</ele>
        <time>2012-11-06T06:37:15Z</time>
      </trkpt>
      <trkpt lat="-21.20646" lon="55.30583">
        <ele>304.58908081055</ele>
        <time>2012-11-06T06:37:17Z</time>
      </trkpt>
      <trkpt lat="-21.20647" lon="55.30582">
        <ele>304.31201171875</ele>
        <time>2012-11-06T06:37:18Z</time>
      </trkpt>
      <trkpt lat="-21.2065" lon="55.30579">
        <ele>303.50177001953</ele>
        <time>2012-11-06T06:37:19Z</time>
      </trkpt>
      <trkpt lat="-21.20654" lon="55.30579">
        <ele>302.77514648438</ele>
        <time>2012-11-06T06:37:21Z</time>
      </trkpt>
      <trkpt lat="-21.20656" lon="55.30579">
        <ele>306.4921875</ele>
        <time>2012-11-06T06:37:22Z</time>
      </trkpt>
      <trkpt lat="-21.2066" lon="55.30579">
        <ele>311.02038574219</ele>
        <time>2012-11-06T06:37:24Z</time>
      </trkpt>
      <trkpt lat="-21.20662" lon="55.3058">
        <ele>310.5173034668</ele>
        <time>2012-11-06T06:37:25Z</time>
      </trkpt>
      <trkpt lat="-21.20663" lon="55.30582">
        <ele>311.22576904297</ele>
        <time>2012-11-06T06:37:26Z</time>
      </trkpt>
      <trkpt lat="-21.20665" lon="55.30583">
        <ele>313.12417602539</ele>
        <time>2012-11-06T06:37:27Z</time>
      </trkpt>
      <trkpt lat="-21.20666" lon="55.30587">
        <ele>313.95431518555</ele>
        <time>2012-11-06T06:37:29Z</time>
      </trkpt>
      <trkpt lat="-21.20668" lon="55.30591">
        <ele>313.76867675781</ele>
        <time>2012-11-06T06:37:31Z</time>
      </trkpt>
      <trkpt lat="-21.20668" lon="55.30596">
        <ele>313.05718994141</ele>
        <time>2012-11-06T06:37:33Z</time>
      </trkpt>
      <trkpt lat="-21.20669" lon="55.30601">
        <ele>313.17852783203</ele>
        <time>2012-11-06T06:37:35Z</time>
      </trkpt>
      <trkpt lat="-21.20669" lon="55.30604">
        <ele>313.56607055664</ele>
        <time>2012-11-06T06:37:36Z</time>
      </trkpt>
      <trkpt lat="-21.2067" lon="55.30608">
        <ele>314.01834106445</ele>
        <time>2012-11-06T06:37:38Z</time>
      </trkpt>
      <trkpt lat="-21.2067" lon="55.30611">
        <ele>314.20950317383</ele>
        <time>2012-11-06T06:37:39Z</time>
      </trkpt>
      <trkpt lat="-21.20671" lon="55.30615">
        <ele>314.50500488281</ele>
        <time>2012-11-06T06:37:41Z</time>
      </trkpt>
      <trkpt lat="-21.20671" lon="55.30618">
        <ele>314.58627319336</ele>
        <time>2012-11-06T06:37:42Z</time>
      </trkpt>
      <trkpt lat="-21.20672" lon="55.30622">
        <ele>314.74655151367</ele>
        <time>2012-11-06T06:37:44Z</time>
      </trkpt>
      <trkpt lat="-21.20672" lon="55.30624">
        <ele>314.95281982422</ele>
        <time>2012-11-06T06:37:45Z</time>
      </trkpt>
      <trkpt lat="-21.20672" lon="55.30626">
        <ele>315.08987426758</ele>
        <time>2012-11-06T06:37:46Z</time>
      </trkpt>
      <trkpt lat="-21.20673" lon="55.30629">
        <ele>315.29354858398</ele>
        <time>2012-11-06T06:37:47Z</time>
      </trkpt>
      <trkpt lat="-21.20673" lon="55.30633">
        <ele>315.62963867188</ele>
        <time>2012-11-06T06:37:49Z</time>
      </trkpt>
      <trkpt lat="-21.20673" lon="55.30635">
        <ele>315.62200927734</ele>
        <time>2012-11-06T06:37:50Z</time>
      </trkpt>
      <trkpt lat="-21.20673" lon="55.30637">
        <ele>315.60824584961</ele>
        <time>2012-11-06T06:37:51Z</time>
      </trkpt>
      <trkpt lat="-21.20672" lon="55.30642">
        <ele>315.66076660156</ele>
        <time>2012-11-06T06:37:53Z</time>
      </trkpt>
      <trkpt lat="-21.20671" lon="55.30646">
        <ele>315.33163452148</ele>
        <time>2012-11-06T06:37:55Z</time>
      </trkpt>
      <trkpt lat="-21.2067" lon="55.30651">
        <ele>315.18283081055</ele>
        <time>2012-11-06T06:37:56Z</time>
      </trkpt>
      <trkpt lat="-21.20669" lon="55.30653">
        <ele>314.83679199219</ele>
        <time>2012-11-06T06:37:58Z</time>
      </trkpt>
      <trkpt lat="-21.20668" lon="55.30657">
        <ele>315.2639465332</ele>
        <time>2012-11-06T06:38:00Z</time>
      </trkpt>
      <trkpt lat="-21.20667" lon="55.30659">
        <ele>315.84136962891</ele>
        <time>2012-11-06T06:38:01Z</time>
      </trkpt>
      <trkpt lat="-21.20665" lon="55.30663">
        <ele>317.18692016602</ele>
        <time>2012-11-06T06:38:03Z</time>
      </trkpt>
      <trkpt lat="-21.20664" lon="55.30665">
        <ele>317.56564331055</ele>
        <time>2012-11-06T06:38:04Z</time>
      </trkpt>
      <trkpt lat="-21.20662" lon="55.3067">
        <ele>317.70407104492</ele>
        <time>2012-11-06T06:38:06Z</time>
      </trkpt>
      <trkpt lat="-21.2066" lon="55.30674">
        <ele>318.0339050293</ele>
        <time>2012-11-06T06:38:08Z</time>
      </trkpt>
      <trkpt lat="-21.20659" lon="55.30677">
        <ele>318.4153137207</ele>
        <time>2012-11-06T06:38:09Z</time>
      </trkpt>
      <trkpt lat="-21.20658" lon="55.30679">
        <ele>318.69766235352</ele>
        <time>2012-11-06T06:38:10Z</time>
      </trkpt>
      <trkpt lat="-21.20657" lon="55.30684">
        <ele>318.79049682617</ele>
        <time>2012-11-06T06:38:12Z</time>
      </trkpt>
      <trkpt lat="-21.20656" lon="55.30689">
        <ele>318.63320922852</ele>
        <time>2012-11-06T06:38:14Z</time>
      </trkpt>
      <trkpt lat="-21.20656" lon="55.30694">
        <ele>318.85684204102</ele>
        <time>2012-11-06T06:38:16Z</time>
      </trkpt>
      <trkpt lat="-21.20655" lon="55.30699">
        <ele>319.15246582031</ele>
        <time>2012-11-06T06:38:18Z</time>
      </trkpt>
      <trkpt lat="-21.20655" lon="55.30704">
        <ele>319.30169677734</ele>
        <time>2012-11-06T06:38:20Z</time>
      </trkpt>
      <trkpt lat="-21.20655" lon="55.30707">
        <ele>319.46835327148</ele>
        <time>2012-11-06T06:38:21Z</time>
      </trkpt>
      <trkpt lat="-21.20655" lon="55.30712">
        <ele>319.7890625</ele>
        <time>2012-11-06T06:38:23Z</time>
      </trkpt>
      <trkpt lat="-21.20655" lon="55.30715">
        <ele>320.02758789062</ele>
        <time>2012-11-06T06:38:24Z</time>
      </trkpt>
      <trkpt lat="-21.20655" lon="55.30717">
        <ele>320.11801147461</ele>
        <time>2012-11-06T06:38:25Z</time>
      </trkpt>
      <trkpt lat="-21.20655" lon="55.3072">
        <ele>320.15875244141</ele>
        <time>2012-11-06T06:38:26Z</time>
      </trkpt>
      <trkpt lat="-21.20656" lon="55.30722">
        <ele>320.23287963867</ele>
        <time>2012-11-06T06:38:27Z</time>
      </trkpt>
      <trkpt lat="-21.20656" lon="55.30725">
        <ele>320.32736206055</ele>
        <time>2012-11-06T06:38:28Z</time>
      </trkpt>
      <trkpt lat="-21.20655" lon="55.30728">
        <ele>320.41360473633</ele>
        <time>2012-11-06T06:38:29Z</time>
      </trkpt>
      <trkpt lat="-21.20655" lon="55.3073">
        <ele>320.50595092773</ele>
        <time>2012-11-06T06:38:30Z</time>
      </trkpt>
      <trkpt lat="-21.20655" lon="55.30733">
        <ele>320.67868041992</ele>
        <time>2012-11-06T06:38:31Z</time>
      </trkpt>
      <trkpt lat="-21.20654" lon="55.30738">
        <ele>320.90197753906</ele>
        <time>2012-11-06T06:38:33Z</time>
      </trkpt>
      <trkpt lat="-21.20653" lon="55.30744">
        <ele>321.19250488281</ele>
        <time>2012-11-06T06:38:35Z</time>
      </trkpt>
      <trkpt lat="-21.20652" lon="55.30746">
        <ele>321.31866455078</ele>
        <time>2012-11-06T06:38:36Z</time>
      </trkpt>
      <trkpt lat="-21.20652" lon="55.30749">
        <ele>321.46374511719</ele>
        <time>2012-11-06T06:38:37Z</time>
      </trkpt>
      <trkpt lat="-21.20651" lon="55.30751">
        <ele>321.44885253906</ele>
        <time>2012-11-06T06:38:38Z</time>
      </trkpt>
      <trkpt lat="-21.20648" lon="55.30756">
        <ele>321.74099731445</ele>
        <time>2012-11-06T06:38:40Z</time>
      </trkpt>
      <trkpt lat="-21.20647" lon="55.30758">
        <ele>321.88302612305</ele>
        <time>2012-11-06T06:38:41Z</time>
      </trkpt>
      <trkpt lat="-21.20644" lon="55.30763">
        <ele>322.21170043945</ele>
        <time>2012-11-06T06:38:43Z</time>
      </trkpt>
      <trkpt lat="-21.20642" lon="55.30765">
        <ele>322.36138916016</ele>
        <time>2012-11-06T06:38:44Z</time>
      </trkpt>
      <trkpt lat="-21.20638" lon="55.30768">
        <ele>322.732421875</ele>
        <time>2012-11-06T06:38:46Z</time>
      </trkpt>
      <trkpt lat="-21.20636" lon="55.3077">
        <ele>322.88763427734</ele>
        <time>2012-11-06T06:38:47Z</time>
      </trkpt>
      <trkpt lat="-21.20634" lon="55.30771">
        <ele>323.07763671875</ele>
        <time>2012-11-06T06:38:48Z</time>
      </trkpt>
      <trkpt lat="-21.2063" lon="55.30774">
        <ele>322.87310791016</ele>
        <time>2012-11-06T06:38:50Z</time>
      </trkpt>
      <trkpt lat="-21.20625" lon="55.30776">
        <ele>323.30560302734</ele>
        <time>2012-11-06T06:38:52Z</time>
      </trkpt>
      <trkpt lat="-21.20619" lon="55.30777">
        <ele>323.12469482422</ele>
        <time>2012-11-06T06:38:54Z</time>
      </trkpt>
      <trkpt lat="-21.20617" lon="55.30777">
        <ele>323.17102050781</ele>
        <time>2012-11-06T06:38:55Z</time>
      </trkpt>
      <trkpt lat="-21.20612" lon="55.30779">
        <ele>325.94052124023</ele>
        <time>2012-11-06T06:38:57Z</time>
      </trkpt>
      <trkpt lat="-21.20609" lon="55.30779">
        <ele>326.92373657227</ele>
        <time>2012-11-06T06:38:58Z</time>
      </trkpt>
      <trkpt lat="-21.20605" lon="55.3078">
        <ele>327.37536621094</ele>
        <time>2012-11-06T06:39:00Z</time>
      </trkpt>
      <trkpt lat="-21.20602" lon="55.30781">
        <ele>327.44094848633</ele>
        <time>2012-11-06T06:39:01Z</time>
      </trkpt>
      <trkpt lat="-21.20597" lon="55.30783">
        <ele>327.29779052734</ele>
        <time>2012-11-06T06:39:03Z</time>
      </trkpt>
      <trkpt lat="-21.20593" lon="55.30785">
        <ele>327.51400756836</ele>
        <time>2012-11-06T06:39:05Z</time>
      </trkpt>
      <trkpt lat="-21.20591" lon="55.30787">
        <ele>327.34213256836</ele>
        <time>2012-11-06T06:39:06Z</time>
      </trkpt>
      <trkpt lat="-21.20587" lon="55.3079">
        <ele>326.90731811523</ele>
        <time>2012-11-06T06:39:08Z</time>
      </trkpt>
      <trkpt lat="-21.20585" lon="55.30792">
        <ele>326.48641967773</ele>
        <time>2012-11-06T06:39:09Z</time>
      </trkpt>
      <trkpt lat="-21.20582" lon="55.30796">
        <ele>327.37210083008</ele>
        <time>2012-11-06T06:39:11Z</time>
      </trkpt>
      <trkpt lat="-21.20581" lon="55.30797">
        <ele>327.54318237305</ele>
        <time>2012-11-06T06:39:12Z</time>
      </trkpt>
      <trkpt lat="-21.20577" lon="55.30801">
        <ele>327.59585571289</ele>
        <time>2012-11-06T06:39:14Z</time>
      </trkpt>
      <trkpt lat="-21.20575" lon="55.30803">
        <ele>327.58746337891</ele>
        <time>2012-11-06T06:39:15Z</time>
      </trkpt>
      <trkpt lat="-21.20572" lon="55.30806">
        <ele>327.64233398438</ele>
        <time>2012-11-06T06:39:17Z</time>
      </trkpt>
      <trkpt lat="-21.20567" lon="55.30809">
        <ele>328.00988769531</ele>
        <time>2012-11-06T06:39:19Z</time>
      </trkpt>
      <trkpt lat="-21.20565" lon="55.30811">
        <ele>328.27090454102</ele>
        <time>2012-11-06T06:39:20Z</time>
      </trkpt>
      <trkpt lat="-21.20563" lon="55.30812">
        <ele>328.50659179688</ele>
        <time>2012-11-06T06:39:21Z</time>
      </trkpt>
      <trkpt lat="-21.20559" lon="55.30815">
        <ele>329.64117431641</ele>
        <time>2012-11-06T06:39:23Z</time>
      </trkpt>
      <trkpt lat="-21.20554" lon="55.30817">
        <ele>330.24267578125</ele>
        <time>2012-11-06T06:39:25Z</time>
      </trkpt>
      <trkpt lat="-21.2055" lon="55.30819">
        <ele>330.53665161133</ele>
        <time>2012-11-06T06:39:27Z</time>
      </trkpt>
      <trkpt lat="-21.20548" lon="55.30821">
        <ele>330.8996887207</ele>
        <time>2012-11-06T06:39:28Z</time>
      </trkpt>
      <trkpt lat="-21.20543" lon="55.30823">
        <ele>330.77624511719</ele>
        <time>2012-11-06T06:39:30Z</time>
      </trkpt>
      <trkpt lat="-21.20537" lon="55.30825">
        <ele>330.28970336914</ele>
        <time>2012-11-06T06:39:32Z</time>
      </trkpt>
      <trkpt lat="-21.20532" lon="55.30828">
        <ele>330.04672241211</ele>
        <time>2012-11-06T06:39:34Z</time>
      </trkpt>
      <trkpt lat="-21.20529" lon="55.30829">
        <ele>330.03952026367</ele>
        <time>2012-11-06T06:39:35Z</time>
      </trkpt>
      <trkpt lat="-21.20524" lon="55.30831">
        <ele>330.37426757812</ele>
        <time>2012-11-06T06:39:36Z</time>
      </trkpt>
      <trkpt lat="-21.20522" lon="55.30832">
        <ele>330.70083618164</ele>
        <time>2012-11-06T06:39:38Z</time>
      </trkpt>
      <trkpt lat="-21.20517" lon="55.30833">
        <ele>331.39193725586</ele>
        <time>2012-11-06T06:39:40Z</time>
      </trkpt>
      <trkpt lat="-21.20514" lon="55.30834">
        <ele>331.77575683594</ele>
        <time>2012-11-06T06:39:41Z</time>
      </trkpt>
      <trkpt lat="-21.2051" lon="55.30838">
        <ele>331.99719238281</ele>
        <time>2012-11-06T06:39:43Z</time>
      </trkpt>
      <trkpt lat="-21.20507" lon="55.30843">
        <ele>332.03820800781</ele>
        <time>2012-11-06T06:39:45Z</time>
      </trkpt>
      <trkpt lat="-21.20508" lon="55.30845">
        <ele>332.18267822266</ele>
        <time>2012-11-06T06:39:46Z</time>
      </trkpt>
      <trkpt lat="-21.20511" lon="55.30849">
        <ele>332.51223754883</ele>
        <time>2012-11-06T06:39:48Z</time>
      </trkpt>
      <trkpt lat="-21.20516" lon="55.3085">
        <ele>332.58334350586</ele>
        <time>2012-11-06T06:39:50Z</time>
      </trkpt>
      <trkpt lat="-21.20518" lon="55.3085">
        <ele>332.64733886719</ele>
        <time>2012-11-06T06:39:51Z</time>
      </trkpt>
      <trkpt lat="-21.20523" lon="55.3085">
        <ele>332.88854980469</ele>
        <time>2012-11-06T06:39:53Z</time>
      </trkpt>
      <trkpt lat="-21.20528" lon="55.3085">
        <ele>333.33996582031</ele>
        <time>2012-11-06T06:39:55Z</time>
      </trkpt>
      <trkpt lat="-21.20534" lon="55.3085">
        <ele>333.83807373047</ele>
        <time>2012-11-06T06:39:57Z</time>
      </trkpt>
      <trkpt lat="-21.20539" lon="55.3085">
        <ele>334.01113891602</ele>
        <time>2012-11-06T06:39:59Z</time>
      </trkpt>
      <trkpt lat="-21.20544" lon="55.3085">
        <ele>334.30728149414</ele>
        <time>2012-11-06T06:40:01Z</time>
      </trkpt>
      <trkpt lat="-21.20549" lon="55.30851">
        <ele>335.43081665039</ele>
        <time>2012-11-06T06:40:03Z</time>
      </trkpt>
      <trkpt lat="-21.20552" lon="55.30851">
        <ele>335.6223449707</ele>
        <time>2012-11-06T06:40:04Z</time>
      </trkpt>
      <trkpt lat="-21.20558" lon="55.30851">
        <ele>336.00296020508</ele>
        <time>2012-11-06T06:40:06Z</time>
      </trkpt>
      <trkpt lat="-21.20561" lon="55.30851">
        <ele>336.16879272461</ele>
        <time>2012-11-06T06:40:07Z</time>
      </trkpt>
      <trkpt lat="-21.20566" lon="55.30852">
        <ele>336.48175048828</ele>
        <time>2012-11-06T06:40:09Z</time>
      </trkpt>
      <trkpt lat="-21.20568" lon="55.30852">
        <ele>336.60528564453</ele>
        <time>2012-11-06T06:40:10Z</time>
      </trkpt>
      <trkpt lat="-21.20571" lon="55.30852">
        <ele>336.76095581055</ele>
        <time>2012-11-06T06:40:11Z</time>
      </trkpt>
      <trkpt lat="-21.20573" lon="55.30852">
        <ele>336.80386352539</ele>
        <time>2012-11-06T06:40:12Z</time>
      </trkpt>
      <trkpt lat="-21.20578" lon="55.30852">
        <ele>337.03753662109</ele>
        <time>2012-11-06T06:40:14Z</time>
      </trkpt>
      <trkpt lat="-21.20583" lon="55.30853">
        <ele>337.24862670898</ele>
        <time>2012-11-06T06:40:15Z</time>
      </trkpt>
      <trkpt lat="-21.20585" lon="55.30853">
        <ele>337.36346435547</ele>
        <time>2012-11-06T06:40:17Z</time>
      </trkpt>
      <trkpt lat="-21.2059" lon="55.30853">
        <ele>337.60647583008</ele>
        <time>2012-11-06T06:40:19Z</time>
      </trkpt>
      <trkpt lat="-21.20595" lon="55.30853">
        <ele>337.48254394531</ele>
        <time>2012-11-06T06:40:21Z</time>
      </trkpt>
      <trkpt lat="-21.20598" lon="55.30853">
        <ele>337.46005249023</ele>
        <time>2012-11-06T06:40:22Z</time>
      </trkpt>
      <trkpt lat="-21.20603" lon="55.30854">
        <ele>337.54772949219</ele>
        <time>2012-11-06T06:40:24Z</time>
      </trkpt>
      <trkpt lat="-21.20605" lon="55.30854">
        <ele>337.62451171875</ele>
        <time>2012-11-06T06:40:25Z</time>
      </trkpt>
      <trkpt lat="-21.20607" lon="55.30854">
        <ele>337.82531738281</ele>
        <time>2012-11-06T06:40:26Z</time>
      </trkpt>
      <trkpt lat="-21.20612" lon="55.30854">
        <ele>338.15579223633</ele>
        <time>2012-11-06T06:40:28Z</time>
      </trkpt>
      <trkpt lat="-21.20614" lon="55.30855">
        <ele>338.35000610352</ele>
        <time>2012-11-06T06:40:29Z</time>
      </trkpt>
      <trkpt lat="-21.20618" lon="55.30858">
        <ele>338.26007080078</ele>
        <time>2012-11-06T06:40:31Z</time>
      </trkpt>
      <trkpt lat="-21.2062" lon="55.30863">
        <ele>338.90289306641</ele>
        <time>2012-11-06T06:40:33Z</time>
      </trkpt>
      <trkpt lat="-21.20618" lon="55.30867">
        <ele>339.47927856445</ele>
        <time>2012-11-06T06:40:35Z</time>
      </trkpt>
      <trkpt lat="-21.20614" lon="55.30869">
        <ele>340.31024169922</ele>
        <time>2012-11-06T06:40:37Z</time>
      </trkpt>
      <trkpt lat="-21.2061" lon="55.30871">
        <ele>340.26248168945</ele>
        <time>2012-11-06T06:40:38Z</time>
      </trkpt>
      <trkpt lat="-21.20607" lon="55.30872">
        <ele>340.58056640625</ele>
        <time>2012-11-06T06:40:40Z</time>
      </trkpt>
      <trkpt lat="-21.20605" lon="55.30872">
        <ele>341.03799438477</ele>
        <time>2012-11-06T06:40:41Z</time>
      </trkpt>
      <trkpt lat="-21.206" lon="55.30874">
        <ele>341.23828125</ele>
        <time>2012-11-06T06:40:43Z</time>
      </trkpt>
      <trkpt lat="-21.20595" lon="55.30875">
        <ele>339.92877197266</ele>
        <time>2012-11-06T06:40:45Z</time>
      </trkpt>
      <trkpt lat="-21.20593" lon="55.30876">
        <ele>340.10754394531</ele>
        <time>2012-11-06T06:40:46Z</time>
      </trkpt>
      <trkpt lat="-21.20591" lon="55.30876">
        <ele>339.83178710938</ele>
        <time>2012-11-06T06:40:47Z</time>
      </trkpt>
      <trkpt lat="-21.20587" lon="55.30878">
        <ele>340.65966796875</ele>
        <time>2012-11-06T06:40:49Z</time>
      </trkpt>
      <trkpt lat="-21.20584" lon="55.30879">
        <ele>340.69323730469</ele>
        <time>2012-11-06T06:40:50Z</time>
      </trkpt>
      <trkpt lat="-21.2058" lon="55.30882">
        <ele>341.02310180664</ele>
        <time>2012-11-06T06:40:52Z</time>
      </trkpt>
      <trkpt lat="-21.20578" lon="55.30883">
        <ele>341.2819519043</ele>
        <time>2012-11-06T06:40:53Z</time>
      </trkpt>
      <trkpt lat="-21.20573" lon="55.30886">
        <ele>341.7272644043</ele>
        <time>2012-11-06T06:40:55Z</time>
      </trkpt>
      <trkpt lat="-21.20569" lon="55.30888">
        <ele>339.65057373047</ele>
        <time>2012-11-06T06:40:57Z</time>
      </trkpt>
      <trkpt lat="-21.20567" lon="55.30889">
        <ele>341.40530395508</ele>
        <time>2012-11-06T06:40:58Z</time>
      </trkpt>
      <trkpt lat="-21.20563" lon="55.30891">
        <ele>342.62551879883</ele>
        <time>2012-11-06T06:41:00Z</time>
      </trkpt>
      <trkpt lat="-21.20561" lon="55.30893">
        <ele>343.16958618164</ele>
        <time>2012-11-06T06:41:01Z</time>
      </trkpt>
      <trkpt lat="-21.20557" lon="55.30895">
        <ele>344.29083251953</ele>
        <time>2012-11-06T06:41:02Z</time>
      </trkpt>
      <trkpt lat="-21.20555" lon="55.30897">
        <ele>344.89822387695</ele>
        <time>2012-11-06T06:41:04Z</time>
      </trkpt>
      <trkpt lat="-21.20553" lon="55.30898">
        <ele>345.22613525391</ele>
        <time>2012-11-06T06:41:05Z</time>
      </trkpt>
      <trkpt lat="-21.20549" lon="55.30901">
        <ele>346.27749633789</ele>
        <time>2012-11-06T06:41:07Z</time>
      </trkpt>
      <trkpt lat="-21.20545" lon="55.30905">
        <ele>346.22015380859</ele>
        <time>2012-11-06T06:41:09Z</time>
      </trkpt>
      <trkpt lat="-21.20544" lon="55.30907">
        <ele>346.38327026367</ele>
        <time>2012-11-06T06:41:10Z</time>
      </trkpt>
      <trkpt lat="-21.20544" lon="55.30912">
        <ele>345.55270385742</ele>
        <time>2012-11-06T06:41:12Z</time>
      </trkpt>
      <trkpt lat="-21.20545" lon="55.30916">
        <ele>345.98416137695</ele>
        <time>2012-11-06T06:41:14Z</time>
      </trkpt>
      <trkpt lat="-21.20546" lon="55.30918">
        <ele>346.76116943359</ele>
        <time>2012-11-06T06:41:16Z</time>
      </trkpt>
      <trkpt lat="-21.20548" lon="55.30917">
        <ele>346.83880615234</ele>
        <time>2012-11-06T06:41:17Z</time>
      </trkpt>
      <trkpt lat="-21.20551" lon="55.30916">
        <ele>346.96774291992</ele>
        <time>2012-11-06T06:41:19Z</time>
      </trkpt>
      <trkpt lat="-21.20554" lon="55.30915">
        <ele>347.18341064453</ele>
        <time>2012-11-06T06:41:21Z</time>
      </trkpt>
      <trkpt lat="-21.20555" lon="55.30915">
        <ele>347.33236694336</ele>
        <time>2012-11-06T06:41:22Z</time>
      </trkpt>
      <trkpt lat="-21.20557" lon="55.30915">
        <ele>346.42660522461</ele>
        <time>2012-11-06T06:41:23Z</time>
      </trkpt>
      <trkpt lat="-21.2056" lon="55.30914">
        <ele>345.85824584961</ele>
        <time>2012-11-06T06:41:25Z</time>
      </trkpt>
      <trkpt lat="-21.20562" lon="55.30915">
        <ele>346.36755371094</ele>
        <time>2012-11-06T06:41:27Z</time>
      </trkpt>
      <trkpt lat="-21.20565" lon="55.30915">
        <ele>348.10809326172</ele>
        <time>2012-11-06T06:41:29Z</time>
      </trkpt>
      <trkpt lat="-21.20567" lon="55.30915">
        <ele>348.12893676758</ele>
        <time>2012-11-06T06:41:30Z</time>
      </trkpt>
      <trkpt lat="-21.2057" lon="55.30915">
        <ele>347.47509765625</ele>
        <time>2012-11-06T06:41:31Z</time>
      </trkpt>
      <trkpt lat="-21.20574" lon="55.30914">
        <ele>348.26605224609</ele>
        <time>2012-11-06T06:41:33Z</time>
      </trkpt>
      <trkpt lat="-21.20576" lon="55.30914">
        <ele>348.85885620117</ele>
        <time>2012-11-06T06:41:34Z</time>
      </trkpt>
      <trkpt lat="-21.20578" lon="55.30914">
        <ele>349.4479675293</ele>
        <time>2012-11-06T06:41:35Z</time>
      </trkpt>
      <trkpt lat="-21.20583" lon="55.30913">
        <ele>349.25643920898</ele>
        <time>2012-11-06T06:41:37Z</time>
      </trkpt>
      <trkpt lat="-21.20585" lon="55.30913">
        <ele>349.04299926758</ele>
        <time>2012-11-06T06:41:38Z</time>
      </trkpt>
      <trkpt lat="-21.20587" lon="55.30913">
        <ele>349.54708862305</ele>
        <time>2012-11-06T06:41:39Z</time>
      </trkpt>
      <trkpt lat="-21.20589" lon="55.30913">
        <ele>349.75671386719</ele>
        <time>2012-11-06T06:41:40Z</time>
      </trkpt>
      <trkpt lat="-21.20593" lon="55.30914">
        <ele>350.23049926758</ele>
        <time>2012-11-06T06:41:42Z</time>
      </trkpt>
      <trkpt lat="-21.20595" lon="55.30914">
        <ele>350.85345458984</ele>
        <time>2012-11-06T06:41:43Z</time>
      </trkpt>
      <trkpt lat="-21.20599" lon="55.30916">
        <ele>351.18240356445</ele>
        <time>2012-11-06T06:41:45Z</time>
      </trkpt>
      <trkpt lat="-21.206" lon="55.30917">
        <ele>351.17956542969</ele>
        <time>2012-11-06T06:41:46Z</time>
      </trkpt>
      <trkpt lat="-21.20602" lon="55.3092">
        <ele>351.05499267578</ele>
        <time>2012-11-06T06:41:48Z</time>
      </trkpt>
      <trkpt lat="-21.20603" lon="55.30921">
        <ele>351.49319458008</ele>
        <time>2012-11-06T06:41:49Z</time>
      </trkpt>
      <trkpt lat="-21.20605" lon="55.30924">
        <ele>351.96347045898</ele>
        <time>2012-11-06T06:41:51Z</time>
      </trkpt>
      <trkpt lat="-21.20606" lon="55.30926">
        <ele>352.2106628418</ele>
        <time>2012-11-06T06:41:52Z</time>
      </trkpt>
      <trkpt lat="-21.20607" lon="55.30929">
        <ele>352.64041137695</ele>
        <time>2012-11-06T06:41:54Z</time>
      </trkpt>
      <trkpt lat="-21.20607" lon="55.3093">
        <ele>353.05038452148</ele>
        <time>2012-11-06T06:41:55Z</time>
      </trkpt>
      <trkpt lat="-21.20608" lon="55.30932">
        <ele>353.3381652832</ele>
        <time>2012-11-06T06:41:56Z</time>
      </trkpt>
      <trkpt lat="-21.20608" lon="55.30934">
        <ele>353.66525268555</ele>
        <time>2012-11-06T06:41:57Z</time>
      </trkpt>
      <trkpt lat="-21.20609" lon="55.30937">
        <ele>353.84713745117</ele>
        <time>2012-11-06T06:41:59Z</time>
      </trkpt>
      <trkpt lat="-21.20609" lon="55.30939">
        <ele>353.84408569336</ele>
        <time>2012-11-06T06:42:00Z</time>
      </trkpt>
      <trkpt lat="-21.20609" lon="55.30941">
        <ele>352.35009765625</ele>
        <time>2012-11-06T06:42:01Z</time>
      </trkpt>
      <trkpt lat="-21.2061" lon="55.30944">
        <ele>352.28384399414</ele>
        <time>2012-11-06T06:42:03Z</time>
      </trkpt>
      <trkpt lat="-21.20611" lon="55.30948">
        <ele>353.10217285156</ele>
        <time>2012-11-06T06:42:05Z</time>
      </trkpt>
      <trkpt lat="-21.20611" lon="55.30952">
        <ele>354.4248046875</ele>
        <time>2012-11-06T06:42:07Z</time>
      </trkpt>
      <trkpt lat="-21.20612" lon="55.30956">
        <ele>355.78036499023</ele>
        <time>2012-11-06T06:42:09Z</time>
      </trkpt>
      <trkpt lat="-21.20612" lon="55.30957">
        <ele>356.19805908203</ele>
        <time>2012-11-06T06:42:10Z</time>
      </trkpt>
      <trkpt lat="-21.20612" lon="55.30959">
        <ele>356.61700439453</ele>
        <time>2012-11-06T06:42:11Z</time>
      </trkpt>
      <trkpt lat="-21.20613" lon="55.30963">
        <ele>356.79675292969</ele>
        <time>2012-11-06T06:42:13Z</time>
      </trkpt>
      <trkpt lat="-21.20613" lon="55.30965">
        <ele>356.95425415039</ele>
        <time>2012-11-06T06:42:14Z</time>
      </trkpt>
      <trkpt lat="-21.20613" lon="55.30969">
        <ele>357.41586303711</ele>
        <time>2012-11-06T06:42:16Z</time>
      </trkpt>
      <trkpt lat="-21.20614" lon="55.30973">
        <ele>357.89846801758</ele>
        <time>2012-11-06T06:42:18Z</time>
      </trkpt>
      <trkpt lat="-21.20614" lon="55.30975">
        <ele>358.19781494141</ele>
        <time>2012-11-06T06:42:19Z</time>
      </trkpt>
      <trkpt lat="-21.20615" lon="55.30978">
        <ele>358.84750366211</ele>
        <time>2012-11-06T06:42:21Z</time>
      </trkpt>
      <trkpt lat="-21.20615" lon="55.3098">
        <ele>358.95965576172</ele>
        <time>2012-11-06T06:42:22Z</time>
      </trkpt>
      <trkpt lat="-21.20615" lon="55.30982">
        <ele>359.12106323242</ele>
        <time>2012-11-06T06:42:23Z</time>
      </trkpt>
      <trkpt lat="-21.20616" lon="55.30984">
        <ele>359.2265625</ele>
        <time>2012-11-06T06:42:24Z</time>
      </trkpt>
      <trkpt lat="-21.20616" lon="55.30986">
        <ele>359.4143371582</ele>
        <time>2012-11-06T06:42:25Z</time>
      </trkpt>
      <trkpt lat="-21.20617" lon="55.3099">
        <ele>359.94659423828</ele>
        <time>2012-11-06T06:42:27Z</time>
      </trkpt>
      <trkpt lat="-21.20617" lon="55.30992">
        <ele>360.21447753906</ele>
        <time>2012-11-06T06:42:28Z</time>
      </trkpt>
      <trkpt lat="-21.20617" lon="55.30995">
        <ele>360.69833374023</ele>
        <time>2012-11-06T06:42:30Z</time>
      </trkpt>
      <trkpt lat="-21.20618" lon="55.30997">
        <ele>360.87573242188</ele>
        <time>2012-11-06T06:42:31Z</time>
      </trkpt>
      <trkpt lat="-21.20618" lon="55.30999">
        <ele>361.07962036133</ele>
        <time>2012-11-06T06:42:32Z</time>
      </trkpt>
      <trkpt lat="-21.20619" lon="55.31003">
        <ele>361.44281005859</ele>
        <time>2012-11-06T06:42:34Z</time>
      </trkpt>
      <trkpt lat="-21.20619" lon="55.31006">
        <ele>361.72467041016</ele>
        <time>2012-11-06T06:42:36Z</time>
      </trkpt>
      <trkpt lat="-21.20619" lon="55.31008">
        <ele>361.85598754883</ele>
        <time>2012-11-06T06:42:37Z</time>
      </trkpt>
      <trkpt lat="-21.2062" lon="55.3101">
        <ele>362.01693725586</ele>
        <time>2012-11-06T06:42:38Z</time>
      </trkpt>
      <trkpt lat="-21.2062" lon="55.31012">
        <ele>362.16806030273</ele>
        <time>2012-11-06T06:42:39Z</time>
      </trkpt>
      <trkpt lat="-21.20621" lon="55.31016">
        <ele>362.27258300781</ele>
        <time>2012-11-06T06:42:41Z</time>
      </trkpt>
      <trkpt lat="-21.20621" lon="55.3102">
        <ele>362.30319213867</ele>
        <time>2012-11-06T06:42:43Z</time>
      </trkpt>
      <trkpt lat="-21.20621" lon="55.31023">
        <ele>362.3525390625</ele>
        <time>2012-11-06T06:42:44Z</time>
      </trkpt>
      <trkpt lat="-21.20622" lon="55.31024">
        <ele>362.26727294922</ele>
        <time>2012-11-06T06:42:45Z</time>
      </trkpt>
      <trkpt lat="-21.20622" lon="55.31028">
        <ele>362.24682617188</ele>
        <time>2012-11-06T06:42:47Z</time>
      </trkpt>
      <trkpt lat="-21.20623" lon="55.31031">
        <ele>362.08804321289</ele>
        <time>2012-11-06T06:42:48Z</time>
      </trkpt>
      <trkpt lat="-21.20623" lon="55.31034">
        <ele>361.71423339844</ele>
        <time>2012-11-06T06:42:49Z</time>
      </trkpt>
      <trkpt lat="-21.20623" lon="55.31036">
        <ele>361.75833129883</ele>
        <time>2012-11-06T06:42:50Z</time>
      </trkpt>
      <trkpt lat="-21.20624" lon="55.3104">
        <ele>361.92144775391</ele>
        <time>2012-11-06T06:42:52Z</time>
      </trkpt>
      <trkpt lat="-21.20624" lon="55.31044">
        <ele>362.31567382812</ele>
        <time>2012-11-06T06:42:54Z</time>
      </trkpt>
      <trkpt lat="-21.20624" lon="55.31046">
        <ele>362.51696777344</ele>
        <time>2012-11-06T06:42:55Z</time>
      </trkpt>
      <trkpt lat="-21.20623" lon="55.3105">
        <ele>362.70510864258</ele>
        <time>2012-11-06T06:42:57Z</time>
      </trkpt>
      <trkpt lat="-21.20623" lon="55.31055">
        <ele>362.98910522461</ele>
        <time>2012-11-06T06:42:59Z</time>
      </trkpt>
      <trkpt lat="-21.20623" lon="55.31059">
        <ele>364.53680419922</ele>
        <time>2012-11-06T06:43:01Z</time>
      </trkpt>
      <trkpt lat="-21.20622" lon="55.31064">
        <ele>362.80731201172</ele>
        <time>2012-11-06T06:43:03Z</time>
      </trkpt>
      <trkpt lat="-21.20622" lon="55.31067">
        <ele>362.27255249023</ele>
        <time>2012-11-06T06:43:04Z</time>
      </trkpt>
      <trkpt lat="-21.20621" lon="55.31072">
        <ele>361.74331665039</ele>
        <time>2012-11-06T06:43:06Z</time>
      </trkpt>
      <trkpt lat="-21.2062" lon="55.31074">
        <ele>361.71853637695</ele>
        <time>2012-11-06T06:43:07Z</time>
      </trkpt>
      <trkpt lat="-21.2062" lon="55.31076">
        <ele>361.8258972168</ele>
        <time>2012-11-06T06:43:08Z</time>
      </trkpt>
      <trkpt lat="-21.20619" lon="55.31079">
        <ele>362.22845458984</ele>
        <time>2012-11-06T06:43:09Z</time>
      </trkpt>
      <trkpt lat="-21.20618" lon="55.31083">
        <ele>363.49813842773</ele>
        <time>2012-11-06T06:43:11Z</time>
      </trkpt>
      <trkpt lat="-21.20617" lon="55.31085">
        <ele>362.96368408203</ele>
        <time>2012-11-06T06:43:12Z</time>
      </trkpt>
      <trkpt lat="-21.20617" lon="55.31087">
        <ele>363.1106262207</ele>
        <time>2012-11-06T06:43:13Z</time>
      </trkpt>
      <trkpt lat="-21.20616" lon="55.31091">
        <ele>363.68304443359</ele>
        <time>2012-11-06T06:43:15Z</time>
      </trkpt>
      <trkpt lat="-21.20616" lon="55.31096">
        <ele>364.44976806641</ele>
        <time>2012-11-06T06:43:17Z</time>
      </trkpt>
      <trkpt lat="-21.20616" lon="55.31098">
        <ele>363.91763305664</ele>
        <time>2012-11-06T06:43:18Z</time>
      </trkpt>
      <trkpt lat="-21.20616" lon="55.31103">
        <ele>365.35363769531</ele>
        <time>2012-11-06T06:43:20Z</time>
      </trkpt>
      <trkpt lat="-21.20617" lon="55.31107">
        <ele>366.13650512695</ele>
        <time>2012-11-06T06:43:22Z</time>
      </trkpt>
      <trkpt lat="-21.20618" lon="55.31109">
        <ele>365.91152954102</ele>
        <time>2012-11-06T06:43:23Z</time>
      </trkpt>
      <trkpt lat="-21.2062" lon="55.31113">
        <ele>366.57894897461</ele>
        <time>2012-11-06T06:43:25Z</time>
      </trkpt>
      <trkpt lat="-21.20621" lon="55.31114">
        <ele>366.36822509766</ele>
        <time>2012-11-06T06:43:26Z</time>
      </trkpt>
      <trkpt lat="-21.20624" lon="55.31118">
        <ele>366.06021118164</ele>
        <time>2012-11-06T06:43:28Z</time>
      </trkpt>
      <trkpt lat="-21.20625" lon="55.3112">
        <ele>366.28720092773</ele>
        <time>2012-11-06T06:43:29Z</time>
      </trkpt>
      <trkpt lat="-21.20629" lon="55.31123">
        <ele>365.68444824219</ele>
        <time>2012-11-06T06:43:31Z</time>
      </trkpt>
      <trkpt lat="-21.20632" lon="55.31126">
        <ele>365.41317749023</ele>
        <time>2012-11-06T06:43:33Z</time>
      </trkpt>
      <trkpt lat="-21.20634" lon="55.31127">
        <ele>365.39022827148</ele>
        <time>2012-11-06T06:43:34Z</time>
      </trkpt>
      <trkpt lat="-21.20637" lon="55.3113">
        <ele>365.7841796875</ele>
        <time>2012-11-06T06:43:36Z</time>
      </trkpt>
      <trkpt lat="-21.2064" lon="55.31133">
        <ele>366.93829345703</ele>
        <time>2012-11-06T06:43:38Z</time>
      </trkpt>
      <trkpt lat="-21.20643" lon="55.31136">
        <ele>367.13586425781</ele>
        <time>2012-11-06T06:43:40Z</time>
      </trkpt>
      <trkpt lat="-21.20644" lon="55.31137">
        <ele>367.32662963867</ele>
        <time>2012-11-06T06:43:41Z</time>
      </trkpt>
      <trkpt lat="-21.20647" lon="55.3114">
        <ele>368.41317749023</ele>
        <time>2012-11-06T06:43:43Z</time>
      </trkpt>
      <trkpt lat="-21.20649" lon="55.31141">
        <ele>368.89950561523</ele>
        <time>2012-11-06T06:43:44Z</time>
      </trkpt>
      <trkpt lat="-21.20652" lon="55.31144">
        <ele>369.2541809082</ele>
        <time>2012-11-06T06:43:46Z</time>
      </trkpt>
      <trkpt lat="-21.20653" lon="55.31146">
        <ele>369.67431640625</ele>
        <time>2012-11-06T06:43:47Z</time>
      </trkpt>
      <trkpt lat="-21.20657" lon="55.31149">
        <ele>369.50787353516</ele>
        <time>2012-11-06T06:43:49Z</time>
      </trkpt>
      <trkpt lat="-21.20659" lon="55.3115">
        <ele>370.2502746582</ele>
        <time>2012-11-06T06:43:50Z</time>
      </trkpt>
      <trkpt lat="-21.20662" lon="55.31153">
        <ele>370.53701782227</ele>
        <time>2012-11-06T06:43:52Z</time>
      </trkpt>
      <trkpt lat="-21.20666" lon="55.31156">
        <ele>371.06661987305</ele>
        <time>2012-11-06T06:43:54Z</time>
      </trkpt>
      <trkpt lat="-21.20668" lon="55.31158">
        <ele>371.1262512207</ele>
        <time>2012-11-06T06:43:55Z</time>
      </trkpt>
      <trkpt lat="-21.20672" lon="55.3116">
        <ele>371.41125488281</ele>
        <time>2012-11-06T06:43:57Z</time>
      </trkpt>
      <trkpt lat="-21.20674" lon="55.31161">
        <ele>371.86386108398</ele>
        <time>2012-11-06T06:43:58Z</time>
      </trkpt>
      <trkpt lat="-21.20677" lon="55.31163">
        <ele>372.46069335938</ele>
        <time>2012-11-06T06:44:00Z</time>
      </trkpt>
      <trkpt lat="-21.20679" lon="55.31164">
        <ele>373.19836425781</ele>
        <time>2012-11-06T06:44:01Z</time>
      </trkpt>
      <trkpt lat="-21.20681" lon="55.31165">
        <ele>373.17144775391</ele>
        <time>2012-11-06T06:44:02Z</time>
      </trkpt>
      <trkpt lat="-21.20683" lon="55.31167">
        <ele>373.81900024414</ele>
        <time>2012-11-06T06:44:03Z</time>
      </trkpt>
      <trkpt lat="-21.20688" lon="55.31169">
        <ele>373.61907958984</ele>
        <time>2012-11-06T06:44:05Z</time>
      </trkpt>
      <trkpt lat="-21.2069" lon="55.3117">
        <ele>373.38275146484</ele>
        <time>2012-11-06T06:44:06Z</time>
      </trkpt>
      <trkpt lat="-21.20695" lon="55.31171">
        <ele>373.57751464844</ele>
        <time>2012-11-06T06:44:08Z</time>
      </trkpt>
      <trkpt lat="-21.20697" lon="55.31172">
        <ele>373.67730712891</ele>
        <time>2012-11-06T06:44:09Z</time>
      </trkpt>
      <trkpt lat="-21.20701" lon="55.31174">
        <ele>374.15182495117</ele>
        <time>2012-11-06T06:44:11Z</time>
      </trkpt>
      <trkpt lat="-21.20704" lon="55.31175">
        <ele>374.30172729492</ele>
        <time>2012-11-06T06:44:12Z</time>
      </trkpt>
      <trkpt lat="-21.20708" lon="55.31177">
        <ele>374.66278076172</ele>
        <time>2012-11-06T06:44:14Z</time>
      </trkpt>
      <trkpt lat="-21.20712" lon="55.31178">
        <ele>375.11614990234</ele>
        <time>2012-11-06T06:44:16Z</time>
      </trkpt>
      <trkpt lat="-21.20716" lon="55.31181">
        <ele>375.20233154297</ele>
        <time>2012-11-06T06:44:18Z</time>
      </trkpt>
      <trkpt lat="-21.20717" lon="55.31182">
        <ele>375.37197875977</ele>
        <time>2012-11-06T06:44:19Z</time>
      </trkpt>
      <trkpt lat="-21.20721" lon="55.31185">
        <ele>375.71194458008</ele>
        <time>2012-11-06T06:44:21Z</time>
      </trkpt>
      <trkpt lat="-21.20723" lon="55.31186">
        <ele>375.94274902344</ele>
        <time>2012-11-06T06:44:22Z</time>
      </trkpt>
      <trkpt lat="-21.20726" lon="55.31189">
        <ele>376.09115600586</ele>
        <time>2012-11-06T06:44:24Z</time>
      </trkpt>
      <trkpt lat="-21.20728" lon="55.31191">
        <ele>376.08825683594</ele>
        <time>2012-11-06T06:44:25Z</time>
      </trkpt>
      <trkpt lat="-21.20731" lon="55.31194">
        <ele>376.38369750977</ele>
        <time>2012-11-06T06:44:27Z</time>
      </trkpt>
      <trkpt lat="-21.20732" lon="55.31196">
        <ele>376.64901733398</ele>
        <time>2012-11-06T06:44:28Z</time>
      </trkpt>
      <trkpt lat="-21.20735" lon="55.312">
        <ele>377.47741699219</ele>
        <time>2012-11-06T06:44:30Z</time>
      </trkpt>
      <trkpt lat="-21.20736" lon="55.31201">
        <ele>378.03170776367</ele>
        <time>2012-11-06T06:44:31Z</time>
      </trkpt>
      <trkpt lat="-21.20738" lon="55.31205">
        <ele>378.80462646484</ele>
        <time>2012-11-06T06:44:33Z</time>
      </trkpt>
      <trkpt lat="-21.20739" lon="55.31207">
        <ele>379.12585449219</ele>
        <time>2012-11-06T06:44:34Z</time>
      </trkpt>
      <trkpt lat="-21.20742" lon="55.31211">
        <ele>379.60693359375</ele>
        <time>2012-11-06T06:44:36Z</time>
      </trkpt>
      <trkpt lat="-21.20743" lon="55.31213">
        <ele>379.85745239258</ele>
        <time>2012-11-06T06:44:37Z</time>
      </trkpt>
      <trkpt lat="-21.20744" lon="55.31217">
        <ele>380.27597045898</ele>
        <time>2012-11-06T06:44:39Z</time>
      </trkpt>
      <trkpt lat="-21.20745" lon="55.31219">
        <ele>380.34375</ele>
        <time>2012-11-06T06:44:40Z</time>
      </trkpt>
      <trkpt lat="-21.20746" lon="55.31224">
        <ele>380.78939819336</ele>
        <time>2012-11-06T06:44:42Z</time>
      </trkpt>
      <trkpt lat="-21.20747" lon="55.31229">
        <ele>381.25076293945</ele>
        <time>2012-11-06T06:44:44Z</time>
      </trkpt>
      <trkpt lat="-21.20748" lon="55.31232">
        <ele>381.57678222656</ele>
        <time>2012-11-06T06:44:46Z</time>
      </trkpt>
      <trkpt lat="-21.20749" lon="55.31234">
        <ele>381.65933227539</ele>
        <time>2012-11-06T06:44:47Z</time>
      </trkpt>
      <trkpt lat="-21.20751" lon="55.31238">
        <ele>381.78948974609</ele>
        <time>2012-11-06T06:44:49Z</time>
      </trkpt>
      <trkpt lat="-21.20754" lon="55.31242">
        <ele>382.03506469727</ele>
        <time>2012-11-06T06:44:51Z</time>
      </trkpt>
      <trkpt lat="-21.20756" lon="55.31246">
        <ele>381.91329956055</ele>
        <time>2012-11-06T06:44:53Z</time>
      </trkpt>
      <trkpt lat="-21.20759" lon="55.3125">
        <ele>381.45989990234</ele>
        <time>2012-11-06T06:44:55Z</time>
      </trkpt>
      <trkpt lat="-21.20761" lon="55.31252">
        <ele>381.05218505859</ele>
        <time>2012-11-06T06:44:56Z</time>
      </trkpt>
      <trkpt lat="-21.20764" lon="55.31256">
        <ele>381.22787475586</ele>
        <time>2012-11-06T06:44:58Z</time>
      </trkpt>
      <trkpt lat="-21.20768" lon="55.3126">
        <ele>381.22961425781</ele>
        <time>2012-11-06T06:45:00Z</time>
      </trkpt>
      <trkpt lat="-21.20769" lon="55.31262">
        <ele>381.31820678711</ele>
        <time>2012-11-06T06:45:01Z</time>
      </trkpt>
      <trkpt lat="-21.20771" lon="55.31263">
        <ele>381.64151000977</ele>
        <time>2012-11-06T06:45:02Z</time>
      </trkpt>
      <trkpt lat="-21.20774" lon="55.31266">
        <ele>382.10083007812</ele>
        <time>2012-11-06T06:45:04Z</time>
      </trkpt>
      <trkpt lat="-21.20776" lon="55.31268">
        <ele>382.21112060547</ele>
        <time>2012-11-06T06:45:05Z</time>
      </trkpt>
      <trkpt lat="-21.20777" lon="55.3127">
        <ele>382.51937866211</ele>
        <time>2012-11-06T06:45:06Z</time>
      </trkpt>
      <trkpt lat="-21.20779" lon="55.31272">
        <ele>382.61618041992</ele>
        <time>2012-11-06T06:45:07Z</time>
      </trkpt>
      <trkpt lat="-21.20779" lon="55.31276">
        <ele>383.53726196289</ele>
        <time>2012-11-06T06:45:09Z</time>
      </trkpt>
      <trkpt lat="-21.20779" lon="55.31278">
        <ele>384.59234619141</ele>
        <time>2012-11-06T06:45:10Z</time>
      </trkpt>
      <trkpt lat="-21.20776" lon="55.31281">
        <ele>385.07022094727</ele>
        <time>2012-11-06T06:45:12Z</time>
      </trkpt>
      <trkpt lat="-21.20772" lon="55.31282">
        <ele>384.77401733398</ele>
        <time>2012-11-06T06:45:14Z</time>
      </trkpt>
      <trkpt lat="-21.2077" lon="55.31281">
        <ele>384.69589233398</ele>
        <time>2012-11-06T06:45:15Z</time>
      </trkpt>
      <trkpt lat="-21.20766" lon="55.3128">
        <ele>384.90679931641</ele>
        <time>2012-11-06T06:45:17Z</time>
      </trkpt>
      <trkpt lat="-21.20764" lon="55.31279">
        <ele>385.09326171875</ele>
        <time>2012-11-06T06:45:18Z</time>
      </trkpt>
      <trkpt lat="-21.2076" lon="55.31275">
        <ele>385.30682373047</ele>
        <time>2012-11-06T06:45:20Z</time>
      </trkpt>
      <trkpt lat="-21.20758" lon="55.31274">
        <ele>385.39251708984</ele>
        <time>2012-11-06T06:45:21Z</time>
      </trkpt>
      <trkpt lat="-21.20755" lon="55.3127">
        <ele>385.3293762207</ele>
        <time>2012-11-06T06:45:23Z</time>
      </trkpt>
      <trkpt lat="-21.20751" lon="55.31266">
        <ele>385.68359375</ele>
        <time>2012-11-06T06:45:25Z</time>
      </trkpt>
      <trkpt lat="-21.20749" lon="55.31265">
        <ele>385.40603637695</ele>
        <time>2012-11-06T06:45:26Z</time>
      </trkpt>
      <trkpt lat="-21.20745" lon="55.31262">
        <ele>385.58288574219</ele>
        <time>2012-11-06T06:45:28Z</time>
      </trkpt>
      <trkpt lat="-21.20741" lon="55.3126">
        <ele>385.81713867188</ele>
        <time>2012-11-06T06:45:30Z</time>
      </trkpt>
      <trkpt lat="-21.20739" lon="55.31258">
        <ele>385.95703125</ele>
        <time>2012-11-06T06:45:31Z</time>
      </trkpt>
      <trkpt lat="-21.20735" lon="55.31256">
        <ele>386.69500732422</ele>
        <time>2012-11-06T06:45:33Z</time>
      </trkpt>
      <trkpt lat="-21.2073" lon="55.31254">
        <ele>386.91201782227</ele>
        <time>2012-11-06T06:45:35Z</time>
      </trkpt>
      <trkpt lat="-21.20725" lon="55.31251">
        <ele>386.955078125</ele>
        <time>2012-11-06T06:45:37Z</time>
      </trkpt>
      <trkpt lat="-21.20721" lon="55.31249">
        <ele>387.45364379883</ele>
        <time>2012-11-06T06:45:39Z</time>
      </trkpt>
      <trkpt lat="-21.20717" lon="55.31247">
        <ele>387.46124267578</ele>
        <time>2012-11-06T06:45:41Z</time>
      </trkpt>
      <trkpt lat="-21.20714" lon="55.31246">
        <ele>387.36642456055</ele>
        <time>2012-11-06T06:45:42Z</time>
      </trkpt>
      <trkpt lat="-21.20712" lon="55.31245">
        <ele>387.40353393555</ele>
        <time>2012-11-06T06:45:43Z</time>
      </trkpt>
      <trkpt lat="-21.20707" lon="55.31244">
        <ele>387.79125976562</ele>
        <time>2012-11-06T06:45:45Z</time>
      </trkpt>
      <trkpt lat="-21.20705" lon="55.31244">
        <ele>388.19927978516</ele>
        <time>2012-11-06T06:45:46Z</time>
      </trkpt>
      <trkpt lat="-21.207" lon="55.31242">
        <ele>388.90884399414</ele>
        <time>2012-11-06T06:45:48Z</time>
      </trkpt>
      <trkpt lat="-21.20695" lon="55.31242">
        <ele>389.28497314453</ele>
        <time>2012-11-06T06:45:50Z</time>
      </trkpt>
      <trkpt lat="-21.20691" lon="55.31242">
        <ele>389.40667724609</ele>
        <time>2012-11-06T06:45:52Z</time>
      </trkpt>
      <trkpt lat="-21.20686" lon="55.31243">
        <ele>389.5625</ele>
        <time>2012-11-06T06:45:54Z</time>
      </trkpt>
      <trkpt lat="-21.20684" lon="55.31243">
        <ele>389.85635375977</ele>
        <time>2012-11-06T06:45:55Z</time>
      </trkpt>
      <trkpt lat="-21.20682" lon="55.31244">
        <ele>389.99496459961</ele>
        <time>2012-11-06T06:45:56Z</time>
      </trkpt>
      <trkpt lat="-21.20679" lon="55.31244">
        <ele>390.27340698242</ele>
        <time>2012-11-06T06:45:57Z</time>
      </trkpt>
      <trkpt lat="-21.20677" lon="55.31245">
        <ele>390.32440185547</ele>
        <time>2012-11-06T06:45:58Z</time>
      </trkpt>
      <trkpt lat="-21.20673" lon="55.31247">
        <ele>390.98815917969</ele>
        <time>2012-11-06T06:46:00Z</time>
      </trkpt>
      <trkpt lat="-21.20671" lon="55.31247">
        <ele>391.17080688477</ele>
        <time>2012-11-06T06:46:01Z</time>
      </trkpt>
      <trkpt lat="-21.2067" lon="55.31248">
        <ele>391.19107055664</ele>
        <time>2012-11-06T06:46:02Z</time>
      </trkpt>
      <trkpt lat="-21.20666" lon="55.31249">
        <ele>390.12948608398</ele>
        <time>2012-11-06T06:46:04Z</time>
      </trkpt>
      <trkpt lat="-21.20662" lon="55.3125">
        <ele>392.79211425781</ele>
        <time>2012-11-06T06:46:06Z</time>
      </trkpt>
      <trkpt lat="-21.20658" lon="55.31252">
        <ele>392.97906494141</ele>
        <time>2012-11-06T06:46:08Z</time>
      </trkpt>
      <trkpt lat="-21.20657" lon="55.31253">
        <ele>393.14868164062</ele>
        <time>2012-11-06T06:46:09Z</time>
      </trkpt>
      <trkpt lat="-21.20654" lon="55.31256">
        <ele>394.38159179688</ele>
        <time>2012-11-06T06:46:11Z</time>
      </trkpt>
      <trkpt lat="-21.20652" lon="55.31259">
        <ele>394.75964355469</ele>
        <time>2012-11-06T06:46:13Z</time>
      </trkpt>
      <trkpt lat="-21.20653" lon="55.31261">
        <ele>394.90631103516</ele>
        <time>2012-11-06T06:46:14Z</time>
      </trkpt>
      <trkpt lat="-21.20654" lon="55.31264">
        <ele>395.64361572266</ele>
        <time>2012-11-06T06:46:16Z</time>
      </trkpt>
      <trkpt lat="-21.20657" lon="55.31267">
        <ele>395.78073120117</ele>
        <time>2012-11-06T06:46:18Z</time>
      </trkpt>
      <trkpt lat="-21.20659" lon="55.31268">
        <ele>395.93899536133</ele>
        <time>2012-11-06T06:46:19Z</time>
      </trkpt>
      <trkpt lat="-21.20662" lon="55.3127">
        <ele>395.97427368164</ele>
        <time>2012-11-06T06:46:21Z</time>
      </trkpt>
      <trkpt lat="-21.20664" lon="55.31272">
        <ele>395.76513671875</ele>
        <time>2012-11-06T06:46:22Z</time>
      </trkpt>
      <trkpt lat="-21.20666" lon="55.31273">
        <ele>396.26834106445</ele>
        <time>2012-11-06T06:46:23Z</time>
      </trkpt>
      <trkpt lat="-21.20669" lon="55.31275">
        <ele>396.75595092773</ele>
        <time>2012-11-06T06:46:25Z</time>
      </trkpt>
      <trkpt lat="-21.20671" lon="55.31276">
        <ele>396.78042602539</ele>
        <time>2012-11-06T06:46:27Z</time>
      </trkpt>
      <trkpt lat="-21.20671" lon="55.31277">
        <ele>397.19747924805</ele>
        <time>2012-11-06T06:46:28Z</time>
      </trkpt>
      <trkpt lat="-21.20671" lon="55.31277">
        <ele>398.49313354492</ele>
        <time>2012-11-06T06:46:30Z</time>
      </trkpt>
      <trkpt lat="-21.20671" lon="55.3128">
        <ele>398.75262451172</ele>
        <time>2012-11-06T06:46:32Z</time>
      </trkpt>
      <trkpt lat="-21.20671" lon="55.31281">
        <ele>398.9241027832</ele>
        <time>2012-11-06T06:46:33Z</time>
      </trkpt>
      <trkpt lat="-21.2067" lon="55.3128">
        <ele>398.36303710938</ele>
        <time>2012-11-06T06:46:35Z</time>
      </trkpt>
      <trkpt lat="-21.2067" lon="55.3128">
        <ele>397.80172729492</ele>
        <time>2012-11-06T06:46:37Z</time>
      </trkpt>
      <trkpt lat="-21.2067" lon="55.3128">
        <ele>398.0166015625</ele>
        <time>2012-11-06T06:46:39Z</time>
      </trkpt>
      <trkpt lat="-21.2067" lon="55.3128">
        <ele>399.2060546875</ele>
        <time>2012-11-06T06:46:41Z</time>
      </trkpt>
      <trkpt lat="-21.20671" lon="55.3128">
        <ele>398.29571533203</ele>
        <time>2012-11-06T06:46:42Z</time>
      </trkpt>
      <trkpt lat="-21.20673" lon="55.31282">
        <ele>397.30853271484</ele>
        <time>2012-11-06T06:46:44Z</time>
      </trkpt>
      <trkpt lat="-21.20673" lon="55.31284">
        <ele>398.02328491211</ele>
        <time>2012-11-06T06:46:46Z</time>
      </trkpt>
      <trkpt lat="-21.20673" lon="55.31286">
        <ele>397.79086303711</ele>
        <time>2012-11-06T06:46:47Z</time>
      </trkpt>
      <trkpt lat="-21.20673" lon="55.3129">
        <ele>397.68347167969</ele>
        <time>2012-11-06T06:46:49Z</time>
      </trkpt>
      <trkpt lat="-21.20671" lon="55.31292">
        <ele>398.47872924805</ele>
        <time>2012-11-06T06:46:51Z</time>
      </trkpt>
      <trkpt lat="-21.20668" lon="55.31295">
        <ele>399.17840576172</ele>
        <time>2012-11-06T06:46:53Z</time>
      </trkpt>
      <trkpt lat="-21.20665" lon="55.31296">
        <ele>400.01651000977</ele>
        <time>2012-11-06T06:46:55Z</time>
      </trkpt>
      <trkpt lat="-21.20663" lon="55.31297">
        <ele>400.42593383789</ele>
        <time>2012-11-06T06:46:56Z</time>
      </trkpt>
      <trkpt lat="-21.2066" lon="55.31299">
        <ele>401.02252197266</ele>
        <time>2012-11-06T06:46:58Z</time>
      </trkpt>
      <trkpt lat="-21.20657" lon="55.31302">
        <ele>401.50164794922</ele>
        <time>2012-11-06T06:47:00Z</time>
      </trkpt>
      <trkpt lat="-21.20656" lon="55.31303">
        <ele>401.51361083984</ele>
        <time>2012-11-06T06:47:01Z</time>
      </trkpt>
      <trkpt lat="-21.20654" lon="55.31306">
        <ele>402.04449462891</ele>
        <time>2012-11-06T06:47:03Z</time>
      </trkpt>
      <trkpt lat="-21.20653" lon="55.3131">
        <ele>402.16738891602</ele>
        <time>2012-11-06T06:47:05Z</time>
      </trkpt>
      <trkpt lat="-21.20653" lon="55.31311">
        <ele>401.79525756836</ele>
        <time>2012-11-06T06:47:06Z</time>
      </trkpt>
      <trkpt lat="-21.20653" lon="55.31313">
        <ele>402.51742553711</ele>
        <time>2012-11-06T06:47:07Z</time>
      </trkpt>
      <trkpt lat="-21.20654" lon="55.31315">
        <ele>405.28073120117</ele>
        <time>2012-11-06T06:47:08Z</time>
      </trkpt>
      <trkpt lat="-21.20656" lon="55.31318">
        <ele>406.07922363281</ele>
        <time>2012-11-06T06:47:10Z</time>
      </trkpt>
      <trkpt lat="-21.20658" lon="55.3132">
        <ele>405.43182373047</ele>
        <time>2012-11-06T06:47:11Z</time>
      </trkpt>
      <trkpt lat="-21.20659" lon="55.31321">
        <ele>404.89474487305</ele>
        <time>2012-11-06T06:47:12Z</time>
      </trkpt>
      <trkpt lat="-21.20661" lon="55.31323">
        <ele>404.74429321289</ele>
        <time>2012-11-06T06:47:14Z</time>
      </trkpt>
      <trkpt lat="-21.20664" lon="55.31326">
        <ele>405.02554321289</ele>
        <time>2012-11-06T06:47:16Z</time>
      </trkpt>
      <trkpt lat="-21.20666" lon="55.31328">
        <ele>404.93603515625</ele>
        <time>2012-11-06T06:47:18Z</time>
      </trkpt>
      <trkpt lat="-21.20667" lon="55.31329">
        <ele>405.11657714844</ele>
        <time>2012-11-06T06:47:19Z</time>
      </trkpt>
      <trkpt lat="-21.20669" lon="55.31332">
        <ele>405.2653503418</ele>
        <time>2012-11-06T06:47:21Z</time>
      </trkpt>
      <trkpt lat="-21.20672" lon="55.31334">
        <ele>405.248046875</ele>
        <time>2012-11-06T06:47:23Z</time>
      </trkpt>
      <trkpt lat="-21.20675" lon="55.31337">
        <ele>405.2604675293</ele>
        <time>2012-11-06T06:47:25Z</time>
      </trkpt>
      <trkpt lat="-21.20676" lon="55.31339">
        <ele>405.05862426758</ele>
        <time>2012-11-06T06:47:26Z</time>
      </trkpt>
      <trkpt lat="-21.20678" lon="55.31341">
        <ele>405.50350952148</ele>
        <time>2012-11-06T06:47:28Z</time>
      </trkpt>
      <trkpt lat="-21.20681" lon="55.31344">
        <ele>405.52423095703</ele>
        <time>2012-11-06T06:47:30Z</time>
      </trkpt>
      <trkpt lat="-21.20682" lon="55.31346">
        <ele>405.58676147461</ele>
        <time>2012-11-06T06:47:31Z</time>
      </trkpt>
      <trkpt lat="-21.20683" lon="55.31347">
        <ele>405.58135986328</ele>
        <time>2012-11-06T06:47:32Z</time>
      </trkpt>
      <trkpt lat="-21.20686" lon="55.3135">
        <ele>405.89456176758</ele>
        <time>2012-11-06T06:47:34Z</time>
      </trkpt>
      <trkpt lat="-21.20689" lon="55.31352">
        <ele>405.83999633789</ele>
        <time>2012-11-06T06:47:36Z</time>
      </trkpt>
      <trkpt lat="-21.20692" lon="55.31355">
        <ele>405.66293334961</ele>
        <time>2012-11-06T06:47:38Z</time>
      </trkpt>
      <trkpt lat="-21.20695" lon="55.31358">
        <ele>405.83154296875</ele>
        <time>2012-11-06T06:47:40Z</time>
      </trkpt>
      <trkpt lat="-21.20696" lon="55.31359">
        <ele>405.84341430664</ele>
        <time>2012-11-06T06:47:41Z</time>
      </trkpt>
      <trkpt lat="-21.20699" lon="55.31361">
        <ele>406.06900024414</ele>
        <time>2012-11-06T06:47:43Z</time>
      </trkpt>
      <trkpt lat="-21.20703" lon="55.31364">
        <ele>406.17755126953</ele>
        <time>2012-11-06T06:47:45Z</time>
      </trkpt>
      <trkpt lat="-21.20704" lon="55.31365">
        <ele>406.19940185547</ele>
        <time>2012-11-06T06:47:46Z</time>
      </trkpt>
      <trkpt lat="-21.20708" lon="55.31367">
        <ele>406.27099609375</ele>
        <time>2012-11-06T06:47:48Z</time>
      </trkpt>
      <trkpt lat="-21.20711" lon="55.3137">
        <ele>406.40814208984</ele>
        <time>2012-11-06T06:47:50Z</time>
      </trkpt>
      <trkpt lat="-21.20713" lon="55.31371">
        <ele>406.48992919922</ele>
        <time>2012-11-06T06:47:51Z</time>
      </trkpt>
      <trkpt lat="-21.20715" lon="55.31372">
        <ele>406.59585571289</ele>
        <time>2012-11-06T06:47:52Z</time>
      </trkpt>
      <trkpt lat="-21.20717" lon="55.31373">
        <ele>406.69378662109</ele>
        <time>2012-11-06T06:47:53Z</time>
      </trkpt>
      <trkpt lat="-21.20721" lon="55.31376">
        <ele>406.80535888672</ele>
        <time>2012-11-06T06:47:55Z</time>
      </trkpt>
      <trkpt lat="-21.20723" lon="55.31377">
        <ele>406.8049621582</ele>
        <time>2012-11-06T06:47:56Z</time>
      </trkpt>
      <trkpt lat="-21.20727" lon="55.3138">
        <ele>406.90289306641</ele>
        <time>2012-11-06T06:47:58Z</time>
      </trkpt>
      <trkpt lat="-21.20731" lon="55.31382">
        <ele>407.08349609375</ele>
        <time>2012-11-06T06:48:00Z</time>
      </trkpt>
      <trkpt lat="-21.20733" lon="55.31384">
        <ele>407.14965820312</ele>
        <time>2012-11-06T06:48:01Z</time>
      </trkpt>
      <trkpt lat="-21.20737" lon="55.31386">
        <ele>407.39352416992</ele>
        <time>2012-11-06T06:48:03Z</time>
      </trkpt>
      <trkpt lat="-21.2074" lon="55.31388">
        <ele>407.74285888672</ele>
        <time>2012-11-06T06:48:05Z</time>
      </trkpt>
      <trkpt lat="-21.20742" lon="55.3139">
        <ele>408.00155639648</ele>
        <time>2012-11-06T06:48:06Z</time>
      </trkpt>
      <trkpt lat="-21.20746" lon="55.31393">
        <ele>409.30523681641</ele>
        <time>2012-11-06T06:48:08Z</time>
      </trkpt>
      <trkpt lat="-21.2075" lon="55.31395">
        <ele>407.98883056641</ele>
        <time>2012-11-06T06:48:10Z</time>
      </trkpt>
      <trkpt lat="-21.20751" lon="55.31396">
        <ele>408.74041748047</ele>
        <time>2012-11-06T06:48:11Z</time>
      </trkpt>
      <trkpt lat="-21.20753" lon="55.31398">
        <ele>409.7981262207</ele>
        <time>2012-11-06T06:48:12Z</time>
      </trkpt>
      <trkpt lat="-21.20755" lon="55.31399">
        <ele>410.35522460938</ele>
        <time>2012-11-06T06:48:13Z</time>
      </trkpt>
      <trkpt lat="-21.20758" lon="55.31402">
        <ele>410.60931396484</ele>
        <time>2012-11-06T06:48:15Z</time>
      </trkpt>
      <trkpt lat="-21.2076" lon="55.31404">
        <ele>410.62811279297</ele>
        <time>2012-11-06T06:48:16Z</time>
      </trkpt>
      <trkpt lat="-21.20761" lon="55.31405">
        <ele>410.59649658203</ele>
        <time>2012-11-06T06:48:17Z</time>
      </trkpt>
      <trkpt lat="-21.20764" lon="55.31409">
        <ele>411.20254516602</ele>
        <time>2012-11-06T06:48:19Z</time>
      </trkpt>
      <trkpt lat="-21.20767" lon="55.31412">
        <ele>411.03109741211</ele>
        <time>2012-11-06T06:48:21Z</time>
      </trkpt>
      <trkpt lat="-21.20769" lon="55.31414">
        <ele>410.81976318359</ele>
        <time>2012-11-06T06:48:22Z</time>
      </trkpt>
      <trkpt lat="-21.20771" lon="55.31416">
        <ele>410.50997924805</ele>
        <time>2012-11-06T06:48:23Z</time>
      </trkpt>
      <trkpt lat="-21.20772" lon="55.31418">
        <ele>410.40887451172</ele>
        <time>2012-11-06T06:48:24Z</time>
      </trkpt>
      <trkpt lat="-21.20775" lon="55.31421">
        <ele>411.48544311523</ele>
        <time>2012-11-06T06:48:26Z</time>
      </trkpt>
      <trkpt lat="-21.20778" lon="55.31424">
        <ele>411.51705932617</ele>
        <time>2012-11-06T06:48:28Z</time>
      </trkpt>
      <trkpt lat="-21.20781" lon="55.31429">
        <ele>411.38021850586</ele>
        <time>2012-11-06T06:48:30Z</time>
      </trkpt>
      <trkpt lat="-21.20784" lon="55.31432">
        <ele>411.17517089844</ele>
        <time>2012-11-06T06:48:32Z</time>
      </trkpt>
      <trkpt lat="-21.20786" lon="55.31434">
        <ele>411.44360351562</ele>
        <time>2012-11-06T06:48:33Z</time>
      </trkpt>
      <trkpt lat="-21.20789" lon="55.31438">
        <ele>412.88961791992</ele>
        <time>2012-11-06T06:48:35Z</time>
      </trkpt>
      <trkpt lat="-21.20792" lon="55.31441">
        <ele>414.1535949707</ele>
        <time>2012-11-06T06:48:37Z</time>
      </trkpt>
      <trkpt lat="-21.20794" lon="55.31445">
        <ele>414.45721435547</ele>
        <time>2012-11-06T06:48:39Z</time>
      </trkpt>
      <trkpt lat="-21.20796" lon="55.31447">
        <ele>414.44741821289</ele>
        <time>2012-11-06T06:48:40Z</time>
      </trkpt>
      <trkpt lat="-21.20797" lon="55.31449">
        <ele>414.39685058594</ele>
        <time>2012-11-06T06:48:41Z</time>
      </trkpt>
      <trkpt lat="-21.208" lon="55.31453">
        <ele>413.7532043457</ele>
        <time>2012-11-06T06:48:43Z</time>
      </trkpt>
      <trkpt lat="-21.20802" lon="55.31455">
        <ele>413.34915161133</ele>
        <time>2012-11-06T06:48:44Z</time>
      </trkpt>
      <trkpt lat="-21.20805" lon="55.31459">
        <ele>412.28991699219</ele>
        <time>2012-11-06T06:48:46Z</time>
      </trkpt>
      <trkpt lat="-21.20807" lon="55.31462">
        <ele>411.6276550293</ele>
        <time>2012-11-06T06:48:48Z</time>
      </trkpt>
      <trkpt lat="-21.2081" lon="55.31466">
        <ele>412.74609375</ele>
        <time>2012-11-06T06:48:50Z</time>
      </trkpt>
      <trkpt lat="-21.20811" lon="55.31468">
        <ele>412.91134643555</ele>
        <time>2012-11-06T06:48:51Z</time>
      </trkpt>
      <trkpt lat="-21.20814" lon="55.31472">
        <ele>413.20855712891</ele>
        <time>2012-11-06T06:48:53Z</time>
      </trkpt>
      <trkpt lat="-21.20815" lon="55.31474">
        <ele>413.10873413086</ele>
        <time>2012-11-06T06:48:54Z</time>
      </trkpt>
      <trkpt lat="-21.20817" lon="55.31476">
        <ele>412.64855957031</ele>
        <time>2012-11-06T06:48:55Z</time>
      </trkpt>
      <trkpt lat="-21.20819" lon="55.3148">
        <ele>412.15478515625</ele>
        <time>2012-11-06T06:48:57Z</time>
      </trkpt>
      <trkpt lat="-21.20822" lon="55.31485">
        <ele>412.3899230957</ele>
        <time>2012-11-06T06:48:59Z</time>
      </trkpt>
      <trkpt lat="-21.20824" lon="55.31489">
        <ele>412.71444702148</ele>
        <time>2012-11-06T06:49:01Z</time>
      </trkpt>
      <trkpt lat="-21.20826" lon="55.31493">
        <ele>413.19677734375</ele>
        <time>2012-11-06T06:49:03Z</time>
      </trkpt>
      <trkpt lat="-21.20828" lon="55.31497">
        <ele>413.61172485352</ele>
        <time>2012-11-06T06:49:05Z</time>
      </trkpt>
      <trkpt lat="-21.20829" lon="55.31501">
        <ele>413.43206787109</ele>
        <time>2012-11-06T06:49:07Z</time>
      </trkpt>
      <trkpt lat="-21.20832" lon="55.31506">
        <ele>412.87927246094</ele>
        <time>2012-11-06T06:49:09Z</time>
      </trkpt>
      <trkpt lat="-21.20833" lon="55.31511">
        <ele>416.47973632812</ele>
        <time>2012-11-06T06:49:11Z</time>
      </trkpt>
      <trkpt lat="-21.20833" lon="55.31513">
        <ele>416.79730224609</ele>
        <time>2012-11-06T06:49:12Z</time>
      </trkpt>
      <trkpt lat="-21.20834" lon="55.31517">
        <ele>416.8391418457</ele>
        <time>2012-11-06T06:49:14Z</time>
      </trkpt>
      <trkpt lat="-21.20834" lon="55.31519">
        <ele>416.98287963867</ele>
        <time>2012-11-06T06:49:15Z</time>
      </trkpt>
      <trkpt lat="-21.20834" lon="55.31522">
        <ele>417.08056640625</ele>
        <time>2012-11-06T06:49:16Z</time>
      </trkpt>
      <trkpt lat="-21.20834" lon="55.31524">
        <ele>417.20266723633</ele>
        <time>2012-11-06T06:49:17Z</time>
      </trkpt>
      <trkpt lat="-21.20833" lon="55.31529">
        <ele>417.62319946289</ele>
        <time>2012-11-06T06:49:19Z</time>
      </trkpt>
      <trkpt lat="-21.20833" lon="55.31533">
        <ele>417.5888671875</ele>
        <time>2012-11-06T06:49:21Z</time>
      </trkpt>
      <trkpt lat="-21.20832" lon="55.31538">
        <ele>417.34832763672</ele>
        <time>2012-11-06T06:49:23Z</time>
      </trkpt>
      <trkpt lat="-21.2083" lon="55.31542">
        <ele>417.50241088867</ele>
        <time>2012-11-06T06:49:25Z</time>
      </trkpt>
      <trkpt lat="-21.20829" lon="55.31546">
        <ele>417.95236206055</ele>
        <time>2012-11-06T06:49:27Z</time>
      </trkpt>
      <trkpt lat="-21.20828" lon="55.3155">
        <ele>418.76940917969</ele>
        <time>2012-11-06T06:49:29Z</time>
      </trkpt>
      <trkpt lat="-21.20828" lon="55.31553">
        <ele>418.71426391602</ele>
        <time>2012-11-06T06:49:30Z</time>
      </trkpt>
      <trkpt lat="-21.20828" lon="55.31557">
        <ele>418.56900024414</ele>
        <time>2012-11-06T06:49:32Z</time>
      </trkpt>
      <trkpt lat="-21.2083" lon="55.31559">
        <ele>418.54553222656</ele>
        <time>2012-11-06T06:49:33Z</time>
      </trkpt>
      <trkpt lat="-21.20833" lon="55.31561">
        <ele>418.64559936523</ele>
        <time>2012-11-06T06:49:35Z</time>
      </trkpt>
      <trkpt lat="-21.20838" lon="55.31561">
        <ele>418.75250244141</ele>
        <time>2012-11-06T06:49:37Z</time>
      </trkpt>
      <trkpt lat="-21.2084" lon="55.31561">
        <ele>419.18801879883</ele>
        <time>2012-11-06T06:49:38Z</time>
      </trkpt>
      <trkpt lat="-21.20842" lon="55.31561">
        <ele>419.56726074219</ele>
        <time>2012-11-06T06:49:39Z</time>
      </trkpt>
      <trkpt lat="-21.20844" lon="55.3156">
        <ele>419.82382202148</ele>
        <time>2012-11-06T06:49:40Z</time>
      </trkpt>
      <trkpt lat="-21.20846" lon="55.3156">
        <ele>420.22924804688</ele>
        <time>2012-11-06T06:49:41Z</time>
      </trkpt>
      <trkpt lat="-21.20851" lon="55.31559">
        <ele>420.73181152344</ele>
        <time>2012-11-06T06:49:43Z</time>
      </trkpt>
      <trkpt lat="-21.20853" lon="55.31559">
        <ele>420.85388183594</ele>
        <time>2012-11-06T06:49:44Z</time>
      </trkpt>
      <trkpt lat="-21.20857" lon="55.31561">
        <ele>420.90463256836</ele>
        <time>2012-11-06T06:49:46Z</time>
      </trkpt>
      <trkpt lat="-21.20859" lon="55.31563">
        <ele>420.75421142578</ele>
        <time>2012-11-06T06:49:47Z</time>
      </trkpt>
      <trkpt lat="-21.20862" lon="55.31567">
        <ele>421.08795166016</ele>
        <time>2012-11-06T06:49:49Z</time>
      </trkpt>
      <trkpt lat="-21.20863" lon="55.31572">
        <ele>421.34008789062</ele>
        <time>2012-11-06T06:49:51Z</time>
      </trkpt>
      <trkpt lat="-21.20865" lon="55.31577">
        <ele>421.79711914062</ele>
        <time>2012-11-06T06:49:53Z</time>
      </trkpt>
      <trkpt lat="-21.20866" lon="55.31581">
        <ele>422.44943237305</ele>
        <time>2012-11-06T06:49:55Z</time>
      </trkpt>
      <trkpt lat="-21.20868" lon="55.31586">
        <ele>423.21801757812</ele>
        <time>2012-11-06T06:49:57Z</time>
      </trkpt>
      <trkpt lat="-21.20868" lon="55.31589">
        <ele>423.47521972656</ele>
        <time>2012-11-06T06:49:58Z</time>
      </trkpt>
      <trkpt lat="-21.2087" lon="55.31593">
        <ele>423.84240722656</ele>
        <time>2012-11-06T06:50:00Z</time>
      </trkpt>
      <trkpt lat="-21.20872" lon="55.31599">
        <ele>423.94784545898</ele>
        <time>2012-11-06T06:50:02Z</time>
      </trkpt>
      <trkpt lat="-21.20873" lon="55.31601">
        <ele>423.95849609375</ele>
        <time>2012-11-06T06:50:03Z</time>
      </trkpt>
      <trkpt lat="-21.20875" lon="55.31606">
        <ele>424.13031005859</ele>
        <time>2012-11-06T06:50:05Z</time>
      </trkpt>
      <trkpt lat="-21.20875" lon="55.31609">
        <ele>424.21820068359</ele>
        <time>2012-11-06T06:50:06Z</time>
      </trkpt>
      <trkpt lat="-21.20877" lon="55.31614">
        <ele>424.75158691406</ele>
        <time>2012-11-06T06:50:08Z</time>
      </trkpt>
      <trkpt lat="-21.20878" lon="55.31616">
        <ele>423.41311645508</ele>
        <time>2012-11-06T06:50:09Z</time>
      </trkpt>
      <trkpt lat="-21.20879" lon="55.31619">
        <ele>423.41635131836</ele>
        <time>2012-11-06T06:50:10Z</time>
      </trkpt>
      <trkpt lat="-21.2088" lon="55.31622">
        <ele>426.17590332031</ele>
        <time>2012-11-06T06:50:12Z</time>
      </trkpt>
      <trkpt lat="-21.20881" lon="55.31625">
        <ele>426.09741210938</ele>
        <time>2012-11-06T06:50:13Z</time>
      </trkpt>
      <trkpt lat="-21.20883" lon="55.3163">
        <ele>426.32885742188</ele>
        <time>2012-11-06T06:50:15Z</time>
      </trkpt>
      <trkpt lat="-21.20883" lon="55.31632">
        <ele>426.28530883789</ele>
        <time>2012-11-06T06:50:16Z</time>
      </trkpt>
      <trkpt lat="-21.20885" lon="55.31637">
        <ele>426.3332824707</ele>
        <time>2012-11-06T06:50:18Z</time>
      </trkpt>
      <trkpt lat="-21.20886" lon="55.3164">
        <ele>426.26272583008</ele>
        <time>2012-11-06T06:50:19Z</time>
      </trkpt>
      <trkpt lat="-21.20887" lon="55.31642">
        <ele>426.15658569336</ele>
        <time>2012-11-06T06:50:20Z</time>
      </trkpt>
      <trkpt lat="-21.20888" lon="55.31645">
        <ele>426.09228515625</ele>
        <time>2012-11-06T06:50:21Z</time>
      </trkpt>
      <trkpt lat="-21.20889" lon="55.31647">
        <ele>426.38510131836</ele>
        <time>2012-11-06T06:50:22Z</time>
      </trkpt>
      <trkpt lat="-21.20891" lon="55.31652">
        <ele>426.77960205078</ele>
        <time>2012-11-06T06:50:24Z</time>
      </trkpt>
      <trkpt lat="-21.20891" lon="55.31654">
        <ele>426.93176269531</ele>
        <time>2012-11-06T06:50:25Z</time>
      </trkpt>
      <trkpt lat="-21.20893" lon="55.31659">
        <ele>427.18621826172</ele>
        <time>2012-11-06T06:50:27Z</time>
      </trkpt>
      <trkpt lat="-21.20895" lon="55.31664">
        <ele>427.62673950195</ele>
        <time>2012-11-06T06:50:29Z</time>
      </trkpt>
      <trkpt lat="-21.20896" lon="55.31666">
        <ele>427.87487792969</ele>
        <time>2012-11-06T06:50:30Z</time>
      </trkpt>
      <trkpt lat="-21.20897" lon="55.31671">
        <ele>428.02416992188</ele>
        <time>2012-11-06T06:50:32Z</time>
      </trkpt>
      <trkpt lat="-21.20898" lon="55.31674">
        <ele>427.87295532227</ele>
        <time>2012-11-06T06:50:33Z</time>
      </trkpt>
      <trkpt lat="-21.209" lon="55.31679">
        <ele>427.70806884766</ele>
        <time>2012-11-06T06:50:35Z</time>
      </trkpt>
      <trkpt lat="-21.20901" lon="55.31684">
        <ele>427.45550537109</ele>
        <time>2012-11-06T06:50:37Z</time>
      </trkpt>
      <trkpt lat="-21.20902" lon="55.31688">
        <ele>426.33605957031</ele>
        <time>2012-11-06T06:50:39Z</time>
      </trkpt>
      <trkpt lat="-21.20903" lon="55.31691">
        <ele>428.73638916016</ele>
        <time>2012-11-06T06:50:40Z</time>
      </trkpt>
      <trkpt lat="-21.20903" lon="55.31695">
        <ele>431.42999267578</ele>
        <time>2012-11-06T06:50:42Z</time>
      </trkpt>
      <trkpt lat="-21.20904" lon="55.31697">
        <ele>432.13070678711</ele>
        <time>2012-11-06T06:50:43Z</time>
      </trkpt>
      <trkpt lat="-21.20904" lon="55.31701">
        <ele>433.58932495117</ele>
        <time>2012-11-06T06:50:45Z</time>
      </trkpt>
      <trkpt lat="-21.20905" lon="55.31703">
        <ele>433.81387329102</ele>
        <time>2012-11-06T06:50:46Z</time>
      </trkpt>
      <trkpt lat="-21.20906" lon="55.31706">
        <ele>433.47036743164</ele>
        <time>2012-11-06T06:50:47Z</time>
      </trkpt>
      <trkpt lat="-21.20908" lon="55.31711">
        <ele>430.82803344727</ele>
        <time>2012-11-06T06:50:49Z</time>
      </trkpt>
      <trkpt lat="-21.20908" lon="55.31716">
        <ele>431.78881835938</ele>
        <time>2012-11-06T06:50:51Z</time>
      </trkpt>
      <trkpt lat="-21.20908" lon="55.31719">
        <ele>433.09088134766</ele>
        <time>2012-11-06T06:50:52Z</time>
      </trkpt>
      <trkpt lat="-21.20909" lon="55.31723">
        <ele>433.0539855957</ele>
        <time>2012-11-06T06:50:54Z</time>
      </trkpt>
      <trkpt lat="-21.20909" lon="55.31725">
        <ele>434.30630493164</ele>
        <time>2012-11-06T06:50:55Z</time>
      </trkpt>
      <trkpt lat="-21.20909" lon="55.31728">
        <ele>434.17068481445</ele>
        <time>2012-11-06T06:50:56Z</time>
      </trkpt>
      <trkpt lat="-21.2091" lon="55.31731">
        <ele>434.26547241211</ele>
        <time>2012-11-06T06:50:57Z</time>
      </trkpt>
      <trkpt lat="-21.20909" lon="55.31735">
        <ele>434.22213745117</ele>
        <time>2012-11-06T06:50:59Z</time>
      </trkpt>
      <trkpt lat="-21.20908" lon="55.31741">
        <ele>437.17218017578</ele>
        <time>2012-11-06T06:51:01Z</time>
      </trkpt>
      <trkpt lat="-21.20907" lon="55.31747">
        <ele>436.43447875977</ele>
        <time>2012-11-06T06:51:03Z</time>
      </trkpt>
      <trkpt lat="-21.20906" lon="55.31753">
        <ele>433.94219970703</ele>
        <time>2012-11-06T06:51:05Z</time>
      </trkpt>
      <trkpt lat="-21.20906" lon="55.31758">
        <ele>434.42636108398</ele>
        <time>2012-11-06T06:51:07Z</time>
      </trkpt>
      <trkpt lat="-21.20906" lon="55.31763">
        <ele>436.1982421875</ele>
        <time>2012-11-06T06:51:09Z</time>
      </trkpt>
      <trkpt lat="-21.20905" lon="55.31767">
        <ele>435.30850219727</ele>
        <time>2012-11-06T06:51:11Z</time>
      </trkpt>
      <trkpt lat="-21.20904" lon="55.31771">
        <ele>437.33819580078</ele>
        <time>2012-11-06T06:51:13Z</time>
      </trkpt>
      <trkpt lat="-21.20904" lon="55.31775">
        <ele>437.53414916992</ele>
        <time>2012-11-06T06:51:15Z</time>
      </trkpt>
      <trkpt lat="-21.20903" lon="55.31778">
        <ele>437.16375732422</ele>
        <time>2012-11-06T06:51:16Z</time>
      </trkpt>
      <trkpt lat="-21.20903" lon="55.3178">
        <ele>436.36804199219</ele>
        <time>2012-11-06T06:51:17Z</time>
      </trkpt>
      <trkpt lat="-21.20903" lon="55.31784">
        <ele>437.87515258789</ele>
        <time>2012-11-06T06:51:19Z</time>
      </trkpt>
      <trkpt lat="-21.20903" lon="55.31785">
        <ele>434.38705444336</ele>
        <time>2012-11-06T06:51:21Z</time>
      </trkpt>
      <trkpt lat="-21.20904" lon="55.31786">
        <ele>435.12857055664</ele>
        <time>2012-11-06T06:51:22Z</time>
      </trkpt>
      <trkpt lat="-21.20907" lon="55.3179">
        <ele>437.41314697266</ele>
        <time>2012-11-06T06:51:24Z</time>
      </trkpt>
      <trkpt lat="-21.2091" lon="55.31792">
        <ele>437.75051879883</ele>
        <time>2012-11-06T06:51:25Z</time>
      </trkpt>
      <trkpt lat="-21.20912" lon="55.31794">
        <ele>435.193359375</ele>
        <time>2012-11-06T06:51:26Z</time>
      </trkpt>
      <trkpt lat="-21.20915" lon="55.31796">
        <ele>436.34841918945</ele>
        <time>2012-11-06T06:51:28Z</time>
      </trkpt>
      <trkpt lat="-21.20919" lon="55.31798">
        <ele>442.90274047852</ele>
        <time>2012-11-06T06:51:30Z</time>
      </trkpt>
      <trkpt lat="-21.20921" lon="55.31798">
        <ele>443.00067138672</ele>
        <time>2012-11-06T06:51:31Z</time>
      </trkpt>
      <trkpt lat="-21.20923" lon="55.31799">
        <ele>442.92770385742</ele>
        <time>2012-11-06T06:51:32Z</time>
      </trkpt>
      <trkpt lat="-21.20925" lon="55.31799">
        <ele>447.46435546875</ele>
        <time>2012-11-06T06:51:33Z</time>
      </trkpt>
      <trkpt lat="-21.20928" lon="55.31799">
        <ele>450.94348144531</ele>
        <time>2012-11-06T06:51:34Z</time>
      </trkpt>
      <trkpt lat="-21.2093" lon="55.31799">
        <ele>451.14050292969</ele>
        <time>2012-11-06T06:51:35Z</time>
      </trkpt>
      <trkpt lat="-21.20935" lon="55.31801">
        <ele>449.34170532227</ele>
        <time>2012-11-06T06:51:37Z</time>
      </trkpt>
      <trkpt lat="-21.20937" lon="55.31801">
        <ele>447.62002563477</ele>
        <time>2012-11-06T06:51:38Z</time>
      </trkpt>
      <trkpt lat="-21.2094" lon="55.31803">
        <ele>446.11386108398</ele>
        <time>2012-11-06T06:51:39Z</time>
      </trkpt>
      <trkpt lat="-21.20947" lon="55.31805">
        <ele>445.18872070312</ele>
        <time>2012-11-06T06:51:41Z</time>
      </trkpt>
      <trkpt lat="-21.2095" lon="55.31807">
        <ele>444.80209350586</ele>
        <time>2012-11-06T06:51:42Z</time>
      </trkpt>
      <trkpt lat="-21.20954" lon="55.3181">
        <ele>443.12258911133</ele>
        <time>2012-11-06T06:51:44Z</time>
      </trkpt>
      <trkpt lat="-21.20959" lon="55.31813">
        <ele>441.27294921875</ele>
        <time>2012-11-06T06:51:46Z</time>
      </trkpt>
      <trkpt lat="-21.20962" lon="55.31816">
        <ele>443.03015136719</ele>
        <time>2012-11-06T06:51:48Z</time>
      </trkpt>
      <trkpt lat="-21.20964" lon="55.31817">
        <ele>442.17126464844</ele>
        <time>2012-11-06T06:51:49Z</time>
      </trkpt>
      <trkpt lat="-21.20967" lon="55.31819">
        <ele>442.369140625</ele>
        <time>2012-11-06T06:51:51Z</time>
      </trkpt>
      <trkpt lat="-21.2097" lon="55.31821">
        <ele>441.84063720703</ele>
        <time>2012-11-06T06:51:53Z</time>
      </trkpt>
      <trkpt lat="-21.20972" lon="55.31823">
        <ele>443.14794921875</ele>
        <time>2012-11-06T06:51:54Z</time>
      </trkpt>
      <trkpt lat="-21.20974" lon="55.31825">
        <ele>445.64144897461</ele>
        <time>2012-11-06T06:51:55Z</time>
      </trkpt>
      <trkpt lat="-21.20978" lon="55.31829">
        <ele>446.15808105469</ele>
        <time>2012-11-06T06:51:57Z</time>
      </trkpt>
      <trkpt lat="-21.20983" lon="55.31835">
        <ele>444.25552368164</ele>
        <time>2012-11-06T06:51:59Z</time>
      </trkpt>
      <trkpt lat="-21.20986" lon="55.31837">
        <ele>443.83645629883</ele>
        <time>2012-11-06T06:52:00Z</time>
      </trkpt>
      <trkpt lat="-21.2099" lon="55.31841">
        <ele>443.87353515625</ele>
        <time>2012-11-06T06:52:02Z</time>
      </trkpt>
      <trkpt lat="-21.20993" lon="55.31845">
        <ele>444.62228393555</ele>
        <time>2012-11-06T06:52:04Z</time>
      </trkpt>
      <trkpt lat="-21.20995" lon="55.31846">
        <ele>445.41284179688</ele>
        <time>2012-11-06T06:52:05Z</time>
      </trkpt>
      <trkpt lat="-21.20997" lon="55.31848">
        <ele>445.74005126953</ele>
        <time>2012-11-06T06:52:06Z</time>
      </trkpt>
      <trkpt lat="-21.20999" lon="55.31851">
        <ele>446.16741943359</ele>
        <time>2012-11-06T06:52:08Z</time>
      </trkpt>
      <trkpt lat="-21.21002" lon="55.31854">
        <ele>442.28128051758</ele>
        <time>2012-11-06T06:52:10Z</time>
      </trkpt>
      <trkpt lat="-21.21005" lon="55.31856">
        <ele>442.80419921875</ele>
        <time>2012-11-06T06:52:12Z</time>
      </trkpt>
      <trkpt lat="-21.21007" lon="55.31857">
        <ele>446.26095581055</ele>
        <time>2012-11-06T06:52:13Z</time>
      </trkpt>
      <trkpt lat="-21.2101" lon="55.31859">
        <ele>450.40719604492</ele>
        <time>2012-11-06T06:52:14Z</time>
      </trkpt>
      <trkpt lat="-21.21012" lon="55.3186">
        <ele>448.02297973633</ele>
        <time>2012-11-06T06:52:15Z</time>
      </trkpt>
      <trkpt lat="-21.21017" lon="55.31863">
        <ele>448.49142456055</ele>
        <time>2012-11-06T06:52:17Z</time>
      </trkpt>
      <trkpt lat="-21.21019" lon="55.31864">
        <ele>449.12496948242</ele>
        <time>2012-11-06T06:52:18Z</time>
      </trkpt>
      <trkpt lat="-21.21022" lon="55.31865">
        <ele>449.86129760742</ele>
        <time>2012-11-06T06:52:19Z</time>
      </trkpt>
      <trkpt lat="-21.21026" lon="55.31867">
        <ele>450.08721923828</ele>
        <time>2012-11-06T06:52:21Z</time>
      </trkpt>
      <trkpt lat="-21.2103" lon="55.31868">
        <ele>449.35845947266</ele>
        <time>2012-11-06T06:52:23Z</time>
      </trkpt>
      <trkpt lat="-21.21032" lon="55.31869">
        <ele>449.60635375977</ele>
        <time>2012-11-06T06:52:24Z</time>
      </trkpt>
      <trkpt lat="-21.21034" lon="55.3187">
        <ele>449.74752807617</ele>
        <time>2012-11-06T06:52:25Z</time>
      </trkpt>
      <trkpt lat="-21.21038" lon="55.31872">
        <ele>451.50854492188</ele>
        <time>2012-11-06T06:52:27Z</time>
      </trkpt>
      <trkpt lat="-21.21043" lon="55.31876">
        <ele>452.77615356445</ele>
        <time>2012-11-06T06:52:29Z</time>
      </trkpt>
      <trkpt lat="-21.21045" lon="55.31877">
        <ele>452.65966796875</ele>
        <time>2012-11-06T06:52:30Z</time>
      </trkpt>
      <trkpt lat="-21.21049" lon="55.31881">
        <ele>452.26043701172</ele>
        <time>2012-11-06T06:52:32Z</time>
      </trkpt>
      <trkpt lat="-21.2105" lon="55.31883">
        <ele>452.1354675293</ele>
        <time>2012-11-06T06:52:33Z</time>
      </trkpt>
      <trkpt lat="-21.21052" lon="55.31885">
        <ele>452.12390136719</ele>
        <time>2012-11-06T06:52:34Z</time>
      </trkpt>
      <trkpt lat="-21.21055" lon="55.3189">
        <ele>452.41146850586</ele>
        <time>2012-11-06T06:52:36Z</time>
      </trkpt>
      <trkpt lat="-21.21057" lon="55.31893">
        <ele>450.92147827148</ele>
        <time>2012-11-06T06:52:38Z</time>
      </trkpt>
      <trkpt lat="-21.21059" lon="55.31895">
        <ele>452.41986083984</ele>
        <time>2012-11-06T06:52:39Z</time>
      </trkpt>
      <trkpt lat="-21.21062" lon="55.31899">
        <ele>451.68707275391</ele>
        <time>2012-11-06T06:52:41Z</time>
      </trkpt>
      <trkpt lat="-21.21064" lon="55.31902">
        <ele>451.80950927734</ele>
        <time>2012-11-06T06:52:42Z</time>
      </trkpt>
      <trkpt lat="-21.21066" lon="55.31904">
        <ele>452.39465332031</ele>
        <time>2012-11-06T06:52:43Z</time>
      </trkpt>
      <trkpt lat="-21.21067" lon="55.31906">
        <ele>452.2688293457</ele>
        <time>2012-11-06T06:52:45Z</time>
      </trkpt>
      <trkpt lat="-21.21068" lon="55.31907">
        <ele>452.44598388672</ele>
        <time>2012-11-06T06:52:46Z</time>
      </trkpt>
      <trkpt lat="-21.2107" lon="55.31911">
        <ele>451.53302001953</ele>
        <time>2012-11-06T06:52:48Z</time>
      </trkpt>
      <trkpt lat="-21.21071" lon="55.31913">
        <ele>455.50137329102</ele>
        <time>2012-11-06T06:52:49Z</time>
      </trkpt>
      <trkpt lat="-21.21072" lon="55.31918">
        <ele>458.90454101562</ele>
        <time>2012-11-06T06:52:51Z</time>
      </trkpt>
      <trkpt lat="-21.21075" lon="55.31922">
        <ele>458.94866943359</ele>
        <time>2012-11-06T06:52:53Z</time>
      </trkpt>
      <trkpt lat="-21.21076" lon="55.31924">
        <ele>458.81820678711</ele>
        <time>2012-11-06T06:52:54Z</time>
      </trkpt>
      <trkpt lat="-21.21078" lon="55.31928">
        <ele>458.71041870117</ele>
        <time>2012-11-06T06:52:56Z</time>
      </trkpt>
      <trkpt lat="-21.2108" lon="55.3193">
        <ele>458.1491394043</ele>
        <time>2012-11-06T06:52:57Z</time>
      </trkpt>
      <trkpt lat="-21.21081" lon="55.31932">
        <ele>457.44644165039</ele>
        <time>2012-11-06T06:52:58Z</time>
      </trkpt>
      <trkpt lat="-21.21084" lon="55.31936">
        <ele>453.88778686523</ele>
        <time>2012-11-06T06:52:59Z</time>
      </trkpt>
      <trkpt lat="-21.21085" lon="55.31938">
        <ele>454.33355712891</ele>
        <time>2012-11-06T06:53:00Z</time>
      </trkpt>
      <trkpt lat="-21.21086" lon="55.3194">
        <ele>454.91983032227</ele>
        <time>2012-11-06T06:53:01Z</time>
      </trkpt>
      <trkpt lat="-21.21087" lon="55.31942">
        <ele>455.12075805664</ele>
        <time>2012-11-06T06:53:02Z</time>
      </trkpt>
      <trkpt lat="-21.21088" lon="55.31943">
        <ele>457.47778320312</ele>
        <time>2012-11-06T06:53:03Z</time>
      </trkpt>
      <trkpt lat="-21.21089" lon="55.31945">
        <ele>458.05645751953</ele>
        <time>2012-11-06T06:53:04Z</time>
      </trkpt>
      <trkpt lat="-21.2109" lon="55.31946">
        <ele>458.09671020508</ele>
        <time>2012-11-06T06:53:05Z</time>
      </trkpt>
      <trkpt lat="-21.21091" lon="55.31947">
        <ele>455.83709716797</ele>
        <time>2012-11-06T06:53:06Z</time>
      </trkpt>
      <trkpt lat="-21.21092" lon="55.31948">
        <ele>455.271484375</ele>
        <time>2012-11-06T06:53:07Z</time>
      </trkpt>
      <trkpt lat="-21.21094" lon="55.31951">
        <ele>455.72799682617</ele>
        <time>2012-11-06T06:53:09Z</time>
      </trkpt>
      <trkpt lat="-21.21095" lon="55.31952">
        <ele>455.02334594727</ele>
        <time>2012-11-06T06:53:10Z</time>
      </trkpt>
      <trkpt lat="-21.21097" lon="55.31955">
        <ele>454.18927001953</ele>
        <time>2012-11-06T06:53:12Z</time>
      </trkpt>
      <trkpt lat="-21.21098" lon="55.31957">
        <ele>454.85018920898</ele>
        <time>2012-11-06T06:53:14Z</time>
      </trkpt>
      <trkpt lat="-21.211" lon="55.3196">
        <ele>458.47891235352</ele>
        <time>2012-11-06T06:53:16Z</time>
      </trkpt>
      <trkpt lat="-21.21103" lon="55.31963">
        <ele>457.76461791992</ele>
        <time>2012-11-06T06:53:18Z</time>
      </trkpt>
      <trkpt lat="-21.21103" lon="55.31964">
        <ele>457.7737121582</ele>
        <time>2012-11-06T06:53:19Z</time>
      </trkpt>
      <trkpt lat="-21.21105" lon="55.31967">
        <ele>460.18670654297</ele>
        <time>2012-11-06T06:53:21Z</time>
      </trkpt>
      <trkpt lat="-21.21106" lon="55.31968">
        <ele>459.66299438477</ele>
        <time>2012-11-06T06:53:22Z</time>
      </trkpt>
      <trkpt lat="-21.21109" lon="55.31971">
        <ele>462.23532104492</ele>
        <time>2012-11-06T06:53:24Z</time>
      </trkpt>
      <trkpt lat="-21.21112" lon="55.31975">
        <ele>463.216796875</ele>
        <time>2012-11-06T06:53:26Z</time>
      </trkpt>
      <trkpt lat="-21.21114" lon="55.31979">
        <ele>462.76016235352</ele>
        <time>2012-11-06T06:53:28Z</time>
      </trkpt>
      <trkpt lat="-21.21114" lon="55.31982">
        <ele>465.17367553711</ele>
        <time>2012-11-06T06:53:30Z</time>
      </trkpt>
      <trkpt lat="-21.21114" lon="55.31983">
        <ele>466.64083862305</ele>
        <time>2012-11-06T06:53:31Z</time>
      </trkpt>
      <trkpt lat="-21.21116" lon="55.31986">
        <ele>468.18298339844</ele>
        <time>2012-11-06T06:53:33Z</time>
      </trkpt>
      <trkpt lat="-21.21117" lon="55.3199">
        <ele>467.65567016602</ele>
        <time>2012-11-06T06:53:35Z</time>
      </trkpt>
      <trkpt lat="-21.21118" lon="55.31992">
        <ele>467.62445068359</ele>
        <time>2012-11-06T06:53:36Z</time>
      </trkpt>
      <trkpt lat="-21.21118" lon="55.31994">
        <ele>467.21606445312</ele>
        <time>2012-11-06T06:53:37Z</time>
      </trkpt>
      <trkpt lat="-21.2112" lon="55.31998">
        <ele>466.72256469727</ele>
        <time>2012-11-06T06:53:39Z</time>
      </trkpt>
      <trkpt lat="-21.21121" lon="55.32">
        <ele>466.84042358398</ele>
        <time>2012-11-06T06:53:40Z</time>
      </trkpt>
      <trkpt lat="-21.21123" lon="55.32003">
        <ele>466.21197509766</ele>
        <time>2012-11-06T06:53:42Z</time>
      </trkpt>
      <trkpt lat="-21.21123" lon="55.32005">
        <ele>465.65447998047</ele>
        <time>2012-11-06T06:53:43Z</time>
      </trkpt>
      <trkpt lat="-21.21124" lon="55.32007">
        <ele>465.24118041992</ele>
        <time>2012-11-06T06:53:44Z</time>
      </trkpt>
      <trkpt lat="-21.21125" lon="55.3201">
        <ele>465.5751953125</ele>
        <time>2012-11-06T06:53:46Z</time>
      </trkpt>
      <trkpt lat="-21.21126" lon="55.32011">
        <ele>465.74591064453</ele>
        <time>2012-11-06T06:53:47Z</time>
      </trkpt>
      <trkpt lat="-21.21127" lon="55.32014">
        <ele>466.18106079102</ele>
        <time>2012-11-06T06:53:49Z</time>
      </trkpt>
      <trkpt lat="-21.21129" lon="55.32018">
        <ele>464.33331298828</ele>
        <time>2012-11-06T06:53:51Z</time>
      </trkpt>
      <trkpt lat="-21.21129" lon="55.3202">
        <ele>464.63418579102</ele>
        <time>2012-11-06T06:53:52Z</time>
      </trkpt>
      <trkpt lat="-21.2113" lon="55.32024">
        <ele>465.06463623047</ele>
        <time>2012-11-06T06:53:54Z</time>
      </trkpt>
      <trkpt lat="-21.2113" lon="55.32025">
        <ele>465.49725341797</ele>
        <time>2012-11-06T06:53:55Z</time>
      </trkpt>
      <trkpt lat="-21.21132" lon="55.32028">
        <ele>466.40219116211</ele>
        <time>2012-11-06T06:53:57Z</time>
      </trkpt>
      <trkpt lat="-21.21132" lon="55.3203">
        <ele>466.01068115234</ele>
        <time>2012-11-06T06:53:58Z</time>
      </trkpt>
      <trkpt lat="-21.21134" lon="55.32033">
        <ele>466.03381347656</ele>
        <time>2012-11-06T06:54:00Z</time>
      </trkpt>
      <trkpt lat="-21.21134" lon="55.32034">
        <ele>466.08767700195</ele>
        <time>2012-11-06T06:54:01Z</time>
      </trkpt>
      <trkpt lat="-21.21135" lon="55.32036">
        <ele>465.99331665039</ele>
        <time>2012-11-06T06:54:02Z</time>
      </trkpt>
      <trkpt lat="-21.21136" lon="55.32038">
        <ele>465.85263061523</ele>
        <time>2012-11-06T06:54:03Z</time>
      </trkpt>
      <trkpt lat="-21.21137" lon="55.32041">
        <ele>465.99655151367</ele>
        <time>2012-11-06T06:54:05Z</time>
      </trkpt>
      <trkpt lat="-21.21138" lon="55.32044">
        <ele>467.31912231445</ele>
        <time>2012-11-06T06:54:07Z</time>
      </trkpt>
      <trkpt lat="-21.21139" lon="55.32048">
        <ele>467.92218017578</ele>
        <time>2012-11-06T06:54:09Z</time>
      </trkpt>
      <trkpt lat="-21.2114" lon="55.32049">
        <ele>467.61489868164</ele>
        <time>2012-11-06T06:54:10Z</time>
      </trkpt>
      <trkpt lat="-21.21141" lon="55.32053">
        <ele>468.05169677734</ele>
        <time>2012-11-06T06:54:12Z</time>
      </trkpt>
      <trkpt lat="-21.21142" lon="55.32056">
        <ele>469.52447509766</ele>
        <time>2012-11-06T06:54:14Z</time>
      </trkpt>
      <trkpt lat="-21.21142" lon="55.3206">
        <ele>469.2180480957</ele>
        <time>2012-11-06T06:54:16Z</time>
      </trkpt>
      <trkpt lat="-21.21143" lon="55.32064">
        <ele>469.42980957031</ele>
        <time>2012-11-06T06:54:18Z</time>
      </trkpt>
      <trkpt lat="-21.21143" lon="55.32065">
        <ele>469.65121459961</ele>
        <time>2012-11-06T06:54:19Z</time>
      </trkpt>
      <trkpt lat="-21.21144" lon="55.32067">
        <ele>469.36145019531</ele>
        <time>2012-11-06T06:54:20Z</time>
      </trkpt>
      <trkpt lat="-21.21145" lon="55.3207">
        <ele>469.32604980469</ele>
        <time>2012-11-06T06:54:22Z</time>
      </trkpt>
      <trkpt lat="-21.21145" lon="55.32073">
        <ele>471.09658813477</ele>
        <time>2012-11-06T06:54:24Z</time>
      </trkpt>
      <trkpt lat="-21.21145" lon="55.32076">
        <ele>471.83920288086</ele>
        <time>2012-11-06T06:54:26Z</time>
      </trkpt>
      <trkpt lat="-21.21145" lon="55.3208">
        <ele>472.53228759766</ele>
        <time>2012-11-06T06:54:28Z</time>
      </trkpt>
      <trkpt lat="-21.21145" lon="55.32083">
        <ele>472.78723144531</ele>
        <time>2012-11-06T06:54:30Z</time>
      </trkpt>
      <trkpt lat="-21.21145" lon="55.32087">
        <ele>472.95098876953</ele>
        <time>2012-11-06T06:54:32Z</time>
      </trkpt>
      <trkpt lat="-21.21145" lon="55.32088">
        <ele>473.14953613281</ele>
        <time>2012-11-06T06:54:33Z</time>
      </trkpt>
      <trkpt lat="-21.21144" lon="55.3209">
        <ele>473.35501098633</ele>
        <time>2012-11-06T06:54:34Z</time>
      </trkpt>
      <trkpt lat="-21.21144" lon="55.32092">
        <ele>473.54681396484</ele>
        <time>2012-11-06T06:54:35Z</time>
      </trkpt>
      <trkpt lat="-21.21143" lon="55.32095">
        <ele>473.46096801758</ele>
        <time>2012-11-06T06:54:37Z</time>
      </trkpt>
      <trkpt lat="-21.21142" lon="55.32096">
        <ele>473.75402832031</ele>
        <time>2012-11-06T06:54:38Z</time>
      </trkpt>
      <trkpt lat="-21.21139" lon="55.32098">
        <ele>473.38879394531</ele>
        <time>2012-11-06T06:54:40Z</time>
      </trkpt>
      <trkpt lat="-21.21137" lon="55.32101">
        <ele>473.91506958008</ele>
        <time>2012-11-06T06:54:42Z</time>
      </trkpt>
      <trkpt lat="-21.21135" lon="55.32104">
        <ele>474.03247070312</ele>
        <time>2012-11-06T06:54:44Z</time>
      </trkpt>
      <trkpt lat="-21.21133" lon="55.32106">
        <ele>474.17156982422</ele>
        <time>2012-11-06T06:54:46Z</time>
      </trkpt>
      <trkpt lat="-21.21132" lon="55.32107">
        <ele>474.48431396484</ele>
        <time>2012-11-06T06:54:47Z</time>
      </trkpt>
      <trkpt lat="-21.21131" lon="55.32108">
        <ele>474.80364990234</ele>
        <time>2012-11-06T06:54:48Z</time>
      </trkpt>
      <trkpt lat="-21.21129" lon="55.32111">
        <ele>474.4797668457</ele>
        <time>2012-11-06T06:54:50Z</time>
      </trkpt>
      <trkpt lat="-21.21128" lon="55.32111">
        <ele>475.68103027344</ele>
        <time>2012-11-06T06:54:51Z</time>
      </trkpt>
      <trkpt lat="-21.21126" lon="55.32112">
        <ele>475.89144897461</ele>
        <time>2012-11-06T06:54:52Z</time>
      </trkpt>
      <trkpt lat="-21.21124" lon="55.32114">
        <ele>477.5426940918</ele>
        <time>2012-11-06T06:54:54Z</time>
      </trkpt>
      <trkpt lat="-21.21123" lon="55.32115">
        <ele>477.72052001953</ele>
        <time>2012-11-06T06:54:55Z</time>
      </trkpt>
      <trkpt lat="-21.21122" lon="55.32117">
        <ele>477.10067749023</ele>
        <time>2012-11-06T06:54:56Z</time>
      </trkpt>
      <trkpt lat="-21.2112" lon="55.32119">
        <ele>478.1696472168</ele>
        <time>2012-11-06T06:54:58Z</time>
      </trkpt>
      <trkpt lat="-21.21117" lon="55.32121">
        <ele>478.89971923828</ele>
        <time>2012-11-06T06:54:59Z</time>
      </trkpt>
      <trkpt lat="-21.21116" lon="55.32122">
        <ele>479.29486083984</ele>
        <time>2012-11-06T06:55:01Z</time>
      </trkpt>
      <trkpt lat="-21.21115" lon="55.32123">
        <ele>478.9423828125</ele>
        <time>2012-11-06T06:55:02Z</time>
      </trkpt>
      <trkpt lat="-21.21112" lon="55.32125">
        <ele>479.6374206543</ele>
        <time>2012-11-06T06:55:04Z</time>
      </trkpt>
      <trkpt lat="-21.2111" lon="55.32127">
        <ele>480.40258789062</ele>
        <time>2012-11-06T06:55:06Z</time>
      </trkpt>
      <trkpt lat="-21.21106" lon="55.32129">
        <ele>481.04302978516</ele>
        <time>2012-11-06T06:55:08Z</time>
      </trkpt>
      <trkpt lat="-21.21104" lon="55.32131">
        <ele>481.1828918457</ele>
        <time>2012-11-06T06:55:10Z</time>
      </trkpt>
      <trkpt lat="-21.21101" lon="55.32132">
        <ele>481.07034301758</ele>
        <time>2012-11-06T06:55:12Z</time>
      </trkpt>
      <trkpt lat="-21.21099" lon="55.32133">
        <ele>481.40826416016</ele>
        <time>2012-11-06T06:55:13Z</time>
      </trkpt>
      <trkpt lat="-21.21098" lon="55.32134">
        <ele>479.95748901367</ele>
        <time>2012-11-06T06:55:14Z</time>
      </trkpt>
      <trkpt lat="-21.21095" lon="55.32135">
        <ele>481.47653198242</ele>
        <time>2012-11-06T06:55:16Z</time>
      </trkpt>
      <trkpt lat="-21.21094" lon="55.32136">
        <ele>482.18698120117</ele>
        <time>2012-11-06T06:55:17Z</time>
      </trkpt>
      <trkpt lat="-21.21091" lon="55.32138">
        <ele>483.39108276367</ele>
        <time>2012-11-06T06:55:19Z</time>
      </trkpt>
      <trkpt lat="-21.21089" lon="55.32139">
        <ele>483.99371337891</ele>
        <time>2012-11-06T06:55:20Z</time>
      </trkpt>
      <trkpt lat="-21.21088" lon="55.32139">
        <ele>484.32318115234</ele>
        <time>2012-11-06T06:55:21Z</time>
      </trkpt>
      <trkpt lat="-21.21087" lon="55.3214">
        <ele>484.45471191406</ele>
        <time>2012-11-06T06:55:22Z</time>
      </trkpt>
      <trkpt lat="-21.21084" lon="55.32142">
        <ele>484.80322265625</ele>
        <time>2012-11-06T06:55:24Z</time>
      </trkpt>
      <trkpt lat="-21.21082" lon="55.32144">
        <ele>484.88214111328</ele>
        <time>2012-11-06T06:55:26Z</time>
      </trkpt>
      <trkpt lat="-21.21081" lon="55.32145">
        <ele>484.50430297852</ele>
        <time>2012-11-06T06:55:27Z</time>
      </trkpt>
      <trkpt lat="-21.21079" lon="55.32147">
        <ele>484.27200317383</ele>
        <time>2012-11-06T06:55:29Z</time>
      </trkpt>
      <trkpt lat="-21.21077" lon="55.32148">
        <ele>485.06100463867</ele>
        <time>2012-11-06T06:55:30Z</time>
      </trkpt>
      <trkpt lat="-21.21077" lon="55.32149">
        <ele>485.86068725586</ele>
        <time>2012-11-06T06:55:31Z</time>
      </trkpt>
      <trkpt lat="-21.21075" lon="55.32151">
        <ele>485.56628417969</ele>
        <time>2012-11-06T06:55:33Z</time>
      </trkpt>
      <trkpt lat="-21.21074" lon="55.32152">
        <ele>485.77325439453</ele>
        <time>2012-11-06T06:55:34Z</time>
      </trkpt>
      <trkpt lat="-21.21073" lon="55.32154">
        <ele>485.52484130859</ele>
        <time>2012-11-06T06:55:35Z</time>
      </trkpt>
      <trkpt lat="-21.21072" lon="55.32157">
        <ele>484.11337280273</ele>
        <time>2012-11-06T06:55:37Z</time>
      </trkpt>
      <trkpt lat="-21.21071" lon="55.32159">
        <ele>481.39309692383</ele>
        <time>2012-11-06T06:55:38Z</time>
      </trkpt>
      <trkpt lat="-21.21068" lon="55.32162">
        <ele>484.1086730957</ele>
        <time>2012-11-06T06:55:40Z</time>
      </trkpt>
      <trkpt lat="-21.21067" lon="55.32165">
        <ele>484.66729736328</ele>
        <time>2012-11-06T06:55:42Z</time>
      </trkpt>
      <trkpt lat="-21.21066" lon="55.32167">
        <ele>484.64758300781</ele>
        <time>2012-11-06T06:55:43Z</time>
      </trkpt>
      <trkpt lat="-21.21065" lon="55.32169">
        <ele>484.72903442383</ele>
        <time>2012-11-06T06:55:44Z</time>
      </trkpt>
      <trkpt lat="-21.21063" lon="55.32173">
        <ele>484.60980224609</ele>
        <time>2012-11-06T06:55:46Z</time>
      </trkpt>
      <trkpt lat="-21.21063" lon="55.32175">
        <ele>484.78567504883</ele>
        <time>2012-11-06T06:55:47Z</time>
      </trkpt>
      <trkpt lat="-21.21062" lon="55.32176">
        <ele>484.89392089844</ele>
        <time>2012-11-06T06:55:48Z</time>
      </trkpt>
      <trkpt lat="-21.21062" lon="55.32178">
        <ele>484.84674072266</ele>
        <time>2012-11-06T06:55:49Z</time>
      </trkpt>
      <trkpt lat="-21.21061" lon="55.32181">
        <ele>485.10012817383</ele>
        <time>2012-11-06T06:55:51Z</time>
      </trkpt>
      <trkpt lat="-21.21061" lon="55.32183">
        <ele>485.92877197266</ele>
        <time>2012-11-06T06:55:52Z</time>
      </trkpt>
      <trkpt lat="-21.21061" lon="55.32187">
        <ele>487.35986328125</ele>
        <time>2012-11-06T06:55:54Z</time>
      </trkpt>
      <trkpt lat="-21.21061" lon="55.3219">
        <ele>487.20733642578</ele>
        <time>2012-11-06T06:55:56Z</time>
      </trkpt>
      <trkpt lat="-21.21063" lon="55.32194">
        <ele>487.25216674805</ele>
        <time>2012-11-06T06:55:58Z</time>
      </trkpt>
      <trkpt lat="-21.21065" lon="55.32195">
        <ele>487.23593139649</ele>
        <time>2012-11-06T06:55:59Z</time>
      </trkpt>
      <trkpt lat="-21.21069" lon="55.32196">
        <ele>487.48110961914</ele>
        <time>2012-11-06T06:56:01Z</time>
      </trkpt>
      <trkpt lat="-21.21073" lon="55.32195">
        <ele>487.9150390625</ele>
        <time>2012-11-06T06:56:03Z</time>
      </trkpt>
      <trkpt lat="-21.21075" lon="55.32192">
        <ele>489.1735534668</ele>
        <time>2012-11-06T06:56:05Z</time>
      </trkpt>
      <trkpt lat="-21.21078" lon="55.3219">
        <ele>489.86392211914</ele>
        <time>2012-11-06T06:56:07Z</time>
      </trkpt>
      <trkpt lat="-21.21079" lon="55.32189">
        <ele>489.93865966797</ele>
        <time>2012-11-06T06:56:08Z</time>
      </trkpt>
      <trkpt lat="-21.21081" lon="55.32187">
        <ele>489.11022949219</ele>
        <time>2012-11-06T06:56:09Z</time>
      </trkpt>
      <trkpt lat="-21.21085" lon="55.32185">
        <ele>489.17965698242</ele>
        <time>2012-11-06T06:56:11Z</time>
      </trkpt>
      <trkpt lat="-21.21087" lon="55.32184">
        <ele>489.86938476562</ele>
        <time>2012-11-06T06:56:12Z</time>
      </trkpt>
      <trkpt lat="-21.2109" lon="55.32183">
        <ele>490.77734375</ele>
        <time>2012-11-06T06:56:14Z</time>
      </trkpt>
      <trkpt lat="-21.21094" lon="55.32183">
        <ele>493.14959716797</ele>
        <time>2012-11-06T06:56:16Z</time>
      </trkpt>
      <trkpt lat="-21.21099" lon="55.32183">
        <ele>490.2848815918</ele>
        <time>2012-11-06T06:56:18Z</time>
      </trkpt>
      <trkpt lat="-21.21103" lon="55.32184">
        <ele>489.57702636719</ele>
        <time>2012-11-06T06:56:20Z</time>
      </trkpt>
      <trkpt lat="-21.21107" lon="55.32186">
        <ele>490.21942138672</ele>
        <time>2012-11-06T06:56:22Z</time>
      </trkpt>
      <trkpt lat="-21.2111" lon="55.32189">
        <ele>490.95989990234</ele>
        <time>2012-11-06T06:56:24Z</time>
      </trkpt>
      <trkpt lat="-21.21111" lon="55.32191">
        <ele>491.13613891602</ele>
        <time>2012-11-06T06:56:25Z</time>
      </trkpt>
      <trkpt lat="-21.21114" lon="55.32194">
        <ele>491.38757324219</ele>
        <time>2012-11-06T06:56:27Z</time>
      </trkpt>
      <trkpt lat="-21.21115" lon="55.32196">
        <ele>492.19281005859</ele>
        <time>2012-11-06T06:56:28Z</time>
      </trkpt>
      <trkpt lat="-21.21117" lon="55.322">
        <ele>492.51235961914</ele>
        <time>2012-11-06T06:56:30Z</time>
      </trkpt>
      <trkpt lat="-21.21118" lon="55.32201">
        <ele>493.33047485352</ele>
        <time>2012-11-06T06:56:31Z</time>
      </trkpt>
      <trkpt lat="-21.21119" lon="55.32203">
        <ele>493.01593017578</ele>
        <time>2012-11-06T06:56:32Z</time>
      </trkpt>
      <trkpt lat="-21.2112" lon="55.32205">
        <ele>492.4416809082</ele>
        <time>2012-11-06T06:56:33Z</time>
      </trkpt>
      <trkpt lat="-21.2112" lon="55.32206">
        <ele>492.59963989258</ele>
        <time>2012-11-06T06:56:34Z</time>
      </trkpt>
      <trkpt lat="-21.21121" lon="55.32208">
        <ele>493.48077392578</ele>
        <time>2012-11-06T06:56:35Z</time>
      </trkpt>
      <trkpt lat="-21.21123" lon="55.32213">
        <ele>493.06497192383</ele>
        <time>2012-11-06T06:56:37Z</time>
      </trkpt>
      <trkpt lat="-21.21124" lon="55.32215">
        <ele>493.12588500977</ele>
        <time>2012-11-06T06:56:38Z</time>
      </trkpt>
      <trkpt lat="-21.21126" lon="55.3222">
        <ele>492.38223266602</ele>
        <time>2012-11-06T06:56:40Z</time>
      </trkpt>
      <trkpt lat="-21.21129" lon="55.32225">
        <ele>492.68698120117</ele>
        <time>2012-11-06T06:56:42Z</time>
      </trkpt>
      <trkpt lat="-21.21131" lon="55.32229">
        <ele>493.17105102539</ele>
        <time>2012-11-06T06:56:44Z</time>
      </trkpt>
      <trkpt lat="-21.21133" lon="55.32233">
        <ele>493.89663696289</ele>
        <time>2012-11-06T06:56:46Z</time>
      </trkpt>
      <trkpt lat="-21.21136" lon="55.32237">
        <ele>494.4631652832</ele>
        <time>2012-11-06T06:56:48Z</time>
      </trkpt>
      <trkpt lat="-21.21137" lon="55.32239">
        <ele>494.80096435547</ele>
        <time>2012-11-06T06:56:49Z</time>
      </trkpt>
      <trkpt lat="-21.2114" lon="55.32243">
        <ele>494.51000976562</ele>
        <time>2012-11-06T06:56:51Z</time>
      </trkpt>
      <trkpt lat="-21.21141" lon="55.32245">
        <ele>494.02502441406</ele>
        <time>2012-11-06T06:56:52Z</time>
      </trkpt>
      <trkpt lat="-21.21143" lon="55.32247">
        <ele>494.1291809082</ele>
        <time>2012-11-06T06:56:53Z</time>
      </trkpt>
      <trkpt lat="-21.21146" lon="55.32252">
        <ele>495.35925292969</ele>
        <time>2012-11-06T06:56:55Z</time>
      </trkpt>
      <trkpt lat="-21.21148" lon="55.32254">
        <ele>496.8703918457</ele>
        <time>2012-11-06T06:56:56Z</time>
      </trkpt>
      <trkpt lat="-21.2115" lon="55.32259">
        <ele>497.2395324707</ele>
        <time>2012-11-06T06:56:58Z</time>
      </trkpt>
      <trkpt lat="-21.21152" lon="55.32262">
        <ele>496.71527099609</ele>
        <time>2012-11-06T06:56:59Z</time>
      </trkpt>
      <trkpt lat="-21.21154" lon="55.32267">
        <ele>496.8720703125</ele>
        <time>2012-11-06T06:57:01Z</time>
      </trkpt>
      <trkpt lat="-21.21156" lon="55.32273">
        <ele>496.79806518555</ele>
        <time>2012-11-06T06:57:03Z</time>
      </trkpt>
      <trkpt lat="-21.21156" lon="55.32278">
        <ele>497.61932373047</ele>
        <time>2012-11-06T06:57:05Z</time>
      </trkpt>
      <trkpt lat="-21.21155" lon="55.32284">
        <ele>497.70196533203</ele>
        <time>2012-11-06T06:57:07Z</time>
      </trkpt>
      <trkpt lat="-21.21155" lon="55.32291">
        <ele>496.69668579102</ele>
        <time>2012-11-06T06:57:09Z</time>
      </trkpt>
      <trkpt lat="-21.21154" lon="55.32294">
        <ele>496.44589233398</ele>
        <time>2012-11-06T06:57:10Z</time>
      </trkpt>
      <trkpt lat="-21.21152" lon="55.323">
        <ele>497.3815612793</ele>
        <time>2012-11-06T06:57:12Z</time>
      </trkpt>
      <trkpt lat="-21.21152" lon="55.32303">
        <ele>497.93994140625</ele>
        <time>2012-11-06T06:57:13Z</time>
      </trkpt>
      <trkpt lat="-21.21153" lon="55.32308">
        <ele>497.33752441406</ele>
        <time>2012-11-06T06:57:15Z</time>
      </trkpt>
      <trkpt lat="-21.21157" lon="55.32312">
        <ele>494.64010620117</ele>
        <time>2012-11-06T06:57:16Z</time>
      </trkpt>
      <trkpt lat="-21.21159" lon="55.32314">
        <ele>496.39199829102</ele>
        <time>2012-11-06T06:57:18Z</time>
      </trkpt>
      <trkpt lat="-21.21161" lon="55.32315">
        <ele>497.24478149414</ele>
        <time>2012-11-06T06:57:19Z</time>
      </trkpt>
      <trkpt lat="-21.21167" lon="55.32316">
        <ele>497.75234985352</ele>
        <time>2012-11-06T06:57:21Z</time>
      </trkpt>
      <trkpt lat="-21.21171" lon="55.32319">
        <ele>498.06091308594</ele>
        <time>2012-11-06T06:57:23Z</time>
      </trkpt>
      <trkpt lat="-21.21171" lon="55.32323">
        <ele>498.96948242188</ele>
        <time>2012-11-06T06:57:25Z</time>
      </trkpt>
      <trkpt lat="-21.21171" lon="55.32324">
        <ele>499.26629638672</ele>
        <time>2012-11-06T06:57:26Z</time>
      </trkpt>
      <trkpt lat="-21.21171" lon="55.32325">
        <ele>500.08953857422</ele>
        <time>2012-11-06T06:57:27Z</time>
      </trkpt>
      <trkpt lat="-21.2117" lon="55.32325">
        <ele>501.9560546875</ele>
        <time>2012-11-06T06:57:29Z</time>
      </trkpt>
      <trkpt lat="-21.21169" lon="55.32326">
        <ele>502.4072265625</ele>
        <time>2012-11-06T06:57:30Z</time>
      </trkpt>
      <trkpt lat="-21.21165" lon="55.32327">
        <ele>503.98858642578</ele>
        <time>2012-11-06T06:57:32Z</time>
      </trkpt>
      <trkpt lat="-21.21162" lon="55.32328">
        <ele>504.36099243164</ele>
        <time>2012-11-06T06:57:33Z</time>
      </trkpt>
      <trkpt lat="-21.21158" lon="55.32329">
        <ele>505.41543579102</ele>
        <time>2012-11-06T06:57:35Z</time>
      </trkpt>
      <trkpt lat="-21.21156" lon="55.3233">
        <ele>505.36651611328</ele>
        <time>2012-11-06T06:57:36Z</time>
      </trkpt>
      <trkpt lat="-21.21151" lon="55.32332">
        <ele>504.39367675781</ele>
        <time>2012-11-06T06:57:38Z</time>
      </trkpt>
      <trkpt lat="-21.21149" lon="55.32333">
        <ele>503.40640258789</ele>
        <time>2012-11-06T06:57:39Z</time>
      </trkpt>
      <trkpt lat="-21.21145" lon="55.32335">
        <ele>504.26742553711</ele>
        <time>2012-11-06T06:57:41Z</time>
      </trkpt>
      <trkpt lat="-21.2114" lon="55.32336">
        <ele>504.16207885742</ele>
        <time>2012-11-06T06:57:43Z</time>
      </trkpt>
      <trkpt lat="-21.21136" lon="55.32337">
        <ele>503.38833618164</ele>
        <time>2012-11-06T06:57:45Z</time>
      </trkpt>
      <trkpt lat="-21.21134" lon="55.32337">
        <ele>503.47286987305</ele>
        <time>2012-11-06T06:57:46Z</time>
      </trkpt>
      <trkpt lat="-21.21128" lon="55.32336">
        <ele>502.025390625</ele>
        <time>2012-11-06T06:57:48Z</time>
      </trkpt>
      <trkpt lat="-21.21126" lon="55.32335">
        <ele>501.06112670898</ele>
        <time>2012-11-06T06:57:49Z</time>
      </trkpt>
      <trkpt lat="-21.21123" lon="55.32332">
        <ele>502.02554321289</ele>
        <time>2012-11-06T06:57:51Z</time>
      </trkpt>
      <trkpt lat="-21.21121" lon="55.32331">
        <ele>502.85772705078</ele>
        <time>2012-11-06T06:57:52Z</time>
      </trkpt>
      <trkpt lat="-21.2112" lon="55.32328">
        <ele>503.19299316406</ele>
        <time>2012-11-06T06:57:53Z</time>
      </trkpt>
      <trkpt lat="-21.21119" lon="55.32322">
        <ele>504.40237426758</ele>
        <time>2012-11-06T06:57:55Z</time>
      </trkpt>
      <trkpt lat="-21.21118" lon="55.32317">
        <ele>505.58123779297</ele>
        <time>2012-11-06T06:57:57Z</time>
      </trkpt>
      <trkpt lat="-21.21118" lon="55.32314">
        <ele>506.36807250977</ele>
        <time>2012-11-06T06:57:58Z</time>
      </trkpt>
      <trkpt lat="-21.21118" lon="55.32309">
        <ele>506.85855102539</ele>
        <time>2012-11-06T06:58:00Z</time>
      </trkpt>
      <trkpt lat="-21.21118" lon="55.32307">
        <ele>507.02291870117</ele>
        <time>2012-11-06T06:58:01Z</time>
      </trkpt>
      <trkpt lat="-21.21117" lon="55.32304">
        <ele>507.13720703125</ele>
        <time>2012-11-06T06:58:02Z</time>
      </trkpt>
      <trkpt lat="-21.21117" lon="55.32302">
        <ele>507.06988525391</ele>
        <time>2012-11-06T06:58:03Z</time>
      </trkpt>
      <trkpt lat="-21.21116" lon="55.32298">
        <ele>507.55459594727</ele>
        <time>2012-11-06T06:58:05Z</time>
      </trkpt>
      <trkpt lat="-21.21114" lon="55.32293">
        <ele>507.58059692383</ele>
        <time>2012-11-06T06:58:07Z</time>
      </trkpt>
      <trkpt lat="-21.21111" lon="55.32289">
        <ele>507.00915527344</ele>
        <time>2012-11-06T06:58:09Z</time>
      </trkpt>
      <trkpt lat="-21.21109" lon="55.32287">
        <ele>506.638671875</ele>
        <time>2012-11-06T06:58:10Z</time>
      </trkpt>
      <trkpt lat="-21.21108" lon="55.32285">
        <ele>506.48101806641</ele>
        <time>2012-11-06T06:58:11Z</time>
      </trkpt>
      <trkpt lat="-21.21106" lon="55.32283">
        <ele>506.37854003906</ele>
        <time>2012-11-06T06:58:12Z</time>
      </trkpt>
      <trkpt lat="-21.21103" lon="55.32279">
        <ele>506.33731079102</ele>
        <time>2012-11-06T06:58:14Z</time>
      </trkpt>
      <trkpt lat="-21.211" lon="55.32275">
        <ele>506.19891357422</ele>
        <time>2012-11-06T06:58:16Z</time>
      </trkpt>
      <trkpt lat="-21.21099" lon="55.32273">
        <ele>505.76165771484</ele>
        <time>2012-11-06T06:58:17Z</time>
      </trkpt>
      <trkpt lat="-21.21096" lon="55.32269">
        <ele>510.04458618164</ele>
        <time>2012-11-06T06:58:19Z</time>
      </trkpt>
      <trkpt lat="-21.21093" lon="55.32266">
        <ele>510.63729858398</ele>
        <time>2012-11-06T06:58:21Z</time>
      </trkpt>
      <trkpt lat="-21.21091" lon="55.32264">
        <ele>509.97662353516</ele>
        <time>2012-11-06T06:58:22Z</time>
      </trkpt>
      <trkpt lat="-21.21087" lon="55.32259">
        <ele>509.73706054688</ele>
        <time>2012-11-06T06:58:24Z</time>
      </trkpt>
      <trkpt lat="-21.21082" lon="55.32256">
        <ele>509.37969970703</ele>
        <time>2012-11-06T06:58:26Z</time>
      </trkpt>
      <trkpt lat="-21.21079" lon="55.32254">
        <ele>509.30014038086</ele>
        <time>2012-11-06T06:58:27Z</time>
      </trkpt>
      <trkpt lat="-21.21074" lon="55.32253">
        <ele>509.54888916016</ele>
        <time>2012-11-06T06:58:29Z</time>
      </trkpt>
      <trkpt lat="-21.21071" lon="55.32253">
        <ele>509.33245849609</ele>
        <time>2012-11-06T06:58:30Z</time>
      </trkpt>
      <trkpt lat="-21.21066" lon="55.32254">
        <ele>509.30291748047</ele>
        <time>2012-11-06T06:58:32Z</time>
      </trkpt>
      <trkpt lat="-21.21061" lon="55.32255">
        <ele>509.78894042969</ele>
        <time>2012-11-06T06:58:34Z</time>
      </trkpt>
      <trkpt lat="-21.21056" lon="55.32257">
        <ele>509.42645263672</ele>
        <time>2012-11-06T06:58:36Z</time>
      </trkpt>
      <trkpt lat="-21.21054" lon="55.32257">
        <ele>509.9580078125</ele>
        <time>2012-11-06T06:58:37Z</time>
      </trkpt>
      <trkpt lat="-21.21051" lon="55.32257">
        <ele>510.46224975586</ele>
        <time>2012-11-06T06:58:38Z</time>
      </trkpt>
      <trkpt lat="-21.21045" lon="55.3226">
        <ele>510.076171875</ele>
        <time>2012-11-06T06:58:40Z</time>
      </trkpt>
      <trkpt lat="-21.21041" lon="55.32262">
        <ele>509.68566894531</ele>
        <time>2012-11-06T06:58:42Z</time>
      </trkpt>
      <trkpt lat="-21.21036" lon="55.32264">
        <ele>509.90823364258</ele>
        <time>2012-11-06T06:58:44Z</time>
      </trkpt>
      <trkpt lat="-21.21032" lon="55.32266">
        <ele>510.13363647461</ele>
        <time>2012-11-06T06:58:46Z</time>
      </trkpt>
      <trkpt lat="-21.2103" lon="55.32268">
        <ele>510.22448730469</ele>
        <time>2012-11-06T06:58:47Z</time>
      </trkpt>
      <trkpt lat="-21.21029" lon="55.32271">
        <ele>510.91815185547</ele>
        <time>2012-11-06T06:58:49Z</time>
      </trkpt>
      <trkpt lat="-21.21029" lon="55.32273">
        <ele>510.7223815918</ele>
        <time>2012-11-06T06:58:50Z</time>
      </trkpt>
      <trkpt lat="-21.21031" lon="55.32273">
        <ele>510.50485229492</ele>
        <time>2012-11-06T06:58:52Z</time>
      </trkpt>
      <trkpt lat="-21.21035" lon="55.32271">
        <ele>510.71899414062</ele>
        <time>2012-11-06T06:58:54Z</time>
      </trkpt>
      <trkpt lat="-21.21037" lon="55.3227">
        <ele>511.34045410156</ele>
        <time>2012-11-06T06:58:55Z</time>
      </trkpt>
      <trkpt lat="-21.21042" lon="55.32268">
        <ele>511.99859619141</ele>
        <time>2012-11-06T06:58:57Z</time>
      </trkpt>
      <trkpt lat="-21.21045" lon="55.32267">
        <ele>512.16925048828</ele>
        <time>2012-11-06T06:58:58Z</time>
      </trkpt>
      <trkpt lat="-21.2105" lon="55.32266">
        <ele>512.62811279297</ele>
        <time>2012-11-06T06:59:00Z</time>
      </trkpt>
      <trkpt lat="-21.21055" lon="55.32266">
        <ele>512.98822021484</ele>
        <time>2012-11-06T06:59:02Z</time>
      </trkpt>
      <trkpt lat="-21.21057" lon="55.32267">
        <ele>513.08435058594</ele>
        <time>2012-11-06T06:59:03Z</time>
      </trkpt>
      <trkpt lat="-21.21062" lon="55.32268">
        <ele>513.48577880859</ele>
        <time>2012-11-06T06:59:05Z</time>
      </trkpt>
      <trkpt lat="-21.21067" lon="55.3227">
        <ele>513.74163818359</ele>
        <time>2012-11-06T06:59:07Z</time>
      </trkpt>
      <trkpt lat="-21.21071" lon="55.32274">
        <ele>514.29864501953</ele>
        <time>2012-11-06T06:59:09Z</time>
      </trkpt>
      <trkpt lat="-21.21073" lon="55.32276">
        <ele>515.25640869141</ele>
        <time>2012-11-06T06:59:10Z</time>
      </trkpt>
      <trkpt lat="-21.21075" lon="55.3228">
        <ele>516.26324462891</ele>
        <time>2012-11-06T06:59:12Z</time>
      </trkpt>
      <trkpt lat="-21.21076" lon="55.32283">
        <ele>516.58911132812</ele>
        <time>2012-11-06T06:59:13Z</time>
      </trkpt>
      <trkpt lat="-21.21076" lon="55.32288">
        <ele>517.21710205078</ele>
        <time>2012-11-06T06:59:15Z</time>
      </trkpt>
      <trkpt lat="-21.21077" lon="55.32293">
        <ele>517.50177001953</ele>
        <time>2012-11-06T06:59:17Z</time>
      </trkpt>
      <trkpt lat="-21.21078" lon="55.32296">
        <ele>516.46179199219</ele>
        <time>2012-11-06T06:59:18Z</time>
      </trkpt>
      <trkpt lat="-21.21078" lon="55.32298">
        <ele>516.93084716797</ele>
        <time>2012-11-06T06:59:19Z</time>
      </trkpt>
      <trkpt lat="-21.21078" lon="55.32303">
        <ele>520.56805419922</ele>
        <time>2012-11-06T06:59:21Z</time>
      </trkpt>
      <trkpt lat="-21.21078" lon="55.32305">
        <ele>520.44561767578</ele>
        <time>2012-11-06T06:59:22Z</time>
      </trkpt>
      <trkpt lat="-21.21078" lon="55.3231">
        <ele>519.74182128906</ele>
        <time>2012-11-06T06:59:24Z</time>
      </trkpt>
      <trkpt lat="-21.21078" lon="55.32312">
        <ele>519.26824951172</ele>
        <time>2012-11-06T06:59:25Z</time>
      </trkpt>
      <trkpt lat="-21.21078" lon="55.32318">
        <ele>518.59497070312</ele>
        <time>2012-11-06T06:59:27Z</time>
      </trkpt>
      <trkpt lat="-21.21078" lon="55.32323">
        <ele>518.73229980469</ele>
        <time>2012-11-06T06:59:29Z</time>
      </trkpt>
      <trkpt lat="-21.21078" lon="55.32326">
        <ele>518.71533203125</ele>
        <time>2012-11-06T06:59:30Z</time>
      </trkpt>
      <trkpt lat="-21.21078" lon="55.3233">
        <ele>519.58160400391</ele>
        <time>2012-11-06T06:59:32Z</time>
      </trkpt>
      <trkpt lat="-21.21078" lon="55.32333">
        <ele>519.64727783203</ele>
        <time>2012-11-06T06:59:33Z</time>
      </trkpt>
      <trkpt lat="-21.21077" lon="55.32338">
        <ele>520.20965576172</ele>
        <time>2012-11-06T06:59:35Z</time>
      </trkpt>
      <trkpt lat="-21.21077" lon="55.32342">
        <ele>520.73205566406</ele>
        <time>2012-11-06T06:59:37Z</time>
      </trkpt>
      <trkpt lat="-21.21077" lon="55.32344">
        <ele>520.72863769531</ele>
        <time>2012-11-06T06:59:38Z</time>
      </trkpt>
      <trkpt lat="-21.21076" lon="55.32349">
        <ele>520.97625732422</ele>
        <time>2012-11-06T06:59:40Z</time>
      </trkpt>
      <trkpt lat="-21.21073" lon="55.3235">
        <ele>520.94812011719</ele>
        <time>2012-11-06T06:59:42Z</time>
      </trkpt>
      <trkpt lat="-21.21072" lon="55.32349">
        <ele>521.06134033203</ele>
        <time>2012-11-06T06:59:43Z</time>
      </trkpt>
      <trkpt lat="-21.2107" lon="55.32346">
        <ele>522.53308105469</ele>
        <time>2012-11-06T06:59:45Z</time>
      </trkpt>
      <trkpt lat="-21.21071" lon="55.32343">
        <ele>524.09411621094</ele>
        <time>2012-11-06T06:59:47Z</time>
      </trkpt>
      <trkpt lat="-21.21071" lon="55.3234">
        <ele>524.51080322266</ele>
        <time>2012-11-06T06:59:48Z</time>
      </trkpt>
      <trkpt lat="-21.21071" lon="55.32336">
        <ele>525.27264404297</ele>
        <time>2012-11-06T06:59:50Z</time>
      </trkpt>
      <trkpt lat="-21.21071" lon="55.32334">
        <ele>525.72259521484</ele>
        <time>2012-11-06T06:59:51Z</time>
      </trkpt>
      <trkpt lat="-21.21072" lon="55.32332">
        <ele>525.92248535156</ele>
        <time>2012-11-06T06:59:52Z</time>
      </trkpt>
      <trkpt lat="-21.21072" lon="55.32328">
        <ele>526.8818359375</ele>
        <time>2012-11-06T06:59:54Z</time>
      </trkpt>
      <trkpt lat="-21.21071" lon="55.32323">
        <ele>526.21539306641</ele>
        <time>2012-11-06T06:59:56Z</time>
      </trkpt>
      <trkpt lat="-21.2107" lon="55.32319">
        <ele>526.89685058594</ele>
        <time>2012-11-06T06:59:58Z</time>
      </trkpt>
      <trkpt lat="-21.21068" lon="55.32315">
        <ele>526.87738037109</ele>
        <time>2012-11-06T07:00:00Z</time>
      </trkpt>
      <trkpt lat="-21.21067" lon="55.32313">
        <ele>527.09094238281</ele>
        <time>2012-11-06T07:00:01Z</time>
      </trkpt>
      <trkpt lat="-21.21065" lon="55.32309">
        <ele>527.43389892578</ele>
        <time>2012-11-06T07:00:03Z</time>
      </trkpt>
      <trkpt lat="-21.21063" lon="55.32307">
        <ele>526.94940185547</ele>
        <time>2012-11-06T07:00:04Z</time>
      </trkpt>
      <trkpt lat="-21.21061" lon="55.32305">
        <ele>526.40887451172</ele>
        <time>2012-11-06T07:00:05Z</time>
      </trkpt>
      <trkpt lat="-21.21059" lon="55.32304">
        <ele>526.98889160156</ele>
        <time>2012-11-06T07:00:06Z</time>
      </trkpt>
      <trkpt lat="-21.21054" lon="55.32303">
        <ele>525.87463378906</ele>
        <time>2012-11-06T07:00:08Z</time>
      </trkpt>
      <trkpt lat="-21.2105" lon="55.32303">
        <ele>521.96105957031</ele>
        <time>2012-11-06T07:00:10Z</time>
      </trkpt>
      <trkpt lat="-21.21048" lon="55.32303">
        <ele>523.36065673828</ele>
        <time>2012-11-06T07:00:11Z</time>
      </trkpt>
      <trkpt lat="-21.21044" lon="55.32305">
        <ele>525.66357421875</ele>
        <time>2012-11-06T07:00:13Z</time>
      </trkpt>
      <trkpt lat="-21.21041" lon="55.32307">
        <ele>526.09643554688</ele>
        <time>2012-11-06T07:00:15Z</time>
      </trkpt>
      <trkpt lat="-21.21037" lon="55.32309">
        <ele>526.98608398438</ele>
        <time>2012-11-06T07:00:17Z</time>
      </trkpt>
      <trkpt lat="-21.21035" lon="55.32311">
        <ele>526.23541259766</ele>
        <time>2012-11-06T07:00:18Z</time>
      </trkpt>
      <trkpt lat="-21.21034" lon="55.32312">
        <ele>526.77642822266</ele>
        <time>2012-11-06T07:00:19Z</time>
      </trkpt>
      <trkpt lat="-21.21032" lon="55.32314">
        <ele>531.86499023438</ele>
        <time>2012-11-06T07:00:21Z</time>
      </trkpt>
      <trkpt lat="-21.2103" lon="55.32316">
        <ele>533.76690673828</ele>
        <time>2012-11-06T07:00:23Z</time>
      </trkpt>
      <trkpt lat="-21.21029" lon="55.32316">
        <ele>530.76879882812</ele>
        <time>2012-11-06T07:00:24Z</time>
      </trkpt>
      <trkpt lat="-21.21027" lon="55.32317">
        <ele>532.74078369141</ele>
        <time>2012-11-06T07:00:26Z</time>
      </trkpt>
      <trkpt lat="-21.21025" lon="55.32318">
        <ele>532.31994628906</ele>
        <time>2012-11-06T07:00:27Z</time>
      </trkpt>
      <trkpt lat="-21.21023" lon="55.3232">
        <ele>530.494140625</ele>
        <time>2012-11-06T07:00:28Z</time>
      </trkpt>
      <trkpt lat="-21.21019" lon="55.32322">
        <ele>530.88977050781</ele>
        <time>2012-11-06T07:00:30Z</time>
      </trkpt>
      <trkpt lat="-21.21016" lon="55.32324">
        <ele>534.72723388672</ele>
        <time>2012-11-06T07:00:32Z</time>
      </trkpt>
      <trkpt lat="-21.21013" lon="55.32327">
        <ele>534.53466796875</ele>
        <time>2012-11-06T07:00:34Z</time>
      </trkpt>
      <trkpt lat="-21.21009" lon="55.32328">
        <ele>533.74017333984</ele>
        <time>2012-11-06T07:00:36Z</time>
      </trkpt>
      <trkpt lat="-21.21006" lon="55.32329">
        <ele>533.03729248047</ele>
        <time>2012-11-06T07:00:37Z</time>
      </trkpt>
      <trkpt lat="-21.21005" lon="55.32331">
        <ele>532.31109619141</ele>
        <time>2012-11-06T07:00:38Z</time>
      </trkpt>
      <trkpt lat="-21.21003" lon="55.32332">
        <ele>532.10961914062</ele>
        <time>2012-11-06T07:00:39Z</time>
      </trkpt>
      <trkpt lat="-21.21" lon="55.32333">
        <ele>532.19818115234</ele>
        <time>2012-11-06T07:00:41Z</time>
      </trkpt>
      <trkpt lat="-21.20997" lon="55.32335">
        <ele>532.97814941406</ele>
        <time>2012-11-06T07:00:43Z</time>
      </trkpt>
      <trkpt lat="-21.20993" lon="55.32335">
        <ele>532.10223388672</ele>
        <time>2012-11-06T07:00:45Z</time>
      </trkpt>
      <trkpt lat="-21.20991" lon="55.32335">
        <ele>533.14453125</ele>
        <time>2012-11-06T07:00:46Z</time>
      </trkpt>
      <trkpt lat="-21.20989" lon="55.32335">
        <ele>533.7392578125</ele>
        <time>2012-11-06T07:00:47Z</time>
      </trkpt>
      <trkpt lat="-21.20985" lon="55.32333">
        <ele>533.68579101562</ele>
        <time>2012-11-06T07:00:49Z</time>
      </trkpt>
      <trkpt lat="-21.20983" lon="55.32332">
        <ele>534.30065917969</ele>
        <time>2012-11-06T07:00:50Z</time>
      </trkpt>
      <trkpt lat="-21.2098" lon="55.3233">
        <ele>534.05004882812</ele>
        <time>2012-11-06T07:00:52Z</time>
      </trkpt>
      <trkpt lat="-21.20977" lon="55.3233">
        <ele>533.74322509766</ele>
        <time>2012-11-06T07:00:54Z</time>
      </trkpt>
      <trkpt lat="-21.20976" lon="55.32331">
        <ele>534.07299804688</ele>
        <time>2012-11-06T07:00:55Z</time>
      </trkpt>
      <trkpt lat="-21.20975" lon="55.32335">
        <ele>534.64569091797</ele>
        <time>2012-11-06T07:00:57Z</time>
      </trkpt>
      <trkpt lat="-21.20975" lon="55.32337">
        <ele>534.74938964844</ele>
        <time>2012-11-06T07:00:58Z</time>
      </trkpt>
      <trkpt lat="-21.20977" lon="55.32338">
        <ele>534.63757324219</ele>
        <time>2012-11-06T07:00:59Z</time>
      </trkpt>
      <trkpt lat="-21.20979" lon="55.3234">
        <ele>535.89447021484</ele>
        <time>2012-11-06T07:01:01Z</time>
      </trkpt>
      <trkpt lat="-21.20983" lon="55.32341">
        <ele>535.12823486328</ele>
        <time>2012-11-06T07:01:03Z</time>
      </trkpt>
      <trkpt lat="-21.20984" lon="55.32341">
        <ele>534.79547119141</ele>
        <time>2012-11-06T07:01:04Z</time>
      </trkpt>
      <trkpt lat="-21.20988" lon="55.32342">
        <ele>535.27984619141</ele>
        <time>2012-11-06T07:01:06Z</time>
      </trkpt>
      <trkpt lat="-21.20991" lon="55.32343">
        <ele>535.64154052734</ele>
        <time>2012-11-06T07:01:08Z</time>
      </trkpt>
      <trkpt lat="-21.20993" lon="55.32343">
        <ele>535.48767089844</ele>
        <time>2012-11-06T07:01:09Z</time>
      </trkpt>
      <trkpt lat="-21.20994" lon="55.32343">
        <ele>535.73016357422</ele>
        <time>2012-11-06T07:01:10Z</time>
      </trkpt>
      <trkpt lat="-21.20998" lon="55.32343">
        <ele>535.7646484375</ele>
        <time>2012-11-06T07:01:12Z</time>
      </trkpt>
      <trkpt lat="-21.21001" lon="55.32344">
        <ele>537.28820800781</ele>
        <time>2012-11-06T07:01:14Z</time>
      </trkpt>
      <trkpt lat="-21.21003" lon="55.32344">
        <ele>537.33325195312</ele>
        <time>2012-11-06T07:01:15Z</time>
      </trkpt>
      <trkpt lat="-21.21007" lon="55.32344">
        <ele>539.24017333984</ele>
        <time>2012-11-06T07:01:17Z</time>
      </trkpt>
      <trkpt lat="-21.2101" lon="55.32345">
        <ele>540.83471679688</ele>
        <time>2012-11-06T07:01:19Z</time>
      </trkpt>
      <trkpt lat="-21.21014" lon="55.32345">
        <ele>541.38604736328</ele>
        <time>2012-11-06T07:01:21Z</time>
      </trkpt>
      <trkpt lat="-21.21015" lon="55.32345">
        <ele>541.60894775391</ele>
        <time>2012-11-06T07:01:22Z</time>
      </trkpt>
      <trkpt lat="-21.21019" lon="55.32346">
        <ele>541.87158203125</ele>
        <time>2012-11-06T07:01:24Z</time>
      </trkpt>
      <trkpt lat="-21.21021" lon="55.32346">
        <ele>541.97235107422</ele>
        <time>2012-11-06T07:01:25Z</time>
      </trkpt>
      <trkpt lat="-21.21024" lon="55.32347">
        <ele>541.69403076172</ele>
        <time>2012-11-06T07:01:27Z</time>
      </trkpt>
      <trkpt lat="-21.21027" lon="55.32349">
        <ele>541.70666503906</ele>
        <time>2012-11-06T07:01:29Z</time>
      </trkpt>
      <trkpt lat="-21.21029" lon="55.32352">
        <ele>542.63427734375</ele>
        <time>2012-11-06T07:01:31Z</time>
      </trkpt>
      <trkpt lat="-21.2103" lon="55.32356">
        <ele>542.56201171875</ele>
        <time>2012-11-06T07:01:33Z</time>
      </trkpt>
      <trkpt lat="-21.2103" lon="55.3236">
        <ele>542.11010742188</ele>
        <time>2012-11-06T07:01:35Z</time>
      </trkpt>
      <trkpt lat="-21.2103" lon="55.32365">
        <ele>541.53131103516</ele>
        <time>2012-11-06T07:01:37Z</time>
      </trkpt>
      <trkpt lat="-21.2103" lon="55.32367">
        <ele>541.52703857422</ele>
        <time>2012-11-06T07:01:38Z</time>
      </trkpt>
      <trkpt lat="-21.2103" lon="55.32371">
        <ele>541.95849609375</ele>
        <time>2012-11-06T07:01:40Z</time>
      </trkpt>
      <trkpt lat="-21.2103" lon="55.32375">
        <ele>543.35864257812</ele>
        <time>2012-11-06T07:01:42Z</time>
      </trkpt>
      <trkpt lat="-21.2103" lon="55.32379">
        <ele>543.34661865234</ele>
        <time>2012-11-06T07:01:44Z</time>
      </trkpt>
      <trkpt lat="-21.2103" lon="55.32384">
        <ele>543.38061523438</ele>
        <time>2012-11-06T07:01:46Z</time>
      </trkpt>
      <trkpt lat="-21.2103" lon="55.32388">
        <ele>544.46197509766</ele>
        <time>2012-11-06T07:01:48Z</time>
      </trkpt>
      <trkpt lat="-21.21031" lon="55.32391">
        <ele>546.41906738281</ele>
        <time>2012-11-06T07:01:50Z</time>
      </trkpt>
      <trkpt lat="-21.21031" lon="55.32394">
        <ele>546.58123779297</ele>
        <time>2012-11-06T07:01:51Z</time>
      </trkpt>
      <trkpt lat="-21.2103" lon="55.324">
        <ele>544.75201416016</ele>
        <time>2012-11-06T07:01:53Z</time>
      </trkpt>
      <trkpt lat="-21.2103" lon="55.32404">
        <ele>546.34783935547</ele>
        <time>2012-11-06T07:01:55Z</time>
      </trkpt>
      <trkpt lat="-21.21029" lon="55.32406">
        <ele>546.17541503906</ele>
        <time>2012-11-06T07:01:56Z</time>
      </trkpt>
      <trkpt lat="-21.21029" lon="55.32411">
        <ele>545.49798583984</ele>
        <time>2012-11-06T07:01:58Z</time>
      </trkpt>
      <trkpt lat="-21.21029" lon="55.32415">
        <ele>545.15509033203</ele>
        <time>2012-11-06T07:02:00Z</time>
      </trkpt>
      <trkpt lat="-21.21029" lon="55.32417">
        <ele>545.7041015625</ele>
        <time>2012-11-06T07:02:01Z</time>
      </trkpt>
      <trkpt lat="-21.21028" lon="55.32421">
        <ele>548.25262451172</ele>
        <time>2012-11-06T07:02:03Z</time>
      </trkpt>
      <trkpt lat="-21.21026" lon="55.32425">
        <ele>549.11096191406</ele>
        <time>2012-11-06T07:02:05Z</time>
      </trkpt>
      <trkpt lat="-21.21025" lon="55.32425">
        <ele>548.79309082031</ele>
        <time>2012-11-06T07:02:06Z</time>
      </trkpt>
      <trkpt lat="-21.21023" lon="55.32424">
        <ele>547.81671142578</ele>
        <time>2012-11-06T07:02:08Z</time>
      </trkpt>
      <trkpt lat="-21.21022" lon="55.32423">
        <ele>548.14477539062</ele>
        <time>2012-11-06T07:02:09Z</time>
      </trkpt>
      <trkpt lat="-21.2102" lon="55.3242">
        <ele>548.98095703125</ele>
        <time>2012-11-06T07:02:11Z</time>
      </trkpt>
      <trkpt lat="-21.2102" lon="55.32417">
        <ele>550.3759765625</ele>
        <time>2012-11-06T07:02:13Z</time>
      </trkpt>
      <trkpt lat="-21.21021" lon="55.32416">
        <ele>551.25170898438</ele>
        <time>2012-11-06T07:02:14Z</time>
      </trkpt>
      <trkpt lat="-21.21021" lon="55.32412">
        <ele>552.48229980469</ele>
        <time>2012-11-06T07:02:16Z</time>
      </trkpt>
      <trkpt lat="-21.21021" lon="55.32409">
        <ele>552.48645019531</ele>
        <time>2012-11-06T07:02:18Z</time>
      </trkpt>
      <trkpt lat="-21.2102" lon="55.32405">
        <ele>552.79455566406</ele>
        <time>2012-11-06T07:02:20Z</time>
      </trkpt>
      <trkpt lat="-21.2102" lon="55.32405">
        <ele>553.326171875</ele>
        <time>2012-11-06T07:02:21Z</time>
      </trkpt>
      <trkpt lat="-21.21019" lon="55.324">
        <ele>554.43389892578</ele>
        <time>2012-11-06T07:02:23Z</time>
      </trkpt>
      <trkpt lat="-21.21015" lon="55.32395">
        <ele>553.40417480469</ele>
        <time>2012-11-06T07:02:25Z</time>
      </trkpt>
      <trkpt lat="-21.21012" lon="55.32391">
        <ele>552.88256835938</ele>
        <time>2012-11-06T07:02:27Z</time>
      </trkpt>
      <trkpt lat="-21.2101" lon="55.32388">
        <ele>552.63287353516</ele>
        <time>2012-11-06T07:02:29Z</time>
      </trkpt>
      <trkpt lat="-21.21005" lon="55.32387">
        <ele>552.17761230469</ele>
        <time>2012-11-06T07:02:31Z</time>
      </trkpt>
      <trkpt lat="-21.21002" lon="55.32387">
        <ele>551.68963623047</ele>
        <time>2012-11-06T07:02:32Z</time>
      </trkpt>
      <trkpt lat="-21.20998" lon="55.32388">
        <ele>551.65008544922</ele>
        <time>2012-11-06T07:02:34Z</time>
      </trkpt>
      <trkpt lat="-21.20996" lon="55.32389">
        <ele>551.82836914062</ele>
        <time>2012-11-06T07:02:35Z</time>
      </trkpt>
      <trkpt lat="-21.20993" lon="55.3239">
        <ele>552.40155029297</ele>
        <time>2012-11-06T07:02:37Z</time>
      </trkpt>
      <trkpt lat="-21.20991" lon="55.32391">
        <ele>553.59289550781</ele>
        <time>2012-11-06T07:02:38Z</time>
      </trkpt>
      <trkpt lat="-21.20989" lon="55.32392">
        <ele>553.41253662109</ele>
        <time>2012-11-06T07:02:39Z</time>
      </trkpt>
      <trkpt lat="-21.20987" lon="55.32392">
        <ele>552.77410888672</ele>
        <time>2012-11-06T07:02:40Z</time>
      </trkpt>
      <trkpt lat="-21.20985" lon="55.32394">
        <ele>552.46075439453</ele>
        <time>2012-11-06T07:02:41Z</time>
      </trkpt>
      <trkpt lat="-21.20984" lon="55.32395">
        <ele>552.25231933594</ele>
        <time>2012-11-06T07:02:42Z</time>
      </trkpt>
      <trkpt lat="-21.20981" lon="55.32397">
        <ele>552.17242431641</ele>
        <time>2012-11-06T07:02:44Z</time>
      </trkpt>
      <trkpt lat="-21.20978" lon="55.32399">
        <ele>552.736328125</ele>
        <time>2012-11-06T07:02:46Z</time>
      </trkpt>
      <trkpt lat="-21.20974" lon="55.32401">
        <ele>552.94146728516</ele>
        <time>2012-11-06T07:02:48Z</time>
      </trkpt>
      <trkpt lat="-21.20973" lon="55.32402">
        <ele>553.43041992188</ele>
        <time>2012-11-06T07:02:49Z</time>
      </trkpt>
      <trkpt lat="-21.20972" lon="55.32403">
        <ele>553.52862548828</ele>
        <time>2012-11-06T07:02:50Z</time>
      </trkpt>
      <trkpt lat="-21.20969" lon="55.32405">
        <ele>553.46441650391</ele>
        <time>2012-11-06T07:02:52Z</time>
      </trkpt>
      <trkpt lat="-21.20966" lon="55.32408">
        <ele>554.06823730469</ele>
        <time>2012-11-06T07:02:54Z</time>
      </trkpt>
      <trkpt lat="-21.20964" lon="55.32409">
        <ele>554.70275878906</ele>
        <time>2012-11-06T07:02:55Z</time>
      </trkpt>
      <trkpt lat="-21.20963" lon="55.32411">
        <ele>555.41479492188</ele>
        <time>2012-11-06T07:02:56Z</time>
      </trkpt>
      <trkpt lat="-21.2096" lon="55.32413">
        <ele>555.89239501953</ele>
        <time>2012-11-06T07:02:58Z</time>
      </trkpt>
      <trkpt lat="-21.20957" lon="55.32416">
        <ele>556.36248779297</ele>
        <time>2012-11-06T07:03:00Z</time>
      </trkpt>
      <trkpt lat="-21.20956" lon="55.32417">
        <ele>556.52893066406</ele>
        <time>2012-11-06T07:03:01Z</time>
      </trkpt>
      <trkpt lat="-21.20954" lon="55.3242">
        <ele>556.70056152344</ele>
        <time>2012-11-06T07:03:03Z</time>
      </trkpt>
      <trkpt lat="-21.20953" lon="55.32422">
        <ele>556.64801025391</ele>
        <time>2012-11-06T07:03:04Z</time>
      </trkpt>
      <trkpt lat="-21.20951" lon="55.32425">
        <ele>557.48797607422</ele>
        <time>2012-11-06T07:03:06Z</time>
      </trkpt>
      <trkpt lat="-21.2095" lon="55.32427">
        <ele>557.79534912109</ele>
        <time>2012-11-06T07:03:07Z</time>
      </trkpt>
      <trkpt lat="-21.20948" lon="55.3243">
        <ele>557.96258544922</ele>
        <time>2012-11-06T07:03:09Z</time>
      </trkpt>
      <trkpt lat="-21.20948" lon="55.32432">
        <ele>558.38006591797</ele>
        <time>2012-11-06T07:03:10Z</time>
      </trkpt>
      <trkpt lat="-21.20946" lon="55.32436">
        <ele>558.486328125</ele>
        <time>2012-11-06T07:03:12Z</time>
      </trkpt>
      <trkpt lat="-21.20945" lon="55.3244">
        <ele>558.10559082031</ele>
        <time>2012-11-06T07:03:14Z</time>
      </trkpt>
      <trkpt lat="-21.20944" lon="55.32442">
        <ele>557.58532714844</ele>
        <time>2012-11-06T07:03:15Z</time>
      </trkpt>
      <trkpt lat="-21.20943" lon="55.32446">
        <ele>557.93536376953</ele>
        <time>2012-11-06T07:03:17Z</time>
      </trkpt>
      <trkpt lat="-21.20942" lon="55.32449">
        <ele>559.18994140625</ele>
        <time>2012-11-06T07:03:19Z</time>
      </trkpt>
      <trkpt lat="-21.20941" lon="55.32453">
        <ele>559.79895019531</ele>
        <time>2012-11-06T07:03:21Z</time>
      </trkpt>
      <trkpt lat="-21.20941" lon="55.32456">
        <ele>557.62670898438</ele>
        <time>2012-11-06T07:03:23Z</time>
      </trkpt>
      <trkpt lat="-21.2094" lon="55.32458">
        <ele>558.96844482422</ele>
        <time>2012-11-06T07:03:24Z</time>
      </trkpt>
      <trkpt lat="-21.20939" lon="55.3246">
        <ele>559.76196289062</ele>
        <time>2012-11-06T07:03:25Z</time>
      </trkpt>
      <trkpt lat="-21.20939" lon="55.32463">
        <ele>559.38623046875</ele>
        <time>2012-11-06T07:03:26Z</time>
      </trkpt>
      <trkpt lat="-21.20937" lon="55.32467">
        <ele>560.62493896484</ele>
        <time>2012-11-06T07:03:28Z</time>
      </trkpt>
      <trkpt lat="-21.20935" lon="55.3247">
        <ele>560.416015625</ele>
        <time>2012-11-06T07:03:30Z</time>
      </trkpt>
      <trkpt lat="-21.20934" lon="55.32472">
        <ele>560.03741455078</ele>
        <time>2012-11-06T07:03:31Z</time>
      </trkpt>
      <trkpt lat="-21.20933" lon="55.32474">
        <ele>560.55725097656</ele>
        <time>2012-11-06T07:03:33Z</time>
      </trkpt>
      <trkpt lat="-21.20931" lon="55.32477">
        <ele>561.19189453125</ele>
        <time>2012-11-06T07:03:35Z</time>
      </trkpt>
      <trkpt lat="-21.2093" lon="55.32479">
        <ele>562.48223876953</ele>
        <time>2012-11-06T07:03:37Z</time>
      </trkpt>
      <trkpt lat="-21.20929" lon="55.32481">
        <ele>562.36834716797</ele>
        <time>2012-11-06T07:03:38Z</time>
      </trkpt>
      <trkpt lat="-21.20926" lon="55.32483">
        <ele>563.57629394531</ele>
        <time>2012-11-06T07:03:40Z</time>
      </trkpt>
      <trkpt lat="-21.20925" lon="55.32485">
        <ele>564.55297851562</ele>
        <time>2012-11-06T07:03:41Z</time>
      </trkpt>
      <trkpt lat="-21.20922" lon="55.32488">
        <ele>565.08795166016</ele>
        <time>2012-11-06T07:03:43Z</time>
      </trkpt>
      <trkpt lat="-21.2092" lon="55.3249">
        <ele>564.99816894531</ele>
        <time>2012-11-06T07:03:44Z</time>
      </trkpt>
      <trkpt lat="-21.20919" lon="55.32493">
        <ele>565.28814697266</ele>
        <time>2012-11-06T07:03:46Z</time>
      </trkpt>
      <trkpt lat="-21.20917" lon="55.32494">
        <ele>565.45910644531</ele>
        <time>2012-11-06T07:03:47Z</time>
      </trkpt>
      <trkpt lat="-21.20913" lon="55.32499">
        <ele>566.07940673828</ele>
        <time>2012-11-06T07:03:49Z</time>
      </trkpt>
      <trkpt lat="-21.20909" lon="55.32502">
        <ele>565.90924072266</ele>
        <time>2012-11-06T07:03:51Z</time>
      </trkpt>
      <trkpt lat="-21.20907" lon="55.32503">
        <ele>565.58428955078</ele>
        <time>2012-11-06T07:03:52Z</time>
      </trkpt>
      <trkpt lat="-21.20903" lon="55.32503">
        <ele>565.20825195312</ele>
        <time>2012-11-06T07:03:54Z</time>
      </trkpt>
      <trkpt lat="-21.209" lon="55.32503">
        <ele>565.14099121094</ele>
        <time>2012-11-06T07:03:55Z</time>
      </trkpt>
      <trkpt lat="-21.20896" lon="55.32503">
        <ele>565.94635009766</ele>
        <time>2012-11-06T07:03:57Z</time>
      </trkpt>
      <trkpt lat="-21.20894" lon="55.32502">
        <ele>565.88366699219</ele>
        <time>2012-11-06T07:03:58Z</time>
      </trkpt>
      <trkpt lat="-21.2089" lon="55.32502">
        <ele>566.40258789062</ele>
        <time>2012-11-06T07:04:00Z</time>
      </trkpt>
      <trkpt lat="-21.20887" lon="55.32502">
        <ele>565.9970703125</ele>
        <time>2012-11-06T07:04:01Z</time>
      </trkpt>
      <trkpt lat="-21.20884" lon="55.32501">
        <ele>566.35437011719</ele>
        <time>2012-11-06T07:04:03Z</time>
      </trkpt>
      <trkpt lat="-21.20879" lon="55.325">
        <ele>565.73559570312</ele>
        <time>2012-11-06T07:04:05Z</time>
      </trkpt>
      <trkpt lat="-21.20873" lon="55.32498">
        <ele>564.96435546875</ele>
        <time>2012-11-06T07:04:07Z</time>
      </trkpt>
      <trkpt lat="-21.20871" lon="55.32498">
        <ele>565.28173828125</ele>
        <time>2012-11-06T07:04:08Z</time>
      </trkpt>
      <trkpt lat="-21.20867" lon="55.32496">
        <ele>566.82006835938</ele>
        <time>2012-11-06T07:04:10Z</time>
      </trkpt>
      <trkpt lat="-21.20864" lon="55.32494">
        <ele>568.15307617188</ele>
        <time>2012-11-06T07:04:12Z</time>
      </trkpt>
      <trkpt lat="-21.2086" lon="55.32492">
        <ele>568.42431640625</ele>
        <time>2012-11-06T07:04:14Z</time>
      </trkpt>
      <trkpt lat="-21.20856" lon="55.32491">
        <ele>567.26824951172</ele>
        <time>2012-11-06T07:04:16Z</time>
      </trkpt>
      <trkpt lat="-21.20851" lon="55.3249">
        <ele>567.5986328125</ele>
        <time>2012-11-06T07:04:18Z</time>
      </trkpt>
      <trkpt lat="-21.20849" lon="55.32489">
        <ele>566.71295166016</ele>
        <time>2012-11-06T07:04:19Z</time>
      </trkpt>
      <trkpt lat="-21.20845" lon="55.32488">
        <ele>566.60101318359</ele>
        <time>2012-11-06T07:04:21Z</time>
      </trkpt>
      <trkpt lat="-21.20843" lon="55.32487">
        <ele>567.40234375</ele>
        <time>2012-11-06T07:04:22Z</time>
      </trkpt>
      <trkpt lat="-21.2084" lon="55.32486">
        <ele>569.12622070312</ele>
        <time>2012-11-06T07:04:23Z</time>
      </trkpt>
      <trkpt lat="-21.20838" lon="55.32486">
        <ele>570.50158691406</ele>
        <time>2012-11-06T07:04:25Z</time>
      </trkpt>
      <trkpt lat="-21.20836" lon="55.32486">
        <ele>570.70556640625</ele>
        <time>2012-11-06T07:04:26Z</time>
      </trkpt>
      <trkpt lat="-21.20833" lon="55.32486">
        <ele>570.60382080078</ele>
        <time>2012-11-06T07:04:27Z</time>
      </trkpt>
      <trkpt lat="-21.20829" lon="55.32486">
        <ele>571.79010009766</ele>
        <time>2012-11-06T07:04:29Z</time>
      </trkpt>
      <trkpt lat="-21.20826" lon="55.32486">
        <ele>572.25415039062</ele>
        <time>2012-11-06T07:04:31Z</time>
      </trkpt>
      <trkpt lat="-21.20823" lon="55.32486">
        <ele>572.14923095703</ele>
        <time>2012-11-06T07:04:33Z</time>
      </trkpt>
      <trkpt lat="-21.20821" lon="55.32485">
        <ele>571.99249267578</ele>
        <time>2012-11-06T07:04:34Z</time>
      </trkpt>
      <trkpt lat="-21.20818" lon="55.32485">
        <ele>571.97174072266</ele>
        <time>2012-11-06T07:04:36Z</time>
      </trkpt>
      <trkpt lat="-21.20816" lon="55.32486">
        <ele>571.83557128906</ele>
        <time>2012-11-06T07:04:37Z</time>
      </trkpt>
      <trkpt lat="-21.20814" lon="55.32486">
        <ele>571.91735839844</ele>
        <time>2012-11-06T07:04:38Z</time>
      </trkpt>
      <trkpt lat="-21.20811" lon="55.32486">
        <ele>572.28771972656</ele>
        <time>2012-11-06T07:04:40Z</time>
      </trkpt>
      <trkpt lat="-21.20807" lon="55.32486">
        <ele>572.54113769531</ele>
        <time>2012-11-06T07:04:42Z</time>
      </trkpt>
      <trkpt lat="-21.20804" lon="55.32485">
        <ele>572.66827392578</ele>
        <time>2012-11-06T07:04:44Z</time>
      </trkpt>
      <trkpt lat="-21.208" lon="55.32485">
        <ele>572.96264648438</ele>
        <time>2012-11-06T07:04:46Z</time>
      </trkpt>
      <trkpt lat="-21.20797" lon="55.32485">
        <ele>573.32598876953</ele>
        <time>2012-11-06T07:04:48Z</time>
      </trkpt>
      <trkpt lat="-21.20795" lon="55.32485">
        <ele>573.36566162109</ele>
        <time>2012-11-06T07:04:49Z</time>
      </trkpt>
      <trkpt lat="-21.20791" lon="55.32485">
        <ele>573.6396484375</ele>
        <time>2012-11-06T07:04:51Z</time>
      </trkpt>
      <trkpt lat="-21.2079" lon="55.32485">
        <ele>573.78674316406</ele>
        <time>2012-11-06T07:04:52Z</time>
      </trkpt>
      <trkpt lat="-21.20787" lon="55.32486">
        <ele>574.22686767578</ele>
        <time>2012-11-06T07:04:54Z</time>
      </trkpt>
      <trkpt lat="-21.20785" lon="55.32488">
        <ele>574.57244873047</ele>
        <time>2012-11-06T07:04:56Z</time>
      </trkpt>
      <trkpt lat="-21.20784" lon="55.32491">
        <ele>575.02874755859</ele>
        <time>2012-11-06T07:04:58Z</time>
      </trkpt>
      <trkpt lat="-21.20784" lon="55.32494">
        <ele>575.5556640625</ele>
        <time>2012-11-06T07:05:00Z</time>
      </trkpt>
      <trkpt lat="-21.20785" lon="55.32496">
        <ele>575.63806152344</ele>
        <time>2012-11-06T07:05:01Z</time>
      </trkpt>
      <trkpt lat="-21.20787" lon="55.325">
        <ele>575.16632080078</ele>
        <time>2012-11-06T07:05:03Z</time>
      </trkpt>
      <trkpt lat="-21.20788" lon="55.32501">
        <ele>575.13507080078</ele>
        <time>2012-11-06T07:05:04Z</time>
      </trkpt>
      <trkpt lat="-21.2079" lon="55.32504">
        <ele>574.93658447266</ele>
        <time>2012-11-06T07:05:06Z</time>
      </trkpt>
      <trkpt lat="-21.20792" lon="55.32506">
        <ele>575.32110595703</ele>
        <time>2012-11-06T07:05:08Z</time>
      </trkpt>
      <trkpt lat="-21.20793" lon="55.32507">
        <ele>575.64855957031</ele>
        <time>2012-11-06T07:05:09Z</time>
      </trkpt>
      <trkpt lat="-21.20796" lon="55.3251">
        <ele>575.56219482422</ele>
        <time>2012-11-06T07:05:10Z</time>
      </trkpt>
      <trkpt lat="-21.20797" lon="55.32511">
        <ele>575.59246826172</ele>
        <time>2012-11-06T07:05:12Z</time>
      </trkpt>
      <trkpt lat="-21.20799" lon="55.32513">
        <ele>575.83172607422</ele>
        <time>2012-11-06T07:05:14Z</time>
      </trkpt>
      <trkpt lat="-21.20802" lon="55.32515">
        <ele>576.24151611328</ele>
        <time>2012-11-06T07:05:16Z</time>
      </trkpt>
      <trkpt lat="-21.20803" lon="55.32517">
        <ele>576.42663574219</ele>
        <time>2012-11-06T07:05:17Z</time>
      </trkpt>
      <trkpt lat="-21.20804" lon="55.32518">
        <ele>576.59289550781</ele>
        <time>2012-11-06T07:05:18Z</time>
      </trkpt>
      <trkpt lat="-21.20805" lon="55.32519">
        <ele>576.91131591797</ele>
        <time>2012-11-06T07:05:19Z</time>
      </trkpt>
      <trkpt lat="-21.20807" lon="55.32521">
        <ele>577.46057128906</ele>
        <time>2012-11-06T07:05:21Z</time>
      </trkpt>
      <trkpt lat="-21.2081" lon="55.32524">
        <ele>577.15911865234</ele>
        <time>2012-11-06T07:05:23Z</time>
      </trkpt>
      <trkpt lat="-21.20811" lon="55.32526">
        <ele>575.90753173828</ele>
        <time>2012-11-06T07:05:24Z</time>
      </trkpt>
      <trkpt lat="-21.20811" lon="55.32529">
        <ele>578.76593017578</ele>
        <time>2012-11-06T07:05:26Z</time>
      </trkpt>
      <trkpt lat="-21.2081" lon="55.32532">
        <ele>582.66021728516</ele>
        <time>2012-11-06T07:05:28Z</time>
      </trkpt>
      <trkpt lat="-21.20808" lon="55.32535">
        <ele>583.72381591797</ele>
        <time>2012-11-06T07:05:30Z</time>
      </trkpt>
      <trkpt lat="-21.20807" lon="55.32536">
        <ele>584.0400390625</ele>
        <time>2012-11-06T07:05:31Z</time>
      </trkpt>
      <trkpt lat="-21.20805" lon="55.32537">
        <ele>583.99066162109</ele>
        <time>2012-11-06T07:05:32Z</time>
      </trkpt>
      <trkpt lat="-21.20802" lon="55.32537">
        <ele>584.05480957031</ele>
        <time>2012-11-06T07:05:34Z</time>
      </trkpt>
      <trkpt lat="-21.20798" lon="55.32537">
        <ele>583.94677734375</ele>
        <time>2012-11-06T07:05:36Z</time>
      </trkpt>
      <trkpt lat="-21.20796" lon="55.32537">
        <ele>584.07586669922</ele>
        <time>2012-11-06T07:05:37Z</time>
      </trkpt>
      <trkpt lat="-21.20795" lon="55.32536">
        <ele>584.28009033203</ele>
        <time>2012-11-06T07:05:38Z</time>
      </trkpt>
      <trkpt lat="-21.20792" lon="55.32535">
        <ele>584.20672607422</ele>
        <time>2012-11-06T07:05:40Z</time>
      </trkpt>
      <trkpt lat="-21.2079" lon="55.32535">
        <ele>584.17681884766</ele>
        <time>2012-11-06T07:05:41Z</time>
      </trkpt>
      <trkpt lat="-21.20788" lon="55.32535">
        <ele>583.77105712891</ele>
        <time>2012-11-06T07:05:43Z</time>
      </trkpt>
      <trkpt lat="-21.20786" lon="55.32534">
        <ele>583.54541015625</ele>
        <time>2012-11-06T07:05:44Z</time>
      </trkpt>
      <trkpt lat="-21.20785" lon="55.32534">
        <ele>583.45098876953</ele>
        <time>2012-11-06T07:05:45Z</time>
      </trkpt>
      <trkpt lat="-21.20782" lon="55.32534">
        <ele>583.51031494141</ele>
        <time>2012-11-06T07:05:47Z</time>
      </trkpt>
      <trkpt lat="-21.2078" lon="55.32534">
        <ele>583.46337890625</ele>
        <time>2012-11-06T07:05:48Z</time>
      </trkpt>
      <trkpt lat="-21.20779" lon="55.32534">
        <ele>583.44024658203</ele>
        <time>2012-11-06T07:05:49Z</time>
      </trkpt>
      <trkpt lat="-21.20777" lon="55.32534">
        <ele>583.52947998047</ele>
        <time>2012-11-06T07:05:50Z</time>
      </trkpt>
      <trkpt lat="-21.20774" lon="55.32533">
        <ele>583.82214355469</ele>
        <time>2012-11-06T07:05:52Z</time>
      </trkpt>
      <trkpt lat="-21.20771" lon="55.32532">
        <ele>583.98791503906</ele>
        <time>2012-11-06T07:05:54Z</time>
      </trkpt>
      <trkpt lat="-21.20767" lon="55.32531">
        <ele>584.62231445312</ele>
        <time>2012-11-06T07:05:56Z</time>
      </trkpt>
      <trkpt lat="-21.20765" lon="55.32531">
        <ele>585.083984375</ele>
        <time>2012-11-06T07:05:57Z</time>
      </trkpt>
      <trkpt lat="-21.20763" lon="55.3253">
        <ele>585.19750976562</ele>
        <time>2012-11-06T07:05:58Z</time>
      </trkpt>
      <trkpt lat="-21.20759" lon="55.3253">
        <ele>585.73864746094</ele>
        <time>2012-11-06T07:06:00Z</time>
      </trkpt>
      <trkpt lat="-21.20758" lon="55.32529">
        <ele>585.87524414062</ele>
        <time>2012-11-06T07:06:01Z</time>
      </trkpt>
      <trkpt lat="-21.20756" lon="55.32529">
        <ele>585.92822265625</ele>
        <time>2012-11-06T07:06:02Z</time>
      </trkpt>
      <trkpt lat="-21.20754" lon="55.32528">
        <ele>586.0498046875</ele>
        <time>2012-11-06T07:06:04Z</time>
      </trkpt>
      <trkpt lat="-21.2075" lon="55.32528">
        <ele>586.38385009766</ele>
        <time>2012-11-06T07:06:06Z</time>
      </trkpt>
      <trkpt lat="-21.20748" lon="55.32527">
        <ele>586.56842041016</ele>
        <time>2012-11-06T07:06:08Z</time>
      </trkpt>
      <trkpt lat="-21.20746" lon="55.32526">
        <ele>586.39337158203</ele>
        <time>2012-11-06T07:06:09Z</time>
      </trkpt>
      <trkpt lat="-21.20744" lon="55.32526">
        <ele>586.34320068359</ele>
        <time>2012-11-06T07:06:11Z</time>
      </trkpt>
      <trkpt lat="-21.20741" lon="55.32525">
        <ele>586.61926269531</ele>
        <time>2012-11-06T07:06:13Z</time>
      </trkpt>
      <trkpt lat="-21.20738" lon="55.32524">
        <ele>586.77789306641</ele>
        <time>2012-11-06T07:06:15Z</time>
      </trkpt>
      <trkpt lat="-21.20737" lon="55.32523">
        <ele>586.84857177734</ele>
        <time>2012-11-06T07:06:16Z</time>
      </trkpt>
      <trkpt lat="-21.20736" lon="55.32522">
        <ele>586.95825195312</ele>
        <time>2012-11-06T07:06:17Z</time>
      </trkpt>
      <trkpt lat="-21.20734" lon="55.32522">
        <ele>587.09063720703</ele>
        <time>2012-11-06T07:06:18Z</time>
      </trkpt>
      <trkpt lat="-21.20733" lon="55.32522">
        <ele>587.22332763672</ele>
        <time>2012-11-06T07:06:19Z</time>
      </trkpt>
      <trkpt lat="-21.20731" lon="55.32522">
        <ele>587.47882080078</ele>
        <time>2012-11-06T07:06:20Z</time>
      </trkpt>
      <trkpt lat="-21.2073" lon="55.32522">
        <ele>587.71203613281</ele>
        <time>2012-11-06T07:06:21Z</time>
      </trkpt>
      <trkpt lat="-21.20727" lon="55.32521">
        <ele>588.15679931641</ele>
        <time>2012-11-06T07:06:23Z</time>
      </trkpt>
      <trkpt lat="-21.20725" lon="55.32521">
        <ele>588.28057861328</ele>
        <time>2012-11-06T07:06:24Z</time>
      </trkpt>
      <trkpt lat="-21.20724" lon="55.3252">
        <ele>588.04522705078</ele>
        <time>2012-11-06T07:06:25Z</time>
      </trkpt>
      <trkpt lat="-21.20721" lon="55.32521">
        <ele>590.31860351562</ele>
        <time>2012-11-06T07:06:27Z</time>
      </trkpt>
      <trkpt lat="-21.20717" lon="55.32522">
        <ele>589.83673095703</ele>
        <time>2012-11-06T07:06:29Z</time>
      </trkpt>
      <trkpt lat="-21.20715" lon="55.32524">
        <ele>590.34338378906</ele>
        <time>2012-11-06T07:06:31Z</time>
      </trkpt>
      <trkpt lat="-21.20715" lon="55.32525">
        <ele>590.45678710938</ele>
        <time>2012-11-06T07:06:32Z</time>
      </trkpt>
      <trkpt lat="-21.20714" lon="55.32526">
        <ele>590.77252197266</ele>
        <time>2012-11-06T07:06:33Z</time>
      </trkpt>
      <trkpt lat="-21.20715" lon="55.32529">
        <ele>591.84307861328</ele>
        <time>2012-11-06T07:06:35Z</time>
      </trkpt>
      <trkpt lat="-21.20716" lon="55.3253">
        <ele>592.22546386719</ele>
        <time>2012-11-06T07:06:36Z</time>
      </trkpt>
      <trkpt lat="-21.20718" lon="55.32532">
        <ele>592.66259765625</ele>
        <time>2012-11-06T07:06:38Z</time>
      </trkpt>
      <trkpt lat="-21.2072" lon="55.32535">
        <ele>592.90521240234</ele>
        <time>2012-11-06T07:06:40Z</time>
      </trkpt>
      <trkpt lat="-21.20722" lon="55.32537">
        <ele>593.61059570312</ele>
        <time>2012-11-06T07:06:42Z</time>
      </trkpt>
      <trkpt lat="-21.20724" lon="55.3254">
        <ele>594.60357666016</ele>
        <time>2012-11-06T07:06:44Z</time>
      </trkpt>
      <trkpt lat="-21.20725" lon="55.32542">
        <ele>596.54675292969</ele>
        <time>2012-11-06T07:06:46Z</time>
      </trkpt>
      <trkpt lat="-21.20727" lon="55.32545">
        <ele>596.35235595703</ele>
        <time>2012-11-06T07:06:48Z</time>
      </trkpt>
      <trkpt lat="-21.20728" lon="55.32548">
        <ele>596.08166503906</ele>
        <time>2012-11-06T07:06:50Z</time>
      </trkpt>
      <trkpt lat="-21.20728" lon="55.32549">
        <ele>596.03369140625</ele>
        <time>2012-11-06T07:06:51Z</time>
      </trkpt>
      <trkpt lat="-21.20728" lon="55.32553">
        <ele>596.26544189453</ele>
        <time>2012-11-06T07:06:53Z</time>
      </trkpt>
      <trkpt lat="-21.20729" lon="55.32555">
        <ele>597.12249755859</ele>
        <time>2012-11-06T07:06:55Z</time>
      </trkpt>
      <trkpt lat="-21.2073" lon="55.32557">
        <ele>597.10552978516</ele>
        <time>2012-11-06T07:06:56Z</time>
      </trkpt>
      <trkpt lat="-21.20731" lon="55.3256">
        <ele>596.41052246094</ele>
        <time>2012-11-06T07:06:58Z</time>
      </trkpt>
      <trkpt lat="-21.20733" lon="55.32563">
        <ele>596.05743408203</ele>
        <time>2012-11-06T07:07:00Z</time>
      </trkpt>
      <trkpt lat="-21.20734" lon="55.32564">
        <ele>596.44390869141</ele>
        <time>2012-11-06T07:07:01Z</time>
      </trkpt>
      <trkpt lat="-21.20734" lon="55.32567">
        <ele>597.70098876953</ele>
        <time>2012-11-06T07:07:03Z</time>
      </trkpt>
      <trkpt lat="-21.20735" lon="55.32568">
        <ele>598.53088378906</ele>
        <time>2012-11-06T07:07:04Z</time>
      </trkpt>
      <trkpt lat="-21.20735" lon="55.32569">
        <ele>599.06506347656</ele>
        <time>2012-11-06T07:07:05Z</time>
      </trkpt>
      <trkpt lat="-21.20736" lon="55.32572">
        <ele>599.22454833984</ele>
        <time>2012-11-06T07:07:07Z</time>
      </trkpt>
      <trkpt lat="-21.20736" lon="55.32573">
        <ele>599.18231201172</ele>
        <time>2012-11-06T07:07:08Z</time>
      </trkpt>
      <trkpt lat="-21.20737" lon="55.32575">
        <ele>599.20227050781</ele>
        <time>2012-11-06T07:07:09Z</time>
      </trkpt>
      <trkpt lat="-21.20737" lon="55.32576">
        <ele>599.33294677734</ele>
        <time>2012-11-06T07:07:10Z</time>
      </trkpt>
      <trkpt lat="-21.20738" lon="55.32577">
        <ele>599.31707763672</ele>
        <time>2012-11-06T07:07:11Z</time>
      </trkpt>
      <trkpt lat="-21.20739" lon="55.3258">
        <ele>598.80859375</ele>
        <time>2012-11-06T07:07:13Z</time>
      </trkpt>
      <trkpt lat="-21.2074" lon="55.32582">
        <ele>598.94415283203</ele>
        <time>2012-11-06T07:07:14Z</time>
      </trkpt>
      <trkpt lat="-21.20741" lon="55.32585">
        <ele>598.26080322266</ele>
        <time>2012-11-06T07:07:16Z</time>
      </trkpt>
      <trkpt lat="-21.20742" lon="55.32588">
        <ele>599.13793945312</ele>
        <time>2012-11-06T07:07:18Z</time>
      </trkpt>
      <trkpt lat="-21.20743" lon="55.32589">
        <ele>598.97399902344</ele>
        <time>2012-11-06T07:07:19Z</time>
      </trkpt>
      <trkpt lat="-21.20745" lon="55.32591">
        <ele>598.90551757812</ele>
        <time>2012-11-06T07:07:21Z</time>
      </trkpt>
      <trkpt lat="-21.20746" lon="55.32592">
        <ele>598.56536865234</ele>
        <time>2012-11-06T07:07:22Z</time>
      </trkpt>
      <trkpt lat="-21.20749" lon="55.32595">
        <ele>598.87384033203</ele>
        <time>2012-11-06T07:07:24Z</time>
      </trkpt>
      <trkpt lat="-21.20751" lon="55.32596">
        <ele>599.19219970703</ele>
        <time>2012-11-06T07:07:26Z</time>
      </trkpt>
      <trkpt lat="-21.20754" lon="55.32597">
        <ele>599.40631103516</ele>
        <time>2012-11-06T07:07:28Z</time>
      </trkpt>
      <trkpt lat="-21.20756" lon="55.32598">
        <ele>603.22515869141</ele>
        <time>2012-11-06T07:07:30Z</time>
      </trkpt>
      <trkpt lat="-21.20758" lon="55.32598">
        <ele>603.51702880859</ele>
        <time>2012-11-06T07:07:31Z</time>
      </trkpt>
      <trkpt lat="-21.20761" lon="55.32599">
        <ele>603.89416503906</ele>
        <time>2012-11-06T07:07:33Z</time>
      </trkpt>
      <trkpt lat="-21.20765" lon="55.32599">
        <ele>604.01306152344</ele>
        <time>2012-11-06T07:07:35Z</time>
      </trkpt>
      <trkpt lat="-21.20768" lon="55.326">
        <ele>603.7705078125</ele>
        <time>2012-11-06T07:07:36Z</time>
      </trkpt>
      <trkpt lat="-21.2077" lon="55.326">
        <ele>603.90631103516</ele>
        <time>2012-11-06T07:07:38Z</time>
      </trkpt>
      <trkpt lat="-21.20773" lon="55.32599">
        <ele>603.55682373047</ele>
        <time>2012-11-06T07:07:40Z</time>
      </trkpt>
      <trkpt lat="-21.20775" lon="55.32599">
        <ele>603.09252929688</ele>
        <time>2012-11-06T07:07:41Z</time>
      </trkpt>
      <trkpt lat="-21.20777" lon="55.32599">
        <ele>602.63262939453</ele>
        <time>2012-11-06T07:07:42Z</time>
      </trkpt>
      <trkpt lat="-21.20779" lon="55.32599">
        <ele>602.78479003906</ele>
        <time>2012-11-06T07:07:43Z</time>
      </trkpt>
      <trkpt lat="-21.20781" lon="55.32598">
        <ele>602.72473144531</ele>
        <time>2012-11-06T07:07:44Z</time>
      </trkpt>
      <trkpt lat="-21.20787" lon="55.32598">
        <ele>602.83203125</ele>
        <time>2012-11-06T07:07:46Z</time>
      </trkpt>
      <trkpt lat="-21.20792" lon="55.32597">
        <ele>603.13342285156</ele>
        <time>2012-11-06T07:07:48Z</time>
      </trkpt>
      <trkpt lat="-21.20794" lon="55.32597">
        <ele>603.39019775391</ele>
        <time>2012-11-06T07:07:49Z</time>
      </trkpt>
      <trkpt lat="-21.20798" lon="55.32596">
        <ele>603.60681152344</ele>
        <time>2012-11-06T07:07:50Z</time>
      </trkpt>
      <trkpt lat="-21.208" lon="55.32595">
        <ele>603.90972900391</ele>
        <time>2012-11-06T07:07:52Z</time>
      </trkpt>
      <trkpt lat="-21.20802" lon="55.32595">
        <ele>604.29638671875</ele>
        <time>2012-11-06T07:07:53Z</time>
      </trkpt>
      <trkpt lat="-21.20806" lon="55.32594">
        <ele>605.56433105469</ele>
        <time>2012-11-06T07:07:55Z</time>
      </trkpt>
      <trkpt lat="-21.2081" lon="55.32595">
        <ele>606.09167480469</ele>
        <time>2012-11-06T07:07:57Z</time>
      </trkpt>
      <trkpt lat="-21.20812" lon="55.32596">
        <ele>606.3857421875</ele>
        <time>2012-11-06T07:07:58Z</time>
      </trkpt>
      <trkpt lat="-21.20813" lon="55.32599">
        <ele>606.57202148438</ele>
        <time>2012-11-06T07:08:00Z</time>
      </trkpt>
      <trkpt lat="-21.20813" lon="55.32601">
        <ele>606.24633789062</ele>
        <time>2012-11-06T07:08:01Z</time>
      </trkpt>
      <trkpt lat="-21.20812" lon="55.32603">
        <ele>606.29864501953</ele>
        <time>2012-11-06T07:08:02Z</time>
      </trkpt>
      <trkpt lat="-21.20811" lon="55.32604">
        <ele>608.39013671875</ele>
        <time>2012-11-06T07:08:03Z</time>
      </trkpt>
      <trkpt lat="-21.20809" lon="55.32605">
        <ele>609.11462402344</ele>
        <time>2012-11-06T07:08:04Z</time>
      </trkpt>
      <trkpt lat="-21.20808" lon="55.32606">
        <ele>609.50286865234</ele>
        <time>2012-11-06T07:08:05Z</time>
      </trkpt>
      <trkpt lat="-21.20805" lon="55.32607">
        <ele>608.55932617188</ele>
        <time>2012-11-06T07:08:07Z</time>
      </trkpt>
      <trkpt lat="-21.20803" lon="55.32606">
        <ele>608.78015136719</ele>
        <time>2012-11-06T07:08:08Z</time>
      </trkpt>
      <trkpt lat="-21.208" lon="55.32606">
        <ele>610.29132080078</ele>
        <time>2012-11-06T07:08:10Z</time>
      </trkpt>
      <trkpt lat="-21.20797" lon="55.32606">
        <ele>610.94384765625</ele>
        <time>2012-11-06T07:08:12Z</time>
      </trkpt>
      <trkpt lat="-21.20796" lon="55.32607">
        <ele>610.70697021484</ele>
        <time>2012-11-06T07:08:13Z</time>
      </trkpt>
      <trkpt lat="-21.20794" lon="55.32608">
        <ele>612.01776123047</ele>
        <time>2012-11-06T07:08:15Z</time>
      </trkpt>
      <trkpt lat="-21.20791" lon="55.32609">
        <ele>611.96813964844</ele>
        <time>2012-11-06T07:08:17Z</time>
      </trkpt>
      <trkpt lat="-21.20789" lon="55.3261">
        <ele>611.7509765625</ele>
        <time>2012-11-06T07:08:18Z</time>
      </trkpt>
      <trkpt lat="-21.20788" lon="55.32611">
        <ele>610.44299316406</ele>
        <time>2012-11-06T07:08:19Z</time>
      </trkpt>
      <trkpt lat="-21.20785" lon="55.32613">
        <ele>611.47003173828</ele>
        <time>2012-11-06T07:08:21Z</time>
      </trkpt>
      <trkpt lat="-21.20782" lon="55.32615">
        <ele>612.00311279297</ele>
        <time>2012-11-06T07:08:23Z</time>
      </trkpt>
      <trkpt lat="-21.2078" lon="55.32618">
        <ele>611.12493896484</ele>
        <time>2012-11-06T07:08:25Z</time>
      </trkpt>
      <trkpt lat="-21.20777" lon="55.32621">
        <ele>611.51531982422</ele>
        <time>2012-11-06T07:08:27Z</time>
      </trkpt>
      <trkpt lat="-21.20773" lon="55.32623">
        <ele>609.82177734375</ele>
        <time>2012-11-06T07:08:29Z</time>
      </trkpt>
      <trkpt lat="-21.20772" lon="55.32624">
        <ele>609.83746337891</ele>
        <time>2012-11-06T07:08:30Z</time>
      </trkpt>
      <trkpt lat="-21.20768" lon="55.32626">
        <ele>612.76165771484</ele>
        <time>2012-11-06T07:08:31Z</time>
      </trkpt>
      <trkpt lat="-21.20766" lon="55.32628">
        <ele>611.33752441406</ele>
        <time>2012-11-06T07:08:33Z</time>
      </trkpt>
      <trkpt lat="-21.20764" lon="55.32629">
        <ele>610.75750732422</ele>
        <time>2012-11-06T07:08:34Z</time>
      </trkpt>
      <trkpt lat="-21.20763" lon="55.3263">
        <ele>611.69317626953</ele>
        <time>2012-11-06T07:08:35Z</time>
      </trkpt>
      <trkpt lat="-21.20762" lon="55.32631">
        <ele>611.76812744141</ele>
        <time>2012-11-06T07:08:36Z</time>
      </trkpt>
      <trkpt lat="-21.2076" lon="55.32633">
        <ele>611.71649169922</ele>
        <time>2012-11-06T07:08:38Z</time>
      </trkpt>
      <trkpt lat="-21.20758" lon="55.32634">
        <ele>611.03948974609</ele>
        <time>2012-11-06T07:08:39Z</time>
      </trkpt>
      <trkpt lat="-21.20756" lon="55.32636">
        <ele>611.44396972656</ele>
        <time>2012-11-06T07:08:40Z</time>
      </trkpt>
      <trkpt lat="-21.20754" lon="55.32637">
        <ele>609.82873535156</ele>
        <time>2012-11-06T07:08:41Z</time>
      </trkpt>
      <trkpt lat="-21.20751" lon="55.32641">
        <ele>609.38049316406</ele>
        <time>2012-11-06T07:08:43Z</time>
      </trkpt>
      <trkpt lat="-21.20749" lon="55.32642">
        <ele>609.53820800781</ele>
        <time>2012-11-06T07:08:44Z</time>
      </trkpt>
      <trkpt lat="-21.20746" lon="55.32644">
        <ele>611.07989501953</ele>
        <time>2012-11-06T07:08:46Z</time>
      </trkpt>
      <trkpt lat="-21.20742" lon="55.32646">
        <ele>611.45373535156</ele>
        <time>2012-11-06T07:08:48Z</time>
      </trkpt>
      <trkpt lat="-21.20737" lon="55.32648">
        <ele>611.39306640625</ele>
        <time>2012-11-06T07:08:50Z</time>
      </trkpt>
      <trkpt lat="-21.20733" lon="55.3265">
        <ele>613.59265136719</ele>
        <time>2012-11-06T07:08:52Z</time>
      </trkpt>
      <trkpt lat="-21.2073" lon="55.3265">
        <ele>615.08972167969</ele>
        <time>2012-11-06T07:08:54Z</time>
      </trkpt>
      <trkpt lat="-21.20728" lon="55.3265">
        <ele>615.66131591797</ele>
        <time>2012-11-06T07:08:55Z</time>
      </trkpt>
      <trkpt lat="-21.20726" lon="55.32651">
        <ele>616.09460449219</ele>
        <time>2012-11-06T07:08:56Z</time>
      </trkpt>
      <trkpt lat="-21.20724" lon="55.32651">
        <ele>615.8916015625</ele>
        <time>2012-11-06T07:08:57Z</time>
      </trkpt>
      <trkpt lat="-21.20721" lon="55.32651">
        <ele>616.76226806641</ele>
        <time>2012-11-06T07:08:59Z</time>
      </trkpt>
      <trkpt lat="-21.20717" lon="55.32651">
        <ele>616.21954345703</ele>
        <time>2012-11-06T07:09:01Z</time>
      </trkpt>
      <trkpt lat="-21.20713" lon="55.32651">
        <ele>616.33532714844</ele>
        <time>2012-11-06T07:09:03Z</time>
      </trkpt>
      <trkpt lat="-21.20711" lon="55.32651">
        <ele>616.14831542969</ele>
        <time>2012-11-06T07:09:04Z</time>
      </trkpt>
      <trkpt lat="-21.20708" lon="55.3265">
        <ele>615.83856201172</ele>
        <time>2012-11-06T07:09:06Z</time>
      </trkpt>
      <trkpt lat="-21.20704" lon="55.3265">
        <ele>616.85198974609</ele>
        <time>2012-11-06T07:09:08Z</time>
      </trkpt>
      <trkpt lat="-21.20702" lon="55.3265">
        <ele>616.99426269531</ele>
        <time>2012-11-06T07:09:09Z</time>
      </trkpt>
      <trkpt lat="-21.20699" lon="55.32648">
        <ele>617.04174804688</ele>
        <time>2012-11-06T07:09:11Z</time>
      </trkpt>
      <trkpt lat="-21.20696" lon="55.32648">
        <ele>617.21313476562</ele>
        <time>2012-11-06T07:09:13Z</time>
      </trkpt>
      <trkpt lat="-21.20694" lon="55.32648">
        <ele>617.31262207031</ele>
        <time>2012-11-06T07:09:14Z</time>
      </trkpt>
      <trkpt lat="-21.20691" lon="55.32647">
        <ele>617.43103027344</ele>
        <time>2012-11-06T07:09:16Z</time>
      </trkpt>
      <trkpt lat="-21.20688" lon="55.32646">
        <ele>618.09881591797</ele>
        <time>2012-11-06T07:09:18Z</time>
      </trkpt>
      <trkpt lat="-21.20685" lon="55.32646">
        <ele>619.08117675781</ele>
        <time>2012-11-06T07:09:20Z</time>
      </trkpt>
      <trkpt lat="-21.20683" lon="55.32646">
        <ele>619.56359863281</ele>
        <time>2012-11-06T07:09:21Z</time>
      </trkpt>
      <trkpt lat="-21.2068" lon="55.32645">
        <ele>620.20654296875</ele>
        <time>2012-11-06T07:09:23Z</time>
      </trkpt>
      <trkpt lat="-21.20679" lon="55.32645">
        <ele>620.28942871094</ele>
        <time>2012-11-06T07:09:24Z</time>
      </trkpt>
      <trkpt lat="-21.20676" lon="55.32645">
        <ele>620.18145751953</ele>
        <time>2012-11-06T07:09:26Z</time>
      </trkpt>
      <trkpt lat="-21.20675" lon="55.32646">
        <ele>621.06573486328</ele>
        <time>2012-11-06T07:09:28Z</time>
      </trkpt>
      <trkpt lat="-21.20674" lon="55.32648">
        <ele>621.15698242188</ele>
        <time>2012-11-06T07:09:30Z</time>
      </trkpt>
      <trkpt lat="-21.20673" lon="55.3265">
        <ele>622.93927001953</ele>
        <time>2012-11-06T07:09:31Z</time>
      </trkpt>
      <trkpt lat="-21.20673" lon="55.32653">
        <ele>622.96893310547</ele>
        <time>2012-11-06T07:09:33Z</time>
      </trkpt>
      <trkpt lat="-21.20675" lon="55.32656">
        <ele>622.28216552734</ele>
        <time>2012-11-06T07:09:35Z</time>
      </trkpt>
      <trkpt lat="-21.20677" lon="55.32658">
        <ele>622.70642089844</ele>
        <time>2012-11-06T07:09:37Z</time>
      </trkpt>
      <trkpt lat="-21.20679" lon="55.32659">
        <ele>622.79974365234</ele>
        <time>2012-11-06T07:09:38Z</time>
      </trkpt>
      <trkpt lat="-21.2068" lon="55.3266">
        <ele>623.13452148438</ele>
        <time>2012-11-06T07:09:39Z</time>
      </trkpt>
      <trkpt lat="-21.20682" lon="55.32662">
        <ele>623.69665527344</ele>
        <time>2012-11-06T07:09:41Z</time>
      </trkpt>
      <trkpt lat="-21.20685" lon="55.32664">
        <ele>624.69567871094</ele>
        <time>2012-11-06T07:09:43Z</time>
      </trkpt>
      <trkpt lat="-21.20688" lon="55.32665">
        <ele>625.19750976562</ele>
        <time>2012-11-06T07:09:45Z</time>
      </trkpt>
      <trkpt lat="-21.20691" lon="55.32667">
        <ele>624.80932617188</ele>
        <time>2012-11-06T07:09:47Z</time>
      </trkpt>
      <trkpt lat="-21.20692" lon="55.32668">
        <ele>624.83074951172</ele>
        <time>2012-11-06T07:09:48Z</time>
      </trkpt>
      <trkpt lat="-21.20694" lon="55.32669">
        <ele>624.41973876953</ele>
        <time>2012-11-06T07:09:49Z</time>
      </trkpt>
      <trkpt lat="-21.20696" lon="55.32671">
        <ele>624.22845458984</ele>
        <time>2012-11-06T07:09:51Z</time>
      </trkpt>
      <trkpt lat="-21.20698" lon="55.32673">
        <ele>624.35266113281</ele>
        <time>2012-11-06T07:09:53Z</time>
      </trkpt>
      <trkpt lat="-21.20701" lon="55.32676">
        <ele>624.587890625</ele>
        <time>2012-11-06T07:09:55Z</time>
      </trkpt>
      <trkpt lat="-21.20704" lon="55.32677">
        <ele>624.81848144531</ele>
        <time>2012-11-06T07:09:57Z</time>
      </trkpt>
      <trkpt lat="-21.20706" lon="55.32679">
        <ele>625.14984130859</ele>
        <time>2012-11-06T07:09:59Z</time>
      </trkpt>
      <trkpt lat="-21.20709" lon="55.32681">
        <ele>625.73101806641</ele>
        <time>2012-11-06T07:10:01Z</time>
      </trkpt>
      <trkpt lat="-21.20711" lon="55.32682">
        <ele>626.12219238281</ele>
        <time>2012-11-06T07:10:03Z</time>
      </trkpt>
      <trkpt lat="-21.20712" lon="55.32683">
        <ele>626.47863769531</ele>
        <time>2012-11-06T07:10:04Z</time>
      </trkpt>
      <trkpt lat="-21.20714" lon="55.32684">
        <ele>626.84857177734</ele>
        <time>2012-11-06T07:10:05Z</time>
      </trkpt>
      <trkpt lat="-21.20716" lon="55.32685">
        <ele>627.48199462891</ele>
        <time>2012-11-06T07:10:07Z</time>
      </trkpt>
      <trkpt lat="-21.20717" lon="55.32685">
        <ele>627.69860839844</ele>
        <time>2012-11-06T07:10:08Z</time>
      </trkpt>
      <trkpt lat="-21.20719" lon="55.32685">
        <ele>627.87030029297</ele>
        <time>2012-11-06T07:10:09Z</time>
      </trkpt>
      <trkpt lat="-21.20721" lon="55.32686">
        <ele>628.73431396484</ele>
        <time>2012-11-06T07:10:11Z</time>
      </trkpt>
      <trkpt lat="-21.20724" lon="55.32688">
        <ele>629.18957519531</ele>
        <time>2012-11-06T07:10:13Z</time>
      </trkpt>
      <trkpt lat="-21.20726" lon="55.32689">
        <ele>630.50598144531</ele>
        <time>2012-11-06T07:10:15Z</time>
      </trkpt>
      <trkpt lat="-21.20728" lon="55.3269">
        <ele>630.57531738281</ele>
        <time>2012-11-06T07:10:16Z</time>
      </trkpt>
      <trkpt lat="-21.2073" lon="55.32692">
        <ele>629.61242675781</ele>
        <time>2012-11-06T07:10:18Z</time>
      </trkpt>
      <trkpt lat="-21.20731" lon="55.32694">
        <ele>630.38031005859</ele>
        <time>2012-11-06T07:10:20Z</time>
      </trkpt>
      <trkpt lat="-21.20732" lon="55.32695">
        <ele>632.09411621094</ele>
        <time>2012-11-06T07:10:21Z</time>
      </trkpt>
      <trkpt lat="-21.20731" lon="55.32697">
        <ele>632.82269287109</ele>
        <time>2012-11-06T07:10:23Z</time>
      </trkpt>
      <trkpt lat="-21.20731" lon="55.32699">
        <ele>631.56225585938</ele>
        <time>2012-11-06T07:10:24Z</time>
      </trkpt>
      <trkpt lat="-21.20731" lon="55.32702">
        <ele>631.92993164062</ele>
        <time>2012-11-06T07:10:26Z</time>
      </trkpt>
      <trkpt lat="-21.2073" lon="55.32704">
        <ele>630.88336181641</ele>
        <time>2012-11-06T07:10:28Z</time>
      </trkpt>
      <trkpt lat="-21.2073" lon="55.32704">
        <ele>628.95074462891</ele>
        <time>2012-11-06T07:10:29Z</time>
      </trkpt>
      <trkpt lat="-21.20728" lon="55.32705">
        <ele>631.24645996094</ele>
        <time>2012-11-06T07:10:31Z</time>
      </trkpt>
      <trkpt lat="-21.20725" lon="55.32706">
        <ele>636.52801513672</ele>
        <time>2012-11-06T07:10:33Z</time>
      </trkpt>
      <trkpt lat="-21.20723" lon="55.32706">
        <ele>634.54125976562</ele>
        <time>2012-11-06T07:10:35Z</time>
      </trkpt>
      <trkpt lat="-21.20723" lon="55.32706">
        <ele>634.04852294922</ele>
        <time>2012-11-06T07:10:36Z</time>
      </trkpt>
      <trkpt lat="-21.20723" lon="55.32706">
        <ele>637.05432128906</ele>
        <time>2012-11-06T07:10:38Z</time>
      </trkpt>
      <trkpt lat="-21.20723" lon="55.32706">
        <ele>637.93249511719</ele>
        <time>2012-11-06T07:10:39Z</time>
      </trkpt>
      <trkpt lat="-21.20723" lon="55.32706">
        <ele>638.55346679688</ele>
        <time>2012-11-06T07:10:40Z</time>
      </trkpt>
      <trkpt lat="-21.20723" lon="55.32706">
        <ele>639.41052246094</ele>
        <time>2012-11-06T07:10:41Z</time>
      </trkpt>
      <trkpt lat="-21.20723" lon="55.32706">
        <ele>639.41052246094</ele>
        <time>2012-11-06T07:10:41Z</time>
      </trkpt>
      <trkpt lat="-21.20723" lon="55.32706">
        <ele>639.41052246094</ele>
        <time>2012-11-06T07:10:41Z</time>
      </trkpt>
      <trkpt lat="-21.20722" lon="55.32706">
        <ele>636.52642822266</ele>
        <time>2012-11-06T07:10:43Z</time>
      </trkpt>
      <trkpt lat="-21.20722" lon="55.32706">
        <ele>636.52642822266</ele>
        <time>2012-11-06T07:10:43Z</time>
      </trkpt>
      <trkpt lat="-21.20721" lon="55.32705">
        <ele>634.20568847656</ele>
        <time>2012-11-06T07:10:44Z</time>
      </trkpt>
      <trkpt lat="-21.20721" lon="55.32705">
        <ele>634.20568847656</ele>
        <time>2012-11-06T07:10:44Z</time>
      </trkpt>
      <trkpt lat="-21.20718" lon="55.32705">
        <ele>633.18347167969</ele>
        <time>2012-11-06T07:10:46Z</time>
      </trkpt>
      <trkpt lat="-21.20718" lon="55.32705">
        <ele>633.18347167969</ele>
        <time>2012-11-06T07:10:46Z</time>
      </trkpt>
      <trkpt lat="-21.20716" lon="55.32706">
        <ele>629.97302246094</ele>
        <time>2012-11-06T07:10:47Z</time>
      </trkpt>
      <trkpt lat="-21.20714" lon="55.32706">
        <ele>630.13745117188</ele>
        <time>2012-11-06T07:10:49Z</time>
      </trkpt>
      <trkpt lat="-21.2071" lon="55.32706">
        <ele>631.12158203125</ele>
        <time>2012-11-06T07:10:51Z</time>
      </trkpt>
      <trkpt lat="-21.20707" lon="55.32705">
        <ele>633.25634765625</ele>
        <time>2012-11-06T07:10:53Z</time>
      </trkpt>
      <trkpt lat="-21.20705" lon="55.32705">
        <ele>632.91040039062</ele>
        <time>2012-11-06T07:10:54Z</time>
      </trkpt>
      <trkpt lat="-21.20701" lon="55.32705">
        <ele>631.80688476562</ele>
        <time>2012-11-06T07:10:56Z</time>
      </trkpt>
      <trkpt lat="-21.207" lon="55.32705">
        <ele>632.99517822266</ele>
        <time>2012-11-06T07:10:57Z</time>
      </trkpt>
      <trkpt lat="-21.20698" lon="55.32704">
        <ele>633.24169921875</ele>
        <time>2012-11-06T07:10:58Z</time>
      </trkpt>
      <trkpt lat="-21.20695" lon="55.32704">
        <ele>633.6435546875</ele>
        <time>2012-11-06T07:11:00Z</time>
      </trkpt>
      <trkpt lat="-21.20693" lon="55.32703">
        <ele>634.26245117188</ele>
        <time>2012-11-06T07:11:02Z</time>
      </trkpt>
      <trkpt lat="-21.20691" lon="55.32703">
        <ele>635.45324707031</ele>
        <time>2012-11-06T07:11:03Z</time>
      </trkpt>
      <trkpt lat="-21.20688" lon="55.32703">
        <ele>636.09027099609</ele>
        <time>2012-11-06T07:11:04Z</time>
      </trkpt>
      <trkpt lat="-21.20684" lon="55.32703">
        <ele>636.73083496094</ele>
        <time>2012-11-06T07:11:06Z</time>
      </trkpt>
      <trkpt lat="-21.2068" lon="55.32703">
        <ele>636.46258544922</ele>
        <time>2012-11-06T07:11:08Z</time>
      </trkpt>
      <trkpt lat="-21.20677" lon="55.32703">
        <ele>636.62164306641</ele>
        <time>2012-11-06T07:11:10Z</time>
      </trkpt>
      <trkpt lat="-21.20674" lon="55.32703">
        <ele>636.44720458984</ele>
        <time>2012-11-06T07:11:12Z</time>
      </trkpt>
      <trkpt lat="-21.20673" lon="55.32703">
        <ele>636.64044189453</ele>
        <time>2012-11-06T07:11:13Z</time>
      </trkpt>
      <trkpt lat="-21.2067" lon="55.32703">
        <ele>637.10437011719</ele>
        <time>2012-11-06T07:11:15Z</time>
      </trkpt>
      <trkpt lat="-21.20668" lon="55.32703">
        <ele>637.32641601562</ele>
        <time>2012-11-06T07:11:16Z</time>
      </trkpt>
      <trkpt lat="-21.20665" lon="55.32703">
        <ele>637.48748779297</ele>
        <time>2012-11-06T07:11:18Z</time>
      </trkpt>
      <trkpt lat="-21.20661" lon="55.32702">
        <ele>637.94854736328</ele>
        <time>2012-11-06T07:11:20Z</time>
      </trkpt>
      <trkpt lat="-21.20659" lon="55.32702">
        <ele>638.09161376953</ele>
        <time>2012-11-06T07:11:21Z</time>
      </trkpt>
      <trkpt lat="-21.20655" lon="55.32702">
        <ele>637.69274902344</ele>
        <time>2012-11-06T07:11:23Z</time>
      </trkpt>
      <trkpt lat="-21.20653" lon="55.32701">
        <ele>637.92565917969</ele>
        <time>2012-11-06T07:11:24Z</time>
      </trkpt>
      <trkpt lat="-21.20649" lon="55.32701">
        <ele>638.66369628906</ele>
        <time>2012-11-06T07:11:25Z</time>
      </trkpt>
      <trkpt lat="-21.20647" lon="55.32701">
        <ele>638.90344238281</ele>
        <time>2012-11-06T07:11:27Z</time>
      </trkpt>
      <trkpt lat="-21.20644" lon="55.327">
        <ele>638.57739257812</ele>
        <time>2012-11-06T07:11:29Z</time>
      </trkpt>
      <trkpt lat="-21.20639" lon="55.32699">
        <ele>637.67712402344</ele>
        <time>2012-11-06T07:11:31Z</time>
      </trkpt>
      <trkpt lat="-21.20637" lon="55.32698">
        <ele>638.21215820312</ele>
        <time>2012-11-06T07:11:32Z</time>
      </trkpt>
      <trkpt lat="-21.20635" lon="55.32698">
        <ele>637.61737060547</ele>
        <time>2012-11-06T07:11:33Z</time>
      </trkpt>
      <trkpt lat="-21.2063" lon="55.32698">
        <ele>636.79431152344</ele>
        <time>2012-11-06T07:11:35Z</time>
      </trkpt>
      <trkpt lat="-21.20625" lon="55.32699">
        <ele>637.17456054688</ele>
        <time>2012-11-06T07:11:37Z</time>
      </trkpt>
      <trkpt lat="-21.20623" lon="55.32702">
        <ele>638.49230957031</ele>
        <time>2012-11-06T07:11:39Z</time>
      </trkpt>
      <trkpt lat="-21.20622" lon="55.32704">
        <ele>639.85430908203</ele>
        <time>2012-11-06T07:11:40Z</time>
      </trkpt>
      <trkpt lat="-21.20623" lon="55.32708">
        <ele>641.06689453125</ele>
        <time>2012-11-06T07:11:42Z</time>
      </trkpt>
      <trkpt lat="-21.20624" lon="55.32709">
        <ele>643.45806884766</ele>
        <time>2012-11-06T07:11:43Z</time>
      </trkpt>
      <trkpt lat="-21.20627" lon="55.32712">
        <ele>643.60809326172</ele>
        <time>2012-11-06T07:11:45Z</time>
      </trkpt>
      <trkpt lat="-21.2063" lon="55.32715">
        <ele>643.19116210938</ele>
        <time>2012-11-06T07:11:47Z</time>
      </trkpt>
      <trkpt lat="-21.20631" lon="55.32717">
        <ele>643.75451660156</ele>
        <time>2012-11-06T07:11:48Z</time>
      </trkpt>
      <trkpt lat="-21.20634" lon="55.3272">
        <ele>645.89477539062</ele>
        <time>2012-11-06T07:11:50Z</time>
      </trkpt>
      <trkpt lat="-21.20635" lon="55.32722">
        <ele>645.98522949219</ele>
        <time>2012-11-06T07:11:51Z</time>
      </trkpt>
      <trkpt lat="-21.20637" lon="55.32725">
        <ele>646.64556884766</ele>
        <time>2012-11-06T07:11:53Z</time>
      </trkpt>
      <trkpt lat="-21.20638" lon="55.32727">
        <ele>646.69757080078</ele>
        <time>2012-11-06T07:11:54Z</time>
      </trkpt>
      <trkpt lat="-21.20641" lon="55.3273">
        <ele>645.59509277344</ele>
        <time>2012-11-06T07:11:56Z</time>
      </trkpt>
      <trkpt lat="-21.20642" lon="55.32732">
        <ele>646.32739257812</ele>
        <time>2012-11-06T07:11:57Z</time>
      </trkpt>
      <trkpt lat="-21.20643" lon="55.32735">
        <ele>646.52844238281</ele>
        <time>2012-11-06T07:11:59Z</time>
      </trkpt>
      <trkpt lat="-21.20644" lon="55.32739">
        <ele>648.01477050781</ele>
        <time>2012-11-06T07:12:01Z</time>
      </trkpt>
      <trkpt lat="-21.20645" lon="55.32742">
        <ele>647.95495605469</ele>
        <time>2012-11-06T07:12:03Z</time>
      </trkpt>
      <trkpt lat="-21.20646" lon="55.32746">
        <ele>648.14532470703</ele>
        <time>2012-11-06T07:12:05Z</time>
      </trkpt>
      <trkpt lat="-21.20647" lon="55.32749">
        <ele>647.75714111328</ele>
        <time>2012-11-06T07:12:07Z</time>
      </trkpt>
      <trkpt lat="-21.20647" lon="55.32752">
        <ele>648.67669677734</ele>
        <time>2012-11-06T07:12:09Z</time>
      </trkpt>
      <trkpt lat="-21.20648" lon="55.32755">
        <ele>647.64569091797</ele>
        <time>2012-11-06T07:12:10Z</time>
      </trkpt>
      <trkpt lat="-21.20648" lon="55.32758">
        <ele>648.03967285156</ele>
        <time>2012-11-06T07:12:12Z</time>
      </trkpt>
      <trkpt lat="-21.20648" lon="55.3276">
        <ele>649.19226074219</ele>
        <time>2012-11-06T07:12:13Z</time>
      </trkpt>
      <trkpt lat="-21.20648" lon="55.32763">
        <ele>650.037109375</ele>
        <time>2012-11-06T07:12:14Z</time>
      </trkpt>
      <trkpt lat="-21.20647" lon="55.32765">
        <ele>648.92736816406</ele>
        <time>2012-11-06T07:12:16Z</time>
      </trkpt>
      <trkpt lat="-21.20646" lon="55.32767">
        <ele>647.86706542969</ele>
        <time>2012-11-06T07:12:17Z</time>
      </trkpt>
      <trkpt lat="-21.20644" lon="55.32769">
        <ele>648.60485839844</ele>
        <time>2012-11-06T07:12:19Z</time>
      </trkpt>
      <trkpt lat="-21.20643" lon="55.3277">
        <ele>648.6689453125</ele>
        <time>2012-11-06T07:12:20Z</time>
      </trkpt>
      <trkpt lat="-21.20642" lon="55.3277">
        <ele>648.63635253906</ele>
        <time>2012-11-06T07:12:21Z</time>
      </trkpt>
      <trkpt lat="-21.20639" lon="55.32769">
        <ele>648.22686767578</ele>
        <time>2012-11-06T07:12:23Z</time>
      </trkpt>
      <trkpt lat="-21.20639" lon="55.32769">
        <ele>648.37731933594</ele>
        <time>2012-11-06T07:12:24Z</time>
      </trkpt>
      <trkpt lat="-21.20637" lon="55.32767">
        <ele>649.57934570312</ele>
        <time>2012-11-06T07:12:26Z</time>
      </trkpt>
      <trkpt lat="-21.20637" lon="55.32765">
        <ele>651.21600341797</ele>
        <time>2012-11-06T07:12:27Z</time>
      </trkpt>
      <trkpt lat="-21.20637" lon="55.32763">
        <ele>650.22546386719</ele>
        <time>2012-11-06T07:12:28Z</time>
      </trkpt>
      <trkpt lat="-21.20637" lon="55.32761">
        <ele>650.24884033203</ele>
        <time>2012-11-06T07:12:30Z</time>
      </trkpt>
      <trkpt lat="-21.20636" lon="55.32759">
        <ele>649.83416748047</ele>
        <time>2012-11-06T07:12:31Z</time>
      </trkpt>
      <trkpt lat="-21.20635" lon="55.32754">
        <ele>652.04504394531</ele>
        <time>2012-11-06T07:12:33Z</time>
      </trkpt>
      <trkpt lat="-21.20633" lon="55.32753">
        <ele>651.29534912109</ele>
        <time>2012-11-06T07:12:34Z</time>
      </trkpt>
      <trkpt lat="-21.20627" lon="55.3275">
        <ele>650.66607666016</ele>
        <time>2012-11-06T07:12:36Z</time>
      </trkpt>
      <trkpt lat="-21.20625" lon="55.32749">
        <ele>651.59124755859</ele>
        <time>2012-11-06T07:12:37Z</time>
      </trkpt>
      <trkpt lat="-21.20623" lon="55.32748">
        <ele>651.71173095703</ele>
        <time>2012-11-06T07:12:38Z</time>
      </trkpt>
      <trkpt lat="-21.20621" lon="55.32747">
        <ele>651.04162597656</ele>
        <time>2012-11-06T07:12:39Z</time>
      </trkpt>
      <trkpt lat="-21.20617" lon="55.32746">
        <ele>651.64208984375</ele>
        <time>2012-11-06T07:12:41Z</time>
      </trkpt>
      <trkpt lat="-21.20615" lon="55.32746">
        <ele>652.13531494141</ele>
        <time>2012-11-06T07:12:42Z</time>
      </trkpt>
      <trkpt lat="-21.20614" lon="55.32745">
        <ele>652.61383056641</ele>
        <time>2012-11-06T07:12:43Z</time>
      </trkpt>
      <trkpt lat="-21.20612" lon="55.32746">
        <ele>652.45904541016</ele>
        <time>2012-11-06T07:12:44Z</time>
      </trkpt>
      <trkpt lat="-21.2061" lon="55.32746">
        <ele>653.24755859375</ele>
        <time>2012-11-06T07:12:45Z</time>
      </trkpt>
      <trkpt lat="-21.20609" lon="55.32746">
        <ele>653.30718994141</ele>
        <time>2012-11-06T07:12:46Z</time>
      </trkpt>
      <trkpt lat="-21.20608" lon="55.32747">
        <ele>652.68756103516</ele>
        <time>2012-11-06T07:12:47Z</time>
      </trkpt>
      <trkpt lat="-21.20607" lon="55.32747">
        <ele>652.74133300781</ele>
        <time>2012-11-06T07:12:48Z</time>
      </trkpt>
      <trkpt lat="-21.20605" lon="55.32749">
        <ele>651.61840820312</ele>
        <time>2012-11-06T07:12:50Z</time>
      </trkpt>
      <trkpt lat="-21.20604" lon="55.3275">
        <ele>651.96685791016</ele>
        <time>2012-11-06T07:12:51Z</time>
      </trkpt>
      <trkpt lat="-21.20603" lon="55.32751">
        <ele>651.96759033203</ele>
        <time>2012-11-06T07:12:52Z</time>
      </trkpt>
      <trkpt lat="-21.206" lon="55.32754">
        <ele>654.29010009766</ele>
        <time>2012-11-06T07:12:54Z</time>
      </trkpt>
      <trkpt lat="-21.20598" lon="55.32758">
        <ele>654.11877441406</ele>
        <time>2012-11-06T07:12:56Z</time>
      </trkpt>
      <trkpt lat="-21.20597" lon="55.32759">
        <ele>654.08129882812</ele>
        <time>2012-11-06T07:12:57Z</time>
      </trkpt>
      <trkpt lat="-21.20596" lon="55.32763">
        <ele>654.85803222656</ele>
        <time>2012-11-06T07:12:59Z</time>
      </trkpt>
      <trkpt lat="-21.20595" lon="55.32766">
        <ele>654.47796630859</ele>
        <time>2012-11-06T07:13:01Z</time>
      </trkpt>
      <trkpt lat="-21.20594" lon="55.32768">
        <ele>654.35266113281</ele>
        <time>2012-11-06T07:13:02Z</time>
      </trkpt>
      <trkpt lat="-21.20593" lon="55.32771">
        <ele>654.8349609375</ele>
        <time>2012-11-06T07:13:04Z</time>
      </trkpt>
      <trkpt lat="-21.20592" lon="55.32773">
        <ele>655.55895996094</ele>
        <time>2012-11-06T07:13:05Z</time>
      </trkpt>
      <trkpt lat="-21.2059" lon="55.32778">
        <ele>658.02429199219</ele>
        <time>2012-11-06T07:13:07Z</time>
      </trkpt>
      <trkpt lat="-21.20589" lon="55.32779">
        <ele>659.24609375</ele>
        <time>2012-11-06T07:13:08Z</time>
      </trkpt>
      <trkpt lat="-21.20588" lon="55.32783">
        <ele>659.03521728516</ele>
        <time>2012-11-06T07:13:10Z</time>
      </trkpt>
      <trkpt lat="-21.20587" lon="55.32787">
        <ele>656.76171875</ele>
        <time>2012-11-06T07:13:12Z</time>
      </trkpt>
      <trkpt lat="-21.20586" lon="55.3279">
        <ele>657.14196777344</ele>
        <time>2012-11-06T07:13:13Z</time>
      </trkpt>
      <trkpt lat="-21.20585" lon="55.32794">
        <ele>659.23364257812</ele>
        <time>2012-11-06T07:13:15Z</time>
      </trkpt>
      <trkpt lat="-21.20584" lon="55.32798">
        <ele>661.36596679688</ele>
        <time>2012-11-06T07:13:17Z</time>
      </trkpt>
      <trkpt lat="-21.20583" lon="55.32802">
        <ele>661.94097900391</ele>
        <time>2012-11-06T07:13:19Z</time>
      </trkpt>
      <trkpt lat="-21.20582" lon="55.32807">
        <ele>662.17321777344</ele>
        <time>2012-11-06T07:13:21Z</time>
      </trkpt>
      <trkpt lat="-21.20581" lon="55.32809">
        <ele>662.82043457031</ele>
        <time>2012-11-06T07:13:22Z</time>
      </trkpt>
      <trkpt lat="-21.2058" lon="55.32814">
        <ele>663.42907714844</ele>
        <time>2012-11-06T07:13:24Z</time>
      </trkpt>
      <trkpt lat="-21.20578" lon="55.32819">
        <ele>662.48999023438</ele>
        <time>2012-11-06T07:13:26Z</time>
      </trkpt>
      <trkpt lat="-21.20577" lon="55.32821">
        <ele>664.30999755859</ele>
        <time>2012-11-06T07:13:27Z</time>
      </trkpt>
      <trkpt lat="-21.20575" lon="55.32823">
        <ele>662.70373535156</ele>
        <time>2012-11-06T07:13:28Z</time>
      </trkpt>
      <trkpt lat="-21.20574" lon="55.32824">
        <ele>663.73449707031</ele>
        <time>2012-11-06T07:13:29Z</time>
      </trkpt>
      <trkpt lat="-21.20572" lon="55.32826">
        <ele>663.23565673828</ele>
        <time>2012-11-06T07:13:31Z</time>
      </trkpt>
      <trkpt lat="-21.20571" lon="55.32826">
        <ele>663.2353515625</ele>
        <time>2012-11-06T07:13:32Z</time>
      </trkpt>
      <trkpt lat="-21.2057" lon="55.32827">
        <ele>662.05364990234</ele>
        <time>2012-11-06T07:13:34Z</time>
      </trkpt>
      <trkpt lat="-21.20566" lon="55.32828">
        <ele>659.6982421875</ele>
        <time>2012-11-06T07:13:36Z</time>
      </trkpt>
      <trkpt lat="-21.20561" lon="55.32828">
        <ele>660.09503173828</ele>
        <time>2012-11-06T07:13:38Z</time>
      </trkpt>
      <trkpt lat="-21.20559" lon="55.32827">
        <ele>660.62713623047</ele>
        <time>2012-11-06T07:13:39Z</time>
      </trkpt>
      <trkpt lat="-21.20556" lon="55.32826">
        <ele>661.89019775391</ele>
        <time>2012-11-06T07:13:40Z</time>
      </trkpt>
      <trkpt lat="-21.20553" lon="55.32823">
        <ele>663.75402832031</ele>
        <time>2012-11-06T07:13:42Z</time>
      </trkpt>
      <trkpt lat="-21.20549" lon="55.32819">
        <ele>664.56268310547</ele>
        <time>2012-11-06T07:13:44Z</time>
      </trkpt>
      <trkpt lat="-21.20548" lon="55.32817">
        <ele>665.48773193359</ele>
        <time>2012-11-06T07:13:45Z</time>
      </trkpt>
      <trkpt lat="-21.20545" lon="55.32814">
        <ele>664.984375</ele>
        <time>2012-11-06T07:13:47Z</time>
      </trkpt>
      <trkpt lat="-21.20541" lon="55.32813">
        <ele>664.27008056641</ele>
        <time>2012-11-06T07:13:49Z</time>
      </trkpt>
      <trkpt lat="-21.2054" lon="55.32814">
        <ele>663.92358398438</ele>
        <time>2012-11-06T07:13:50Z</time>
      </trkpt>
      <trkpt lat="-21.20538" lon="55.32815">
        <ele>664.20129394531</ele>
        <time>2012-11-06T07:13:51Z</time>
      </trkpt>
      <trkpt lat="-21.20538" lon="55.32817">
        <ele>664.70013427734</ele>
        <time>2012-11-06T07:13:52Z</time>
      </trkpt>
      <trkpt lat="-21.20538" lon="55.32821">
        <ele>664.92852783203</ele>
        <time>2012-11-06T07:13:54Z</time>
      </trkpt>
      <trkpt lat="-21.20539" lon="55.32823">
        <ele>664.40380859375</ele>
        <time>2012-11-06T07:13:55Z</time>
      </trkpt>
      <trkpt lat="-21.2054" lon="55.32826">
        <ele>665.71801757812</ele>
        <time>2012-11-06T07:13:57Z</time>
      </trkpt>
      <trkpt lat="-21.20542" lon="55.3283">
        <ele>666.54547119141</ele>
        <time>2012-11-06T07:13:59Z</time>
      </trkpt>
      <trkpt lat="-21.20544" lon="55.32834">
        <ele>668.84680175781</ele>
        <time>2012-11-06T07:14:00Z</time>
      </trkpt>
      <trkpt lat="-21.20545" lon="55.32837">
        <ele>668.46282958984</ele>
        <time>2012-11-06T07:14:02Z</time>
      </trkpt>
      <trkpt lat="-21.20546" lon="55.32839">
        <ele>668.93786621094</ele>
        <time>2012-11-06T07:14:03Z</time>
      </trkpt>
      <trkpt lat="-21.20547" lon="55.32841">
        <ele>668.70043945312</ele>
        <time>2012-11-06T07:14:04Z</time>
      </trkpt>
      <trkpt lat="-21.20548" lon="55.32846">
        <ele>669.04821777344</ele>
        <time>2012-11-06T07:14:06Z</time>
      </trkpt>
      <trkpt lat="-21.20548" lon="55.32848">
        <ele>668.90197753906</ele>
        <time>2012-11-06T07:14:07Z</time>
      </trkpt>
      <trkpt lat="-21.20549" lon="55.3285">
        <ele>669.19073486328</ele>
        <time>2012-11-06T07:14:08Z</time>
      </trkpt>
      <trkpt lat="-21.20549" lon="55.32852">
        <ele>669.25506591797</ele>
        <time>2012-11-06T07:14:09Z</time>
      </trkpt>
      <trkpt lat="-21.2055" lon="55.32856">
        <ele>670.07049560547</ele>
        <time>2012-11-06T07:14:11Z</time>
      </trkpt>
      <trkpt lat="-21.20551" lon="55.32859">
        <ele>670.92401123047</ele>
        <time>2012-11-06T07:14:13Z</time>
      </trkpt>
      <trkpt lat="-21.20551" lon="55.32861">
        <ele>671.35028076172</ele>
        <time>2012-11-06T07:14:14Z</time>
      </trkpt>
      <trkpt lat="-21.20552" lon="55.32864">
        <ele>671.53210449219</ele>
        <time>2012-11-06T07:14:16Z</time>
      </trkpt>
      <trkpt lat="-21.20553" lon="55.32868">
        <ele>671.53460693359</ele>
        <time>2012-11-06T07:14:18Z</time>
      </trkpt>
      <trkpt lat="-21.20554" lon="55.32872">
        <ele>671.61248779297</ele>
        <time>2012-11-06T07:14:20Z</time>
      </trkpt>
      <trkpt lat="-21.20554" lon="55.32875">
        <ele>672.07775878906</ele>
        <time>2012-11-06T07:14:22Z</time>
      </trkpt>
      <trkpt lat="-21.20555" lon="55.32878">
        <ele>671.541015625</ele>
        <time>2012-11-06T07:14:24Z</time>
      </trkpt>
      <trkpt lat="-21.20555" lon="55.32879">
        <ele>671.90356445312</ele>
        <time>2012-11-06T07:14:25Z</time>
      </trkpt>
      <trkpt lat="-21.20555" lon="55.32881">
        <ele>673.64947509766</ele>
        <time>2012-11-06T07:14:27Z</time>
      </trkpt>
      <trkpt lat="-21.20555" lon="55.32884">
        <ele>674.00689697266</ele>
        <time>2012-11-06T07:14:29Z</time>
      </trkpt>
      <trkpt lat="-21.20555" lon="55.32888">
        <ele>673.64263916016</ele>
        <time>2012-11-06T07:14:31Z</time>
      </trkpt>
      <trkpt lat="-21.20555" lon="55.3289">
        <ele>673.1513671875</ele>
        <time>2012-11-06T07:14:32Z</time>
      </trkpt>
      <trkpt lat="-21.20555" lon="55.32891">
        <ele>676.70544433594</ele>
        <time>2012-11-06T07:14:34Z</time>
      </trkpt>
      <trkpt lat="-21.20555" lon="55.32896">
        <ele>676.9296875</ele>
        <time>2012-11-06T07:14:36Z</time>
      </trkpt>
      <trkpt lat="-21.20555" lon="55.32898">
        <ele>677.15875244141</ele>
        <time>2012-11-06T07:14:37Z</time>
      </trkpt>
      <trkpt lat="-21.20554" lon="55.32901">
        <ele>677.81359863281</ele>
        <time>2012-11-06T07:14:39Z</time>
      </trkpt>
      <trkpt lat="-21.20555" lon="55.32905">
        <ele>675.39715576172</ele>
        <time>2012-11-06T07:14:41Z</time>
      </trkpt>
      <trkpt lat="-21.20555" lon="55.32909">
        <ele>674.55096435547</ele>
        <time>2012-11-06T07:14:43Z</time>
      </trkpt>
      <trkpt lat="-21.20556" lon="55.3291">
        <ele>674.88763427734</ele>
        <time>2012-11-06T07:14:44Z</time>
      </trkpt>
      <trkpt lat="-21.20556" lon="55.32914">
        <ele>673.56945800781</ele>
        <time>2012-11-06T07:14:46Z</time>
      </trkpt>
      <trkpt lat="-21.20556" lon="55.32916">
        <ele>672.90686035156</ele>
        <time>2012-11-06T07:14:47Z</time>
      </trkpt>
      <trkpt lat="-21.20556" lon="55.32919">
        <ele>671.92877197266</ele>
        <time>2012-11-06T07:14:49Z</time>
      </trkpt>
      <trkpt lat="-21.20557" lon="55.32921">
        <ele>671.56872558594</ele>
        <time>2012-11-06T07:14:50Z</time>
      </trkpt>
      <trkpt lat="-21.20557" lon="55.32923">
        <ele>671.15905761719</ele>
        <time>2012-11-06T07:14:51Z</time>
      </trkpt>
      <trkpt lat="-21.20557" lon="55.32927">
        <ele>670.89752197266</ele>
        <time>2012-11-06T07:14:53Z</time>
      </trkpt>
      <trkpt lat="-21.20558" lon="55.32928">
        <ele>670.68957519531</ele>
        <time>2012-11-06T07:14:54Z</time>
      </trkpt>
      <trkpt lat="-21.20558" lon="55.32929">
        <ele>670.55535888672</ele>
        <time>2012-11-06T07:14:55Z</time>
      </trkpt>
      <trkpt lat="-21.20558" lon="55.32931">
        <ele>670.74786376953</ele>
        <time>2012-11-06T07:14:56Z</time>
      </trkpt>
      <trkpt lat="-21.20558" lon="55.32934">
        <ele>670.81457519531</ele>
        <time>2012-11-06T07:14:58Z</time>
      </trkpt>
      <trkpt lat="-21.20559" lon="55.32937">
        <ele>672.06378173828</ele>
        <time>2012-11-06T07:15:00Z</time>
      </trkpt>
      <trkpt lat="-21.20559" lon="55.32938">
        <ele>671.94549560547</ele>
        <time>2012-11-06T07:15:01Z</time>
      </trkpt>
      <trkpt lat="-21.20559" lon="55.32939">
        <ele>672.71173095703</ele>
        <time>2012-11-06T07:15:02Z</time>
      </trkpt>
      <trkpt lat="-21.20559" lon="55.3294">
        <ele>673.01556396484</ele>
        <time>2012-11-06T07:15:03Z</time>
      </trkpt>
      <trkpt lat="-21.2056" lon="55.32943">
        <ele>673.24548339844</ele>
        <time>2012-11-06T07:15:05Z</time>
      </trkpt>
      <trkpt lat="-21.2056" lon="55.32944">
        <ele>673.82971191406</ele>
        <time>2012-11-06T07:15:06Z</time>
      </trkpt>
      <trkpt lat="-21.20559" lon="55.32946">
        <ele>674.26739501953</ele>
        <time>2012-11-06T07:15:07Z</time>
      </trkpt>
      <trkpt lat="-21.20559" lon="55.32948">
        <ele>676.66375732422</ele>
        <time>2012-11-06T07:15:09Z</time>
      </trkpt>
      <trkpt lat="-21.20559" lon="55.32951">
        <ele>676.24932861328</ele>
        <time>2012-11-06T07:15:11Z</time>
      </trkpt>
      <trkpt lat="-21.20558" lon="55.32953">
        <ele>676.03704833984</ele>
        <time>2012-11-06T07:15:12Z</time>
      </trkpt>
      <trkpt lat="-21.20558" lon="55.32955">
        <ele>678.1376953125</ele>
        <time>2012-11-06T07:15:14Z</time>
      </trkpt>
      <trkpt lat="-21.20557" lon="55.32957">
        <ele>678.25994873047</ele>
        <time>2012-11-06T07:15:15Z</time>
      </trkpt>
      <trkpt lat="-21.20556" lon="55.3296">
        <ele>678.44641113281</ele>
        <time>2012-11-06T07:15:17Z</time>
      </trkpt>
      <trkpt lat="-21.20555" lon="55.32962">
        <ele>679.45074462891</ele>
        <time>2012-11-06T07:15:19Z</time>
      </trkpt>
      <trkpt lat="-21.20554" lon="55.32966">
        <ele>678.85272216797</ele>
        <time>2012-11-06T07:15:21Z</time>
      </trkpt>
      <trkpt lat="-21.20552" lon="55.32969">
        <ele>679.27081298828</ele>
        <time>2012-11-06T07:15:23Z</time>
      </trkpt>
      <trkpt lat="-21.20551" lon="55.32971">
        <ele>680.17407226562</ele>
        <time>2012-11-06T07:15:24Z</time>
      </trkpt>
      <trkpt lat="-21.20549" lon="55.32975">
        <ele>679.59912109375</ele>
        <time>2012-11-06T07:15:26Z</time>
      </trkpt>
      <trkpt lat="-21.20548" lon="55.32979">
        <ele>680.38940429688</ele>
        <time>2012-11-06T07:15:28Z</time>
      </trkpt>
      <trkpt lat="-21.20546" lon="55.32983">
        <ele>678.71606445312</ele>
        <time>2012-11-06T07:15:30Z</time>
      </trkpt>
      <trkpt lat="-21.20544" lon="55.32985">
        <ele>678.50927734375</ele>
        <time>2012-11-06T07:15:31Z</time>
      </trkpt>
      <trkpt lat="-21.20543" lon="55.32987">
        <ele>679.18493652344</ele>
        <time>2012-11-06T07:15:32Z</time>
      </trkpt>
      <trkpt lat="-21.20541" lon="55.32989">
        <ele>679.85803222656</ele>
        <time>2012-11-06T07:15:33Z</time>
      </trkpt>
      <trkpt lat="-21.2054" lon="55.32991">
        <ele>679.41168212891</ele>
        <time>2012-11-06T07:15:34Z</time>
      </trkpt>
      <trkpt lat="-21.2054" lon="55.32992">
        <ele>680.83734130859</ele>
        <time>2012-11-06T07:15:35Z</time>
      </trkpt>
      <trkpt lat="-21.20537" lon="55.32995">
        <ele>680.96087646484</ele>
        <time>2012-11-06T07:15:37Z</time>
      </trkpt>
      <trkpt lat="-21.20534" lon="55.33">
        <ele>681.32293701172</ele>
        <time>2012-11-06T07:15:39Z</time>
      </trkpt>
      <trkpt lat="-21.20532" lon="55.33002">
        <ele>681.42547607422</ele>
        <time>2012-11-06T07:15:40Z</time>
      </trkpt>
      <trkpt lat="-21.20529" lon="55.33005">
        <ele>681.78259277344</ele>
        <time>2012-11-06T07:15:41Z</time>
      </trkpt>
      <trkpt lat="-21.20528" lon="55.33006">
        <ele>680.22784423828</ele>
        <time>2012-11-06T07:15:43Z</time>
      </trkpt>
      <trkpt lat="-21.20527" lon="55.33006">
        <ele>680.67846679688</ele>
        <time>2012-11-06T07:15:44Z</time>
      </trkpt>
      <trkpt lat="-21.20525" lon="55.33006">
        <ele>682.34857177734</ele>
        <time>2012-11-06T07:15:46Z</time>
      </trkpt>
      <trkpt lat="-21.20523" lon="55.33004">
        <ele>683.93713378906</ele>
        <time>2012-11-06T07:15:48Z</time>
      </trkpt>
      <trkpt lat="-21.20523" lon="55.32999">
        <ele>684.62023925781</ele>
        <time>2012-11-06T07:15:50Z</time>
      </trkpt>
      <trkpt lat="-21.20525" lon="55.32996">
        <ele>686.04034423828</ele>
        <time>2012-11-06T07:15:52Z</time>
      </trkpt>
      <trkpt lat="-21.20526" lon="55.32994">
        <ele>686.00445556641</ele>
        <time>2012-11-06T07:15:53Z</time>
      </trkpt>
      <trkpt lat="-21.20527" lon="55.32992">
        <ele>685.59106445312</ele>
        <time>2012-11-06T07:15:54Z</time>
      </trkpt>
      <trkpt lat="-21.20529" lon="55.32988">
        <ele>686.22955322266</ele>
        <time>2012-11-06T07:15:56Z</time>
      </trkpt>
      <trkpt lat="-21.20529" lon="55.32985">
        <ele>686.09796142578</ele>
        <time>2012-11-06T07:15:58Z</time>
      </trkpt>
      <trkpt lat="-21.20527" lon="55.32982">
        <ele>686.1171875</ele>
        <time>2012-11-06T07:16:00Z</time>
      </trkpt>
      <trkpt lat="-21.20525" lon="55.32981">
        <ele>686.75177001953</ele>
        <time>2012-11-06T07:16:01Z</time>
      </trkpt>
      <trkpt lat="-21.2052" lon="55.3298">
        <ele>686.26672363281</ele>
        <time>2012-11-06T07:16:03Z</time>
      </trkpt>
      <trkpt lat="-21.20515" lon="55.32979">
        <ele>687.64508056641</ele>
        <time>2012-11-06T07:16:05Z</time>
      </trkpt>
      <trkpt lat="-21.20513" lon="55.32979">
        <ele>688.45532226562</ele>
        <time>2012-11-06T07:16:06Z</time>
      </trkpt>
      <trkpt lat="-21.20509" lon="55.32978">
        <ele>689.39202880859</ele>
        <time>2012-11-06T07:16:08Z</time>
      </trkpt>
      <trkpt lat="-21.20505" lon="55.32977">
        <ele>687.57922363281</ele>
        <time>2012-11-06T07:16:10Z</time>
      </trkpt>
      <trkpt lat="-21.20503" lon="55.32977">
        <ele>688.60754394531</ele>
        <time>2012-11-06T07:16:11Z</time>
      </trkpt>
      <trkpt lat="-21.20499" lon="55.32976">
        <ele>688.65869140625</ele>
        <time>2012-11-06T07:16:13Z</time>
      </trkpt>
      <trkpt lat="-21.20497" lon="55.32976">
        <ele>689.13104248047</ele>
        <time>2012-11-06T07:16:14Z</time>
      </trkpt>
      <trkpt lat="-21.20493" lon="55.32975">
        <ele>688.67486572266</ele>
        <time>2012-11-06T07:16:16Z</time>
      </trkpt>
      <trkpt lat="-21.20491" lon="55.32975">
        <ele>689.61248779297</ele>
        <time>2012-11-06T07:16:17Z</time>
      </trkpt>
      <trkpt lat="-21.20488" lon="55.32975">
        <ele>691.16107177734</ele>
        <time>2012-11-06T07:16:19Z</time>
      </trkpt>
      <trkpt lat="-21.20484" lon="55.32974">
        <ele>690.70043945312</ele>
        <time>2012-11-06T07:16:21Z</time>
      </trkpt>
      <trkpt lat="-21.20482" lon="55.32973">
        <ele>690.71527099609</ele>
        <time>2012-11-06T07:16:22Z</time>
      </trkpt>
      <trkpt lat="-21.20479" lon="55.3297">
        <ele>691.93011474609</ele>
        <time>2012-11-06T07:16:24Z</time>
      </trkpt>
      <trkpt lat="-21.20477" lon="55.32969">
        <ele>691.91241455078</ele>
        <time>2012-11-06T07:16:25Z</time>
      </trkpt>
      <trkpt lat="-21.20473" lon="55.32967">
        <ele>692.6982421875</ele>
        <time>2012-11-06T07:16:27Z</time>
      </trkpt>
      <trkpt lat="-21.20472" lon="55.32965">
        <ele>692.68395996094</ele>
        <time>2012-11-06T07:16:28Z</time>
      </trkpt>
      <trkpt lat="-21.2047" lon="55.32962">
        <ele>693.63916015625</ele>
        <time>2012-11-06T07:16:30Z</time>
      </trkpt>
      <trkpt lat="-21.20468" lon="55.32961">
        <ele>693.93756103516</ele>
        <time>2012-11-06T07:16:31Z</time>
      </trkpt>
      <trkpt lat="-21.20467" lon="55.32959">
        <ele>694.3544921875</ele>
        <time>2012-11-06T07:16:32Z</time>
      </trkpt>
      <trkpt lat="-21.20465" lon="55.32956">
        <ele>695.10552978516</ele>
        <time>2012-11-06T07:16:34Z</time>
      </trkpt>
      <trkpt lat="-21.20464" lon="55.32955">
        <ele>697.51916503906</ele>
        <time>2012-11-06T07:16:36Z</time>
      </trkpt>
      <trkpt lat="-21.20464" lon="55.32953">
        <ele>702.25646972656</ele>
        <time>2012-11-06T07:16:38Z</time>
      </trkpt>
      <trkpt lat="-21.20463" lon="55.32948">
        <ele>699.04449462891</ele>
        <time>2012-11-06T07:16:40Z</time>
      </trkpt>
      <trkpt lat="-21.20462" lon="55.32944">
        <ele>697.90612792969</ele>
        <time>2012-11-06T07:16:42Z</time>
      </trkpt>
      <trkpt lat="-21.20462" lon="55.32942">
        <ele>699.18231201172</ele>
        <time>2012-11-06T07:16:43Z</time>
      </trkpt>
      <trkpt lat="-21.20461" lon="55.3294">
        <ele>700.15734863281</ele>
        <time>2012-11-06T07:16:45Z</time>
      </trkpt>
      <trkpt lat="-21.20461" lon="55.32938">
        <ele>700.5224609375</ele>
        <time>2012-11-06T07:16:46Z</time>
      </trkpt>
      <trkpt lat="-21.2046" lon="55.32935">
        <ele>700.32574462891</ele>
        <time>2012-11-06T07:16:48Z</time>
      </trkpt>
      <trkpt lat="-21.2046" lon="55.32933">
        <ele>701.82806396484</ele>
        <time>2012-11-06T07:16:50Z</time>
      </trkpt>
      <trkpt lat="-21.20459" lon="55.3293">
        <ele>701.64581298828</ele>
        <time>2012-11-06T07:16:52Z</time>
      </trkpt>
      <trkpt lat="-21.20457" lon="55.32928">
        <ele>699.86407470703</ele>
        <time>2012-11-06T07:16:54Z</time>
      </trkpt>
      <trkpt lat="-21.20456" lon="55.32927">
        <ele>698.99462890625</ele>
        <time>2012-11-06T07:16:55Z</time>
      </trkpt>
      <trkpt lat="-21.20455" lon="55.32926">
        <ele>698.57550048828</ele>
        <time>2012-11-06T07:16:56Z</time>
      </trkpt>
      <trkpt lat="-21.20453" lon="55.32927">
        <ele>697.17547607422</ele>
        <time>2012-11-06T07:16:58Z</time>
      </trkpt>
      <trkpt lat="-21.20452" lon="55.32929">
        <ele>697.93444824219</ele>
        <time>2012-11-06T07:17:00Z</time>
      </trkpt>
      <trkpt lat="-21.20451" lon="55.3293">
        <ele>698.06188964844</ele>
        <time>2012-11-06T07:17:01Z</time>
      </trkpt>
      <trkpt lat="-21.2045" lon="55.32932">
        <ele>698.19805908203</ele>
        <time>2012-11-06T07:17:02Z</time>
      </trkpt>
      <trkpt lat="-21.2045" lon="55.32933">
        <ele>699.37042236328</ele>
        <time>2012-11-06T07:17:03Z</time>
      </trkpt>
      <trkpt lat="-21.20449" lon="55.32937">
        <ele>699.49395751953</ele>
        <time>2012-11-06T07:17:05Z</time>
      </trkpt>
      <trkpt lat="-21.20448" lon="55.3294">
        <ele>698.11682128906</ele>
        <time>2012-11-06T07:17:07Z</time>
      </trkpt>
      <trkpt lat="-21.20448" lon="55.32944">
        <ele>697.46362304688</ele>
        <time>2012-11-06T07:17:09Z</time>
      </trkpt>
      <trkpt lat="-21.20448" lon="55.32945">
        <ele>697.69689941406</ele>
        <time>2012-11-06T07:17:10Z</time>
      </trkpt>
      <trkpt lat="-21.20447" lon="55.32948">
        <ele>698.32580566406</ele>
        <time>2012-11-06T07:17:12Z</time>
      </trkpt>
      <trkpt lat="-21.20447" lon="55.32952">
        <ele>699.18353271484</ele>
        <time>2012-11-06T07:17:14Z</time>
      </trkpt>
      <trkpt lat="-21.20447" lon="55.32955">
        <ele>700.16400146484</ele>
        <time>2012-11-06T07:17:16Z</time>
      </trkpt>
      <trkpt lat="-21.20446" lon="55.32959">
        <ele>699.76898193359</ele>
        <time>2012-11-06T07:17:18Z</time>
      </trkpt>
      <trkpt lat="-21.20446" lon="55.32962">
        <ele>699.77484130859</ele>
        <time>2012-11-06T07:17:20Z</time>
      </trkpt>
      <trkpt lat="-21.20445" lon="55.32966">
        <ele>699.81597900391</ele>
        <time>2012-11-06T07:17:22Z</time>
      </trkpt>
      <trkpt lat="-21.20444" lon="55.32969">
        <ele>701.099609375</ele>
        <time>2012-11-06T07:17:24Z</time>
      </trkpt>
      <trkpt lat="-21.20444" lon="55.32971">
        <ele>701.22808837891</ele>
        <time>2012-11-06T07:17:25Z</time>
      </trkpt>
      <trkpt lat="-21.20443" lon="55.32974">
        <ele>702.42864990234</ele>
        <time>2012-11-06T07:17:27Z</time>
      </trkpt>
      <trkpt lat="-21.20442" lon="55.32977">
        <ele>703.49444580078</ele>
        <time>2012-11-06T07:17:29Z</time>
      </trkpt>
      <trkpt lat="-21.20442" lon="55.32979">
        <ele>703.46850585938</ele>
        <time>2012-11-06T07:17:30Z</time>
      </trkpt>
      <trkpt lat="-21.20441" lon="55.3298">
        <ele>702.76025390625</ele>
        <time>2012-11-06T07:17:31Z</time>
      </trkpt>
      <trkpt lat="-21.20439" lon="55.32984">
        <ele>701.21417236328</ele>
        <time>2012-11-06T07:17:33Z</time>
      </trkpt>
      <trkpt lat="-21.20439" lon="55.32986">
        <ele>700.76763916016</ele>
        <time>2012-11-06T07:17:34Z</time>
      </trkpt>
      <trkpt lat="-21.20437" lon="55.32988">
        <ele>701.07482910156</ele>
        <time>2012-11-06T07:17:36Z</time>
      </trkpt>
      <trkpt lat="-21.20437" lon="55.3299">
        <ele>702.04382324219</ele>
        <time>2012-11-06T07:17:37Z</time>
      </trkpt>
      <trkpt lat="-21.20437" lon="55.3299">
        <ele>702.74853515625</ele>
        <time>2012-11-06T07:17:38Z</time>
      </trkpt>
      <trkpt lat="-21.20437" lon="55.3299">
        <ele>702.74639892578</ele>
        <time>2012-11-06T07:17:39Z</time>
      </trkpt>
      <trkpt lat="-21.20435" lon="55.32989">
        <ele>703.12664794922</ele>
        <time>2012-11-06T07:17:40Z</time>
      </trkpt>
      <trkpt lat="-21.20432" lon="55.32986">
        <ele>703.25140380859</ele>
        <time>2012-11-06T07:17:42Z</time>
      </trkpt>
      <trkpt lat="-21.2043" lon="55.32983">
        <ele>702.76940917969</ele>
        <time>2012-11-06T07:17:44Z</time>
      </trkpt>
      <trkpt lat="-21.20427" lon="55.3298">
        <ele>704.28625488281</ele>
        <time>2012-11-06T07:17:46Z</time>
      </trkpt>
      <trkpt lat="-21.20425" lon="55.32977">
        <ele>704.58953857422</ele>
        <time>2012-11-06T07:17:48Z</time>
      </trkpt>
      <trkpt lat="-21.20423" lon="55.32975">
        <ele>705.13696289062</ele>
        <time>2012-11-06T07:17:49Z</time>
      </trkpt>
      <trkpt lat="-21.20422" lon="55.32974">
        <ele>705.53302001953</ele>
        <time>2012-11-06T07:17:50Z</time>
      </trkpt>
      <trkpt lat="-21.20418" lon="55.32971">
        <ele>705.04040527344</ele>
        <time>2012-11-06T07:17:52Z</time>
      </trkpt>
      <trkpt lat="-21.20415" lon="55.32968">
        <ele>705.32550048828</ele>
        <time>2012-11-06T07:17:54Z</time>
      </trkpt>
      <trkpt lat="-21.20414" lon="55.32967">
        <ele>706.02154541016</ele>
        <time>2012-11-06T07:17:55Z</time>
      </trkpt>
      <trkpt lat="-21.20413" lon="55.32966">
        <ele>705.21374511719</ele>
        <time>2012-11-06T07:17:56Z</time>
      </trkpt>
      <trkpt lat="-21.2041" lon="55.32964">
        <ele>706.08465576172</ele>
        <time>2012-11-06T07:17:58Z</time>
      </trkpt>
      <trkpt lat="-21.20406" lon="55.32961">
        <ele>706.22094726562</ele>
        <time>2012-11-06T07:18:00Z</time>
      </trkpt>
      <trkpt lat="-21.20404" lon="55.3296">
        <ele>706.43255615234</ele>
        <time>2012-11-06T07:18:01Z</time>
      </trkpt>
      <trkpt lat="-21.20402" lon="55.32959">
        <ele>706.61755371094</ele>
        <time>2012-11-06T07:18:02Z</time>
      </trkpt>
      <trkpt lat="-21.204" lon="55.32958">
        <ele>707.07080078125</ele>
        <time>2012-11-06T07:18:03Z</time>
      </trkpt>
      <trkpt lat="-21.20398" lon="55.32958">
        <ele>707.45550537109</ele>
        <time>2012-11-06T07:18:04Z</time>
      </trkpt>
      <trkpt lat="-21.20396" lon="55.32959">
        <ele>707.82507324219</ele>
        <time>2012-11-06T07:18:05Z</time>
      </trkpt>
      <trkpt lat="-21.20393" lon="55.32962">
        <ele>708.96917724609</ele>
        <time>2012-11-06T07:18:07Z</time>
      </trkpt>
      <trkpt lat="-21.20391" lon="55.32965">
        <ele>710.40441894531</ele>
        <time>2012-11-06T07:18:09Z</time>
      </trkpt>
      <trkpt lat="-21.20391" lon="55.32967">
        <ele>711.85870361328</ele>
        <time>2012-11-06T07:18:10Z</time>
      </trkpt>
      <trkpt lat="-21.20391" lon="55.32971">
        <ele>713.38629150391</ele>
        <time>2012-11-06T07:18:12Z</time>
      </trkpt>
      <trkpt lat="-21.20391" lon="55.32975">
        <ele>713.65802001953</ele>
        <time>2012-11-06T07:18:14Z</time>
      </trkpt>
      <trkpt lat="-21.20391" lon="55.32977">
        <ele>713.92443847656</ele>
        <time>2012-11-06T07:18:15Z</time>
      </trkpt>
      <trkpt lat="-21.20391" lon="55.32981">
        <ele>714.38549804688</ele>
        <time>2012-11-06T07:18:17Z</time>
      </trkpt>
      <trkpt lat="-21.20392" lon="55.32985">
        <ele>715.208984375</ele>
        <time>2012-11-06T07:18:19Z</time>
      </trkpt>
      <trkpt lat="-21.20392" lon="55.32987">
        <ele>715.47131347656</ele>
        <time>2012-11-06T07:18:20Z</time>
      </trkpt>
      <trkpt lat="-21.20391" lon="55.32988">
        <ele>716.43365478516</ele>
        <time>2012-11-06T07:18:21Z</time>
      </trkpt>
      <trkpt lat="-21.20391" lon="55.32991">
        <ele>718.94378662109</ele>
        <time>2012-11-06T07:18:23Z</time>
      </trkpt>
      <trkpt lat="-21.20391" lon="55.32996">
        <ele>716.35620117188</ele>
        <time>2012-11-06T07:18:24Z</time>
      </trkpt>
      <trkpt lat="-21.20392" lon="55.32998">
        <ele>717.13409423828</ele>
        <time>2012-11-06T07:18:25Z</time>
      </trkpt>
      <trkpt lat="-21.20392" lon="55.33">
        <ele>716.51098632812</ele>
        <time>2012-11-06T07:18:26Z</time>
      </trkpt>
      <trkpt lat="-21.20393" lon="55.33003">
        <ele>717.19110107422</ele>
        <time>2012-11-06T07:18:28Z</time>
      </trkpt>
      <trkpt lat="-21.20393" lon="55.33004">
        <ele>717.27709960938</ele>
        <time>2012-11-06T07:18:29Z</time>
      </trkpt>
      <trkpt lat="-21.20395" lon="55.33008">
        <ele>716.84948730469</ele>
        <time>2012-11-06T07:18:31Z</time>
      </trkpt>
      <trkpt lat="-21.20396" lon="55.33011">
        <ele>716.75390625</ele>
        <time>2012-11-06T07:18:32Z</time>
      </trkpt>
      <trkpt lat="-21.20397" lon="55.33016">
        <ele>717.68786621094</ele>
        <time>2012-11-06T07:18:34Z</time>
      </trkpt>
      <trkpt lat="-21.20398" lon="55.33019">
        <ele>716.82373046875</ele>
        <time>2012-11-06T07:18:36Z</time>
      </trkpt>
      <trkpt lat="-21.20399" lon="55.33023">
        <ele>717.13525390625</ele>
        <time>2012-11-06T07:18:38Z</time>
      </trkpt>
      <trkpt lat="-21.204" lon="55.33025">
        <ele>716.68450927734</ele>
        <time>2012-11-06T07:18:40Z</time>
      </trkpt>
      <trkpt lat="-21.204" lon="55.33027">
        <ele>718.49188232422</ele>
        <time>2012-11-06T07:18:41Z</time>
      </trkpt>
      <trkpt lat="-21.204" lon="55.3303">
        <ele>716.35247802734</ele>
        <time>2012-11-06T07:18:43Z</time>
      </trkpt>
      <trkpt lat="-21.20401" lon="55.33034">
        <ele>716.56707763672</ele>
        <time>2012-11-06T07:18:45Z</time>
      </trkpt>
      <trkpt lat="-21.20401" lon="55.33036">
        <ele>716.10974121094</ele>
        <time>2012-11-06T07:18:46Z</time>
      </trkpt>
      <trkpt lat="-21.204" lon="55.3304">
        <ele>715.36633300781</ele>
        <time>2012-11-06T07:18:48Z</time>
      </trkpt>
      <trkpt lat="-21.204" lon="55.33042">
        <ele>715.60589599609</ele>
        <time>2012-11-06T07:18:49Z</time>
      </trkpt>
      <trkpt lat="-21.20399" lon="55.33045">
        <ele>716.00213623047</ele>
        <time>2012-11-06T07:18:51Z</time>
      </trkpt>
      <trkpt lat="-21.20399" lon="55.33046">
        <ele>715.916015625</ele>
        <time>2012-11-06T07:18:52Z</time>
      </trkpt>
      <trkpt lat="-21.20398" lon="55.3305">
        <ele>717.00415039062</ele>
        <time>2012-11-06T07:18:54Z</time>
      </trkpt>
      <trkpt lat="-21.20398" lon="55.33051">
        <ele>716.87487792969</ele>
        <time>2012-11-06T07:18:55Z</time>
      </trkpt>
      <trkpt lat="-21.20397" lon="55.33054">
        <ele>718.90002441406</ele>
        <time>2012-11-06T07:18:57Z</time>
      </trkpt>
      <trkpt lat="-21.20396" lon="55.33055">
        <ele>720.85052490234</ele>
        <time>2012-11-06T07:18:58Z</time>
      </trkpt>
      <trkpt lat="-21.20396" lon="55.33058">
        <ele>718.96942138672</ele>
        <time>2012-11-06T07:19:00Z</time>
      </trkpt>
      <trkpt lat="-21.20396" lon="55.33059">
        <ele>718.36767578125</ele>
        <time>2012-11-06T07:19:01Z</time>
      </trkpt>
      <trkpt lat="-21.20395" lon="55.33061">
        <ele>716.6123046875</ele>
        <time>2012-11-06T07:19:02Z</time>
      </trkpt>
      <trkpt lat="-21.20394" lon="55.33063">
        <ele>716.94073486328</ele>
        <time>2012-11-06T07:19:03Z</time>
      </trkpt>
      <trkpt lat="-21.20392" lon="55.33068">
        <ele>716.30895996094</ele>
        <time>2012-11-06T07:19:05Z</time>
      </trkpt>
      <trkpt lat="-21.20391" lon="55.33072">
        <ele>717.82196044922</ele>
        <time>2012-11-06T07:19:07Z</time>
      </trkpt>
      <trkpt lat="-21.2039" lon="55.33074">
        <ele>717.46527099609</ele>
        <time>2012-11-06T07:19:08Z</time>
      </trkpt>
      <trkpt lat="-21.20389" lon="55.33078">
        <ele>717.26049804688</ele>
        <time>2012-11-06T07:19:10Z</time>
      </trkpt>
      <trkpt lat="-21.20388" lon="55.33083">
        <ele>716.58020019531</ele>
        <time>2012-11-06T07:19:12Z</time>
      </trkpt>
      <trkpt lat="-21.20387" lon="55.33085">
        <ele>716.17114257812</ele>
        <time>2012-11-06T07:19:13Z</time>
      </trkpt>
      <trkpt lat="-21.20387" lon="55.33088">
        <ele>716.36291503906</ele>
        <time>2012-11-06T07:19:14Z</time>
      </trkpt>
      <trkpt lat="-21.20386" lon="55.33092">
        <ele>716.70483398438</ele>
        <time>2012-11-06T07:19:16Z</time>
      </trkpt>
      <trkpt lat="-21.20385" lon="55.33097">
        <ele>716.77325439453</ele>
        <time>2012-11-06T07:19:18Z</time>
      </trkpt>
      <trkpt lat="-21.20383" lon="55.33101">
        <ele>717.32989501953</ele>
        <time>2012-11-06T07:19:20Z</time>
      </trkpt>
      <trkpt lat="-21.20383" lon="55.33103">
        <ele>717.95233154297</ele>
        <time>2012-11-06T07:19:21Z</time>
      </trkpt>
      <trkpt lat="-21.20382" lon="55.33107">
        <ele>720.32440185547</ele>
        <time>2012-11-06T07:19:23Z</time>
      </trkpt>
      <trkpt lat="-21.20381" lon="55.33109">
        <ele>720.53576660156</ele>
        <time>2012-11-06T07:19:24Z</time>
      </trkpt>
      <trkpt lat="-21.2038" lon="55.33113">
        <ele>720.58074951172</ele>
        <time>2012-11-06T07:19:26Z</time>
      </trkpt>
      <trkpt lat="-21.2038" lon="55.33115">
        <ele>720.84106445312</ele>
        <time>2012-11-06T07:19:27Z</time>
      </trkpt>
      <trkpt lat="-21.20379" lon="55.3312">
        <ele>721.55444335938</ele>
        <time>2012-11-06T07:19:29Z</time>
      </trkpt>
      <trkpt lat="-21.20379" lon="55.33125">
        <ele>721.82165527344</ele>
        <time>2012-11-06T07:19:31Z</time>
      </trkpt>
      <trkpt lat="-21.2038" lon="55.3313">
        <ele>721.64074707031</ele>
        <time>2012-11-06T07:19:33Z</time>
      </trkpt>
      <trkpt lat="-21.20382" lon="55.33133">
        <ele>721.88562011719</ele>
        <time>2012-11-06T07:19:34Z</time>
      </trkpt>
      <trkpt lat="-21.20385" lon="55.33137">
        <ele>722.46099853516</ele>
        <time>2012-11-06T07:19:36Z</time>
      </trkpt>
      <trkpt lat="-21.20386" lon="55.33139">
        <ele>722.95635986328</ele>
        <time>2012-11-06T07:19:37Z</time>
      </trkpt>
      <trkpt lat="-21.20389" lon="55.33142">
        <ele>725.50109863281</ele>
        <time>2012-11-06T07:19:39Z</time>
      </trkpt>
      <trkpt lat="-21.20393" lon="55.33146">
        <ele>724.04113769531</ele>
        <time>2012-11-06T07:19:41Z</time>
      </trkpt>
      <trkpt lat="-21.20396" lon="55.33151">
        <ele>721.45123291016</ele>
        <time>2012-11-06T07:19:43Z</time>
      </trkpt>
      <trkpt lat="-21.20398" lon="55.33157">
        <ele>720.67938232422</ele>
        <time>2012-11-06T07:19:45Z</time>
      </trkpt>
      <trkpt lat="-21.20399" lon="55.33159">
        <ele>721.82641601562</ele>
        <time>2012-11-06T07:19:46Z</time>
      </trkpt>
      <trkpt lat="-21.20401" lon="55.33164">
        <ele>722.08673095703</ele>
        <time>2012-11-06T07:19:48Z</time>
      </trkpt>
      <trkpt lat="-21.20402" lon="55.33167">
        <ele>723.07879638672</ele>
        <time>2012-11-06T07:19:49Z</time>
      </trkpt>
      <trkpt lat="-21.20405" lon="55.33172">
        <ele>721.90057373047</ele>
        <time>2012-11-06T07:19:51Z</time>
      </trkpt>
      <trkpt lat="-21.20406" lon="55.33174">
        <ele>721.5634765625</ele>
        <time>2012-11-06T07:19:52Z</time>
      </trkpt>
      <trkpt lat="-21.20407" lon="55.33179">
        <ele>721.76068115234</ele>
        <time>2012-11-06T07:19:54Z</time>
      </trkpt>
      <trkpt lat="-21.20406" lon="55.33183">
        <ele>724.57867431641</ele>
        <time>2012-11-06T07:19:56Z</time>
      </trkpt>
      <trkpt lat="-21.20404" lon="55.33186">
        <ele>724.38397216797</ele>
        <time>2012-11-06T07:19:58Z</time>
      </trkpt>
      <trkpt lat="-21.204" lon="55.33187">
        <ele>723.61004638672</ele>
        <time>2012-11-06T07:20:00Z</time>
      </trkpt>
      <trkpt lat="-21.20399" lon="55.33186">
        <ele>723.36627197266</ele>
        <time>2012-11-06T07:20:01Z</time>
      </trkpt>
      <trkpt lat="-21.20396" lon="55.33184">
        <ele>723.39489746094</ele>
        <time>2012-11-06T07:20:03Z</time>
      </trkpt>
      <trkpt lat="-21.20394" lon="55.33183">
        <ele>723.93475341797</ele>
        <time>2012-11-06T07:20:04Z</time>
      </trkpt>
      <trkpt lat="-21.20389" lon="55.33181">
        <ele>723.63165283203</ele>
        <time>2012-11-06T07:20:06Z</time>
      </trkpt>
      <trkpt lat="-21.20386" lon="55.33179">
        <ele>724.04064941406</ele>
        <time>2012-11-06T07:20:08Z</time>
      </trkpt>
      <trkpt lat="-21.20384" lon="55.33178">
        <ele>723.43511962891</ele>
        <time>2012-11-06T07:20:09Z</time>
      </trkpt>
      <trkpt lat="-21.20382" lon="55.33177">
        <ele>722.37915039062</ele>
        <time>2012-11-06T07:20:10Z</time>
      </trkpt>
      <trkpt lat="-21.20376" lon="55.33174">
        <ele>722.09521484375</ele>
        <time>2012-11-06T07:20:12Z</time>
      </trkpt>
      <trkpt lat="-21.20371" lon="55.33173">
        <ele>722.44421386719</ele>
        <time>2012-11-06T07:20:14Z</time>
      </trkpt>
      <trkpt lat="-21.20369" lon="55.33172">
        <ele>722.40295410156</ele>
        <time>2012-11-06T07:20:15Z</time>
      </trkpt>
      <trkpt lat="-21.20366" lon="55.33171">
        <ele>722.31091308594</ele>
        <time>2012-11-06T07:20:17Z</time>
      </trkpt>
      <trkpt lat="-21.20362" lon="55.33173">
        <ele>724.65509033203</ele>
        <time>2012-11-06T07:20:19Z</time>
      </trkpt>
      <trkpt lat="-21.20359" lon="55.33176">
        <ele>731.10876464844</ele>
        <time>2012-11-06T07:20:21Z</time>
      </trkpt>
      <trkpt lat="-21.20359" lon="55.33177">
        <ele>733.32238769531</ele>
        <time>2012-11-06T07:20:22Z</time>
      </trkpt>
      <trkpt lat="-21.2036" lon="55.33179">
        <ele>735.60565185547</ele>
        <time>2012-11-06T07:20:23Z</time>
      </trkpt>
      <trkpt lat="-21.20362" lon="55.33181">
        <ele>731.38165283203</ele>
        <time>2012-11-06T07:20:25Z</time>
      </trkpt>
      <trkpt lat="-21.20364" lon="55.33183">
        <ele>732.73223876953</ele>
        <time>2012-11-06T07:20:27Z</time>
      </trkpt>
      <trkpt lat="-21.20366" lon="55.33186">
        <ele>733.64965820312</ele>
        <time>2012-11-06T07:20:29Z</time>
      </trkpt>
      <trkpt lat="-21.20367" lon="55.33187">
        <ele>733.59729003906</ele>
        <time>2012-11-06T07:20:30Z</time>
      </trkpt>
      <trkpt lat="-21.20369" lon="55.33189">
        <ele>733.93359375</ele>
        <time>2012-11-06T07:20:31Z</time>
      </trkpt>
      <trkpt lat="-21.20369" lon="55.33189">
        <ele>733.38220214844</ele>
        <time>2012-11-06T07:20:32Z</time>
      </trkpt>
      <trkpt lat="-21.20373" lon="55.33192">
        <ele>733.67462158203</ele>
        <time>2012-11-06T07:20:34Z</time>
      </trkpt>
      <trkpt lat="-21.20375" lon="55.33194">
        <ele>734.29779052734</ele>
        <time>2012-11-06T07:20:36Z</time>
      </trkpt>
      <trkpt lat="-21.20376" lon="55.33196">
        <ele>734.29364013672</ele>
        <time>2012-11-06T07:20:37Z</time>
      </trkpt>
      <trkpt lat="-21.20377" lon="55.33197">
        <ele>734.77673339844</ele>
        <time>2012-11-06T07:20:39Z</time>
      </trkpt>
      <trkpt lat="-21.20378" lon="55.33199">
        <ele>734.27722167969</ele>
        <time>2012-11-06T07:20:40Z</time>
      </trkpt>
      <trkpt lat="-21.20378" lon="55.332">
        <ele>732.57366943359</ele>
        <time>2012-11-06T07:20:41Z</time>
      </trkpt>
      <trkpt lat="-21.20379" lon="55.33202">
        <ele>735.59246826172</ele>
        <time>2012-11-06T07:20:43Z</time>
      </trkpt>
      <trkpt lat="-21.2038" lon="55.33203">
        <ele>736.15386962891</ele>
        <time>2012-11-06T07:20:44Z</time>
      </trkpt>
      <trkpt lat="-21.20381" lon="55.33207">
        <ele>736.10675048828</ele>
        <time>2012-11-06T07:20:46Z</time>
      </trkpt>
      <trkpt lat="-21.20381" lon="55.33209">
        <ele>738.07269287109</ele>
        <time>2012-11-06T07:20:47Z</time>
      </trkpt>
      <trkpt lat="-21.20381" lon="55.33212">
        <ele>738.64471435547</ele>
        <time>2012-11-06T07:20:49Z</time>
      </trkpt>
      <trkpt lat="-21.20381" lon="55.33215">
        <ele>740.08056640625</ele>
        <time>2012-11-06T07:20:51Z</time>
      </trkpt>
      <trkpt lat="-21.20382" lon="55.33216">
        <ele>740.69354248047</ele>
        <time>2012-11-06T07:20:52Z</time>
      </trkpt>
      <trkpt lat="-21.20381" lon="55.3322">
        <ele>740.10729980469</ele>
        <time>2012-11-06T07:20:54Z</time>
      </trkpt>
      <trkpt lat="-21.20381" lon="55.33223">
        <ele>739.73864746094</ele>
        <time>2012-11-06T07:20:55Z</time>
      </trkpt>
      <trkpt lat="-21.20381" lon="55.33225">
        <ele>739.78472900391</ele>
        <time>2012-11-06T07:20:57Z</time>
      </trkpt>
      <trkpt lat="-21.2038" lon="55.33228">
        <ele>739.07202148438</ele>
        <time>2012-11-06T07:20:59Z</time>
      </trkpt>
      <trkpt lat="-21.20379" lon="55.3323">
        <ele>738.19244384766</ele>
        <time>2012-11-06T07:21:01Z</time>
      </trkpt>
      <trkpt lat="-21.20378" lon="55.33233">
        <ele>738.0419921875</ele>
        <time>2012-11-06T07:21:03Z</time>
      </trkpt>
      <trkpt lat="-21.20378" lon="55.33235">
        <ele>737.50677490234</ele>
        <time>2012-11-06T07:21:04Z</time>
      </trkpt>
      <trkpt lat="-21.20378" lon="55.33237">
        <ele>737.43939208984</ele>
        <time>2012-11-06T07:21:05Z</time>
      </trkpt>
      <trkpt lat="-21.20378" lon="55.33241">
        <ele>736.45703125</ele>
        <time>2012-11-06T07:21:07Z</time>
      </trkpt>
      <trkpt lat="-21.20378" lon="55.33245">
        <ele>736.11791992188</ele>
        <time>2012-11-06T07:21:09Z</time>
      </trkpt>
      <trkpt lat="-21.20378" lon="55.33247">
        <ele>735.58813476562</ele>
        <time>2012-11-06T07:21:10Z</time>
      </trkpt>
      <trkpt lat="-21.20377" lon="55.33249">
        <ele>735.10119628906</ele>
        <time>2012-11-06T07:21:12Z</time>
      </trkpt>
      <trkpt lat="-21.20376" lon="55.33252">
        <ele>734.70080566406</ele>
        <time>2012-11-06T07:21:14Z</time>
      </trkpt>
      <trkpt lat="-21.20376" lon="55.33256">
        <ele>735.47375488281</ele>
        <time>2012-11-06T07:21:16Z</time>
      </trkpt>
      <trkpt lat="-21.20375" lon="55.33258">
        <ele>738.83111572266</ele>
        <time>2012-11-06T07:21:18Z</time>
      </trkpt>
      <trkpt lat="-21.20374" lon="55.33259">
        <ele>741.09771728516</ele>
        <time>2012-11-06T07:21:19Z</time>
      </trkpt>
      <trkpt lat="-21.20374" lon="55.33259">
        <ele>743.34942626953</ele>
        <time>2012-11-06T07:21:20Z</time>
      </trkpt>
      <trkpt lat="-21.20373" lon="55.3326">
        <ele>744.28601074219</ele>
        <time>2012-11-06T07:21:21Z</time>
      </trkpt>
      <trkpt lat="-21.20372" lon="55.33263">
        <ele>745.33660888672</ele>
        <time>2012-11-06T07:21:23Z</time>
      </trkpt>
      <trkpt lat="-21.20371" lon="55.33264">
        <ele>744.95269775391</ele>
        <time>2012-11-06T07:21:24Z</time>
      </trkpt>
      <trkpt lat="-21.2037" lon="55.33265">
        <ele>744.50854492188</ele>
        <time>2012-11-06T07:21:25Z</time>
      </trkpt>
      <trkpt lat="-21.20369" lon="55.33268">
        <ele>744.99725341797</ele>
        <time>2012-11-06T07:21:27Z</time>
      </trkpt>
      <trkpt lat="-21.20367" lon="55.33271">
        <ele>745.65997314453</ele>
        <time>2012-11-06T07:21:29Z</time>
      </trkpt>
      <trkpt lat="-21.20366" lon="55.33272">
        <ele>746.72985839844</ele>
        <time>2012-11-06T07:21:30Z</time>
      </trkpt>
      <trkpt lat="-21.20365" lon="55.33276">
        <ele>745.89544677734</ele>
        <time>2012-11-06T07:21:32Z</time>
      </trkpt>
      <trkpt lat="-21.20364" lon="55.3328">
        <ele>747.98571777344</ele>
        <time>2012-11-06T07:21:34Z</time>
      </trkpt>
      <trkpt lat="-21.20364" lon="55.33284">
        <ele>748.25482177734</ele>
        <time>2012-11-06T07:21:36Z</time>
      </trkpt>
      <trkpt lat="-21.20363" lon="55.33289">
        <ele>749.12286376953</ele>
        <time>2012-11-06T07:21:38Z</time>
      </trkpt>
      <trkpt lat="-21.20362" lon="55.33292">
        <ele>749.84881591797</ele>
        <time>2012-11-06T07:21:39Z</time>
      </trkpt>
      <trkpt lat="-21.20362" lon="55.33295">
        <ele>750.50640869141</ele>
        <time>2012-11-06T07:21:40Z</time>
      </trkpt>
      <trkpt lat="-21.20362" lon="55.33301">
        <ele>746.75512695312</ele>
        <time>2012-11-06T07:21:42Z</time>
      </trkpt>
      <trkpt lat="-21.20366" lon="55.33307">
        <ele>745.79254150391</ele>
        <time>2012-11-06T07:21:44Z</time>
      </trkpt>
      <trkpt lat="-21.20373" lon="55.33311">
        <ele>743.26251220703</ele>
        <time>2012-11-06T07:21:46Z</time>
      </trkpt>
      <trkpt lat="-21.20378" lon="55.33312">
        <ele>747.30725097656</ele>
        <time>2012-11-06T07:21:48Z</time>
      </trkpt>
      <trkpt lat="-21.20379" lon="55.33311">
        <ele>748.92102050781</ele>
        <time>2012-11-06T07:21:49Z</time>
      </trkpt>
      <trkpt lat="-21.20381" lon="55.33311">
        <ele>748.67260742188</ele>
        <time>2012-11-06T07:21:50Z</time>
      </trkpt>
      <trkpt lat="-21.20384" lon="55.33308">
        <ele>747.89178466797</ele>
        <time>2012-11-06T07:21:52Z</time>
      </trkpt>
      <trkpt lat="-21.20388" lon="55.33305">
        <ele>747.70062255859</ele>
        <time>2012-11-06T07:21:54Z</time>
      </trkpt>
      <trkpt lat="-21.20393" lon="55.33302">
        <ele>748.47845458984</ele>
        <time>2012-11-06T07:21:56Z</time>
      </trkpt>
      <trkpt lat="-21.20396" lon="55.333">
        <ele>750.02880859375</ele>
        <time>2012-11-06T07:21:57Z</time>
      </trkpt>
      <trkpt lat="-21.20399" lon="55.33298">
        <ele>748.70428466797</ele>
        <time>2012-11-06T07:21:58Z</time>
      </trkpt>
      <trkpt lat="-21.20402" lon="55.33296">
        <ele>748.16790771484</ele>
        <time>2012-11-06T07:21:59Z</time>
      </trkpt>
      <trkpt lat="-21.20408" lon="55.33292">
        <ele>745.53930664062</ele>
        <time>2012-11-06T07:22:01Z</time>
      </trkpt>
      <trkpt lat="-21.20415" lon="55.33288">
        <ele>742.70422363281</ele>
        <time>2012-11-06T07:22:03Z</time>
      </trkpt>
      <trkpt lat="-21.20418" lon="55.33288">
        <ele>743.64947509766</ele>
        <time>2012-11-06T07:22:04Z</time>
      </trkpt>
      <trkpt lat="-21.20428" lon="55.33284">
        <ele>744.05377197266</ele>
        <time>2012-11-06T07:22:05Z</time>
      </trkpt>
      <trkpt lat="-21.20434" lon="55.33282">
        <ele>742.84326171875</ele>
        <time>2012-11-06T07:22:07Z</time>
      </trkpt>
      <trkpt lat="-21.20445" lon="55.33281">
        <ele>741.46166992188</ele>
        <time>2012-11-06T07:22:09Z</time>
      </trkpt>
      <trkpt lat="-21.2045" lon="55.33281">
        <ele>741.41027832031</ele>
        <time>2012-11-06T07:22:10Z</time>
      </trkpt>
      <trkpt lat="-21.2046" lon="55.33282">
        <ele>740.90856933594</ele>
        <time>2012-11-06T07:22:12Z</time>
      </trkpt>
      <trkpt lat="-21.20471" lon="55.33286">
        <ele>742.66424560547</ele>
        <time>2012-11-06T07:22:14Z</time>
      </trkpt>
      <trkpt lat="-21.20476" lon="55.33289">
        <ele>741.59649658203</ele>
        <time>2012-11-06T07:22:15Z</time>
      </trkpt>
      <trkpt lat="-21.20481" lon="55.33291">
        <ele>739.9765625</ele>
        <time>2012-11-06T07:22:16Z</time>
      </trkpt>
      <trkpt lat="-21.20491" lon="55.33297">
        <ele>739.21453857422</ele>
        <time>2012-11-06T07:22:18Z</time>
      </trkpt>
      <trkpt lat="-21.20496" lon="55.33298">
        <ele>738.2802734375</ele>
        <time>2012-11-06T07:22:19Z</time>
      </trkpt>
      <trkpt lat="-21.205" lon="55.33298">
        <ele>738.31121826172</ele>
        <time>2012-11-06T07:22:20Z</time>
      </trkpt>
      <trkpt lat="-21.20507" lon="55.33295">
        <ele>740.95745849609</ele>
        <time>2012-11-06T07:22:22Z</time>
      </trkpt>
      <trkpt lat="-21.20511" lon="55.33291">
        <ele>741.029296875</ele>
        <time>2012-11-06T07:22:23Z</time>
      </trkpt>
      <trkpt lat="-21.2052" lon="55.33283">
        <ele>741.46252441406</ele>
        <time>2012-11-06T07:22:25Z</time>
      </trkpt>
      <trkpt lat="-21.2053" lon="55.33274">
        <ele>741.03070068359</ele>
        <time>2012-11-06T07:22:27Z</time>
      </trkpt>
      <trkpt lat="-21.20535" lon="55.3327">
        <ele>741.45965576172</ele>
        <time>2012-11-06T07:22:28Z</time>
      </trkpt>
      <trkpt lat="-21.20544" lon="55.3326">
        <ele>739.73944091797</ele>
        <time>2012-11-06T07:22:30Z</time>
      </trkpt>
      <trkpt lat="-21.20548" lon="55.33255">
        <ele>740.26403808594</ele>
        <time>2012-11-06T07:22:31Z</time>
      </trkpt>
      <trkpt lat="-21.20555" lon="55.33249">
        <ele>740.24243164062</ele>
        <time>2012-11-06T07:22:33Z</time>
      </trkpt>
      <trkpt lat="-21.20559" lon="55.33246">
        <ele>742.46148681641</ele>
        <time>2012-11-06T07:22:35Z</time>
      </trkpt>
      <trkpt lat="-21.20563" lon="55.33245">
        <ele>740.599609375</ele>
        <time>2012-11-06T07:22:36Z</time>
      </trkpt>
      <trkpt lat="-21.20566" lon="55.33244">
        <ele>737.22406005859</ele>
        <time>2012-11-06T07:22:38Z</time>
      </trkpt>
      <trkpt lat="-21.2057" lon="55.33244">
        <ele>734.96667480469</ele>
        <time>2012-11-06T07:22:40Z</time>
      </trkpt>
      <trkpt lat="-21.20572" lon="55.33245">
        <ele>736.47436523438</ele>
        <time>2012-11-06T07:22:41Z</time>
      </trkpt>
      <trkpt lat="-21.20574" lon="55.33249">
        <ele>737.80151367188</ele>
        <time>2012-11-06T07:22:43Z</time>
      </trkpt>
      <trkpt lat="-21.20574" lon="55.33251">
        <ele>736.23553466797</ele>
        <time>2012-11-06T07:22:44Z</time>
      </trkpt>
      <trkpt lat="-21.20578" lon="55.33254">
        <ele>740.10491943359</ele>
        <time>2012-11-06T07:22:46Z</time>
      </trkpt>
      <trkpt lat="-21.2058" lon="55.33255">
        <ele>740.91070556641</ele>
        <time>2012-11-06T07:22:47Z</time>
      </trkpt>
      <trkpt lat="-21.20582" lon="55.33255">
        <ele>740.29193115234</ele>
        <time>2012-11-06T07:22:48Z</time>
      </trkpt>
      <trkpt lat="-21.20586" lon="55.33255">
        <ele>742.02026367188</ele>
        <time>2012-11-06T07:22:50Z</time>
      </trkpt>
      <trkpt lat="-21.20587" lon="55.33255">
        <ele>741.77917480469</ele>
        <time>2012-11-06T07:22:51Z</time>
      </trkpt>
      <trkpt lat="-21.2059" lon="55.33255">
        <ele>744.09735107422</ele>
        <time>2012-11-06T07:22:53Z</time>
      </trkpt>
      <trkpt lat="-21.20592" lon="55.33253">
        <ele>745.24676513672</ele>
        <time>2012-11-06T07:22:55Z</time>
      </trkpt>
      <trkpt lat="-21.20595" lon="55.33251">
        <ele>742.89605712891</ele>
        <time>2012-11-06T07:22:57Z</time>
      </trkpt>
      <trkpt lat="-21.20596" lon="55.3325">
        <ele>741.7998046875</ele>
        <time>2012-11-06T07:22:58Z</time>
      </trkpt>
      <trkpt lat="-21.20597" lon="55.33248">
        <ele>740.41546630859</ele>
        <time>2012-11-06T07:22:59Z</time>
      </trkpt>
      <trkpt lat="-21.206" lon="55.33246">
        <ele>739.29351806641</ele>
        <time>2012-11-06T07:23:01Z</time>
      </trkpt>
      <trkpt lat="-21.20602" lon="55.33245">
        <ele>740.51013183594</ele>
        <time>2012-11-06T07:23:03Z</time>
      </trkpt>
      <trkpt lat="-21.20604" lon="55.33243">
        <ele>741.90270996094</ele>
        <time>2012-11-06T07:23:05Z</time>
      </trkpt>
      <trkpt lat="-21.20606" lon="55.33241">
        <ele>742.36322021484</ele>
        <time>2012-11-06T07:23:07Z</time>
      </trkpt>
      <trkpt lat="-21.20608" lon="55.33239">
        <ele>742.29095458984</ele>
        <time>2012-11-06T07:23:09Z</time>
      </trkpt>
      <trkpt lat="-21.20608" lon="55.33236">
        <ele>742.86071777344</ele>
        <time>2012-11-06T07:23:11Z</time>
      </trkpt>
      <trkpt lat="-21.20608" lon="55.33235">
        <ele>743.92462158203</ele>
        <time>2012-11-06T07:23:12Z</time>
      </trkpt>
      <trkpt lat="-21.20608" lon="55.33234">
        <ele>745.53131103516</ele>
        <time>2012-11-06T07:23:13Z</time>
      </trkpt>
      <trkpt lat="-21.20607" lon="55.33232">
        <ele>748.17736816406</ele>
        <time>2012-11-06T07:23:15Z</time>
      </trkpt>
      <trkpt lat="-21.20605" lon="55.3323">
        <ele>749.57244873047</ele>
        <time>2012-11-06T07:23:17Z</time>
      </trkpt>
      <trkpt lat="-21.20604" lon="55.33227">
        <ele>749.96411132812</ele>
        <time>2012-11-06T07:23:19Z</time>
      </trkpt>
      <trkpt lat="-21.20603" lon="55.33226">
        <ele>750.72448730469</ele>
        <time>2012-11-06T07:23:20Z</time>
      </trkpt>
      <trkpt lat="-21.20602" lon="55.33224">
        <ele>750.47583007812</ele>
        <time>2012-11-06T07:23:22Z</time>
      </trkpt>
      <trkpt lat="-21.206" lon="55.33221">
        <ele>750.42938232422</ele>
        <time>2012-11-06T07:23:24Z</time>
      </trkpt>
      <trkpt lat="-21.206" lon="55.3322">
        <ele>749.14782714844</ele>
        <time>2012-11-06T07:23:25Z</time>
      </trkpt>
      <trkpt lat="-21.20598" lon="55.33218">
        <ele>749.34808349609</ele>
        <time>2012-11-06T07:23:27Z</time>
      </trkpt>
      <trkpt lat="-21.20597" lon="55.33216">
        <ele>749.79431152344</ele>
        <time>2012-11-06T07:23:28Z</time>
      </trkpt>
      <trkpt lat="-21.20597" lon="55.33213">
        <ele>750.68762207031</ele>
        <time>2012-11-06T07:23:30Z</time>
      </trkpt>
      <trkpt lat="-21.20597" lon="55.3321">
        <ele>751.43005371094</ele>
        <time>2012-11-06T07:23:32Z</time>
      </trkpt>
      <trkpt lat="-21.20597" lon="55.33208">
        <ele>752.92602539062</ele>
        <time>2012-11-06T07:23:33Z</time>
      </trkpt>
      <trkpt lat="-21.20598" lon="55.33207">
        <ele>755.80285644531</ele>
        <time>2012-11-06T07:23:35Z</time>
      </trkpt>
      <trkpt lat="-21.206" lon="55.33205">
        <ele>757.57141113281</ele>
        <time>2012-11-06T07:23:37Z</time>
      </trkpt>
      <trkpt lat="-21.20602" lon="55.33204">
        <ele>756.89349365234</ele>
        <time>2012-11-06T07:23:38Z</time>
      </trkpt>
      <trkpt lat="-21.20604" lon="55.33203">
        <ele>756.26446533203</ele>
        <time>2012-11-06T07:23:40Z</time>
      </trkpt>
      <trkpt lat="-21.20607" lon="55.33203">
        <ele>756.47906494141</ele>
        <time>2012-11-06T07:23:42Z</time>
      </trkpt>
      <trkpt lat="-21.20608" lon="55.33203">
        <ele>755.68151855469</ele>
        <time>2012-11-06T07:23:43Z</time>
      </trkpt>
      <trkpt lat="-21.20609" lon="55.33203">
        <ele>756.91491699219</ele>
        <time>2012-11-06T07:23:44Z</time>
      </trkpt>
      <trkpt lat="-21.20613" lon="55.33203">
        <ele>756.07147216797</ele>
        <time>2012-11-06T07:23:46Z</time>
      </trkpt>
      <trkpt lat="-21.20615" lon="55.33203">
        <ele>757.63720703125</ele>
        <time>2012-11-06T07:23:48Z</time>
      </trkpt>
      <trkpt lat="-21.20616" lon="55.33203">
        <ele>756.45989990234</ele>
        <time>2012-11-06T07:23:49Z</time>
      </trkpt>
      <trkpt lat="-21.20618" lon="55.33203">
        <ele>755.51379394531</ele>
        <time>2012-11-06T07:23:51Z</time>
      </trkpt>
      <trkpt lat="-21.2062" lon="55.33204">
        <ele>755.22766113281</ele>
        <time>2012-11-06T07:23:52Z</time>
      </trkpt>
      <trkpt lat="-21.20622" lon="55.33204">
        <ele>753.58087158203</ele>
        <time>2012-11-06T07:23:54Z</time>
      </trkpt>
      <trkpt lat="-21.20625" lon="55.33206">
        <ele>753.28625488281</ele>
        <time>2012-11-06T07:23:56Z</time>
      </trkpt>
      <trkpt lat="-21.20627" lon="55.33207">
        <ele>757.41802978516</ele>
        <time>2012-11-06T07:23:58Z</time>
      </trkpt>
      <trkpt lat="-21.20628" lon="55.33207">
        <ele>757.87976074219</ele>
        <time>2012-11-06T07:23:59Z</time>
      </trkpt>
      <trkpt lat="-21.2063" lon="55.33207">
        <ele>757.95928955078</ele>
        <time>2012-11-06T07:24:01Z</time>
      </trkpt>
      <trkpt lat="-21.20632" lon="55.33207">
        <ele>756.46734619141</ele>
        <time>2012-11-06T07:24:03Z</time>
      </trkpt>
      <trkpt lat="-21.20634" lon="55.33206">
        <ele>756.96893310547</ele>
        <time>2012-11-06T07:24:04Z</time>
      </trkpt>
      <trkpt lat="-21.20636" lon="55.33205">
        <ele>758.83953857422</ele>
        <time>2012-11-06T07:24:06Z</time>
      </trkpt>
      <trkpt lat="-21.20637" lon="55.33205">
        <ele>759.71990966797</ele>
        <time>2012-11-06T07:24:07Z</time>
      </trkpt>
      <trkpt lat="-21.20638" lon="55.33205">
        <ele>760.63677978516</ele>
        <time>2012-11-06T07:24:08Z</time>
      </trkpt>
      <trkpt lat="-21.2064" lon="55.33205">
        <ele>761.39318847656</ele>
        <time>2012-11-06T07:24:09Z</time>
      </trkpt>
      <trkpt lat="-21.20642" lon="55.33204">
        <ele>761.39318847656</ele>
        <time>2012-11-06T07:24:11Z</time>
      </trkpt>
      <trkpt lat="-21.20644" lon="55.33203">
        <ele>762.43695068359</ele>
        <time>2012-11-06T07:24:13Z</time>
      </trkpt>
      <trkpt lat="-21.20646" lon="55.33202">
        <ele>764.30108642578</ele>
        <time>2012-11-06T07:24:15Z</time>
      </trkpt>
      <trkpt lat="-21.20647" lon="55.33201">
        <ele>765.22955322266</ele>
        <time>2012-11-06T07:24:16Z</time>
      </trkpt>
      <trkpt lat="-21.20649" lon="55.332">
        <ele>766.09924316406</ele>
        <time>2012-11-06T07:24:18Z</time>
      </trkpt>
      <trkpt lat="-21.2065" lon="55.33199">
        <ele>766.40368652344</ele>
        <time>2012-11-06T07:24:19Z</time>
      </trkpt>
      <trkpt lat="-21.20653" lon="55.33198">
        <ele>767.10650634766</ele>
        <time>2012-11-06T07:24:21Z</time>
      </trkpt>
      <trkpt lat="-21.20654" lon="55.33198">
        <ele>767.03039550781</ele>
        <time>2012-11-06T07:24:22Z</time>
      </trkpt>
      <trkpt lat="-21.20657" lon="55.33196">
        <ele>767.408203125</ele>
        <time>2012-11-06T07:24:24Z</time>
      </trkpt>
      <trkpt lat="-21.20658" lon="55.33195">
        <ele>766.73162841797</ele>
        <time>2012-11-06T07:24:25Z</time>
      </trkpt>
      <trkpt lat="-21.2066" lon="55.33193">
        <ele>765.97784423828</ele>
        <time>2012-11-06T07:24:27Z</time>
      </trkpt>
      <trkpt lat="-21.20663" lon="55.33191">
        <ele>765.44635009766</ele>
        <time>2012-11-06T07:24:29Z</time>
      </trkpt>
      <trkpt lat="-21.20664" lon="55.3319">
        <ele>765.77490234375</ele>
        <time>2012-11-06T07:24:30Z</time>
      </trkpt>
      <trkpt lat="-21.20665" lon="55.3319">
        <ele>766.27740478516</ele>
        <time>2012-11-06T07:24:31Z</time>
      </trkpt>
      <trkpt lat="-21.20667" lon="55.33188">
        <ele>767.28692626953</ele>
        <time>2012-11-06T07:24:33Z</time>
      </trkpt>
      <trkpt lat="-21.20668" lon="55.33188">
        <ele>768.23260498047</ele>
        <time>2012-11-06T07:24:34Z</time>
      </trkpt>
      <trkpt lat="-21.20669" lon="55.33187">
        <ele>768.72235107422</ele>
        <time>2012-11-06T07:24:35Z</time>
      </trkpt>
      <trkpt lat="-21.20671" lon="55.33187">
        <ele>769.34997558594</ele>
        <time>2012-11-06T07:24:36Z</time>
      </trkpt>
      <trkpt lat="-21.20673" lon="55.33186">
        <ele>770.65930175781</ele>
        <time>2012-11-06T07:24:38Z</time>
      </trkpt>
      <trkpt lat="-21.20676" lon="55.33185">
        <ele>770.67681884766</ele>
        <time>2012-11-06T07:24:40Z</time>
      </trkpt>
      <trkpt lat="-21.20678" lon="55.33184">
        <ele>770.01776123047</ele>
        <time>2012-11-06T07:24:42Z</time>
      </trkpt>
      <trkpt lat="-21.2068" lon="55.33183">
        <ele>770.52905273438</ele>
        <time>2012-11-06T07:24:43Z</time>
      </trkpt>
      <trkpt lat="-21.20682" lon="55.33182">
        <ele>769.76342773438</ele>
        <time>2012-11-06T07:24:45Z</time>
      </trkpt>
      <trkpt lat="-21.20683" lon="55.33182">
        <ele>770.70129394531</ele>
        <time>2012-11-06T07:24:46Z</time>
      </trkpt>
      <trkpt lat="-21.20685" lon="55.33181">
        <ele>775.11090087891</ele>
        <time>2012-11-06T07:24:48Z</time>
      </trkpt>
      <trkpt lat="-21.20689" lon="55.33178">
        <ele>771.66528320312</ele>
        <time>2012-11-06T07:24:50Z</time>
      </trkpt>
      <trkpt lat="-21.2069" lon="55.33177">
        <ele>770.81433105469</ele>
        <time>2012-11-06T07:24:51Z</time>
      </trkpt>
      <trkpt lat="-21.20692" lon="55.33174">
        <ele>770.38824462891</ele>
        <time>2012-11-06T07:24:53Z</time>
      </trkpt>
      <trkpt lat="-21.20694" lon="55.33171">
        <ele>770.6162109375</ele>
        <time>2012-11-06T07:24:55Z</time>
      </trkpt>
      <trkpt lat="-21.20695" lon="55.33169">
        <ele>769.40655517578</ele>
        <time>2012-11-06T07:24:57Z</time>
      </trkpt>
      <trkpt lat="-21.20695" lon="55.33167">
        <ele>770.38049316406</ele>
        <time>2012-11-06T07:24:58Z</time>
      </trkpt>
      <trkpt lat="-21.20695" lon="55.33163">
        <ele>769.94555664062</ele>
        <time>2012-11-06T07:25:00Z</time>
      </trkpt>
      <trkpt lat="-21.20694" lon="55.33161">
        <ele>768.99438476562</ele>
        <time>2012-11-06T07:25:01Z</time>
      </trkpt>
      <trkpt lat="-21.20694" lon="55.33157">
        <ele>767.87921142578</ele>
        <time>2012-11-06T07:25:03Z</time>
      </trkpt>
      <trkpt lat="-21.20694" lon="55.33156">
        <ele>765.27490234375</ele>
        <time>2012-11-06T07:25:04Z</time>
      </trkpt>
      <trkpt lat="-21.20694" lon="55.33155">
        <ele>764.43267822266</ele>
        <time>2012-11-06T07:25:05Z</time>
      </trkpt>
      <trkpt lat="-21.20693" lon="55.33152">
        <ele>765.64935302734</ele>
        <time>2012-11-06T07:25:07Z</time>
      </trkpt>
      <trkpt lat="-21.20693" lon="55.33149">
        <ele>767.40087890625</ele>
        <time>2012-11-06T07:25:09Z</time>
      </trkpt>
      <trkpt lat="-21.20692" lon="55.33146">
        <ele>768.03247070312</ele>
        <time>2012-11-06T07:25:11Z</time>
      </trkpt>
      <trkpt lat="-21.20692" lon="55.33144">
        <ele>767.70141601562</ele>
        <time>2012-11-06T07:25:12Z</time>
      </trkpt>
      <trkpt lat="-21.20691" lon="55.33141">
        <ele>768.52484130859</ele>
        <time>2012-11-06T07:25:14Z</time>
      </trkpt>
      <trkpt lat="-21.20691" lon="55.3314">
        <ele>768.8515625</ele>
        <time>2012-11-06T07:25:15Z</time>
      </trkpt>
      <trkpt lat="-21.20689" lon="55.33137">
        <ele>768.51739501953</ele>
        <time>2012-11-06T07:25:17Z</time>
      </trkpt>
      <trkpt lat="-21.20689" lon="55.33135">
        <ele>767.95098876953</ele>
        <time>2012-11-06T07:25:19Z</time>
      </trkpt>
      <trkpt lat="-21.20689" lon="55.33134">
        <ele>768.17816162109</ele>
        <time>2012-11-06T07:25:20Z</time>
      </trkpt>
      <trkpt lat="-21.20688" lon="55.33131">
        <ele>768.39678955078</ele>
        <time>2012-11-06T07:25:22Z</time>
      </trkpt>
      <trkpt lat="-21.20688" lon="55.3313">
        <ele>768.68267822266</ele>
        <time>2012-11-06T07:25:23Z</time>
      </trkpt>
      <trkpt lat="-21.20687" lon="55.33129">
        <ele>769.16522216797</ele>
        <time>2012-11-06T07:25:24Z</time>
      </trkpt>
      <trkpt lat="-21.20686" lon="55.33126">
        <ele>770.68048095703</ele>
        <time>2012-11-06T07:25:26Z</time>
      </trkpt>
      <trkpt lat="-21.20685" lon="55.33123">
        <ele>770.04113769531</ele>
        <time>2012-11-06T07:25:27Z</time>
      </trkpt>
      <trkpt lat="-21.20684" lon="55.33121">
        <ele>770.43438720703</ele>
        <time>2012-11-06T07:25:29Z</time>
      </trkpt>
      <trkpt lat="-21.20684" lon="55.3312">
        <ele>770.43176269531</ele>
        <time>2012-11-06T07:25:30Z</time>
      </trkpt>
      <trkpt lat="-21.20684" lon="55.33118">
        <ele>772.51287841797</ele>
        <time>2012-11-06T07:25:32Z</time>
      </trkpt>
      <trkpt lat="-21.20683" lon="55.33116">
        <ele>772.2373046875</ele>
        <time>2012-11-06T07:25:34Z</time>
      </trkpt>
      <trkpt lat="-21.20682" lon="55.33114">
        <ele>773.31994628906</ele>
        <time>2012-11-06T07:25:36Z</time>
      </trkpt>
      <trkpt lat="-21.20682" lon="55.33114">
        <ele>775.30389404297</ele>
        <time>2012-11-06T07:25:37Z</time>
      </trkpt>
      <trkpt lat="-21.20681" lon="55.33112">
        <ele>777.11669921875</ele>
        <time>2012-11-06T07:25:39Z</time>
      </trkpt>
      <trkpt lat="-21.20681" lon="55.33112">
        <ele>778.46606445312</ele>
        <time>2012-11-06T07:25:40Z</time>
      </trkpt>
      <trkpt lat="-21.20681" lon="55.33112">
        <ele>777.67462158203</ele>
        <time>2012-11-06T07:25:41Z</time>
      </trkpt>
      <trkpt lat="-21.20681" lon="55.33112">
        <ele>777.84777832031</ele>
        <time>2012-11-06T07:25:43Z</time>
      </trkpt>
      <trkpt lat="-21.20681" lon="55.33112">
        <ele>778.44207763672</ele>
        <time>2012-11-06T07:25:44Z</time>
      </trkpt>
      <trkpt lat="-21.20681" lon="55.33111">
        <ele>777.66979980469</ele>
        <time>2012-11-06T07:25:46Z</time>
      </trkpt>
      <trkpt lat="-21.20681" lon="55.33111">
        <ele>777.66979980469</ele>
        <time>2012-11-06T07:25:46Z</time>
      </trkpt>
      <trkpt lat="-21.20681" lon="55.33111">
        <ele>777.66979980469</ele>
        <time>2012-11-06T07:25:46Z</time>
      </trkpt>
      <trkpt lat="-21.20681" lon="55.33111">
        <ele>780.34704589844</ele>
        <time>2012-11-06T07:25:47Z</time>
      </trkpt>
      <trkpt lat="-21.20681" lon="55.33111">
        <ele>780.34704589844</ele>
        <time>2012-11-06T07:25:47Z</time>
      </trkpt>
      <trkpt lat="-21.20681" lon="55.33111">
        <ele>783.91918945312</ele>
        <time>2012-11-06T07:25:49Z</time>
      </trkpt>
      <trkpt lat="-21.20681" lon="55.33111">
        <ele>781.66906738281</ele>
        <time>2012-11-06T07:25:50Z</time>
      </trkpt>
      <trkpt lat="-21.20681" lon="55.33111">
        <ele>775.23083496094</ele>
        <time>2012-11-06T07:25:51Z</time>
      </trkpt>
      <trkpt lat="-21.20681" lon="55.33111">
        <ele>775.23083496094</ele>
        <time>2012-11-06T07:25:51Z</time>
      </trkpt>
      <trkpt lat="-21.20681" lon="55.33111">
        <ele>775.23083496094</ele>
        <time>2012-11-06T07:25:51Z</time>
      </trkpt>
      <trkpt lat="-21.20681" lon="55.3311">
        <ele>774.83148193359</ele>
        <time>2012-11-06T07:25:53Z</time>
      </trkpt>
      <trkpt lat="-21.20681" lon="55.3311">
        <ele>774.83148193359</ele>
        <time>2012-11-06T07:25:53Z</time>
      </trkpt>
      <trkpt lat="-21.20681" lon="55.3311">
        <ele>774.97125244141</ele>
        <time>2012-11-06T07:25:54Z</time>
      </trkpt>
      <trkpt lat="-21.20681" lon="55.3311">
        <ele>774.97125244141</ele>
        <time>2012-11-06T07:25:54Z</time>
      </trkpt>
      <trkpt lat="-21.20681" lon="55.3311">
        <ele>774.97125244141</ele>
        <time>2012-11-06T07:25:54Z</time>
      </trkpt>
      <trkpt lat="-21.20681" lon="55.3311">
        <ele>775.39868164062</ele>
        <time>2012-11-06T07:25:55Z</time>
      </trkpt>
      <trkpt lat="-21.20681" lon="55.3311">
        <ele>775.39868164062</ele>
        <time>2012-11-06T07:25:55Z</time>
      </trkpt>
      <trkpt lat="-21.20681" lon="55.3311">
        <ele>775.42083740234</ele>
        <time>2012-11-06T07:25:57Z</time>
      </trkpt>
      <trkpt lat="-21.20681" lon="55.3311">
        <ele>775.42083740234</ele>
        <time>2012-11-06T07:25:57Z</time>
      </trkpt>
      <trkpt lat="-21.20681" lon="55.3311">
        <ele>778.3427734375</ele>
        <time>2012-11-06T07:25:59Z</time>
      </trkpt>
      <trkpt lat="-21.20681" lon="55.3311">
        <ele>778.3427734375</ele>
        <time>2012-11-06T07:25:59Z</time>
      </trkpt>
      <trkpt lat="-21.20681" lon="55.3311">
        <ele>777.90759277344</ele>
        <time>2012-11-06T07:26:01Z</time>
      </trkpt>
      <trkpt lat="-21.20681" lon="55.3311">
        <ele>777.90759277344</ele>
        <time>2012-11-06T07:26:01Z</time>
      </trkpt>
      <trkpt lat="-21.20681" lon="55.3311">
        <ele>776.67993164062</ele>
        <time>2012-11-06T07:26:02Z</time>
      </trkpt>
      <trkpt lat="-21.20681" lon="55.3311">
        <ele>776.67993164062</ele>
        <time>2012-11-06T07:26:02Z</time>
      </trkpt>
      <trkpt lat="-21.20681" lon="55.3311">
        <ele>776.17590332031</ele>
        <time>2012-11-06T07:26:03Z</time>
      </trkpt>
      <trkpt lat="-21.20681" lon="55.3311">
        <ele>776.17590332031</ele>
        <time>2012-11-06T07:26:03Z</time>
      </trkpt>
      <trkpt lat="-21.20681" lon="55.3311">
        <ele>775.96551513672</ele>
        <time>2012-11-06T07:26:05Z</time>
      </trkpt>
      <trkpt lat="-21.20681" lon="55.3311">
        <ele>775.96551513672</ele>
        <time>2012-11-06T07:26:05Z</time>
      </trkpt>
      <trkpt lat="-21.20681" lon="55.3311">
        <ele>776.4150390625</ele>
        <time>2012-11-06T07:26:06Z</time>
      </trkpt>
      <trkpt lat="-21.20681" lon="55.3311">
        <ele>776.4150390625</ele>
        <time>2012-11-06T07:26:06Z</time>
      </trkpt>
      <trkpt lat="-21.20681" lon="55.3311">
        <ele>777.18969726562</ele>
        <time>2012-11-06T07:26:08Z</time>
      </trkpt>
      <trkpt lat="-21.20681" lon="55.3311">
        <ele>777.18969726562</ele>
        <time>2012-11-06T07:26:08Z</time>
      </trkpt>
      <trkpt lat="-21.20681" lon="55.3311">
        <ele>778.14709472656</ele>
        <time>2012-11-06T07:26:09Z</time>
      </trkpt>
      <trkpt lat="-21.20681" lon="55.3311">
        <ele>778.14709472656</ele>
        <time>2012-11-06T07:26:09Z</time>
      </trkpt>
      <trkpt lat="-21.20681" lon="55.3311">
        <ele>780.32275390625</ele>
        <time>2012-11-06T07:26:11Z</time>
      </trkpt>
      <trkpt lat="-21.20681" lon="55.3311">
        <ele>780.32275390625</ele>
        <time>2012-11-06T07:26:11Z</time>
      </trkpt>
      <trkpt lat="-21.20681" lon="55.3311">
        <ele>782.42016601562</ele>
        <time>2012-11-06T07:26:13Z</time>
      </trkpt>
      <trkpt lat="-21.20681" lon="55.3311">
        <ele>782.42016601562</ele>
        <time>2012-11-06T07:26:13Z</time>
      </trkpt>
      <trkpt lat="-21.20681" lon="55.3311">
        <ele>779.22100830078</ele>
        <time>2012-11-06T07:26:14Z</time>
      </trkpt>
      <trkpt lat="-21.20681" lon="55.3311">
        <ele>779.22100830078</ele>
        <time>2012-11-06T07:26:14Z</time>
      </trkpt>
      <trkpt lat="-21.20682" lon="55.3311">
        <ele>779.33673095703</ele>
        <time>2012-11-06T07:26:16Z</time>
      </trkpt>
      <trkpt lat="-21.20682" lon="55.3311">
        <ele>779.33673095703</ele>
        <time>2012-11-06T07:26:16Z</time>
      </trkpt>
      <trkpt lat="-21.20682" lon="55.3311">
        <ele>777.05432128906</ele>
        <time>2012-11-06T07:26:17Z</time>
      </trkpt>
      <trkpt lat="-21.20682" lon="55.3311">
        <ele>777.05432128906</ele>
        <time>2012-11-06T07:26:17Z</time>
      </trkpt>
      <trkpt lat="-21.20683" lon="55.33108">
        <ele>772.02966308594</ele>
        <time>2012-11-06T07:26:19Z</time>
      </trkpt>
      <trkpt lat="-21.20683" lon="55.33108">
        <ele>772.02966308594</ele>
        <time>2012-11-06T07:26:19Z</time>
      </trkpt>
      <trkpt lat="-21.20683" lon="55.33108">
        <ele>770.34985351562</ele>
        <time>2012-11-06T07:26:21Z</time>
      </trkpt>
      <trkpt lat="-21.20683" lon="55.33108">
        <ele>770.34985351562</ele>
        <time>2012-11-06T07:26:21Z</time>
      </trkpt>
      <trkpt lat="-21.20683" lon="55.33108">
        <ele>770.10510253906</ele>
        <time>2012-11-06T07:26:23Z</time>
      </trkpt>
      <trkpt lat="-21.20683" lon="55.33108">
        <ele>769.68786621094</ele>
        <time>2012-11-06T07:26:25Z</time>
      </trkpt>
      <trkpt lat="-21.20683" lon="55.33108">
        <ele>769.68786621094</ele>
        <time>2012-11-06T07:26:25Z</time>
      </trkpt>
      <trkpt lat="-21.20683" lon="55.33108">
        <ele>769.68786621094</ele>
        <time>2012-11-06T07:26:25Z</time>
      </trkpt>
      <trkpt lat="-21.20683" lon="55.33108">
        <ele>773.30682373047</ele>
        <time>2012-11-06T07:26:27Z</time>
      </trkpt>
      <trkpt lat="-21.20683" lon="55.33108">
        <ele>773.30682373047</ele>
        <time>2012-11-06T07:26:27Z</time>
      </trkpt>
      <trkpt lat="-21.20683" lon="55.33108">
        <ele>771.93792724609</ele>
        <time>2012-11-06T07:26:28Z</time>
      </trkpt>
      <trkpt lat="-21.20683" lon="55.33108">
        <ele>771.93792724609</ele>
        <time>2012-11-06T07:26:28Z</time>
      </trkpt>
      <trkpt lat="-21.20683" lon="55.33108">
        <ele>768.01983642578</ele>
        <time>2012-11-06T07:26:30Z</time>
      </trkpt>
      <trkpt lat="-21.20683" lon="55.33108">
        <ele>768.01983642578</ele>
        <time>2012-11-06T07:26:30Z</time>
      </trkpt>
      <trkpt lat="-21.20683" lon="55.33108">
        <ele>766.08630371094</ele>
        <time>2012-11-06T07:26:31Z</time>
      </trkpt>
      <trkpt lat="-21.20683" lon="55.33108">
        <ele>766.08630371094</ele>
        <time>2012-11-06T07:26:31Z</time>
      </trkpt>
      <trkpt lat="-21.20683" lon="55.33108">
        <ele>763.69659423828</ele>
        <time>2012-11-06T07:26:33Z</time>
      </trkpt>
      <trkpt lat="-21.20683" lon="55.33108">
        <ele>763.69659423828</ele>
        <time>2012-11-06T07:26:33Z</time>
      </trkpt>
      <trkpt lat="-21.20683" lon="55.33108">
        <ele>762.51165771484</ele>
        <time>2012-11-06T07:26:35Z</time>
      </trkpt>
      <trkpt lat="-21.20683" lon="55.33108">
        <ele>762.51165771484</ele>
        <time>2012-11-06T07:26:35Z</time>
      </trkpt>
      <trkpt lat="-21.20683" lon="55.33108">
        <ele>760.99658203125</ele>
        <time>2012-11-06T07:26:37Z</time>
      </trkpt>
      <trkpt lat="-21.20683" lon="55.33108">
        <ele>760.99658203125</ele>
        <time>2012-11-06T07:26:37Z</time>
      </trkpt>
      <trkpt lat="-21.20683" lon="55.33108">
        <ele>760.6220703125</ele>
        <time>2012-11-06T07:26:38Z</time>
      </trkpt>
      <trkpt lat="-21.20683" lon="55.33108">
        <ele>760.6220703125</ele>
        <time>2012-11-06T07:26:38Z</time>
      </trkpt>
      <trkpt lat="-21.20683" lon="55.33108">
        <ele>761.08782958984</ele>
        <time>2012-11-06T07:26:40Z</time>
      </trkpt>
      <trkpt lat="-21.20683" lon="55.33108">
        <ele>761.08782958984</ele>
        <time>2012-11-06T07:26:40Z</time>
      </trkpt>
      <trkpt lat="-21.20683" lon="55.33108">
        <ele>762.70825195312</ele>
        <time>2012-11-06T07:26:42Z</time>
      </trkpt>
      <trkpt lat="-21.20683" lon="55.33108">
        <ele>762.70825195312</ele>
        <time>2012-11-06T07:26:42Z</time>
      </trkpt>
      <trkpt lat="-21.20683" lon="55.33108">
        <ele>763.56530761719</ele>
        <time>2012-11-06T07:26:43Z</time>
      </trkpt>
      <trkpt lat="-21.20683" lon="55.33108">
        <ele>763.56530761719</ele>
        <time>2012-11-06T07:26:43Z</time>
      </trkpt>
      <trkpt lat="-21.20683" lon="55.33108">
        <ele>764.33605957031</ele>
        <time>2012-11-06T07:26:44Z</time>
      </trkpt>
      <trkpt lat="-21.20683" lon="55.33108">
        <ele>764.33605957031</ele>
        <time>2012-11-06T07:26:44Z</time>
      </trkpt>
      <trkpt lat="-21.20683" lon="55.33108">
        <ele>764.74688720703</ele>
        <time>2012-11-06T07:26:45Z</time>
      </trkpt>
      <trkpt lat="-21.20683" lon="55.33108">
        <ele>764.74688720703</ele>
        <time>2012-11-06T07:26:45Z</time>
      </trkpt>
      <trkpt lat="-21.20683" lon="55.33108">
        <ele>764.90679931641</ele>
        <time>2012-11-06T07:26:46Z</time>
      </trkpt>
      <trkpt lat="-21.20683" lon="55.33108">
        <ele>764.90679931641</ele>
        <time>2012-11-06T07:26:46Z</time>
      </trkpt>
      <trkpt lat="-21.20683" lon="55.33108">
        <ele>764.82952880859</ele>
        <time>2012-11-06T07:26:47Z</time>
      </trkpt>
      <trkpt lat="-21.20683" lon="55.33108">
        <ele>764.82952880859</ele>
        <time>2012-11-06T07:26:47Z</time>
      </trkpt>
      <trkpt lat="-21.20683" lon="55.33108">
        <ele>762.45617675781</ele>
        <time>2012-11-06T07:26:49Z</time>
      </trkpt>
      <trkpt lat="-21.20683" lon="55.33108">
        <ele>762.45617675781</ele>
        <time>2012-11-06T07:26:49Z</time>
      </trkpt>
      <trkpt lat="-21.20682" lon="55.33107">
        <ele>768.47692871094</ele>
        <time>2012-11-06T07:26:51Z</time>
      </trkpt>
      <trkpt lat="-21.20682" lon="55.33107">
        <ele>768.47692871094</ele>
        <time>2012-11-06T07:26:51Z</time>
      </trkpt>
      <trkpt lat="-21.20682" lon="55.33107">
        <ele>777.95245361328</ele>
        <time>2012-11-06T07:26:52Z</time>
      </trkpt>
      <trkpt lat="-21.20682" lon="55.33107">
        <ele>777.95245361328</ele>
        <time>2012-11-06T07:26:52Z</time>
      </trkpt>
      <trkpt lat="-21.20682" lon="55.33107">
        <ele>783.59143066406</ele>
        <time>2012-11-06T07:26:53Z</time>
      </trkpt>
      <trkpt lat="-21.20682" lon="55.33107">
        <ele>783.59143066406</ele>
        <time>2012-11-06T07:26:53Z</time>
      </trkpt>
      <trkpt lat="-21.20682" lon="55.33107">
        <ele>791.84155273438</ele>
        <time>2012-11-06T07:26:55Z</time>
      </trkpt>
      <trkpt lat="-21.20682" lon="55.33107">
        <ele>791.84155273438</ele>
        <time>2012-11-06T07:26:55Z</time>
      </trkpt>
      <trkpt lat="-21.20682" lon="55.33107">
        <ele>795.41827392578</ele>
        <time>2012-11-06T07:26:56Z</time>
      </trkpt>
      <trkpt lat="-21.20682" lon="55.33107">
        <ele>795.41827392578</ele>
        <time>2012-11-06T07:26:56Z</time>
      </trkpt>
      <trkpt lat="-21.20682" lon="55.33107">
        <ele>792.88903808594</ele>
        <time>2012-11-06T07:26:58Z</time>
      </trkpt>
      <trkpt lat="-21.20682" lon="55.33107">
        <ele>792.88903808594</ele>
        <time>2012-11-06T07:26:58Z</time>
      </trkpt>
      <trkpt lat="-21.20682" lon="55.33107">
        <ele>786.21948242188</ele>
        <time>2012-11-06T07:27:00Z</time>
      </trkpt>
      <trkpt lat="-21.20682" lon="55.33107">
        <ele>786.21948242188</ele>
        <time>2012-11-06T07:27:00Z</time>
      </trkpt>
      <trkpt lat="-21.20682" lon="55.33107">
        <ele>779.28509521484</ele>
        <time>2012-11-06T07:27:02Z</time>
      </trkpt>
      <trkpt lat="-21.20682" lon="55.33107">
        <ele>779.28509521484</ele>
        <time>2012-11-06T07:27:02Z</time>
      </trkpt>
      <trkpt lat="-21.20682" lon="55.33107">
        <ele>775.18463134766</ele>
        <time>2012-11-06T07:27:03Z</time>
      </trkpt>
      <trkpt lat="-21.20682" lon="55.33107">
        <ele>775.18463134766</ele>
        <time>2012-11-06T07:27:03Z</time>
      </trkpt>
      <trkpt lat="-21.20682" lon="55.33107">
        <ele>771.30279541016</ele>
        <time>2012-11-06T07:27:04Z</time>
      </trkpt>
      <trkpt lat="-21.20682" lon="55.33107">
        <ele>771.30279541016</ele>
        <time>2012-11-06T07:27:04Z</time>
      </trkpt>
      <trkpt lat="-21.20682" lon="55.33107">
        <ele>768.31500244141</ele>
        <time>2012-11-06T07:27:05Z</time>
      </trkpt>
      <trkpt lat="-21.20682" lon="55.33107">
        <ele>768.31500244141</ele>
        <time>2012-11-06T07:27:05Z</time>
      </trkpt>
      <trkpt lat="-21.20682" lon="55.33107">
        <ele>761.18225097656</ele>
        <time>2012-11-06T07:27:07Z</time>
      </trkpt>
      <trkpt lat="-21.20682" lon="55.33107">
        <ele>761.18225097656</ele>
        <time>2012-11-06T07:27:07Z</time>
      </trkpt>
      <trkpt lat="-21.20682" lon="55.33107">
        <ele>758.45104980469</ele>
        <time>2012-11-06T07:27:08Z</time>
      </trkpt>
      <trkpt lat="-21.20682" lon="55.33107">
        <ele>758.45104980469</ele>
        <time>2012-11-06T07:27:08Z</time>
      </trkpt>
      <trkpt lat="-21.20682" lon="55.33107">
        <ele>758.6767578125</ele>
        <time>2012-11-06T07:27:10Z</time>
      </trkpt>
      <trkpt lat="-21.20682" lon="55.33107">
        <ele>758.6767578125</ele>
        <time>2012-11-06T07:27:10Z</time>
      </trkpt>
      <trkpt lat="-21.20682" lon="55.33107">
        <ele>754.94738769531</ele>
        <time>2012-11-06T07:27:12Z</time>
      </trkpt>
      <trkpt lat="-21.20682" lon="55.33107">
        <ele>754.94738769531</ele>
        <time>2012-11-06T07:27:12Z</time>
      </trkpt>
      <trkpt lat="-21.20682" lon="55.33107">
        <ele>751.37213134766</ele>
        <time>2012-11-06T07:27:14Z</time>
      </trkpt>
      <trkpt lat="-21.20682" lon="55.33107">
        <ele>751.37213134766</ele>
        <time>2012-11-06T07:27:14Z</time>
      </trkpt>
      <trkpt lat="-21.20682" lon="55.33107">
        <ele>749.85577392578</ele>
        <time>2012-11-06T07:27:15Z</time>
      </trkpt>
      <trkpt lat="-21.20682" lon="55.33107">
        <ele>749.85577392578</ele>
        <time>2012-11-06T07:27:15Z</time>
      </trkpt>
      <trkpt lat="-21.20682" lon="55.33107">
        <ele>749.11798095703</ele>
        <time>2012-11-06T07:27:16Z</time>
      </trkpt>
      <trkpt lat="-21.20682" lon="55.33107">
        <ele>749.11798095703</ele>
        <time>2012-11-06T07:27:16Z</time>
      </trkpt>
      <trkpt lat="-21.20682" lon="55.33107">
        <ele>747.92797851562</ele>
        <time>2012-11-06T07:27:17Z</time>
      </trkpt>
      <trkpt lat="-21.20682" lon="55.33107">
        <ele>747.92797851562</ele>
        <time>2012-11-06T07:27:17Z</time>
      </trkpt>
      <trkpt lat="-21.20682" lon="55.33107">
        <ele>751.08532714844</ele>
        <time>2012-11-06T07:27:19Z</time>
      </trkpt>
      <trkpt lat="-21.20682" lon="55.33107">
        <ele>751.08532714844</ele>
        <time>2012-11-06T07:27:19Z</time>
      </trkpt>
      <trkpt lat="-21.20682" lon="55.33107">
        <ele>752.04901123047</ele>
        <time>2012-11-06T07:27:20Z</time>
      </trkpt>
      <trkpt lat="-21.20682" lon="55.33107">
        <ele>752.04901123047</ele>
        <time>2012-11-06T07:27:20Z</time>
      </trkpt>
      <trkpt lat="-21.20682" lon="55.33107">
        <ele>753.11633300781</ele>
        <time>2012-11-06T07:27:22Z</time>
      </trkpt>
      <trkpt lat="-21.20682" lon="55.33107">
        <ele>753.11633300781</ele>
        <time>2012-11-06T07:27:22Z</time>
      </trkpt>
      <trkpt lat="-21.20682" lon="55.33107">
        <ele>752.22088623047</ele>
        <time>2012-11-06T07:27:24Z</time>
      </trkpt>
      <trkpt lat="-21.20682" lon="55.33107">
        <ele>752.22088623047</ele>
        <time>2012-11-06T07:27:24Z</time>
      </trkpt>
      <trkpt lat="-21.20682" lon="55.33107">
        <ele>751.33111572266</ele>
        <time>2012-11-06T07:27:25Z</time>
      </trkpt>
      <trkpt lat="-21.20682" lon="55.33107">
        <ele>751.33111572266</ele>
        <time>2012-11-06T07:27:25Z</time>
      </trkpt>
      <trkpt lat="-21.20682" lon="55.33107">
        <ele>746.96899414062</ele>
        <time>2012-11-06T07:27:27Z</time>
      </trkpt>
      <trkpt lat="-21.20682" lon="55.33107">
        <ele>746.96899414062</ele>
        <time>2012-11-06T07:27:27Z</time>
      </trkpt>
      <trkpt lat="-21.20682" lon="55.33107">
        <ele>742.51196289062</ele>
        <time>2012-11-06T07:27:29Z</time>
      </trkpt>
      <trkpt lat="-21.20682" lon="55.33107">
        <ele>742.51196289062</ele>
        <time>2012-11-06T07:27:29Z</time>
      </trkpt>
      <trkpt lat="-21.20682" lon="55.33107">
        <ele>741.98406982422</ele>
        <time>2012-11-06T07:27:30Z</time>
      </trkpt>
      <trkpt lat="-21.20682" lon="55.33107">
        <ele>741.98406982422</ele>
        <time>2012-11-06T07:27:30Z</time>
      </trkpt>
      <trkpt lat="-21.20682" lon="55.33107">
        <ele>742.40216064453</ele>
        <time>2012-11-06T07:27:31Z</time>
      </trkpt>
      <trkpt lat="-21.20682" lon="55.33107">
        <ele>742.40216064453</ele>
        <time>2012-11-06T07:27:31Z</time>
      </trkpt>
      <trkpt lat="-21.20682" lon="55.33107">
        <ele>745.22308349609</ele>
        <time>2012-11-06T07:27:33Z</time>
      </trkpt>
      <trkpt lat="-21.20682" lon="55.33107">
        <ele>745.22308349609</ele>
        <time>2012-11-06T07:27:33Z</time>
      </trkpt>
      <trkpt lat="-21.20682" lon="55.33107">
        <ele>746.35369873047</ele>
        <time>2012-11-06T07:27:34Z</time>
      </trkpt>
      <trkpt lat="-21.20682" lon="55.33107">
        <ele>746.35369873047</ele>
        <time>2012-11-06T07:27:34Z</time>
      </trkpt>
      <trkpt lat="-21.20682" lon="55.33107">
        <ele>746.97821044922</ele>
        <time>2012-11-06T07:27:36Z</time>
      </trkpt>
      <trkpt lat="-21.20682" lon="55.33107">
        <ele>746.97821044922</ele>
        <time>2012-11-06T07:27:36Z</time>
      </trkpt>
      <trkpt lat="-21.20681" lon="55.33107">
        <ele>753.91961669922</ele>
        <time>2012-11-06T07:27:38Z</time>
      </trkpt>
      <trkpt lat="-21.20681" lon="55.33107">
        <ele>753.91961669922</ele>
        <time>2012-11-06T07:27:38Z</time>
      </trkpt>
      <trkpt lat="-21.20681" lon="55.33107">
        <ele>758.19470214844</ele>
        <time>2012-11-06T07:27:40Z</time>
      </trkpt>
      <trkpt lat="-21.20681" lon="55.33107">
        <ele>758.19470214844</ele>
        <time>2012-11-06T07:27:40Z</time>
      </trkpt>
      <trkpt lat="-21.20682" lon="55.33107">
        <ele>761.20513916016</ele>
        <time>2012-11-06T07:27:41Z</time>
      </trkpt>
      <trkpt lat="-21.20682" lon="55.33107">
        <ele>761.20513916016</ele>
        <time>2012-11-06T07:27:41Z</time>
      </trkpt>
      <trkpt lat="-21.20682" lon="55.33107">
        <ele>758.41986083984</ele>
        <time>2012-11-06T07:27:43Z</time>
      </trkpt>
      <trkpt lat="-21.20682" lon="55.33107">
        <ele>758.41986083984</ele>
        <time>2012-11-06T07:27:43Z</time>
      </trkpt>
      <trkpt lat="-21.20682" lon="55.33107">
        <ele>758.21661376953</ele>
        <time>2012-11-06T07:27:44Z</time>
      </trkpt>
      <trkpt lat="-21.20682" lon="55.33107">
        <ele>758.21661376953</ele>
        <time>2012-11-06T07:27:44Z</time>
      </trkpt>
      <trkpt lat="-21.20682" lon="55.33107">
        <ele>761.759765625</ele>
        <time>2012-11-06T07:27:46Z</time>
      </trkpt>
      <trkpt lat="-21.20682" lon="55.33107">
        <ele>761.759765625</ele>
        <time>2012-11-06T07:27:46Z</time>
      </trkpt>
      <trkpt lat="-21.20682" lon="55.33107">
        <ele>761.759765625</ele>
        <time>2012-11-06T07:27:46Z</time>
      </trkpt>
      <trkpt lat="-21.20682" lon="55.33107">
        <ele>761.759765625</ele>
        <time>2012-11-06T07:27:46Z</time>
      </trkpt>
      <trkpt lat="-21.20682" lon="55.33107">
        <ele>762.43115234375</ele>
        <time>2012-11-06T07:27:47Z</time>
      </trkpt>
      <trkpt lat="-21.20682" lon="55.33107">
        <ele>762.43115234375</ele>
        <time>2012-11-06T07:27:47Z</time>
      </trkpt>
      <trkpt lat="-21.20682" lon="55.33107">
        <ele>762.38775634766</ele>
        <time>2012-11-06T07:27:48Z</time>
      </trkpt>
      <trkpt lat="-21.20682" lon="55.33107">
        <ele>762.38775634766</ele>
        <time>2012-11-06T07:27:48Z</time>
      </trkpt>
      <trkpt lat="-21.20682" lon="55.33107">
        <ele>761.45153808594</ele>
        <time>2012-11-06T07:27:50Z</time>
      </trkpt>
      <trkpt lat="-21.20682" lon="55.33107">
        <ele>761.45153808594</ele>
        <time>2012-11-06T07:27:50Z</time>
      </trkpt>
      <trkpt lat="-21.20682" lon="55.33107">
        <ele>762.57586669922</ele>
        <time>2012-11-06T07:27:51Z</time>
      </trkpt>
      <trkpt lat="-21.20682" lon="55.33107">
        <ele>762.57586669922</ele>
        <time>2012-11-06T07:27:51Z</time>
      </trkpt>
      <trkpt lat="-21.20682" lon="55.33107">
        <ele>767.31988525391</ele>
        <time>2012-11-06T07:27:52Z</time>
      </trkpt>
      <trkpt lat="-21.20682" lon="55.33107">
        <ele>767.31988525391</ele>
        <time>2012-11-06T07:27:52Z</time>
      </trkpt>
      <trkpt lat="-21.20682" lon="55.33107">
        <ele>774.05529785156</ele>
        <time>2012-11-06T07:27:54Z</time>
      </trkpt>
      <trkpt lat="-21.20682" lon="55.33107">
        <ele>774.05529785156</ele>
        <time>2012-11-06T07:27:54Z</time>
      </trkpt>
      <trkpt lat="-21.20682" lon="55.33107">
        <ele>779.44604492188</ele>
        <time>2012-11-06T07:27:56Z</time>
      </trkpt>
      <trkpt lat="-21.20682" lon="55.33107">
        <ele>779.44604492188</ele>
        <time>2012-11-06T07:27:56Z</time>
      </trkpt>
      <trkpt lat="-21.20682" lon="55.33107">
        <ele>781.26220703125</ele>
        <time>2012-11-06T07:27:58Z</time>
      </trkpt>
      <trkpt lat="-21.20682" lon="55.33107">
        <ele>781.26220703125</ele>
        <time>2012-11-06T07:27:58Z</time>
      </trkpt>
      <trkpt lat="-21.20682" lon="55.33107">
        <ele>781.35626220703</ele>
        <time>2012-11-06T07:28:00Z</time>
      </trkpt>
      <trkpt lat="-21.20682" lon="55.33107">
        <ele>781.35626220703</ele>
        <time>2012-11-06T07:28:00Z</time>
      </trkpt>
      <trkpt lat="-21.20682" lon="55.33107">
        <ele>779.30017089844</ele>
        <time>2012-11-06T07:28:01Z</time>
      </trkpt>
      <trkpt lat="-21.20682" lon="55.33107">
        <ele>779.30017089844</ele>
        <time>2012-11-06T07:28:01Z</time>
      </trkpt>
      <trkpt lat="-21.20682" lon="55.33107">
        <ele>778.24182128906</ele>
        <time>2012-11-06T07:28:03Z</time>
      </trkpt>
      <trkpt lat="-21.20682" lon="55.33107">
        <ele>778.24182128906</ele>
        <time>2012-11-06T07:28:03Z</time>
      </trkpt>
      <trkpt lat="-21.20682" lon="55.33107">
        <ele>779.69946289062</ele>
        <time>2012-11-06T07:28:05Z</time>
      </trkpt>
      <trkpt lat="-21.20682" lon="55.33107">
        <ele>779.69946289062</ele>
        <time>2012-11-06T07:28:05Z</time>
      </trkpt>
      <trkpt lat="-21.20682" lon="55.33107">
        <ele>780.46014404297</ele>
        <time>2012-11-06T07:28:07Z</time>
      </trkpt>
      <trkpt lat="-21.20682" lon="55.33107">
        <ele>780.46014404297</ele>
        <time>2012-11-06T07:28:07Z</time>
      </trkpt>
      <trkpt lat="-21.20682" lon="55.33107">
        <ele>782.72082519531</ele>
        <time>2012-11-06T07:28:09Z</time>
      </trkpt>
      <trkpt lat="-21.20682" lon="55.33107">
        <ele>782.72082519531</ele>
        <time>2012-11-06T07:28:09Z</time>
      </trkpt>
      <trkpt lat="-21.20682" lon="55.33107">
        <ele>782.98394775391</ele>
        <time>2012-11-06T07:28:11Z</time>
      </trkpt>
      <trkpt lat="-21.20682" lon="55.33107">
        <ele>782.98394775391</ele>
        <time>2012-11-06T07:28:11Z</time>
      </trkpt>
      <trkpt lat="-21.20682" lon="55.33107">
        <ele>784.37561035156</ele>
        <time>2012-11-06T07:28:13Z</time>
      </trkpt>
      <trkpt lat="-21.20682" lon="55.33107">
        <ele>784.37561035156</ele>
        <time>2012-11-06T07:28:13Z</time>
      </trkpt>
      <trkpt lat="-21.20682" lon="55.33107">
        <ele>784.54034423828</ele>
        <time>2012-11-06T07:28:14Z</time>
      </trkpt>
      <trkpt lat="-21.20682" lon="55.33107">
        <ele>784.54034423828</ele>
        <time>2012-11-06T07:28:14Z</time>
      </trkpt>
      <trkpt lat="-21.20682" lon="55.33107">
        <ele>786.02404785156</ele>
        <time>2012-11-06T07:28:16Z</time>
      </trkpt>
      <trkpt lat="-21.20682" lon="55.33107">
        <ele>786.02404785156</ele>
        <time>2012-11-06T07:28:16Z</time>
      </trkpt>
      <trkpt lat="-21.20682" lon="55.33107">
        <ele>786.40112304688</ele>
        <time>2012-11-06T07:28:17Z</time>
      </trkpt>
      <trkpt lat="-21.20682" lon="55.33107">
        <ele>786.40112304688</ele>
        <time>2012-11-06T07:28:17Z</time>
      </trkpt>
      <trkpt lat="-21.20682" lon="55.33107">
        <ele>787.03845214844</ele>
        <time>2012-11-06T07:28:18Z</time>
      </trkpt>
      <trkpt lat="-21.20682" lon="55.33107">
        <ele>787.03845214844</ele>
        <time>2012-11-06T07:28:18Z</time>
      </trkpt>
      <trkpt lat="-21.20682" lon="55.33107">
        <ele>787.89691162109</ele>
        <time>2012-11-06T07:28:20Z</time>
      </trkpt>
      <trkpt lat="-21.20682" lon="55.33107">
        <ele>787.89691162109</ele>
        <time>2012-11-06T07:28:20Z</time>
      </trkpt>
      <trkpt lat="-21.20682" lon="55.33107">
        <ele>788.45355224609</ele>
        <time>2012-11-06T07:28:22Z</time>
      </trkpt>
      <trkpt lat="-21.20682" lon="55.33107">
        <ele>788.45355224609</ele>
        <time>2012-11-06T07:28:22Z</time>
      </trkpt>
      <trkpt lat="-21.20682" lon="55.33107">
        <ele>788.63848876953</ele>
        <time>2012-11-06T07:28:24Z</time>
      </trkpt>
      <trkpt lat="-21.20682" lon="55.33107">
        <ele>788.63848876953</ele>
        <time>2012-11-06T07:28:24Z</time>
      </trkpt>
      <trkpt lat="-21.20682" lon="55.33107">
        <ele>787.53686523438</ele>
        <time>2012-11-06T07:28:25Z</time>
      </trkpt>
      <trkpt lat="-21.20682" lon="55.33107">
        <ele>787.53686523438</ele>
        <time>2012-11-06T07:28:25Z</time>
      </trkpt>
      <trkpt lat="-21.20682" lon="55.33107">
        <ele>785.87762451172</ele>
        <time>2012-11-06T07:28:27Z</time>
      </trkpt>
      <trkpt lat="-21.20682" lon="55.33107">
        <ele>785.87762451172</ele>
        <time>2012-11-06T07:28:27Z</time>
      </trkpt>
      <trkpt lat="-21.20682" lon="55.33107">
        <ele>784.91259765625</ele>
        <time>2012-11-06T07:28:28Z</time>
      </trkpt>
      <trkpt lat="-21.20682" lon="55.33107">
        <ele>784.91259765625</ele>
        <time>2012-11-06T07:28:28Z</time>
      </trkpt>
      <trkpt lat="-21.20682" lon="55.33107">
        <ele>785.92504882812</ele>
        <time>2012-11-06T07:28:30Z</time>
      </trkpt>
      <trkpt lat="-21.20682" lon="55.33107">
        <ele>785.92504882812</ele>
        <time>2012-11-06T07:28:30Z</time>
      </trkpt>
      <trkpt lat="-21.20682" lon="55.33107">
        <ele>787.02416992188</ele>
        <time>2012-11-06T07:28:31Z</time>
      </trkpt>
      <trkpt lat="-21.20682" lon="55.33107">
        <ele>787.02416992188</ele>
        <time>2012-11-06T07:28:31Z</time>
      </trkpt>
      <trkpt lat="-21.20682" lon="55.33107">
        <ele>788.03344726562</ele>
        <time>2012-11-06T07:28:33Z</time>
      </trkpt>
      <trkpt lat="-21.20682" lon="55.33107">
        <ele>788.03344726562</ele>
        <time>2012-11-06T07:28:33Z</time>
      </trkpt>
      <trkpt lat="-21.20682" lon="55.33107">
        <ele>787.41351318359</ele>
        <time>2012-11-06T07:28:34Z</time>
      </trkpt>
      <trkpt lat="-21.20682" lon="55.33107">
        <ele>787.41351318359</ele>
        <time>2012-11-06T07:28:34Z</time>
      </trkpt>
      <trkpt lat="-21.20682" lon="55.33107">
        <ele>787.32104492188</ele>
        <time>2012-11-06T07:28:35Z</time>
      </trkpt>
      <trkpt lat="-21.20682" lon="55.33107">
        <ele>787.32104492188</ele>
        <time>2012-11-06T07:28:35Z</time>
      </trkpt>
      <trkpt lat="-21.20682" lon="55.33107">
        <ele>785.94262695312</ele>
        <time>2012-11-06T07:28:37Z</time>
      </trkpt>
      <trkpt lat="-21.20682" lon="55.33107">
        <ele>785.94262695312</ele>
        <time>2012-11-06T07:28:37Z</time>
      </trkpt>
      <trkpt lat="-21.20682" lon="55.33107">
        <ele>785.25305175781</ele>
        <time>2012-11-06T07:28:39Z</time>
      </trkpt>
      <trkpt lat="-21.20682" lon="55.33107">
        <ele>785.25305175781</ele>
        <time>2012-11-06T07:28:39Z</time>
      </trkpt>
      <trkpt lat="-21.20682" lon="55.33107">
        <ele>785.52301025391</ele>
        <time>2012-11-06T07:28:40Z</time>
      </trkpt>
      <trkpt lat="-21.20682" lon="55.33107">
        <ele>785.52301025391</ele>
        <time>2012-11-06T07:28:40Z</time>
      </trkpt>
      <trkpt lat="-21.20682" lon="55.33107">
        <ele>783.65545654297</ele>
        <time>2012-11-06T07:28:42Z</time>
      </trkpt>
      <trkpt lat="-21.20682" lon="55.33107">
        <ele>783.65545654297</ele>
        <time>2012-11-06T07:28:42Z</time>
      </trkpt>
      <trkpt lat="-21.20682" lon="55.33107">
        <ele>781.77264404297</ele>
        <time>2012-11-06T07:28:44Z</time>
      </trkpt>
      <trkpt lat="-21.20682" lon="55.33107">
        <ele>781.77264404297</ele>
        <time>2012-11-06T07:28:44Z</time>
      </trkpt>
      <trkpt lat="-21.20682" lon="55.33107">
        <ele>782.58392333984</ele>
        <time>2012-11-06T07:28:46Z</time>
      </trkpt>
      <trkpt lat="-21.20682" lon="55.33107">
        <ele>782.58392333984</ele>
        <time>2012-11-06T07:28:46Z</time>
      </trkpt>
      <trkpt lat="-21.20682" lon="55.33107">
        <ele>781.29315185547</ele>
        <time>2012-11-06T07:28:48Z</time>
      </trkpt>
      <trkpt lat="-21.20682" lon="55.33107">
        <ele>781.29315185547</ele>
        <time>2012-11-06T07:28:48Z</time>
      </trkpt>
      <trkpt lat="-21.20682" lon="55.33107">
        <ele>781.05419921875</ele>
        <time>2012-11-06T07:28:49Z</time>
      </trkpt>
      <trkpt lat="-21.20682" lon="55.33107">
        <ele>781.05419921875</ele>
        <time>2012-11-06T07:28:49Z</time>
      </trkpt>
      <trkpt lat="-21.20682" lon="55.33107">
        <ele>781.84655761719</ele>
        <time>2012-11-06T07:28:51Z</time>
      </trkpt>
      <trkpt lat="-21.20682" lon="55.33107">
        <ele>781.84655761719</ele>
        <time>2012-11-06T07:28:51Z</time>
      </trkpt>
      <trkpt lat="-21.20682" lon="55.33107">
        <ele>777.85339355469</ele>
        <time>2012-11-06T07:28:53Z</time>
      </trkpt>
      <trkpt lat="-21.20682" lon="55.33107">
        <ele>777.85339355469</ele>
        <time>2012-11-06T07:28:53Z</time>
      </trkpt>
      <trkpt lat="-21.20681" lon="55.33107">
        <ele>774.90679931641</ele>
        <time>2012-11-06T07:28:54Z</time>
      </trkpt>
      <trkpt lat="-21.20681" lon="55.33107">
        <ele>774.90679931641</ele>
        <time>2012-11-06T07:28:54Z</time>
      </trkpt>
      <trkpt lat="-21.20681" lon="55.33107">
        <ele>775.75622558594</ele>
        <time>2012-11-06T07:28:55Z</time>
      </trkpt>
      <trkpt lat="-21.20681" lon="55.33107">
        <ele>775.75622558594</ele>
        <time>2012-11-06T07:28:55Z</time>
      </trkpt>
      <trkpt lat="-21.20681" lon="55.33107">
        <ele>775.70330810547</ele>
        <time>2012-11-06T07:28:57Z</time>
      </trkpt>
      <trkpt lat="-21.20681" lon="55.33107">
        <ele>775.70330810547</ele>
        <time>2012-11-06T07:28:57Z</time>
      </trkpt>
      <trkpt lat="-21.20681" lon="55.33107">
        <ele>776.43243408203</ele>
        <time>2012-11-06T07:28:58Z</time>
      </trkpt>
      <trkpt lat="-21.20681" lon="55.33107">
        <ele>776.43243408203</ele>
        <time>2012-11-06T07:28:58Z</time>
      </trkpt>
      <trkpt lat="-21.20681" lon="55.33107">
        <ele>776.53509521484</ele>
        <time>2012-11-06T07:28:59Z</time>
      </trkpt>
      <trkpt lat="-21.20681" lon="55.33107">
        <ele>776.53509521484</ele>
        <time>2012-11-06T07:28:59Z</time>
      </trkpt>
      <trkpt lat="-21.20681" lon="55.33107">
        <ele>775.48492431641</ele>
        <time>2012-11-06T07:29:00Z</time>
      </trkpt>
      <trkpt lat="-21.20681" lon="55.33107">
        <ele>775.48492431641</ele>
        <time>2012-11-06T07:29:00Z</time>
      </trkpt>
      <trkpt lat="-21.20681" lon="55.33107">
        <ele>774.61236572266</ele>
        <time>2012-11-06T07:29:01Z</time>
      </trkpt>
      <trkpt lat="-21.20681" lon="55.33107">
        <ele>774.61236572266</ele>
        <time>2012-11-06T07:29:01Z</time>
      </trkpt>
      <trkpt lat="-21.20681" lon="55.33107">
        <ele>776.43255615234</ele>
        <time>2012-11-06T07:29:02Z</time>
      </trkpt>
      <trkpt lat="-21.20681" lon="55.33107">
        <ele>776.43255615234</ele>
        <time>2012-11-06T07:29:02Z</time>
      </trkpt>
      <trkpt lat="-21.20681" lon="55.33107">
        <ele>774.9169921875</ele>
        <time>2012-11-06T07:29:04Z</time>
      </trkpt>
      <trkpt lat="-21.20681" lon="55.33107">
        <ele>774.9169921875</ele>
        <time>2012-11-06T07:29:04Z</time>
      </trkpt>
      <trkpt lat="-21.20681" lon="55.33107">
        <ele>773.77825927734</ele>
        <time>2012-11-06T07:29:05Z</time>
      </trkpt>
      <trkpt lat="-21.20681" lon="55.33107">
        <ele>773.77825927734</ele>
        <time>2012-11-06T07:29:05Z</time>
      </trkpt>
      <trkpt lat="-21.20681" lon="55.33107">
        <ele>772.86560058594</ele>
        <time>2012-11-06T07:29:07Z</time>
      </trkpt>
      <trkpt lat="-21.20681" lon="55.33107">
        <ele>772.86560058594</ele>
        <time>2012-11-06T07:29:07Z</time>
      </trkpt>
      <trkpt lat="-21.20681" lon="55.33107">
        <ele>773.17462158203</ele>
        <time>2012-11-06T07:29:09Z</time>
      </trkpt>
      <trkpt lat="-21.20681" lon="55.33107">
        <ele>773.17462158203</ele>
        <time>2012-11-06T07:29:09Z</time>
      </trkpt>
      <trkpt lat="-21.20681" lon="55.33107">
        <ele>773.81823730469</ele>
        <time>2012-11-06T07:29:11Z</time>
      </trkpt>
      <trkpt lat="-21.20681" lon="55.33107">
        <ele>773.81823730469</ele>
        <time>2012-11-06T07:29:11Z</time>
      </trkpt>
      <trkpt lat="-21.20681" lon="55.33107">
        <ele>773.49719238281</ele>
        <time>2012-11-06T07:29:12Z</time>
      </trkpt>
      <trkpt lat="-21.20681" lon="55.33107">
        <ele>773.49719238281</ele>
        <time>2012-11-06T07:29:12Z</time>
      </trkpt>
      <trkpt lat="-21.20681" lon="55.33107">
        <ele>773.56323242188</ele>
        <time>2012-11-06T07:29:14Z</time>
      </trkpt>
      <trkpt lat="-21.20681" lon="55.33107">
        <ele>773.56323242188</ele>
        <time>2012-11-06T07:29:14Z</time>
      </trkpt>
      <trkpt lat="-21.20681" lon="55.33107">
        <ele>774.75030517578</ele>
        <time>2012-11-06T07:29:16Z</time>
      </trkpt>
      <trkpt lat="-21.20681" lon="55.33107">
        <ele>774.75030517578</ele>
        <time>2012-11-06T07:29:16Z</time>
      </trkpt>
      <trkpt lat="-21.20681" lon="55.33107">
        <ele>775.49810791016</ele>
        <time>2012-11-06T07:29:18Z</time>
      </trkpt>
      <trkpt lat="-21.20681" lon="55.33107">
        <ele>775.49810791016</ele>
        <time>2012-11-06T07:29:18Z</time>
      </trkpt>
      <trkpt lat="-21.20681" lon="55.33107">
        <ele>778.16833496094</ele>
        <time>2012-11-06T07:29:20Z</time>
      </trkpt>
      <trkpt lat="-21.20681" lon="55.33107">
        <ele>778.16833496094</ele>
        <time>2012-11-06T07:29:20Z</time>
      </trkpt>
      <trkpt lat="-21.20681" lon="55.33107">
        <ele>781.27325439453</ele>
        <time>2012-11-06T07:29:22Z</time>
      </trkpt>
      <trkpt lat="-21.20681" lon="55.33107">
        <ele>781.27325439453</ele>
        <time>2012-11-06T07:29:22Z</time>
      </trkpt>
      <trkpt lat="-21.20681" lon="55.33107">
        <ele>783.52471923828</ele>
        <time>2012-11-06T07:29:24Z</time>
      </trkpt>
      <trkpt lat="-21.20681" lon="55.33107">
        <ele>783.52471923828</ele>
        <time>2012-11-06T07:29:24Z</time>
      </trkpt>
      <trkpt lat="-21.20681" lon="55.33107">
        <ele>784.16754150391</ele>
        <time>2012-11-06T07:29:25Z</time>
      </trkpt>
      <trkpt lat="-21.20681" lon="55.33107">
        <ele>784.16754150391</ele>
        <time>2012-11-06T07:29:25Z</time>
      </trkpt>
      <trkpt lat="-21.20681" lon="55.33107">
        <ele>784.51989746094</ele>
        <time>2012-11-06T07:29:26Z</time>
      </trkpt>
      <trkpt lat="-21.20681" lon="55.33107">
        <ele>784.51989746094</ele>
        <time>2012-11-06T07:29:26Z</time>
      </trkpt>
      <trkpt lat="-21.20681" lon="55.33107">
        <ele>784.10522460938</ele>
        <time>2012-11-06T07:29:28Z</time>
      </trkpt>
      <trkpt lat="-21.20681" lon="55.33107">
        <ele>784.10522460938</ele>
        <time>2012-11-06T07:29:28Z</time>
      </trkpt>
      <trkpt lat="-21.20681" lon="55.33107">
        <ele>783.65026855469</ele>
        <time>2012-11-06T07:29:29Z</time>
      </trkpt>
      <trkpt lat="-21.20681" lon="55.33107">
        <ele>783.65026855469</ele>
        <time>2012-11-06T07:29:29Z</time>
      </trkpt>
      <trkpt lat="-21.20681" lon="55.33107">
        <ele>783.09173583984</ele>
        <time>2012-11-06T07:29:31Z</time>
      </trkpt>
      <trkpt lat="-21.20681" lon="55.33107">
        <ele>783.09173583984</ele>
        <time>2012-11-06T07:29:31Z</time>
      </trkpt>
      <trkpt lat="-21.20681" lon="55.33107">
        <ele>782.50677490234</ele>
        <time>2012-11-06T07:29:33Z</time>
      </trkpt>
      <trkpt lat="-21.20681" lon="55.33107">
        <ele>782.50677490234</ele>
        <time>2012-11-06T07:29:33Z</time>
      </trkpt>
      <trkpt lat="-21.20681" lon="55.33107">
        <ele>782.44525146484</ele>
        <time>2012-11-06T07:29:34Z</time>
      </trkpt>
      <trkpt lat="-21.20681" lon="55.33107">
        <ele>782.44525146484</ele>
        <time>2012-11-06T07:29:34Z</time>
      </trkpt>
      <trkpt lat="-21.20681" lon="55.33107">
        <ele>783.14770507812</ele>
        <time>2012-11-06T07:29:36Z</time>
      </trkpt>
      <trkpt lat="-21.20681" lon="55.33107">
        <ele>783.14770507812</ele>
        <time>2012-11-06T07:29:36Z</time>
      </trkpt>
      <trkpt lat="-21.20681" lon="55.33107">
        <ele>783.68865966797</ele>
        <time>2012-11-06T07:29:37Z</time>
      </trkpt>
      <trkpt lat="-21.20681" lon="55.33107">
        <ele>783.68865966797</ele>
        <time>2012-11-06T07:29:37Z</time>
      </trkpt>
      <trkpt lat="-21.20681" lon="55.33107">
        <ele>783.9482421875</ele>
        <time>2012-11-06T07:29:39Z</time>
      </trkpt>
      <trkpt lat="-21.20681" lon="55.33107">
        <ele>783.9482421875</ele>
        <time>2012-11-06T07:29:39Z</time>
      </trkpt>
      <trkpt lat="-21.20681" lon="55.33107">
        <ele>783.69439697266</ele>
        <time>2012-11-06T07:29:40Z</time>
      </trkpt>
      <trkpt lat="-21.20681" lon="55.33107">
        <ele>783.69439697266</ele>
        <time>2012-11-06T07:29:40Z</time>
      </trkpt>
      <trkpt lat="-21.20681" lon="55.33107">
        <ele>783.31854248047</ele>
        <time>2012-11-06T07:29:41Z</time>
      </trkpt>
      <trkpt lat="-21.20681" lon="55.33107">
        <ele>783.31854248047</ele>
        <time>2012-11-06T07:29:41Z</time>
      </trkpt>
      <trkpt lat="-21.20681" lon="55.33107">
        <ele>782.65356445312</ele>
        <time>2012-11-06T07:29:43Z</time>
      </trkpt>
      <trkpt lat="-21.20681" lon="55.33107">
        <ele>782.65356445312</ele>
        <time>2012-11-06T07:29:43Z</time>
      </trkpt>
      <trkpt lat="-21.20681" lon="55.33107">
        <ele>778.91735839844</ele>
        <time>2012-11-06T07:29:44Z</time>
      </trkpt>
      <trkpt lat="-21.20681" lon="55.33107">
        <ele>778.91735839844</ele>
        <time>2012-11-06T07:29:44Z</time>
      </trkpt>
      <trkpt lat="-21.20681" lon="55.33107">
        <ele>775.55633544922</ele>
        <time>2012-11-06T07:29:45Z</time>
      </trkpt>
      <trkpt lat="-21.20681" lon="55.33107">
        <ele>775.55633544922</ele>
        <time>2012-11-06T07:29:45Z</time>
      </trkpt>
      <trkpt lat="-21.20681" lon="55.33107">
        <ele>773.33569335938</ele>
        <time>2012-11-06T07:29:46Z</time>
      </trkpt>
      <trkpt lat="-21.20681" lon="55.33107">
        <ele>773.33569335938</ele>
        <time>2012-11-06T07:29:46Z</time>
      </trkpt>
      <trkpt lat="-21.20681" lon="55.33107">
        <ele>774.70745849609</ele>
        <time>2012-11-06T07:29:48Z</time>
      </trkpt>
      <trkpt lat="-21.20681" lon="55.33107">
        <ele>774.70745849609</ele>
        <time>2012-11-06T07:29:48Z</time>
      </trkpt>
      <trkpt lat="-21.20681" lon="55.33107">
        <ele>777.00921630859</ele>
        <time>2012-11-06T07:29:49Z</time>
      </trkpt>
      <trkpt lat="-21.20681" lon="55.33107">
        <ele>777.00921630859</ele>
        <time>2012-11-06T07:29:49Z</time>
      </trkpt>
      <trkpt lat="-21.20681" lon="55.33107">
        <ele>777.87890625</ele>
        <time>2012-11-06T07:29:50Z</time>
      </trkpt>
      <trkpt lat="-21.20681" lon="55.33107">
        <ele>777.87890625</ele>
        <time>2012-11-06T07:29:50Z</time>
      </trkpt>
      <trkpt lat="-21.20681" lon="55.33107">
        <ele>780.67651367188</ele>
        <time>2012-11-06T07:29:52Z</time>
      </trkpt>
      <trkpt lat="-21.20681" lon="55.33107">
        <ele>780.67651367188</ele>
        <time>2012-11-06T07:29:52Z</time>
      </trkpt>
      <trkpt lat="-21.20681" lon="55.33107">
        <ele>783.18719482422</ele>
        <time>2012-11-06T07:29:53Z</time>
      </trkpt>
      <trkpt lat="-21.20681" lon="55.33107">
        <ele>783.18719482422</ele>
        <time>2012-11-06T07:29:53Z</time>
      </trkpt>
      <trkpt lat="-21.20681" lon="55.33107">
        <ele>784.08062744141</ele>
        <time>2012-11-06T07:29:55Z</time>
      </trkpt>
      <trkpt lat="-21.20681" lon="55.33107">
        <ele>784.08062744141</ele>
        <time>2012-11-06T07:29:55Z</time>
      </trkpt>
      <trkpt lat="-21.20681" lon="55.33107">
        <ele>782.37292480469</ele>
        <time>2012-11-06T07:29:56Z</time>
      </trkpt>
      <trkpt lat="-21.20681" lon="55.33107">
        <ele>782.37292480469</ele>
        <time>2012-11-06T07:29:56Z</time>
      </trkpt>
      <trkpt lat="-21.20681" lon="55.33107">
        <ele>780.30322265625</ele>
        <time>2012-11-06T07:29:58Z</time>
      </trkpt>
      <trkpt lat="-21.20681" lon="55.33107">
        <ele>780.30322265625</ele>
        <time>2012-11-06T07:29:58Z</time>
      </trkpt>
      <trkpt lat="-21.20681" lon="55.33107">
        <ele>777.04943847656</ele>
        <time>2012-11-06T07:30:00Z</time>
      </trkpt>
      <trkpt lat="-21.20681" lon="55.33107">
        <ele>777.04943847656</ele>
        <time>2012-11-06T07:30:00Z</time>
      </trkpt>
      <trkpt lat="-21.20681" lon="55.33107">
        <ele>775.87615966797</ele>
        <time>2012-11-06T07:30:01Z</time>
      </trkpt>
      <trkpt lat="-21.20681" lon="55.33107">
        <ele>775.87615966797</ele>
        <time>2012-11-06T07:30:01Z</time>
      </trkpt>
      <trkpt lat="-21.20681" lon="55.33107">
        <ele>774.93298339844</ele>
        <time>2012-11-06T07:30:02Z</time>
      </trkpt>
      <trkpt lat="-21.20681" lon="55.33107">
        <ele>774.93298339844</ele>
        <time>2012-11-06T07:30:02Z</time>
      </trkpt>
      <trkpt lat="-21.20681" lon="55.33107">
        <ele>773.72845458984</ele>
        <time>2012-11-06T07:30:04Z</time>
      </trkpt>
      <trkpt lat="-21.20681" lon="55.33107">
        <ele>773.72845458984</ele>
        <time>2012-11-06T07:30:04Z</time>
      </trkpt>
      <trkpt lat="-21.20681" lon="55.33107">
        <ele>772.62005615234</ele>
        <time>2012-11-06T07:30:05Z</time>
      </trkpt>
      <trkpt lat="-21.20681" lon="55.33107">
        <ele>772.62005615234</ele>
        <time>2012-11-06T07:30:05Z</time>
      </trkpt>
      <trkpt lat="-21.20681" lon="55.33107">
        <ele>770.90399169922</ele>
        <time>2012-11-06T07:30:07Z</time>
      </trkpt>
      <trkpt lat="-21.20681" lon="55.33107">
        <ele>770.90399169922</ele>
        <time>2012-11-06T07:30:07Z</time>
      </trkpt>
      <trkpt lat="-21.20681" lon="55.33107">
        <ele>769.48352050781</ele>
        <time>2012-11-06T07:30:09Z</time>
      </trkpt>
      <trkpt lat="-21.20681" lon="55.33107">
        <ele>769.48352050781</ele>
        <time>2012-11-06T07:30:09Z</time>
      </trkpt>
      <trkpt lat="-21.20681" lon="55.33107">
        <ele>767.48168945312</ele>
        <time>2012-11-06T07:30:11Z</time>
      </trkpt>
      <trkpt lat="-21.20681" lon="55.33107">
        <ele>767.48168945312</ele>
        <time>2012-11-06T07:30:11Z</time>
      </trkpt>
      <trkpt lat="-21.20681" lon="55.33107">
        <ele>766.95812988281</ele>
        <time>2012-11-06T07:30:12Z</time>
      </trkpt>
      <trkpt lat="-21.20681" lon="55.33107">
        <ele>766.95812988281</ele>
        <time>2012-11-06T07:30:12Z</time>
      </trkpt>
      <trkpt lat="-21.20681" lon="55.33107">
        <ele>763.15533447266</ele>
        <time>2012-11-06T07:30:14Z</time>
      </trkpt>
      <trkpt lat="-21.20681" lon="55.33107">
        <ele>763.15533447266</ele>
        <time>2012-11-06T07:30:14Z</time>
      </trkpt>
      <trkpt lat="-21.20681" lon="55.33107">
        <ele>762.87030029297</ele>
        <time>2012-11-06T07:30:16Z</time>
      </trkpt>
      <trkpt lat="-21.20681" lon="55.33107">
        <ele>762.87030029297</ele>
        <time>2012-11-06T07:30:16Z</time>
      </trkpt>
      <trkpt lat="-21.20681" lon="55.33107">
        <ele>763.23156738281</ele>
        <time>2012-11-06T07:30:18Z</time>
      </trkpt>
      <trkpt lat="-21.20681" lon="55.33107">
        <ele>763.23156738281</ele>
        <time>2012-11-06T07:30:18Z</time>
      </trkpt>
      <trkpt lat="-21.20681" lon="55.33107">
        <ele>764.51019287109</ele>
        <time>2012-11-06T07:30:20Z</time>
      </trkpt>
      <trkpt lat="-21.20681" lon="55.33107">
        <ele>764.51019287109</ele>
        <time>2012-11-06T07:30:20Z</time>
      </trkpt>
      <trkpt lat="-21.20681" lon="55.33107">
        <ele>761.33093261719</ele>
        <time>2012-11-06T07:30:22Z</time>
      </trkpt>
      <trkpt lat="-21.20681" lon="55.33107">
        <ele>761.33093261719</ele>
        <time>2012-11-06T07:30:22Z</time>
      </trkpt>
      <trkpt lat="-21.20681" lon="55.33107">
        <ele>763.04498291016</ele>
        <time>2012-11-06T07:30:23Z</time>
      </trkpt>
      <trkpt lat="-21.20681" lon="55.33107">
        <ele>763.04498291016</ele>
        <time>2012-11-06T07:30:23Z</time>
      </trkpt>
      <trkpt lat="-21.20681" lon="55.33107">
        <ele>766.78472900391</ele>
        <time>2012-11-06T07:30:25Z</time>
      </trkpt>
      <trkpt lat="-21.20681" lon="55.33107">
        <ele>766.78472900391</ele>
        <time>2012-11-06T07:30:25Z</time>
      </trkpt>
      <trkpt lat="-21.20681" lon="55.33107">
        <ele>768.30352783203</ele>
        <time>2012-11-06T07:30:26Z</time>
      </trkpt>
      <trkpt lat="-21.20681" lon="55.33107">
        <ele>768.30352783203</ele>
        <time>2012-11-06T07:30:26Z</time>
      </trkpt>
      <trkpt lat="-21.20681" lon="55.33107">
        <ele>773.93408203125</ele>
        <time>2012-11-06T07:30:28Z</time>
      </trkpt>
      <trkpt lat="-21.20681" lon="55.33107">
        <ele>773.93408203125</ele>
        <time>2012-11-06T07:30:28Z</time>
      </trkpt>
      <trkpt lat="-21.20681" lon="55.33107">
        <ele>782.12677001953</ele>
        <time>2012-11-06T07:30:30Z</time>
      </trkpt>
      <trkpt lat="-21.20681" lon="55.33107">
        <ele>782.12677001953</ele>
        <time>2012-11-06T07:30:30Z</time>
      </trkpt>
      <trkpt lat="-21.20681" lon="55.33107">
        <ele>786.5986328125</ele>
        <time>2012-11-06T07:30:32Z</time>
      </trkpt>
      <trkpt lat="-21.20681" lon="55.33107">
        <ele>786.5986328125</ele>
        <time>2012-11-06T07:30:32Z</time>
      </trkpt>
      <trkpt lat="-21.20681" lon="55.33107">
        <ele>787.09173583984</ele>
        <time>2012-11-06T07:30:33Z</time>
      </trkpt>
      <trkpt lat="-21.20681" lon="55.33107">
        <ele>787.09173583984</ele>
        <time>2012-11-06T07:30:33Z</time>
      </trkpt>
      <trkpt lat="-21.20681" lon="55.33107">
        <ele>788.45135498047</ele>
        <time>2012-11-06T07:30:35Z</time>
      </trkpt>
      <trkpt lat="-21.20681" lon="55.33107">
        <ele>788.45135498047</ele>
        <time>2012-11-06T07:30:35Z</time>
      </trkpt>
      <trkpt lat="-21.20681" lon="55.33107">
        <ele>788.44036865234</ele>
        <time>2012-11-06T07:30:36Z</time>
      </trkpt>
      <trkpt lat="-21.20681" lon="55.33107">
        <ele>788.44036865234</ele>
        <time>2012-11-06T07:30:36Z</time>
      </trkpt>
      <trkpt lat="-21.20681" lon="55.33107">
        <ele>788.77032470703</ele>
        <time>2012-11-06T07:30:37Z</time>
      </trkpt>
      <trkpt lat="-21.20681" lon="55.33107">
        <ele>788.77032470703</ele>
        <time>2012-11-06T07:30:37Z</time>
      </trkpt>
      <trkpt lat="-21.20681" lon="55.33107">
        <ele>789.34002685547</ele>
        <time>2012-11-06T07:30:39Z</time>
      </trkpt>
      <trkpt lat="-21.20681" lon="55.33107">
        <ele>789.34002685547</ele>
        <time>2012-11-06T07:30:39Z</time>
      </trkpt>
      <trkpt lat="-21.20681" lon="55.33107">
        <ele>790.57830810547</ele>
        <time>2012-11-06T07:30:40Z</time>
      </trkpt>
      <trkpt lat="-21.20681" lon="55.33107">
        <ele>790.57830810547</ele>
        <time>2012-11-06T07:30:40Z</time>
      </trkpt>
      <trkpt lat="-21.20681" lon="55.33107">
        <ele>791.53057861328</ele>
        <time>2012-11-06T07:30:42Z</time>
      </trkpt>
      <trkpt lat="-21.20681" lon="55.33107">
        <ele>791.53057861328</ele>
        <time>2012-11-06T07:30:42Z</time>
      </trkpt>
      <trkpt lat="-21.20681" lon="55.33107">
        <ele>789.82135009766</ele>
        <time>2012-11-06T07:30:44Z</time>
      </trkpt>
      <trkpt lat="-21.20681" lon="55.33107">
        <ele>789.82135009766</ele>
        <time>2012-11-06T07:30:44Z</time>
      </trkpt>
      <trkpt lat="-21.20681" lon="55.33107">
        <ele>787.10382080078</ele>
        <time>2012-11-06T07:30:46Z</time>
      </trkpt>
      <trkpt lat="-21.20681" lon="55.33107">
        <ele>787.10382080078</ele>
        <time>2012-11-06T07:30:46Z</time>
      </trkpt>
      <trkpt lat="-21.20681" lon="55.33107">
        <ele>786.63409423828</ele>
        <time>2012-11-06T07:30:48Z</time>
      </trkpt>
      <trkpt lat="-21.20681" lon="55.33107">
        <ele>786.63409423828</ele>
        <time>2012-11-06T07:30:48Z</time>
      </trkpt>
      <trkpt lat="-21.20681" lon="55.33107">
        <ele>786.462890625</ele>
        <time>2012-11-06T07:30:49Z</time>
      </trkpt>
      <trkpt lat="-21.20681" lon="55.33107">
        <ele>786.462890625</ele>
        <time>2012-11-06T07:30:49Z</time>
      </trkpt>
      <trkpt lat="-21.20681" lon="55.33107">
        <ele>785.78680419922</ele>
        <time>2012-11-06T07:30:50Z</time>
      </trkpt>
      <trkpt lat="-21.20681" lon="55.33107">
        <ele>785.78680419922</ele>
        <time>2012-11-06T07:30:50Z</time>
      </trkpt>
      <trkpt lat="-21.20681" lon="55.33107">
        <ele>783.53344726562</ele>
        <time>2012-11-06T07:30:52Z</time>
      </trkpt>
      <trkpt lat="-21.20681" lon="55.33107">
        <ele>783.53344726562</ele>
        <time>2012-11-06T07:30:52Z</time>
      </trkpt>
      <trkpt lat="-21.20681" lon="55.33107">
        <ele>782.52996826172</ele>
        <time>2012-11-06T07:30:54Z</time>
      </trkpt>
      <trkpt lat="-21.20681" lon="55.33107">
        <ele>782.52996826172</ele>
        <time>2012-11-06T07:30:54Z</time>
      </trkpt>
      <trkpt lat="-21.20681" lon="55.33107">
        <ele>782.11553955078</ele>
        <time>2012-11-06T07:30:55Z</time>
      </trkpt>
      <trkpt lat="-21.20681" lon="55.33107">
        <ele>782.11553955078</ele>
        <time>2012-11-06T07:30:55Z</time>
      </trkpt>
      <trkpt lat="-21.20681" lon="55.33107">
        <ele>772.8564453125</ele>
        <time>2012-11-06T07:30:57Z</time>
      </trkpt>
      <trkpt lat="-21.20681" lon="55.33107">
        <ele>772.8564453125</ele>
        <time>2012-11-06T07:30:57Z</time>
      </trkpt>
      <trkpt lat="-21.20681" lon="55.33107">
        <ele>770.01568603516</ele>
        <time>2012-11-06T07:30:58Z</time>
      </trkpt>
      <trkpt lat="-21.20681" lon="55.33107">
        <ele>770.01568603516</ele>
        <time>2012-11-06T07:30:58Z</time>
      </trkpt>
      <trkpt lat="-21.20681" lon="55.33107">
        <ele>770.15124511719</ele>
        <time>2012-11-06T07:30:59Z</time>
      </trkpt>
      <trkpt lat="-21.20681" lon="55.33107">
        <ele>770.15124511719</ele>
        <time>2012-11-06T07:30:59Z</time>
      </trkpt>
      <trkpt lat="-21.20681" lon="55.33107">
        <ele>774.91619873047</ele>
        <time>2012-11-06T07:31:01Z</time>
      </trkpt>
      <trkpt lat="-21.20681" lon="55.33107">
        <ele>774.91619873047</ele>
        <time>2012-11-06T07:31:01Z</time>
      </trkpt>
      <trkpt lat="-21.20681" lon="55.33107">
        <ele>773.91400146484</ele>
        <time>2012-11-06T07:31:02Z</time>
      </trkpt>
      <trkpt lat="-21.20681" lon="55.33107">
        <ele>773.91400146484</ele>
        <time>2012-11-06T07:31:02Z</time>
      </trkpt>
      <trkpt lat="-21.20681" lon="55.33107">
        <ele>773.03356933594</ele>
        <time>2012-11-06T07:31:03Z</time>
      </trkpt>
      <trkpt lat="-21.20681" lon="55.33107">
        <ele>773.03356933594</ele>
        <time>2012-11-06T07:31:03Z</time>
      </trkpt>
      <trkpt lat="-21.20681" lon="55.33107">
        <ele>771.46136474609</ele>
        <time>2012-11-06T07:31:05Z</time>
      </trkpt>
      <trkpt lat="-21.20681" lon="55.33107">
        <ele>771.46136474609</ele>
        <time>2012-11-06T07:31:05Z</time>
      </trkpt>
      <trkpt lat="-21.20681" lon="55.33107">
        <ele>769.27697753906</ele>
        <time>2012-11-06T07:31:07Z</time>
      </trkpt>
      <trkpt lat="-21.20681" lon="55.33107">
        <ele>769.27697753906</ele>
        <time>2012-11-06T07:31:07Z</time>
      </trkpt>
      <trkpt lat="-21.20681" lon="55.33107">
        <ele>768.85089111328</ele>
        <time>2012-11-06T07:31:09Z</time>
      </trkpt>
      <trkpt lat="-21.20681" lon="55.33107">
        <ele>768.85089111328</ele>
        <time>2012-11-06T07:31:09Z</time>
      </trkpt>
      <trkpt lat="-21.20681" lon="55.33107">
        <ele>771.41320800781</ele>
        <time>2012-11-06T07:31:10Z</time>
      </trkpt>
      <trkpt lat="-21.20681" lon="55.33107">
        <ele>771.41320800781</ele>
        <time>2012-11-06T07:31:10Z</time>
      </trkpt>
      <trkpt lat="-21.20681" lon="55.33107">
        <ele>776.86346435547</ele>
        <time>2012-11-06T07:31:12Z</time>
      </trkpt>
      <trkpt lat="-21.20681" lon="55.33107">
        <ele>776.86346435547</ele>
        <time>2012-11-06T07:31:12Z</time>
      </trkpt>
      <trkpt lat="-21.20681" lon="55.33107">
        <ele>777.42950439453</ele>
        <time>2012-11-06T07:31:13Z</time>
      </trkpt>
      <trkpt lat="-21.20681" lon="55.33107">
        <ele>777.42950439453</ele>
        <time>2012-11-06T07:31:13Z</time>
      </trkpt>
      <trkpt lat="-21.20681" lon="55.33107">
        <ele>778.21740722656</ele>
        <time>2012-11-06T07:31:15Z</time>
      </trkpt>
      <trkpt lat="-21.20681" lon="55.33107">
        <ele>778.21740722656</ele>
        <time>2012-11-06T07:31:15Z</time>
      </trkpt>
      <trkpt lat="-21.20681" lon="55.33107">
        <ele>778.64361572266</ele>
        <time>2012-11-06T07:31:16Z</time>
      </trkpt>
      <trkpt lat="-21.20681" lon="55.33107">
        <ele>778.64361572266</ele>
        <time>2012-11-06T07:31:16Z</time>
      </trkpt>
      <trkpt lat="-21.20681" lon="55.33107">
        <ele>779.41326904297</ele>
        <time>2012-11-06T07:31:17Z</time>
      </trkpt>
      <trkpt lat="-21.20681" lon="55.33107">
        <ele>779.41326904297</ele>
        <time>2012-11-06T07:31:17Z</time>
      </trkpt>
      <trkpt lat="-21.20681" lon="55.33107">
        <ele>779.55932617188</ele>
        <time>2012-11-06T07:31:18Z</time>
      </trkpt>
      <trkpt lat="-21.20681" lon="55.33107">
        <ele>779.55932617188</ele>
        <time>2012-11-06T07:31:18Z</time>
      </trkpt>
      <trkpt lat="-21.20681" lon="55.33107">
        <ele>779.58520507812</ele>
        <time>2012-11-06T07:31:19Z</time>
      </trkpt>
      <trkpt lat="-21.20681" lon="55.33107">
        <ele>779.58520507812</ele>
        <time>2012-11-06T07:31:19Z</time>
      </trkpt>
      <trkpt lat="-21.20681" lon="55.33107">
        <ele>780.24920654297</ele>
        <time>2012-11-06T07:31:20Z</time>
      </trkpt>
      <trkpt lat="-21.20681" lon="55.33107">
        <ele>780.24920654297</ele>
        <time>2012-11-06T07:31:20Z</time>
      </trkpt>
      <trkpt lat="-21.20681" lon="55.33107">
        <ele>780.79333496094</ele>
        <time>2012-11-06T07:31:22Z</time>
      </trkpt>
      <trkpt lat="-21.20681" lon="55.33107">
        <ele>780.79333496094</ele>
        <time>2012-11-06T07:31:22Z</time>
      </trkpt>
      <trkpt lat="-21.20681" lon="55.33107">
        <ele>778.84527587891</ele>
        <time>2012-11-06T07:31:23Z</time>
      </trkpt>
      <trkpt lat="-21.20681" lon="55.33107">
        <ele>778.84527587891</ele>
        <time>2012-11-06T07:31:23Z</time>
      </trkpt>
      <trkpt lat="-21.20681" lon="55.33107">
        <ele>775.57824707031</ele>
        <time>2012-11-06T07:31:25Z</time>
      </trkpt>
      <trkpt lat="-21.20681" lon="55.33107">
        <ele>775.57824707031</ele>
        <time>2012-11-06T07:31:25Z</time>
      </trkpt>
      <trkpt lat="-21.20681" lon="55.33107">
        <ele>774.55584716797</ele>
        <time>2012-11-06T07:31:26Z</time>
      </trkpt>
      <trkpt lat="-21.20681" lon="55.33107">
        <ele>774.55584716797</ele>
        <time>2012-11-06T07:31:26Z</time>
      </trkpt>
      <trkpt lat="-21.20681" lon="55.33107">
        <ele>773.67681884766</ele>
        <time>2012-11-06T07:31:28Z</time>
      </trkpt>
      <trkpt lat="-21.20681" lon="55.33107">
        <ele>773.67681884766</ele>
        <time>2012-11-06T07:31:28Z</time>
      </trkpt>
      <trkpt lat="-21.20681" lon="55.33107">
        <ele>771.81768798828</ele>
        <time>2012-11-06T07:31:30Z</time>
      </trkpt>
      <trkpt lat="-21.20681" lon="55.33107">
        <ele>771.81768798828</ele>
        <time>2012-11-06T07:31:30Z</time>
      </trkpt>
      <trkpt lat="-21.20681" lon="55.33107">
        <ele>773.33312988281</ele>
        <time>2012-11-06T07:31:32Z</time>
      </trkpt>
      <trkpt lat="-21.20681" lon="55.33107">
        <ele>773.33312988281</ele>
        <time>2012-11-06T07:31:32Z</time>
      </trkpt>
      <trkpt lat="-21.20681" lon="55.33107">
        <ele>774.68933105469</ele>
        <time>2012-11-06T07:31:33Z</time>
      </trkpt>
      <trkpt lat="-21.20681" lon="55.33107">
        <ele>774.68933105469</ele>
        <time>2012-11-06T07:31:33Z</time>
      </trkpt>
      <trkpt lat="-21.20681" lon="55.33107">
        <ele>776.07330322266</ele>
        <time>2012-11-06T07:31:35Z</time>
      </trkpt>
      <trkpt lat="-21.20681" lon="55.33107">
        <ele>776.07330322266</ele>
        <time>2012-11-06T07:31:35Z</time>
      </trkpt>
      <trkpt lat="-21.20681" lon="55.33107">
        <ele>777.23626708984</ele>
        <time>2012-11-06T07:31:37Z</time>
      </trkpt>
      <trkpt lat="-21.20681" lon="55.33107">
        <ele>777.23626708984</ele>
        <time>2012-11-06T07:31:37Z</time>
      </trkpt>
      <trkpt lat="-21.20681" lon="55.33107">
        <ele>777.48901367188</ele>
        <time>2012-11-06T07:31:38Z</time>
      </trkpt>
      <trkpt lat="-21.20681" lon="55.33107">
        <ele>777.48901367188</ele>
        <time>2012-11-06T07:31:38Z</time>
      </trkpt>
      <trkpt lat="-21.20681" lon="55.33107">
        <ele>776.88726806641</ele>
        <time>2012-11-06T07:31:40Z</time>
      </trkpt>
      <trkpt lat="-21.20681" lon="55.33107">
        <ele>776.88726806641</ele>
        <time>2012-11-06T07:31:40Z</time>
      </trkpt>
      <trkpt lat="-21.20681" lon="55.33107">
        <ele>775.40087890625</ele>
        <time>2012-11-06T07:31:41Z</time>
      </trkpt>
      <trkpt lat="-21.20681" lon="55.33107">
        <ele>775.40087890625</ele>
        <time>2012-11-06T07:31:41Z</time>
      </trkpt>
      <trkpt lat="-21.20681" lon="55.33107">
        <ele>771.51092529297</ele>
        <time>2012-11-06T07:31:43Z</time>
      </trkpt>
      <trkpt lat="-21.20681" lon="55.33107">
        <ele>771.51092529297</ele>
        <time>2012-11-06T07:31:43Z</time>
      </trkpt>
      <trkpt lat="-21.20681" lon="55.33107">
        <ele>771.3505859375</ele>
        <time>2012-11-06T07:31:44Z</time>
      </trkpt>
      <trkpt lat="-21.20681" lon="55.33107">
        <ele>771.3505859375</ele>
        <time>2012-11-06T07:31:44Z</time>
      </trkpt>
      <trkpt lat="-21.20681" lon="55.33107">
        <ele>771.05609130859</ele>
        <time>2012-11-06T07:31:45Z</time>
      </trkpt>
      <trkpt lat="-21.20681" lon="55.33107">
        <ele>771.05609130859</ele>
        <time>2012-11-06T07:31:45Z</time>
      </trkpt>
      <trkpt lat="-21.20681" lon="55.33107">
        <ele>771.18481445312</ele>
        <time>2012-11-06T07:31:47Z</time>
      </trkpt>
      <trkpt lat="-21.20681" lon="55.33107">
        <ele>771.18481445312</ele>
        <time>2012-11-06T07:31:47Z</time>
      </trkpt>
      <trkpt lat="-21.20681" lon="55.33107">
        <ele>771.86962890625</ele>
        <time>2012-11-06T07:31:48Z</time>
      </trkpt>
      <trkpt lat="-21.20681" lon="55.33107">
        <ele>771.86962890625</ele>
        <time>2012-11-06T07:31:48Z</time>
      </trkpt>
      <trkpt lat="-21.20681" lon="55.33107">
        <ele>773.14056396484</ele>
        <time>2012-11-06T07:31:50Z</time>
      </trkpt>
      <trkpt lat="-21.20681" lon="55.33107">
        <ele>773.14056396484</ele>
        <time>2012-11-06T07:31:50Z</time>
      </trkpt>
      <trkpt lat="-21.20681" lon="55.33107">
        <ele>773.25866699219</ele>
        <time>2012-11-06T07:31:52Z</time>
      </trkpt>
      <trkpt lat="-21.20681" lon="55.33107">
        <ele>773.25866699219</ele>
        <time>2012-11-06T07:31:52Z</time>
      </trkpt>
      <trkpt lat="-21.20681" lon="55.33107">
        <ele>775.70703125</ele>
        <time>2012-11-06T07:31:53Z</time>
      </trkpt>
      <trkpt lat="-21.20681" lon="55.33107">
        <ele>775.70703125</ele>
        <time>2012-11-06T07:31:53Z</time>
      </trkpt>
      <trkpt lat="-21.20681" lon="55.33107">
        <ele>780.19671630859</ele>
        <time>2012-11-06T07:31:55Z</time>
      </trkpt>
      <trkpt lat="-21.20681" lon="55.33107">
        <ele>780.19671630859</ele>
        <time>2012-11-06T07:31:55Z</time>
      </trkpt>
      <trkpt lat="-21.20681" lon="55.33107">
        <ele>781.49853515625</ele>
        <time>2012-11-06T07:31:56Z</time>
      </trkpt>
      <trkpt lat="-21.20681" lon="55.33107">
        <ele>781.49853515625</ele>
        <time>2012-11-06T07:31:56Z</time>
      </trkpt>
      <trkpt lat="-21.20681" lon="55.33107">
        <ele>782.50872802734</ele>
        <time>2012-11-06T07:31:58Z</time>
      </trkpt>
      <trkpt lat="-21.20681" lon="55.33107">
        <ele>782.50872802734</ele>
        <time>2012-11-06T07:31:58Z</time>
      </trkpt>
      <trkpt lat="-21.20681" lon="55.33107">
        <ele>783.68359375</ele>
        <time>2012-11-06T07:32:00Z</time>
      </trkpt>
      <trkpt lat="-21.20681" lon="55.33107">
        <ele>783.68359375</ele>
        <time>2012-11-06T07:32:00Z</time>
      </trkpt>
      <trkpt lat="-21.20681" lon="55.33107">
        <ele>784.70843505859</ele>
        <time>2012-11-06T07:32:01Z</time>
      </trkpt>
      <trkpt lat="-21.20681" lon="55.33107">
        <ele>784.70843505859</ele>
        <time>2012-11-06T07:32:01Z</time>
      </trkpt>
      <trkpt lat="-21.20681" lon="55.33107">
        <ele>785.65686035156</ele>
        <time>2012-11-06T07:32:02Z</time>
      </trkpt>
      <trkpt lat="-21.20681" lon="55.33107">
        <ele>785.65686035156</ele>
        <time>2012-11-06T07:32:02Z</time>
      </trkpt>
      <trkpt lat="-21.20681" lon="55.33107">
        <ele>785.59240722656</ele>
        <time>2012-11-06T07:32:03Z</time>
      </trkpt>
      <trkpt lat="-21.20681" lon="55.33107">
        <ele>785.59240722656</ele>
        <time>2012-11-06T07:32:03Z</time>
      </trkpt>
      <trkpt lat="-21.20681" lon="55.33107">
        <ele>785.28588867188</ele>
        <time>2012-11-06T07:32:04Z</time>
      </trkpt>
      <trkpt lat="-21.20681" lon="55.33107">
        <ele>785.28588867188</ele>
        <time>2012-11-06T07:32:04Z</time>
      </trkpt>
      <trkpt lat="-21.20681" lon="55.33107">
        <ele>786.20495605469</ele>
        <time>2012-11-06T07:32:05Z</time>
      </trkpt>
      <trkpt lat="-21.20681" lon="55.33107">
        <ele>786.20495605469</ele>
        <time>2012-11-06T07:32:05Z</time>
      </trkpt>
      <trkpt lat="-21.20681" lon="55.33107">
        <ele>788.46319580078</ele>
        <time>2012-11-06T07:32:07Z</time>
      </trkpt>
      <trkpt lat="-21.20681" lon="55.33107">
        <ele>788.46319580078</ele>
        <time>2012-11-06T07:32:07Z</time>
      </trkpt>
      <trkpt lat="-21.20681" lon="55.33107">
        <ele>789.99340820312</ele>
        <time>2012-11-06T07:32:09Z</time>
      </trkpt>
      <trkpt lat="-21.20681" lon="55.33107">
        <ele>789.99340820312</ele>
        <time>2012-11-06T07:32:09Z</time>
      </trkpt>
      <trkpt lat="-21.20681" lon="55.33107">
        <ele>790.77807617188</ele>
        <time>2012-11-06T07:32:10Z</time>
      </trkpt>
      <trkpt lat="-21.20681" lon="55.33107">
        <ele>790.77807617188</ele>
        <time>2012-11-06T07:32:10Z</time>
      </trkpt>
      <trkpt lat="-21.20681" lon="55.33107">
        <ele>791.68792724609</ele>
        <time>2012-11-06T07:32:11Z</time>
      </trkpt>
      <trkpt lat="-21.20681" lon="55.33107">
        <ele>791.68792724609</ele>
        <time>2012-11-06T07:32:11Z</time>
      </trkpt>
      <trkpt lat="-21.20681" lon="55.33107">
        <ele>794.24597167969</ele>
        <time>2012-11-06T07:32:13Z</time>
      </trkpt>
      <trkpt lat="-21.20681" lon="55.33107">
        <ele>794.24597167969</ele>
        <time>2012-11-06T07:32:13Z</time>
      </trkpt>
      <trkpt lat="-21.20681" lon="55.33107">
        <ele>796.08123779297</ele>
        <time>2012-11-06T07:32:15Z</time>
      </trkpt>
      <trkpt lat="-21.20681" lon="55.33107">
        <ele>796.08123779297</ele>
        <time>2012-11-06T07:32:15Z</time>
      </trkpt>
      <trkpt lat="-21.20681" lon="55.33107">
        <ele>796.36352539062</ele>
        <time>2012-11-06T07:32:16Z</time>
      </trkpt>
      <trkpt lat="-21.20681" lon="55.33107">
        <ele>796.36352539062</ele>
        <time>2012-11-06T07:32:16Z</time>
      </trkpt>
      <trkpt lat="-21.20681" lon="55.33107">
        <ele>805.52844238281</ele>
        <time>2012-11-06T07:32:18Z</time>
      </trkpt>
      <trkpt lat="-21.20681" lon="55.33107">
        <ele>805.52844238281</ele>
        <time>2012-11-06T07:32:18Z</time>
      </trkpt>
      <trkpt lat="-21.20681" lon="55.33107">
        <ele>814.83923339844</ele>
        <time>2012-11-06T07:32:20Z</time>
      </trkpt>
      <trkpt lat="-21.20681" lon="55.33107">
        <ele>814.83923339844</ele>
        <time>2012-11-06T07:32:20Z</time>
      </trkpt>
      <trkpt lat="-21.20681" lon="55.33107">
        <ele>817.26104736328</ele>
        <time>2012-11-06T07:32:21Z</time>
      </trkpt>
      <trkpt lat="-21.20681" lon="55.33107">
        <ele>817.26104736328</ele>
        <time>2012-11-06T07:32:21Z</time>
      </trkpt>
      <trkpt lat="-21.20681" lon="55.33107">
        <ele>812.40838623047</ele>
        <time>2012-11-06T07:32:22Z</time>
      </trkpt>
      <trkpt lat="-21.20681" lon="55.33107">
        <ele>812.40838623047</ele>
        <time>2012-11-06T07:32:22Z</time>
      </trkpt>
      <trkpt lat="-21.20681" lon="55.33107">
        <ele>801.48699951172</ele>
        <time>2012-11-06T07:32:24Z</time>
      </trkpt>
      <trkpt lat="-21.20681" lon="55.33107">
        <ele>801.48699951172</ele>
        <time>2012-11-06T07:32:24Z</time>
      </trkpt>
      <trkpt lat="-21.20681" lon="55.33107">
        <ele>797.69934082031</ele>
        <time>2012-11-06T07:32:25Z</time>
      </trkpt>
      <trkpt lat="-21.20681" lon="55.33107">
        <ele>797.69934082031</ele>
        <time>2012-11-06T07:32:25Z</time>
      </trkpt>
      <trkpt lat="-21.20681" lon="55.33107">
        <ele>791.70428466797</ele>
        <time>2012-11-06T07:32:27Z</time>
      </trkpt>
      <trkpt lat="-21.20681" lon="55.33107">
        <ele>791.70428466797</ele>
        <time>2012-11-06T07:32:27Z</time>
      </trkpt>
      <trkpt lat="-21.20681" lon="55.33107">
        <ele>790.27923583984</ele>
        <time>2012-11-06T07:32:28Z</time>
      </trkpt>
      <trkpt lat="-21.20681" lon="55.33107">
        <ele>790.27923583984</ele>
        <time>2012-11-06T07:32:28Z</time>
      </trkpt>
      <trkpt lat="-21.20681" lon="55.33107">
        <ele>789.63293457031</ele>
        <time>2012-11-06T07:32:30Z</time>
      </trkpt>
      <trkpt lat="-21.20681" lon="55.33107">
        <ele>789.63293457031</ele>
        <time>2012-11-06T07:32:30Z</time>
      </trkpt>
      <trkpt lat="-21.20681" lon="55.33108">
        <ele>790.13934326172</ele>
        <time>2012-11-06T07:32:31Z</time>
      </trkpt>
      <trkpt lat="-21.20681" lon="55.33108">
        <ele>790.13934326172</ele>
        <time>2012-11-06T07:32:31Z</time>
      </trkpt>
      <trkpt lat="-21.20681" lon="55.33108">
        <ele>790.44421386719</ele>
        <time>2012-11-06T07:32:32Z</time>
      </trkpt>
      <trkpt lat="-21.20681" lon="55.33108">
        <ele>790.44421386719</ele>
        <time>2012-11-06T07:32:32Z</time>
      </trkpt>
      <trkpt lat="-21.20681" lon="55.33108">
        <ele>792.71020507812</ele>
        <time>2012-11-06T07:32:34Z</time>
      </trkpt>
      <trkpt lat="-21.20681" lon="55.33108">
        <ele>792.71020507812</ele>
        <time>2012-11-06T07:32:34Z</time>
      </trkpt>
      <trkpt lat="-21.20681" lon="55.33108">
        <ele>794.037109375</ele>
        <time>2012-11-06T07:32:35Z</time>
      </trkpt>
      <trkpt lat="-21.20681" lon="55.33108">
        <ele>794.037109375</ele>
        <time>2012-11-06T07:32:35Z</time>
      </trkpt>
      <trkpt lat="-21.20681" lon="55.33108">
        <ele>793.56262207031</ele>
        <time>2012-11-06T07:32:36Z</time>
      </trkpt>
      <trkpt lat="-21.20681" lon="55.33108">
        <ele>793.56262207031</ele>
        <time>2012-11-06T07:32:36Z</time>
      </trkpt>
      <trkpt lat="-21.20681" lon="55.33108">
        <ele>791.24499511719</ele>
        <time>2012-11-06T07:32:37Z</time>
      </trkpt>
      <trkpt lat="-21.20681" lon="55.33108">
        <ele>791.24499511719</ele>
        <time>2012-11-06T07:32:37Z</time>
      </trkpt>
      <trkpt lat="-21.20681" lon="55.33108">
        <ele>788.21185302734</ele>
        <time>2012-11-06T07:32:39Z</time>
      </trkpt>
      <trkpt lat="-21.20681" lon="55.33108">
        <ele>788.21185302734</ele>
        <time>2012-11-06T07:32:39Z</time>
      </trkpt>
      <trkpt lat="-21.20681" lon="55.33108">
        <ele>786.47155761719</ele>
        <time>2012-11-06T07:32:40Z</time>
      </trkpt>
      <trkpt lat="-21.20681" lon="55.33108">
        <ele>786.47155761719</ele>
        <time>2012-11-06T07:32:40Z</time>
      </trkpt>
      <trkpt lat="-21.20681" lon="55.33108">
        <ele>783.45373535156</ele>
        <time>2012-11-06T07:32:42Z</time>
      </trkpt>
      <trkpt lat="-21.20681" lon="55.33108">
        <ele>783.45373535156</ele>
        <time>2012-11-06T07:32:42Z</time>
      </trkpt>
      <trkpt lat="-21.20681" lon="55.33108">
        <ele>783.33410644531</ele>
        <time>2012-11-06T07:32:43Z</time>
      </trkpt>
      <trkpt lat="-21.20681" lon="55.33108">
        <ele>783.33410644531</ele>
        <time>2012-11-06T07:32:43Z</time>
      </trkpt>
      <trkpt lat="-21.20681" lon="55.33108">
        <ele>780.39721679688</ele>
        <time>2012-11-06T07:32:45Z</time>
      </trkpt>
      <trkpt lat="-21.20681" lon="55.33108">
        <ele>780.39721679688</ele>
        <time>2012-11-06T07:32:45Z</time>
      </trkpt>
      <trkpt lat="-21.20681" lon="55.33108">
        <ele>778.30554199219</ele>
        <time>2012-11-06T07:32:46Z</time>
      </trkpt>
      <trkpt lat="-21.20681" lon="55.33108">
        <ele>778.30554199219</ele>
        <time>2012-11-06T07:32:46Z</time>
      </trkpt>
      <trkpt lat="-21.20681" lon="55.33108">
        <ele>777.45104980469</ele>
        <time>2012-11-06T07:32:47Z</time>
      </trkpt>
      <trkpt lat="-21.20681" lon="55.33108">
        <ele>777.45104980469</ele>
        <time>2012-11-06T07:32:47Z</time>
      </trkpt>
      <trkpt lat="-21.20681" lon="55.33108">
        <ele>777.11901855469</ele>
        <time>2012-11-06T07:32:49Z</time>
      </trkpt>
      <trkpt lat="-21.20681" lon="55.33108">
        <ele>777.11901855469</ele>
        <time>2012-11-06T07:32:49Z</time>
      </trkpt>
      <trkpt lat="-21.20681" lon="55.33108">
        <ele>778.35089111328</ele>
        <time>2012-11-06T07:32:50Z</time>
      </trkpt>
      <trkpt lat="-21.20681" lon="55.33108">
        <ele>778.35089111328</ele>
        <time>2012-11-06T07:32:50Z</time>
      </trkpt>
      <trkpt lat="-21.20681" lon="55.33108">
        <ele>779.71813964844</ele>
        <time>2012-11-06T07:32:52Z</time>
      </trkpt>
      <trkpt lat="-21.20681" lon="55.33108">
        <ele>779.71813964844</ele>
        <time>2012-11-06T07:32:52Z</time>
      </trkpt>
      <trkpt lat="-21.20681" lon="55.33108">
        <ele>777.26354980469</ele>
        <time>2012-11-06T07:32:54Z</time>
      </trkpt>
      <trkpt lat="-21.20681" lon="55.33108">
        <ele>777.26354980469</ele>
        <time>2012-11-06T07:32:54Z</time>
      </trkpt>
      <trkpt lat="-21.20681" lon="55.33108">
        <ele>776.49798583984</ele>
        <time>2012-11-06T07:32:55Z</time>
      </trkpt>
      <trkpt lat="-21.20681" lon="55.33108">
        <ele>776.49798583984</ele>
        <time>2012-11-06T07:32:55Z</time>
      </trkpt>
      <trkpt lat="-21.20681" lon="55.33108">
        <ele>776.54949951172</ele>
        <time>2012-11-06T07:32:56Z</time>
      </trkpt>
      <trkpt lat="-21.20681" lon="55.33108">
        <ele>776.54949951172</ele>
        <time>2012-11-06T07:32:56Z</time>
      </trkpt>
      <trkpt lat="-21.20681" lon="55.33108">
        <ele>774.84722900391</ele>
        <time>2012-11-06T07:32:58Z</time>
      </trkpt>
      <trkpt lat="-21.20681" lon="55.33108">
        <ele>774.84722900391</ele>
        <time>2012-11-06T07:32:58Z</time>
      </trkpt>
      <trkpt lat="-21.20681" lon="55.33108">
        <ele>775.87261962891</ele>
        <time>2012-11-06T07:33:00Z</time>
      </trkpt>
      <trkpt lat="-21.20681" lon="55.33108">
        <ele>775.87261962891</ele>
        <time>2012-11-06T07:33:00Z</time>
      </trkpt>
      <trkpt lat="-21.20681" lon="55.33108">
        <ele>779.90411376953</ele>
        <time>2012-11-06T07:33:02Z</time>
      </trkpt>
      <trkpt lat="-21.20681" lon="55.33108">
        <ele>779.90411376953</ele>
        <time>2012-11-06T07:33:02Z</time>
      </trkpt>
      <trkpt lat="-21.20681" lon="55.33108">
        <ele>781.18243408203</ele>
        <time>2012-11-06T07:33:03Z</time>
      </trkpt>
      <trkpt lat="-21.20681" lon="55.33108">
        <ele>781.18243408203</ele>
        <time>2012-11-06T07:33:03Z</time>
      </trkpt>
      <trkpt lat="-21.20681" lon="55.33108">
        <ele>784.75769042969</ele>
        <time>2012-11-06T07:33:05Z</time>
      </trkpt>
      <trkpt lat="-21.20681" lon="55.33108">
        <ele>784.75769042969</ele>
        <time>2012-11-06T07:33:05Z</time>
      </trkpt>
      <trkpt lat="-21.20681" lon="55.33108">
        <ele>785.97808837891</ele>
        <time>2012-11-06T07:33:07Z</time>
      </trkpt>
      <trkpt lat="-21.20681" lon="55.33108">
        <ele>785.97808837891</ele>
        <time>2012-11-06T07:33:07Z</time>
      </trkpt>
      <trkpt lat="-21.20681" lon="55.33108">
        <ele>780.142578125</ele>
        <time>2012-11-06T07:33:09Z</time>
      </trkpt>
      <trkpt lat="-21.20681" lon="55.33108">
        <ele>780.142578125</ele>
        <time>2012-11-06T07:33:09Z</time>
      </trkpt>
      <trkpt lat="-21.20681" lon="55.33108">
        <ele>782.28619384766</ele>
        <time>2012-11-06T07:33:10Z</time>
      </trkpt>
      <trkpt lat="-21.20681" lon="55.33108">
        <ele>782.28619384766</ele>
        <time>2012-11-06T07:33:10Z</time>
      </trkpt>
      <trkpt lat="-21.20681" lon="55.33108">
        <ele>779.80908203125</ele>
        <time>2012-11-06T07:33:12Z</time>
      </trkpt>
      <trkpt lat="-21.20681" lon="55.33108">
        <ele>779.80908203125</ele>
        <time>2012-11-06T07:33:12Z</time>
      </trkpt>
      <trkpt lat="-21.20681" lon="55.33108">
        <ele>778.67541503906</ele>
        <time>2012-11-06T07:33:14Z</time>
      </trkpt>
      <trkpt lat="-21.20681" lon="55.33108">
        <ele>778.67541503906</ele>
        <time>2012-11-06T07:33:14Z</time>
      </trkpt>
      <trkpt lat="-21.20681" lon="55.33108">
        <ele>775.88763427734</ele>
        <time>2012-11-06T07:33:15Z</time>
      </trkpt>
      <trkpt lat="-21.20681" lon="55.33108">
        <ele>775.88763427734</ele>
        <time>2012-11-06T07:33:15Z</time>
      </trkpt>
      <trkpt lat="-21.20681" lon="55.33108">
        <ele>772.29382324219</ele>
        <time>2012-11-06T07:33:17Z</time>
      </trkpt>
      <trkpt lat="-21.20681" lon="55.33108">
        <ele>772.29382324219</ele>
        <time>2012-11-06T07:33:17Z</time>
      </trkpt>
      <trkpt lat="-21.20681" lon="55.33108">
        <ele>771.54827880859</ele>
        <time>2012-11-06T07:33:18Z</time>
      </trkpt>
      <trkpt lat="-21.20681" lon="55.33108">
        <ele>771.54827880859</ele>
        <time>2012-11-06T07:33:18Z</time>
      </trkpt>
      <trkpt lat="-21.20681" lon="55.33108">
        <ele>771.58209228516</ele>
        <time>2012-11-06T07:33:20Z</time>
      </trkpt>
      <trkpt lat="-21.20681" lon="55.33108">
        <ele>771.58209228516</ele>
        <time>2012-11-06T07:33:20Z</time>
      </trkpt>
      <trkpt lat="-21.20681" lon="55.33108">
        <ele>771.76550292969</ele>
        <time>2012-11-06T07:33:22Z</time>
      </trkpt>
      <trkpt lat="-21.20681" lon="55.33108">
        <ele>771.76550292969</ele>
        <time>2012-11-06T07:33:22Z</time>
      </trkpt>
      <trkpt lat="-21.20681" lon="55.33108">
        <ele>771.34246826172</ele>
        <time>2012-11-06T07:33:24Z</time>
      </trkpt>
      <trkpt lat="-21.20681" lon="55.33108">
        <ele>771.34246826172</ele>
        <time>2012-11-06T07:33:24Z</time>
      </trkpt>
      <trkpt lat="-21.20681" lon="55.33108">
        <ele>771.27581787109</ele>
        <time>2012-11-06T07:33:25Z</time>
      </trkpt>
      <trkpt lat="-21.20681" lon="55.33108">
        <ele>771.27581787109</ele>
        <time>2012-11-06T07:33:25Z</time>
      </trkpt>
      <trkpt lat="-21.20681" lon="55.33108">
        <ele>771.49102783203</ele>
        <time>2012-11-06T07:33:27Z</time>
      </trkpt>
      <trkpt lat="-21.20681" lon="55.33108">
        <ele>771.49102783203</ele>
        <time>2012-11-06T07:33:27Z</time>
      </trkpt>
      <trkpt lat="-21.20681" lon="55.33108">
        <ele>771.31146240234</ele>
        <time>2012-11-06T07:33:28Z</time>
      </trkpt>
      <trkpt lat="-21.20681" lon="55.33108">
        <ele>771.31146240234</ele>
        <time>2012-11-06T07:33:28Z</time>
      </trkpt>
      <trkpt lat="-21.20681" lon="55.33108">
        <ele>770.91528320312</ele>
        <time>2012-11-06T07:33:30Z</time>
      </trkpt>
      <trkpt lat="-21.20681" lon="55.33108">
        <ele>770.91528320312</ele>
        <time>2012-11-06T07:33:30Z</time>
      </trkpt>
      <trkpt lat="-21.20681" lon="55.33108">
        <ele>767.79632568359</ele>
        <time>2012-11-06T07:33:31Z</time>
      </trkpt>
      <trkpt lat="-21.20681" lon="55.33108">
        <ele>767.79632568359</ele>
        <time>2012-11-06T07:33:31Z</time>
      </trkpt>
      <trkpt lat="-21.20681" lon="55.33108">
        <ele>768.01776123047</ele>
        <time>2012-11-06T07:33:33Z</time>
      </trkpt>
      <trkpt lat="-21.20681" lon="55.33108">
        <ele>768.01776123047</ele>
        <time>2012-11-06T07:33:33Z</time>
      </trkpt>
      <trkpt lat="-21.20681" lon="55.33108">
        <ele>769.81805419922</ele>
        <time>2012-11-06T07:33:34Z</time>
      </trkpt>
      <trkpt lat="-21.20681" lon="55.33108">
        <ele>769.81805419922</ele>
        <time>2012-11-06T07:33:34Z</time>
      </trkpt>
      <trkpt lat="-21.20681" lon="55.33108">
        <ele>769.06396484375</ele>
        <time>2012-11-06T07:33:36Z</time>
      </trkpt>
      <trkpt lat="-21.20681" lon="55.33108">
        <ele>769.06396484375</ele>
        <time>2012-11-06T07:33:36Z</time>
      </trkpt>
      <trkpt lat="-21.20681" lon="55.33108">
        <ele>768.43878173828</ele>
        <time>2012-11-06T07:33:37Z</time>
      </trkpt>
      <trkpt lat="-21.20681" lon="55.33108">
        <ele>768.43878173828</ele>
        <time>2012-11-06T07:33:37Z</time>
      </trkpt>
      <trkpt lat="-21.20681" lon="55.33108">
        <ele>772.41516113281</ele>
        <time>2012-11-06T07:33:39Z</time>
      </trkpt>
      <trkpt lat="-21.20681" lon="55.33108">
        <ele>772.41516113281</ele>
        <time>2012-11-06T07:33:39Z</time>
      </trkpt>
      <trkpt lat="-21.20681" lon="55.33108">
        <ele>778.80084228516</ele>
        <time>2012-11-06T07:33:41Z</time>
      </trkpt>
      <trkpt lat="-21.20681" lon="55.33108">
        <ele>778.80084228516</ele>
        <time>2012-11-06T07:33:41Z</time>
      </trkpt>
      <trkpt lat="-21.20681" lon="55.33108">
        <ele>778.54827880859</ele>
        <time>2012-11-06T07:33:42Z</time>
      </trkpt>
      <trkpt lat="-21.20681" lon="55.33108">
        <ele>778.54827880859</ele>
        <time>2012-11-06T07:33:42Z</time>
      </trkpt>
      <trkpt lat="-21.20681" lon="55.33108">
        <ele>776.99682617188</ele>
        <time>2012-11-06T07:33:44Z</time>
      </trkpt>
      <trkpt lat="-21.20681" lon="55.33108">
        <ele>776.99682617188</ele>
        <time>2012-11-06T07:33:44Z</time>
      </trkpt>
      <trkpt lat="-21.20681" lon="55.33108">
        <ele>771.64013671875</ele>
        <time>2012-11-06T07:33:45Z</time>
      </trkpt>
      <trkpt lat="-21.20681" lon="55.33108">
        <ele>771.64013671875</ele>
        <time>2012-11-06T07:33:45Z</time>
      </trkpt>
      <trkpt lat="-21.20681" lon="55.33108">
        <ele>769.56481933594</ele>
        <time>2012-11-06T07:33:46Z</time>
      </trkpt>
      <trkpt lat="-21.20681" lon="55.33108">
        <ele>769.56481933594</ele>
        <time>2012-11-06T07:33:46Z</time>
      </trkpt>
      <trkpt lat="-21.20681" lon="55.33108">
        <ele>769.24658203125</ele>
        <time>2012-11-06T07:33:48Z</time>
      </trkpt>
      <trkpt lat="-21.20681" lon="55.33108">
        <ele>769.24658203125</ele>
        <time>2012-11-06T07:33:48Z</time>
      </trkpt>
      <trkpt lat="-21.20681" lon="55.33108">
        <ele>769.91339111328</ele>
        <time>2012-11-06T07:33:49Z</time>
      </trkpt>
      <trkpt lat="-21.20681" lon="55.33108">
        <ele>769.91339111328</ele>
        <time>2012-11-06T07:33:49Z</time>
      </trkpt>
      <trkpt lat="-21.20681" lon="55.33108">
        <ele>768.47552490234</ele>
        <time>2012-11-06T07:33:51Z</time>
      </trkpt>
      <trkpt lat="-21.20681" lon="55.33108">
        <ele>768.47552490234</ele>
        <time>2012-11-06T07:33:51Z</time>
      </trkpt>
      <trkpt lat="-21.20681" lon="55.33108">
        <ele>771.94500732422</ele>
        <time>2012-11-06T07:33:53Z</time>
      </trkpt>
      <trkpt lat="-21.20681" lon="55.33108">
        <ele>771.94500732422</ele>
        <time>2012-11-06T07:33:53Z</time>
      </trkpt>
      <trkpt lat="-21.20681" lon="55.33108">
        <ele>773.45050048828</ele>
        <time>2012-11-06T07:33:54Z</time>
      </trkpt>
      <trkpt lat="-21.20681" lon="55.33108">
        <ele>773.45050048828</ele>
        <time>2012-11-06T07:33:54Z</time>
      </trkpt>
      <trkpt lat="-21.20681" lon="55.33108">
        <ele>773.72100830078</ele>
        <time>2012-11-06T07:33:55Z</time>
      </trkpt>
      <trkpt lat="-21.20681" lon="55.33108">
        <ele>773.72100830078</ele>
        <time>2012-11-06T07:33:55Z</time>
      </trkpt>
      <trkpt lat="-21.20681" lon="55.33108">
        <ele>773.10565185547</ele>
        <time>2012-11-06T07:33:57Z</time>
      </trkpt>
      <trkpt lat="-21.20681" lon="55.33108">
        <ele>773.10565185547</ele>
        <time>2012-11-06T07:33:57Z</time>
      </trkpt>
      <trkpt lat="-21.20681" lon="55.33108">
        <ele>773.30615234375</ele>
        <time>2012-11-06T07:33:58Z</time>
      </trkpt>
      <trkpt lat="-21.20681" lon="55.33108">
        <ele>773.30615234375</ele>
        <time>2012-11-06T07:33:58Z</time>
      </trkpt>
      <trkpt lat="-21.20681" lon="55.33108">
        <ele>773.59045410156</ele>
        <time>2012-11-06T07:34:00Z</time>
      </trkpt>
      <trkpt lat="-21.20681" lon="55.33108">
        <ele>773.59045410156</ele>
        <time>2012-11-06T07:34:00Z</time>
      </trkpt>
      <trkpt lat="-21.20681" lon="55.33108">
        <ele>773.38104248047</ele>
        <time>2012-11-06T07:34:01Z</time>
      </trkpt>
      <trkpt lat="-21.20681" lon="55.33108">
        <ele>773.38104248047</ele>
        <time>2012-11-06T07:34:01Z</time>
      </trkpt>
      <trkpt lat="-21.20681" lon="55.33108">
        <ele>769.72717285156</ele>
        <time>2012-11-06T07:34:03Z</time>
      </trkpt>
      <trkpt lat="-21.20681" lon="55.33108">
        <ele>769.72717285156</ele>
        <time>2012-11-06T07:34:03Z</time>
      </trkpt>
      <trkpt lat="-21.20681" lon="55.33108">
        <ele>769.43200683594</ele>
        <time>2012-11-06T07:34:05Z</time>
      </trkpt>
      <trkpt lat="-21.20681" lon="55.33108">
        <ele>769.43200683594</ele>
        <time>2012-11-06T07:34:05Z</time>
      </trkpt>
      <trkpt lat="-21.20681" lon="55.33108">
        <ele>768.14349365234</ele>
        <time>2012-11-06T07:34:07Z</time>
      </trkpt>
      <trkpt lat="-21.20681" lon="55.33108">
        <ele>768.14349365234</ele>
        <time>2012-11-06T07:34:07Z</time>
      </trkpt>
      <trkpt lat="-21.20681" lon="55.33108">
        <ele>764.38848876953</ele>
        <time>2012-11-06T07:34:08Z</time>
      </trkpt>
      <trkpt lat="-21.20681" lon="55.33108">
        <ele>764.38848876953</ele>
        <time>2012-11-06T07:34:08Z</time>
      </trkpt>
      <trkpt lat="-21.20681" lon="55.33108">
        <ele>768.37426757812</ele>
        <time>2012-11-06T07:34:10Z</time>
      </trkpt>
      <trkpt lat="-21.20681" lon="55.33108">
        <ele>768.37426757812</ele>
        <time>2012-11-06T07:34:10Z</time>
      </trkpt>
      <trkpt lat="-21.20681" lon="55.33108">
        <ele>769.94110107422</ele>
        <time>2012-11-06T07:34:11Z</time>
      </trkpt>
      <trkpt lat="-21.20681" lon="55.33108">
        <ele>769.94110107422</ele>
        <time>2012-11-06T07:34:11Z</time>
      </trkpt>
      <trkpt lat="-21.20681" lon="55.33108">
        <ele>767.75158691406</ele>
        <time>2012-11-06T07:34:13Z</time>
      </trkpt>
      <trkpt lat="-21.20681" lon="55.33108">
        <ele>767.75158691406</ele>
        <time>2012-11-06T07:34:13Z</time>
      </trkpt>
      <trkpt lat="-21.20681" lon="55.33108">
        <ele>769.48193359375</ele>
        <time>2012-11-06T07:34:15Z</time>
      </trkpt>
      <trkpt lat="-21.20681" lon="55.33108">
        <ele>769.48193359375</ele>
        <time>2012-11-06T07:34:15Z</time>
      </trkpt>
      <trkpt lat="-21.20681" lon="55.33108">
        <ele>760.58984375</ele>
        <time>2012-11-06T07:34:17Z</time>
      </trkpt>
      <trkpt lat="-21.20681" lon="55.33108">
        <ele>760.58984375</ele>
        <time>2012-11-06T07:34:17Z</time>
      </trkpt>
      <trkpt lat="-21.20681" lon="55.33108">
        <ele>761.11010742188</ele>
        <time>2012-11-06T07:34:18Z</time>
      </trkpt>
      <trkpt lat="-21.20681" lon="55.33108">
        <ele>761.11010742188</ele>
        <time>2012-11-06T07:34:18Z</time>
      </trkpt>
      <trkpt lat="-21.20681" lon="55.33108">
        <ele>762.66009521484</ele>
        <time>2012-11-06T07:34:20Z</time>
      </trkpt>
      <trkpt lat="-21.20681" lon="55.33108">
        <ele>762.66009521484</ele>
        <time>2012-11-06T07:34:20Z</time>
      </trkpt>
      <trkpt lat="-21.20681" lon="55.33108">
        <ele>763.41137695312</ele>
        <time>2012-11-06T07:34:22Z</time>
      </trkpt>
      <trkpt lat="-21.20681" lon="55.33108">
        <ele>763.41137695312</ele>
        <time>2012-11-06T07:34:22Z</time>
      </trkpt>
      <trkpt lat="-21.20681" lon="55.33108">
        <ele>762.24206542969</ele>
        <time>2012-11-06T07:34:23Z</time>
      </trkpt>
      <trkpt lat="-21.20681" lon="55.33108">
        <ele>762.24206542969</ele>
        <time>2012-11-06T07:34:23Z</time>
      </trkpt>
      <trkpt lat="-21.20681" lon="55.33108">
        <ele>766.29711914062</ele>
        <time>2012-11-06T07:34:24Z</time>
      </trkpt>
      <trkpt lat="-21.20681" lon="55.33108">
        <ele>766.29711914062</ele>
        <time>2012-11-06T07:34:24Z</time>
      </trkpt>
      <trkpt lat="-21.20681" lon="55.33108">
        <ele>766.52026367188</ele>
        <time>2012-11-06T07:34:26Z</time>
      </trkpt>
      <trkpt lat="-21.20681" lon="55.33108">
        <ele>766.52026367188</ele>
        <time>2012-11-06T07:34:26Z</time>
      </trkpt>
      <trkpt lat="-21.20681" lon="55.33108">
        <ele>769.32073974609</ele>
        <time>2012-11-06T07:34:27Z</time>
      </trkpt>
      <trkpt lat="-21.20681" lon="55.33108">
        <ele>769.32073974609</ele>
        <time>2012-11-06T07:34:27Z</time>
      </trkpt>
      <trkpt lat="-21.20681" lon="55.33108">
        <ele>770.73297119141</ele>
        <time>2012-11-06T07:34:29Z</time>
      </trkpt>
      <trkpt lat="-21.20681" lon="55.33108">
        <ele>770.73297119141</ele>
        <time>2012-11-06T07:34:29Z</time>
      </trkpt>
      <trkpt lat="-21.20681" lon="55.33108">
        <ele>764.78948974609</ele>
        <time>2012-11-06T07:34:31Z</time>
      </trkpt>
      <trkpt lat="-21.20681" lon="55.33108">
        <ele>764.78948974609</ele>
        <time>2012-11-06T07:34:31Z</time>
      </trkpt>
      <trkpt lat="-21.20681" lon="55.33108">
        <ele>767.60510253906</ele>
        <time>2012-11-06T07:34:32Z</time>
      </trkpt>
      <trkpt lat="-21.20681" lon="55.33108">
        <ele>767.60510253906</ele>
        <time>2012-11-06T07:34:32Z</time>
      </trkpt>
      <trkpt lat="-21.20681" lon="55.33108">
        <ele>763.79052734375</ele>
        <time>2012-11-06T07:34:34Z</time>
      </trkpt>
      <trkpt lat="-21.20681" lon="55.33108">
        <ele>763.79052734375</ele>
        <time>2012-11-06T07:34:34Z</time>
      </trkpt>
      <trkpt lat="-21.20681" lon="55.33108">
        <ele>771.01287841797</ele>
        <time>2012-11-06T07:34:36Z</time>
      </trkpt>
      <trkpt lat="-21.20681" lon="55.33108">
        <ele>771.01287841797</ele>
        <time>2012-11-06T07:34:36Z</time>
      </trkpt>
      <trkpt lat="-21.20681" lon="55.33108">
        <ele>771.31262207031</ele>
        <time>2012-11-06T07:34:37Z</time>
      </trkpt>
      <trkpt lat="-21.20681" lon="55.33108">
        <ele>771.31262207031</ele>
        <time>2012-11-06T07:34:37Z</time>
      </trkpt>
      <trkpt lat="-21.20681" lon="55.33108">
        <ele>771.17346191406</ele>
        <time>2012-11-06T07:34:38Z</time>
      </trkpt>
      <trkpt lat="-21.20681" lon="55.33108">
        <ele>771.17346191406</ele>
        <time>2012-11-06T07:34:38Z</time>
      </trkpt>
      <trkpt lat="-21.20681" lon="55.33108">
        <ele>773.24298095703</ele>
        <time>2012-11-06T07:34:40Z</time>
      </trkpt>
      <trkpt lat="-21.20681" lon="55.33108">
        <ele>773.24298095703</ele>
        <time>2012-11-06T07:34:40Z</time>
      </trkpt>
      <trkpt lat="-21.20681" lon="55.33108">
        <ele>771.93933105469</ele>
        <time>2012-11-06T07:34:42Z</time>
      </trkpt>
      <trkpt lat="-21.20681" lon="55.33108">
        <ele>771.93933105469</ele>
        <time>2012-11-06T07:34:42Z</time>
      </trkpt>
      <trkpt lat="-21.20681" lon="55.33108">
        <ele>773.41436767578</ele>
        <time>2012-11-06T07:34:43Z</time>
      </trkpt>
      <trkpt lat="-21.20681" lon="55.33108">
        <ele>773.41436767578</ele>
        <time>2012-11-06T07:34:43Z</time>
      </trkpt>
      <trkpt lat="-21.20681" lon="55.33108">
        <ele>776.82263183594</ele>
        <time>2012-11-06T07:34:45Z</time>
      </trkpt>
      <trkpt lat="-21.20681" lon="55.33108">
        <ele>776.82263183594</ele>
        <time>2012-11-06T07:34:45Z</time>
      </trkpt>
      <trkpt lat="-21.20681" lon="55.33108">
        <ele>776.8798828125</ele>
        <time>2012-11-06T07:34:46Z</time>
      </trkpt>
      <trkpt lat="-21.20681" lon="55.33108">
        <ele>776.8798828125</ele>
        <time>2012-11-06T07:34:46Z</time>
      </trkpt>
      <trkpt lat="-21.20681" lon="55.33108">
        <ele>780.11389160156</ele>
        <time>2012-11-06T07:34:47Z</time>
      </trkpt>
      <trkpt lat="-21.20681" lon="55.33108">
        <ele>780.11389160156</ele>
        <time>2012-11-06T07:34:47Z</time>
      </trkpt>
      <trkpt lat="-21.20681" lon="55.33108">
        <ele>776.22821044922</ele>
        <time>2012-11-06T07:34:49Z</time>
      </trkpt>
      <trkpt lat="-21.20681" lon="55.33108">
        <ele>776.22821044922</ele>
        <time>2012-11-06T07:34:49Z</time>
      </trkpt>
      <trkpt lat="-21.20681" lon="55.33108">
        <ele>772.80676269531</ele>
        <time>2012-11-06T07:34:51Z</time>
      </trkpt>
      <trkpt lat="-21.20681" lon="55.33108">
        <ele>772.80676269531</ele>
        <time>2012-11-06T07:34:51Z</time>
      </trkpt>
      <trkpt lat="-21.20681" lon="55.33108">
        <ele>774.99645996094</ele>
        <time>2012-11-06T07:34:53Z</time>
      </trkpt>
      <trkpt lat="-21.20681" lon="55.33108">
        <ele>774.99645996094</ele>
        <time>2012-11-06T07:34:53Z</time>
      </trkpt>
      <trkpt lat="-21.20681" lon="55.33108">
        <ele>769.32409667969</ele>
        <time>2012-11-06T07:34:55Z</time>
      </trkpt>
      <trkpt lat="-21.20681" lon="55.33108">
        <ele>769.32409667969</ele>
        <time>2012-11-06T07:34:55Z</time>
      </trkpt>
      <trkpt lat="-21.20681" lon="55.33108">
        <ele>766.37701416016</ele>
        <time>2012-11-06T07:34:56Z</time>
      </trkpt>
      <trkpt lat="-21.20681" lon="55.33108">
        <ele>766.37701416016</ele>
        <time>2012-11-06T07:34:56Z</time>
      </trkpt>
      <trkpt lat="-21.20681" lon="55.33108">
        <ele>768.07745361328</ele>
        <time>2012-11-06T07:34:58Z</time>
      </trkpt>
      <trkpt lat="-21.20681" lon="55.33108">
        <ele>768.07745361328</ele>
        <time>2012-11-06T07:34:58Z</time>
      </trkpt>
      <trkpt lat="-21.20681" lon="55.33108">
        <ele>763.57000732422</ele>
        <time>2012-11-06T07:34:59Z</time>
      </trkpt>
      <trkpt lat="-21.20681" lon="55.33108">
        <ele>763.57000732422</ele>
        <time>2012-11-06T07:34:59Z</time>
      </trkpt>
      <trkpt lat="-21.20681" lon="55.33108">
        <ele>774.15875244141</ele>
        <time>2012-11-06T07:35:01Z</time>
      </trkpt>
      <trkpt lat="-21.20681" lon="55.33108">
        <ele>774.15875244141</ele>
        <time>2012-11-06T07:35:01Z</time>
      </trkpt>
      <trkpt lat="-21.20681" lon="55.33108">
        <ele>780.39764404297</ele>
        <time>2012-11-06T07:35:02Z</time>
      </trkpt>
      <trkpt lat="-21.20681" lon="55.33108">
        <ele>780.39764404297</ele>
        <time>2012-11-06T07:35:02Z</time>
      </trkpt>
      <trkpt lat="-21.20681" lon="55.33108">
        <ele>776.95574951172</ele>
        <time>2012-11-06T07:35:04Z</time>
      </trkpt>
      <trkpt lat="-21.20681" lon="55.33108">
        <ele>776.95574951172</ele>
        <time>2012-11-06T07:35:04Z</time>
      </trkpt>
      <trkpt lat="-21.20681" lon="55.33108">
        <ele>775.24664306641</ele>
        <time>2012-11-06T07:35:06Z</time>
      </trkpt>
      <trkpt lat="-21.20681" lon="55.33108">
        <ele>775.24664306641</ele>
        <time>2012-11-06T07:35:06Z</time>
      </trkpt>
      <trkpt lat="-21.20681" lon="55.33108">
        <ele>772.96423339844</ele>
        <time>2012-11-06T07:35:07Z</time>
      </trkpt>
      <trkpt lat="-21.20681" lon="55.33108">
        <ele>772.96423339844</ele>
        <time>2012-11-06T07:35:07Z</time>
      </trkpt>
      <trkpt lat="-21.20681" lon="55.33108">
        <ele>771.51232910156</ele>
        <time>2012-11-06T07:35:09Z</time>
      </trkpt>
      <trkpt lat="-21.20681" lon="55.33108">
        <ele>771.51232910156</ele>
        <time>2012-11-06T07:35:09Z</time>
      </trkpt>
      <trkpt lat="-21.20681" lon="55.33108">
        <ele>763.87335205078</ele>
        <time>2012-11-06T07:35:11Z</time>
      </trkpt>
      <trkpt lat="-21.20681" lon="55.33108">
        <ele>763.87335205078</ele>
        <time>2012-11-06T07:35:11Z</time>
      </trkpt>
      <trkpt lat="-21.20681" lon="55.33108">
        <ele>769.21978759766</ele>
        <time>2012-11-06T07:35:13Z</time>
      </trkpt>
      <trkpt lat="-21.20681" lon="55.33108">
        <ele>769.21978759766</ele>
        <time>2012-11-06T07:35:13Z</time>
      </trkpt>
      <trkpt lat="-21.20681" lon="55.33108">
        <ele>766.43688964844</ele>
        <time>2012-11-06T07:35:15Z</time>
      </trkpt>
      <trkpt lat="-21.20681" lon="55.33108">
        <ele>766.43688964844</ele>
        <time>2012-11-06T07:35:15Z</time>
      </trkpt>
      <trkpt lat="-21.20681" lon="55.33108">
        <ele>769.18579101562</ele>
        <time>2012-11-06T07:35:16Z</time>
      </trkpt>
      <trkpt lat="-21.20681" lon="55.33108">
        <ele>769.18579101562</ele>
        <time>2012-11-06T07:35:16Z</time>
      </trkpt>
      <trkpt lat="-21.20681" lon="55.33108">
        <ele>773.0087890625</ele>
        <time>2012-11-06T07:35:18Z</time>
      </trkpt>
      <trkpt lat="-21.20681" lon="55.33108">
        <ele>773.0087890625</ele>
        <time>2012-11-06T07:35:18Z</time>
      </trkpt>
      <trkpt lat="-21.20681" lon="55.33108">
        <ele>771.36920166016</ele>
        <time>2012-11-06T07:35:20Z</time>
      </trkpt>
      <trkpt lat="-21.20681" lon="55.33108">
        <ele>771.36920166016</ele>
        <time>2012-11-06T07:35:20Z</time>
      </trkpt>
      <trkpt lat="-21.20681" lon="55.33108">
        <ele>772.15954589844</ele>
        <time>2012-11-06T07:35:21Z</time>
      </trkpt>
      <trkpt lat="-21.20681" lon="55.33108">
        <ele>772.15954589844</ele>
        <time>2012-11-06T07:35:21Z</time>
      </trkpt>
      <trkpt lat="-21.20681" lon="55.33108">
        <ele>771.86785888672</ele>
        <time>2012-11-06T07:35:22Z</time>
      </trkpt>
      <trkpt lat="-21.20681" lon="55.33108">
        <ele>771.86785888672</ele>
        <time>2012-11-06T07:35:22Z</time>
      </trkpt>
      <trkpt lat="-21.20681" lon="55.33108">
        <ele>771.97076416016</ele>
        <time>2012-11-06T07:35:23Z</time>
      </trkpt>
      <trkpt lat="-21.20681" lon="55.33108">
        <ele>771.97076416016</ele>
        <time>2012-11-06T07:35:23Z</time>
      </trkpt>
      <trkpt lat="-21.20681" lon="55.33108">
        <ele>775.88934326172</ele>
        <time>2012-11-06T07:35:25Z</time>
      </trkpt>
      <trkpt lat="-21.20681" lon="55.33108">
        <ele>775.88934326172</ele>
        <time>2012-11-06T07:35:25Z</time>
      </trkpt>
      <trkpt lat="-21.20681" lon="55.33108">
        <ele>771.90869140625</ele>
        <time>2012-11-06T07:35:27Z</time>
      </trkpt>
      <trkpt lat="-21.20681" lon="55.33108">
        <ele>771.90869140625</ele>
        <time>2012-11-06T07:35:27Z</time>
      </trkpt>
      <trkpt lat="-21.20681" lon="55.33108">
        <ele>768.47534179688</ele>
        <time>2012-11-06T07:35:29Z</time>
      </trkpt>
      <trkpt lat="-21.20681" lon="55.33108">
        <ele>768.47534179688</ele>
        <time>2012-11-06T07:35:29Z</time>
      </trkpt>
      <trkpt lat="-21.20681" lon="55.33108">
        <ele>775.01824951172</ele>
        <time>2012-11-06T07:35:31Z</time>
      </trkpt>
      <trkpt lat="-21.20681" lon="55.33108">
        <ele>775.01824951172</ele>
        <time>2012-11-06T07:35:31Z</time>
      </trkpt>
      <trkpt lat="-21.20681" lon="55.33108">
        <ele>774.87841796875</ele>
        <time>2012-11-06T07:35:32Z</time>
      </trkpt>
      <trkpt lat="-21.20681" lon="55.33108">
        <ele>774.87841796875</ele>
        <time>2012-11-06T07:35:32Z</time>
      </trkpt>
      <trkpt lat="-21.20681" lon="55.33108">
        <ele>777.18725585938</ele>
        <time>2012-11-06T07:35:33Z</time>
      </trkpt>
      <trkpt lat="-21.20681" lon="55.33108">
        <ele>777.18725585938</ele>
        <time>2012-11-06T07:35:33Z</time>
      </trkpt>
      <trkpt lat="-21.20683" lon="55.33108">
        <ele>778.08306884766</ele>
        <time>2012-11-06T07:35:35Z</time>
      </trkpt>
      <trkpt lat="-21.20683" lon="55.33108">
        <ele>778.08306884766</ele>
        <time>2012-11-06T07:35:35Z</time>
      </trkpt>
      <trkpt lat="-21.20683" lon="55.33108">
        <ele>771.75103759766</ele>
        <time>2012-11-06T07:35:36Z</time>
      </trkpt>
      <trkpt lat="-21.20683" lon="55.33108">
        <ele>771.75103759766</ele>
        <time>2012-11-06T07:35:36Z</time>
      </trkpt>
      <trkpt lat="-21.20683" lon="55.33108">
        <ele>770.19787597656</ele>
        <time>2012-11-06T07:35:38Z</time>
      </trkpt>
      <trkpt lat="-21.20683" lon="55.33108">
        <ele>770.19787597656</ele>
        <time>2012-11-06T07:35:38Z</time>
      </trkpt>
      <trkpt lat="-21.20683" lon="55.33108">
        <ele>780.66552734375</ele>
        <time>2012-11-06T07:35:39Z</time>
      </trkpt>
      <trkpt lat="-21.20683" lon="55.33108">
        <ele>780.66552734375</ele>
        <time>2012-11-06T07:35:39Z</time>
      </trkpt>
      <trkpt lat="-21.20683" lon="55.33108">
        <ele>781.90734863281</ele>
        <time>2012-11-06T07:35:40Z</time>
      </trkpt>
      <trkpt lat="-21.20683" lon="55.33108">
        <ele>781.90734863281</ele>
        <time>2012-11-06T07:35:40Z</time>
      </trkpt>
      <trkpt lat="-21.20683" lon="55.33108">
        <ele>786.49145507812</ele>
        <time>2012-11-06T07:35:42Z</time>
      </trkpt>
      <trkpt lat="-21.20683" lon="55.33108">
        <ele>786.49145507812</ele>
        <time>2012-11-06T07:35:42Z</time>
      </trkpt>
      <trkpt lat="-21.20683" lon="55.33108">
        <ele>781.16229248047</ele>
        <time>2012-11-06T07:35:43Z</time>
      </trkpt>
      <trkpt lat="-21.20683" lon="55.33108">
        <ele>781.16229248047</ele>
        <time>2012-11-06T07:35:43Z</time>
      </trkpt>
      <trkpt lat="-21.20683" lon="55.33108">
        <ele>777.63311767578</ele>
        <time>2012-11-06T07:35:45Z</time>
      </trkpt>
      <trkpt lat="-21.20683" lon="55.33108">
        <ele>777.63311767578</ele>
        <time>2012-11-06T07:35:45Z</time>
      </trkpt>
      <trkpt lat="-21.20684" lon="55.33107">
        <ele>768.9521484375</ele>
        <time>2012-11-06T07:35:47Z</time>
      </trkpt>
      <trkpt lat="-21.20684" lon="55.33107">
        <ele>768.9521484375</ele>
        <time>2012-11-06T07:35:47Z</time>
      </trkpt>
      <trkpt lat="-21.20685" lon="55.33107">
        <ele>774.62097167969</ele>
        <time>2012-11-06T07:35:48Z</time>
      </trkpt>
      <trkpt lat="-21.20685" lon="55.33107">
        <ele>774.62097167969</ele>
        <time>2012-11-06T07:35:48Z</time>
      </trkpt>
      <trkpt lat="-21.20685" lon="55.33107">
        <ele>776.68487548828</ele>
        <time>2012-11-06T07:35:50Z</time>
      </trkpt>
      <trkpt lat="-21.20685" lon="55.33107">
        <ele>782.04913330078</ele>
        <time>2012-11-06T07:35:53Z</time>
      </trkpt>
      <trkpt lat="-21.20685" lon="55.33107">
        <ele>782.04913330078</ele>
        <time>2012-11-06T07:35:53Z</time>
      </trkpt>
      <trkpt lat="-21.20685" lon="55.33107">
        <ele>782.04913330078</ele>
        <time>2012-11-06T07:35:53Z</time>
      </trkpt>
      <trkpt lat="-21.20685" lon="55.33107">
        <ele>776.44970703125</ele>
        <time>2012-11-06T07:35:54Z</time>
      </trkpt>
      <trkpt lat="-21.20685" lon="55.33107">
        <ele>776.44970703125</ele>
        <time>2012-11-06T07:35:54Z</time>
      </trkpt>
      <trkpt lat="-21.20684" lon="55.33107">
        <ele>775.79541015625</ele>
        <time>2012-11-06T07:35:56Z</time>
      </trkpt>
      <trkpt lat="-21.20684" lon="55.33107">
        <ele>775.79541015625</ele>
        <time>2012-11-06T07:35:56Z</time>
      </trkpt>
      <trkpt lat="-21.20684" lon="55.33109">
        <ele>780.51458740234</ele>
        <time>2012-11-06T07:35:57Z</time>
      </trkpt>
      <trkpt lat="-21.20684" lon="55.33109">
        <ele>780.51458740234</ele>
        <time>2012-11-06T07:35:57Z</time>
      </trkpt>
      <trkpt lat="-21.20684" lon="55.3311">
        <ele>774.6962890625</ele>
        <time>2012-11-06T07:35:59Z</time>
      </trkpt>
      <trkpt lat="-21.20684" lon="55.3311">
        <ele>774.93768310547</ele>
        <time>2012-11-06T07:36:00Z</time>
      </trkpt>
      <trkpt lat="-21.20685" lon="55.33109">
        <ele>776.99029541016</ele>
        <time>2012-11-06T07:36:02Z</time>
      </trkpt>
      <trkpt lat="-21.20686" lon="55.33109">
        <ele>777.70935058594</ele>
        <time>2012-11-06T07:36:04Z</time>
      </trkpt>
      <trkpt lat="-21.20686" lon="55.3311">
        <ele>777.22546386719</ele>
        <time>2012-11-06T07:36:05Z</time>
      </trkpt>
      <trkpt lat="-21.20686" lon="55.3311">
        <ele>772.20025634766</ele>
        <time>2012-11-06T07:36:07Z</time>
      </trkpt>
      <trkpt lat="-21.20686" lon="55.3311">
        <ele>771.22302246094</ele>
        <time>2012-11-06T07:36:08Z</time>
      </trkpt>
      <trkpt lat="-21.20686" lon="55.3311">
        <ele>773.35174560547</ele>
        <time>2012-11-06T07:36:10Z</time>
      </trkpt>
      <trkpt lat="-21.20686" lon="55.3311">
        <ele>773.35174560547</ele>
        <time>2012-11-06T07:36:10Z</time>
      </trkpt>
      <trkpt lat="-21.20686" lon="55.3311">
        <ele>773.35174560547</ele>
        <time>2012-11-06T07:36:10Z</time>
      </trkpt>
      <trkpt lat="-21.20686" lon="55.33109">
        <ele>772.86608886719</ele>
        <time>2012-11-06T07:36:11Z</time>
      </trkpt>
      <trkpt lat="-21.20686" lon="55.33109">
        <ele>772.86608886719</ele>
        <time>2012-11-06T07:36:11Z</time>
      </trkpt>
      <trkpt lat="-21.20685" lon="55.33109">
        <ele>774.72680664062</ele>
        <time>2012-11-06T07:36:14Z</time>
      </trkpt>
      <trkpt lat="-21.20685" lon="55.33109">
        <ele>774.72680664062</ele>
        <time>2012-11-06T07:36:14Z</time>
      </trkpt>
      <trkpt lat="-21.20686" lon="55.33109">
        <ele>770.98211669922</ele>
        <time>2012-11-06T07:36:15Z</time>
      </trkpt>
      <trkpt lat="-21.20686" lon="55.33109">
        <ele>770.98211669922</ele>
        <time>2012-11-06T07:36:15Z</time>
      </trkpt>
      <trkpt lat="-21.20687" lon="55.3311">
        <ele>771.46832275391</ele>
        <time>2012-11-06T07:36:16Z</time>
      </trkpt>
      <trkpt lat="-21.20687" lon="55.3311">
        <ele>770.29809570312</ele>
        <time>2012-11-06T07:36:18Z</time>
      </trkpt>
      <trkpt lat="-21.20687" lon="55.3311">
        <ele>769.61004638672</ele>
        <time>2012-11-06T07:36:20Z</time>
      </trkpt>
      <trkpt lat="-21.20687" lon="55.3311">
        <ele>769.33361816406</ele>
        <time>2012-11-06T07:36:21Z</time>
      </trkpt>
      <trkpt lat="-21.20687" lon="55.3311">
        <ele>769.53747558594</ele>
        <time>2012-11-06T07:36:22Z</time>
      </trkpt>
      <trkpt lat="-21.20687" lon="55.3311">
        <ele>769.53747558594</ele>
        <time>2012-11-06T07:36:22Z</time>
      </trkpt>
      <trkpt lat="-21.20687" lon="55.3311">
        <ele>769.53747558594</ele>
        <time>2012-11-06T07:36:22Z</time>
      </trkpt>
      <trkpt lat="-21.20687" lon="55.3311">
        <ele>770.75695800781</ele>
        <time>2012-11-06T07:36:23Z</time>
      </trkpt>
      <trkpt lat="-21.20687" lon="55.3311">
        <ele>770.75695800781</ele>
        <time>2012-11-06T07:36:23Z</time>
      </trkpt>
      <trkpt lat="-21.20687" lon="55.3311">
        <ele>770.11651611328</ele>
        <time>2012-11-06T07:36:25Z</time>
      </trkpt>
      <trkpt lat="-21.20687" lon="55.3311">
        <ele>770.11651611328</ele>
        <time>2012-11-06T07:36:25Z</time>
      </trkpt>
      <trkpt lat="-21.20687" lon="55.33109">
        <ele>771.1240234375</ele>
        <time>2012-11-06T07:36:27Z</time>
      </trkpt>
      <trkpt lat="-21.20687" lon="55.33109">
        <ele>771.1240234375</ele>
        <time>2012-11-06T07:36:27Z</time>
      </trkpt>
      <trkpt lat="-21.20687" lon="55.33109">
        <ele>770.59906005859</ele>
        <time>2012-11-06T07:36:29Z</time>
      </trkpt>
      <trkpt lat="-21.20687" lon="55.33109">
        <ele>770.59906005859</ele>
        <time>2012-11-06T07:36:29Z</time>
      </trkpt>
      <trkpt lat="-21.20688" lon="55.33108">
        <ele>773.04742431641</ele>
        <time>2012-11-06T07:36:31Z</time>
      </trkpt>
      <trkpt lat="-21.20688" lon="55.33108">
        <ele>773.04742431641</ele>
        <time>2012-11-06T07:36:31Z</time>
      </trkpt>
      <trkpt lat="-21.20688" lon="55.33108">
        <ele>775.80499267578</ele>
        <time>2012-11-06T07:36:34Z</time>
      </trkpt>
      <trkpt lat="-21.20688" lon="55.33108">
        <ele>775.80499267578</ele>
        <time>2012-11-06T07:36:34Z</time>
      </trkpt>
      <trkpt lat="-21.20688" lon="55.33108">
        <ele>777.25640869141</ele>
        <time>2012-11-06T07:36:35Z</time>
      </trkpt>
      <trkpt lat="-21.20688" lon="55.33108">
        <ele>777.25640869141</ele>
        <time>2012-11-06T07:36:35Z</time>
      </trkpt>
      <trkpt lat="-21.20688" lon="55.33108">
        <ele>777.62756347656</ele>
        <time>2012-11-06T07:36:36Z</time>
      </trkpt>
      <trkpt lat="-21.20688" lon="55.33108">
        <ele>777.62756347656</ele>
        <time>2012-11-06T07:36:36Z</time>
      </trkpt>
      <trkpt lat="-21.20688" lon="55.33108">
        <ele>777.10125732422</ele>
        <time>2012-11-06T07:36:38Z</time>
      </trkpt>
      <trkpt lat="-21.20688" lon="55.33108">
        <ele>777.10125732422</ele>
        <time>2012-11-06T07:36:38Z</time>
      </trkpt>
      <trkpt lat="-21.20688" lon="55.33108">
        <ele>784.50500488281</ele>
        <time>2012-11-06T07:36:39Z</time>
      </trkpt>
      <trkpt lat="-21.20688" lon="55.33108">
        <ele>784.50500488281</ele>
        <time>2012-11-06T07:36:39Z</time>
      </trkpt>
      <trkpt lat="-21.20687" lon="55.33107">
        <ele>781.61706542969</ele>
        <time>2012-11-06T07:36:40Z</time>
      </trkpt>
      <trkpt lat="-21.20687" lon="55.33107">
        <ele>781.61706542969</ele>
        <time>2012-11-06T07:36:40Z</time>
      </trkpt>
      <trkpt lat="-21.20687" lon="55.33107">
        <ele>778.26702880859</ele>
        <time>2012-11-06T07:36:42Z</time>
      </trkpt>
      <trkpt lat="-21.20687" lon="55.33107">
        <ele>778.26702880859</ele>
        <time>2012-11-06T07:36:42Z</time>
      </trkpt>
      <trkpt lat="-21.20686" lon="55.33107">
        <ele>772.92150878906</ele>
        <time>2012-11-06T07:36:44Z</time>
      </trkpt>
      <trkpt lat="-21.20686" lon="55.33107">
        <ele>772.92150878906</ele>
        <time>2012-11-06T07:36:44Z</time>
      </trkpt>
      <trkpt lat="-21.20685" lon="55.33109">
        <ele>770.84143066406</ele>
        <time>2012-11-06T07:36:45Z</time>
      </trkpt>
      <trkpt lat="-21.20684" lon="55.33109">
        <ele>773.04815673828</ele>
        <time>2012-11-06T07:36:46Z</time>
      </trkpt>
      <trkpt lat="-21.20683" lon="55.33109">
        <ele>775.32110595703</ele>
        <time>2012-11-06T07:36:48Z</time>
      </trkpt>
      <trkpt lat="-21.20683" lon="55.33109">
        <ele>772.69799804688</ele>
        <time>2012-11-06T07:36:49Z</time>
      </trkpt>
      <trkpt lat="-21.20683" lon="55.33109">
        <ele>772.21710205078</ele>
        <time>2012-11-06T07:36:50Z</time>
      </trkpt>
      <trkpt lat="-21.20683" lon="55.33109">
        <ele>772.09582519531</ele>
        <time>2012-11-06T07:36:52Z</time>
      </trkpt>
      <trkpt lat="-21.20683" lon="55.33109">
        <ele>771.02087402344</ele>
        <time>2012-11-06T07:36:53Z</time>
      </trkpt>
      <trkpt lat="-21.20683" lon="55.33109">
        <ele>771.02087402344</ele>
        <time>2012-11-06T07:36:53Z</time>
      </trkpt>
      <trkpt lat="-21.20683" lon="55.33109">
        <ele>771.02087402344</ele>
        <time>2012-11-06T07:36:53Z</time>
      </trkpt>
      <trkpt lat="-21.20683" lon="55.33109">
        <ele>769.83435058594</ele>
        <time>2012-11-06T07:36:54Z</time>
      </trkpt>
      <trkpt lat="-21.20683" lon="55.33109">
        <ele>769.83435058594</ele>
        <time>2012-11-06T07:36:54Z</time>
      </trkpt>
      <trkpt lat="-21.20683" lon="55.33109">
        <ele>768.50396728516</ele>
        <time>2012-11-06T07:36:56Z</time>
      </trkpt>
      <trkpt lat="-21.20683" lon="55.33109">
        <ele>768.50396728516</ele>
        <time>2012-11-06T07:36:56Z</time>
      </trkpt>
      <trkpt lat="-21.20683" lon="55.33109">
        <ele>768.99194335938</ele>
        <time>2012-11-06T07:36:57Z</time>
      </trkpt>
      <trkpt lat="-21.20683" lon="55.33109">
        <ele>768.99194335938</ele>
        <time>2012-11-06T07:36:57Z</time>
      </trkpt>
      <trkpt lat="-21.20683" lon="55.33109">
        <ele>767.89202880859</ele>
        <time>2012-11-06T07:36:59Z</time>
      </trkpt>
      <trkpt lat="-21.20683" lon="55.33109">
        <ele>767.89202880859</ele>
        <time>2012-11-06T07:36:59Z</time>
      </trkpt>
      <trkpt lat="-21.20683" lon="55.33109">
        <ele>768.51116943359</ele>
        <time>2012-11-06T07:37:01Z</time>
      </trkpt>
      <trkpt lat="-21.20683" lon="55.33109">
        <ele>768.51116943359</ele>
        <time>2012-11-06T07:37:01Z</time>
      </trkpt>
      <trkpt lat="-21.20683" lon="55.33109">
        <ele>773.08758544922</ele>
        <time>2012-11-06T07:37:02Z</time>
      </trkpt>
      <trkpt lat="-21.20683" lon="55.33109">
        <ele>773.08758544922</ele>
        <time>2012-11-06T07:37:02Z</time>
      </trkpt>
      <trkpt lat="-21.20683" lon="55.33109">
        <ele>773.70989990234</ele>
        <time>2012-11-06T07:37:04Z</time>
      </trkpt>
      <trkpt lat="-21.20683" lon="55.33109">
        <ele>773.70989990234</ele>
        <time>2012-11-06T07:37:04Z</time>
      </trkpt>
      <trkpt lat="-21.20684" lon="55.33109">
        <ele>771.19250488281</ele>
        <time>2012-11-06T07:37:05Z</time>
      </trkpt>
      <trkpt lat="-21.20684" lon="55.33109">
        <ele>771.19250488281</ele>
        <time>2012-11-06T07:37:05Z</time>
      </trkpt>
      <trkpt lat="-21.20684" lon="55.33109">
        <ele>775.11584472656</ele>
        <time>2012-11-06T07:37:07Z</time>
      </trkpt>
      <trkpt lat="-21.20684" lon="55.33109">
        <ele>775.11584472656</ele>
        <time>2012-11-06T07:37:07Z</time>
      </trkpt>
      <trkpt lat="-21.20684" lon="55.33109">
        <ele>767.82818603516</ele>
        <time>2012-11-06T07:37:08Z</time>
      </trkpt>
      <trkpt lat="-21.20684" lon="55.33109">
        <ele>767.82818603516</ele>
        <time>2012-11-06T07:37:08Z</time>
      </trkpt>
      <trkpt lat="-21.20684" lon="55.33109">
        <ele>757.77935791016</ele>
        <time>2012-11-06T07:37:11Z</time>
      </trkpt>
      <trkpt lat="-21.20684" lon="55.33109">
        <ele>757.77935791016</ele>
        <time>2012-11-06T07:37:11Z</time>
      </trkpt>
      <trkpt lat="-21.20684" lon="55.33108">
        <ele>758.48193359375</ele>
        <time>2012-11-06T07:37:12Z</time>
      </trkpt>
      <trkpt lat="-21.20684" lon="55.33108">
        <ele>758.48193359375</ele>
        <time>2012-11-06T07:37:12Z</time>
      </trkpt>
      <trkpt lat="-21.20684" lon="55.33109">
        <ele>763.40985107422</ele>
        <time>2012-11-06T07:37:14Z</time>
      </trkpt>
      <trkpt lat="-21.20684" lon="55.33109">
        <ele>763.40985107422</ele>
        <time>2012-11-06T07:37:14Z</time>
      </trkpt>
      <trkpt lat="-21.20684" lon="55.33109">
        <ele>763.53375244141</ele>
        <time>2012-11-06T07:37:16Z</time>
      </trkpt>
      <trkpt lat="-21.20684" lon="55.33109">
        <ele>763.53375244141</ele>
        <time>2012-11-06T07:37:16Z</time>
      </trkpt>
      <trkpt lat="-21.20684" lon="55.33109">
        <ele>770.20025634766</ele>
        <time>2012-11-06T07:37:18Z</time>
      </trkpt>
      <trkpt lat="-21.20684" lon="55.33109">
        <ele>770.20025634766</ele>
        <time>2012-11-06T07:37:18Z</time>
      </trkpt>
      <trkpt lat="-21.20684" lon="55.33109">
        <ele>772.79217529297</ele>
        <time>2012-11-06T07:37:20Z</time>
      </trkpt>
      <trkpt lat="-21.20684" lon="55.33109">
        <ele>772.79217529297</ele>
        <time>2012-11-06T07:37:20Z</time>
      </trkpt>
      <trkpt lat="-21.20683" lon="55.33108">
        <ele>773.12701416016</ele>
        <time>2012-11-06T07:37:21Z</time>
      </trkpt>
      <trkpt lat="-21.20683" lon="55.33108">
        <ele>773.12701416016</ele>
        <time>2012-11-06T07:37:21Z</time>
      </trkpt>
      <trkpt lat="-21.20683" lon="55.33108">
        <ele>773.2919921875</ele>
        <time>2012-11-06T07:37:22Z</time>
      </trkpt>
      <trkpt lat="-21.20683" lon="55.33108">
        <ele>773.2919921875</ele>
        <time>2012-11-06T07:37:22Z</time>
      </trkpt>
      <trkpt lat="-21.20683" lon="55.33108">
        <ele>772.68719482422</ele>
        <time>2012-11-06T07:37:23Z</time>
      </trkpt>
      <trkpt lat="-21.20683" lon="55.33108">
        <ele>772.68719482422</ele>
        <time>2012-11-06T07:37:23Z</time>
      </trkpt>
      <trkpt lat="-21.20683" lon="55.33108">
        <ele>772.09844970703</ele>
        <time>2012-11-06T07:37:25Z</time>
      </trkpt>
      <trkpt lat="-21.20683" lon="55.33108">
        <ele>772.09844970703</ele>
        <time>2012-11-06T07:37:25Z</time>
      </trkpt>
      <trkpt lat="-21.20683" lon="55.33108">
        <ele>769.59027099609</ele>
        <time>2012-11-06T07:37:27Z</time>
      </trkpt>
      <trkpt lat="-21.20683" lon="55.33108">
        <ele>769.59027099609</ele>
        <time>2012-11-06T07:37:27Z</time>
      </trkpt>
      <trkpt lat="-21.20683" lon="55.33108">
        <ele>772.29614257812</ele>
        <time>2012-11-06T07:37:29Z</time>
      </trkpt>
      <trkpt lat="-21.20683" lon="55.33108">
        <ele>772.29614257812</ele>
        <time>2012-11-06T07:37:29Z</time>
      </trkpt>
      <trkpt lat="-21.20683" lon="55.33108">
        <ele>771.7587890625</ele>
        <time>2012-11-06T07:37:30Z</time>
      </trkpt>
      <trkpt lat="-21.20683" lon="55.33108">
        <ele>771.7587890625</ele>
        <time>2012-11-06T07:37:30Z</time>
      </trkpt>
      <trkpt lat="-21.20682" lon="55.33108">
        <ele>769.97058105469</ele>
        <time>2012-11-06T07:37:32Z</time>
      </trkpt>
      <trkpt lat="-21.20682" lon="55.33108">
        <ele>769.97058105469</ele>
        <time>2012-11-06T07:37:32Z</time>
      </trkpt>
      <trkpt lat="-21.20681" lon="55.33108">
        <ele>767.95837402344</ele>
        <time>2012-11-06T07:37:33Z</time>
      </trkpt>
      <trkpt lat="-21.20681" lon="55.33108">
        <ele>767.95837402344</ele>
        <time>2012-11-06T07:37:33Z</time>
      </trkpt>
      <trkpt lat="-21.20681" lon="55.33108">
        <ele>767.43402099609</ele>
        <time>2012-11-06T07:37:36Z</time>
      </trkpt>
      <trkpt lat="-21.20681" lon="55.33108">
        <ele>771.30609130859</ele>
        <time>2012-11-06T07:37:37Z</time>
      </trkpt>
      <trkpt lat="-21.2068" lon="55.33108">
        <ele>771.51251220703</ele>
        <time>2012-11-06T07:37:38Z</time>
      </trkpt>
      <trkpt lat="-21.2068" lon="55.33108">
        <ele>770.34228515625</ele>
        <time>2012-11-06T07:37:40Z</time>
      </trkpt>
      <trkpt lat="-21.2068" lon="55.33108">
        <ele>770.34228515625</ele>
        <time>2012-11-06T07:37:40Z</time>
      </trkpt>
      <trkpt lat="-21.2068" lon="55.33108">
        <ele>770.34228515625</ele>
        <time>2012-11-06T07:37:40Z</time>
      </trkpt>
      <trkpt lat="-21.20679" lon="55.33109">
        <ele>770.24957275391</ele>
        <time>2012-11-06T07:37:41Z</time>
      </trkpt>
      <trkpt lat="-21.20679" lon="55.33109">
        <ele>770.24957275391</ele>
        <time>2012-11-06T07:37:41Z</time>
      </trkpt>
      <trkpt lat="-21.20679" lon="55.33109">
        <ele>773.90356445312</ele>
        <time>2012-11-06T07:37:43Z</time>
      </trkpt>
      <trkpt lat="-21.20679" lon="55.33109">
        <ele>777.48236083984</ele>
        <time>2012-11-06T07:37:45Z</time>
      </trkpt>
      <trkpt lat="-21.20679" lon="55.33109">
        <ele>778.71282958984</ele>
        <time>2012-11-06T07:37:47Z</time>
      </trkpt>
      <trkpt lat="-21.2068" lon="55.33109">
        <ele>779.87060546875</ele>
        <time>2012-11-06T07:37:48Z</time>
      </trkpt>
      <trkpt lat="-21.2068" lon="55.3311">
        <ele>780.19592285156</ele>
        <time>2012-11-06T07:37:50Z</time>
      </trkpt>
      <trkpt lat="-21.2068" lon="55.3311">
        <ele>780.19592285156</ele>
        <time>2012-11-06T07:37:50Z</time>
      </trkpt>
      <trkpt lat="-21.2068" lon="55.3311">
        <ele>780.19592285156</ele>
        <time>2012-11-06T07:37:50Z</time>
      </trkpt>
      <trkpt lat="-21.2068" lon="55.3311">
        <ele>779.92626953125</ele>
        <time>2012-11-06T07:37:52Z</time>
      </trkpt>
      <trkpt lat="-21.2068" lon="55.3311">
        <ele>779.92626953125</ele>
        <time>2012-11-06T07:37:52Z</time>
      </trkpt>
      <trkpt lat="-21.2068" lon="55.3311">
        <ele>777.59631347656</ele>
        <time>2012-11-06T07:37:54Z</time>
      </trkpt>
      <trkpt lat="-21.2068" lon="55.3311">
        <ele>777.59631347656</ele>
        <time>2012-11-06T07:37:54Z</time>
      </trkpt>
      <trkpt lat="-21.20681" lon="55.33109">
        <ele>775.45965576172</ele>
        <time>2012-11-06T07:37:55Z</time>
      </trkpt>
      <trkpt lat="-21.20681" lon="55.33109">
        <ele>775.45965576172</ele>
        <time>2012-11-06T07:37:55Z</time>
      </trkpt>
      <trkpt lat="-21.20682" lon="55.33108">
        <ele>777.31872558594</ele>
        <time>2012-11-06T07:37:57Z</time>
      </trkpt>
      <trkpt lat="-21.20682" lon="55.33108">
        <ele>773.98791503906</ele>
        <time>2012-11-06T07:37:59Z</time>
      </trkpt>
      <trkpt lat="-21.20682" lon="55.33108">
        <ele>775.69860839844</ele>
        <time>2012-11-06T07:38:00Z</time>
      </trkpt>
      <trkpt lat="-21.20683" lon="55.33108">
        <ele>775.94799804688</ele>
        <time>2012-11-06T07:38:02Z</time>
      </trkpt>
      <trkpt lat="-21.20683" lon="55.33108">
        <ele>776.07794189453</ele>
        <time>2012-11-06T07:38:03Z</time>
      </trkpt>
      <trkpt lat="-21.20682" lon="55.33107">
        <ele>773.08245849609</ele>
        <time>2012-11-06T07:38:05Z</time>
      </trkpt>
      <trkpt lat="-21.20682" lon="55.33107">
        <ele>774.06896972656</ele>
        <time>2012-11-06T07:38:06Z</time>
      </trkpt>
      <trkpt lat="-21.20682" lon="55.33107">
        <ele>774.05541992188</ele>
        <time>2012-11-06T07:38:08Z</time>
      </trkpt>
      <trkpt lat="-21.20682" lon="55.33106">
        <ele>773.79028320312</ele>
        <time>2012-11-06T07:38:09Z</time>
      </trkpt>
      <trkpt lat="-21.20683" lon="55.33106">
        <ele>769.76849365234</ele>
        <time>2012-11-06T07:38:10Z</time>
      </trkpt>
      <trkpt lat="-21.20683" lon="55.33106">
        <ele>769.38470458984</ele>
        <time>2012-11-06T07:38:12Z</time>
      </trkpt>
      <trkpt lat="-21.20683" lon="55.33106">
        <ele>769.38470458984</ele>
        <time>2012-11-06T07:38:12Z</time>
      </trkpt>
      <trkpt lat="-21.20683" lon="55.33106">
        <ele>769.38470458984</ele>
        <time>2012-11-06T07:38:12Z</time>
      </trkpt>
      <trkpt lat="-21.20683" lon="55.33106">
        <ele>762.58166503906</ele>
        <time>2012-11-06T07:38:14Z</time>
      </trkpt>
      <trkpt lat="-21.20683" lon="55.33106">
        <ele>762.58166503906</ele>
        <time>2012-11-06T07:38:14Z</time>
      </trkpt>
      <trkpt lat="-21.20683" lon="55.33106">
        <ele>760.95855712891</ele>
        <time>2012-11-06T07:38:16Z</time>
      </trkpt>
      <trkpt lat="-21.20683" lon="55.33106">
        <ele>760.95855712891</ele>
        <time>2012-11-06T07:38:16Z</time>
      </trkpt>
      <trkpt lat="-21.20683" lon="55.33106">
        <ele>764.42437744141</ele>
        <time>2012-11-06T07:38:17Z</time>
      </trkpt>
      <trkpt lat="-21.20683" lon="55.33106">
        <ele>764.42437744141</ele>
        <time>2012-11-06T07:38:17Z</time>
      </trkpt>
      <trkpt lat="-21.20683" lon="55.33106">
        <ele>769.81140136719</ele>
        <time>2012-11-06T07:38:19Z</time>
      </trkpt>
      <trkpt lat="-21.20683" lon="55.33106">
        <ele>769.81140136719</ele>
        <time>2012-11-06T07:38:19Z</time>
      </trkpt>
      <trkpt lat="-21.20683" lon="55.33106">
        <ele>770.79425048828</ele>
        <time>2012-11-06T07:38:20Z</time>
      </trkpt>
      <trkpt lat="-21.20683" lon="55.33106">
        <ele>770.79425048828</ele>
        <time>2012-11-06T07:38:20Z</time>
      </trkpt>
      <trkpt lat="-21.20683" lon="55.33106">
        <ele>768.70111083984</ele>
        <time>2012-11-06T07:38:22Z</time>
      </trkpt>
      <trkpt lat="-21.20683" lon="55.33106">
        <ele>768.70111083984</ele>
        <time>2012-11-06T07:38:22Z</time>
      </trkpt>
      <trkpt lat="-21.20683" lon="55.33106">
        <ele>767.6669921875</ele>
        <time>2012-11-06T07:38:23Z</time>
      </trkpt>
      <trkpt lat="-21.20683" lon="55.33106">
        <ele>767.6669921875</ele>
        <time>2012-11-06T07:38:23Z</time>
      </trkpt>
      <trkpt lat="-21.20683" lon="55.33106">
        <ele>769.03857421875</ele>
        <time>2012-11-06T07:38:24Z</time>
      </trkpt>
      <trkpt lat="-21.20683" lon="55.33106">
        <ele>769.03857421875</ele>
        <time>2012-11-06T07:38:24Z</time>
      </trkpt>
      <trkpt lat="-21.20683" lon="55.33106">
        <ele>770.71429443359</ele>
        <time>2012-11-06T07:38:25Z</time>
      </trkpt>
      <trkpt lat="-21.20683" lon="55.33106">
        <ele>770.71429443359</ele>
        <time>2012-11-06T07:38:25Z</time>
      </trkpt>
      <trkpt lat="-21.20683" lon="55.33106">
        <ele>772.35540771484</ele>
        <time>2012-11-06T07:38:27Z</time>
      </trkpt>
      <trkpt lat="-21.20683" lon="55.33106">
        <ele>772.35540771484</ele>
        <time>2012-11-06T07:38:27Z</time>
      </trkpt>
      <trkpt lat="-21.20683" lon="55.33106">
        <ele>772.0966796875</ele>
        <time>2012-11-06T07:38:29Z</time>
      </trkpt>
      <trkpt lat="-21.20683" lon="55.33106">
        <ele>772.0966796875</ele>
        <time>2012-11-06T07:38:29Z</time>
      </trkpt>
      <trkpt lat="-21.20683" lon="55.33106">
        <ele>768.52905273438</ele>
        <time>2012-11-06T07:38:31Z</time>
      </trkpt>
      <trkpt lat="-21.20683" lon="55.33106">
        <ele>768.52905273438</ele>
        <time>2012-11-06T07:38:31Z</time>
      </trkpt>
      <trkpt lat="-21.20683" lon="55.33106">
        <ele>770.13317871094</ele>
        <time>2012-11-06T07:38:33Z</time>
      </trkpt>
      <trkpt lat="-21.20683" lon="55.33106">
        <ele>770.13317871094</ele>
        <time>2012-11-06T07:38:33Z</time>
      </trkpt>
      <trkpt lat="-21.20683" lon="55.33106">
        <ele>772.22235107422</ele>
        <time>2012-11-06T07:38:34Z</time>
      </trkpt>
      <trkpt lat="-21.20683" lon="55.33106">
        <ele>772.22235107422</ele>
        <time>2012-11-06T07:38:34Z</time>
      </trkpt>
      <trkpt lat="-21.20683" lon="55.33106">
        <ele>774.53173828125</ele>
        <time>2012-11-06T07:38:36Z</time>
      </trkpt>
      <trkpt lat="-21.20683" lon="55.33106">
        <ele>774.53173828125</ele>
        <time>2012-11-06T07:38:36Z</time>
      </trkpt>
      <trkpt lat="-21.20683" lon="55.33106">
        <ele>773.85559082031</ele>
        <time>2012-11-06T07:38:37Z</time>
      </trkpt>
      <trkpt lat="-21.20683" lon="55.33106">
        <ele>773.85559082031</ele>
        <time>2012-11-06T07:38:37Z</time>
      </trkpt>
      <trkpt lat="-21.20683" lon="55.33106">
        <ele>773.78741455078</ele>
        <time>2012-11-06T07:38:38Z</time>
      </trkpt>
      <trkpt lat="-21.20683" lon="55.33106">
        <ele>773.78741455078</ele>
        <time>2012-11-06T07:38:38Z</time>
      </trkpt>
      <trkpt lat="-21.20683" lon="55.33106">
        <ele>774.75909423828</ele>
        <time>2012-11-06T07:38:39Z</time>
      </trkpt>
      <trkpt lat="-21.20683" lon="55.33106">
        <ele>774.75909423828</ele>
        <time>2012-11-06T07:38:39Z</time>
      </trkpt>
      <trkpt lat="-21.20683" lon="55.33106">
        <ele>774.14593505859</ele>
        <time>2012-11-06T07:38:41Z</time>
      </trkpt>
      <trkpt lat="-21.20683" lon="55.33106">
        <ele>774.14593505859</ele>
        <time>2012-11-06T07:38:41Z</time>
      </trkpt>
      <trkpt lat="-21.20683" lon="55.33106">
        <ele>775.82647705078</ele>
        <time>2012-11-06T07:38:42Z</time>
      </trkpt>
      <trkpt lat="-21.20683" lon="55.33106">
        <ele>775.82647705078</ele>
        <time>2012-11-06T07:38:42Z</time>
      </trkpt>
      <trkpt lat="-21.20683" lon="55.33106">
        <ele>776.37738037109</ele>
        <time>2012-11-06T07:38:44Z</time>
      </trkpt>
      <trkpt lat="-21.20683" lon="55.33106">
        <ele>776.37738037109</ele>
        <time>2012-11-06T07:38:44Z</time>
      </trkpt>
      <trkpt lat="-21.20683" lon="55.33106">
        <ele>772.52807617188</ele>
        <time>2012-11-06T07:38:46Z</time>
      </trkpt>
      <trkpt lat="-21.20683" lon="55.33106">
        <ele>772.52807617188</ele>
        <time>2012-11-06T07:38:46Z</time>
      </trkpt>
      <trkpt lat="-21.20683" lon="55.33106">
        <ele>770.08734130859</ele>
        <time>2012-11-06T07:38:48Z</time>
      </trkpt>
      <trkpt lat="-21.20683" lon="55.33106">
        <ele>770.08734130859</ele>
        <time>2012-11-06T07:38:48Z</time>
      </trkpt>
      <trkpt lat="-21.20683" lon="55.33106">
        <ele>766.46453857422</ele>
        <time>2012-11-06T07:38:51Z</time>
      </trkpt>
      <trkpt lat="-21.20683" lon="55.33106">
        <ele>766.46453857422</ele>
        <time>2012-11-06T07:38:51Z</time>
      </trkpt>
      <trkpt lat="-21.20683" lon="55.33106">
        <ele>762.62713623047</ele>
        <time>2012-11-06T07:38:52Z</time>
      </trkpt>
      <trkpt lat="-21.20683" lon="55.33106">
        <ele>762.62713623047</ele>
        <time>2012-11-06T07:38:52Z</time>
      </trkpt>
      <trkpt lat="-21.20683" lon="55.33106">
        <ele>761.89801025391</ele>
        <time>2012-11-06T07:38:54Z</time>
      </trkpt>
      <trkpt lat="-21.20683" lon="55.33106">
        <ele>761.89801025391</ele>
        <time>2012-11-06T07:38:54Z</time>
      </trkpt>
      <trkpt lat="-21.20683" lon="55.33106">
        <ele>761.46417236328</ele>
        <time>2012-11-06T07:38:55Z</time>
      </trkpt>
      <trkpt lat="-21.20683" lon="55.33106">
        <ele>761.46417236328</ele>
        <time>2012-11-06T07:38:55Z</time>
      </trkpt>
      <trkpt lat="-21.20683" lon="55.33106">
        <ele>758.20196533203</ele>
        <time>2012-11-06T07:38:58Z</time>
      </trkpt>
      <trkpt lat="-21.20683" lon="55.33106">
        <ele>758.20196533203</ele>
        <time>2012-11-06T07:38:58Z</time>
      </trkpt>
      <trkpt lat="-21.20683" lon="55.33106">
        <ele>758.33148193359</ele>
        <time>2012-11-06T07:38:59Z</time>
      </trkpt>
      <trkpt lat="-21.20683" lon="55.33106">
        <ele>758.33148193359</ele>
        <time>2012-11-06T07:38:59Z</time>
      </trkpt>
      <trkpt lat="-21.20683" lon="55.33106">
        <ele>758.49627685547</ele>
        <time>2012-11-06T07:39:00Z</time>
      </trkpt>
      <trkpt lat="-21.20683" lon="55.33106">
        <ele>758.49627685547</ele>
        <time>2012-11-06T07:39:00Z</time>
      </trkpt>
      <trkpt lat="-21.20683" lon="55.33106">
        <ele>759.07836914062</ele>
        <time>2012-11-06T07:39:02Z</time>
      </trkpt>
      <trkpt lat="-21.20683" lon="55.33106">
        <ele>759.07836914062</ele>
        <time>2012-11-06T07:39:02Z</time>
      </trkpt>
      <trkpt lat="-21.20683" lon="55.33106">
        <ele>764.75030517578</ele>
        <time>2012-11-06T07:39:05Z</time>
      </trkpt>
      <trkpt lat="-21.20683" lon="55.33106">
        <ele>764.75030517578</ele>
        <time>2012-11-06T07:39:05Z</time>
      </trkpt>
      <trkpt lat="-21.20683" lon="55.33106">
        <ele>762.44903564453</ele>
        <time>2012-11-06T07:39:07Z</time>
      </trkpt>
      <trkpt lat="-21.20683" lon="55.33106">
        <ele>762.44903564453</ele>
        <time>2012-11-06T07:39:07Z</time>
      </trkpt>
      <trkpt lat="-21.20683" lon="55.33106">
        <ele>763.25384521484</ele>
        <time>2012-11-06T07:39:09Z</time>
      </trkpt>
      <trkpt lat="-21.20683" lon="55.33106">
        <ele>763.25384521484</ele>
        <time>2012-11-06T07:39:09Z</time>
      </trkpt>
      <trkpt lat="-21.20683" lon="55.33106">
        <ele>762.57653808594</ele>
        <time>2012-11-06T07:39:10Z</time>
      </trkpt>
      <trkpt lat="-21.20683" lon="55.33106">
        <ele>762.57653808594</ele>
        <time>2012-11-06T07:39:10Z</time>
      </trkpt>
      <trkpt lat="-21.20683" lon="55.33106">
        <ele>761.76678466797</ele>
        <time>2012-11-06T07:39:12Z</time>
      </trkpt>
      <trkpt lat="-21.20683" lon="55.33106">
        <ele>761.76678466797</ele>
        <time>2012-11-06T07:39:12Z</time>
      </trkpt>
      <trkpt lat="-21.20683" lon="55.33106">
        <ele>769.40118408203</ele>
        <time>2012-11-06T07:39:14Z</time>
      </trkpt>
      <trkpt lat="-21.20683" lon="55.33106">
        <ele>769.40118408203</ele>
        <time>2012-11-06T07:39:14Z</time>
      </trkpt>
      <trkpt lat="-21.20683" lon="55.33106">
        <ele>771.78234863281</ele>
        <time>2012-11-06T07:39:15Z</time>
      </trkpt>
      <trkpt lat="-21.20683" lon="55.33106">
        <ele>771.78234863281</ele>
        <time>2012-11-06T07:39:15Z</time>
      </trkpt>
      <trkpt lat="-21.20683" lon="55.33106">
        <ele>774.38891601562</ele>
        <time>2012-11-06T07:39:16Z</time>
      </trkpt>
      <trkpt lat="-21.20683" lon="55.33106">
        <ele>774.38891601562</ele>
        <time>2012-11-06T07:39:16Z</time>
      </trkpt>
      <trkpt lat="-21.20683" lon="55.33105">
        <ele>774.86907958984</ele>
        <time>2012-11-06T07:39:18Z</time>
      </trkpt>
      <trkpt lat="-21.20683" lon="55.33105">
        <ele>774.86907958984</ele>
        <time>2012-11-06T07:39:18Z</time>
      </trkpt>
      <trkpt lat="-21.20682" lon="55.33105">
        <ele>773.92547607422</ele>
        <time>2012-11-06T07:39:19Z</time>
      </trkpt>
      <trkpt lat="-21.20682" lon="55.33105">
        <ele>773.92547607422</ele>
        <time>2012-11-06T07:39:19Z</time>
      </trkpt>
      <trkpt lat="-21.20682" lon="55.33105">
        <ele>774.34436035156</ele>
        <time>2012-11-06T07:39:21Z</time>
      </trkpt>
      <trkpt lat="-21.20682" lon="55.33105">
        <ele>774.34436035156</ele>
        <time>2012-11-06T07:39:21Z</time>
      </trkpt>
      <trkpt lat="-21.20682" lon="55.33105">
        <ele>775.49609375</ele>
        <time>2012-11-06T07:39:23Z</time>
      </trkpt>
      <trkpt lat="-21.20682" lon="55.33105">
        <ele>775.49609375</ele>
        <time>2012-11-06T07:39:23Z</time>
      </trkpt>
      <trkpt lat="-21.20682" lon="55.33105">
        <ele>773.16223144531</ele>
        <time>2012-11-06T07:39:24Z</time>
      </trkpt>
      <trkpt lat="-21.20682" lon="55.33105">
        <ele>773.16223144531</ele>
        <time>2012-11-06T07:39:24Z</time>
      </trkpt>
      <trkpt lat="-21.20682" lon="55.33105">
        <ele>772.12249755859</ele>
        <time>2012-11-06T07:39:26Z</time>
      </trkpt>
      <trkpt lat="-21.20682" lon="55.33105">
        <ele>772.12249755859</ele>
        <time>2012-11-06T07:39:26Z</time>
      </trkpt>
      <trkpt lat="-21.20682" lon="55.33105">
        <ele>771.53784179688</ele>
        <time>2012-11-06T07:39:28Z</time>
      </trkpt>
      <trkpt lat="-21.20682" lon="55.33105">
        <ele>771.53784179688</ele>
        <time>2012-11-06T07:39:28Z</time>
      </trkpt>
      <trkpt lat="-21.20682" lon="55.33105">
        <ele>769.62603759766</ele>
        <time>2012-11-06T07:39:30Z</time>
      </trkpt>
      <trkpt lat="-21.20682" lon="55.33105">
        <ele>769.62603759766</ele>
        <time>2012-11-06T07:39:30Z</time>
      </trkpt>
      <trkpt lat="-21.20682" lon="55.33105">
        <ele>769.91967773438</ele>
        <time>2012-11-06T07:39:31Z</time>
      </trkpt>
      <trkpt lat="-21.20682" lon="55.33105">
        <ele>769.91967773438</ele>
        <time>2012-11-06T07:39:31Z</time>
      </trkpt>
      <trkpt lat="-21.20682" lon="55.33105">
        <ele>772.72064208984</ele>
        <time>2012-11-06T07:39:33Z</time>
      </trkpt>
      <trkpt lat="-21.20682" lon="55.33105">
        <ele>772.72064208984</ele>
        <time>2012-11-06T07:39:33Z</time>
      </trkpt>
      <trkpt lat="-21.20682" lon="55.33105">
        <ele>771.15313720703</ele>
        <time>2012-11-06T07:39:34Z</time>
      </trkpt>
      <trkpt lat="-21.20682" lon="55.33105">
        <ele>771.15313720703</ele>
        <time>2012-11-06T07:39:34Z</time>
      </trkpt>
      <trkpt lat="-21.20682" lon="55.33105">
        <ele>771.02935791016</ele>
        <time>2012-11-06T07:39:36Z</time>
      </trkpt>
      <trkpt lat="-21.20682" lon="55.33105">
        <ele>771.02935791016</ele>
        <time>2012-11-06T07:39:36Z</time>
      </trkpt>
      <trkpt lat="-21.20682" lon="55.33105">
        <ele>769.99523925781</ele>
        <time>2012-11-06T07:39:37Z</time>
      </trkpt>
      <trkpt lat="-21.20682" lon="55.33105">
        <ele>769.99523925781</ele>
        <time>2012-11-06T07:39:37Z</time>
      </trkpt>
      <trkpt lat="-21.20682" lon="55.33105">
        <ele>765.94464111328</ele>
        <time>2012-11-06T07:39:38Z</time>
      </trkpt>
      <trkpt lat="-21.20682" lon="55.33105">
        <ele>765.94464111328</ele>
        <time>2012-11-06T07:39:38Z</time>
      </trkpt>
      <trkpt lat="-21.20682" lon="55.33105">
        <ele>763.39263916016</ele>
        <time>2012-11-06T07:39:40Z</time>
      </trkpt>
      <trkpt lat="-21.20682" lon="55.33105">
        <ele>763.39263916016</ele>
        <time>2012-11-06T07:39:40Z</time>
      </trkpt>
      <trkpt lat="-21.20682" lon="55.33105">
        <ele>764.00390625</ele>
        <time>2012-11-06T07:39:41Z</time>
      </trkpt>
      <trkpt lat="-21.20682" lon="55.33105">
        <ele>764.00390625</ele>
        <time>2012-11-06T07:39:41Z</time>
      </trkpt>
      <trkpt lat="-21.20682" lon="55.33105">
        <ele>771.84136962891</ele>
        <time>2012-11-06T07:39:43Z</time>
      </trkpt>
      <trkpt lat="-21.20682" lon="55.33105">
        <ele>771.84136962891</ele>
        <time>2012-11-06T07:39:43Z</time>
      </trkpt>
      <trkpt lat="-21.20682" lon="55.33105">
        <ele>772.19683837891</ele>
        <time>2012-11-06T07:39:44Z</time>
      </trkpt>
      <trkpt lat="-21.20682" lon="55.33105">
        <ele>772.19683837891</ele>
        <time>2012-11-06T07:39:44Z</time>
      </trkpt>
      <trkpt lat="-21.20682" lon="55.33105">
        <ele>768.77160644531</ele>
        <time>2012-11-06T07:39:45Z</time>
      </trkpt>
      <trkpt lat="-21.20682" lon="55.33105">
        <ele>768.77160644531</ele>
        <time>2012-11-06T07:39:45Z</time>
      </trkpt>
      <trkpt lat="-21.20682" lon="55.33105">
        <ele>773.43383789062</ele>
        <time>2012-11-06T07:39:47Z</time>
      </trkpt>
      <trkpt lat="-21.20682" lon="55.33105">
        <ele>773.43383789062</ele>
        <time>2012-11-06T07:39:47Z</time>
      </trkpt>
      <trkpt lat="-21.20682" lon="55.33105">
        <ele>781.45104980469</ele>
        <time>2012-11-06T07:39:48Z</time>
      </trkpt>
      <trkpt lat="-21.20682" lon="55.33105">
        <ele>781.45104980469</ele>
        <time>2012-11-06T07:39:48Z</time>
      </trkpt>
      <trkpt lat="-21.20682" lon="55.33105">
        <ele>780.12072753906</ele>
        <time>2012-11-06T07:39:49Z</time>
      </trkpt>
      <trkpt lat="-21.20682" lon="55.33105">
        <ele>780.12072753906</ele>
        <time>2012-11-06T07:39:49Z</time>
      </trkpt>
      <trkpt lat="-21.20682" lon="55.33105">
        <ele>780.83569335938</ele>
        <time>2012-11-06T07:39:51Z</time>
      </trkpt>
      <trkpt lat="-21.20682" lon="55.33105">
        <ele>780.83569335938</ele>
        <time>2012-11-06T07:39:51Z</time>
      </trkpt>
      <trkpt lat="-21.20682" lon="55.33105">
        <ele>781.31365966797</ele>
        <time>2012-11-06T07:39:52Z</time>
      </trkpt>
      <trkpt lat="-21.20682" lon="55.33105">
        <ele>781.31365966797</ele>
        <time>2012-11-06T07:39:52Z</time>
      </trkpt>
      <trkpt lat="-21.20682" lon="55.33105">
        <ele>782.64538574219</ele>
        <time>2012-11-06T07:39:54Z</time>
      </trkpt>
      <trkpt lat="-21.20682" lon="55.33105">
        <ele>782.64538574219</ele>
        <time>2012-11-06T07:39:54Z</time>
      </trkpt>
      <trkpt lat="-21.20682" lon="55.33105">
        <ele>782.98114013672</ele>
        <time>2012-11-06T07:39:55Z</time>
      </trkpt>
      <trkpt lat="-21.20682" lon="55.33105">
        <ele>782.98114013672</ele>
        <time>2012-11-06T07:39:55Z</time>
      </trkpt>
      <trkpt lat="-21.20682" lon="55.33105">
        <ele>780.95501708984</ele>
        <time>2012-11-06T07:39:57Z</time>
      </trkpt>
      <trkpt lat="-21.20682" lon="55.33105">
        <ele>780.95501708984</ele>
        <time>2012-11-06T07:39:57Z</time>
      </trkpt>
      <trkpt lat="-21.20682" lon="55.33105">
        <ele>781.66394042969</ele>
        <time>2012-11-06T07:39:58Z</time>
      </trkpt>
      <trkpt lat="-21.20682" lon="55.33105">
        <ele>781.66394042969</ele>
        <time>2012-11-06T07:39:58Z</time>
      </trkpt>
      <trkpt lat="-21.20682" lon="55.33105">
        <ele>783.37219238281</ele>
        <time>2012-11-06T07:40:00Z</time>
      </trkpt>
      <trkpt lat="-21.20682" lon="55.33105">
        <ele>783.37219238281</ele>
        <time>2012-11-06T07:40:00Z</time>
      </trkpt>
      <trkpt lat="-21.20682" lon="55.33105">
        <ele>784.66656494141</ele>
        <time>2012-11-06T07:40:01Z</time>
      </trkpt>
      <trkpt lat="-21.20682" lon="55.33105">
        <ele>784.66656494141</ele>
        <time>2012-11-06T07:40:01Z</time>
      </trkpt>
      <trkpt lat="-21.20682" lon="55.33105">
        <ele>786.02355957031</ele>
        <time>2012-11-06T07:40:03Z</time>
      </trkpt>
      <trkpt lat="-21.20682" lon="55.33105">
        <ele>786.02355957031</ele>
        <time>2012-11-06T07:40:03Z</time>
      </trkpt>
      <trkpt lat="-21.20682" lon="55.33105">
        <ele>788.66345214844</ele>
        <time>2012-11-06T07:40:04Z</time>
      </trkpt>
      <trkpt lat="-21.20682" lon="55.33105">
        <ele>788.66345214844</ele>
        <time>2012-11-06T07:40:04Z</time>
      </trkpt>
      <trkpt lat="-21.20682" lon="55.33105">
        <ele>791.36346435547</ele>
        <time>2012-11-06T07:40:06Z</time>
      </trkpt>
      <trkpt lat="-21.20682" lon="55.33105">
        <ele>791.36346435547</ele>
        <time>2012-11-06T07:40:06Z</time>
      </trkpt>
      <trkpt lat="-21.20682" lon="55.33105">
        <ele>795.62615966797</ele>
        <time>2012-11-06T07:40:08Z</time>
      </trkpt>
      <trkpt lat="-21.20682" lon="55.33105">
        <ele>795.62615966797</ele>
        <time>2012-11-06T07:40:08Z</time>
      </trkpt>
      <trkpt lat="-21.20683" lon="55.33106">
        <ele>785.48181152344</ele>
        <time>2012-11-06T07:40:10Z</time>
      </trkpt>
      <trkpt lat="-21.20683" lon="55.33106">
        <ele>785.48181152344</ele>
        <time>2012-11-06T07:40:10Z</time>
      </trkpt>
      <trkpt lat="-21.20682" lon="55.33105">
        <ele>783.24182128906</ele>
        <time>2012-11-06T07:40:11Z</time>
      </trkpt>
      <trkpt lat="-21.20682" lon="55.33105">
        <ele>783.24182128906</ele>
        <time>2012-11-06T07:40:11Z</time>
      </trkpt>
      <trkpt lat="-21.20682" lon="55.33105">
        <ele>782.97924804688</ele>
        <time>2012-11-06T07:40:13Z</time>
      </trkpt>
      <trkpt lat="-21.20682" lon="55.33105">
        <ele>782.97924804688</ele>
        <time>2012-11-06T07:40:13Z</time>
      </trkpt>
      <trkpt lat="-21.20682" lon="55.33105">
        <ele>786.38220214844</ele>
        <time>2012-11-06T07:40:15Z</time>
      </trkpt>
      <trkpt lat="-21.20682" lon="55.33105">
        <ele>786.38220214844</ele>
        <time>2012-11-06T07:40:15Z</time>
      </trkpt>
      <trkpt lat="-21.20682" lon="55.33105">
        <ele>787.92694091797</ele>
        <time>2012-11-06T07:40:17Z</time>
      </trkpt>
      <trkpt lat="-21.20682" lon="55.33105">
        <ele>787.92694091797</ele>
        <time>2012-11-06T07:40:17Z</time>
      </trkpt>
      <trkpt lat="-21.20682" lon="55.33105">
        <ele>785.80401611328</ele>
        <time>2012-11-06T07:40:19Z</time>
      </trkpt>
      <trkpt lat="-21.20682" lon="55.33105">
        <ele>785.80401611328</ele>
        <time>2012-11-06T07:40:19Z</time>
      </trkpt>
      <trkpt lat="-21.20682" lon="55.33105">
        <ele>784.88812255859</ele>
        <time>2012-11-06T07:40:21Z</time>
      </trkpt>
      <trkpt lat="-21.20682" lon="55.33105">
        <ele>784.88812255859</ele>
        <time>2012-11-06T07:40:21Z</time>
      </trkpt>
      <trkpt lat="-21.20682" lon="55.33105">
        <ele>785.30603027344</ele>
        <time>2012-11-06T07:40:23Z</time>
      </trkpt>
      <trkpt lat="-21.20682" lon="55.33105">
        <ele>785.30603027344</ele>
        <time>2012-11-06T07:40:23Z</time>
      </trkpt>
      <trkpt lat="-21.20682" lon="55.33105">
        <ele>782.28472900391</ele>
        <time>2012-11-06T07:40:25Z</time>
      </trkpt>
      <trkpt lat="-21.20682" lon="55.33105">
        <ele>782.28472900391</ele>
        <time>2012-11-06T07:40:25Z</time>
      </trkpt>
      <trkpt lat="-21.20682" lon="55.33105">
        <ele>781.27172851562</ele>
        <time>2012-11-06T07:40:26Z</time>
      </trkpt>
      <trkpt lat="-21.20682" lon="55.33105">
        <ele>781.27172851562</ele>
        <time>2012-11-06T07:40:26Z</time>
      </trkpt>
      <trkpt lat="-21.20682" lon="55.33105">
        <ele>780.79772949219</ele>
        <time>2012-11-06T07:40:28Z</time>
      </trkpt>
      <trkpt lat="-21.20682" lon="55.33105">
        <ele>780.79772949219</ele>
        <time>2012-11-06T07:40:28Z</time>
      </trkpt>
      <trkpt lat="-21.20682" lon="55.33105">
        <ele>778.92962646484</ele>
        <time>2012-11-06T07:40:30Z</time>
      </trkpt>
      <trkpt lat="-21.20682" lon="55.33105">
        <ele>778.92962646484</ele>
        <time>2012-11-06T07:40:30Z</time>
      </trkpt>
      <trkpt lat="-21.20682" lon="55.33105">
        <ele>777.77215576172</ele>
        <time>2012-11-06T07:40:31Z</time>
      </trkpt>
      <trkpt lat="-21.20682" lon="55.33105">
        <ele>777.77215576172</ele>
        <time>2012-11-06T07:40:31Z</time>
      </trkpt>
      <trkpt lat="-21.20682" lon="55.33105">
        <ele>778.37475585938</ele>
        <time>2012-11-06T07:40:33Z</time>
      </trkpt>
      <trkpt lat="-21.20682" lon="55.33105">
        <ele>778.37475585938</ele>
        <time>2012-11-06T07:40:33Z</time>
      </trkpt>
      <trkpt lat="-21.20682" lon="55.33105">
        <ele>777.55981445312</ele>
        <time>2012-11-06T07:40:34Z</time>
      </trkpt>
      <trkpt lat="-21.20682" lon="55.33105">
        <ele>777.55981445312</ele>
        <time>2012-11-06T07:40:34Z</time>
      </trkpt>
      <trkpt lat="-21.20682" lon="55.33105">
        <ele>775.77905273438</ele>
        <time>2012-11-06T07:40:35Z</time>
      </trkpt>
      <trkpt lat="-21.20682" lon="55.33105">
        <ele>775.77905273438</ele>
        <time>2012-11-06T07:40:35Z</time>
      </trkpt>
      <trkpt lat="-21.20682" lon="55.33105">
        <ele>773.68365478516</ele>
        <time>2012-11-06T07:40:36Z</time>
      </trkpt>
      <trkpt lat="-21.20682" lon="55.33105">
        <ele>773.68365478516</ele>
        <time>2012-11-06T07:40:36Z</time>
      </trkpt>
      <trkpt lat="-21.20682" lon="55.33105">
        <ele>771.52465820312</ele>
        <time>2012-11-06T07:40:38Z</time>
      </trkpt>
      <trkpt lat="-21.20682" lon="55.33105">
        <ele>771.52465820312</ele>
        <time>2012-11-06T07:40:38Z</time>
      </trkpt>
      <trkpt lat="-21.20682" lon="55.33105">
        <ele>770.87200927734</ele>
        <time>2012-11-06T07:40:39Z</time>
      </trkpt>
      <trkpt lat="-21.20682" lon="55.33105">
        <ele>770.87200927734</ele>
        <time>2012-11-06T07:40:39Z</time>
      </trkpt>
      <trkpt lat="-21.20682" lon="55.33105">
        <ele>771.14666748047</ele>
        <time>2012-11-06T07:40:40Z</time>
      </trkpt>
      <trkpt lat="-21.20682" lon="55.33105">
        <ele>771.14666748047</ele>
        <time>2012-11-06T07:40:40Z</time>
      </trkpt>
      <trkpt lat="-21.20682" lon="55.33105">
        <ele>771.41345214844</ele>
        <time>2012-11-06T07:40:41Z</time>
      </trkpt>
      <trkpt lat="-21.20682" lon="55.33105">
        <ele>771.41345214844</ele>
        <time>2012-11-06T07:40:41Z</time>
      </trkpt>
      <trkpt lat="-21.20683" lon="55.33106">
        <ele>771.49096679688</ele>
        <time>2012-11-06T07:40:43Z</time>
      </trkpt>
      <trkpt lat="-21.20683" lon="55.33106">
        <ele>771.49096679688</ele>
        <time>2012-11-06T07:40:43Z</time>
      </trkpt>
      <trkpt lat="-21.20683" lon="55.33106">
        <ele>772.48779296875</ele>
        <time>2012-11-06T07:40:44Z</time>
      </trkpt>
      <trkpt lat="-21.20683" lon="55.33106">
        <ele>772.48779296875</ele>
        <time>2012-11-06T07:40:44Z</time>
      </trkpt>
      <trkpt lat="-21.20684" lon="55.33107">
        <ele>773.18780517578</ele>
        <time>2012-11-06T07:40:46Z</time>
      </trkpt>
      <trkpt lat="-21.20684" lon="55.33107">
        <ele>773.18780517578</ele>
        <time>2012-11-06T07:40:46Z</time>
      </trkpt>
      <trkpt lat="-21.20684" lon="55.33107">
        <ele>769.99676513672</ele>
        <time>2012-11-06T07:40:48Z</time>
      </trkpt>
      <trkpt lat="-21.20684" lon="55.33107">
        <ele>768.89605712891</ele>
        <time>2012-11-06T07:40:49Z</time>
      </trkpt>
      <trkpt lat="-21.20684" lon="55.33106">
        <ele>770.896484375</ele>
        <time>2012-11-06T07:40:51Z</time>
      </trkpt>
      <trkpt lat="-21.20684" lon="55.33106">
        <ele>770.556640625</ele>
        <time>2012-11-06T07:40:52Z</time>
      </trkpt>
      <trkpt lat="-21.20683" lon="55.33106">
        <ele>771.93664550781</ele>
        <time>2012-11-06T07:40:54Z</time>
      </trkpt>
      <trkpt lat="-21.20683" lon="55.33106">
        <ele>771.56939697266</ele>
        <time>2012-11-06T07:40:55Z</time>
      </trkpt>
      <trkpt lat="-21.20683" lon="55.33106">
        <ele>771.56939697266</ele>
        <time>2012-11-06T07:40:55Z</time>
      </trkpt>
      <trkpt lat="-21.20683" lon="55.33106">
        <ele>771.56939697266</ele>
        <time>2012-11-06T07:40:55Z</time>
      </trkpt>
      <trkpt lat="-21.20683" lon="55.33106">
        <ele>775.76928710938</ele>
        <time>2012-11-06T07:40:56Z</time>
      </trkpt>
      <trkpt lat="-21.20683" lon="55.33106">
        <ele>775.76928710938</ele>
        <time>2012-11-06T07:40:56Z</time>
      </trkpt>
      <trkpt lat="-21.20683" lon="55.33106">
        <ele>775.84729003906</ele>
        <time>2012-11-06T07:40:57Z</time>
      </trkpt>
      <trkpt lat="-21.20683" lon="55.33106">
        <ele>775.84729003906</ele>
        <time>2012-11-06T07:40:57Z</time>
      </trkpt>
      <trkpt lat="-21.20683" lon="55.33106">
        <ele>776.12445068359</ele>
        <time>2012-11-06T07:40:58Z</time>
      </trkpt>
      <trkpt lat="-21.20683" lon="55.33106">
        <ele>776.12445068359</ele>
        <time>2012-11-06T07:40:58Z</time>
      </trkpt>
      <trkpt lat="-21.20683" lon="55.33106">
        <ele>774.28094482422</ele>
        <time>2012-11-06T07:41:00Z</time>
      </trkpt>
      <trkpt lat="-21.20683" lon="55.33106">
        <ele>774.28094482422</ele>
        <time>2012-11-06T07:41:00Z</time>
      </trkpt>
      <trkpt lat="-21.20683" lon="55.33106">
        <ele>773.25872802734</ele>
        <time>2012-11-06T07:41:02Z</time>
      </trkpt>
      <trkpt lat="-21.20683" lon="55.33106">
        <ele>773.25872802734</ele>
        <time>2012-11-06T07:41:02Z</time>
      </trkpt>
      <trkpt lat="-21.20683" lon="55.33106">
        <ele>772.87322998047</ele>
        <time>2012-11-06T07:41:03Z</time>
      </trkpt>
      <trkpt lat="-21.20683" lon="55.33106">
        <ele>772.87322998047</ele>
        <time>2012-11-06T07:41:03Z</time>
      </trkpt>
      <trkpt lat="-21.20683" lon="55.33106">
        <ele>770.88000488281</ele>
        <time>2012-11-06T07:41:05Z</time>
      </trkpt>
      <trkpt lat="-21.20683" lon="55.33106">
        <ele>770.88000488281</ele>
        <time>2012-11-06T07:41:05Z</time>
      </trkpt>
      <trkpt lat="-21.20684" lon="55.33106">
        <ele>774.05120849609</ele>
        <time>2012-11-06T07:41:07Z</time>
      </trkpt>
      <trkpt lat="-21.20684" lon="55.33106">
        <ele>774.05120849609</ele>
        <time>2012-11-06T07:41:07Z</time>
      </trkpt>
      <trkpt lat="-21.20684" lon="55.33106">
        <ele>774.97576904297</ele>
        <time>2012-11-06T07:41:09Z</time>
      </trkpt>
      <trkpt lat="-21.20684" lon="55.33106">
        <ele>774.97576904297</ele>
        <time>2012-11-06T07:41:09Z</time>
      </trkpt>
      <trkpt lat="-21.20683" lon="55.33106">
        <ele>774.66766357422</ele>
        <time>2012-11-06T07:41:10Z</time>
      </trkpt>
      <trkpt lat="-21.20683" lon="55.33106">
        <ele>774.66766357422</ele>
        <time>2012-11-06T07:41:10Z</time>
      </trkpt>
      <trkpt lat="-21.20683" lon="55.33106">
        <ele>771.73010253906</ele>
        <time>2012-11-06T07:41:12Z</time>
      </trkpt>
      <trkpt lat="-21.20683" lon="55.33106">
        <ele>771.73010253906</ele>
        <time>2012-11-06T07:41:12Z</time>
      </trkpt>
      <trkpt lat="-21.20683" lon="55.33106">
        <ele>771.25091552734</ele>
        <time>2012-11-06T07:41:13Z</time>
      </trkpt>
      <trkpt lat="-21.20683" lon="55.33106">
        <ele>771.25091552734</ele>
        <time>2012-11-06T07:41:13Z</time>
      </trkpt>
      <trkpt lat="-21.20683" lon="55.33106">
        <ele>773.42999267578</ele>
        <time>2012-11-06T07:41:15Z</time>
      </trkpt>
      <trkpt lat="-21.20683" lon="55.33106">
        <ele>773.42999267578</ele>
        <time>2012-11-06T07:41:15Z</time>
      </trkpt>
      <trkpt lat="-21.20683" lon="55.33106">
        <ele>772.06884765625</ele>
        <time>2012-11-06T07:41:16Z</time>
      </trkpt>
      <trkpt lat="-21.20683" lon="55.33106">
        <ele>772.06884765625</ele>
        <time>2012-11-06T07:41:16Z</time>
      </trkpt>
      <trkpt lat="-21.20683" lon="55.33106">
        <ele>772.4521484375</ele>
        <time>2012-11-06T07:41:18Z</time>
      </trkpt>
      <trkpt lat="-21.20683" lon="55.33106">
        <ele>772.4521484375</ele>
        <time>2012-11-06T07:41:18Z</time>
      </trkpt>
      <trkpt lat="-21.20683" lon="55.33106">
        <ele>772.18597412109</ele>
        <time>2012-11-06T07:41:19Z</time>
      </trkpt>
      <trkpt lat="-21.20683" lon="55.33106">
        <ele>772.18597412109</ele>
        <time>2012-11-06T07:41:19Z</time>
      </trkpt>
      <trkpt lat="-21.20683" lon="55.33107">
        <ele>772.74560546875</ele>
        <time>2012-11-06T07:41:21Z</time>
      </trkpt>
      <trkpt lat="-21.20683" lon="55.33107">
        <ele>772.74560546875</ele>
        <time>2012-11-06T07:41:21Z</time>
      </trkpt>
      <trkpt lat="-21.20683" lon="55.33107">
        <ele>773.98516845703</ele>
        <time>2012-11-06T07:41:23Z</time>
      </trkpt>
      <trkpt lat="-21.20683" lon="55.33107">
        <ele>773.98516845703</ele>
        <time>2012-11-06T07:41:23Z</time>
      </trkpt>
      <trkpt lat="-21.20683" lon="55.33106">
        <ele>773.68688964844</ele>
        <time>2012-11-06T07:41:25Z</time>
      </trkpt>
      <trkpt lat="-21.20683" lon="55.33106">
        <ele>773.68688964844</ele>
        <time>2012-11-06T07:41:25Z</time>
      </trkpt>
      <trkpt lat="-21.20683" lon="55.33106">
        <ele>773.51391601562</ele>
        <time>2012-11-06T07:41:26Z</time>
      </trkpt>
      <trkpt lat="-21.20683" lon="55.33106">
        <ele>773.51391601562</ele>
        <time>2012-11-06T07:41:26Z</time>
      </trkpt>
      <trkpt lat="-21.20683" lon="55.33107">
        <ele>773.19329833984</ele>
        <time>2012-11-06T07:41:28Z</time>
      </trkpt>
      <trkpt lat="-21.20683" lon="55.33107">
        <ele>773.19329833984</ele>
        <time>2012-11-06T07:41:28Z</time>
      </trkpt>
      <trkpt lat="-21.20683" lon="55.33107">
        <ele>773.34741210938</ele>
        <time>2012-11-06T07:41:29Z</time>
      </trkpt>
      <trkpt lat="-21.20683" lon="55.33107">
        <ele>773.34741210938</ele>
        <time>2012-11-06T07:41:29Z</time>
      </trkpt>
      <trkpt lat="-21.20683" lon="55.33107">
        <ele>773.56976318359</ele>
        <time>2012-11-06T07:41:31Z</time>
      </trkpt>
      <trkpt lat="-21.20683" lon="55.33107">
        <ele>773.56976318359</ele>
        <time>2012-11-06T07:41:31Z</time>
      </trkpt>
      <trkpt lat="-21.20683" lon="55.33107">
        <ele>774.03515625</ele>
        <time>2012-11-06T07:41:33Z</time>
      </trkpt>
      <trkpt lat="-21.20683" lon="55.33107">
        <ele>774.03515625</ele>
        <time>2012-11-06T07:41:33Z</time>
      </trkpt>
      <trkpt lat="-21.20683" lon="55.33107">
        <ele>772.84820556641</ele>
        <time>2012-11-06T07:41:34Z</time>
      </trkpt>
      <trkpt lat="-21.20683" lon="55.33107">
        <ele>772.84820556641</ele>
        <time>2012-11-06T07:41:34Z</time>
      </trkpt>
      <trkpt lat="-21.20683" lon="55.33107">
        <ele>773.38873291016</ele>
        <time>2012-11-06T07:41:35Z</time>
      </trkpt>
      <trkpt lat="-21.20683" lon="55.33107">
        <ele>773.38873291016</ele>
        <time>2012-11-06T07:41:35Z</time>
      </trkpt>
      <trkpt lat="-21.20683" lon="55.33108">
        <ele>777.44897460938</ele>
        <time>2012-11-06T07:41:37Z</time>
      </trkpt>
      <trkpt lat="-21.20683" lon="55.33108">
        <ele>777.44897460938</ele>
        <time>2012-11-06T07:41:37Z</time>
      </trkpt>
      <trkpt lat="-21.20683" lon="55.33108">
        <ele>777.15179443359</ele>
        <time>2012-11-06T07:41:38Z</time>
      </trkpt>
      <trkpt lat="-21.20683" lon="55.33108">
        <ele>777.15179443359</ele>
        <time>2012-11-06T07:41:38Z</time>
      </trkpt>
      <trkpt lat="-21.20683" lon="55.33108">
        <ele>776.32769775391</ele>
        <time>2012-11-06T07:41:40Z</time>
      </trkpt>
      <trkpt lat="-21.20683" lon="55.33108">
        <ele>776.32769775391</ele>
        <time>2012-11-06T07:41:40Z</time>
      </trkpt>
      <trkpt lat="-21.20683" lon="55.33108">
        <ele>780.30364990234</ele>
        <time>2012-11-06T07:41:41Z</time>
      </trkpt>
      <trkpt lat="-21.20683" lon="55.33108">
        <ele>780.30364990234</ele>
        <time>2012-11-06T07:41:41Z</time>
      </trkpt>
      <trkpt lat="-21.20683" lon="55.33108">
        <ele>780.30364990234</ele>
        <time>2012-11-06T07:41:41Z</time>
      </trkpt>
      <trkpt lat="-21.20683" lon="55.33108">
        <ele>783.99047851562</ele>
        <time>2012-11-06T07:41:43Z</time>
      </trkpt>
      <trkpt lat="-21.20683" lon="55.33108">
        <ele>783.99047851562</ele>
        <time>2012-11-06T07:41:43Z</time>
      </trkpt>
      <trkpt lat="-21.20683" lon="55.33108">
        <ele>782.74780273438</ele>
        <time>2012-11-06T07:41:44Z</time>
      </trkpt>
      <trkpt lat="-21.20683" lon="55.33108">
        <ele>782.74780273438</ele>
        <time>2012-11-06T07:41:44Z</time>
      </trkpt>
      <trkpt lat="-21.20683" lon="55.33108">
        <ele>783.18676757812</ele>
        <time>2012-11-06T07:41:46Z</time>
      </trkpt>
      <trkpt lat="-21.20683" lon="55.33108">
        <ele>783.18676757812</ele>
        <time>2012-11-06T07:41:46Z</time>
      </trkpt>
      <trkpt lat="-21.20683" lon="55.33108">
        <ele>777.88659667969</ele>
        <time>2012-11-06T07:41:48Z</time>
      </trkpt>
      <trkpt lat="-21.20683" lon="55.33108">
        <ele>777.88659667969</ele>
        <time>2012-11-06T07:41:48Z</time>
      </trkpt>
      <trkpt lat="-21.20683" lon="55.33108">
        <ele>776.81378173828</ele>
        <time>2012-11-06T07:41:49Z</time>
      </trkpt>
      <trkpt lat="-21.20683" lon="55.33108">
        <ele>776.81378173828</ele>
        <time>2012-11-06T07:41:49Z</time>
      </trkpt>
      <trkpt lat="-21.20683" lon="55.33108">
        <ele>764.77923583984</ele>
        <time>2012-11-06T07:41:51Z</time>
      </trkpt>
      <trkpt lat="-21.20683" lon="55.33108">
        <ele>764.77923583984</ele>
        <time>2012-11-06T07:41:51Z</time>
      </trkpt>
      <trkpt lat="-21.20683" lon="55.33108">
        <ele>761.07629394531</ele>
        <time>2012-11-06T07:41:53Z</time>
      </trkpt>
      <trkpt lat="-21.20683" lon="55.33108">
        <ele>761.07629394531</ele>
        <time>2012-11-06T07:41:53Z</time>
      </trkpt>
      <trkpt lat="-21.20683" lon="55.33108">
        <ele>765.53881835938</ele>
        <time>2012-11-06T07:41:55Z</time>
      </trkpt>
      <trkpt lat="-21.20683" lon="55.33108">
        <ele>765.53881835938</ele>
        <time>2012-11-06T07:41:55Z</time>
      </trkpt>
      <trkpt lat="-21.20683" lon="55.33108">
        <ele>765.19671630859</ele>
        <time>2012-11-06T07:41:56Z</time>
      </trkpt>
      <trkpt lat="-21.20683" lon="55.33108">
        <ele>765.19671630859</ele>
        <time>2012-11-06T07:41:56Z</time>
      </trkpt>
      <trkpt lat="-21.20683" lon="55.33108">
        <ele>770.16040039062</ele>
        <time>2012-11-06T07:41:57Z</time>
      </trkpt>
      <trkpt lat="-21.20683" lon="55.33108">
        <ele>770.16040039062</ele>
        <time>2012-11-06T07:41:57Z</time>
      </trkpt>
      <trkpt lat="-21.20683" lon="55.33108">
        <ele>770.02496337891</ele>
        <time>2012-11-06T07:41:59Z</time>
      </trkpt>
      <trkpt lat="-21.20683" lon="55.33108">
        <ele>770.02496337891</ele>
        <time>2012-11-06T07:41:59Z</time>
      </trkpt>
      <trkpt lat="-21.20683" lon="55.33108">
        <ele>772.88317871094</ele>
        <time>2012-11-06T07:42:01Z</time>
      </trkpt>
      <trkpt lat="-21.20683" lon="55.33108">
        <ele>772.88317871094</ele>
        <time>2012-11-06T07:42:01Z</time>
      </trkpt>
      <trkpt lat="-21.20683" lon="55.33108">
        <ele>775.80657958984</ele>
        <time>2012-11-06T07:42:03Z</time>
      </trkpt>
      <trkpt lat="-21.20683" lon="55.33108">
        <ele>775.80657958984</ele>
        <time>2012-11-06T07:42:03Z</time>
      </trkpt>
      <trkpt lat="-21.20683" lon="55.33108">
        <ele>778.68231201172</ele>
        <time>2012-11-06T07:42:04Z</time>
      </trkpt>
      <trkpt lat="-21.20683" lon="55.33108">
        <ele>778.68231201172</ele>
        <time>2012-11-06T07:42:04Z</time>
      </trkpt>
      <trkpt lat="-21.20683" lon="55.33108">
        <ele>782.41577148438</ele>
        <time>2012-11-06T07:42:06Z</time>
      </trkpt>
      <trkpt lat="-21.20683" lon="55.33108">
        <ele>782.41577148438</ele>
        <time>2012-11-06T07:42:06Z</time>
      </trkpt>
      <trkpt lat="-21.20683" lon="55.33108">
        <ele>775.11492919922</ele>
        <time>2012-11-06T07:42:08Z</time>
      </trkpt>
      <trkpt lat="-21.20683" lon="55.33108">
        <ele>775.11492919922</ele>
        <time>2012-11-06T07:42:08Z</time>
      </trkpt>
      <trkpt lat="-21.20683" lon="55.33108">
        <ele>771.14031982422</ele>
        <time>2012-11-06T07:42:10Z</time>
      </trkpt>
      <trkpt lat="-21.20683" lon="55.33108">
        <ele>771.14031982422</ele>
        <time>2012-11-06T07:42:10Z</time>
      </trkpt>
      <trkpt lat="-21.20683" lon="55.33108">
        <ele>773.64984130859</ele>
        <time>2012-11-06T07:42:11Z</time>
      </trkpt>
      <trkpt lat="-21.20683" lon="55.33108">
        <ele>773.64984130859</ele>
        <time>2012-11-06T07:42:11Z</time>
      </trkpt>
      <trkpt lat="-21.20683" lon="55.33108">
        <ele>782.10656738281</ele>
        <time>2012-11-06T07:42:13Z</time>
      </trkpt>
      <trkpt lat="-21.20683" lon="55.33108">
        <ele>782.10656738281</ele>
        <time>2012-11-06T07:42:13Z</time>
      </trkpt>
      <trkpt lat="-21.20683" lon="55.33108">
        <ele>787.27093505859</ele>
        <time>2012-11-06T07:42:15Z</time>
      </trkpt>
      <trkpt lat="-21.20683" lon="55.33108">
        <ele>787.27093505859</ele>
        <time>2012-11-06T07:42:15Z</time>
      </trkpt>
      <trkpt lat="-21.20683" lon="55.33108">
        <ele>790.67260742188</ele>
        <time>2012-11-06T07:42:17Z</time>
      </trkpt>
      <trkpt lat="-21.20683" lon="55.33108">
        <ele>790.67260742188</ele>
        <time>2012-11-06T07:42:17Z</time>
      </trkpt>
      <trkpt lat="-21.20683" lon="55.33108">
        <ele>790.490234375</ele>
        <time>2012-11-06T07:42:18Z</time>
      </trkpt>
      <trkpt lat="-21.20683" lon="55.33108">
        <ele>790.490234375</ele>
        <time>2012-11-06T07:42:18Z</time>
      </trkpt>
      <trkpt lat="-21.20683" lon="55.33108">
        <ele>788.28784179688</ele>
        <time>2012-11-06T07:42:20Z</time>
      </trkpt>
      <trkpt lat="-21.20683" lon="55.33108">
        <ele>788.28784179688</ele>
        <time>2012-11-06T07:42:20Z</time>
      </trkpt>
      <trkpt lat="-21.20682" lon="55.3311">
        <ele>785.40454101562</ele>
        <time>2012-11-06T07:42:21Z</time>
      </trkpt>
      <trkpt lat="-21.20682" lon="55.3311">
        <ele>785.40454101562</ele>
        <time>2012-11-06T07:42:21Z</time>
      </trkpt>
      <trkpt lat="-21.20681" lon="55.33112">
        <ele>771.56896972656</ele>
        <time>2012-11-06T07:42:23Z</time>
      </trkpt>
      <trkpt lat="-21.20681" lon="55.33112">
        <ele>771.56896972656</ele>
        <time>2012-11-06T07:42:23Z</time>
      </trkpt>
      <trkpt lat="-21.20681" lon="55.33112">
        <ele>775.46911621094</ele>
        <time>2012-11-06T07:42:24Z</time>
      </trkpt>
      <trkpt lat="-21.20682" lon="55.33113">
        <ele>777.36938476562</ele>
        <time>2012-11-06T07:42:26Z</time>
      </trkpt>
      <trkpt lat="-21.20682" lon="55.33113">
        <ele>782.53582763672</ele>
        <time>2012-11-06T07:42:28Z</time>
      </trkpt>
      <trkpt lat="-21.20682" lon="55.33113">
        <ele>784.89294433594</ele>
        <time>2012-11-06T07:42:30Z</time>
      </trkpt>
      <trkpt lat="-21.20682" lon="55.33113">
        <ele>786.09631347656</ele>
        <time>2012-11-06T07:42:32Z</time>
      </trkpt>
      <trkpt lat="-21.20682" lon="55.33113">
        <ele>786.09631347656</ele>
        <time>2012-11-06T07:42:32Z</time>
      </trkpt>
      <trkpt lat="-21.20682" lon="55.33113">
        <ele>786.09631347656</ele>
        <time>2012-11-06T07:42:32Z</time>
      </trkpt>
      <trkpt lat="-21.20682" lon="55.33113">
        <ele>787.20349121094</ele>
        <time>2012-11-06T07:42:34Z</time>
      </trkpt>
      <trkpt lat="-21.20682" lon="55.33113">
        <ele>787.20349121094</ele>
        <time>2012-11-06T07:42:34Z</time>
      </trkpt>
      <trkpt lat="-21.20682" lon="55.33113">
        <ele>787.98675537109</ele>
        <time>2012-11-06T07:42:35Z</time>
      </trkpt>
      <trkpt lat="-21.20682" lon="55.33113">
        <ele>787.98675537109</ele>
        <time>2012-11-06T07:42:35Z</time>
      </trkpt>
      <trkpt lat="-21.20682" lon="55.33113">
        <ele>788.13793945312</ele>
        <time>2012-11-06T07:42:36Z</time>
      </trkpt>
      <trkpt lat="-21.20682" lon="55.33113">
        <ele>788.13793945312</ele>
        <time>2012-11-06T07:42:36Z</time>
      </trkpt>
      <trkpt lat="-21.20682" lon="55.33113">
        <ele>787.62322998047</ele>
        <time>2012-11-06T07:42:37Z</time>
      </trkpt>
      <trkpt lat="-21.20682" lon="55.33113">
        <ele>787.62322998047</ele>
        <time>2012-11-06T07:42:37Z</time>
      </trkpt>
      <trkpt lat="-21.20682" lon="55.33113">
        <ele>788.4169921875</ele>
        <time>2012-11-06T07:42:38Z</time>
      </trkpt>
      <trkpt lat="-21.20682" lon="55.33113">
        <ele>788.4169921875</ele>
        <time>2012-11-06T07:42:38Z</time>
      </trkpt>
      <trkpt lat="-21.20682" lon="55.33113">
        <ele>787.31176757812</ele>
        <time>2012-11-06T07:42:40Z</time>
      </trkpt>
      <trkpt lat="-21.20682" lon="55.33113">
        <ele>787.31176757812</ele>
        <time>2012-11-06T07:42:40Z</time>
      </trkpt>
      <trkpt lat="-21.20682" lon="55.33113">
        <ele>786.76049804688</ele>
        <time>2012-11-06T07:42:41Z</time>
      </trkpt>
      <trkpt lat="-21.20682" lon="55.33113">
        <ele>786.76049804688</ele>
        <time>2012-11-06T07:42:41Z</time>
      </trkpt>
      <trkpt lat="-21.20682" lon="55.33113">
        <ele>786.64599609375</ele>
        <time>2012-11-06T07:42:42Z</time>
      </trkpt>
      <trkpt lat="-21.20682" lon="55.33113">
        <ele>786.64599609375</ele>
        <time>2012-11-06T07:42:42Z</time>
      </trkpt>
      <trkpt lat="-21.20682" lon="55.33113">
        <ele>785.90570068359</ele>
        <time>2012-11-06T07:42:44Z</time>
      </trkpt>
      <trkpt lat="-21.20682" lon="55.33113">
        <ele>785.90570068359</ele>
        <time>2012-11-06T07:42:44Z</time>
      </trkpt>
      <trkpt lat="-21.20682" lon="55.33113">
        <ele>783.47155761719</ele>
        <time>2012-11-06T07:42:46Z</time>
      </trkpt>
      <trkpt lat="-21.20682" lon="55.33113">
        <ele>783.47155761719</ele>
        <time>2012-11-06T07:42:46Z</time>
      </trkpt>
      <trkpt lat="-21.20682" lon="55.33113">
        <ele>782.37451171875</ele>
        <time>2012-11-06T07:42:48Z</time>
      </trkpt>
      <trkpt lat="-21.20682" lon="55.33113">
        <ele>782.37451171875</ele>
        <time>2012-11-06T07:42:48Z</time>
      </trkpt>
      <trkpt lat="-21.20682" lon="55.33113">
        <ele>772.111328125</ele>
        <time>2012-11-06T07:42:50Z</time>
      </trkpt>
      <trkpt lat="-21.20682" lon="55.33113">
        <ele>772.111328125</ele>
        <time>2012-11-06T07:42:50Z</time>
      </trkpt>
      <trkpt lat="-21.20682" lon="55.33113">
        <ele>771.80438232422</ele>
        <time>2012-11-06T07:42:51Z</time>
      </trkpt>
      <trkpt lat="-21.20682" lon="55.33113">
        <ele>771.80438232422</ele>
        <time>2012-11-06T07:42:51Z</time>
      </trkpt>
      <trkpt lat="-21.20682" lon="55.33113">
        <ele>769.82623291016</ele>
        <time>2012-11-06T07:42:52Z</time>
      </trkpt>
      <trkpt lat="-21.20682" lon="55.33113">
        <ele>769.82623291016</ele>
        <time>2012-11-06T07:42:52Z</time>
      </trkpt>
      <trkpt lat="-21.20682" lon="55.33113">
        <ele>763.61566162109</ele>
        <time>2012-11-06T07:42:53Z</time>
      </trkpt>
      <trkpt lat="-21.20682" lon="55.33113">
        <ele>763.61566162109</ele>
        <time>2012-11-06T07:42:53Z</time>
      </trkpt>
      <trkpt lat="-21.20682" lon="55.33113">
        <ele>768.02502441406</ele>
        <time>2012-11-06T07:42:55Z</time>
      </trkpt>
      <trkpt lat="-21.20682" lon="55.33113">
        <ele>768.02502441406</ele>
        <time>2012-11-06T07:42:55Z</time>
      </trkpt>
      <trkpt lat="-21.20682" lon="55.33113">
        <ele>767.58813476562</ele>
        <time>2012-11-06T07:42:56Z</time>
      </trkpt>
      <trkpt lat="-21.20682" lon="55.33113">
        <ele>767.58813476562</ele>
        <time>2012-11-06T07:42:56Z</time>
      </trkpt>
      <trkpt lat="-21.20682" lon="55.33113">
        <ele>768.28900146484</ele>
        <time>2012-11-06T07:42:57Z</time>
      </trkpt>
      <trkpt lat="-21.20682" lon="55.33113">
        <ele>768.28900146484</ele>
        <time>2012-11-06T07:42:57Z</time>
      </trkpt>
      <trkpt lat="-21.20682" lon="55.33113">
        <ele>770.74108886719</ele>
        <time>2012-11-06T07:42:59Z</time>
      </trkpt>
      <trkpt lat="-21.20682" lon="55.33113">
        <ele>770.74108886719</ele>
        <time>2012-11-06T07:42:59Z</time>
      </trkpt>
      <trkpt lat="-21.20682" lon="55.33113">
        <ele>774.27966308594</ele>
        <time>2012-11-06T07:43:01Z</time>
      </trkpt>
      <trkpt lat="-21.20682" lon="55.33113">
        <ele>774.27966308594</ele>
        <time>2012-11-06T07:43:01Z</time>
      </trkpt>
      <trkpt lat="-21.20682" lon="55.33113">
        <ele>775.669921875</ele>
        <time>2012-11-06T07:43:03Z</time>
      </trkpt>
      <trkpt lat="-21.20682" lon="55.33113">
        <ele>775.669921875</ele>
        <time>2012-11-06T07:43:03Z</time>
      </trkpt>
      <trkpt lat="-21.20682" lon="55.33113">
        <ele>774.89562988281</ele>
        <time>2012-11-06T07:43:04Z</time>
      </trkpt>
      <trkpt lat="-21.20682" lon="55.33113">
        <ele>774.89562988281</ele>
        <time>2012-11-06T07:43:04Z</time>
      </trkpt>
      <trkpt lat="-21.20681" lon="55.33112">
        <ele>775.96630859375</ele>
        <time>2012-11-06T07:43:05Z</time>
      </trkpt>
      <trkpt lat="-21.20681" lon="55.33112">
        <ele>775.96630859375</ele>
        <time>2012-11-06T07:43:05Z</time>
      </trkpt>
      <trkpt lat="-21.20682" lon="55.33111">
        <ele>777.43487548828</ele>
        <time>2012-11-06T07:43:07Z</time>
      </trkpt>
      <trkpt lat="-21.20682" lon="55.33111">
        <ele>775.46215820312</ele>
        <time>2012-11-06T07:43:09Z</time>
      </trkpt>
      <trkpt lat="-21.20682" lon="55.33111">
        <ele>773.74981689453</ele>
        <time>2012-11-06T07:43:11Z</time>
      </trkpt>
      <trkpt lat="-21.20682" lon="55.33111">
        <ele>772.88110351562</ele>
        <time>2012-11-06T07:43:13Z</time>
      </trkpt>
      <trkpt lat="-21.20682" lon="55.33111">
        <ele>774.65667724609</ele>
        <time>2012-11-06T07:43:15Z</time>
      </trkpt>
      <trkpt lat="-21.20682" lon="55.33111">
        <ele>774.65667724609</ele>
        <time>2012-11-06T07:43:15Z</time>
      </trkpt>
      <trkpt lat="-21.20682" lon="55.33111">
        <ele>774.65667724609</ele>
        <time>2012-11-06T07:43:15Z</time>
      </trkpt>
      <trkpt lat="-21.20682" lon="55.33111">
        <ele>776.2392578125</ele>
        <time>2012-11-06T07:43:17Z</time>
      </trkpt>
      <trkpt lat="-21.20682" lon="55.33111">
        <ele>776.2392578125</ele>
        <time>2012-11-06T07:43:17Z</time>
      </trkpt>
      <trkpt lat="-21.20682" lon="55.33111">
        <ele>776.56323242188</ele>
        <time>2012-11-06T07:43:19Z</time>
      </trkpt>
      <trkpt lat="-21.20682" lon="55.33111">
        <ele>776.56323242188</ele>
        <time>2012-11-06T07:43:19Z</time>
      </trkpt>
      <trkpt lat="-21.20682" lon="55.33109">
        <ele>776.49035644531</ele>
        <time>2012-11-06T07:43:21Z</time>
      </trkpt>
      <trkpt lat="-21.20682" lon="55.33109">
        <ele>776.49035644531</ele>
        <time>2012-11-06T07:43:21Z</time>
      </trkpt>
      <trkpt lat="-21.20682" lon="55.33109">
        <ele>772.89562988281</ele>
        <time>2012-11-06T07:43:22Z</time>
      </trkpt>
      <trkpt lat="-21.20682" lon="55.33109">
        <ele>772.89562988281</ele>
        <time>2012-11-06T07:43:22Z</time>
      </trkpt>
      <trkpt lat="-21.20681" lon="55.33109">
        <ele>780.17437744141</ele>
        <time>2012-11-06T07:43:24Z</time>
      </trkpt>
      <trkpt lat="-21.20681" lon="55.33109">
        <ele>780.17437744141</ele>
        <time>2012-11-06T07:43:24Z</time>
      </trkpt>
      <trkpt lat="-21.20681" lon="55.33109">
        <ele>780.2333984375</ele>
        <time>2012-11-06T07:43:26Z</time>
      </trkpt>
      <trkpt lat="-21.20681" lon="55.33109">
        <ele>780.40765380859</ele>
        <time>2012-11-06T07:43:27Z</time>
      </trkpt>
      <trkpt lat="-21.20681" lon="55.33109">
        <ele>779.55657958984</ele>
        <time>2012-11-06T07:43:28Z</time>
      </trkpt>
      <trkpt lat="-21.20681" lon="55.33109">
        <ele>779.55657958984</ele>
        <time>2012-11-06T07:43:28Z</time>
      </trkpt>
      <trkpt lat="-21.20681" lon="55.33109">
        <ele>779.55657958984</ele>
        <time>2012-11-06T07:43:28Z</time>
      </trkpt>
      <trkpt lat="-21.20681" lon="55.33109">
        <ele>777.09735107422</ele>
        <time>2012-11-06T07:43:29Z</time>
      </trkpt>
      <trkpt lat="-21.20681" lon="55.33109">
        <ele>777.09735107422</ele>
        <time>2012-11-06T07:43:29Z</time>
      </trkpt>
      <trkpt lat="-21.20681" lon="55.33109">
        <ele>776.50311279297</ele>
        <time>2012-11-06T07:43:31Z</time>
      </trkpt>
      <trkpt lat="-21.20681" lon="55.33109">
        <ele>776.50311279297</ele>
        <time>2012-11-06T07:43:31Z</time>
      </trkpt>
      <trkpt lat="-21.20681" lon="55.33109">
        <ele>772.98492431641</ele>
        <time>2012-11-06T07:43:32Z</time>
      </trkpt>
      <trkpt lat="-21.20681" lon="55.33109">
        <ele>772.98492431641</ele>
        <time>2012-11-06T07:43:32Z</time>
      </trkpt>
      <trkpt lat="-21.20682" lon="55.33108">
        <ele>772.40551757812</ele>
        <time>2012-11-06T07:43:33Z</time>
      </trkpt>
      <trkpt lat="-21.20682" lon="55.33108">
        <ele>772.40551757812</ele>
        <time>2012-11-06T07:43:33Z</time>
      </trkpt>
      <trkpt lat="-21.20683" lon="55.33108">
        <ele>768.99761962891</ele>
        <time>2012-11-06T07:43:35Z</time>
      </trkpt>
      <trkpt lat="-21.20683" lon="55.33108">
        <ele>768.99761962891</ele>
        <time>2012-11-06T07:43:35Z</time>
      </trkpt>
      <trkpt lat="-21.20683" lon="55.33108">
        <ele>777.85821533203</ele>
        <time>2012-11-06T07:43:36Z</time>
      </trkpt>
      <trkpt lat="-21.20683" lon="55.33108">
        <ele>775.62506103516</ele>
        <time>2012-11-06T07:43:38Z</time>
      </trkpt>
      <trkpt lat="-21.20683" lon="55.33108">
        <ele>777.56939697266</ele>
        <time>2012-11-06T07:43:39Z</time>
      </trkpt>
      <trkpt lat="-21.20683" lon="55.33108">
        <ele>774.74554443359</ele>
        <time>2012-11-06T07:43:41Z</time>
      </trkpt>
      <trkpt lat="-21.20683" lon="55.33108">
        <ele>774.74554443359</ele>
        <time>2012-11-06T07:43:41Z</time>
      </trkpt>
      <trkpt lat="-21.20683" lon="55.33108">
        <ele>774.74554443359</ele>
        <time>2012-11-06T07:43:41Z</time>
      </trkpt>
      <trkpt lat="-21.20683" lon="55.33108">
        <ele>770.80401611328</ele>
        <time>2012-11-06T07:43:43Z</time>
      </trkpt>
      <trkpt lat="-21.20683" lon="55.33108">
        <ele>770.80401611328</ele>
        <time>2012-11-06T07:43:43Z</time>
      </trkpt>
      <trkpt lat="-21.20683" lon="55.33108">
        <ele>772.03454589844</ele>
        <time>2012-11-06T07:43:44Z</time>
      </trkpt>
      <trkpt lat="-21.20683" lon="55.33108">
        <ele>772.03454589844</ele>
        <time>2012-11-06T07:43:44Z</time>
      </trkpt>
      <trkpt lat="-21.20683" lon="55.33108">
        <ele>772.02215576172</ele>
        <time>2012-11-06T07:43:46Z</time>
      </trkpt>
      <trkpt lat="-21.20683" lon="55.33108">
        <ele>772.02215576172</ele>
        <time>2012-11-06T07:43:46Z</time>
      </trkpt>
      <trkpt lat="-21.20683" lon="55.33108">
        <ele>773.16021728516</ele>
        <time>2012-11-06T07:43:47Z</time>
      </trkpt>
      <trkpt lat="-21.20683" lon="55.33108">
        <ele>773.16021728516</ele>
        <time>2012-11-06T07:43:47Z</time>
      </trkpt>
      <trkpt lat="-21.20683" lon="55.33108">
        <ele>777.74487304688</ele>
        <time>2012-11-06T07:43:49Z</time>
      </trkpt>
      <trkpt lat="-21.20683" lon="55.33108">
        <ele>777.74487304688</ele>
        <time>2012-11-06T07:43:49Z</time>
      </trkpt>
      <trkpt lat="-21.20683" lon="55.33109">
        <ele>772.97265625</ele>
        <time>2012-11-06T07:43:51Z</time>
      </trkpt>
      <trkpt lat="-21.20683" lon="55.33109">
        <ele>772.97265625</ele>
        <time>2012-11-06T07:43:51Z</time>
      </trkpt>
      <trkpt lat="-21.20683" lon="55.33109">
        <ele>775.31817626953</ele>
        <time>2012-11-06T07:43:53Z</time>
      </trkpt>
      <trkpt lat="-21.20683" lon="55.33109">
        <ele>775.31817626953</ele>
        <time>2012-11-06T07:43:53Z</time>
      </trkpt>
      <trkpt lat="-21.20683" lon="55.33109">
        <ele>774.45520019531</ele>
        <time>2012-11-06T07:43:54Z</time>
      </trkpt>
      <trkpt lat="-21.20683" lon="55.33109">
        <ele>774.45520019531</ele>
        <time>2012-11-06T07:43:54Z</time>
      </trkpt>
      <trkpt lat="-21.20683" lon="55.3311">
        <ele>777.10736083984</ele>
        <time>2012-11-06T07:43:56Z</time>
      </trkpt>
      <trkpt lat="-21.20683" lon="55.3311">
        <ele>777.10736083984</ele>
        <time>2012-11-06T07:43:56Z</time>
      </trkpt>
      <trkpt lat="-21.20683" lon="55.3311">
        <ele>778.7919921875</ele>
        <time>2012-11-06T07:43:57Z</time>
      </trkpt>
      <trkpt lat="-21.20683" lon="55.3311">
        <ele>778.7919921875</ele>
        <time>2012-11-06T07:43:57Z</time>
      </trkpt>
      <trkpt lat="-21.20683" lon="55.3311">
        <ele>771.86676025391</ele>
        <time>2012-11-06T07:43:58Z</time>
      </trkpt>
      <trkpt lat="-21.20683" lon="55.3311">
        <ele>771.86676025391</ele>
        <time>2012-11-06T07:43:58Z</time>
      </trkpt>
      <trkpt lat="-21.20683" lon="55.33108">
        <ele>770.15020751953</ele>
        <time>2012-11-06T07:43:59Z</time>
      </trkpt>
      <trkpt lat="-21.20683" lon="55.33108">
        <ele>770.50146484375</ele>
        <time>2012-11-06T07:44:01Z</time>
      </trkpt>
      <trkpt lat="-21.20683" lon="55.33108">
        <ele>770.71710205078</ele>
        <time>2012-11-06T07:44:02Z</time>
      </trkpt>
      <trkpt lat="-21.20683" lon="55.33108">
        <ele>772.79595947266</ele>
        <time>2012-11-06T07:44:03Z</time>
      </trkpt>
      <trkpt lat="-21.20683" lon="55.33108">
        <ele>777.57861328125</ele>
        <time>2012-11-06T07:44:05Z</time>
      </trkpt>
      <trkpt lat="-21.20683" lon="55.33108">
        <ele>777.57861328125</ele>
        <time>2012-11-06T07:44:05Z</time>
      </trkpt>
      <trkpt lat="-21.20683" lon="55.33108">
        <ele>777.57861328125</ele>
        <time>2012-11-06T07:44:05Z</time>
      </trkpt>
      <trkpt lat="-21.20684" lon="55.33108">
        <ele>776.8662109375</ele>
        <time>2012-11-06T07:44:07Z</time>
      </trkpt>
      <trkpt lat="-21.20684" lon="55.33108">
        <ele>776.8662109375</ele>
        <time>2012-11-06T07:44:07Z</time>
      </trkpt>
      <trkpt lat="-21.20686" lon="55.33104">
        <ele>775.6748046875</ele>
        <time>2012-11-06T07:44:09Z</time>
      </trkpt>
      <trkpt lat="-21.20686" lon="55.33104">
        <ele>775.6748046875</ele>
        <time>2012-11-06T07:44:09Z</time>
      </trkpt>
      <trkpt lat="-21.20688" lon="55.33101">
        <ele>775.17498779297</ele>
        <time>2012-11-06T07:44:10Z</time>
      </trkpt>
      <trkpt lat="-21.20688" lon="55.33101">
        <ele>775.17498779297</ele>
        <time>2012-11-06T07:44:10Z</time>
      </trkpt>
      <trkpt lat="-21.20694" lon="55.33096">
        <ele>773.89447021484</ele>
        <time>2012-11-06T07:44:12Z</time>
      </trkpt>
      <trkpt lat="-21.20697" lon="55.33094">
        <ele>773.62261962891</ele>
        <time>2012-11-06T07:44:13Z</time>
      </trkpt>
      <trkpt lat="-21.20702" lon="55.33091">
        <ele>771.75988769531</ele>
        <time>2012-11-06T07:44:15Z</time>
      </trkpt>
      <trkpt lat="-21.20705" lon="55.3309">
        <ele>771.66204833984</ele>
        <time>2012-11-06T07:44:16Z</time>
      </trkpt>
      <trkpt lat="-21.20709" lon="55.33087">
        <ele>768.98162841797</ele>
        <time>2012-11-06T07:44:18Z</time>
      </trkpt>
      <trkpt lat="-21.20712" lon="55.33085">
        <ele>767.39617919922</ele>
        <time>2012-11-06T07:44:19Z</time>
      </trkpt>
      <trkpt lat="-21.20716" lon="55.33084">
        <ele>766.93096923828</ele>
        <time>2012-11-06T07:44:20Z</time>
      </trkpt>
      <trkpt lat="-21.20721" lon="55.33082">
        <ele>766.63592529297</ele>
        <time>2012-11-06T07:44:22Z</time>
      </trkpt>
      <trkpt lat="-21.20725" lon="55.33082">
        <ele>765.93212890625</ele>
        <time>2012-11-06T07:44:24Z</time>
      </trkpt>
      <trkpt lat="-21.20727" lon="55.33081">
        <ele>766.37927246094</ele>
        <time>2012-11-06T07:44:25Z</time>
      </trkpt>
      <trkpt lat="-21.20729" lon="55.3308">
        <ele>767.82873535156</ele>
        <time>2012-11-06T07:44:26Z</time>
      </trkpt>
      <trkpt lat="-21.20731" lon="55.3308">
        <ele>768.05413818359</ele>
        <time>2012-11-06T07:44:27Z</time>
      </trkpt>
      <trkpt lat="-21.20733" lon="55.3308">
        <ele>762.37170410156</ele>
        <time>2012-11-06T07:44:29Z</time>
      </trkpt>
      <trkpt lat="-21.20734" lon="55.3308">
        <ele>762.25164794922</ele>
        <time>2012-11-06T07:44:30Z</time>
      </trkpt>
      <trkpt lat="-21.20734" lon="55.3308">
        <ele>760.78057861328</ele>
        <time>2012-11-06T07:44:31Z</time>
      </trkpt>
      <trkpt lat="-21.20735" lon="55.33081">
        <ele>764.31774902344</ele>
        <time>2012-11-06T07:44:32Z</time>
      </trkpt>
      <trkpt lat="-21.20739" lon="55.33082">
        <ele>763.19152832031</ele>
        <time>2012-11-06T07:44:34Z</time>
      </trkpt>
      <trkpt lat="-21.20742" lon="55.3308">
        <ele>765.74554443359</ele>
        <time>2012-11-06T07:44:36Z</time>
      </trkpt>
      <trkpt lat="-21.20744" lon="55.33077">
        <ele>765.8720703125</ele>
        <time>2012-11-06T07:44:38Z</time>
      </trkpt>
      <trkpt lat="-21.20747" lon="55.33077">
        <ele>767.06292724609</ele>
        <time>2012-11-06T07:44:40Z</time>
      </trkpt>
      <trkpt lat="-21.20749" lon="55.33078">
        <ele>764.71813964844</ele>
        <time>2012-11-06T07:44:41Z</time>
      </trkpt>
      <trkpt lat="-21.20749" lon="55.33078">
        <ele>761.12341308594</ele>
        <time>2012-11-06T07:44:42Z</time>
      </trkpt>
      <trkpt lat="-21.20752" lon="55.33079">
        <ele>761.71618652344</ele>
        <time>2012-11-06T07:44:44Z</time>
      </trkpt>
      <trkpt lat="-21.20757" lon="55.33079">
        <ele>758.79870605469</ele>
        <time>2012-11-06T07:44:46Z</time>
      </trkpt>
      <trkpt lat="-21.20758" lon="55.33078">
        <ele>756.94049072266</ele>
        <time>2012-11-06T07:44:47Z</time>
      </trkpt>
      <trkpt lat="-21.2076" lon="55.33076">
        <ele>757.80389404297</ele>
        <time>2012-11-06T07:44:48Z</time>
      </trkpt>
      <trkpt lat="-21.20761" lon="55.33073">
        <ele>754.64544677734</ele>
        <time>2012-11-06T07:44:49Z</time>
      </trkpt>
      <trkpt lat="-21.20761" lon="55.33072">
        <ele>752.02734375</ele>
        <time>2012-11-06T07:44:50Z</time>
      </trkpt>
      <trkpt lat="-21.20761" lon="55.33071">
        <ele>750.40698242188</ele>
        <time>2012-11-06T07:44:51Z</time>
      </trkpt>
      <trkpt lat="-21.20761" lon="55.33071">
        <ele>749.6845703125</ele>
        <time>2012-11-06T07:44:53Z</time>
      </trkpt>
      <trkpt lat="-21.20761" lon="55.33071">
        <ele>751.31170654297</ele>
        <time>2012-11-06T07:44:54Z</time>
      </trkpt>
      <trkpt lat="-21.20761" lon="55.33071">
        <ele>751.865234375</ele>
        <time>2012-11-06T07:44:56Z</time>
      </trkpt>
      <trkpt lat="-21.20762" lon="55.33071">
        <ele>754.34320068359</ele>
        <time>2012-11-06T07:44:58Z</time>
      </trkpt>
      <trkpt lat="-21.20762" lon="55.33071">
        <ele>753.28100585938</ele>
        <time>2012-11-06T07:45:00Z</time>
      </trkpt>
      <trkpt lat="-21.20762" lon="55.33071">
        <ele>753.28100585938</ele>
        <time>2012-11-06T07:45:00Z</time>
      </trkpt>
      <trkpt lat="-21.20762" lon="55.33071">
        <ele>753.28100585938</ele>
        <time>2012-11-06T07:45:00Z</time>
      </trkpt>
      <trkpt lat="-21.20762" lon="55.3307">
        <ele>752.55780029297</ele>
        <time>2012-11-06T07:45:01Z</time>
      </trkpt>
      <trkpt lat="-21.20762" lon="55.3307">
        <ele>752.55780029297</ele>
        <time>2012-11-06T07:45:01Z</time>
      </trkpt>
      <trkpt lat="-21.20762" lon="55.3307">
        <ele>751.51257324219</ele>
        <time>2012-11-06T07:45:03Z</time>
      </trkpt>
      <trkpt lat="-21.20762" lon="55.3307">
        <ele>751.51257324219</ele>
        <time>2012-11-06T07:45:03Z</time>
      </trkpt>
      <trkpt lat="-21.20762" lon="55.33068">
        <ele>751.89208984375</ele>
        <time>2012-11-06T07:45:05Z</time>
      </trkpt>
      <trkpt lat="-21.20762" lon="55.33068">
        <ele>751.89208984375</ele>
        <time>2012-11-06T07:45:05Z</time>
      </trkpt>
      <trkpt lat="-21.20762" lon="55.33067">
        <ele>751.5</ele>
        <time>2012-11-06T07:45:07Z</time>
      </trkpt>
      <trkpt lat="-21.20762" lon="55.33067">
        <ele>750.55865478516</ele>
        <time>2012-11-06T07:45:08Z</time>
      </trkpt>
      <trkpt lat="-21.20762" lon="55.33067">
        <ele>751.72723388672</ele>
        <time>2012-11-06T07:45:09Z</time>
      </trkpt>
      <trkpt lat="-21.20766" lon="55.33067">
        <ele>752.79132080078</ele>
        <time>2012-11-06T07:45:11Z</time>
      </trkpt>
      <trkpt lat="-21.20768" lon="55.33068">
        <ele>755.18579101562</ele>
        <time>2012-11-06T07:45:12Z</time>
      </trkpt>
      <trkpt lat="-21.20771" lon="55.33071">
        <ele>754.26403808594</ele>
        <time>2012-11-06T07:45:14Z</time>
      </trkpt>
      <trkpt lat="-21.20772" lon="55.33072">
        <ele>755.87713623047</ele>
        <time>2012-11-06T07:45:15Z</time>
      </trkpt>
      <trkpt lat="-21.20779" lon="55.33074">
        <ele>752.31195068359</ele>
        <time>2012-11-06T07:45:17Z</time>
      </trkpt>
      <trkpt lat="-21.2078" lon="55.33074">
        <ele>751.50720214844</ele>
        <time>2012-11-06T07:45:18Z</time>
      </trkpt>
      <trkpt lat="-21.20782" lon="55.33069">
        <ele>751.98773193359</ele>
        <time>2012-11-06T07:45:20Z</time>
      </trkpt>
      <trkpt lat="-21.20782" lon="55.33065">
        <ele>746.01251220703</ele>
        <time>2012-11-06T07:45:22Z</time>
      </trkpt>
      <trkpt lat="-21.20784" lon="55.33063">
        <ele>747.0849609375</ele>
        <time>2012-11-06T07:45:23Z</time>
      </trkpt>
      <trkpt lat="-21.20786" lon="55.33063">
        <ele>744.09613037109</ele>
        <time>2012-11-06T07:45:24Z</time>
      </trkpt>
      <trkpt lat="-21.20789" lon="55.33065">
        <ele>744.11608886719</ele>
        <time>2012-11-06T07:45:26Z</time>
      </trkpt>
      <trkpt lat="-21.20792" lon="55.33068">
        <ele>743.01843261719</ele>
        <time>2012-11-06T07:45:28Z</time>
      </trkpt>
      <trkpt lat="-21.20795" lon="55.33071">
        <ele>746.76055908203</ele>
        <time>2012-11-06T07:45:30Z</time>
      </trkpt>
      <trkpt lat="-21.20797" lon="55.33072">
        <ele>747.70501708984</ele>
        <time>2012-11-06T07:45:31Z</time>
      </trkpt>
      <trkpt lat="-21.20801" lon="55.33075">
        <ele>743.34075927734</ele>
        <time>2012-11-06T07:45:33Z</time>
      </trkpt>
      <trkpt lat="-21.20803" lon="55.33075">
        <ele>743.40069580078</ele>
        <time>2012-11-06T07:45:34Z</time>
      </trkpt>
      <trkpt lat="-21.20806" lon="55.33073">
        <ele>742.00073242188</ele>
        <time>2012-11-06T07:45:36Z</time>
      </trkpt>
      <trkpt lat="-21.20807" lon="55.3307">
        <ele>742.55383300781</ele>
        <time>2012-11-06T07:45:37Z</time>
      </trkpt>
      <trkpt lat="-21.20808" lon="55.33067">
        <ele>740.99621582031</ele>
        <time>2012-11-06T07:45:38Z</time>
      </trkpt>
      <trkpt lat="-21.20807" lon="55.33062">
        <ele>740.32458496094</ele>
        <time>2012-11-06T07:45:40Z</time>
      </trkpt>
      <trkpt lat="-21.20806" lon="55.33058">
        <ele>734.88745117188</ele>
        <time>2012-11-06T07:45:42Z</time>
      </trkpt>
      <trkpt lat="-21.20805" lon="55.33056">
        <ele>734.48828125</ele>
        <time>2012-11-06T07:45:43Z</time>
      </trkpt>
      <trkpt lat="-21.20805" lon="55.33052">
        <ele>735.25903320312</ele>
        <time>2012-11-06T07:45:45Z</time>
      </trkpt>
      <trkpt lat="-21.20805" lon="55.33051">
        <ele>732.93670654297</ele>
        <time>2012-11-06T07:45:46Z</time>
      </trkpt>
      <trkpt lat="-21.20805" lon="55.33051">
        <ele>731.30731201172</ele>
        <time>2012-11-06T07:45:47Z</time>
      </trkpt>
      <trkpt lat="-21.20804" lon="55.33049">
        <ele>732.86529541016</ele>
        <time>2012-11-06T07:45:49Z</time>
      </trkpt>
      <trkpt lat="-21.20802" lon="55.33047">
        <ele>729.43115234375</ele>
        <time>2012-11-06T07:45:51Z</time>
      </trkpt>
      <trkpt lat="-21.20801" lon="55.33045">
        <ele>728.39410400391</ele>
        <time>2012-11-06T07:45:52Z</time>
      </trkpt>
      <trkpt lat="-21.20797" lon="55.33041">
        <ele>728.60003662109</ele>
        <time>2012-11-06T07:45:54Z</time>
      </trkpt>
      <trkpt lat="-21.20795" lon="55.33039">
        <ele>726.984375</ele>
        <time>2012-11-06T07:45:55Z</time>
      </trkpt>
      <trkpt lat="-21.20791" lon="55.33037">
        <ele>728.26629638672</ele>
        <time>2012-11-06T07:45:57Z</time>
      </trkpt>
      <trkpt lat="-21.20791" lon="55.33037">
        <ele>727.81011962891</ele>
        <time>2012-11-06T07:45:59Z</time>
      </trkpt>
      <trkpt lat="-21.20791" lon="55.33037">
        <ele>724.60070800781</ele>
        <time>2012-11-06T07:46:01Z</time>
      </trkpt>
      <trkpt lat="-21.20791" lon="55.33037">
        <ele>723.71453857422</ele>
        <time>2012-11-06T07:46:02Z</time>
      </trkpt>
      <trkpt lat="-21.20791" lon="55.33037">
        <ele>723.77612304688</ele>
        <time>2012-11-06T07:46:03Z</time>
      </trkpt>
      <trkpt lat="-21.20791" lon="55.33037">
        <ele>724.57537841797</ele>
        <time>2012-11-06T07:46:04Z</time>
      </trkpt>
      <trkpt lat="-21.20791" lon="55.33037">
        <ele>724.57537841797</ele>
        <time>2012-11-06T07:46:04Z</time>
      </trkpt>
      <trkpt lat="-21.20791" lon="55.33037">
        <ele>724.57537841797</ele>
        <time>2012-11-06T07:46:04Z</time>
      </trkpt>
      <trkpt lat="-21.20789" lon="55.33037">
        <ele>722.88092041016</ele>
        <time>2012-11-06T07:46:06Z</time>
      </trkpt>
      <trkpt lat="-21.20789" lon="55.33037">
        <ele>722.88092041016</ele>
        <time>2012-11-06T07:46:06Z</time>
      </trkpt>
      <trkpt lat="-21.20787" lon="55.33037">
        <ele>725.68908691406</ele>
        <time>2012-11-06T07:46:07Z</time>
      </trkpt>
      <trkpt lat="-21.20787" lon="55.33037">
        <ele>724.33502197266</ele>
        <time>2012-11-06T07:46:09Z</time>
      </trkpt>
      <trkpt lat="-21.20787" lon="55.33035">
        <ele>725.61724853516</ele>
        <time>2012-11-06T07:46:10Z</time>
      </trkpt>
      <trkpt lat="-21.20787" lon="55.33034">
        <ele>729.01629638672</ele>
        <time>2012-11-06T07:46:12Z</time>
      </trkpt>
      <trkpt lat="-21.20788" lon="55.33033">
        <ele>727.85784912109</ele>
        <time>2012-11-06T07:46:14Z</time>
      </trkpt>
      <trkpt lat="-21.20788" lon="55.33032">
        <ele>724.35687255859</ele>
        <time>2012-11-06T07:46:16Z</time>
      </trkpt>
      <trkpt lat="-21.20788" lon="55.33032">
        <ele>725.14166259766</ele>
        <time>2012-11-06T07:46:17Z</time>
      </trkpt>
      <trkpt lat="-21.20789" lon="55.33032">
        <ele>722.388671875</ele>
        <time>2012-11-06T07:46:19Z</time>
      </trkpt>
      <trkpt lat="-21.20791" lon="55.33029">
        <ele>727.82598876953</ele>
        <time>2012-11-06T07:46:20Z</time>
      </trkpt>
      <trkpt lat="-21.20791" lon="55.33029">
        <ele>727.52667236328</ele>
        <time>2012-11-06T07:46:21Z</time>
      </trkpt>
      <trkpt lat="-21.20792" lon="55.33028">
        <ele>726.66821289062</ele>
        <time>2012-11-06T07:46:23Z</time>
      </trkpt>
      <trkpt lat="-21.20792" lon="55.33028">
        <ele>725.36590576172</ele>
        <time>2012-11-06T07:46:24Z</time>
      </trkpt>
      <trkpt lat="-21.20792" lon="55.33028">
        <ele>722.162109375</ele>
        <time>2012-11-06T07:46:25Z</time>
      </trkpt>
      <trkpt lat="-21.20792" lon="55.33028">
        <ele>719.93817138672</ele>
        <time>2012-11-06T07:46:27Z</time>
      </trkpt>
      <trkpt lat="-21.20792" lon="55.33028">
        <ele>720.912109375</ele>
        <time>2012-11-06T07:46:28Z</time>
      </trkpt>
      <trkpt lat="-21.20792" lon="55.33028">
        <ele>730.08489990234</ele>
        <time>2012-11-06T07:46:30Z</time>
      </trkpt>
      <trkpt lat="-21.20792" lon="55.33028">
        <ele>730.08489990234</ele>
        <time>2012-11-06T07:46:30Z</time>
      </trkpt>
      <trkpt lat="-21.20792" lon="55.33028">
        <ele>730.08489990234</ele>
        <time>2012-11-06T07:46:30Z</time>
      </trkpt>
      <trkpt lat="-21.20792" lon="55.33028">
        <ele>734.68902587891</ele>
        <time>2012-11-06T07:46:31Z</time>
      </trkpt>
      <trkpt lat="-21.20792" lon="55.33028">
        <ele>734.68902587891</ele>
        <time>2012-11-06T07:46:31Z</time>
      </trkpt>
      <trkpt lat="-21.20792" lon="55.33027">
        <ele>736.70367431641</ele>
        <time>2012-11-06T07:46:33Z</time>
      </trkpt>
      <trkpt lat="-21.20792" lon="55.33027">
        <ele>736.70367431641</ele>
        <time>2012-11-06T07:46:33Z</time>
      </trkpt>
      <trkpt lat="-21.20792" lon="55.33027">
        <ele>737.9296875</ele>
        <time>2012-11-06T07:46:34Z</time>
      </trkpt>
      <trkpt lat="-21.20792" lon="55.33027">
        <ele>737.9296875</ele>
        <time>2012-11-06T07:46:34Z</time>
      </trkpt>
      <trkpt lat="-21.20793" lon="55.33026">
        <ele>736.79608154297</ele>
        <time>2012-11-06T07:46:36Z</time>
      </trkpt>
      <trkpt lat="-21.20793" lon="55.33026">
        <ele>736.79608154297</ele>
        <time>2012-11-06T07:46:36Z</time>
      </trkpt>
      <trkpt lat="-21.20793" lon="55.33026">
        <ele>734.15374755859</ele>
        <time>2012-11-06T07:46:38Z</time>
      </trkpt>
      <trkpt lat="-21.20793" lon="55.33026">
        <ele>734.15374755859</ele>
        <time>2012-11-06T07:46:38Z</time>
      </trkpt>
      <trkpt lat="-21.20795" lon="55.33025">
        <ele>733.18615722656</ele>
        <time>2012-11-06T07:46:40Z</time>
      </trkpt>
      <trkpt lat="-21.20795" lon="55.33025">
        <ele>733.18615722656</ele>
        <time>2012-11-06T07:46:40Z</time>
      </trkpt>
      <trkpt lat="-21.20796" lon="55.33024">
        <ele>734.01483154297</ele>
        <time>2012-11-06T07:46:42Z</time>
      </trkpt>
      <trkpt lat="-21.20796" lon="55.33024">
        <ele>734.01483154297</ele>
        <time>2012-11-06T07:46:42Z</time>
      </trkpt>
      <trkpt lat="-21.20796" lon="55.33024">
        <ele>732.85070800781</ele>
        <time>2012-11-06T07:46:44Z</time>
      </trkpt>
      <trkpt lat="-21.20797" lon="55.33023">
        <ele>724.25079345703</ele>
        <time>2012-11-06T07:46:46Z</time>
      </trkpt>
      <trkpt lat="-21.20797" lon="55.33023">
        <ele>717.86236572266</ele>
        <time>2012-11-06T07:46:48Z</time>
      </trkpt>
      <trkpt lat="-21.20797" lon="55.33023">
        <ele>715.17205810547</ele>
        <time>2012-11-06T07:46:49Z</time>
      </trkpt>
      <trkpt lat="-21.20797" lon="55.33023">
        <ele>715.17205810547</ele>
        <time>2012-11-06T07:46:49Z</time>
      </trkpt>
      <trkpt lat="-21.20797" lon="55.33023">
        <ele>715.17205810547</ele>
        <time>2012-11-06T07:46:49Z</time>
      </trkpt>
      <trkpt lat="-21.20797" lon="55.33023">
        <ele>714.25433349609</ele>
        <time>2012-11-06T07:46:51Z</time>
      </trkpt>
      <trkpt lat="-21.20797" lon="55.33023">
        <ele>714.25433349609</ele>
        <time>2012-11-06T07:46:51Z</time>
      </trkpt>
      <trkpt lat="-21.208" lon="55.33028">
        <ele>716.33636474609</ele>
        <time>2012-11-06T07:46:53Z</time>
      </trkpt>
      <trkpt lat="-21.208" lon="55.33028">
        <ele>716.33636474609</ele>
        <time>2012-11-06T07:46:53Z</time>
      </trkpt>
      <trkpt lat="-21.208" lon="55.33028">
        <ele>720.00177001953</ele>
        <time>2012-11-06T07:46:55Z</time>
      </trkpt>
      <trkpt lat="-21.208" lon="55.33028">
        <ele>720.00177001953</ele>
        <time>2012-11-06T07:46:55Z</time>
      </trkpt>
      <trkpt lat="-21.20802" lon="55.33026">
        <ele>719.0927734375</ele>
        <time>2012-11-06T07:46:57Z</time>
      </trkpt>
      <trkpt lat="-21.20808" lon="55.33028">
        <ele>717.31890869141</ele>
        <time>2012-11-06T07:46:59Z</time>
      </trkpt>
      <trkpt lat="-21.20815" lon="55.33033">
        <ele>718.07415771484</ele>
        <time>2012-11-06T07:47:01Z</time>
      </trkpt>
      <trkpt lat="-21.20818" lon="55.33035">
        <ele>716.25561523438</ele>
        <time>2012-11-06T07:47:02Z</time>
      </trkpt>
      <trkpt lat="-21.2082" lon="55.33037">
        <ele>715.12365722656</ele>
        <time>2012-11-06T07:47:03Z</time>
      </trkpt>
      <trkpt lat="-21.20831" lon="55.3304">
        <ele>719.18408203125</ele>
        <time>2012-11-06T07:47:05Z</time>
      </trkpt>
      <trkpt lat="-21.20836" lon="55.33042">
        <ele>719.47888183594</ele>
        <time>2012-11-06T07:47:06Z</time>
      </trkpt>
      <trkpt lat="-21.20845" lon="55.33046">
        <ele>721.05926513672</ele>
        <time>2012-11-06T07:47:08Z</time>
      </trkpt>
      <trkpt lat="-21.20857" lon="55.33049">
        <ele>722.98291015625</ele>
        <time>2012-11-06T07:47:10Z</time>
      </trkpt>
      <trkpt lat="-21.20863" lon="55.3305">
        <ele>721.41656494141</ele>
        <time>2012-11-06T07:47:11Z</time>
      </trkpt>
      <trkpt lat="-21.20868" lon="55.33053">
        <ele>723.95874023438</ele>
        <time>2012-11-06T07:47:12Z</time>
      </trkpt>
      <trkpt lat="-21.20874" lon="55.33059">
        <ele>721.154296875</ele>
        <time>2012-11-06T07:47:13Z</time>
      </trkpt>
      <trkpt lat="-21.20875" lon="55.33063">
        <ele>719.22277832031</ele>
        <time>2012-11-06T07:47:15Z</time>
      </trkpt>
      <trkpt lat="-21.20876" lon="55.33066">
        <ele>720.40051269531</ele>
        <time>2012-11-06T07:47:16Z</time>
      </trkpt>
      <trkpt lat="-21.20883" lon="55.3307">
        <ele>712.28460693359</ele>
        <time>2012-11-06T07:47:18Z</time>
      </trkpt>
      <trkpt lat="-21.2089" lon="55.33066">
        <ele>707.60943603516</ele>
        <time>2012-11-06T07:47:20Z</time>
      </trkpt>
      <trkpt lat="-21.20892" lon="55.3306">
        <ele>707.20025634766</ele>
        <time>2012-11-06T07:47:21Z</time>
      </trkpt>
      <trkpt lat="-21.20893" lon="55.33048">
        <ele>700.94812011719</ele>
        <time>2012-11-06T07:47:23Z</time>
      </trkpt>
      <trkpt lat="-21.20893" lon="55.33042">
        <ele>698.36419677734</ele>
        <time>2012-11-06T07:47:24Z</time>
      </trkpt>
      <trkpt lat="-21.20892" lon="55.33031">
        <ele>696.75262451172</ele>
        <time>2012-11-06T07:47:26Z</time>
      </trkpt>
      <trkpt lat="-21.20893" lon="55.33029">
        <ele>699.16174316406</ele>
        <time>2012-11-06T07:47:27Z</time>
      </trkpt>
      <trkpt lat="-21.20896" lon="55.33029">
        <ele>698.05932617188</ele>
        <time>2012-11-06T07:47:28Z</time>
      </trkpt>
      <trkpt lat="-21.20899" lon="55.33031">
        <ele>698.36920166016</ele>
        <time>2012-11-06T07:47:30Z</time>
      </trkpt>
      <trkpt lat="-21.20901" lon="55.33033">
        <ele>697.54241943359</ele>
        <time>2012-11-06T07:47:31Z</time>
      </trkpt>
      <trkpt lat="-21.20903" lon="55.33039">
        <ele>697.24676513672</ele>
        <time>2012-11-06T07:47:33Z</time>
      </trkpt>
      <trkpt lat="-21.20905" lon="55.3304">
        <ele>696.88775634766</ele>
        <time>2012-11-06T07:47:34Z</time>
      </trkpt>
      <trkpt lat="-21.20909" lon="55.33037">
        <ele>696.92425537109</ele>
        <time>2012-11-06T07:47:36Z</time>
      </trkpt>
      <trkpt lat="-21.2091" lon="55.33034">
        <ele>694.42071533203</ele>
        <time>2012-11-06T07:47:37Z</time>
      </trkpt>
      <trkpt lat="-21.20911" lon="55.33031">
        <ele>692.75152587891</ele>
        <time>2012-11-06T07:47:38Z</time>
      </trkpt>
      <trkpt lat="-21.20913" lon="55.33025">
        <ele>693.02459716797</ele>
        <time>2012-11-06T07:47:40Z</time>
      </trkpt>
      <trkpt lat="-21.20919" lon="55.33021">
        <ele>690.96606445312</ele>
        <time>2012-11-06T07:47:42Z</time>
      </trkpt>
      <trkpt lat="-21.20923" lon="55.33022">
        <ele>690.09423828125</ele>
        <time>2012-11-06T07:47:43Z</time>
      </trkpt>
      <trkpt lat="-21.20924" lon="55.33024">
        <ele>690.69494628906</ele>
        <time>2012-11-06T07:47:44Z</time>
      </trkpt>
      <trkpt lat="-21.20928" lon="55.33029">
        <ele>688.06072998047</ele>
        <time>2012-11-06T07:47:46Z</time>
      </trkpt>
      <trkpt lat="-21.2093" lon="55.33028">
        <ele>685.859375</ele>
        <time>2012-11-06T07:47:47Z</time>
      </trkpt>
      <trkpt lat="-21.20933" lon="55.33026">
        <ele>684.76354980469</ele>
        <time>2012-11-06T07:47:48Z</time>
      </trkpt>
      <trkpt lat="-21.2094" lon="55.3302">
        <ele>681.65679931641</ele>
        <time>2012-11-06T07:47:50Z</time>
      </trkpt>
      <trkpt lat="-21.20948" lon="55.33012">
        <ele>679.79919433594</ele>
        <time>2012-11-06T07:47:52Z</time>
      </trkpt>
      <trkpt lat="-21.20951" lon="55.33008">
        <ele>678.533203125</ele>
        <time>2012-11-06T07:47:53Z</time>
      </trkpt>
      <trkpt lat="-21.2096" lon="55.33001">
        <ele>674.85437011719</ele>
        <time>2012-11-06T07:47:54Z</time>
      </trkpt>
      <trkpt lat="-21.20965" lon="55.32998">
        <ele>672.77526855469</ele>
        <time>2012-11-06T07:47:56Z</time>
      </trkpt>
      <trkpt lat="-21.2097" lon="55.32995">
        <ele>670.95178222656</ele>
        <time>2012-11-06T07:47:57Z</time>
      </trkpt>
      <trkpt lat="-21.20979" lon="55.32989">
        <ele>668.22210693359</ele>
        <time>2012-11-06T07:47:59Z</time>
      </trkpt>
      <trkpt lat="-21.20986" lon="55.32984">
        <ele>665.80999755859</ele>
        <time>2012-11-06T07:48:01Z</time>
      </trkpt>
      <trkpt lat="-21.20992" lon="55.32978">
        <ele>664.30493164062</ele>
        <time>2012-11-06T07:48:03Z</time>
      </trkpt>
      <trkpt lat="-21.20998" lon="55.32973">
        <ele>661.77056884766</ele>
        <time>2012-11-06T07:48:05Z</time>
      </trkpt>
      <trkpt lat="-21.21001" lon="55.32969">
        <ele>660.79260253906</ele>
        <time>2012-11-06T07:48:06Z</time>
      </trkpt>
      <trkpt lat="-21.21007" lon="55.32962">
        <ele>658.34069824219</ele>
        <time>2012-11-06T07:48:08Z</time>
      </trkpt>
      <trkpt lat="-21.21015" lon="55.32956">
        <ele>655.99328613281</ele>
        <time>2012-11-06T07:48:10Z</time>
      </trkpt>
      <trkpt lat="-21.21023" lon="55.32949">
        <ele>653.58233642578</ele>
        <time>2012-11-06T07:48:12Z</time>
      </trkpt>
      <trkpt lat="-21.21026" lon="55.32946">
        <ele>652.19598388672</ele>
        <time>2012-11-06T07:48:13Z</time>
      </trkpt>
      <trkpt lat="-21.21029" lon="55.3294">
        <ele>649.60498046875</ele>
        <time>2012-11-06T07:48:15Z</time>
      </trkpt>
      <trkpt lat="-21.21029" lon="55.32939">
        <ele>649.59118652344</ele>
        <time>2012-11-06T07:48:16Z</time>
      </trkpt>
      <trkpt lat="-21.21029" lon="55.32939">
        <ele>649.47259521484</ele>
        <time>2012-11-06T07:48:17Z</time>
      </trkpt>
      <trkpt lat="-21.21029" lon="55.32939">
        <ele>648.82244873047</ele>
        <time>2012-11-06T07:48:19Z</time>
      </trkpt>
      <trkpt lat="-21.21029" lon="55.32939">
        <ele>646.74438476562</ele>
        <time>2012-11-06T07:48:21Z</time>
      </trkpt>
      <trkpt lat="-21.2103" lon="55.32939">
        <ele>650.63775634766</ele>
        <time>2012-11-06T07:48:22Z</time>
      </trkpt>
      <trkpt lat="-21.2103" lon="55.32939">
        <ele>657.11883544922</ele>
        <time>2012-11-06T07:48:24Z</time>
      </trkpt>
      <trkpt lat="-21.2103" lon="55.32939">
        <ele>657.11883544922</ele>
        <time>2012-11-06T07:48:24Z</time>
      </trkpt>
      <trkpt lat="-21.2103" lon="55.32939">
        <ele>657.11883544922</ele>
        <time>2012-11-06T07:48:24Z</time>
      </trkpt>
      <trkpt lat="-21.21027" lon="55.32943">
        <ele>654.86199951172</ele>
        <time>2012-11-06T07:48:25Z</time>
      </trkpt>
      <trkpt lat="-21.21027" lon="55.32943">
        <ele>654.86199951172</ele>
        <time>2012-11-06T07:48:25Z</time>
      </trkpt>
      <trkpt lat="-21.21027" lon="55.32943">
        <ele>650.97454833984</ele>
        <time>2012-11-06T07:48:27Z</time>
      </trkpt>
      <trkpt lat="-21.21027" lon="55.32943">
        <ele>650.74310302734</ele>
        <time>2012-11-06T07:48:28Z</time>
      </trkpt>
      <trkpt lat="-21.21027" lon="55.32943">
        <ele>649.89636230469</ele>
        <time>2012-11-06T07:48:30Z</time>
      </trkpt>
      <trkpt lat="-21.21027" lon="55.32943">
        <ele>649.16619873047</ele>
        <time>2012-11-06T07:48:31Z</time>
      </trkpt>
      <trkpt lat="-21.21027" lon="55.32943">
        <ele>648.53625488281</ele>
        <time>2012-11-06T07:48:32Z</time>
      </trkpt>
      <trkpt lat="-21.21027" lon="55.32943">
        <ele>648.53625488281</ele>
        <time>2012-11-06T07:48:32Z</time>
      </trkpt>
      <trkpt lat="-21.21027" lon="55.32943">
        <ele>648.53625488281</ele>
        <time>2012-11-06T07:48:32Z</time>
      </trkpt>
      <trkpt lat="-21.21027" lon="55.32943">
        <ele>647.67346191406</ele>
        <time>2012-11-06T07:48:33Z</time>
      </trkpt>
      <trkpt lat="-21.21027" lon="55.32943">
        <ele>647.67346191406</ele>
        <time>2012-11-06T07:48:33Z</time>
      </trkpt>
      <trkpt lat="-21.21027" lon="55.32943">
        <ele>649.01147460938</ele>
        <time>2012-11-06T07:48:35Z</time>
      </trkpt>
      <trkpt lat="-21.21027" lon="55.32943">
        <ele>649.01147460938</ele>
        <time>2012-11-06T07:48:35Z</time>
      </trkpt>
      <trkpt lat="-21.21027" lon="55.32943">
        <ele>650.13781738281</ele>
        <time>2012-11-06T07:48:36Z</time>
      </trkpt>
      <trkpt lat="-21.21027" lon="55.32943">
        <ele>650.13781738281</ele>
        <time>2012-11-06T07:48:36Z</time>
      </trkpt>
      <trkpt lat="-21.21027" lon="55.32943">
        <ele>651.2529296875</ele>
        <time>2012-11-06T07:48:38Z</time>
      </trkpt>
      <trkpt lat="-21.21027" lon="55.32943">
        <ele>651.2529296875</ele>
        <time>2012-11-06T07:48:38Z</time>
      </trkpt>
      <trkpt lat="-21.21027" lon="55.32943">
        <ele>649.49011230469</ele>
        <time>2012-11-06T07:48:39Z</time>
      </trkpt>
      <trkpt lat="-21.21027" lon="55.32943">
        <ele>649.49011230469</ele>
        <time>2012-11-06T07:48:39Z</time>
      </trkpt>
      <trkpt lat="-21.21027" lon="55.32943">
        <ele>649.48742675781</ele>
        <time>2012-11-06T07:48:40Z</time>
      </trkpt>
      <trkpt lat="-21.21027" lon="55.32943">
        <ele>649.48742675781</ele>
        <time>2012-11-06T07:48:40Z</time>
      </trkpt>
      <trkpt lat="-21.21027" lon="55.32943">
        <ele>646.32482910156</ele>
        <time>2012-11-06T07:48:42Z</time>
      </trkpt>
      <trkpt lat="-21.21027" lon="55.32943">
        <ele>646.32482910156</ele>
        <time>2012-11-06T07:48:42Z</time>
      </trkpt>
      <trkpt lat="-21.21027" lon="55.32943">
        <ele>644.96008300781</ele>
        <time>2012-11-06T07:48:44Z</time>
      </trkpt>
      <trkpt lat="-21.21027" lon="55.32943">
        <ele>644.96008300781</ele>
        <time>2012-11-06T07:48:44Z</time>
      </trkpt>
      <trkpt lat="-21.21027" lon="55.32943">
        <ele>646.61102294922</ele>
        <time>2012-11-06T07:48:46Z</time>
      </trkpt>
      <trkpt lat="-21.21027" lon="55.32943">
        <ele>646.61102294922</ele>
        <time>2012-11-06T07:48:46Z</time>
      </trkpt>
      <trkpt lat="-21.21027" lon="55.32943">
        <ele>646.82434082031</ele>
        <time>2012-11-06T07:48:47Z</time>
      </trkpt>
      <trkpt lat="-21.21027" lon="55.32943">
        <ele>646.82434082031</ele>
        <time>2012-11-06T07:48:47Z</time>
      </trkpt>
      <trkpt lat="-21.21027" lon="55.32943">
        <ele>649.85675048828</ele>
        <time>2012-11-06T07:48:49Z</time>
      </trkpt>
      <trkpt lat="-21.21027" lon="55.32943">
        <ele>649.85675048828</ele>
        <time>2012-11-06T07:48:49Z</time>
      </trkpt>
      <trkpt lat="-21.21027" lon="55.32943">
        <ele>650.88458251953</ele>
        <time>2012-11-06T07:48:50Z</time>
      </trkpt>
      <trkpt lat="-21.21027" lon="55.32943">
        <ele>650.88458251953</ele>
        <time>2012-11-06T07:48:50Z</time>
      </trkpt>
      <trkpt lat="-21.21028" lon="55.32943">
        <ele>649.87445068359</ele>
        <time>2012-11-06T07:48:51Z</time>
      </trkpt>
      <trkpt lat="-21.21028" lon="55.32943">
        <ele>649.87445068359</ele>
        <time>2012-11-06T07:48:51Z</time>
      </trkpt>
      <trkpt lat="-21.21028" lon="55.32943">
        <ele>650.24017333984</ele>
        <time>2012-11-06T07:48:53Z</time>
      </trkpt>
      <trkpt lat="-21.21028" lon="55.32943">
        <ele>650.24017333984</ele>
        <time>2012-11-06T07:48:53Z</time>
      </trkpt>
      <trkpt lat="-21.21031" lon="55.3294">
        <ele>652.09771728516</ele>
        <time>2012-11-06T07:48:55Z</time>
      </trkpt>
      <trkpt lat="-21.21031" lon="55.3294">
        <ele>652.09771728516</ele>
        <time>2012-11-06T07:48:55Z</time>
      </trkpt>
      <trkpt lat="-21.21036" lon="55.32934">
        <ele>650.66040039062</ele>
        <time>2012-11-06T07:48:57Z</time>
      </trkpt>
      <trkpt lat="-21.21038" lon="55.32932">
        <ele>649.33605957031</ele>
        <time>2012-11-06T07:48:58Z</time>
      </trkpt>
      <trkpt lat="-21.21042" lon="55.32926">
        <ele>647.83239746094</ele>
        <time>2012-11-06T07:49:00Z</time>
      </trkpt>
      <trkpt lat="-21.21044" lon="55.32924">
        <ele>647.24951171875</ele>
        <time>2012-11-06T07:49:01Z</time>
      </trkpt>
      <trkpt lat="-21.21047" lon="55.32919">
        <ele>644.59295654297</ele>
        <time>2012-11-06T07:49:02Z</time>
      </trkpt>
      <trkpt lat="-21.21049" lon="55.32917">
        <ele>643.20227050781</ele>
        <time>2012-11-06T07:49:04Z</time>
      </trkpt>
      <trkpt lat="-21.21052" lon="55.32911">
        <ele>640.24267578125</ele>
        <time>2012-11-06T07:49:06Z</time>
      </trkpt>
      <trkpt lat="-21.21052" lon="55.32905">
        <ele>638.78527832031</ele>
        <time>2012-11-06T07:49:08Z</time>
      </trkpt>
      <trkpt lat="-21.21051" lon="55.32901">
        <ele>638.22540283203</ele>
        <time>2012-11-06T07:49:10Z</time>
      </trkpt>
      <trkpt lat="-21.21052" lon="55.32901">
        <ele>640.47546386719</ele>
        <time>2012-11-06T07:49:11Z</time>
      </trkpt>
      <trkpt lat="-21.21053" lon="55.32901">
        <ele>640.0595703125</ele>
        <time>2012-11-06T07:49:13Z</time>
      </trkpt>
      <trkpt lat="-21.21053" lon="55.32901">
        <ele>639.2734375</ele>
        <time>2012-11-06T07:49:14Z</time>
      </trkpt>
      <trkpt lat="-21.21053" lon="55.32901">
        <ele>637.89123535156</ele>
        <time>2012-11-06T07:49:16Z</time>
      </trkpt>
      <trkpt lat="-21.21053" lon="55.32901">
        <ele>638.69207763672</ele>
        <time>2012-11-06T07:49:17Z</time>
      </trkpt>
      <trkpt lat="-21.21053" lon="55.32901">
        <ele>639.70196533203</ele>
        <time>2012-11-06T07:49:19Z</time>
      </trkpt>
      <trkpt lat="-21.21053" lon="55.32901">
        <ele>639.70196533203</ele>
        <time>2012-11-06T07:49:19Z</time>
      </trkpt>
      <trkpt lat="-21.21053" lon="55.32901">
        <ele>639.70196533203</ele>
        <time>2012-11-06T07:49:19Z</time>
      </trkpt>
      <trkpt lat="-21.21053" lon="55.32901">
        <ele>639.76629638672</ele>
        <time>2012-11-06T07:49:20Z</time>
      </trkpt>
      <trkpt lat="-21.21053" lon="55.32901">
        <ele>639.76629638672</ele>
        <time>2012-11-06T07:49:20Z</time>
      </trkpt>
      <trkpt lat="-21.21053" lon="55.32902">
        <ele>639.32940673828</ele>
        <time>2012-11-06T07:49:22Z</time>
      </trkpt>
      <trkpt lat="-21.21053" lon="55.32902">
        <ele>639.32940673828</ele>
        <time>2012-11-06T07:49:22Z</time>
      </trkpt>
      <trkpt lat="-21.21052" lon="55.32902">
        <ele>642.44946289062</ele>
        <time>2012-11-06T07:49:23Z</time>
      </trkpt>
      <trkpt lat="-21.21052" lon="55.32902">
        <ele>642.44946289062</ele>
        <time>2012-11-06T07:49:23Z</time>
      </trkpt>
      <trkpt lat="-21.21052" lon="55.32902">
        <ele>644.59222412109</ele>
        <time>2012-11-06T07:49:25Z</time>
      </trkpt>
      <trkpt lat="-21.21052" lon="55.32902">
        <ele>644.81494140625</ele>
        <time>2012-11-06T07:49:27Z</time>
      </trkpt>
      <trkpt lat="-21.21052" lon="55.32902">
        <ele>644.81494140625</ele>
        <time>2012-11-06T07:49:27Z</time>
      </trkpt>
      <trkpt lat="-21.21052" lon="55.32902">
        <ele>644.81494140625</ele>
        <time>2012-11-06T07:49:27Z</time>
      </trkpt>
      <trkpt lat="-21.21052" lon="55.32902">
        <ele>642.04663085938</ele>
        <time>2012-11-06T07:49:28Z</time>
      </trkpt>
      <trkpt lat="-21.21052" lon="55.32902">
        <ele>642.04663085938</ele>
        <time>2012-11-06T07:49:28Z</time>
      </trkpt>
      <trkpt lat="-21.21052" lon="55.32902">
        <ele>638.01263427734</ele>
        <time>2012-11-06T07:49:30Z</time>
      </trkpt>
      <trkpt lat="-21.21052" lon="55.32902">
        <ele>638.01263427734</ele>
        <time>2012-11-06T07:49:30Z</time>
      </trkpt>
      <trkpt lat="-21.21052" lon="55.32902">
        <ele>639.92077636719</ele>
        <time>2012-11-06T07:49:31Z</time>
      </trkpt>
      <trkpt lat="-21.21052" lon="55.32902">
        <ele>639.92077636719</ele>
        <time>2012-11-06T07:49:31Z</time>
      </trkpt>
      <trkpt lat="-21.21052" lon="55.32901">
        <ele>636.56549072266</ele>
        <time>2012-11-06T07:49:33Z</time>
      </trkpt>
      <trkpt lat="-21.21052" lon="55.32901">
        <ele>636.56549072266</ele>
        <time>2012-11-06T07:49:33Z</time>
      </trkpt>
      <trkpt lat="-21.21051" lon="55.32901">
        <ele>633.57177734375</ele>
        <time>2012-11-06T07:49:35Z</time>
      </trkpt>
      <trkpt lat="-21.21051" lon="55.32901">
        <ele>633.57177734375</ele>
        <time>2012-11-06T07:49:35Z</time>
      </trkpt>
      <trkpt lat="-21.21051" lon="55.32901">
        <ele>632.83343505859</ele>
        <time>2012-11-06T07:49:36Z</time>
      </trkpt>
      <trkpt lat="-21.21051" lon="55.32901">
        <ele>632.83343505859</ele>
        <time>2012-11-06T07:49:36Z</time>
      </trkpt>
      <trkpt lat="-21.21051" lon="55.329">
        <ele>631.59985351562</ele>
        <time>2012-11-06T07:49:38Z</time>
      </trkpt>
      <trkpt lat="-21.21051" lon="55.329">
        <ele>631.59985351562</ele>
        <time>2012-11-06T07:49:38Z</time>
      </trkpt>
      <trkpt lat="-21.2105" lon="55.32899">
        <ele>631.49530029297</ele>
        <time>2012-11-06T07:49:39Z</time>
      </trkpt>
      <trkpt lat="-21.21048" lon="55.32895">
        <ele>633.07940673828</ele>
        <time>2012-11-06T07:49:41Z</time>
      </trkpt>
      <trkpt lat="-21.21047" lon="55.32893">
        <ele>634.36114501953</ele>
        <time>2012-11-06T07:49:42Z</time>
      </trkpt>
      <trkpt lat="-21.21046" lon="55.3289">
        <ele>639.36779785156</ele>
        <time>2012-11-06T07:49:44Z</time>
      </trkpt>
      <trkpt lat="-21.21045" lon="55.32888">
        <ele>640.49487304688</ele>
        <time>2012-11-06T07:49:45Z</time>
      </trkpt>
      <trkpt lat="-21.21044" lon="55.32886">
        <ele>641.46270751953</ele>
        <time>2012-11-06T07:49:46Z</time>
      </trkpt>
      <trkpt lat="-21.21043" lon="55.32882">
        <ele>639.54803466797</ele>
        <time>2012-11-06T07:49:48Z</time>
      </trkpt>
      <trkpt lat="-21.21042" lon="55.32881">
        <ele>638.24566650391</ele>
        <time>2012-11-06T07:49:49Z</time>
      </trkpt>
      <trkpt lat="-21.2104" lon="55.32879">
        <ele>639.12518310547</ele>
        <time>2012-11-06T07:49:51Z</time>
      </trkpt>
      <trkpt lat="-21.2104" lon="55.32879">
        <ele>639.7587890625</ele>
        <time>2012-11-06T07:49:53Z</time>
      </trkpt>
      <trkpt lat="-21.21041" lon="55.32879">
        <ele>639.43603515625</ele>
        <time>2012-11-06T07:49:54Z</time>
      </trkpt>
      <trkpt lat="-21.21041" lon="55.32879">
        <ele>636.72686767578</ele>
        <time>2012-11-06T07:49:55Z</time>
      </trkpt>
      <trkpt lat="-21.21043" lon="55.32882">
        <ele>633.57666015625</ele>
        <time>2012-11-06T07:49:57Z</time>
      </trkpt>
      <trkpt lat="-21.21044" lon="55.32883">
        <ele>633.35772705078</ele>
        <time>2012-11-06T07:49:58Z</time>
      </trkpt>
      <trkpt lat="-21.21044" lon="55.32886">
        <ele>634.18157958984</ele>
        <time>2012-11-06T07:50:00Z</time>
      </trkpt>
      <trkpt lat="-21.21045" lon="55.32888">
        <ele>634.19671630859</ele>
        <time>2012-11-06T07:50:01Z</time>
      </trkpt>
      <trkpt lat="-21.21046" lon="55.32891">
        <ele>633.61419677734</ele>
        <time>2012-11-06T07:50:03Z</time>
      </trkpt>
      <trkpt lat="-21.21046" lon="55.32893">
        <ele>633.35455322266</ele>
        <time>2012-11-06T07:50:04Z</time>
      </trkpt>
      <trkpt lat="-21.21047" lon="55.32895">
        <ele>633.48663330078</ele>
        <time>2012-11-06T07:50:06Z</time>
      </trkpt>
      <trkpt lat="-21.2105" lon="55.32894">
        <ele>634.22509765625</ele>
        <time>2012-11-06T07:50:08Z</time>
      </trkpt>
      <trkpt lat="-21.21052" lon="55.32892">
        <ele>634.02142333984</ele>
        <time>2012-11-06T07:50:09Z</time>
      </trkpt>
      <trkpt lat="-21.21053" lon="55.32891">
        <ele>634.0791015625</ele>
        <time>2012-11-06T07:50:10Z</time>
      </trkpt>
      <trkpt lat="-21.21057" lon="55.32888">
        <ele>632.51977539062</ele>
        <time>2012-11-06T07:50:12Z</time>
      </trkpt>
      <trkpt lat="-21.21061" lon="55.32885">
        <ele>630.08374023438</ele>
        <time>2012-11-06T07:50:14Z</time>
      </trkpt>
      <trkpt lat="-21.21066" lon="55.32883">
        <ele>628.27490234375</ele>
        <time>2012-11-06T07:50:16Z</time>
      </trkpt>
      <trkpt lat="-21.21073" lon="55.32882">
        <ele>625.48040771484</ele>
        <time>2012-11-06T07:50:18Z</time>
      </trkpt>
      <trkpt lat="-21.21081" lon="55.32882">
        <ele>622.0791015625</ele>
        <time>2012-11-06T07:50:19Z</time>
      </trkpt>
      <trkpt lat="-21.2109" lon="55.32881">
        <ele>617.84826660156</ele>
        <time>2012-11-06T07:50:21Z</time>
      </trkpt>
      <trkpt lat="-21.21093" lon="55.32879">
        <ele>616.98333740234</ele>
        <time>2012-11-06T07:50:22Z</time>
      </trkpt>
      <trkpt lat="-21.21098" lon="55.32878">
        <ele>613.81457519531</ele>
        <time>2012-11-06T07:50:24Z</time>
      </trkpt>
      <trkpt lat="-21.211" lon="55.32876">
        <ele>614.87072753906</ele>
        <time>2012-11-06T07:50:25Z</time>
      </trkpt>
      <trkpt lat="-21.21105" lon="55.32875">
        <ele>613.04833984375</ele>
        <time>2012-11-06T07:50:27Z</time>
      </trkpt>
      <trkpt lat="-21.21108" lon="55.32875">
        <ele>611.82806396484</ele>
        <time>2012-11-06T07:50:28Z</time>
      </trkpt>
      <trkpt lat="-21.21114" lon="55.32873">
        <ele>610.79919433594</ele>
        <time>2012-11-06T07:50:30Z</time>
      </trkpt>
      <trkpt lat="-21.2112" lon="55.32871">
        <ele>606.92749023438</ele>
        <time>2012-11-06T07:50:32Z</time>
      </trkpt>
      <trkpt lat="-21.21126" lon="55.3287">
        <ele>604.30377197266</ele>
        <time>2012-11-06T07:50:34Z</time>
      </trkpt>
      <trkpt lat="-21.21128" lon="55.32868">
        <ele>603.00054931641</ele>
        <time>2012-11-06T07:50:36Z</time>
      </trkpt>
      <trkpt lat="-21.21132" lon="55.32866">
        <ele>601.19659423828</ele>
        <time>2012-11-06T07:50:38Z</time>
      </trkpt>
      <trkpt lat="-21.21136" lon="55.32864">
        <ele>598.67352294922</ele>
        <time>2012-11-06T07:50:40Z</time>
      </trkpt>
      <trkpt lat="-21.21138" lon="55.32863">
        <ele>599.33874511719</ele>
        <time>2012-11-06T07:50:41Z</time>
      </trkpt>
      <trkpt lat="-21.21139" lon="55.32862">
        <ele>601.93243408203</ele>
        <time>2012-11-06T07:50:43Z</time>
      </trkpt>
      <trkpt lat="-21.21139" lon="55.32862">
        <ele>599.57592773438</ele>
        <time>2012-11-06T07:50:45Z</time>
      </trkpt>
      <trkpt lat="-21.21139" lon="55.32862">
        <ele>598.35101318359</ele>
        <time>2012-11-06T07:50:46Z</time>
      </trkpt>
      <trkpt lat="-21.21139" lon="55.32862">
        <ele>600.76678466797</ele>
        <time>2012-11-06T07:50:47Z</time>
      </trkpt>
      <trkpt lat="-21.21139" lon="55.32862">
        <ele>599.86114501953</ele>
        <time>2012-11-06T07:50:48Z</time>
      </trkpt>
      <trkpt lat="-21.21139" lon="55.32862">
        <ele>601.59887695312</ele>
        <time>2012-11-06T07:50:49Z</time>
      </trkpt>
      <trkpt lat="-21.21139" lon="55.32862">
        <ele>601.59887695312</ele>
        <time>2012-11-06T07:50:49Z</time>
      </trkpt>
      <trkpt lat="-21.21139" lon="55.32862">
        <ele>601.59887695312</ele>
        <time>2012-11-06T07:50:49Z</time>
      </trkpt>
      <trkpt lat="-21.21139" lon="55.32862">
        <ele>599.59661865234</ele>
        <time>2012-11-06T07:50:51Z</time>
      </trkpt>
      <trkpt lat="-21.21139" lon="55.32862">
        <ele>599.59661865234</ele>
        <time>2012-11-06T07:50:51Z</time>
      </trkpt>
      <trkpt lat="-21.2114" lon="55.32862">
        <ele>598.42468261719</ele>
        <time>2012-11-06T07:50:52Z</time>
      </trkpt>
      <trkpt lat="-21.2114" lon="55.32862">
        <ele>598.42468261719</ele>
        <time>2012-11-06T07:50:52Z</time>
      </trkpt>
      <trkpt lat="-21.21142" lon="55.32861">
        <ele>597.49853515625</ele>
        <time>2012-11-06T07:50:54Z</time>
      </trkpt>
      <trkpt lat="-21.21142" lon="55.32861">
        <ele>597.49853515625</ele>
        <time>2012-11-06T07:50:54Z</time>
      </trkpt>
      <trkpt lat="-21.21146" lon="55.3286">
        <ele>594.96514892578</ele>
        <time>2012-11-06T07:50:56Z</time>
      </trkpt>
      <trkpt lat="-21.21148" lon="55.32859">
        <ele>594.31243896484</ele>
        <time>2012-11-06T07:50:57Z</time>
      </trkpt>
      <trkpt lat="-21.2115" lon="55.32857">
        <ele>593.99035644531</ele>
        <time>2012-11-06T07:50:58Z</time>
      </trkpt>
      <trkpt lat="-21.21156" lon="55.32853">
        <ele>591.2177734375</ele>
        <time>2012-11-06T07:51:00Z</time>
      </trkpt>
      <trkpt lat="-21.2116" lon="55.3285">
        <ele>590.40588378906</ele>
        <time>2012-11-06T07:51:01Z</time>
      </trkpt>
      <trkpt lat="-21.21164" lon="55.32847">
        <ele>590.05297851562</ele>
        <time>2012-11-06T07:51:02Z</time>
      </trkpt>
      <trkpt lat="-21.21172" lon="55.32843">
        <ele>589.95928955078</ele>
        <time>2012-11-06T07:51:04Z</time>
      </trkpt>
      <trkpt lat="-21.21176" lon="55.32842">
        <ele>589.10473632812</ele>
        <time>2012-11-06T07:51:05Z</time>
      </trkpt>
      <trkpt lat="-21.21183" lon="55.3284">
        <ele>585.94720458984</ele>
        <time>2012-11-06T07:51:07Z</time>
      </trkpt>
      <trkpt lat="-21.21192" lon="55.32837">
        <ele>583.51922607422</ele>
        <time>2012-11-06T07:51:09Z</time>
      </trkpt>
      <trkpt lat="-21.21203" lon="55.32831">
        <ele>581.05261230469</ele>
        <time>2012-11-06T07:51:11Z</time>
      </trkpt>
      <trkpt lat="-21.21207" lon="55.32827">
        <ele>580.44281005859</ele>
        <time>2012-11-06T07:51:12Z</time>
      </trkpt>
      <trkpt lat="-21.21217" lon="55.32821">
        <ele>578.20281982422</ele>
        <time>2012-11-06T07:51:14Z</time>
      </trkpt>
      <trkpt lat="-21.21227" lon="55.32814">
        <ele>577.07360839844</ele>
        <time>2012-11-06T07:51:16Z</time>
      </trkpt>
      <trkpt lat="-21.21231" lon="55.3281">
        <ele>576.92858886719</ele>
        <time>2012-11-06T07:51:17Z</time>
      </trkpt>
      <trkpt lat="-21.21236" lon="55.32801">
        <ele>577.18853759766</ele>
        <time>2012-11-06T07:51:19Z</time>
      </trkpt>
      <trkpt lat="-21.21241" lon="55.32794">
        <ele>578.11895751953</ele>
        <time>2012-11-06T07:51:21Z</time>
      </trkpt>
      <trkpt lat="-21.21244" lon="55.32791">
        <ele>578.22125244141</ele>
        <time>2012-11-06T07:51:22Z</time>
      </trkpt>
      <trkpt lat="-21.21249" lon="55.32786">
        <ele>578.85662841797</ele>
        <time>2012-11-06T07:51:24Z</time>
      </trkpt>
      <trkpt lat="-21.21253" lon="55.32784">
        <ele>577.60217285156</ele>
        <time>2012-11-06T07:51:26Z</time>
      </trkpt>
      <trkpt lat="-21.21255" lon="55.32784">
        <ele>579.23669433594</ele>
        <time>2012-11-06T07:51:27Z</time>
      </trkpt>
      <trkpt lat="-21.21261" lon="55.32784">
        <ele>579.43292236328</ele>
        <time>2012-11-06T07:51:29Z</time>
      </trkpt>
      <trkpt lat="-21.21265" lon="55.32781">
        <ele>578.15020751953</ele>
        <time>2012-11-06T07:51:31Z</time>
      </trkpt>
      <trkpt lat="-21.21267" lon="55.3278">
        <ele>576.23529052734</ele>
        <time>2012-11-06T07:51:32Z</time>
      </trkpt>
      <trkpt lat="-21.21271" lon="55.32776">
        <ele>576.97784423828</ele>
        <time>2012-11-06T07:51:34Z</time>
      </trkpt>
      <trkpt lat="-21.21276" lon="55.32771">
        <ele>577.26306152344</ele>
        <time>2012-11-06T07:51:36Z</time>
      </trkpt>
      <trkpt lat="-21.21279" lon="55.32768">
        <ele>576.62738037109</ele>
        <time>2012-11-06T07:51:37Z</time>
      </trkpt>
      <trkpt lat="-21.21285" lon="55.32762">
        <ele>575.60168457031</ele>
        <time>2012-11-06T07:51:39Z</time>
      </trkpt>
      <trkpt lat="-21.21287" lon="55.32761">
        <ele>574.37866210938</ele>
        <time>2012-11-06T07:51:40Z</time>
      </trkpt>
      <trkpt lat="-21.21291" lon="55.3276">
        <ele>573.94207763672</ele>
        <time>2012-11-06T07:51:41Z</time>
      </trkpt>
      <trkpt lat="-21.21294" lon="55.32762">
        <ele>574.55169677734</ele>
        <time>2012-11-06T07:51:43Z</time>
      </trkpt>
      <trkpt lat="-21.21297" lon="55.32766">
        <ele>577.01031494141</ele>
        <time>2012-11-06T07:51:45Z</time>
      </trkpt>
      <trkpt lat="-21.21299" lon="55.32768">
        <ele>577.02893066406</ele>
        <time>2012-11-06T07:51:46Z</time>
      </trkpt>
      <trkpt lat="-21.21302" lon="55.3277">
        <ele>575.31335449219</ele>
        <time>2012-11-06T07:51:47Z</time>
      </trkpt>
      <trkpt lat="-21.21306" lon="55.32772">
        <ele>574.10321044922</ele>
        <time>2012-11-06T07:51:49Z</time>
      </trkpt>
      <trkpt lat="-21.2131" lon="55.32773">
        <ele>572.87530517578</ele>
        <time>2012-11-06T07:51:51Z</time>
      </trkpt>
      <trkpt lat="-21.21312" lon="55.32772">
        <ele>572.94732666016</ele>
        <time>2012-11-06T07:51:52Z</time>
      </trkpt>
      <trkpt lat="-21.21313" lon="55.3277">
        <ele>572.72485351562</ele>
        <time>2012-11-06T07:51:54Z</time>
      </trkpt>
      <trkpt lat="-21.21314" lon="55.32768">
        <ele>574.53411865234</ele>
        <time>2012-11-06T07:51:55Z</time>
      </trkpt>
      <trkpt lat="-21.21316" lon="55.32766">
        <ele>575.81671142578</ele>
        <time>2012-11-06T07:51:56Z</time>
      </trkpt>
      <trkpt lat="-21.21318" lon="55.32763">
        <ele>576.72546386719</ele>
        <time>2012-11-06T07:51:57Z</time>
      </trkpt>
      <trkpt lat="-21.21323" lon="55.32758">
        <ele>574.35986328125</ele>
        <time>2012-11-06T07:51:59Z</time>
      </trkpt>
      <trkpt lat="-21.21329" lon="55.32751">
        <ele>573.36486816406</ele>
        <time>2012-11-06T07:52:01Z</time>
      </trkpt>
      <trkpt lat="-21.21335" lon="55.32743">
        <ele>576.70532226562</ele>
        <time>2012-11-06T07:52:03Z</time>
      </trkpt>
      <trkpt lat="-21.21342" lon="55.32735">
        <ele>580.21374511719</ele>
        <time>2012-11-06T07:52:04Z</time>
      </trkpt>
      <trkpt lat="-21.21346" lon="55.32732">
        <ele>579.23461914062</ele>
        <time>2012-11-06T07:52:06Z</time>
      </trkpt>
      <trkpt lat="-21.21349" lon="55.32727">
        <ele>577.35028076172</ele>
        <time>2012-11-06T07:52:07Z</time>
      </trkpt>
      <trkpt lat="-21.21356" lon="55.32721">
        <ele>577.13446044922</ele>
        <time>2012-11-06T07:52:09Z</time>
      </trkpt>
      <trkpt lat="-21.21363" lon="55.32712">
        <ele>573.05114746094</ele>
        <time>2012-11-06T07:52:11Z</time>
      </trkpt>
      <trkpt lat="-21.21367" lon="55.32708">
        <ele>572.23742675781</ele>
        <time>2012-11-06T07:52:12Z</time>
      </trkpt>
      <trkpt lat="-21.21371" lon="55.32705">
        <ele>571.44244384766</ele>
        <time>2012-11-06T07:52:13Z</time>
      </trkpt>
      <trkpt lat="-21.21376" lon="55.32696">
        <ele>571.19049072266</ele>
        <time>2012-11-06T07:52:15Z</time>
      </trkpt>
      <trkpt lat="-21.21384" lon="55.32687">
        <ele>568.26281738281</ele>
        <time>2012-11-06T07:52:17Z</time>
      </trkpt>
      <trkpt lat="-21.21387" lon="55.32683">
        <ele>568.74395751953</ele>
        <time>2012-11-06T07:52:18Z</time>
      </trkpt>
      <trkpt lat="-21.21397" lon="55.32674">
        <ele>567.12719726562</ele>
        <time>2012-11-06T07:52:20Z</time>
      </trkpt>
      <trkpt lat="-21.21405" lon="55.32666">
        <ele>565.88342285156</ele>
        <time>2012-11-06T07:52:21Z</time>
      </trkpt>
      <trkpt lat="-21.21409" lon="55.32661">
        <ele>566.74475097656</ele>
        <time>2012-11-06T07:52:22Z</time>
      </trkpt>
      <trkpt lat="-21.21414" lon="55.32656">
        <ele>567.62145996094</ele>
        <time>2012-11-06T07:52:24Z</time>
      </trkpt>
      <trkpt lat="-21.21415" lon="55.32655">
        <ele>565.37725830078</ele>
        <time>2012-11-06T07:52:25Z</time>
      </trkpt>
      <trkpt lat="-21.21416" lon="55.32654">
        <ele>565.58953857422</ele>
        <time>2012-11-06T07:52:27Z</time>
      </trkpt>
      <trkpt lat="-21.21416" lon="55.32654">
        <ele>566.84173583984</ele>
        <time>2012-11-06T07:52:28Z</time>
      </trkpt>
      <trkpt lat="-21.21417" lon="55.32653">
        <ele>565.767578125</ele>
        <time>2012-11-06T07:52:29Z</time>
      </trkpt>
      <trkpt lat="-21.21421" lon="55.32647">
        <ele>564.95202636719</ele>
        <time>2012-11-06T07:52:31Z</time>
      </trkpt>
      <trkpt lat="-21.21428" lon="55.3264">
        <ele>562.72888183594</ele>
        <time>2012-11-06T07:52:33Z</time>
      </trkpt>
      <trkpt lat="-21.21432" lon="55.32635">
        <ele>562.11315917969</ele>
        <time>2012-11-06T07:52:34Z</time>
      </trkpt>
      <trkpt lat="-21.21435" lon="55.32631">
        <ele>560.61346435547</ele>
        <time>2012-11-06T07:52:36Z</time>
      </trkpt>
      <trkpt lat="-21.21442" lon="55.32622">
        <ele>557.95129394531</ele>
        <time>2012-11-06T07:52:38Z</time>
      </trkpt>
      <trkpt lat="-21.21451" lon="55.32614">
        <ele>556.64532470703</ele>
        <time>2012-11-06T07:52:40Z</time>
      </trkpt>
      <trkpt lat="-21.21455" lon="55.32609">
        <ele>555.892578125</ele>
        <time>2012-11-06T07:52:41Z</time>
      </trkpt>
      <trkpt lat="-21.21465" lon="55.326">
        <ele>553.48913574219</ele>
        <time>2012-11-06T07:52:43Z</time>
      </trkpt>
      <trkpt lat="-21.2147" lon="55.32596">
        <ele>552.08862304688</ele>
        <time>2012-11-06T07:52:44Z</time>
      </trkpt>
      <trkpt lat="-21.2148" lon="55.32587">
        <ele>549.28582763672</ele>
        <time>2012-11-06T07:52:46Z</time>
      </trkpt>
      <trkpt lat="-21.21487" lon="55.32581">
        <ele>547.25286865234</ele>
        <time>2012-11-06T07:52:48Z</time>
      </trkpt>
      <trkpt lat="-21.2149" lon="55.32579">
        <ele>545.79333496094</ele>
        <time>2012-11-06T07:52:49Z</time>
      </trkpt>
      <trkpt lat="-21.21497" lon="55.32576">
        <ele>544.70220947266</ele>
        <time>2012-11-06T07:52:51Z</time>
      </trkpt>
      <trkpt lat="-21.21501" lon="55.32578">
        <ele>542.79321289062</ele>
        <time>2012-11-06T07:52:52Z</time>
      </trkpt>
      <trkpt lat="-21.21507" lon="55.32581">
        <ele>545.43438720703</ele>
        <time>2012-11-06T07:52:54Z</time>
      </trkpt>
      <trkpt lat="-21.2151" lon="55.32584">
        <ele>545.60424804688</ele>
        <time>2012-11-06T07:52:55Z</time>
      </trkpt>
      <trkpt lat="-21.21512" lon="55.32586">
        <ele>546.18487548828</ele>
        <time>2012-11-06T07:52:56Z</time>
      </trkpt>
      <trkpt lat="-21.21519" lon="55.3259">
        <ele>547.43035888672</ele>
        <time>2012-11-06T07:52:58Z</time>
      </trkpt>
      <trkpt lat="-21.21526" lon="55.32594">
        <ele>546.92846679688</ele>
        <time>2012-11-06T07:53:00Z</time>
      </trkpt>
      <trkpt lat="-21.21529" lon="55.32595">
        <ele>546.83837890625</ele>
        <time>2012-11-06T07:53:01Z</time>
      </trkpt>
      <trkpt lat="-21.21531" lon="55.32596">
        <ele>547.11730957031</ele>
        <time>2012-11-06T07:53:02Z</time>
      </trkpt>
      <trkpt lat="-21.21535" lon="55.32599">
        <ele>545.88122558594</ele>
        <time>2012-11-06T07:53:04Z</time>
      </trkpt>
      <trkpt lat="-21.21537" lon="55.326">
        <ele>548.18206787109</ele>
        <time>2012-11-06T07:53:05Z</time>
      </trkpt>
      <trkpt lat="-21.21539" lon="55.32601">
        <ele>548.51873779297</ele>
        <time>2012-11-06T07:53:06Z</time>
      </trkpt>
      <trkpt lat="-21.21542" lon="55.32602">
        <ele>550.88671875</ele>
        <time>2012-11-06T07:53:07Z</time>
      </trkpt>
      <trkpt lat="-21.21545" lon="55.32603">
        <ele>550.72521972656</ele>
        <time>2012-11-06T07:53:08Z</time>
      </trkpt>
      <trkpt lat="-21.21548" lon="55.32605">
        <ele>549.62896728516</ele>
        <time>2012-11-06T07:53:10Z</time>
      </trkpt>
      <trkpt lat="-21.21551" lon="55.32606">
        <ele>545.60412597656</ele>
        <time>2012-11-06T07:53:12Z</time>
      </trkpt>
      <trkpt lat="-21.21555" lon="55.32608">
        <ele>551.65289306641</ele>
        <time>2012-11-06T07:53:14Z</time>
      </trkpt>
      <trkpt lat="-21.21556" lon="55.32609">
        <ele>551.052734375</ele>
        <time>2012-11-06T07:53:15Z</time>
      </trkpt>
      <trkpt lat="-21.21558" lon="55.32609">
        <ele>551.29907226562</ele>
        <time>2012-11-06T07:53:16Z</time>
      </trkpt>
      <trkpt lat="-21.21559" lon="55.3261">
        <ele>551.64086914062</ele>
        <time>2012-11-06T07:53:18Z</time>
      </trkpt>
      <trkpt lat="-21.21559" lon="55.3261">
        <ele>551.59552001953</ele>
        <time>2012-11-06T07:53:20Z</time>
      </trkpt>
      <trkpt lat="-21.21559" lon="55.3261">
        <ele>552.45727539062</ele>
        <time>2012-11-06T07:53:21Z</time>
      </trkpt>
      <trkpt lat="-21.21559" lon="55.3261">
        <ele>550.93878173828</ele>
        <time>2012-11-06T07:53:23Z</time>
      </trkpt>
      <trkpt lat="-21.21558" lon="55.3261">
        <ele>551.15130615234</ele>
        <time>2012-11-06T07:53:24Z</time>
      </trkpt>
      <trkpt lat="-21.21558" lon="55.3261">
        <ele>551.91027832031</ele>
        <time>2012-11-06T07:53:25Z</time>
      </trkpt>
      <trkpt lat="-21.21558" lon="55.3261">
        <ele>551.91027832031</ele>
        <time>2012-11-06T07:53:25Z</time>
      </trkpt>
      <trkpt lat="-21.21558" lon="55.3261">
        <ele>551.91027832031</ele>
        <time>2012-11-06T07:53:25Z</time>
      </trkpt>
      <trkpt lat="-21.21557" lon="55.3261">
        <ele>548.68170166016</ele>
        <time>2012-11-06T07:53:27Z</time>
      </trkpt>
      <trkpt lat="-21.21557" lon="55.3261">
        <ele>548.68170166016</ele>
        <time>2012-11-06T07:53:27Z</time>
      </trkpt>
      <trkpt lat="-21.21556" lon="55.32611">
        <ele>550.50756835938</ele>
        <time>2012-11-06T07:53:28Z</time>
      </trkpt>
      <trkpt lat="-21.21555" lon="55.32611">
        <ele>550.39453125</ele>
        <time>2012-11-06T07:53:30Z</time>
      </trkpt>
      <trkpt lat="-21.21554" lon="55.32612">
        <ele>549.73571777344</ele>
        <time>2012-11-06T07:53:31Z</time>
      </trkpt>
      <trkpt lat="-21.21551" lon="55.32614">
        <ele>548.71838378906</ele>
        <time>2012-11-06T07:53:33Z</time>
      </trkpt>
      <trkpt lat="-21.2155" lon="55.32615">
        <ele>548.61047363281</ele>
        <time>2012-11-06T07:53:34Z</time>
      </trkpt>
      <trkpt lat="-21.21551" lon="55.32617">
        <ele>551.12652587891</ele>
        <time>2012-11-06T07:53:36Z</time>
      </trkpt>
      <trkpt lat="-21.21552" lon="55.32617">
        <ele>551.14361572266</ele>
        <time>2012-11-06T07:53:37Z</time>
      </trkpt>
      <trkpt lat="-21.21554" lon="55.32618">
        <ele>552.05822753906</ele>
        <time>2012-11-06T07:53:38Z</time>
      </trkpt>
      <trkpt lat="-21.21558" lon="55.32619">
        <ele>550.62084960938</ele>
        <time>2012-11-06T07:53:40Z</time>
      </trkpt>
      <trkpt lat="-21.21562" lon="55.32621">
        <ele>550.34692382812</ele>
        <time>2012-11-06T07:53:42Z</time>
      </trkpt>
      <trkpt lat="-21.21564" lon="55.32621">
        <ele>550.87811279297</ele>
        <time>2012-11-06T07:53:43Z</time>
      </trkpt>
      <trkpt lat="-21.21566" lon="55.32622">
        <ele>551.40771484375</ele>
        <time>2012-11-06T07:53:44Z</time>
      </trkpt>
      <trkpt lat="-21.21571" lon="55.32625">
        <ele>550.85339355469</ele>
        <time>2012-11-06T07:53:46Z</time>
      </trkpt>
      <trkpt lat="-21.21574" lon="55.32627">
        <ele>551.37066650391</ele>
        <time>2012-11-06T07:53:47Z</time>
      </trkpt>
      <trkpt lat="-21.21576" lon="55.32629">
        <ele>551.05999755859</ele>
        <time>2012-11-06T07:53:48Z</time>
      </trkpt>
      <trkpt lat="-21.21582" lon="55.32632">
        <ele>550.13330078125</ele>
        <time>2012-11-06T07:53:50Z</time>
      </trkpt>
      <trkpt lat="-21.21584" lon="55.32634">
        <ele>550.63623046875</ele>
        <time>2012-11-06T07:53:51Z</time>
      </trkpt>
      <trkpt lat="-21.21587" lon="55.32636">
        <ele>551.25482177734</ele>
        <time>2012-11-06T07:53:52Z</time>
      </trkpt>
      <trkpt lat="-21.21592" lon="55.3264">
        <ele>550.67376708984</ele>
        <time>2012-11-06T07:53:54Z</time>
      </trkpt>
      <trkpt lat="-21.21596" lon="55.32642">
        <ele>551.07061767578</ele>
        <time>2012-11-06T07:53:55Z</time>
      </trkpt>
      <trkpt lat="-21.21602" lon="55.32647">
        <ele>551.18371582031</ele>
        <time>2012-11-06T07:53:57Z</time>
      </trkpt>
      <trkpt lat="-21.21609" lon="55.32653">
        <ele>550.03704833984</ele>
        <time>2012-11-06T07:53:59Z</time>
      </trkpt>
      <trkpt lat="-21.21617" lon="55.32659">
        <ele>548.88958740234</ele>
        <time>2012-11-06T07:54:01Z</time>
      </trkpt>
      <trkpt lat="-21.21624" lon="55.32665">
        <ele>548.17578125</ele>
        <time>2012-11-06T07:54:03Z</time>
      </trkpt>
      <trkpt lat="-21.21631" lon="55.3267">
        <ele>546.3740234375</ele>
        <time>2012-11-06T07:54:05Z</time>
      </trkpt>
      <trkpt lat="-21.21639" lon="55.32677">
        <ele>544.78601074219</ele>
        <time>2012-11-06T07:54:07Z</time>
      </trkpt>
      <trkpt lat="-21.21646" lon="55.32679">
        <ele>543.80389404297</ele>
        <time>2012-11-06T07:54:09Z</time>
      </trkpt>
      <trkpt lat="-21.2165" lon="55.32677">
        <ele>543.92175292969</ele>
        <time>2012-11-06T07:54:10Z</time>
      </trkpt>
      <trkpt lat="-21.21651" lon="55.32673">
        <ele>542.10278320312</ele>
        <time>2012-11-06T07:54:11Z</time>
      </trkpt>
      <trkpt lat="-21.21649" lon="55.32663">
        <ele>541.23468017578</ele>
        <time>2012-11-06T07:54:13Z</time>
      </trkpt>
      <trkpt lat="-21.21647" lon="55.32658">
        <ele>540.86822509766</ele>
        <time>2012-11-06T07:54:14Z</time>
      </trkpt>
      <trkpt lat="-21.21643" lon="55.32647">
        <ele>539.91638183594</ele>
        <time>2012-11-06T07:54:16Z</time>
      </trkpt>
      <trkpt lat="-21.21639" lon="55.32635">
        <ele>537.60583496094</ele>
        <time>2012-11-06T07:54:18Z</time>
      </trkpt>
      <trkpt lat="-21.21634" lon="55.32623">
        <ele>535.77197265625</ele>
        <time>2012-11-06T07:54:20Z</time>
      </trkpt>
      <trkpt lat="-21.2163" lon="55.3261">
        <ele>535.76007080078</ele>
        <time>2012-11-06T07:54:22Z</time>
      </trkpt>
      <trkpt lat="-21.21628" lon="55.32603">
        <ele>534.97406005859</ele>
        <time>2012-11-06T07:54:23Z</time>
      </trkpt>
      <trkpt lat="-21.21623" lon="55.3259">
        <ele>533.34844970703</ele>
        <time>2012-11-06T07:54:25Z</time>
      </trkpt>
      <trkpt lat="-21.21619" lon="55.32584">
        <ele>532.14135742188</ele>
        <time>2012-11-06T07:54:26Z</time>
      </trkpt>
      <trkpt lat="-21.21613" lon="55.32575">
        <ele>533.23736572266</ele>
        <time>2012-11-06T07:54:28Z</time>
      </trkpt>
      <trkpt lat="-21.21615" lon="55.32569">
        <ele>532.05700683594</ele>
        <time>2012-11-06T07:54:30Z</time>
      </trkpt>
      <trkpt lat="-21.21619" lon="55.32568">
        <ele>532.05578613281</ele>
        <time>2012-11-06T07:54:31Z</time>
      </trkpt>
      <trkpt lat="-21.21624" lon="55.32568">
        <ele>531.80151367188</ele>
        <time>2012-11-06T07:54:32Z</time>
      </trkpt>
      <trkpt lat="-21.21629" lon="55.32569">
        <ele>532.54376220703</ele>
        <time>2012-11-06T07:54:33Z</time>
      </trkpt>
      <trkpt lat="-21.21641" lon="55.32573">
        <ele>532.50646972656</ele>
        <time>2012-11-06T07:54:35Z</time>
      </trkpt>
      <trkpt lat="-21.21652" lon="55.32578">
        <ele>532.32202148438</ele>
        <time>2012-11-06T07:54:37Z</time>
      </trkpt>
      <trkpt lat="-21.21658" lon="55.32581">
        <ele>531.02099609375</ele>
        <time>2012-11-06T07:54:38Z</time>
      </trkpt>
      <trkpt lat="-21.21664" lon="55.32584">
        <ele>529.79931640625</ele>
        <time>2012-11-06T07:54:39Z</time>
      </trkpt>
      <trkpt lat="-21.21675" lon="55.32591">
        <ele>527.35961914062</ele>
        <time>2012-11-06T07:54:41Z</time>
      </trkpt>
      <trkpt lat="-21.2168" lon="55.32595">
        <ele>527.02600097656</ele>
        <time>2012-11-06T07:54:42Z</time>
      </trkpt>
      <trkpt lat="-21.2169" lon="55.326">
        <ele>526.06909179688</ele>
        <time>2012-11-06T07:54:44Z</time>
      </trkpt>
      <trkpt lat="-21.21698" lon="55.32603">
        <ele>525.17651367188</ele>
        <time>2012-11-06T07:54:46Z</time>
      </trkpt>
      <trkpt lat="-21.21702" lon="55.32603">
        <ele>524.74719238281</ele>
        <time>2012-11-06T07:54:47Z</time>
      </trkpt>
      <trkpt lat="-21.21704" lon="55.32601">
        <ele>523.92535400391</ele>
        <time>2012-11-06T07:54:48Z</time>
      </trkpt>
      <trkpt lat="-21.21706" lon="55.32598">
        <ele>523.39514160156</ele>
        <time>2012-11-06T07:54:49Z</time>
      </trkpt>
      <trkpt lat="-21.21705" lon="55.3259">
        <ele>521.87829589844</ele>
        <time>2012-11-06T07:54:51Z</time>
      </trkpt>
      <trkpt lat="-21.21703" lon="55.32584">
        <ele>520.70819091797</ele>
        <time>2012-11-06T07:54:52Z</time>
      </trkpt>
      <trkpt lat="-21.21697" lon="55.32573">
        <ele>519.44702148438</ele>
        <time>2012-11-06T07:54:54Z</time>
      </trkpt>
      <trkpt lat="-21.21694" lon="55.32567">
        <ele>518.58892822266</ele>
        <time>2012-11-06T07:54:55Z</time>
      </trkpt>
      <trkpt lat="-21.21689" lon="55.32554">
        <ele>517.14721679688</ele>
        <time>2012-11-06T07:54:57Z</time>
      </trkpt>
      <trkpt lat="-21.21684" lon="55.3254">
        <ele>515.77105712891</ele>
        <time>2012-11-06T07:54:59Z</time>
      </trkpt>
      <trkpt lat="-21.21679" lon="55.32525">
        <ele>513.77526855469</ele>
        <time>2012-11-06T07:55:00Z</time>
      </trkpt>
      <trkpt lat="-21.21677" lon="55.32518">
        <ele>512.89996337891</ele>
        <time>2012-11-06T07:55:02Z</time>
      </trkpt>
      <trkpt lat="-21.21676" lon="55.32507">
        <ele>514.13409423828</ele>
        <time>2012-11-06T07:55:04Z</time>
      </trkpt>
      <trkpt lat="-21.21677" lon="55.32506">
        <ele>505.58062744141</ele>
        <time>2012-11-06T07:55:06Z</time>
      </trkpt>
      <trkpt lat="-21.21677" lon="55.32506">
        <ele>505.58062744141</ele>
        <time>2012-11-06T07:55:08Z</time>
      </trkpt>
      <trkpt lat="-21.21677" lon="55.32506">
        <ele>505.58062744141</ele>
        <time>2012-11-06T07:55:09Z</time>
      </trkpt>
      <trkpt lat="-21.21677" lon="55.32506">
        <ele>505.58062744141</ele>
        <time>2012-11-06T07:55:11Z</time>
      </trkpt>
      <trkpt lat="-21.21677" lon="55.32506">
        <ele>505.58062744141</ele>
        <time>2012-11-06T07:55:12Z</time>
      </trkpt>
      <trkpt lat="-21.21677" lon="55.32506">
        <ele>505.58062744141</ele>
        <time>2012-11-06T07:55:12Z</time>
      </trkpt>
      <trkpt lat="-21.21677" lon="55.32506">
        <ele>505.58062744141</ele>
        <time>2012-11-06T07:55:12Z</time>
      </trkpt>
      <trkpt lat="-21.21677" lon="55.32506">
        <ele>505.58062744141</ele>
        <time>2012-11-06T07:55:13Z</time>
      </trkpt>
      <trkpt lat="-21.21677" lon="55.32506">
        <ele>505.58062744141</ele>
        <time>2012-11-06T07:55:13Z</time>
      </trkpt>
      <trkpt lat="-21.21677" lon="55.32506">
        <ele>505.58062744141</ele>
        <time>2012-11-06T07:55:15Z</time>
      </trkpt>
      <trkpt lat="-21.21677" lon="55.32506">
        <ele>505.58062744141</ele>
        <time>2012-11-06T07:55:15Z</time>
      </trkpt>
      <trkpt lat="-21.21677" lon="55.32506">
        <ele>505.58062744141</ele>
        <time>2012-11-06T07:55:17Z</time>
      </trkpt>
      <trkpt lat="-21.21677" lon="55.32506">
        <ele>505.58062744141</ele>
        <time>2012-11-06T07:55:17Z</time>
      </trkpt>
      <trkpt lat="-21.21677" lon="55.32506">
        <ele>505.58062744141</ele>
        <time>2012-11-06T07:55:19Z</time>
      </trkpt>
      <trkpt lat="-21.21677" lon="55.32506">
        <ele>505.58062744141</ele>
        <time>2012-11-06T07:55:19Z</time>
      </trkpt>
      <trkpt lat="-21.21677" lon="55.32506">
        <ele>505.58062744141</ele>
        <time>2012-11-06T07:55:20Z</time>
      </trkpt>
      <trkpt lat="-21.21677" lon="55.32506">
        <ele>505.58062744141</ele>
        <time>2012-11-06T07:55:20Z</time>
      </trkpt>
      <trkpt lat="-21.21677" lon="55.32506">
        <ele>505.58062744141</ele>
        <time>2012-11-06T07:55:22Z</time>
      </trkpt>
      <trkpt lat="-21.21677" lon="55.32506">
        <ele>505.58062744141</ele>
        <time>2012-11-06T07:55:22Z</time>
      </trkpt>
      <trkpt lat="-21.21677" lon="55.32506">
        <ele>505.58062744141</ele>
        <time>2012-11-06T07:55:23Z</time>
      </trkpt>
      <trkpt lat="-21.21677" lon="55.32506">
        <ele>505.58062744141</ele>
        <time>2012-11-06T07:55:23Z</time>
      </trkpt>
      <trkpt lat="-21.21677" lon="55.32506">
        <ele>505.58062744141</ele>
        <time>2012-11-06T07:55:25Z</time>
      </trkpt>
      <trkpt lat="-21.21677" lon="55.32506">
        <ele>505.58062744141</ele>
        <time>2012-11-06T07:55:25Z</time>
      </trkpt>
      <trkpt lat="-21.21677" lon="55.32506">
        <ele>505.58062744141</ele>
        <time>2012-11-06T07:55:26Z</time>
      </trkpt>
      <trkpt lat="-21.21677" lon="55.32506">
        <ele>505.58062744141</ele>
        <time>2012-11-06T07:55:26Z</time>
      </trkpt>
      <trkpt lat="-21.21677" lon="55.32506">
        <ele>505.58062744141</ele>
        <time>2012-11-06T07:55:28Z</time>
      </trkpt>
      <trkpt lat="-21.21677" lon="55.32506">
        <ele>505.58062744141</ele>
        <time>2012-11-06T07:55:28Z</time>
      </trkpt>
      <trkpt lat="-21.21677" lon="55.32506">
        <ele>505.58062744141</ele>
        <time>2012-11-06T07:55:30Z</time>
      </trkpt>
      <trkpt lat="-21.21677" lon="55.32506">
        <ele>505.58062744141</ele>
        <time>2012-11-06T07:55:30Z</time>
      </trkpt>
      <trkpt lat="-21.21677" lon="55.32506">
        <ele>505.58062744141</ele>
        <time>2012-11-06T07:55:32Z</time>
      </trkpt>
      <trkpt lat="-21.21677" lon="55.32506">
        <ele>505.58062744141</ele>
        <time>2012-11-06T07:55:32Z</time>
      </trkpt>
      <trkpt lat="-21.21677" lon="55.32506">
        <ele>505.58062744141</ele>
        <time>2012-11-06T07:55:33Z</time>
      </trkpt>
      <trkpt lat="-21.21677" lon="55.32506">
        <ele>505.58062744141</ele>
        <time>2012-11-06T07:55:33Z</time>
      </trkpt>
      <trkpt lat="-21.21677" lon="55.32506">
        <ele>505.58062744141</ele>
        <time>2012-11-06T07:55:35Z</time>
      </trkpt>
      <trkpt lat="-21.21677" lon="55.32506">
        <ele>505.58062744141</ele>
        <time>2012-11-06T07:55:35Z</time>
      </trkpt>
      <trkpt lat="-21.21677" lon="55.32506">
        <ele>505.58062744141</ele>
        <time>2012-11-06T07:55:37Z</time>
      </trkpt>
      <trkpt lat="-21.21677" lon="55.32506">
        <ele>505.58062744141</ele>
        <time>2012-11-06T07:55:37Z</time>
      </trkpt>
      <trkpt lat="-21.21677" lon="55.32506">
        <ele>505.58062744141</ele>
        <time>2012-11-06T07:55:39Z</time>
      </trkpt>
      <trkpt lat="-21.21677" lon="55.32506">
        <ele>505.58062744141</ele>
        <time>2012-11-06T07:55:39Z</time>
      </trkpt>
      <trkpt lat="-21.21677" lon="55.32506">
        <ele>505.58062744141</ele>
        <time>2012-11-06T07:55:40Z</time>
      </trkpt>
      <trkpt lat="-21.21677" lon="55.32506">
        <ele>505.58062744141</ele>
        <time>2012-11-06T07:55:40Z</time>
      </trkpt>
      <trkpt lat="-21.21677" lon="55.32506">
        <ele>505.58062744141</ele>
        <time>2012-11-06T07:55:42Z</time>
      </trkpt>
      <trkpt lat="-21.21677" lon="55.32506">
        <ele>505.58062744141</ele>
        <time>2012-11-06T07:55:42Z</time>
      </trkpt>
      <trkpt lat="-21.21677" lon="55.32506">
        <ele>505.58062744141</ele>
        <time>2012-11-06T07:55:43Z</time>
      </trkpt>
      <trkpt lat="-21.21677" lon="55.32506">
        <ele>505.58062744141</ele>
        <time>2012-11-06T07:55:43Z</time>
      </trkpt>
      <trkpt lat="-21.21677" lon="55.32509">
        <ele>513.58123779297</ele>
        <time>2012-11-06T07:55:44Z</time>
      </trkpt>
      <trkpt lat="-21.21677" lon="55.32509">
        <ele>513.58123779297</ele>
        <time>2012-11-06T07:55:44Z</time>
      </trkpt>
      <trkpt lat="-21.21683" lon="55.32505">
        <ele>512.50073242188</ele>
        <time>2012-11-06T07:55:46Z</time>
      </trkpt>
      <trkpt lat="-21.21683" lon="55.32505">
        <ele>512.50073242188</ele>
        <time>2012-11-06T07:55:46Z</time>
      </trkpt>
      <trkpt lat="-21.21686" lon="55.32503">
        <ele>511.82015991211</ele>
        <time>2012-11-06T07:55:47Z</time>
      </trkpt>
      <trkpt lat="-21.21693" lon="55.32497">
        <ele>508.73568725586</ele>
        <time>2012-11-06T07:55:49Z</time>
      </trkpt>
      <trkpt lat="-21.21698" lon="55.32493">
        <ele>507.12002563477</ele>
        <time>2012-11-06T07:55:50Z</time>
      </trkpt>
      <trkpt lat="-21.21711" lon="55.32487">
        <ele>503.05126953125</ele>
        <time>2012-11-06T07:55:52Z</time>
      </trkpt>
      <trkpt lat="-21.21724" lon="55.32485">
        <ele>501.80679321289</ele>
        <time>2012-11-06T07:55:54Z</time>
      </trkpt>
      <trkpt lat="-21.21737" lon="55.32485">
        <ele>499.54989624023</ele>
        <time>2012-11-06T07:55:56Z</time>
      </trkpt>
      <trkpt lat="-21.21747" lon="55.32485">
        <ele>496.54867553711</ele>
        <time>2012-11-06T07:55:58Z</time>
      </trkpt>
      <trkpt lat="-21.21758" lon="55.32481">
        <ele>493.51327514648</ele>
        <time>2012-11-06T07:56:00Z</time>
      </trkpt>
      <trkpt lat="-21.21768" lon="55.32472">
        <ele>490.10879516602</ele>
        <time>2012-11-06T07:56:02Z</time>
      </trkpt>
      <trkpt lat="-21.21773" lon="55.32468">
        <ele>489.62222290039</ele>
        <time>2012-11-06T07:56:03Z</time>
      </trkpt>
      <trkpt lat="-21.21777" lon="55.32464">
        <ele>489.36373901367</ele>
        <time>2012-11-06T07:56:04Z</time>
      </trkpt>
      <trkpt lat="-21.21785" lon="55.32455">
        <ele>487.89666748047</ele>
        <time>2012-11-06T07:56:06Z</time>
      </trkpt>
      <trkpt lat="-21.21789" lon="55.3245">
        <ele>487.09805297852</ele>
        <time>2012-11-06T07:56:07Z</time>
      </trkpt>
      <trkpt lat="-21.21793" lon="55.32445">
        <ele>486.15368652344</ele>
        <time>2012-11-06T07:56:08Z</time>
      </trkpt>
      <trkpt lat="-21.21797" lon="55.32439">
        <ele>485.05053710938</ele>
        <time>2012-11-06T07:56:09Z</time>
      </trkpt>
      <trkpt lat="-21.21806" lon="55.32427">
        <ele>482.5530090332</ele>
        <time>2012-11-06T07:56:11Z</time>
      </trkpt>
      <trkpt lat="-21.2181" lon="55.3242">
        <ele>481.44818115234</ele>
        <time>2012-11-06T07:56:12Z</time>
      </trkpt>
      <trkpt lat="-21.21815" lon="55.32409">
        <ele>479.77362060547</ele>
        <time>2012-11-06T07:56:14Z</time>
      </trkpt>
      <trkpt lat="-21.2182" lon="55.32398">
        <ele>477.29190063477</ele>
        <time>2012-11-06T07:56:16Z</time>
      </trkpt>
      <trkpt lat="-21.21823" lon="55.32393">
        <ele>476.34973144531</ele>
        <time>2012-11-06T07:56:17Z</time>
      </trkpt>
      <trkpt lat="-21.21826" lon="55.32387">
        <ele>475.69021606445</ele>
        <time>2012-11-06T07:56:18Z</time>
      </trkpt>
      <trkpt lat="-21.21829" lon="55.32382">
        <ele>474.90240478516</ele>
        <time>2012-11-06T07:56:19Z</time>
      </trkpt>
      <trkpt lat="-21.21832" lon="55.32376">
        <ele>474.20492553711</ele>
        <time>2012-11-06T07:56:20Z</time>
      </trkpt>
      <trkpt lat="-21.21834" lon="55.32372">
        <ele>473.97082519531</ele>
        <time>2012-11-06T07:56:21Z</time>
      </trkpt>
      <trkpt lat="-21.2184" lon="55.32361">
        <ele>473.8974609375</ele>
        <time>2012-11-06T07:56:23Z</time>
      </trkpt>
      <trkpt lat="-21.21845" lon="55.32351">
        <ele>466.43371582031</ele>
        <time>2012-11-06T07:56:25Z</time>
      </trkpt>
      <trkpt lat="-21.21849" lon="55.32344">
        <ele>471.03448486328</ele>
        <time>2012-11-06T07:56:27Z</time>
      </trkpt>
      <trkpt lat="-21.21854" lon="55.32336">
        <ele>471.53039550781</ele>
        <time>2012-11-06T07:56:29Z</time>
      </trkpt>
      <trkpt lat="-21.21856" lon="55.32332">
        <ele>467.93045043945</ele>
        <time>2012-11-06T07:56:30Z</time>
      </trkpt>
      <trkpt lat="-21.21861" lon="55.32324">
        <ele>463.61981201172</ele>
        <time>2012-11-06T07:56:32Z</time>
      </trkpt>
      <trkpt lat="-21.21864" lon="55.32319">
        <ele>458.20300292969</ele>
        <time>2012-11-06T07:56:34Z</time>
      </trkpt>
      <trkpt lat="-21.21867" lon="55.32313">
        <ele>458.71459960938</ele>
        <time>2012-11-06T07:56:36Z</time>
      </trkpt>
      <trkpt lat="-21.21868" lon="55.32311">
        <ele>458.35842895508</ele>
        <time>2012-11-06T07:56:37Z</time>
      </trkpt>
      <trkpt lat="-21.21871" lon="55.32304">
        <ele>456.41000366211</ele>
        <time>2012-11-06T07:56:39Z</time>
      </trkpt>
      <trkpt lat="-21.21871" lon="55.32303">
        <ele>453.85107421875</ele>
        <time>2012-11-06T07:56:40Z</time>
      </trkpt>
      <trkpt lat="-21.21874" lon="55.32297">
        <ele>456.75662231445</ele>
        <time>2012-11-06T07:56:42Z</time>
      </trkpt>
      <trkpt lat="-21.21877" lon="55.32295">
        <ele>451.02261352539</ele>
        <time>2012-11-06T07:56:43Z</time>
      </trkpt>
      <trkpt lat="-21.21882" lon="55.32292">
        <ele>448.13125610352</ele>
        <time>2012-11-06T07:56:45Z</time>
      </trkpt>
      <trkpt lat="-21.21889" lon="55.32287">
        <ele>445.74407958984</ele>
        <time>2012-11-06T07:56:47Z</time>
      </trkpt>
      <trkpt lat="-21.21897" lon="55.3228">
        <ele>444.89654541016</ele>
        <time>2012-11-06T07:56:49Z</time>
      </trkpt>
      <trkpt lat="-21.219" lon="55.32277">
        <ele>443.66018676758</ele>
        <time>2012-11-06T07:56:50Z</time>
      </trkpt>
      <trkpt lat="-21.21906" lon="55.3227">
        <ele>441.02581787109</ele>
        <time>2012-11-06T07:56:52Z</time>
      </trkpt>
      <trkpt lat="-21.21909" lon="55.32267">
        <ele>439.10171508789</ele>
        <time>2012-11-06T07:56:53Z</time>
      </trkpt>
      <trkpt lat="-21.21912" lon="55.32263">
        <ele>437.17596435547</ele>
        <time>2012-11-06T07:56:54Z</time>
      </trkpt>
      <trkpt lat="-21.21916" lon="55.3226">
        <ele>436.18460083008</ele>
        <time>2012-11-06T07:56:55Z</time>
      </trkpt>
      <trkpt lat="-21.21925" lon="55.32252">
        <ele>433.15747070312</ele>
        <time>2012-11-06T07:56:57Z</time>
      </trkpt>
      <trkpt lat="-21.21932" lon="55.32244">
        <ele>433.0046081543</ele>
        <time>2012-11-06T07:56:59Z</time>
      </trkpt>
      <trkpt lat="-21.2194" lon="55.32238">
        <ele>425.25762939453</ele>
        <time>2012-11-06T07:57:01Z</time>
      </trkpt>
      <trkpt lat="-21.21943" lon="55.32234">
        <ele>429.7629699707</ele>
        <time>2012-11-06T07:57:02Z</time>
      </trkpt>
      <trkpt lat="-21.21952" lon="55.32231">
        <ele>422.70205688477</ele>
        <time>2012-11-06T07:57:04Z</time>
      </trkpt>
      <trkpt lat="-21.21957" lon="55.3223">
        <ele>421.45980834961</ele>
        <time>2012-11-06T07:57:05Z</time>
      </trkpt>
      <trkpt lat="-21.21968" lon="55.32233">
        <ele>419.33349609375</ele>
        <time>2012-11-06T07:57:07Z</time>
      </trkpt>
      <trkpt lat="-21.21981" lon="55.32237">
        <ele>416.16961669922</ele>
        <time>2012-11-06T07:57:09Z</time>
      </trkpt>
      <trkpt lat="-21.21986" lon="55.32239">
        <ele>414.39639282227</ele>
        <time>2012-11-06T07:57:10Z</time>
      </trkpt>
      <trkpt lat="-21.22" lon="55.32238">
        <ele>412.54409790039</ele>
        <time>2012-11-06T07:57:12Z</time>
      </trkpt>
      <trkpt lat="-21.2201" lon="55.32234">
        <ele>411.95941162109</ele>
        <time>2012-11-06T07:57:14Z</time>
      </trkpt>
      <trkpt lat="-21.22014" lon="55.32232">
        <ele>410.86404418945</ele>
        <time>2012-11-06T07:57:15Z</time>
      </trkpt>
      <trkpt lat="-21.22019" lon="55.32229">
        <ele>413.09799194336</ele>
        <time>2012-11-06T07:57:16Z</time>
      </trkpt>
      <trkpt lat="-21.22026" lon="55.32222">
        <ele>411.41259765625</ele>
        <time>2012-11-06T07:57:17Z</time>
      </trkpt>
      <trkpt lat="-21.22029" lon="55.32222">
        <ele>411.42901611328</ele>
        <time>2012-11-06T07:57:19Z</time>
      </trkpt>
      <trkpt lat="-21.22033" lon="55.32218">
        <ele>411.72479248047</ele>
        <time>2012-11-06T07:57:21Z</time>
      </trkpt>
      <trkpt lat="-21.22033" lon="55.32218">
        <ele>411.72479248047</ele>
        <time>2012-11-06T07:57:22Z</time>
      </trkpt>
      <trkpt lat="-21.22033" lon="55.32218">
        <ele>411.72479248047</ele>
        <time>2012-11-06T07:57:23Z</time>
      </trkpt>
      <trkpt lat="-21.22033" lon="55.32218">
        <ele>411.72479248047</ele>
        <time>2012-11-06T07:57:24Z</time>
      </trkpt>
      <trkpt lat="-21.22033" lon="55.32218">
        <ele>411.72479248047</ele>
        <time>2012-11-06T07:57:26Z</time>
      </trkpt>
      <trkpt lat="-21.22033" lon="55.32218">
        <ele>411.72479248047</ele>
        <time>2012-11-06T07:57:27Z</time>
      </trkpt>
      <trkpt lat="-21.22033" lon="55.32218">
        <ele>411.72479248047</ele>
        <time>2012-11-06T07:57:27Z</time>
      </trkpt>
      <trkpt lat="-21.22033" lon="55.32218">
        <ele>411.72479248047</ele>
        <time>2012-11-06T07:57:27Z</time>
      </trkpt>
      <trkpt lat="-21.22033" lon="55.32218">
        <ele>411.72479248047</ele>
        <time>2012-11-06T07:57:28Z</time>
      </trkpt>
      <trkpt lat="-21.22033" lon="55.32218">
        <ele>411.72479248047</ele>
        <time>2012-11-06T07:57:28Z</time>
      </trkpt>
      <trkpt lat="-21.22033" lon="55.32218">
        <ele>411.72479248047</ele>
        <time>2012-11-06T07:57:29Z</time>
      </trkpt>
      <trkpt lat="-21.22033" lon="55.32218">
        <ele>411.72479248047</ele>
        <time>2012-11-06T07:57:29Z</time>
      </trkpt>
      <trkpt lat="-21.22033" lon="55.32218">
        <ele>411.72479248047</ele>
        <time>2012-11-06T07:57:31Z</time>
      </trkpt>
      <trkpt lat="-21.22033" lon="55.32218">
        <ele>411.72479248047</ele>
        <time>2012-11-06T07:57:31Z</time>
      </trkpt>
      <trkpt lat="-21.22033" lon="55.32218">
        <ele>411.72479248047</ele>
        <time>2012-11-06T07:57:33Z</time>
      </trkpt>
      <trkpt lat="-21.22033" lon="55.32218">
        <ele>411.72479248047</ele>
        <time>2012-11-06T07:57:33Z</time>
      </trkpt>
      <trkpt lat="-21.22033" lon="55.32218">
        <ele>411.72479248047</ele>
        <time>2012-11-06T07:57:34Z</time>
      </trkpt>
      <trkpt lat="-21.22033" lon="55.32218">
        <ele>411.72479248047</ele>
        <time>2012-11-06T07:57:34Z</time>
      </trkpt>
      <trkpt lat="-21.22035" lon="55.32216">
        <ele>412.88012695312</ele>
        <time>2012-11-06T07:57:36Z</time>
      </trkpt>
      <trkpt lat="-21.22035" lon="55.32216">
        <ele>412.88012695312</ele>
        <time>2012-11-06T07:57:36Z</time>
      </trkpt>
      <trkpt lat="-21.22041" lon="55.32212">
        <ele>411.0305480957</ele>
        <time>2012-11-06T07:57:38Z</time>
      </trkpt>
      <trkpt lat="-21.22041" lon="55.32212">
        <ele>411.0305480957</ele>
        <time>2012-11-06T07:57:38Z</time>
      </trkpt>
      <trkpt lat="-21.22048" lon="55.32208">
        <ele>413.55258178711</ele>
        <time>2012-11-06T07:57:40Z</time>
      </trkpt>
      <trkpt lat="-21.22051" lon="55.32205">
        <ele>411.75726318359</ele>
        <time>2012-11-06T07:57:41Z</time>
      </trkpt>
      <trkpt lat="-21.22059" lon="55.32199">
        <ele>409.85894775391</ele>
        <time>2012-11-06T07:57:43Z</time>
      </trkpt>
      <trkpt lat="-21.22069" lon="55.32192">
        <ele>410.63204956055</ele>
        <time>2012-11-06T07:57:45Z</time>
      </trkpt>
      <trkpt lat="-21.22076" lon="55.3219">
        <ele>409.46746826172</ele>
        <time>2012-11-06T07:57:46Z</time>
      </trkpt>
      <trkpt lat="-21.22084" lon="55.32191">
        <ele>411.80703735352</ele>
        <time>2012-11-06T07:57:48Z</time>
      </trkpt>
      <trkpt lat="-21.22096" lon="55.32194">
        <ele>409.86251831055</ele>
        <time>2012-11-06T07:57:50Z</time>
      </trkpt>
      <trkpt lat="-21.22108" lon="55.322">
        <ele>411.30142211914</ele>
        <time>2012-11-06T07:57:52Z</time>
      </trkpt>
      <trkpt lat="-21.22118" lon="55.32202">
        <ele>411.40411376953</ele>
        <time>2012-11-06T07:57:54Z</time>
      </trkpt>
      <trkpt lat="-21.22123" lon="55.32205">
        <ele>412.91702270508</ele>
        <time>2012-11-06T07:57:55Z</time>
      </trkpt>
      <trkpt lat="-21.22129" lon="55.32212">
        <ele>405.71136474609</ele>
        <time>2012-11-06T07:57:57Z</time>
      </trkpt>
      <trkpt lat="-21.22138" lon="55.32212">
        <ele>408.88943481445</ele>
        <time>2012-11-06T07:57:59Z</time>
      </trkpt>
      <trkpt lat="-21.2214" lon="55.32209">
        <ele>406.82122802734</ele>
        <time>2012-11-06T07:58:00Z</time>
      </trkpt>
      <trkpt lat="-21.22142" lon="55.32199">
        <ele>405.47155761719</ele>
        <time>2012-11-06T07:58:01Z</time>
      </trkpt>
      <trkpt lat="-21.22143" lon="55.32194">
        <ele>406.01943969727</ele>
        <time>2012-11-06T07:58:03Z</time>
      </trkpt>
      <trkpt lat="-21.22144" lon="55.32183">
        <ele>407.64547729492</ele>
        <time>2012-11-06T07:58:05Z</time>
      </trkpt>
      <trkpt lat="-21.22145" lon="55.32177">
        <ele>406.26699829102</ele>
        <time>2012-11-06T07:58:06Z</time>
      </trkpt>
      <trkpt lat="-21.22147" lon="55.32161">
        <ele>401.93753051758</ele>
        <time>2012-11-06T07:58:08Z</time>
      </trkpt>
      <trkpt lat="-21.22149" lon="55.32153">
        <ele>401.10018920898</ele>
        <time>2012-11-06T07:58:09Z</time>
      </trkpt>
      <trkpt lat="-21.22154" lon="55.32146">
        <ele>400.75231933594</ele>
        <time>2012-11-06T07:58:10Z</time>
      </trkpt>
      <trkpt lat="-21.22164" lon="55.32134">
        <ele>399.53033447266</ele>
        <time>2012-11-06T07:58:12Z</time>
      </trkpt>
      <trkpt lat="-21.2217" lon="55.32129">
        <ele>399.11410522461</ele>
        <time>2012-11-06T07:58:13Z</time>
      </trkpt>
      <trkpt lat="-21.22178" lon="55.32126">
        <ele>398.9040222168</ele>
        <time>2012-11-06T07:58:14Z</time>
      </trkpt>
      <trkpt lat="-21.22192" lon="55.3212">
        <ele>398.59310913086</ele>
        <time>2012-11-06T07:58:16Z</time>
      </trkpt>
      <trkpt lat="-21.22198" lon="55.32118">
        <ele>398.36431884766</ele>
        <time>2012-11-06T07:58:17Z</time>
      </trkpt>
      <trkpt lat="-21.2221" lon="55.32122">
        <ele>399.13153076172</ele>
        <time>2012-11-06T07:58:19Z</time>
      </trkpt>
      <trkpt lat="-21.22218" lon="55.32126">
        <ele>397.10067749023</ele>
        <time>2012-11-06T07:58:21Z</time>
      </trkpt>
      <trkpt lat="-21.22221" lon="55.32124">
        <ele>397.15869140625</ele>
        <time>2012-11-06T07:58:22Z</time>
      </trkpt>
      <trkpt lat="-21.22222" lon="55.32116">
        <ele>396.49871826172</ele>
        <time>2012-11-06T07:58:24Z</time>
      </trkpt>
      <trkpt lat="-21.22218" lon="55.32105">
        <ele>394.30587768555</ele>
        <time>2012-11-06T07:58:26Z</time>
      </trkpt>
      <trkpt lat="-21.22214" lon="55.32101">
        <ele>392.85501098633</ele>
        <time>2012-11-06T07:58:27Z</time>
      </trkpt>
      <trkpt lat="-21.22205" lon="55.32092">
        <ele>392.4358215332</ele>
        <time>2012-11-06T07:58:28Z</time>
      </trkpt>
      <trkpt lat="-21.22199" lon="55.32088">
        <ele>392.18542480469</ele>
        <time>2012-11-06T07:58:30Z</time>
      </trkpt>
      <trkpt lat="-21.22194" lon="55.32085">
        <ele>390.69631958008</ele>
        <time>2012-11-06T07:58:31Z</time>
      </trkpt>
      <trkpt lat="-21.22188" lon="55.32081">
        <ele>390.94302368164</ele>
        <time>2012-11-06T07:58:32Z</time>
      </trkpt>
      <trkpt lat="-21.22177" lon="55.32074">
        <ele>386.94522094727</ele>
        <time>2012-11-06T07:58:34Z</time>
      </trkpt>
      <trkpt lat="-21.22166" lon="55.32068">
        <ele>385.33264160156</ele>
        <time>2012-11-06T07:58:36Z</time>
      </trkpt>
      <trkpt lat="-21.22155" lon="55.32062">
        <ele>388.16799926758</ele>
        <time>2012-11-06T07:58:38Z</time>
      </trkpt>
      <trkpt lat="-21.22152" lon="55.32057">
        <ele>387.38973999023</ele>
        <time>2012-11-06T07:58:40Z</time>
      </trkpt>
      <trkpt lat="-21.22156" lon="55.32052">
        <ele>382.51214599609</ele>
        <time>2012-11-06T07:58:42Z</time>
      </trkpt>
      <trkpt lat="-21.22165" lon="55.32045">
        <ele>384.76974487305</ele>
        <time>2012-11-06T07:58:44Z</time>
      </trkpt>
      <trkpt lat="-21.22175" lon="55.32037">
        <ele>385.1930847168</ele>
        <time>2012-11-06T07:58:46Z</time>
      </trkpt>
      <trkpt lat="-21.22181" lon="55.32032">
        <ele>383.38510131836</ele>
        <time>2012-11-06T07:58:47Z</time>
      </trkpt>
      <trkpt lat="-21.22188" lon="55.32026">
        <ele>383.95516967773</ele>
        <time>2012-11-06T07:58:48Z</time>
      </trkpt>
      <trkpt lat="-21.222" lon="55.32021">
        <ele>384.41168212891</ele>
        <time>2012-11-06T07:58:50Z</time>
      </trkpt>
      <trkpt lat="-21.22212" lon="55.32023">
        <ele>380.61694335938</ele>
        <time>2012-11-06T07:58:52Z</time>
      </trkpt>
      <trkpt lat="-21.22225" lon="55.3203">
        <ele>378.3918762207</ele>
        <time>2012-11-06T07:58:54Z</time>
      </trkpt>
      <trkpt lat="-21.2223" lon="55.32033">
        <ele>378.82876586914</ele>
        <time>2012-11-06T07:58:55Z</time>
      </trkpt>
      <trkpt lat="-21.22242" lon="55.32029">
        <ele>377.66232299805</ele>
        <time>2012-11-06T07:58:57Z</time>
      </trkpt>
      <trkpt lat="-21.22247" lon="55.32019">
        <ele>375.24172973633</ele>
        <time>2012-11-06T07:58:59Z</time>
      </trkpt>
      <trkpt lat="-21.22248" lon="55.32005">
        <ele>374.27551269531</ele>
        <time>2012-11-06T07:59:01Z</time>
      </trkpt>
      <trkpt lat="-21.22243" lon="55.31992">
        <ele>371.12600708008</ele>
        <time>2012-11-06T07:59:03Z</time>
      </trkpt>
      <trkpt lat="-21.22238" lon="55.31981">
        <ele>368.47982788086</ele>
        <time>2012-11-06T07:59:05Z</time>
      </trkpt>
      <trkpt lat="-21.22233" lon="55.31974">
        <ele>368.24829101562</ele>
        <time>2012-11-06T07:59:07Z</time>
      </trkpt>
      <trkpt lat="-21.2223" lon="55.31973">
        <ele>368.32647705078</ele>
        <time>2012-11-06T07:59:08Z</time>
      </trkpt>
      <trkpt lat="-21.22222" lon="55.31971">
        <ele>368.41836547852</ele>
        <time>2012-11-06T07:59:10Z</time>
      </trkpt>
      <trkpt lat="-21.22219" lon="55.31971">
        <ele>367.91091918945</ele>
        <time>2012-11-06T07:59:11Z</time>
      </trkpt>
      <trkpt lat="-21.22216" lon="55.3197">
        <ele>367.62643432617</ele>
        <time>2012-11-06T07:59:12Z</time>
      </trkpt>
      <trkpt lat="-21.22208" lon="55.31969">
        <ele>367.11926269531</ele>
        <time>2012-11-06T07:59:14Z</time>
      </trkpt>
      <trkpt lat="-21.222" lon="55.31968">
        <ele>367.05590820312</ele>
        <time>2012-11-06T07:59:16Z</time>
      </trkpt>
      <trkpt lat="-21.22196" lon="55.31968">
        <ele>367.14196777344</ele>
        <time>2012-11-06T07:59:17Z</time>
      </trkpt>
      <trkpt lat="-21.22186" lon="55.3197">
        <ele>366.0537109375</ele>
        <time>2012-11-06T07:59:19Z</time>
      </trkpt>
      <trkpt lat="-21.22181" lon="55.31972">
        <ele>363.63806152344</ele>
        <time>2012-11-06T07:59:20Z</time>
      </trkpt>
      <trkpt lat="-21.22174" lon="55.31974">
        <ele>364.22857666016</ele>
        <time>2012-11-06T07:59:22Z</time>
      </trkpt>
      <trkpt lat="-21.22167" lon="55.31976">
        <ele>365.22241210938</ele>
        <time>2012-11-06T07:59:24Z</time>
      </trkpt>
      <trkpt lat="-21.22162" lon="55.31977">
        <ele>368.5397644043</ele>
        <time>2012-11-06T07:59:25Z</time>
      </trkpt>
      <trkpt lat="-21.22156" lon="55.31977">
        <ele>369.21472167969</ele>
        <time>2012-11-06T07:59:26Z</time>
      </trkpt>
      <trkpt lat="-21.22146" lon="55.31975">
        <ele>364.49362182617</ele>
        <time>2012-11-06T07:59:28Z</time>
      </trkpt>
      <trkpt lat="-21.22143" lon="55.31972">
        <ele>365.11154174805</ele>
        <time>2012-11-06T07:59:29Z</time>
      </trkpt>
      <trkpt lat="-21.22139" lon="55.31964">
        <ele>366.73193359375</ele>
        <time>2012-11-06T07:59:31Z</time>
      </trkpt>
      <trkpt lat="-21.22137" lon="55.31953">
        <ele>368.51776123047</ele>
        <time>2012-11-06T07:59:33Z</time>
      </trkpt>
      <trkpt lat="-21.22135" lon="55.31941">
        <ele>369.61218261719</ele>
        <time>2012-11-06T07:59:34Z</time>
      </trkpt>
      <trkpt lat="-21.22134" lon="55.31936">
        <ele>370.51486206055</ele>
        <time>2012-11-06T07:59:35Z</time>
      </trkpt>
      <trkpt lat="-21.22133" lon="55.31926">
        <ele>371.14587402344</ele>
        <time>2012-11-06T07:59:38Z</time>
      </trkpt>
      <trkpt lat="-21.22133" lon="55.31921">
        <ele>370.40762329102</ele>
        <time>2012-11-06T07:59:39Z</time>
      </trkpt>
      <trkpt lat="-21.22131" lon="55.31916">
        <ele>369.10659790039</ele>
        <time>2012-11-06T07:59:40Z</time>
      </trkpt>
      <trkpt lat="-21.22128" lon="55.31911">
        <ele>368.69271850586</ele>
        <time>2012-11-06T07:59:41Z</time>
      </trkpt>
      <trkpt lat="-21.22122" lon="55.31904">
        <ele>369.00064086914</ele>
        <time>2012-11-06T07:59:43Z</time>
      </trkpt>
      <trkpt lat="-21.22115" lon="55.31897">
        <ele>370.77236938477</ele>
        <time>2012-11-06T07:59:45Z</time>
      </trkpt>
      <trkpt lat="-21.22111" lon="55.31894">
        <ele>370.21401977539</ele>
        <time>2012-11-06T07:59:46Z</time>
      </trkpt>
      <trkpt lat="-21.22104" lon="55.31888">
        <ele>369.76702880859</ele>
        <time>2012-11-06T07:59:48Z</time>
      </trkpt>
      <trkpt lat="-21.22101" lon="55.31885">
        <ele>369.6418762207</ele>
        <time>2012-11-06T07:59:49Z</time>
      </trkpt>
      <trkpt lat="-21.22094" lon="55.31879">
        <ele>366.77163696289</ele>
        <time>2012-11-06T07:59:51Z</time>
      </trkpt>
      <trkpt lat="-21.22086" lon="55.31871">
        <ele>370.05352783203</ele>
        <time>2012-11-06T07:59:53Z</time>
      </trkpt>
      <trkpt lat="-21.22079" lon="55.31865">
        <ele>370.59118652344</ele>
        <time>2012-11-06T07:59:55Z</time>
      </trkpt>
      <trkpt lat="-21.22075" lon="55.31861">
        <ele>368.99032592773</ele>
        <time>2012-11-06T07:59:57Z</time>
      </trkpt>
      <trkpt lat="-21.2207" lon="55.31857">
        <ele>371.24664306641</ele>
        <time>2012-11-06T07:59:59Z</time>
      </trkpt>
      <trkpt lat="-21.22067" lon="55.31854">
        <ele>372.03399658203</ele>
        <time>2012-11-06T08:00:00Z</time>
      </trkpt>
      <trkpt lat="-21.22064" lon="55.31852">
        <ele>371.58728027344</ele>
        <time>2012-11-06T08:00:01Z</time>
      </trkpt>
      <trkpt lat="-21.22057" lon="55.31848">
        <ele>369.13540649414</ele>
        <time>2012-11-06T08:00:03Z</time>
      </trkpt>
      <trkpt lat="-21.22054" lon="55.31846">
        <ele>368.56698608398</ele>
        <time>2012-11-06T08:00:04Z</time>
      </trkpt>
      <trkpt lat="-21.22051" lon="55.31844">
        <ele>368.39199829102</ele>
        <time>2012-11-06T08:00:05Z</time>
      </trkpt>
      <trkpt lat="-21.22048" lon="55.31842">
        <ele>368.36505126953</ele>
        <time>2012-11-06T08:00:06Z</time>
      </trkpt>
      <trkpt lat="-21.22045" lon="55.3184">
        <ele>367.90582275391</ele>
        <time>2012-11-06T08:00:07Z</time>
      </trkpt>
      <trkpt lat="-21.22042" lon="55.31839">
        <ele>368.24450683594</ele>
        <time>2012-11-06T08:00:08Z</time>
      </trkpt>
      <trkpt lat="-21.22039" lon="55.31837">
        <ele>369.34631347656</ele>
        <time>2012-11-06T08:00:09Z</time>
      </trkpt>
      <trkpt lat="-21.22036" lon="55.31835">
        <ele>371.9255065918</ele>
        <time>2012-11-06T08:00:10Z</time>
      </trkpt>
      <trkpt lat="-21.22033" lon="55.31833">
        <ele>372.35592651367</ele>
        <time>2012-11-06T08:00:11Z</time>
      </trkpt>
      <trkpt lat="-21.22027" lon="55.3183">
        <ele>375.58166503906</ele>
        <time>2012-11-06T08:00:13Z</time>
      </trkpt>
      <trkpt lat="-21.2202" lon="55.31828">
        <ele>372.56988525391</ele>
        <time>2012-11-06T08:00:15Z</time>
      </trkpt>
      <trkpt lat="-21.22017" lon="55.31827">
        <ele>374.09649658203</ele>
        <time>2012-11-06T08:00:16Z</time>
      </trkpt>
      <trkpt lat="-21.22011" lon="55.31824">
        <ele>372.74057006836</ele>
        <time>2012-11-06T08:00:18Z</time>
      </trkpt>
      <trkpt lat="-21.22005" lon="55.31822">
        <ele>373.07992553711</ele>
        <time>2012-11-06T08:00:20Z</time>
      </trkpt>
      <trkpt lat="-21.22003" lon="55.31821">
        <ele>374.57876586914</ele>
        <time>2012-11-06T08:00:21Z</time>
      </trkpt>
      <trkpt lat="-21.21996" lon="55.31818">
        <ele>373.76919555664</ele>
        <time>2012-11-06T08:00:23Z</time>
      </trkpt>
      <trkpt lat="-21.21992" lon="55.31817">
        <ele>375.85903930664</ele>
        <time>2012-11-06T08:00:24Z</time>
      </trkpt>
      <trkpt lat="-21.21989" lon="55.31816">
        <ele>376.58630371094</ele>
        <time>2012-11-06T08:00:25Z</time>
      </trkpt>
      <trkpt lat="-21.21981" lon="55.31816">
        <ele>375.26141357422</ele>
        <time>2012-11-06T08:00:27Z</time>
      </trkpt>
      <trkpt lat="-21.21978" lon="55.31817">
        <ele>375.40390014648</ele>
        <time>2012-11-06T08:00:28Z</time>
      </trkpt>
      <trkpt lat="-21.21973" lon="55.31818">
        <ele>375.68856811523</ele>
        <time>2012-11-06T08:00:30Z</time>
      </trkpt>
      <trkpt lat="-21.21965" lon="55.31821">
        <ele>371.69647216797</ele>
        <time>2012-11-06T08:00:32Z</time>
      </trkpt>
      <trkpt lat="-21.21957" lon="55.31824">
        <ele>374.248046875</ele>
        <time>2012-11-06T08:00:34Z</time>
      </trkpt>
      <trkpt lat="-21.21949" lon="55.31827">
        <ele>376.23419189453</ele>
        <time>2012-11-06T08:00:36Z</time>
      </trkpt>
      <trkpt lat="-21.21946" lon="55.31828">
        <ele>375.86672973633</ele>
        <time>2012-11-06T08:00:37Z</time>
      </trkpt>
      <trkpt lat="-21.21937" lon="55.31829">
        <ele>374.55471801758</ele>
        <time>2012-11-06T08:00:39Z</time>
      </trkpt>
      <trkpt lat="-21.21931" lon="55.31829">
        <ele>372.44976806641</ele>
        <time>2012-11-06T08:00:41Z</time>
      </trkpt>
      <trkpt lat="-21.21926" lon="55.31828">
        <ele>370.7431640625</ele>
        <time>2012-11-06T08:00:42Z</time>
      </trkpt>
      <trkpt lat="-21.21918" lon="55.31826">
        <ele>374.2314453125</ele>
        <time>2012-11-06T08:00:44Z</time>
      </trkpt>
      <trkpt lat="-21.2191" lon="55.31825">
        <ele>376.47631835938</ele>
        <time>2012-11-06T08:00:46Z</time>
      </trkpt>
      <trkpt lat="-21.21907" lon="55.31824">
        <ele>374.625</ele>
        <time>2012-11-06T08:00:47Z</time>
      </trkpt>
      <trkpt lat="-21.21904" lon="55.31824">
        <ele>376.5361328125</ele>
        <time>2012-11-06T08:00:48Z</time>
      </trkpt>
      <trkpt lat="-21.21893" lon="55.31822">
        <ele>376.25241088867</ele>
        <time>2012-11-06T08:00:50Z</time>
      </trkpt>
      <trkpt lat="-21.21883" lon="55.31821">
        <ele>376.02615356445</ele>
        <time>2012-11-06T08:00:52Z</time>
      </trkpt>
      <trkpt lat="-21.21875" lon="55.31821">
        <ele>377.03173828125</ele>
        <time>2012-11-06T08:00:54Z</time>
      </trkpt>
      <trkpt lat="-21.21871" lon="55.3182">
        <ele>376.38174438477</ele>
        <time>2012-11-06T08:00:55Z</time>
      </trkpt>
      <trkpt lat="-21.21862" lon="55.3182">
        <ele>375.93411254883</ele>
        <time>2012-11-06T08:00:57Z</time>
      </trkpt>
      <trkpt lat="-21.2185" lon="55.3182">
        <ele>372.56958007812</ele>
        <time>2012-11-06T08:00:59Z</time>
      </trkpt>
      <trkpt lat="-21.21844" lon="55.3182">
        <ele>374.11376953125</ele>
        <time>2012-11-06T08:01:01Z</time>
      </trkpt>
      <trkpt lat="-21.21836" lon="55.31822">
        <ele>378.14315795898</ele>
        <time>2012-11-06T08:01:03Z</time>
      </trkpt>
      <trkpt lat="-21.21833" lon="55.31823">
        <ele>380.21878051758</ele>
        <time>2012-11-06T08:01:04Z</time>
      </trkpt>
      <trkpt lat="-21.21825" lon="55.31827">
        <ele>378.06512451172</ele>
        <time>2012-11-06T08:01:06Z</time>
      </trkpt>
      <trkpt lat="-21.21822" lon="55.31828">
        <ele>378.44955444336</ele>
        <time>2012-11-06T08:01:07Z</time>
      </trkpt>
      <trkpt lat="-21.21816" lon="55.31833">
        <ele>378.84881591797</ele>
        <time>2012-11-06T08:01:09Z</time>
      </trkpt>
      <trkpt lat="-21.21809" lon="55.31836">
        <ele>377.6946105957</ele>
        <time>2012-11-06T08:01:11Z</time>
      </trkpt>
      <trkpt lat="-21.21804" lon="55.31838">
        <ele>377.13241577148</ele>
        <time>2012-11-06T08:01:12Z</time>
      </trkpt>
      <trkpt lat="-21.218" lon="55.31839">
        <ele>378.46072387695</ele>
        <time>2012-11-06T08:01:13Z</time>
      </trkpt>
      <trkpt lat="-21.21796" lon="55.31839">
        <ele>373.87884521484</ele>
        <time>2012-11-06T08:01:14Z</time>
      </trkpt>
      <trkpt lat="-21.21792" lon="55.3184">
        <ele>376.14248657227</ele>
        <time>2012-11-06T08:01:15Z</time>
      </trkpt>
      <trkpt lat="-21.21783" lon="55.31843">
        <ele>376.05001831055</ele>
        <time>2012-11-06T08:01:17Z</time>
      </trkpt>
      <trkpt lat="-21.21774" lon="55.31841">
        <ele>376.3244934082</ele>
        <time>2012-11-06T08:01:19Z</time>
      </trkpt>
      <trkpt lat="-21.21764" lon="55.3184">
        <ele>371.00485229492</ele>
        <time>2012-11-06T08:01:21Z</time>
      </trkpt>
      <trkpt lat="-21.2176" lon="55.3184">
        <ele>373.892578125</ele>
        <time>2012-11-06T08:01:22Z</time>
      </trkpt>
      <trkpt lat="-21.21755" lon="55.31839">
        <ele>372.62268066406</ele>
        <time>2012-11-06T08:01:23Z</time>
      </trkpt>
      <trkpt lat="-21.21745" lon="55.31838">
        <ele>373.99111938477</ele>
        <time>2012-11-06T08:01:25Z</time>
      </trkpt>
      <trkpt lat="-21.21739" lon="55.31837">
        <ele>376.1096496582</ele>
        <time>2012-11-06T08:01:26Z</time>
      </trkpt>
      <trkpt lat="-21.2173" lon="55.31835">
        <ele>374.55926513672</ele>
        <time>2012-11-06T08:01:28Z</time>
      </trkpt>
      <trkpt lat="-21.21724" lon="55.31834">
        <ele>376.89465332031</ele>
        <time>2012-11-06T08:01:29Z</time>
      </trkpt>
      <trkpt lat="-21.21714" lon="55.31833">
        <ele>377.63934326172</ele>
        <time>2012-11-06T08:01:30Z</time>
      </trkpt>
      <trkpt lat="-21.21708" lon="55.31832">
        <ele>375.4426574707</ele>
        <time>2012-11-06T08:01:32Z</time>
      </trkpt>
      <trkpt lat="-21.21703" lon="55.31832">
        <ele>374.72705078125</ele>
        <time>2012-11-06T08:01:33Z</time>
      </trkpt>
      <trkpt lat="-21.21697" lon="55.31831">
        <ele>373.3473815918</ele>
        <time>2012-11-06T08:01:34Z</time>
      </trkpt>
      <trkpt lat="-21.21687" lon="55.31827">
        <ele>373.41458129883</ele>
        <time>2012-11-06T08:01:36Z</time>
      </trkpt>
      <trkpt lat="-21.21682" lon="55.31823">
        <ele>376.25250244141</ele>
        <time>2012-11-06T08:01:37Z</time>
      </trkpt>
      <trkpt lat="-21.21679" lon="55.31818">
        <ele>379.98168945312</ele>
        <time>2012-11-06T08:01:38Z</time>
      </trkpt>
      <trkpt lat="-21.21672" lon="55.31809">
        <ele>380.58612060547</ele>
        <time>2012-11-06T08:01:39Z</time>
      </trkpt>
      <trkpt lat="-21.21668" lon="55.31802">
        <ele>378.12744140625</ele>
        <time>2012-11-06T08:01:41Z</time>
      </trkpt>
      <trkpt lat="-21.2166" lon="55.31791">
        <ele>374.72137451172</ele>
        <time>2012-11-06T08:01:43Z</time>
      </trkpt>
      <trkpt lat="-21.21657" lon="55.31787">
        <ele>373.33963012695</ele>
        <time>2012-11-06T08:01:44Z</time>
      </trkpt>
      <trkpt lat="-21.21648" lon="55.31782">
        <ele>373.82836914062</ele>
        <time>2012-11-06T08:01:46Z</time>
      </trkpt>
      <trkpt lat="-21.21644" lon="55.31779">
        <ele>373.8483581543</ele>
        <time>2012-11-06T08:01:47Z</time>
      </trkpt>
      <trkpt lat="-21.21639" lon="55.31777">
        <ele>374.11209106445</ele>
        <time>2012-11-06T08:01:48Z</time>
      </trkpt>
      <trkpt lat="-21.21628" lon="55.31771">
        <ele>377.55010986328</ele>
        <time>2012-11-06T08:01:50Z</time>
      </trkpt>
      <trkpt lat="-21.21616" lon="55.31766">
        <ele>375.09323120117</ele>
        <time>2012-11-06T08:01:52Z</time>
      </trkpt>
      <trkpt lat="-21.2161" lon="55.31763">
        <ele>373.78598022461</ele>
        <time>2012-11-06T08:01:53Z</time>
      </trkpt>
      <trkpt lat="-21.216" lon="55.31756">
        <ele>374.36056518555</ele>
        <time>2012-11-06T08:01:55Z</time>
      </trkpt>
      <trkpt lat="-21.21596" lon="55.31753">
        <ele>377.84613037109</ele>
        <time>2012-11-06T08:01:56Z</time>
      </trkpt>
      <trkpt lat="-21.21592" lon="55.31749">
        <ele>380.70245361328</ele>
        <time>2012-11-06T08:01:57Z</time>
      </trkpt>
      <trkpt lat="-21.21583" lon="55.31738">
        <ele>378.83578491211</ele>
        <time>2012-11-06T08:01:59Z</time>
      </trkpt>
      <trkpt lat="-21.21575" lon="55.3173">
        <ele>380.83453369141</ele>
        <time>2012-11-06T08:02:01Z</time>
      </trkpt>
      <trkpt lat="-21.21564" lon="55.31727">
        <ele>377.25964355469</ele>
        <time>2012-11-06T08:02:03Z</time>
      </trkpt>
      <trkpt lat="-21.21553" lon="55.31724">
        <ele>375.84503173828</ele>
        <time>2012-11-06T08:02:05Z</time>
      </trkpt>
      <trkpt lat="-21.21548" lon="55.31724">
        <ele>375.91833496094</ele>
        <time>2012-11-06T08:02:06Z</time>
      </trkpt>
      <trkpt lat="-21.21539" lon="55.31723">
        <ele>376.3623046875</ele>
        <time>2012-11-06T08:02:08Z</time>
      </trkpt>
      <trkpt lat="-21.21528" lon="55.31725">
        <ele>376.67669677734</ele>
        <time>2012-11-06T08:02:10Z</time>
      </trkpt>
      <trkpt lat="-21.21522" lon="55.31727">
        <ele>375.31967163086</ele>
        <time>2012-11-06T08:02:11Z</time>
      </trkpt>
      <trkpt lat="-21.21518" lon="55.31729">
        <ele>376.99465942383</ele>
        <time>2012-11-06T08:02:12Z</time>
      </trkpt>
      <trkpt lat="-21.21509" lon="55.31736">
        <ele>378.03005981445</ele>
        <time>2012-11-06T08:02:14Z</time>
      </trkpt>
      <trkpt lat="-21.21505" lon="55.3174">
        <ele>377.73754882812</ele>
        <time>2012-11-06T08:02:15Z</time>
      </trkpt>
      <trkpt lat="-21.215" lon="55.31745">
        <ele>377.11840820312</ele>
        <time>2012-11-06T08:02:16Z</time>
      </trkpt>
      <trkpt lat="-21.2149" lon="55.3175">
        <ele>377.06396484375</ele>
        <time>2012-11-06T08:02:18Z</time>
      </trkpt>
      <trkpt lat="-21.21485" lon="55.3175">
        <ele>377.39288330078</ele>
        <time>2012-11-06T08:02:19Z</time>
      </trkpt>
      <trkpt lat="-21.21474" lon="55.31746">
        <ele>377.15908813477</ele>
        <time>2012-11-06T08:02:21Z</time>
      </trkpt>
      <trkpt lat="-21.21465" lon="55.3174">
        <ele>377.18853759766</ele>
        <time>2012-11-06T08:02:23Z</time>
      </trkpt>
      <trkpt lat="-21.21458" lon="55.31733">
        <ele>378.60592651367</ele>
        <time>2012-11-06T08:02:25Z</time>
      </trkpt>
      <trkpt lat="-21.21454" lon="55.31724">
        <ele>382.81253051758</ele>
        <time>2012-11-06T08:02:27Z</time>
      </trkpt>
      <trkpt lat="-21.21452" lon="55.31715">
        <ele>386.39111328125</ele>
        <time>2012-11-06T08:02:29Z</time>
      </trkpt>
      <trkpt lat="-21.21449" lon="55.31704">
        <ele>386.71362304688</ele>
        <time>2012-11-06T08:02:31Z</time>
      </trkpt>
      <trkpt lat="-21.21441" lon="55.31696">
        <ele>384.08401489258</ele>
        <time>2012-11-06T08:02:33Z</time>
      </trkpt>
      <trkpt lat="-21.21437" lon="55.31693">
        <ele>383.09222412109</ele>
        <time>2012-11-06T08:02:34Z</time>
      </trkpt>
      <trkpt lat="-21.21429" lon="55.31687">
        <ele>379.50723266602</ele>
        <time>2012-11-06T08:02:36Z</time>
      </trkpt>
      <trkpt lat="-21.21424" lon="55.31679">
        <ele>380.37274169922</ele>
        <time>2012-11-06T08:02:38Z</time>
      </trkpt>
      <trkpt lat="-21.21421" lon="55.31675">
        <ele>380.75164794922</ele>
        <time>2012-11-06T08:02:39Z</time>
      </trkpt>
      <trkpt lat="-21.21415" lon="55.31665">
        <ele>380.81210327148</ele>
        <time>2012-11-06T08:02:41Z</time>
      </trkpt>
      <trkpt lat="-21.21412" lon="55.3166">
        <ele>381.39541625977</ele>
        <time>2012-11-06T08:02:42Z</time>
      </trkpt>
      <trkpt lat="-21.21404" lon="55.31653">
        <ele>380.36706542969</ele>
        <time>2012-11-06T08:02:44Z</time>
      </trkpt>
      <trkpt lat="-21.21393" lon="55.31647">
        <ele>380.74151611328</ele>
        <time>2012-11-06T08:02:46Z</time>
      </trkpt>
      <trkpt lat="-21.21383" lon="55.31643">
        <ele>380.15954589844</ele>
        <time>2012-11-06T08:02:48Z</time>
      </trkpt>
      <trkpt lat="-21.21377" lon="55.3164">
        <ele>379.73825073242</ele>
        <time>2012-11-06T08:02:49Z</time>
      </trkpt>
      <trkpt lat="-21.21372" lon="55.31638">
        <ele>379.98080444336</ele>
        <time>2012-11-06T08:02:50Z</time>
      </trkpt>
      <trkpt lat="-21.21367" lon="55.31635">
        <ele>379.3857421875</ele>
        <time>2012-11-06T08:02:51Z</time>
      </trkpt>
      <trkpt lat="-21.21362" lon="55.31632">
        <ele>379.44973754883</ele>
        <time>2012-11-06T08:02:52Z</time>
      </trkpt>
      <trkpt lat="-21.21358" lon="55.3163">
        <ele>377.68927001953</ele>
        <time>2012-11-06T08:02:53Z</time>
      </trkpt>
      <trkpt lat="-21.2135" lon="55.31624">
        <ele>376.41244506836</ele>
        <time>2012-11-06T08:02:55Z</time>
      </trkpt>
      <trkpt lat="-21.21341" lon="55.31616">
        <ele>379.11608886719</ele>
        <time>2012-11-06T08:02:56Z</time>
      </trkpt>
      <trkpt lat="-21.21338" lon="55.31613">
        <ele>377.30599975586</ele>
        <time>2012-11-06T08:02:58Z</time>
      </trkpt>
      <trkpt lat="-21.21335" lon="55.31611">
        <ele>376.41448974609</ele>
        <time>2012-11-06T08:02:59Z</time>
      </trkpt>
      <trkpt lat="-21.21332" lon="55.31607">
        <ele>373.66088867188</ele>
        <time>2012-11-06T08:03:01Z</time>
      </trkpt>
      <trkpt lat="-21.21331" lon="55.31604">
        <ele>373.13247680664</ele>
        <time>2012-11-06T08:03:03Z</time>
      </trkpt>
      <trkpt lat="-21.21332" lon="55.31603">
        <ele>374.90454101562</ele>
        <time>2012-11-06T08:03:04Z</time>
      </trkpt>
      <trkpt lat="-21.21336" lon="55.31606">
        <ele>378.36853027344</ele>
        <time>2012-11-06T08:03:07Z</time>
      </trkpt>
      <trkpt lat="-21.21336" lon="55.31608">
        <ele>379.11169433594</ele>
        <time>2012-11-06T08:03:09Z</time>
      </trkpt>
      <trkpt lat="-21.21336" lon="55.31607">
        <ele>379.07360839844</ele>
        <time>2012-11-06T08:03:10Z</time>
      </trkpt>
      <trkpt lat="-21.21336" lon="55.31605">
        <ele>378.43759155273</ele>
        <time>2012-11-06T08:03:11Z</time>
      </trkpt>
      <trkpt lat="-21.21337" lon="55.31603">
        <ele>378.31072998047</ele>
        <time>2012-11-06T08:03:13Z</time>
      </trkpt>
      <trkpt lat="-21.21338" lon="55.31602">
        <ele>377.98306274414</ele>
        <time>2012-11-06T08:03:14Z</time>
      </trkpt>
      <trkpt lat="-21.2134" lon="55.31598">
        <ele>376.53060913086</ele>
        <time>2012-11-06T08:03:16Z</time>
      </trkpt>
      <trkpt lat="-21.21344" lon="55.31592">
        <ele>378.01071166992</ele>
        <time>2012-11-06T08:03:18Z</time>
      </trkpt>
      <trkpt lat="-21.21344" lon="55.31581">
        <ele>377.22393798828</ele>
        <time>2012-11-06T08:03:20Z</time>
      </trkpt>
      <trkpt lat="-21.2134" lon="55.3157">
        <ele>375.22076416016</ele>
        <time>2012-11-06T08:03:22Z</time>
      </trkpt>
      <trkpt lat="-21.21332" lon="55.31561">
        <ele>373.6760559082</ele>
        <time>2012-11-06T08:03:24Z</time>
      </trkpt>
      <trkpt lat="-21.21328" lon="55.31558">
        <ele>373.53369140625</ele>
        <time>2012-11-06T08:03:25Z</time>
      </trkpt>
      <trkpt lat="-21.21321" lon="55.31553">
        <ele>374.11209106445</ele>
        <time>2012-11-06T08:03:27Z</time>
      </trkpt>
      <trkpt lat="-21.21319" lon="55.31552">
        <ele>374.66387939453</ele>
        <time>2012-11-06T08:03:28Z</time>
      </trkpt>
      <trkpt lat="-21.21318" lon="55.31549">
        <ele>373.75872802734</ele>
        <time>2012-11-06T08:03:30Z</time>
      </trkpt>
      <trkpt lat="-21.21321" lon="55.31548">
        <ele>373.6335144043</ele>
        <time>2012-11-06T08:03:32Z</time>
      </trkpt>
      <trkpt lat="-21.21322" lon="55.31548">
        <ele>373.43225097656</ele>
        <time>2012-11-06T08:03:33Z</time>
      </trkpt>
      <trkpt lat="-21.21326" lon="55.3155">
        <ele>372.41415405273</ele>
        <time>2012-11-06T08:03:35Z</time>
      </trkpt>
      <trkpt lat="-21.21328" lon="55.31552">
        <ele>372.26876831055</ele>
        <time>2012-11-06T08:03:36Z</time>
      </trkpt>
      <trkpt lat="-21.21331" lon="55.31556">
        <ele>371.13412475586</ele>
        <time>2012-11-06T08:03:38Z</time>
      </trkpt>
      <trkpt lat="-21.21333" lon="55.31558">
        <ele>371.44412231445</ele>
        <time>2012-11-06T08:03:39Z</time>
      </trkpt>
      <trkpt lat="-21.21337" lon="55.31562">
        <ele>371.28707885742</ele>
        <time>2012-11-06T08:03:40Z</time>
      </trkpt>
      <trkpt lat="-21.21338" lon="55.31564">
        <ele>368.12634277344</ele>
        <time>2012-11-06T08:03:42Z</time>
      </trkpt>
      <trkpt lat="-21.2134" lon="55.31567">
        <ele>372.46859741211</ele>
        <time>2012-11-06T08:03:44Z</time>
      </trkpt>
      <trkpt lat="-21.21341" lon="55.31571">
        <ele>371.02005004883</ele>
        <time>2012-11-06T08:03:46Z</time>
      </trkpt>
      <trkpt lat="-21.21341" lon="55.31572">
        <ele>372.54769897461</ele>
        <time>2012-11-06T08:03:47Z</time>
      </trkpt>
      <trkpt lat="-21.21344" lon="55.31576">
        <ele>375.47088623047</ele>
        <time>2012-11-06T08:03:49Z</time>
      </trkpt>
      <trkpt lat="-21.21345" lon="55.3158">
        <ele>379.51147460938</ele>
        <time>2012-11-06T08:03:51Z</time>
      </trkpt>
      <trkpt lat="-21.21346" lon="55.31585">
        <ele>375.3069152832</ele>
        <time>2012-11-06T08:03:53Z</time>
      </trkpt>
      <trkpt lat="-21.21347" lon="55.3159">
        <ele>377.52694702148</ele>
        <time>2012-11-06T08:03:55Z</time>
      </trkpt>
      <trkpt lat="-21.21348" lon="55.31592">
        <ele>371.50451660156</ele>
        <time>2012-11-06T08:03:56Z</time>
      </trkpt>
      <trkpt lat="-21.21348" lon="55.31594">
        <ele>375.03070068359</ele>
        <time>2012-11-06T08:03:57Z</time>
      </trkpt>
      <trkpt lat="-21.21347" lon="55.31597">
        <ele>375.29672241211</ele>
        <time>2012-11-06T08:03:59Z</time>
      </trkpt>
      <trkpt lat="-21.21347" lon="55.31601">
        <ele>375.38412475586</ele>
        <time>2012-11-06T08:04:01Z</time>
      </trkpt>
      <trkpt lat="-21.21347" lon="55.31603">
        <ele>376.04525756836</ele>
        <time>2012-11-06T08:04:02Z</time>
      </trkpt>
      <trkpt lat="-21.21347" lon="55.31605">
        <ele>377.16253662109</ele>
        <time>2012-11-06T08:04:03Z</time>
      </trkpt>
      <trkpt lat="-21.21347" lon="55.3161">
        <ele>375.79287719727</ele>
        <time>2012-11-06T08:04:05Z</time>
      </trkpt>
      <trkpt lat="-21.21347" lon="55.31611">
        <ele>376.47729492188</ele>
        <time>2012-11-06T08:04:06Z</time>
      </trkpt>
      <trkpt lat="-21.21345" lon="55.31613">
        <ele>382.47583007812</ele>
        <time>2012-11-06T08:04:08Z</time>
      </trkpt>
      <trkpt lat="-21.2134" lon="55.31612">
        <ele>384.35272216797</ele>
        <time>2012-11-06T08:04:09Z</time>
      </trkpt>
      <trkpt lat="-21.21338" lon="55.31611">
        <ele>381.99673461914</ele>
        <time>2012-11-06T08:04:11Z</time>
      </trkpt>
      <trkpt lat="-21.21333" lon="55.31609">
        <ele>380.90161132812</ele>
        <time>2012-11-06T08:04:13Z</time>
      </trkpt>
      <trkpt lat="-21.2133" lon="55.31607">
        <ele>379.6826171875</ele>
        <time>2012-11-06T08:04:14Z</time>
      </trkpt>
      <trkpt lat="-21.21325" lon="55.31603">
        <ele>379.40481567383</ele>
        <time>2012-11-06T08:04:16Z</time>
      </trkpt>
      <trkpt lat="-21.21323" lon="55.31602">
        <ele>380.38320922852</ele>
        <time>2012-11-06T08:04:17Z</time>
      </trkpt>
      <trkpt lat="-21.2132" lon="55.316">
        <ele>380.16329956055</ele>
        <time>2012-11-06T08:04:18Z</time>
      </trkpt>
      <trkpt lat="-21.21313" lon="55.31595">
        <ele>379.48657226562</ele>
        <time>2012-11-06T08:04:20Z</time>
      </trkpt>
      <trkpt lat="-21.21311" lon="55.31593">
        <ele>380.22595214844</ele>
        <time>2012-11-06T08:04:21Z</time>
      </trkpt>
      <trkpt lat="-21.21308" lon="55.31589">
        <ele>378.44119262695</ele>
        <time>2012-11-06T08:04:23Z</time>
      </trkpt>
      <trkpt lat="-21.21301" lon="55.31585">
        <ele>378.33044433594</ele>
        <time>2012-11-06T08:04:25Z</time>
      </trkpt>
      <trkpt lat="-21.21293" lon="55.3158">
        <ele>380.05282592773</ele>
        <time>2012-11-06T08:04:27Z</time>
      </trkpt>
      <trkpt lat="-21.21285" lon="55.31574">
        <ele>380.2998046875</ele>
        <time>2012-11-06T08:04:29Z</time>
      </trkpt>
      <trkpt lat="-21.21277" lon="55.31569">
        <ele>380.72155761719</ele>
        <time>2012-11-06T08:04:31Z</time>
      </trkpt>
      <trkpt lat="-21.21273" lon="55.31567">
        <ele>381.2412109375</ele>
        <time>2012-11-06T08:04:32Z</time>
      </trkpt>
      <trkpt lat="-21.21266" lon="55.31563">
        <ele>381.55123901367</ele>
        <time>2012-11-06T08:04:34Z</time>
      </trkpt>
      <trkpt lat="-21.21262" lon="55.31561">
        <ele>380.78610229492</ele>
        <time>2012-11-06T08:04:35Z</time>
      </trkpt>
      <trkpt lat="-21.21254" lon="55.31558">
        <ele>380.10504150391</ele>
        <time>2012-11-06T08:04:37Z</time>
      </trkpt>
      <trkpt lat="-21.21251" lon="55.31557">
        <ele>379.56741333008</ele>
        <time>2012-11-06T08:04:38Z</time>
      </trkpt>
      <trkpt lat="-21.21247" lon="55.31555">
        <ele>380.05764770508</ele>
        <time>2012-11-06T08:04:39Z</time>
      </trkpt>
      <trkpt lat="-21.21237" lon="55.31552">
        <ele>379.33184814453</ele>
        <time>2012-11-06T08:04:41Z</time>
      </trkpt>
      <trkpt lat="-21.21227" lon="55.31549">
        <ele>379.23394775391</ele>
        <time>2012-11-06T08:04:43Z</time>
      </trkpt>
      <trkpt lat="-21.21223" lon="55.31547">
        <ele>378.94488525391</ele>
        <time>2012-11-06T08:04:44Z</time>
      </trkpt>
      <trkpt lat="-21.21214" lon="55.31544">
        <ele>379.00277709961</ele>
        <time>2012-11-06T08:04:46Z</time>
      </trkpt>
      <trkpt lat="-21.2121" lon="55.31543">
        <ele>379.38409423828</ele>
        <time>2012-11-06T08:04:47Z</time>
      </trkpt>
      <trkpt lat="-21.21202" lon="55.3154">
        <ele>379.57333374023</ele>
        <time>2012-11-06T08:04:49Z</time>
      </trkpt>
      <trkpt lat="-21.21194" lon="55.31537">
        <ele>380.07571411133</ele>
        <time>2012-11-06T08:04:51Z</time>
      </trkpt>
      <trkpt lat="-21.21191" lon="55.31534">
        <ele>383.248046875</ele>
        <time>2012-11-06T08:04:52Z</time>
      </trkpt>
      <trkpt lat="-21.21184" lon="55.31527">
        <ele>383.15786743164</ele>
        <time>2012-11-06T08:04:54Z</time>
      </trkpt>
      <trkpt lat="-21.21178" lon="55.31519">
        <ele>386.74798583984</ele>
        <time>2012-11-06T08:04:56Z</time>
      </trkpt>
      <trkpt lat="-21.21174" lon="55.31511">
        <ele>379.85949707031</ele>
        <time>2012-11-06T08:04:58Z</time>
      </trkpt>
      <trkpt lat="-21.21171" lon="55.31506">
        <ele>378.42428588867</ele>
        <time>2012-11-06T08:04:59Z</time>
      </trkpt>
      <trkpt lat="-21.21166" lon="55.31498">
        <ele>380.51678466797</ele>
        <time>2012-11-06T08:05:01Z</time>
      </trkpt>
      <trkpt lat="-21.21164" lon="55.31494">
        <ele>379.28689575195</ele>
        <time>2012-11-06T08:05:02Z</time>
      </trkpt>
      <trkpt lat="-21.21161" lon="55.3149">
        <ele>380.70657348633</ele>
        <time>2012-11-06T08:05:03Z</time>
      </trkpt>
      <trkpt lat="-21.21159" lon="55.31486">
        <ele>382.27856445312</ele>
        <time>2012-11-06T08:05:04Z</time>
      </trkpt>
      <trkpt lat="-21.21157" lon="55.31479">
        <ele>380.96063232422</ele>
        <time>2012-11-06T08:05:06Z</time>
      </trkpt>
      <trkpt lat="-21.21158" lon="55.31476">
        <ele>376.14047241211</ele>
        <time>2012-11-06T08:05:07Z</time>
      </trkpt>
      <trkpt lat="-21.21159" lon="55.31468">
        <ele>380.84915161133</ele>
        <time>2012-11-06T08:05:09Z</time>
      </trkpt>
      <trkpt lat="-21.21158" lon="55.31459">
        <ele>379.91235351562</ele>
        <time>2012-11-06T08:05:11Z</time>
      </trkpt>
      <trkpt lat="-21.21158" lon="55.31446">
        <ele>380.67636108398</ele>
        <time>2012-11-06T08:05:13Z</time>
      </trkpt>
      <trkpt lat="-21.21158" lon="55.31441">
        <ele>378.56256103516</ele>
        <time>2012-11-06T08:05:14Z</time>
      </trkpt>
      <trkpt lat="-21.21158" lon="55.31433">
        <ele>380.07958984375</ele>
        <time>2012-11-06T08:05:15Z</time>
      </trkpt>
      <trkpt lat="-21.21158" lon="55.31419">
        <ele>375.30181884766</ele>
        <time>2012-11-06T08:05:17Z</time>
      </trkpt>
      <trkpt lat="-21.21158" lon="55.31407">
        <ele>377.59808349609</ele>
        <time>2012-11-06T08:05:19Z</time>
      </trkpt>
      <trkpt lat="-21.21158" lon="55.31394">
        <ele>374.49743652344</ele>
        <time>2012-11-06T08:05:21Z</time>
      </trkpt>
      <trkpt lat="-21.21155" lon="55.3138">
        <ele>372.48095703125</ele>
        <time>2012-11-06T08:05:23Z</time>
      </trkpt>
      <trkpt lat="-21.21154" lon="55.31374">
        <ele>375.02197265625</ele>
        <time>2012-11-06T08:05:24Z</time>
      </trkpt>
      <trkpt lat="-21.21153" lon="55.31369">
        <ele>373.58673095703</ele>
        <time>2012-11-06T08:05:25Z</time>
      </trkpt>
      <trkpt lat="-21.21148" lon="55.31358">
        <ele>369.65625</ele>
        <time>2012-11-06T08:05:27Z</time>
      </trkpt>
      <trkpt lat="-21.21144" lon="55.31354">
        <ele>370.94378662109</ele>
        <time>2012-11-06T08:05:28Z</time>
      </trkpt>
      <trkpt lat="-21.21142" lon="55.3135">
        <ele>367.62728881836</ele>
        <time>2012-11-06T08:05:30Z</time>
      </trkpt>
      <trkpt lat="-21.21136" lon="55.31345">
        <ele>372.73843383789</ele>
        <time>2012-11-06T08:05:32Z</time>
      </trkpt>
      <trkpt lat="-21.21134" lon="55.31344">
        <ele>372.36090087891</ele>
        <time>2012-11-06T08:05:33Z</time>
      </trkpt>
      <trkpt lat="-21.21132" lon="55.31343">
        <ele>366.54699707031</ele>
        <time>2012-11-06T08:05:34Z</time>
      </trkpt>
      <trkpt lat="-21.21126" lon="55.3134">
        <ele>368.37213134766</ele>
        <time>2012-11-06T08:05:36Z</time>
      </trkpt>
      <trkpt lat="-21.21121" lon="55.31338">
        <ele>369.00497436523</ele>
        <time>2012-11-06T08:05:38Z</time>
      </trkpt>
      <trkpt lat="-21.21114" lon="55.31338">
        <ele>368.27462768555</ele>
        <time>2012-11-06T08:05:40Z</time>
      </trkpt>
      <trkpt lat="-21.21108" lon="55.31341">
        <ele>372.0846862793</ele>
        <time>2012-11-06T08:05:42Z</time>
      </trkpt>
      <trkpt lat="-21.21106" lon="55.31343">
        <ele>370.37710571289</ele>
        <time>2012-11-06T08:05:43Z</time>
      </trkpt>
      <trkpt lat="-21.21104" lon="55.31345">
        <ele>369.27905273438</ele>
        <time>2012-11-06T08:05:44Z</time>
      </trkpt>
      <trkpt lat="-21.21099" lon="55.31349">
        <ele>370.29858398438</ele>
        <time>2012-11-06T08:05:46Z</time>
      </trkpt>
      <trkpt lat="-21.21091" lon="55.31351">
        <ele>373.548828125</ele>
        <time>2012-11-06T08:05:48Z</time>
      </trkpt>
      <trkpt lat="-21.21085" lon="55.31349">
        <ele>363.17462158203</ele>
        <time>2012-11-06T08:05:50Z</time>
      </trkpt>
      <trkpt lat="-21.21081" lon="55.31345">
        <ele>366.26141357422</ele>
        <time>2012-11-06T08:05:52Z</time>
      </trkpt>
      <trkpt lat="-21.21078" lon="55.31343">
        <ele>367.14447021484</ele>
        <time>2012-11-06T08:05:53Z</time>
      </trkpt>
      <trkpt lat="-21.21076" lon="55.31337">
        <ele>370.16650390625</ele>
        <time>2012-11-06T08:05:55Z</time>
      </trkpt>
      <trkpt lat="-21.21077" lon="55.31329">
        <ele>370.44412231445</ele>
        <time>2012-11-06T08:05:57Z</time>
      </trkpt>
      <trkpt lat="-21.21078" lon="55.31325">
        <ele>369.46334838867</ele>
        <time>2012-11-06T08:05:58Z</time>
      </trkpt>
      <trkpt lat="-21.21081" lon="55.31315">
        <ele>368.69506835938</ele>
        <time>2012-11-06T08:06:00Z</time>
      </trkpt>
      <trkpt lat="-21.21083" lon="55.31309">
        <ele>368.14572143555</ele>
        <time>2012-11-06T08:06:01Z</time>
      </trkpt>
      <trkpt lat="-21.21087" lon="55.31299">
        <ele>368.46337890625</ele>
        <time>2012-11-06T08:06:03Z</time>
      </trkpt>
      <trkpt lat="-21.21089" lon="55.31293">
        <ele>366.88302612305</ele>
        <time>2012-11-06T08:06:04Z</time>
      </trkpt>
      <trkpt lat="-21.21091" lon="55.31288">
        <ele>364.08627319336</ele>
        <time>2012-11-06T08:06:05Z</time>
      </trkpt>
      <trkpt lat="-21.21092" lon="55.3128">
        <ele>363.51531982422</ele>
        <time>2012-11-06T08:06:06Z</time>
      </trkpt>
      <trkpt lat="-21.21094" lon="55.31269">
        <ele>365.49523925781</ele>
        <time>2012-11-06T08:06:08Z</time>
      </trkpt>
      <trkpt lat="-21.21095" lon="55.31264">
        <ele>360.49890136719</ele>
        <time>2012-11-06T08:06:09Z</time>
      </trkpt>
      <trkpt lat="-21.21098" lon="55.3125">
        <ele>361.07495117188</ele>
        <time>2012-11-06T08:06:11Z</time>
      </trkpt>
      <trkpt lat="-21.211" lon="55.31236">
        <ele>359.35650634766</ele>
        <time>2012-11-06T08:06:13Z</time>
      </trkpt>
      <trkpt lat="-21.211" lon="55.31231">
        <ele>362.83331298828</ele>
        <time>2012-11-06T08:06:14Z</time>
      </trkpt>
      <trkpt lat="-21.211" lon="55.31217">
        <ele>360.1594543457</ele>
        <time>2012-11-06T08:06:16Z</time>
      </trkpt>
      <trkpt lat="-21.21096" lon="55.31205">
        <ele>354.46267700195</ele>
        <time>2012-11-06T08:06:18Z</time>
      </trkpt>
      <trkpt lat="-21.21093" lon="55.31198">
        <ele>353.65505981445</ele>
        <time>2012-11-06T08:06:19Z</time>
      </trkpt>
      <trkpt lat="-21.21088" lon="55.31187">
        <ele>353.72451782227</ele>
        <time>2012-11-06T08:06:21Z</time>
      </trkpt>
      <trkpt lat="-21.21082" lon="55.31177">
        <ele>353.26644897461</ele>
        <time>2012-11-06T08:06:23Z</time>
      </trkpt>
      <trkpt lat="-21.21081" lon="55.31172">
        <ele>350.59289550781</ele>
        <time>2012-11-06T08:06:24Z</time>
      </trkpt>
      <trkpt lat="-21.2108" lon="55.31168">
        <ele>352.26190185547</ele>
        <time>2012-11-06T08:06:25Z</time>
      </trkpt>
      <trkpt lat="-21.21082" lon="55.31155">
        <ele>352.59399414062</ele>
        <time>2012-11-06T08:06:27Z</time>
      </trkpt>
      <trkpt lat="-21.21085" lon="55.31144">
        <ele>349.97979736328</ele>
        <time>2012-11-06T08:06:29Z</time>
      </trkpt>
      <trkpt lat="-21.21087" lon="55.31138">
        <ele>349.53747558594</ele>
        <time>2012-11-06T08:06:30Z</time>
      </trkpt>
      <trkpt lat="-21.21089" lon="55.31131">
        <ele>350.3229675293</ele>
        <time>2012-11-06T08:06:31Z</time>
      </trkpt>
      <trkpt lat="-21.21093" lon="55.31118">
        <ele>353.36001586914</ele>
        <time>2012-11-06T08:06:33Z</time>
      </trkpt>
      <trkpt lat="-21.21096" lon="55.31104">
        <ele>349.2350769043</ele>
        <time>2012-11-06T08:06:35Z</time>
      </trkpt>
      <trkpt lat="-21.21095" lon="55.31089">
        <ele>348.69195556641</ele>
        <time>2012-11-06T08:06:37Z</time>
      </trkpt>
      <trkpt lat="-21.21093" lon="55.31073">
        <ele>347.60247802734</ele>
        <time>2012-11-06T08:06:39Z</time>
      </trkpt>
      <trkpt lat="-21.21088" lon="55.31056">
        <ele>348.25186157227</ele>
        <time>2012-11-06T08:06:41Z</time>
      </trkpt>
      <trkpt lat="-21.21081" lon="55.31043">
        <ele>344.95672607422</ele>
        <time>2012-11-06T08:06:42Z</time>
      </trkpt>
      <trkpt lat="-21.21076" lon="55.31035">
        <ele>343.72320556641</ele>
        <time>2012-11-06T08:06:44Z</time>
      </trkpt>
      <trkpt lat="-21.21068" lon="55.31021">
        <ele>338.75869750977</ele>
        <time>2012-11-06T08:06:46Z</time>
      </trkpt>
      <trkpt lat="-21.21063" lon="55.31015">
        <ele>335.59051513672</ele>
        <time>2012-11-06T08:06:47Z</time>
      </trkpt>
      <trkpt lat="-21.21048" lon="55.31005">
        <ele>338.82131958008</ele>
        <time>2012-11-06T08:06:49Z</time>
      </trkpt>
      <trkpt lat="-21.21037" lon="55.30999">
        <ele>335.52319335938</ele>
        <time>2012-11-06T08:06:51Z</time>
      </trkpt>
      <trkpt lat="-21.21032" lon="55.30991">
        <ele>332.43698120117</ele>
        <time>2012-11-06T08:06:53Z</time>
      </trkpt>
      <trkpt lat="-21.21036" lon="55.30985">
        <ele>339.70989990234</ele>
        <time>2012-11-06T08:06:55Z</time>
      </trkpt>
      <trkpt lat="-21.21046" lon="55.30978">
        <ele>336.1240234375</ele>
        <time>2012-11-06T08:06:57Z</time>
      </trkpt>
      <trkpt lat="-21.21052" lon="55.30975">
        <ele>336.19781494141</ele>
        <time>2012-11-06T08:06:58Z</time>
      </trkpt>
      <trkpt lat="-21.21065" lon="55.30973">
        <ele>337.57925415039</ele>
        <time>2012-11-06T08:07:00Z</time>
      </trkpt>
      <trkpt lat="-21.21072" lon="55.30973">
        <ele>336.30914306641</ele>
        <time>2012-11-06T08:07:01Z</time>
      </trkpt>
      <trkpt lat="-21.21087" lon="55.30974">
        <ele>333.75378417969</ele>
        <time>2012-11-06T08:07:03Z</time>
      </trkpt>
      <trkpt lat="-21.21094" lon="55.30975">
        <ele>333.85775756836</ele>
        <time>2012-11-06T08:07:04Z</time>
      </trkpt>
      <trkpt lat="-21.21102" lon="55.30977">
        <ele>332.57443237305</ele>
        <time>2012-11-06T08:07:05Z</time>
      </trkpt>
      <trkpt lat="-21.21117" lon="55.30982">
        <ele>331.41943359375</ele>
        <time>2012-11-06T08:07:07Z</time>
      </trkpt>
      <trkpt lat="-21.21123" lon="55.30983">
        <ele>331.49627685547</ele>
        <time>2012-11-06T08:07:08Z</time>
      </trkpt>
      <trkpt lat="-21.2113" lon="55.30982">
        <ele>331.27096557617</ele>
        <time>2012-11-06T08:07:09Z</time>
      </trkpt>
      <trkpt lat="-21.21134" lon="55.30981">
        <ele>331.00756835938</ele>
        <time>2012-11-06T08:07:10Z</time>
      </trkpt>
      <trkpt lat="-21.21142" lon="55.30984">
        <ele>329.98873901367</ele>
        <time>2012-11-06T08:07:12Z</time>
      </trkpt>
      <trkpt lat="-21.2115" lon="55.30988">
        <ele>329.68460083008</ele>
        <time>2012-11-06T08:07:14Z</time>
      </trkpt>
      <trkpt lat="-21.21154" lon="55.3099">
        <ele>329.12631225586</ele>
        <time>2012-11-06T08:07:15Z</time>
      </trkpt>
      <trkpt lat="-21.21166" lon="55.30995">
        <ele>327.38363647461</ele>
        <time>2012-11-06T08:07:17Z</time>
      </trkpt>
      <trkpt lat="-21.21174" lon="55.30999">
        <ele>326.29315185547</ele>
        <time>2012-11-06T08:07:18Z</time>
      </trkpt>
      <trkpt lat="-21.21181" lon="55.31002">
        <ele>325.13583374023</ele>
        <time>2012-11-06T08:07:19Z</time>
      </trkpt>
      <trkpt lat="-21.21197" lon="55.3101">
        <ele>324.91036987305</ele>
        <time>2012-11-06T08:07:21Z</time>
      </trkpt>
      <trkpt lat="-21.21213" lon="55.31017">
        <ele>319.88391113281</ele>
        <time>2012-11-06T08:07:23Z</time>
      </trkpt>
      <trkpt lat="-21.2122" lon="55.31019">
        <ele>322.08880615234</ele>
        <time>2012-11-06T08:07:24Z</time>
      </trkpt>
      <trkpt lat="-21.21231" lon="55.31022">
        <ele>322.7314453125</ele>
        <time>2012-11-06T08:07:26Z</time>
      </trkpt>
      <trkpt lat="-21.21233" lon="55.31023">
        <ele>322.23382568359</ele>
        <time>2012-11-06T08:07:28Z</time>
      </trkpt>
      <trkpt lat="-21.21232" lon="55.31021">
        <ele>319.53729248047</ele>
        <time>2012-11-06T08:07:30Z</time>
      </trkpt>
      <trkpt lat="-21.21231" lon="55.3102">
        <ele>320.05328369141</ele>
        <time>2012-11-06T08:07:31Z</time>
      </trkpt>
      <trkpt lat="-21.21229" lon="55.31019">
        <ele>322.05154418945</ele>
        <time>2012-11-06T08:07:33Z</time>
      </trkpt>
      <trkpt lat="-21.21228" lon="55.31019">
        <ele>321.32928466797</ele>
        <time>2012-11-06T08:07:34Z</time>
      </trkpt>
      <trkpt lat="-21.21226" lon="55.31017">
        <ele>324.12170410156</ele>
        <time>2012-11-06T08:07:36Z</time>
      </trkpt>
      <trkpt lat="-21.21226" lon="55.31016">
        <ele>325.92761230469</ele>
        <time>2012-11-06T08:07:38Z</time>
      </trkpt>
      <trkpt lat="-21.21226" lon="55.31016">
        <ele>325.92761230469</ele>
        <time>2012-11-06T08:07:39Z</time>
      </trkpt>
      <trkpt lat="-21.21227" lon="55.31014">
        <ele>324.39611816406</ele>
        <time>2012-11-06T08:07:40Z</time>
      </trkpt>
      <trkpt lat="-21.21227" lon="55.31014">
        <ele>324.39611816406</ele>
        <time>2012-11-06T08:07:41Z</time>
      </trkpt>
      <trkpt lat="-21.21229" lon="55.31013">
        <ele>326.41513061523</ele>
        <time>2012-11-06T08:07:43Z</time>
      </trkpt>
      <trkpt lat="-21.2123" lon="55.31012">
        <ele>325.69519042969</ele>
        <time>2012-11-06T08:07:44Z</time>
      </trkpt>
      <trkpt lat="-21.21233" lon="55.31007">
        <ele>323.13732910156</ele>
        <time>2012-11-06T08:07:46Z</time>
      </trkpt>
      <trkpt lat="-21.21236" lon="55.31002">
        <ele>322.75918579102</ele>
        <time>2012-11-06T08:07:48Z</time>
      </trkpt>
      <trkpt lat="-21.21238" lon="55.31001">
        <ele>322.59466552734</ele>
        <time>2012-11-06T08:07:49Z</time>
      </trkpt>
      <trkpt lat="-21.2124" lon="55.30999">
        <ele>322.41244506836</ele>
        <time>2012-11-06T08:07:50Z</time>
      </trkpt>
      <trkpt lat="-21.21245" lon="55.30993">
        <ele>320.97372436523</ele>
        <time>2012-11-06T08:07:52Z</time>
      </trkpt>
      <trkpt lat="-21.2125" lon="55.30984">
        <ele>318.90512084961</ele>
        <time>2012-11-06T08:07:54Z</time>
      </trkpt>
      <trkpt lat="-21.21253" lon="55.3098">
        <ele>318.05010986328</ele>
        <time>2012-11-06T08:07:55Z</time>
      </trkpt>
      <trkpt lat="-21.21258" lon="55.3097">
        <ele>316.38479614258</ele>
        <time>2012-11-06T08:07:57Z</time>
      </trkpt>
      <trkpt lat="-21.21262" lon="55.30965">
        <ele>318.14987182617</ele>
        <time>2012-11-06T08:07:58Z</time>
      </trkpt>
      <trkpt lat="-21.21265" lon="55.3096">
        <ele>316.35092163086</ele>
        <time>2012-11-06T08:07:59Z</time>
      </trkpt>
      <trkpt lat="-21.2127" lon="55.30951">
        <ele>313.70959472656</ele>
        <time>2012-11-06T08:08:01Z</time>
      </trkpt>
      <trkpt lat="-21.21273" lon="55.30938">
        <ele>309.25747680664</ele>
        <time>2012-11-06T08:08:03Z</time>
      </trkpt>
      <trkpt lat="-21.21273" lon="55.30932">
        <ele>305.95526123047</ele>
        <time>2012-11-06T08:08:04Z</time>
      </trkpt>
      <trkpt lat="-21.21273" lon="55.30927">
        <ele>308.12768554688</ele>
        <time>2012-11-06T08:08:05Z</time>
      </trkpt>
      <trkpt lat="-21.21277" lon="55.30916">
        <ele>302.4430847168</ele>
        <time>2012-11-06T08:08:07Z</time>
      </trkpt>
      <trkpt lat="-21.21279" lon="55.3091">
        <ele>304.41305541992</ele>
        <time>2012-11-06T08:08:08Z</time>
      </trkpt>
      <trkpt lat="-21.21282" lon="55.30905">
        <ele>302.11239624023</ele>
        <time>2012-11-06T08:08:09Z</time>
      </trkpt>
      <trkpt lat="-21.21288" lon="55.30896">
        <ele>302.83728027344</ele>
        <time>2012-11-06T08:08:11Z</time>
      </trkpt>
      <trkpt lat="-21.21295" lon="55.30886">
        <ele>301.55722045898</ele>
        <time>2012-11-06T08:08:13Z</time>
      </trkpt>
      <trkpt lat="-21.213" lon="55.30879">
        <ele>295.63766479492</ele>
        <time>2012-11-06T08:08:14Z</time>
      </trkpt>
      <trkpt lat="-21.21304" lon="55.30875">
        <ele>297.09405517578</ele>
        <time>2012-11-06T08:08:16Z</time>
      </trkpt>
      <trkpt lat="-21.21311" lon="55.30867">
        <ele>292.85055541992</ele>
        <time>2012-11-06T08:08:18Z</time>
      </trkpt>
      <trkpt lat="-21.21315" lon="55.30863">
        <ele>292.79571533203</ele>
        <time>2012-11-06T08:08:19Z</time>
      </trkpt>
      <trkpt lat="-21.21322" lon="55.30854">
        <ele>294.39105224609</ele>
        <time>2012-11-06T08:08:21Z</time>
      </trkpt>
      <trkpt lat="-21.21326" lon="55.30849">
        <ele>288.84979248047</ele>
        <time>2012-11-06T08:08:23Z</time>
      </trkpt>
      <trkpt lat="-21.21326" lon="55.30849">
        <ele>288.84979248047</ele>
        <time>2012-11-06T08:08:25Z</time>
      </trkpt>
      <trkpt lat="-21.21327" lon="55.30846">
        <ele>286.43161010742</ele>
        <time>2012-11-06T08:08:27Z</time>
      </trkpt>
      <trkpt lat="-21.21327" lon="55.30846">
        <ele>286.43161010742</ele>
        <time>2012-11-06T08:08:29Z</time>
      </trkpt>
      <trkpt lat="-21.21327" lon="55.30846">
        <ele>286.43161010742</ele>
        <time>2012-11-06T08:08:31Z</time>
      </trkpt>
      <trkpt lat="-21.21327" lon="55.30846">
        <ele>286.43161010742</ele>
        <time>2012-11-06T08:08:33Z</time>
      </trkpt>
      <trkpt lat="-21.21327" lon="55.30846">
        <ele>286.43161010742</ele>
        <time>2012-11-06T08:08:33Z</time>
      </trkpt>
      <trkpt lat="-21.21327" lon="55.30846">
        <ele>286.43161010742</ele>
        <time>2012-11-06T08:08:33Z</time>
      </trkpt>
      <trkpt lat="-21.21327" lon="55.30846">
        <ele>286.43161010742</ele>
        <time>2012-11-06T08:08:34Z</time>
      </trkpt>
      <trkpt lat="-21.21327" lon="55.30846">
        <ele>286.43161010742</ele>
        <time>2012-11-06T08:08:34Z</time>
      </trkpt>
      <trkpt lat="-21.21326" lon="55.3085">
        <ele>283.77398681641</ele>
        <time>2012-11-06T08:08:36Z</time>
      </trkpt>
      <trkpt lat="-21.21326" lon="55.3085">
        <ele>283.77398681641</ele>
        <time>2012-11-06T08:08:38Z</time>
      </trkpt>
      <trkpt lat="-21.21326" lon="55.3085">
        <ele>283.77398681641</ele>
        <time>2012-11-06T08:08:39Z</time>
      </trkpt>
      <trkpt lat="-21.21326" lon="55.3085">
        <ele>283.77398681641</ele>
        <time>2012-11-06T08:08:40Z</time>
      </trkpt>
      <trkpt lat="-21.21326" lon="55.3085">
        <ele>283.77398681641</ele>
        <time>2012-11-06T08:08:42Z</time>
      </trkpt>
      <trkpt lat="-21.21326" lon="55.3085">
        <ele>283.77398681641</ele>
        <time>2012-11-06T08:08:43Z</time>
      </trkpt>
      <trkpt lat="-21.21326" lon="55.3085">
        <ele>283.77398681641</ele>
        <time>2012-11-06T08:08:43Z</time>
      </trkpt>
      <trkpt lat="-21.21326" lon="55.3085">
        <ele>283.77398681641</ele>
        <time>2012-11-06T08:08:43Z</time>
      </trkpt>
      <trkpt lat="-21.21326" lon="55.3085">
        <ele>283.77398681641</ele>
        <time>2012-11-06T08:08:44Z</time>
      </trkpt>
      <trkpt lat="-21.21326" lon="55.3085">
        <ele>283.77398681641</ele>
        <time>2012-11-06T08:08:44Z</time>
      </trkpt>
      <trkpt lat="-21.21326" lon="55.3085">
        <ele>283.77398681641</ele>
        <time>2012-11-06T08:08:46Z</time>
      </trkpt>
      <trkpt lat="-21.21326" lon="55.3085">
        <ele>283.77398681641</ele>
        <time>2012-11-06T08:08:46Z</time>
      </trkpt>
      <trkpt lat="-21.21326" lon="55.3085">
        <ele>283.77398681641</ele>
        <time>2012-11-06T08:08:47Z</time>
      </trkpt>
      <trkpt lat="-21.21326" lon="55.3085">
        <ele>283.77398681641</ele>
        <time>2012-11-06T08:08:47Z</time>
      </trkpt>
      <trkpt lat="-21.21326" lon="55.3085">
        <ele>283.77398681641</ele>
        <time>2012-11-06T08:08:49Z</time>
      </trkpt>
      <trkpt lat="-21.21326" lon="55.3085">
        <ele>283.77398681641</ele>
        <time>2012-11-06T08:08:49Z</time>
      </trkpt>
      <trkpt lat="-21.21326" lon="55.3085">
        <ele>283.77398681641</ele>
        <time>2012-11-06T08:08:50Z</time>
      </trkpt>
      <trkpt lat="-21.21326" lon="55.3085">
        <ele>283.77398681641</ele>
        <time>2012-11-06T08:08:50Z</time>
      </trkpt>
      <trkpt lat="-21.21326" lon="55.3085">
        <ele>283.77398681641</ele>
        <time>2012-11-06T08:08:52Z</time>
      </trkpt>
      <trkpt lat="-21.21326" lon="55.3085">
        <ele>283.77398681641</ele>
        <time>2012-11-06T08:08:52Z</time>
      </trkpt>
      <trkpt lat="-21.21326" lon="55.3085">
        <ele>283.77398681641</ele>
        <time>2012-11-06T08:08:53Z</time>
      </trkpt>
      <trkpt lat="-21.21326" lon="55.3085">
        <ele>283.77398681641</ele>
        <time>2012-11-06T08:08:53Z</time>
      </trkpt>
      <trkpt lat="-21.21326" lon="55.3085">
        <ele>283.77398681641</ele>
        <time>2012-11-06T08:08:54Z</time>
      </trkpt>
      <trkpt lat="-21.21326" lon="55.3085">
        <ele>283.77398681641</ele>
        <time>2012-11-06T08:08:54Z</time>
      </trkpt>
      <trkpt lat="-21.21326" lon="55.3085">
        <ele>283.77398681641</ele>
        <time>2012-11-06T08:08:56Z</time>
      </trkpt>
      <trkpt lat="-21.21326" lon="55.3085">
        <ele>283.77398681641</ele>
        <time>2012-11-06T08:08:56Z</time>
      </trkpt>
      <trkpt lat="-21.21326" lon="55.3085">
        <ele>283.77398681641</ele>
        <time>2012-11-06T08:08:58Z</time>
      </trkpt>
      <trkpt lat="-21.21326" lon="55.3085">
        <ele>283.77398681641</ele>
        <time>2012-11-06T08:08:58Z</time>
      </trkpt>
      <trkpt lat="-21.21326" lon="55.3085">
        <ele>283.77398681641</ele>
        <time>2012-11-06T08:08:59Z</time>
      </trkpt>
      <trkpt lat="-21.21326" lon="55.3085">
        <ele>283.77398681641</ele>
        <time>2012-11-06T08:08:59Z</time>
      </trkpt>
      <trkpt lat="-21.21326" lon="55.3085">
        <ele>283.77398681641</ele>
        <time>2012-11-06T08:09:01Z</time>
      </trkpt>
      <trkpt lat="-21.21326" lon="55.3085">
        <ele>283.77398681641</ele>
        <time>2012-11-06T08:09:01Z</time>
      </trkpt>
      <trkpt lat="-21.21326" lon="55.3085">
        <ele>283.77398681641</ele>
        <time>2012-11-06T08:09:02Z</time>
      </trkpt>
      <trkpt lat="-21.21326" lon="55.3085">
        <ele>283.77398681641</ele>
        <time>2012-11-06T08:09:02Z</time>
      </trkpt>
      <trkpt lat="-21.21326" lon="55.3085">
        <ele>283.77398681641</ele>
        <time>2012-11-06T08:09:04Z</time>
      </trkpt>
      <trkpt lat="-21.21326" lon="55.3085">
        <ele>283.77398681641</ele>
        <time>2012-11-06T08:09:04Z</time>
      </trkpt>
      <trkpt lat="-21.21326" lon="55.3085">
        <ele>283.77398681641</ele>
        <time>2012-11-06T08:09:06Z</time>
      </trkpt>
      <trkpt lat="-21.21326" lon="55.3085">
        <ele>283.77398681641</ele>
        <time>2012-11-06T08:09:06Z</time>
      </trkpt>
      <trkpt lat="-21.21326" lon="55.3085">
        <ele>283.77398681641</ele>
        <time>2012-11-06T08:09:07Z</time>
      </trkpt>
      <trkpt lat="-21.21326" lon="55.3085">
        <ele>283.77398681641</ele>
        <time>2012-11-06T08:09:07Z</time>
      </trkpt>
      <trkpt lat="-21.21326" lon="55.3085">
        <ele>283.77398681641</ele>
        <time>2012-11-06T08:09:08Z</time>
      </trkpt>
      <trkpt lat="-21.21326" lon="55.3085">
        <ele>283.77398681641</ele>
        <time>2012-11-06T08:09:08Z</time>
      </trkpt>
      <trkpt lat="-21.21326" lon="55.3085">
        <ele>283.77398681641</ele>
        <time>2012-11-06T08:09:10Z</time>
      </trkpt>
      <trkpt lat="-21.21326" lon="55.3085">
        <ele>283.77398681641</ele>
        <time>2012-11-06T08:09:10Z</time>
      </trkpt>
      <trkpt lat="-21.21326" lon="55.3085">
        <ele>283.77398681641</ele>
        <time>2012-11-06T08:09:11Z</time>
      </trkpt>
      <trkpt lat="-21.21326" lon="55.3085">
        <ele>283.77398681641</ele>
        <time>2012-11-06T08:09:11Z</time>
      </trkpt>
      <trkpt lat="-21.21326" lon="55.3085">
        <ele>283.77398681641</ele>
        <time>2012-11-06T08:09:13Z</time>
      </trkpt>
      <trkpt lat="-21.21326" lon="55.3085">
        <ele>283.77398681641</ele>
        <time>2012-11-06T08:09:13Z</time>
      </trkpt>
      <trkpt lat="-21.21326" lon="55.3085">
        <ele>283.77398681641</ele>
        <time>2012-11-06T08:09:14Z</time>
      </trkpt>
      <trkpt lat="-21.21326" lon="55.3085">
        <ele>283.77398681641</ele>
        <time>2012-11-06T08:09:14Z</time>
      </trkpt>
      <trkpt lat="-21.21326" lon="55.30852">
        <ele>293.69400024414</ele>
        <time>2012-11-06T08:09:16Z</time>
      </trkpt>
      <trkpt lat="-21.21326" lon="55.30852">
        <ele>293.69400024414</ele>
        <time>2012-11-06T08:09:16Z</time>
      </trkpt>
      <trkpt lat="-21.21326" lon="55.30852">
        <ele>293.69400024414</ele>
        <time>2012-11-06T08:09:17Z</time>
      </trkpt>
      <trkpt lat="-21.21326" lon="55.30852">
        <ele>293.69400024414</ele>
        <time>2012-11-06T08:09:17Z</time>
      </trkpt>
      <trkpt lat="-21.21327" lon="55.30853">
        <ele>291.6208190918</ele>
        <time>2012-11-06T08:09:18Z</time>
      </trkpt>
      <trkpt lat="-21.21328" lon="55.30854">
        <ele>289.86129760742</ele>
        <time>2012-11-06T08:09:19Z</time>
      </trkpt>
      <trkpt lat="-21.21329" lon="55.30856">
        <ele>289.32748413086</ele>
        <time>2012-11-06T08:09:21Z</time>
      </trkpt>
      <trkpt lat="-21.2133" lon="55.30858">
        <ele>287.70092773438</ele>
        <time>2012-11-06T08:09:22Z</time>
      </trkpt>
      <trkpt lat="-21.21332" lon="55.30862">
        <ele>290.36325073242</ele>
        <time>2012-11-06T08:09:24Z</time>
      </trkpt>
      <trkpt lat="-21.21335" lon="55.30866">
        <ele>291.30407714844</ele>
        <time>2012-11-06T08:09:25Z</time>
      </trkpt>
      <trkpt lat="-21.21339" lon="55.30871">
        <ele>289.44348144531</ele>
        <time>2012-11-06T08:09:27Z</time>
      </trkpt>
      <trkpt lat="-21.21341" lon="55.30874">
        <ele>292.79144287109</ele>
        <time>2012-11-06T08:09:28Z</time>
      </trkpt>
      <trkpt lat="-21.21343" lon="55.30875">
        <ele>289.26370239258</ele>
        <time>2012-11-06T08:09:29Z</time>
      </trkpt>
      <trkpt lat="-21.21344" lon="55.30878">
        <ele>288.74035644531</ele>
        <time>2012-11-06T08:09:30Z</time>
      </trkpt>
      <trkpt lat="-21.21347" lon="55.30881">
        <ele>294.08020019531</ele>
        <time>2012-11-06T08:09:32Z</time>
      </trkpt>
      <trkpt lat="-21.21351" lon="55.30884">
        <ele>296.55603027344</ele>
        <time>2012-11-06T08:09:34Z</time>
      </trkpt>
      <trkpt lat="-21.21353" lon="55.30888">
        <ele>293.67175292969</ele>
        <time>2012-11-06T08:09:36Z</time>
      </trkpt>
      <trkpt lat="-21.21356" lon="55.3089">
        <ele>291.23065185547</ele>
        <time>2012-11-06T08:09:37Z</time>
      </trkpt>
      <trkpt lat="-21.21361" lon="55.30889">
        <ele>293.63891601562</ele>
        <time>2012-11-06T08:09:39Z</time>
      </trkpt>
      <trkpt lat="-21.21364" lon="55.30887">
        <ele>290.6884765625</ele>
        <time>2012-11-06T08:09:40Z</time>
      </trkpt>
      <trkpt lat="-21.21371" lon="55.3088">
        <ele>289.36795043945</ele>
        <time>2012-11-06T08:09:42Z</time>
      </trkpt>
      <trkpt lat="-21.21379" lon="55.30872">
        <ele>286.24423217773</ele>
        <time>2012-11-06T08:09:44Z</time>
      </trkpt>
      <trkpt lat="-21.21388" lon="55.30863">
        <ele>284.92538452148</ele>
        <time>2012-11-06T08:09:46Z</time>
      </trkpt>
      <trkpt lat="-21.21395" lon="55.30852">
        <ele>284.98046875</ele>
        <time>2012-11-06T08:09:48Z</time>
      </trkpt>
      <trkpt lat="-21.21403" lon="55.30839">
        <ele>280.70690917969</ele>
        <time>2012-11-06T08:09:50Z</time>
      </trkpt>
      <trkpt lat="-21.21407" lon="55.30831">
        <ele>280.75378417969</ele>
        <time>2012-11-06T08:09:51Z</time>
      </trkpt>
      <trkpt lat="-21.2141" lon="55.30823">
        <ele>278.19281005859</ele>
        <time>2012-11-06T08:09:52Z</time>
      </trkpt>
      <trkpt lat="-21.21413" lon="55.30816">
        <ele>280.56204223633</ele>
        <time>2012-11-06T08:09:53Z</time>
      </trkpt>
      <trkpt lat="-21.2142" lon="55.30798">
        <ele>274.54574584961</ele>
        <time>2012-11-06T08:09:55Z</time>
      </trkpt>
      <trkpt lat="-21.21427" lon="55.30785">
        <ele>271.36245727539</ele>
        <time>2012-11-06T08:09:57Z</time>
      </trkpt>
      <trkpt lat="-21.21437" lon="55.30773">
        <ele>268.31604003906</ele>
        <time>2012-11-06T08:09:59Z</time>
      </trkpt>
      <trkpt lat="-21.21449" lon="55.30764">
        <ele>265.83090209961</ele>
        <time>2012-11-06T08:10:01Z</time>
      </trkpt>
      <trkpt lat="-21.2146" lon="55.30755">
        <ele>264.72924804688</ele>
        <time>2012-11-06T08:10:03Z</time>
      </trkpt>
      <trkpt lat="-21.21466" lon="55.3075">
        <ele>260.87390136719</ele>
        <time>2012-11-06T08:10:04Z</time>
      </trkpt>
      <trkpt lat="-21.21471" lon="55.30744">
        <ele>264.36978149414</ele>
        <time>2012-11-06T08:10:05Z</time>
      </trkpt>
      <trkpt lat="-21.2148" lon="55.30735">
        <ele>257.23934936523</ele>
        <time>2012-11-06T08:10:07Z</time>
      </trkpt>
      <trkpt lat="-21.21489" lon="55.30725">
        <ele>257.06643676758</ele>
        <time>2012-11-06T08:10:09Z</time>
      </trkpt>
      <trkpt lat="-21.21498" lon="55.30715">
        <ele>251.54550170898</ele>
        <time>2012-11-06T08:10:11Z</time>
      </trkpt>
      <trkpt lat="-21.21502" lon="55.3071">
        <ele>250.85588073731</ele>
        <time>2012-11-06T08:10:12Z</time>
      </trkpt>
      <trkpt lat="-21.21508" lon="55.30701">
        <ele>247.1085357666</ele>
        <time>2012-11-06T08:10:14Z</time>
      </trkpt>
      <trkpt lat="-21.21513" lon="55.30694">
        <ele>243.41868591309</ele>
        <time>2012-11-06T08:10:16Z</time>
      </trkpt>
      <trkpt lat="-21.21514" lon="55.30689">
        <ele>244.63903808594</ele>
        <time>2012-11-06T08:10:17Z</time>
      </trkpt>
      <trkpt lat="-21.21515" lon="55.30683">
        <ele>247.3780670166</ele>
        <time>2012-11-06T08:10:18Z</time>
      </trkpt>
      <trkpt lat="-21.21516" lon="55.30677">
        <ele>246.78530883789</ele>
        <time>2012-11-06T08:10:19Z</time>
      </trkpt>
      <trkpt lat="-21.21523" lon="55.30668">
        <ele>239.52909851074</ele>
        <time>2012-11-06T08:10:21Z</time>
      </trkpt>
      <trkpt lat="-21.21527" lon="55.30668">
        <ele>240.81245422363</ele>
        <time>2012-11-06T08:10:22Z</time>
      </trkpt>
      <trkpt lat="-21.21538" lon="55.30668">
        <ele>242.98677062988</ele>
        <time>2012-11-06T08:10:23Z</time>
      </trkpt>
      <trkpt lat="-21.21542" lon="55.30666">
        <ele>239.17211914062</ele>
        <time>2012-11-06T08:10:25Z</time>
      </trkpt>
      <trkpt lat="-21.21543" lon="55.30665">
        <ele>238.50273132324</ele>
        <time>2012-11-06T08:10:27Z</time>
      </trkpt>
      <trkpt lat="-21.21543" lon="55.30665">
        <ele>238.50273132324</ele>
        <time>2012-11-06T08:10:28Z</time>
      </trkpt>
      <trkpt lat="-21.21542" lon="55.30664">
        <ele>240.50787353516</ele>
        <time>2012-11-06T08:10:30Z</time>
      </trkpt>
      <trkpt lat="-21.2154" lon="55.30663">
        <ele>240.07611083984</ele>
        <time>2012-11-06T08:10:32Z</time>
      </trkpt>
      <trkpt lat="-21.21534" lon="55.30658">
        <ele>242.6085357666</ele>
        <time>2012-11-06T08:10:34Z</time>
      </trkpt>
      <trkpt lat="-21.21529" lon="55.30653">
        <ele>239.84632873535</ele>
        <time>2012-11-06T08:10:36Z</time>
      </trkpt>
      <trkpt lat="-21.21526" lon="55.3065">
        <ele>239.9137878418</ele>
        <time>2012-11-06T08:10:37Z</time>
      </trkpt>
      <trkpt lat="-21.2152" lon="55.30643">
        <ele>237.13919067383</ele>
        <time>2012-11-06T08:10:39Z</time>
      </trkpt>
      <trkpt lat="-21.21516" lon="55.3064">
        <ele>236.61000061035</ele>
        <time>2012-11-06T08:10:40Z</time>
      </trkpt>
      <trkpt lat="-21.21506" lon="55.30633">
        <ele>233.45550537109</ele>
        <time>2012-11-06T08:10:42Z</time>
      </trkpt>
      <trkpt lat="-21.21502" lon="55.30627">
        <ele>233.79676818848</ele>
        <time>2012-11-06T08:10:43Z</time>
      </trkpt>
      <trkpt lat="-21.21495" lon="55.30616">
        <ele>232.72972106934</ele>
        <time>2012-11-06T08:10:45Z</time>
      </trkpt>
      <trkpt lat="-21.2149" lon="55.3061">
        <ele>230.60668945312</ele>
        <time>2012-11-06T08:10:46Z</time>
      </trkpt>
      <trkpt lat="-21.21486" lon="55.30605">
        <ele>230.53366088867</ele>
        <time>2012-11-06T08:10:47Z</time>
      </trkpt>
      <trkpt lat="-21.21476" lon="55.30595">
        <ele>229.00044250488</ele>
        <time>2012-11-06T08:10:49Z</time>
      </trkpt>
      <trkpt lat="-21.21466" lon="55.30584">
        <ele>227.72146606445</ele>
        <time>2012-11-06T08:10:51Z</time>
      </trkpt>
      <trkpt lat="-21.21457" lon="55.30573">
        <ele>229.17048645019</ele>
        <time>2012-11-06T08:10:53Z</time>
      </trkpt>
      <trkpt lat="-21.21448" lon="55.3056">
        <ele>223.56265258789</ele>
        <time>2012-11-06T08:10:55Z</time>
      </trkpt>
      <trkpt lat="-21.21443" lon="55.30551">
        <ele>225.03291320801</ele>
        <time>2012-11-06T08:10:56Z</time>
      </trkpt>
      <trkpt lat="-21.21435" lon="55.30534">
        <ele>222.18998718262</ele>
        <time>2012-11-06T08:10:58Z</time>
      </trkpt>
      <trkpt lat="-21.21427" lon="55.30517">
        <ele>224.83555603027</ele>
        <time>2012-11-06T08:11:00Z</time>
      </trkpt>
      <trkpt lat="-21.21424" lon="55.30508">
        <ele>226.41215515137</ele>
        <time>2012-11-06T08:11:01Z</time>
      </trkpt>
      <trkpt lat="-21.21417" lon="55.30488">
        <ele>228.38290405273</ele>
        <time>2012-11-06T08:11:03Z</time>
      </trkpt>
      <trkpt lat="-21.21414" lon="55.30479">
        <ele>229.95872497559</ele>
        <time>2012-11-06T08:11:04Z</time>
      </trkpt>
      <trkpt lat="-21.21412" lon="55.30469">
        <ele>226.09762573242</ele>
        <time>2012-11-06T08:11:05Z</time>
      </trkpt>
      <trkpt lat="-21.21409" lon="55.30459">
        <ele>228.71913146973</ele>
        <time>2012-11-06T08:11:06Z</time>
      </trkpt>
      <trkpt lat="-21.21407" lon="55.30449">
        <ele>227.15679931641</ele>
        <time>2012-11-06T08:11:07Z</time>
      </trkpt>
      <trkpt lat="-21.21405" lon="55.3044">
        <ele>223.17999267578</ele>
        <time>2012-11-06T08:11:08Z</time>
      </trkpt>
      <trkpt lat="-21.21395" lon="55.30422">
        <ele>223.27056884766</ele>
        <time>2012-11-06T08:11:10Z</time>
      </trkpt>
      <trkpt lat="-21.21384" lon="55.30405">
        <ele>221.95045471191</ele>
        <time>2012-11-06T08:11:12Z</time>
      </trkpt>
      <trkpt lat="-21.21375" lon="55.3039">
        <ele>217.28442382812</ele>
        <time>2012-11-06T08:11:14Z</time>
      </trkpt>
      <trkpt lat="-21.2137" lon="55.30382">
        <ele>217.2121887207</ele>
        <time>2012-11-06T08:11:15Z</time>
      </trkpt>
      <trkpt lat="-21.21366" lon="55.30374">
        <ele>216.68081665039</ele>
        <time>2012-11-06T08:11:16Z</time>
      </trkpt>
      <trkpt lat="-21.21364" lon="55.30365">
        <ele>216.28898620606</ele>
        <time>2012-11-06T08:11:17Z</time>
      </trkpt>
      <trkpt lat="-21.21363" lon="55.30346">
        <ele>214.22463989258</ele>
        <time>2012-11-06T08:11:19Z</time>
      </trkpt>
      <trkpt lat="-21.21362" lon="55.30327">
        <ele>212.53698730469</ele>
        <time>2012-11-06T08:11:20Z</time>
      </trkpt>
      <trkpt lat="-21.21351" lon="55.30322">
        <ele>211.7848815918</ele>
        <time>2012-11-06T08:11:22Z</time>
      </trkpt>
      <trkpt lat="-21.21339" lon="55.30309">
        <ele>215.69798278809</ele>
        <time>2012-11-06T08:11:24Z</time>
      </trkpt>
      <trkpt lat="-21.21327" lon="55.30298">
        <ele>216.42248535156</ele>
        <time>2012-11-06T08:11:26Z</time>
      </trkpt>
      <trkpt lat="-21.21322" lon="55.30293">
        <ele>215.3203125</ele>
        <time>2012-11-06T08:11:27Z</time>
      </trkpt>
      <trkpt lat="-21.21311" lon="55.30284">
        <ele>215.95257568359</ele>
        <time>2012-11-06T08:11:29Z</time>
      </trkpt>
      <trkpt lat="-21.21298" lon="55.30278">
        <ele>213.45195007324</ele>
        <time>2012-11-06T08:11:31Z</time>
      </trkpt>
      <trkpt lat="-21.21282" lon="55.30275">
        <ele>211.685546875</ele>
        <time>2012-11-06T08:11:33Z</time>
      </trkpt>
      <trkpt lat="-21.21274" lon="55.30275">
        <ele>211.36810302734</ele>
        <time>2012-11-06T08:11:34Z</time>
      </trkpt>
      <trkpt lat="-21.21257" lon="55.30272">
        <ele>209.37966918945</ele>
        <time>2012-11-06T08:11:36Z</time>
      </trkpt>
      <trkpt lat="-21.2124" lon="55.30264">
        <ele>209.18122863769</ele>
        <time>2012-11-06T08:11:38Z</time>
      </trkpt>
      <trkpt lat="-21.21232" lon="55.3026">
        <ele>209.22891235352</ele>
        <time>2012-11-06T08:11:39Z</time>
      </trkpt>
      <trkpt lat="-21.21224" lon="55.30255">
        <ele>207.90982055664</ele>
        <time>2012-11-06T08:11:40Z</time>
      </trkpt>
      <trkpt lat="-21.21208" lon="55.30246">
        <ele>207.73284912109</ele>
        <time>2012-11-06T08:11:42Z</time>
      </trkpt>
      <trkpt lat="-21.21193" lon="55.30236">
        <ele>206.80053710938</ele>
        <time>2012-11-06T08:11:44Z</time>
      </trkpt>
      <trkpt lat="-21.21179" lon="55.30227">
        <ele>205.80360412598</ele>
        <time>2012-11-06T08:11:46Z</time>
      </trkpt>
      <trkpt lat="-21.21165" lon="55.30218">
        <ele>205.81593322754</ele>
        <time>2012-11-06T08:11:48Z</time>
      </trkpt>
      <trkpt lat="-21.21158" lon="55.30214">
        <ele>206.10272216797</ele>
        <time>2012-11-06T08:11:49Z</time>
      </trkpt>
      <trkpt lat="-21.21144" lon="55.30206">
        <ele>205.22358703613</ele>
        <time>2012-11-06T08:11:51Z</time>
      </trkpt>
      <trkpt lat="-21.21137" lon="55.30202">
        <ele>206.90780639648</ele>
        <time>2012-11-06T08:11:52Z</time>
      </trkpt>
      <trkpt lat="-21.21122" lon="55.30195">
        <ele>206.8631439209</ele>
        <time>2012-11-06T08:11:54Z</time>
      </trkpt>
      <trkpt lat="-21.21109" lon="55.30185">
        <ele>206.90431213379</ele>
        <time>2012-11-06T08:11:56Z</time>
      </trkpt>
      <trkpt lat="-21.21098" lon="55.30171">
        <ele>206.62567138672</ele>
        <time>2012-11-06T08:11:58Z</time>
      </trkpt>
      <trkpt lat="-21.21089" lon="55.30154">
        <ele>205.73661804199</ele>
        <time>2012-11-06T08:11:59Z</time>
      </trkpt>
      <trkpt lat="-21.21085" lon="55.30145">
        <ele>205.77381896973</ele>
        <time>2012-11-06T08:12:01Z</time>
      </trkpt>
      <trkpt lat="-21.21082" lon="55.30137">
        <ele>204.02241516113</ele>
        <time>2012-11-06T08:12:02Z</time>
      </trkpt>
      <trkpt lat="-21.21078" lon="55.30128">
        <ele>204.44638061523</ele>
        <time>2012-11-06T08:12:03Z</time>
      </trkpt>
      <trkpt lat="-21.2107" lon="55.3011">
        <ele>204.35606384277</ele>
        <time>2012-11-06T08:12:05Z</time>
      </trkpt>
      <trkpt lat="-21.21066" lon="55.30102">
        <ele>204.46752929688</ele>
        <time>2012-11-06T08:12:06Z</time>
      </trkpt>
      <trkpt lat="-21.21061" lon="55.30094">
        <ele>203.59376525879</ele>
        <time>2012-11-06T08:12:07Z</time>
      </trkpt>
      <trkpt lat="-21.2105" lon="55.30079">
        <ele>201.7578125</ele>
        <time>2012-11-06T08:12:09Z</time>
      </trkpt>
      <trkpt lat="-21.21044" lon="55.30072">
        <ele>201.60972595215</ele>
        <time>2012-11-06T08:12:10Z</time>
      </trkpt>
      <trkpt lat="-21.21038" lon="55.30059">
        <ele>203.86065673828</ele>
        <time>2012-11-06T08:12:12Z</time>
      </trkpt>
      <trkpt lat="-21.21037" lon="55.30044">
        <ele>203.74310302734</ele>
        <time>2012-11-06T08:12:14Z</time>
      </trkpt>
      <trkpt lat="-21.21036" lon="55.30036">
        <ele>202.57344055176</ele>
        <time>2012-11-06T08:12:15Z</time>
      </trkpt>
      <trkpt lat="-21.21034" lon="55.30019">
        <ele>200.76686096191</ele>
        <time>2012-11-06T08:12:17Z</time>
      </trkpt>
      <trkpt lat="-21.21033" lon="55.30011">
        <ele>200.89817810059</ele>
        <time>2012-11-06T08:12:18Z</time>
      </trkpt>
      <trkpt lat="-21.21028" lon="55.29995">
        <ele>201.72654724121</ele>
        <time>2012-11-06T08:12:20Z</time>
      </trkpt>
      <trkpt lat="-21.21024" lon="55.29987">
        <ele>198.91664123535</ele>
        <time>2012-11-06T08:12:21Z</time>
      </trkpt>
      <trkpt lat="-21.21019" lon="55.2998">
        <ele>197.76789855957</ele>
        <time>2012-11-06T08:12:22Z</time>
      </trkpt>
      <trkpt lat="-21.21008" lon="55.29969">
        <ele>195.83532714844</ele>
        <time>2012-11-06T08:12:24Z</time>
      </trkpt>
      <trkpt lat="-21.21002" lon="55.29966">
        <ele>194.87698364258</ele>
        <time>2012-11-06T08:12:25Z</time>
      </trkpt>
      <trkpt lat="-21.20994" lon="55.2996">
        <ele>194.74668884277</ele>
        <time>2012-11-06T08:12:27Z</time>
      </trkpt>
      <trkpt lat="-21.20991" lon="55.29958">
        <ele>195.00309753418</ele>
        <time>2012-11-06T08:12:28Z</time>
      </trkpt>
      <trkpt lat="-21.20984" lon="55.29952">
        <ele>194.16348266602</ele>
        <time>2012-11-06T08:12:30Z</time>
      </trkpt>
      <trkpt lat="-21.20979" lon="55.29949">
        <ele>194.01159667969</ele>
        <time>2012-11-06T08:12:31Z</time>
      </trkpt>
      <trkpt lat="-21.20975" lon="55.29947">
        <ele>194.04734802246</ele>
        <time>2012-11-06T08:12:32Z</time>
      </trkpt>
      <trkpt lat="-21.2097" lon="55.29944">
        <ele>193.61009216309</ele>
        <time>2012-11-06T08:12:33Z</time>
      </trkpt>
      <trkpt lat="-21.20965" lon="55.29943">
        <ele>191.12738037109</ele>
        <time>2012-11-06T08:12:34Z</time>
      </trkpt>
      <trkpt lat="-21.20951" lon="55.2994">
        <ele>192.38020324707</ele>
        <time>2012-11-06T08:12:36Z</time>
      </trkpt>
      <trkpt lat="-21.20944" lon="55.29939">
        <ele>193.27847290039</ele>
        <time>2012-11-06T08:12:37Z</time>
      </trkpt>
      <trkpt lat="-21.20933" lon="55.29934">
        <ele>189.34092712402</ele>
        <time>2012-11-06T08:12:39Z</time>
      </trkpt>
      <trkpt lat="-21.20928" lon="55.29931">
        <ele>194.32130432129</ele>
        <time>2012-11-06T08:12:40Z</time>
      </trkpt>
      <trkpt lat="-21.20919" lon="55.29926">
        <ele>195.16812133789</ele>
        <time>2012-11-06T08:12:42Z</time>
      </trkpt>
      <trkpt lat="-21.20909" lon="55.2992">
        <ele>189.78996276856</ele>
        <time>2012-11-06T08:12:44Z</time>
      </trkpt>
      <trkpt lat="-21.20901" lon="55.29915">
        <ele>191.7869720459</ele>
        <time>2012-11-06T08:12:46Z</time>
      </trkpt>
      <trkpt lat="-21.20891" lon="55.29909">
        <ele>193.57289123535</ele>
        <time>2012-11-06T08:12:48Z</time>
      </trkpt>
      <trkpt lat="-21.20886" lon="55.29901">
        <ele>191.45954895019</ele>
        <time>2012-11-06T08:12:50Z</time>
      </trkpt>
      <trkpt lat="-21.20886" lon="55.29891">
        <ele>193.9157409668</ele>
        <time>2012-11-06T08:12:52Z</time>
      </trkpt>
      <trkpt lat="-21.20882" lon="55.29879">
        <ele>193.98472595215</ele>
        <time>2012-11-06T08:12:54Z</time>
      </trkpt>
      <trkpt lat="-21.20879" lon="55.29874">
        <ele>194.69902038574</ele>
        <time>2012-11-06T08:12:55Z</time>
      </trkpt>
      <trkpt lat="-21.20871" lon="55.29864">
        <ele>194.12057495117</ele>
        <time>2012-11-06T08:12:57Z</time>
      </trkpt>
      <trkpt lat="-21.20862" lon="55.29854">
        <ele>192.06718444824</ele>
        <time>2012-11-06T08:12:59Z</time>
      </trkpt>
      <trkpt lat="-21.2085" lon="55.29845">
        <ele>188.94364929199</ele>
        <time>2012-11-06T08:13:01Z</time>
      </trkpt>
      <trkpt lat="-21.20838" lon="55.2984">
        <ele>187.76034545898</ele>
        <time>2012-11-06T08:13:03Z</time>
      </trkpt>
      <trkpt lat="-21.20834" lon="55.29839">
        <ele>186.96810913086</ele>
        <time>2012-11-06T08:13:04Z</time>
      </trkpt>
      <trkpt lat="-21.20831" lon="55.29838">
        <ele>187.16395568848</ele>
        <time>2012-11-06T08:13:05Z</time>
      </trkpt>
      <trkpt lat="-21.20829" lon="55.29839">
        <ele>186.93896484375</ele>
        <time>2012-11-06T08:13:06Z</time>
      </trkpt>
      <trkpt lat="-21.20829" lon="55.29839">
        <ele>186.93896484375</ele>
        <time>2012-11-06T08:13:08Z</time>
      </trkpt>
      <trkpt lat="-21.20829" lon="55.29839">
        <ele>186.93896484375</ele>
        <time>2012-11-06T08:13:09Z</time>
      </trkpt>
      <trkpt lat="-21.20829" lon="55.29839">
        <ele>186.93896484375</ele>
        <time>2012-11-06T08:13:11Z</time>
      </trkpt>
      <trkpt lat="-21.20825" lon="55.2984">
        <ele>187.68885803223</ele>
        <time>2012-11-06T08:13:13Z</time>
      </trkpt>
      <trkpt lat="-21.20823" lon="55.29839">
        <ele>187.29318237305</ele>
        <time>2012-11-06T08:13:14Z</time>
      </trkpt>
      <trkpt lat="-21.2082" lon="55.29837">
        <ele>187.62841796875</ele>
        <time>2012-11-06T08:13:15Z</time>
      </trkpt>
      <trkpt lat="-21.20817" lon="55.29835">
        <ele>187.1798248291</ele>
        <time>2012-11-06T08:13:16Z</time>
      </trkpt>
      <trkpt lat="-21.20811" lon="55.29832">
        <ele>189.29913330078</ele>
        <time>2012-11-06T08:13:18Z</time>
      </trkpt>
      <trkpt lat="-21.20809" lon="55.29832">
        <ele>185.40042114258</ele>
        <time>2012-11-06T08:13:19Z</time>
      </trkpt>
      <trkpt lat="-21.20806" lon="55.29833">
        <ele>185.93075561523</ele>
        <time>2012-11-06T08:13:20Z</time>
      </trkpt>
      <trkpt lat="-21.20803" lon="55.29836">
        <ele>188.15179443359</ele>
        <time>2012-11-06T08:13:22Z</time>
      </trkpt>
      <trkpt lat="-21.20802" lon="55.29837">
        <ele>188.15179443359</ele>
        <time>2012-11-06T08:13:24Z</time>
      </trkpt>
      <trkpt lat="-21.20802" lon="55.29837">
        <ele>188.15179443359</ele>
        <time>2012-11-06T08:13:25Z</time>
      </trkpt>
      <trkpt lat="-21.20801" lon="55.29842">
        <ele>188.40678405762</ele>
        <time>2012-11-06T08:13:26Z</time>
      </trkpt>
      <trkpt lat="-21.20801" lon="55.29843">
        <ele>187.93536376953</ele>
        <time>2012-11-06T08:13:28Z</time>
      </trkpt>
      <trkpt lat="-21.208" lon="55.29846">
        <ele>187.83485412598</ele>
        <time>2012-11-06T08:13:30Z</time>
      </trkpt>
      <trkpt lat="-21.20799" lon="55.29847">
        <ele>188.16638183594</ele>
        <time>2012-11-06T08:13:31Z</time>
      </trkpt>
      <trkpt lat="-21.20799" lon="55.29849">
        <ele>190.02667236328</ele>
        <time>2012-11-06T08:13:33Z</time>
      </trkpt>
      <trkpt lat="-21.20799" lon="55.29849">
        <ele>190.02667236328</ele>
        <time>2012-11-06T08:13:34Z</time>
      </trkpt>
      <trkpt lat="-21.20799" lon="55.29849">
        <ele>190.02667236328</ele>
        <time>2012-11-06T08:13:35Z</time>
      </trkpt>
      <trkpt lat="-21.20799" lon="55.29849">
        <ele>190.02667236328</ele>
        <time>2012-11-06T08:13:37Z</time>
      </trkpt>
      <trkpt lat="-21.20799" lon="55.29849">
        <ele>190.02667236328</ele>
        <time>2012-11-06T08:13:39Z</time>
      </trkpt>
      <trkpt lat="-21.20799" lon="55.29849">
        <ele>190.02667236328</ele>
        <time>2012-11-06T08:13:39Z</time>
      </trkpt>
      <trkpt lat="-21.20799" lon="55.29849">
        <ele>190.02667236328</ele>
        <time>2012-11-06T08:13:39Z</time>
      </trkpt>
      <trkpt lat="-21.20799" lon="55.29849">
        <ele>190.02667236328</ele>
        <time>2012-11-06T08:13:40Z</time>
      </trkpt>
      <trkpt lat="-21.20799" lon="55.29849">
        <ele>190.02667236328</ele>
        <time>2012-11-06T08:13:40Z</time>
      </trkpt>
      <trkpt lat="-21.20799" lon="55.29849">
        <ele>190.02667236328</ele>
        <time>2012-11-06T08:13:42Z</time>
      </trkpt>
      <trkpt lat="-21.20799" lon="55.29849">
        <ele>190.02667236328</ele>
        <time>2012-11-06T08:13:42Z</time>
      </trkpt>
      <trkpt lat="-21.20799" lon="55.29849">
        <ele>190.02667236328</ele>
        <time>2012-11-06T08:13:44Z</time>
      </trkpt>
      <trkpt lat="-21.20799" lon="55.29849">
        <ele>190.02667236328</ele>
        <time>2012-11-06T08:13:44Z</time>
      </trkpt>
      <trkpt lat="-21.20799" lon="55.29849">
        <ele>190.02667236328</ele>
        <time>2012-11-06T08:13:45Z</time>
      </trkpt>
      <trkpt lat="-21.20799" lon="55.29849">
        <ele>190.02667236328</ele>
        <time>2012-11-06T08:13:45Z</time>
      </trkpt>
      <trkpt lat="-21.20799" lon="55.29849">
        <ele>190.02667236328</ele>
        <time>2012-11-06T08:13:47Z</time>
      </trkpt>
      <trkpt lat="-21.20799" lon="55.29849">
        <ele>190.02667236328</ele>
        <time>2012-11-06T08:13:47Z</time>
      </trkpt>
      <trkpt lat="-21.20799" lon="55.29849">
        <ele>190.02667236328</ele>
        <time>2012-11-06T08:13:48Z</time>
      </trkpt>
      <trkpt lat="-21.20799" lon="55.29849">
        <ele>190.02667236328</ele>
        <time>2012-11-06T08:13:48Z</time>
      </trkpt>
      <trkpt lat="-21.20799" lon="55.29849">
        <ele>190.02667236328</ele>
        <time>2012-11-06T08:13:49Z</time>
      </trkpt>
      <trkpt lat="-21.20799" lon="55.29849">
        <ele>190.02667236328</ele>
        <time>2012-11-06T08:13:49Z</time>
      </trkpt>
      <trkpt lat="-21.20799" lon="55.29849">
        <ele>190.02667236328</ele>
        <time>2012-11-06T08:13:51Z</time>
      </trkpt>
      <trkpt lat="-21.20799" lon="55.29849">
        <ele>190.02667236328</ele>
        <time>2012-11-06T08:13:51Z</time>
      </trkpt>
      <trkpt lat="-21.20799" lon="55.29849">
        <ele>190.02667236328</ele>
        <time>2012-11-06T08:13:52Z</time>
      </trkpt>
      <trkpt lat="-21.20799" lon="55.29849">
        <ele>190.02667236328</ele>
        <time>2012-11-06T08:13:52Z</time>
      </trkpt>
      <trkpt lat="-21.20799" lon="55.29849">
        <ele>190.02667236328</ele>
        <time>2012-11-06T08:13:54Z</time>
      </trkpt>
      <trkpt lat="-21.20799" lon="55.29849">
        <ele>190.02667236328</ele>
        <time>2012-11-06T08:13:54Z</time>
      </trkpt>
      <trkpt lat="-21.20799" lon="55.29849">
        <ele>190.02667236328</ele>
        <time>2012-11-06T08:13:55Z</time>
      </trkpt>
      <trkpt lat="-21.20799" lon="55.29849">
        <ele>190.02667236328</ele>
        <time>2012-11-06T08:13:55Z</time>
      </trkpt>
      <trkpt lat="-21.20799" lon="55.29849">
        <ele>190.02667236328</ele>
        <time>2012-11-06T08:13:56Z</time>
      </trkpt>
      <trkpt lat="-21.20799" lon="55.29849">
        <ele>190.02667236328</ele>
        <time>2012-11-06T08:13:56Z</time>
      </trkpt>
      <trkpt lat="-21.20799" lon="55.29849">
        <ele>190.02667236328</ele>
        <time>2012-11-06T08:13:58Z</time>
      </trkpt>
      <trkpt lat="-21.20799" lon="55.29849">
        <ele>190.02667236328</ele>
        <time>2012-11-06T08:13:58Z</time>
      </trkpt>
      <trkpt lat="-21.20799" lon="55.29849">
        <ele>190.02667236328</ele>
        <time>2012-11-06T08:14:00Z</time>
      </trkpt>
      <trkpt lat="-21.20799" lon="55.29849">
        <ele>190.02667236328</ele>
        <time>2012-11-06T08:14:00Z</time>
      </trkpt>
      <trkpt lat="-21.20799" lon="55.29849">
        <ele>190.02667236328</ele>
        <time>2012-11-06T08:14:02Z</time>
      </trkpt>
      <trkpt lat="-21.20799" lon="55.29849">
        <ele>190.02667236328</ele>
        <time>2012-11-06T08:14:02Z</time>
      </trkpt>
      <trkpt lat="-21.20799" lon="55.29849">
        <ele>190.02667236328</ele>
        <time>2012-11-06T08:14:04Z</time>
      </trkpt>
      <trkpt lat="-21.20799" lon="55.29849">
        <ele>190.02667236328</ele>
        <time>2012-11-06T08:14:04Z</time>
      </trkpt>
      <trkpt lat="-21.20799" lon="55.29849">
        <ele>190.02667236328</ele>
        <time>2012-11-06T08:14:05Z</time>
      </trkpt>
      <trkpt lat="-21.20799" lon="55.29849">
        <ele>190.02667236328</ele>
        <time>2012-11-06T08:14:05Z</time>
      </trkpt>
      <trkpt lat="-21.20799" lon="55.29849">
        <ele>190.02667236328</ele>
        <time>2012-11-06T08:14:06Z</time>
      </trkpt>
      <trkpt lat="-21.20799" lon="55.29849">
        <ele>190.02667236328</ele>
        <time>2012-11-06T08:14:06Z</time>
      </trkpt>
      <trkpt lat="-21.20799" lon="55.29849">
        <ele>190.02667236328</ele>
        <time>2012-11-06T08:14:08Z</time>
      </trkpt>
      <trkpt lat="-21.20799" lon="55.29849">
        <ele>190.02667236328</ele>
        <time>2012-11-06T08:14:08Z</time>
      </trkpt>
      <trkpt lat="-21.20799" lon="55.29849">
        <ele>190.02667236328</ele>
        <time>2012-11-06T08:14:09Z</time>
      </trkpt>
      <trkpt lat="-21.20799" lon="55.29849">
        <ele>190.02667236328</ele>
        <time>2012-11-06T08:14:09Z</time>
      </trkpt>
      <trkpt lat="-21.20799" lon="55.29849">
        <ele>190.02667236328</ele>
        <time>2012-11-06T08:14:11Z</time>
      </trkpt>
      <trkpt lat="-21.20799" lon="55.29849">
        <ele>190.02667236328</ele>
        <time>2012-11-06T08:14:11Z</time>
      </trkpt>
      <trkpt lat="-21.20799" lon="55.29849">
        <ele>190.02667236328</ele>
        <time>2012-11-06T08:14:12Z</time>
      </trkpt>
      <trkpt lat="-21.20799" lon="55.29849">
        <ele>190.02667236328</ele>
        <time>2012-11-06T08:14:12Z</time>
      </trkpt>
      <trkpt lat="-21.20799" lon="55.29849">
        <ele>190.02667236328</ele>
        <time>2012-11-06T08:14:14Z</time>
      </trkpt>
      <trkpt lat="-21.20799" lon="55.29849">
        <ele>190.02667236328</ele>
        <time>2012-11-06T08:14:14Z</time>
      </trkpt>
      <trkpt lat="-21.20799" lon="55.29849">
        <ele>190.02667236328</ele>
        <time>2012-11-06T08:14:15Z</time>
      </trkpt>
      <trkpt lat="-21.20799" lon="55.29849">
        <ele>190.02667236328</ele>
        <time>2012-11-06T08:14:15Z</time>
      </trkpt>
      <trkpt lat="-21.20799" lon="55.29849">
        <ele>190.02667236328</ele>
        <time>2012-11-06T08:14:16Z</time>
      </trkpt>
      <trkpt lat="-21.20799" lon="55.29849">
        <ele>190.02667236328</ele>
        <time>2012-11-06T08:14:16Z</time>
      </trkpt>
      <trkpt lat="-21.20799" lon="55.29849">
        <ele>190.02667236328</ele>
        <time>2012-11-06T08:14:18Z</time>
      </trkpt>
      <trkpt lat="-21.20799" lon="55.29849">
        <ele>190.02667236328</ele>
        <time>2012-11-06T08:14:18Z</time>
      </trkpt>
      <trkpt lat="-21.20799" lon="55.29849">
        <ele>190.02667236328</ele>
        <time>2012-11-06T08:14:20Z</time>
      </trkpt>
      <trkpt lat="-21.20799" lon="55.29849">
        <ele>190.02667236328</ele>
        <time>2012-11-06T08:14:20Z</time>
      </trkpt>
      <trkpt lat="-21.20799" lon="55.29849">
        <ele>190.02667236328</ele>
        <time>2012-11-06T08:14:21Z</time>
      </trkpt>
      <trkpt lat="-21.20799" lon="55.29849">
        <ele>190.02667236328</ele>
        <time>2012-11-06T08:14:21Z</time>
      </trkpt>
      <trkpt lat="-21.20799" lon="55.29849">
        <ele>190.02667236328</ele>
        <time>2012-11-06T08:14:23Z</time>
      </trkpt>
      <trkpt lat="-21.20799" lon="55.29849">
        <ele>190.02667236328</ele>
        <time>2012-11-06T08:14:23Z</time>
      </trkpt>
      <trkpt lat="-21.20799" lon="55.29849">
        <ele>190.02667236328</ele>
        <time>2012-11-06T08:14:25Z</time>
      </trkpt>
      <trkpt lat="-21.20799" lon="55.29849">
        <ele>190.02667236328</ele>
        <time>2012-11-06T08:14:25Z</time>
      </trkpt>
      <trkpt lat="-21.20799" lon="55.29849">
        <ele>190.02667236328</ele>
        <time>2012-11-06T08:14:27Z</time>
      </trkpt>
      <trkpt lat="-21.20799" lon="55.29849">
        <ele>190.02667236328</ele>
        <time>2012-11-06T08:14:27Z</time>
      </trkpt>
      <trkpt lat="-21.20799" lon="55.29849">
        <ele>190.02667236328</ele>
        <time>2012-11-06T08:14:29Z</time>
      </trkpt>
      <trkpt lat="-21.20799" lon="55.29849">
        <ele>190.02667236328</ele>
        <time>2012-11-06T08:14:29Z</time>
      </trkpt>
      <trkpt lat="-21.20799" lon="55.29849">
        <ele>190.02667236328</ele>
        <time>2012-11-06T08:14:31Z</time>
      </trkpt>
      <trkpt lat="-21.20799" lon="55.29849">
        <ele>190.02667236328</ele>
        <time>2012-11-06T08:14:31Z</time>
      </trkpt>
      <trkpt lat="-21.20799" lon="55.29849">
        <ele>190.02667236328</ele>
        <time>2012-11-06T08:14:33Z</time>
      </trkpt>
      <trkpt lat="-21.20799" lon="55.29849">
        <ele>190.02667236328</ele>
        <time>2012-11-06T08:14:33Z</time>
      </trkpt>
      <trkpt lat="-21.20799" lon="55.29849">
        <ele>190.02667236328</ele>
        <time>2012-11-06T08:14:34Z</time>
      </trkpt>
      <trkpt lat="-21.20799" lon="55.29849">
        <ele>190.02667236328</ele>
        <time>2012-11-06T08:14:34Z</time>
      </trkpt>
      <trkpt lat="-21.20799" lon="55.29849">
        <ele>190.02667236328</ele>
        <time>2012-11-06T08:14:35Z</time>
      </trkpt>
      <trkpt lat="-21.20799" lon="55.29849">
        <ele>190.02667236328</ele>
        <time>2012-11-06T08:14:35Z</time>
      </trkpt>
      <trkpt lat="-21.20799" lon="55.29849">
        <ele>190.02667236328</ele>
        <time>2012-11-06T08:14:37Z</time>
      </trkpt>
      <trkpt lat="-21.20799" lon="55.29849">
        <ele>190.02667236328</ele>
        <time>2012-11-06T08:14:37Z</time>
      </trkpt>
      <trkpt lat="-21.20799" lon="55.29849">
        <ele>190.02667236328</ele>
        <time>2012-11-06T08:14:39Z</time>
      </trkpt>
      <trkpt lat="-21.20799" lon="55.29849">
        <ele>190.02667236328</ele>
        <time>2012-11-06T08:14:39Z</time>
      </trkpt>
      <trkpt lat="-21.20799" lon="55.29849">
        <ele>190.02667236328</ele>
        <time>2012-11-06T08:14:40Z</time>
      </trkpt>
      <trkpt lat="-21.20799" lon="55.29849">
        <ele>190.02667236328</ele>
        <time>2012-11-06T08:14:40Z</time>
      </trkpt>
      <trkpt lat="-21.20799" lon="55.29849">
        <ele>190.02667236328</ele>
        <time>2012-11-06T08:14:42Z</time>
      </trkpt>
      <trkpt lat="-21.20799" lon="55.29849">
        <ele>190.02667236328</ele>
        <time>2012-11-06T08:14:42Z</time>
      </trkpt>
      <trkpt lat="-21.20799" lon="55.29849">
        <ele>190.02667236328</ele>
        <time>2012-11-06T08:14:43Z</time>
      </trkpt>
      <trkpt lat="-21.20799" lon="55.29849">
        <ele>190.02667236328</ele>
        <time>2012-11-06T08:14:43Z</time>
      </trkpt>
      <trkpt lat="-21.20799" lon="55.29849">
        <ele>190.02667236328</ele>
        <time>2012-11-06T08:14:45Z</time>
      </trkpt>
      <trkpt lat="-21.20799" lon="55.29849">
        <ele>190.02667236328</ele>
        <time>2012-11-06T08:14:45Z</time>
      </trkpt>
      <trkpt lat="-21.20799" lon="55.29849">
        <ele>190.02667236328</ele>
        <time>2012-11-06T08:14:47Z</time>
      </trkpt>
      <trkpt lat="-21.20799" lon="55.29849">
        <ele>190.02667236328</ele>
        <time>2012-11-06T08:14:47Z</time>
      </trkpt>
      <trkpt lat="-21.20799" lon="55.29849">
        <ele>190.02667236328</ele>
        <time>2012-11-06T08:14:48Z</time>
      </trkpt>
      <trkpt lat="-21.20799" lon="55.29849">
        <ele>190.02667236328</ele>
        <time>2012-11-06T08:14:48Z</time>
      </trkpt>
      <trkpt lat="-21.20799" lon="55.29849">
        <ele>190.02667236328</ele>
        <time>2012-11-06T08:14:49Z</time>
      </trkpt>
      <trkpt lat="-21.20799" lon="55.29849">
        <ele>190.02667236328</ele>
        <time>2012-11-06T08:14:49Z</time>
      </trkpt>
      <trkpt lat="-21.20799" lon="55.29849">
        <ele>190.02667236328</ele>
        <time>2012-11-06T08:14:51Z</time>
      </trkpt>
      <trkpt lat="-21.20799" lon="55.29849">
        <ele>190.02667236328</ele>
        <time>2012-11-06T08:14:51Z</time>
      </trkpt>
      <trkpt lat="-21.20799" lon="55.29849">
        <ele>190.02667236328</ele>
        <time>2012-11-06T08:14:52Z</time>
      </trkpt>
      <trkpt lat="-21.20799" lon="55.29849">
        <ele>190.02667236328</ele>
        <time>2012-11-06T08:14:52Z</time>
      </trkpt>
      <trkpt lat="-21.20799" lon="55.29849">
        <ele>190.02667236328</ele>
        <time>2012-11-06T08:14:54Z</time>
      </trkpt>
      <trkpt lat="-21.20799" lon="55.29849">
        <ele>190.02667236328</ele>
        <time>2012-11-06T08:14:54Z</time>
      </trkpt>
      <trkpt lat="-21.20799" lon="55.29849">
        <ele>190.02667236328</ele>
        <time>2012-11-06T08:14:56Z</time>
      </trkpt>
      <trkpt lat="-21.20799" lon="55.29849">
        <ele>190.02667236328</ele>
        <time>2012-11-06T08:14:56Z</time>
      </trkpt>
      <trkpt lat="-21.20799" lon="55.29849">
        <ele>190.02667236328</ele>
        <time>2012-11-06T08:14:57Z</time>
      </trkpt>
      <trkpt lat="-21.20799" lon="55.29849">
        <ele>190.02667236328</ele>
        <time>2012-11-06T08:14:57Z</time>
      </trkpt>
      <trkpt lat="-21.20799" lon="55.29849">
        <ele>190.02667236328</ele>
        <time>2012-11-06T08:14:58Z</time>
      </trkpt>
      <trkpt lat="-21.20799" lon="55.29849">
        <ele>190.02667236328</ele>
        <time>2012-11-06T08:14:58Z</time>
      </trkpt>
      <trkpt lat="-21.20799" lon="55.29849">
        <ele>190.02667236328</ele>
        <time>2012-11-06T08:15:00Z</time>
      </trkpt>
      <trkpt lat="-21.20799" lon="55.29849">
        <ele>190.02667236328</ele>
        <time>2012-11-06T08:15:00Z</time>
      </trkpt>
      <trkpt lat="-21.20799" lon="55.29849">
        <ele>190.02667236328</ele>
        <time>2012-11-06T08:15:02Z</time>
      </trkpt>
      <trkpt lat="-21.20799" lon="55.29849">
        <ele>190.02667236328</ele>
        <time>2012-11-06T08:15:02Z</time>
      </trkpt>
      <trkpt lat="-21.20799" lon="55.29849">
        <ele>190.02667236328</ele>
        <time>2012-11-06T08:15:03Z</time>
      </trkpt>
      <trkpt lat="-21.20799" lon="55.29849">
        <ele>190.02667236328</ele>
        <time>2012-11-06T08:15:03Z</time>
      </trkpt>
      <trkpt lat="-21.20799" lon="55.29849">
        <ele>190.02667236328</ele>
        <time>2012-11-06T08:15:04Z</time>
      </trkpt>
      <trkpt lat="-21.20799" lon="55.29849">
        <ele>190.02667236328</ele>
        <time>2012-11-06T08:15:04Z</time>
      </trkpt>
      <trkpt lat="-21.20799" lon="55.29849">
        <ele>190.02667236328</ele>
        <time>2012-11-06T08:15:05Z</time>
      </trkpt>
      <trkpt lat="-21.20799" lon="55.29849">
        <ele>190.02667236328</ele>
        <time>2012-11-06T08:15:05Z</time>
      </trkpt>
      <trkpt lat="-21.20799" lon="55.29849">
        <ele>190.02667236328</ele>
        <time>2012-11-06T08:15:06Z</time>
      </trkpt>
      <trkpt lat="-21.20799" lon="55.29849">
        <ele>190.02667236328</ele>
        <time>2012-11-06T08:15:06Z</time>
      </trkpt>
      <trkpt lat="-21.20799" lon="55.29849">
        <ele>190.02667236328</ele>
        <time>2012-11-06T08:15:08Z</time>
      </trkpt>
      <trkpt lat="-21.20799" lon="55.29849">
        <ele>190.02667236328</ele>
        <time>2012-11-06T08:15:08Z</time>
      </trkpt>
      <trkpt lat="-21.20799" lon="55.29849">
        <ele>190.02667236328</ele>
        <time>2012-11-06T08:15:10Z</time>
      </trkpt>
      <trkpt lat="-21.20799" lon="55.29849">
        <ele>190.02667236328</ele>
        <time>2012-11-06T08:15:10Z</time>
      </trkpt>
      <trkpt lat="-21.20799" lon="55.29849">
        <ele>190.02667236328</ele>
        <time>2012-11-06T08:15:13Z</time>
      </trkpt>
      <trkpt lat="-21.20799" lon="55.29849">
        <ele>190.02667236328</ele>
        <time>2012-11-06T08:15:13Z</time>
      </trkpt>
      <trkpt lat="-21.20799" lon="55.29849">
        <ele>190.02667236328</ele>
        <time>2012-11-06T08:15:14Z</time>
      </trkpt>
      <trkpt lat="-21.20799" lon="55.29849">
        <ele>190.02667236328</ele>
        <time>2012-11-06T08:15:14Z</time>
      </trkpt>
      <trkpt lat="-21.20799" lon="55.29849">
        <ele>190.02667236328</ele>
        <time>2012-11-06T08:15:16Z</time>
      </trkpt>
      <trkpt lat="-21.20799" lon="55.29849">
        <ele>190.02667236328</ele>
        <time>2012-11-06T08:15:16Z</time>
      </trkpt>
      <trkpt lat="-21.20799" lon="55.29849">
        <ele>190.02667236328</ele>
        <time>2012-11-06T08:15:18Z</time>
      </trkpt>
      <trkpt lat="-21.20799" lon="55.29849">
        <ele>190.02667236328</ele>
        <time>2012-11-06T08:15:18Z</time>
      </trkpt>
      <trkpt lat="-21.20799" lon="55.29849">
        <ele>190.02667236328</ele>
        <time>2012-11-06T08:15:21Z</time>
      </trkpt>
      <trkpt lat="-21.20799" lon="55.29849">
        <ele>190.02667236328</ele>
        <time>2012-11-06T08:15:21Z</time>
      </trkpt>
      <trkpt lat="-21.20799" lon="55.29849">
        <ele>190.02667236328</ele>
        <time>2012-11-06T08:15:22Z</time>
      </trkpt>
      <trkpt lat="-21.20799" lon="55.29849">
        <ele>190.02667236328</ele>
        <time>2012-11-06T08:15:22Z</time>
      </trkpt>
      <trkpt lat="-21.20799" lon="55.29849">
        <ele>190.02667236328</ele>
        <time>2012-11-06T08:15:23Z</time>
      </trkpt>
      <trkpt lat="-21.20799" lon="55.29849">
        <ele>190.02667236328</ele>
        <time>2012-11-06T08:15:23Z</time>
      </trkpt>
      <trkpt lat="-21.20799" lon="55.29849">
        <ele>190.02667236328</ele>
        <time>2012-11-06T08:15:24Z</time>
      </trkpt>
      <trkpt lat="-21.20799" lon="55.29849">
        <ele>190.02667236328</ele>
        <time>2012-11-06T08:15:24Z</time>
      </trkpt>
      <trkpt lat="-21.20799" lon="55.29849">
        <ele>190.02667236328</ele>
        <time>2012-11-06T08:15:25Z</time>
      </trkpt>
      <trkpt lat="-21.20799" lon="55.29849">
        <ele>190.02667236328</ele>
        <time>2012-11-06T08:15:25Z</time>
      </trkpt>
      <trkpt lat="-21.20799" lon="55.29849">
        <ele>190.02667236328</ele>
        <time>2012-11-06T08:15:27Z</time>
      </trkpt>
      <trkpt lat="-21.20799" lon="55.29849">
        <ele>190.02667236328</ele>
        <time>2012-11-06T08:15:27Z</time>
      </trkpt>
      <trkpt lat="-21.20799" lon="55.29849">
        <ele>190.02667236328</ele>
        <time>2012-11-06T08:15:29Z</time>
      </trkpt>
      <trkpt lat="-21.20799" lon="55.29849">
        <ele>190.02667236328</ele>
        <time>2012-11-06T08:15:29Z</time>
      </trkpt>
      <trkpt lat="-21.20799" lon="55.29849">
        <ele>190.02667236328</ele>
        <time>2012-11-06T08:15:30Z</time>
      </trkpt>
      <trkpt lat="-21.20799" lon="55.29849">
        <ele>190.02667236328</ele>
        <time>2012-11-06T08:15:30Z</time>
      </trkpt>
      <trkpt lat="-21.20799" lon="55.29849">
        <ele>190.02667236328</ele>
        <time>2012-11-06T08:15:31Z</time>
      </trkpt>
      <trkpt lat="-21.20799" lon="55.29849">
        <ele>190.02667236328</ele>
        <time>2012-11-06T08:15:31Z</time>
      </trkpt>
      <trkpt lat="-21.20799" lon="55.29849">
        <ele>190.02667236328</ele>
        <time>2012-11-06T08:15:32Z</time>
      </trkpt>
      <trkpt lat="-21.20799" lon="55.29849">
        <ele>190.02667236328</ele>
        <time>2012-11-06T08:15:32Z</time>
      </trkpt>
      <trkpt lat="-21.20803" lon="55.29846">
        <ele>196.41888427734</ele>
        <time>2012-11-06T08:15:34Z</time>
      </trkpt>
      <trkpt lat="-21.20803" lon="55.29846">
        <ele>196.41888427734</ele>
        <time>2012-11-06T08:15:34Z</time>
      </trkpt>
      <trkpt lat="-21.20803" lon="55.29846">
        <ele>196.41888427734</ele>
        <time>2012-11-06T08:15:35Z</time>
      </trkpt>
      <trkpt lat="-21.20803" lon="55.29846">
        <ele>196.41888427734</ele>
        <time>2012-11-06T08:15:35Z</time>
      </trkpt>
      <trkpt lat="-21.20803" lon="55.29846">
        <ele>196.41888427734</ele>
        <time>2012-11-06T08:15:37Z</time>
      </trkpt>
      <trkpt lat="-21.20803" lon="55.29846">
        <ele>196.41888427734</ele>
        <time>2012-11-06T08:15:40Z</time>
      </trkpt>
      <trkpt lat="-21.20803" lon="55.29846">
        <ele>196.41888427734</ele>
        <time>2012-11-06T08:15:41Z</time>
      </trkpt>
      <trkpt lat="-21.20803" lon="55.29846">
        <ele>196.41888427734</ele>
        <time>2012-11-06T08:15:44Z</time>
      </trkpt>
      <trkpt lat="-21.20803" lon="55.29846">
        <ele>196.41888427734</ele>
        <time>2012-11-06T08:15:44Z</time>
      </trkpt>
      <trkpt lat="-21.20803" lon="55.29846">
        <ele>196.41888427734</ele>
        <time>2012-11-06T08:15:44Z</time>
      </trkpt>
      <trkpt lat="-21.20803" lon="55.29846">
        <ele>196.41888427734</ele>
        <time>2012-11-06T08:15:45Z</time>
      </trkpt>
      <trkpt lat="-21.20803" lon="55.29846">
        <ele>196.41888427734</ele>
        <time>2012-11-06T08:15:45Z</time>
      </trkpt>
      <trkpt lat="-21.20803" lon="55.29846">
        <ele>196.41888427734</ele>
        <time>2012-11-06T08:15:46Z</time>
      </trkpt>
      <trkpt lat="-21.20803" lon="55.29846">
        <ele>196.41888427734</ele>
        <time>2012-11-06T08:15:46Z</time>
      </trkpt>
      <trkpt lat="-21.20803" lon="55.29846">
        <ele>196.41888427734</ele>
        <time>2012-11-06T08:15:47Z</time>
      </trkpt>
      <trkpt lat="-21.20803" lon="55.29846">
        <ele>196.41888427734</ele>
        <time>2012-11-06T08:15:47Z</time>
      </trkpt>
      <trkpt lat="-21.20803" lon="55.29846">
        <ele>196.41888427734</ele>
        <time>2012-11-06T08:15:50Z</time>
      </trkpt>
      <trkpt lat="-21.20803" lon="55.29846">
        <ele>196.41888427734</ele>
        <time>2012-11-06T08:15:50Z</time>
      </trkpt>
      <trkpt lat="-21.20803" lon="55.29846">
        <ele>196.41888427734</ele>
        <time>2012-11-06T08:15:52Z</time>
      </trkpt>
      <trkpt lat="-21.20803" lon="55.29846">
        <ele>196.41888427734</ele>
        <time>2012-11-06T08:15:52Z</time>
      </trkpt>
      <trkpt lat="-21.20803" lon="55.29846">
        <ele>196.41888427734</ele>
        <time>2012-11-06T08:15:53Z</time>
      </trkpt>
      <trkpt lat="-21.20803" lon="55.29846">
        <ele>196.41888427734</ele>
        <time>2012-11-06T08:15:53Z</time>
      </trkpt>
      <trkpt lat="-21.20803" lon="55.29846">
        <ele>196.41888427734</ele>
        <time>2012-11-06T08:15:54Z</time>
      </trkpt>
      <trkpt lat="-21.20803" lon="55.29846">
        <ele>196.41888427734</ele>
        <time>2012-11-06T08:15:54Z</time>
      </trkpt>
      <trkpt lat="-21.20803" lon="55.29846">
        <ele>196.41888427734</ele>
        <time>2012-11-06T08:15:55Z</time>
      </trkpt>
      <trkpt lat="-21.20803" lon="55.29846">
        <ele>196.41888427734</ele>
        <time>2012-11-06T08:15:55Z</time>
      </trkpt>
      <trkpt lat="-21.20803" lon="55.29846">
        <ele>196.41888427734</ele>
        <time>2012-11-06T08:15:57Z</time>
      </trkpt>
      <trkpt lat="-21.20803" lon="55.29846">
        <ele>196.41888427734</ele>
        <time>2012-11-06T08:15:57Z</time>
      </trkpt>
      <trkpt lat="-21.20808" lon="55.29848">
        <ele>189.62464904785</ele>
        <time>2012-11-06T08:15:58Z</time>
      </trkpt>
      <trkpt lat="-21.20808" lon="55.29848">
        <ele>189.62464904785</ele>
        <time>2012-11-06T08:15:58Z</time>
      </trkpt>
      <trkpt lat="-21.20808" lon="55.29848">
        <ele>189.62464904785</ele>
        <time>2012-11-06T08:16:00Z</time>
      </trkpt>
      <trkpt lat="-21.20808" lon="55.29848">
        <ele>189.62464904785</ele>
        <time>2012-11-06T08:16:00Z</time>
      </trkpt>
      <trkpt lat="-21.20808" lon="55.29848">
        <ele>189.62464904785</ele>
        <time>2012-11-06T08:16:00Z</time>
      </trkpt>
    </trkseg>
  </trk>
</gpx>